<?xml version='1.0' encoding='UTF-8'?><gpx version="1.1" creator="JPX - https://github.com/jenetics/jpx" xmlns="http://www.topografix.com/GPX/1/1"><trk><trkseg><trkpt lat="43.544334" lon="6.9675165"><ele>2.9999999999999996</ele><time>2026-04-12T05:27:37.864Z</time></trkpt><trkpt lat="43.5443129" lon="6.9674313"><ele>3.0</ele><time>2026-04-12T05:31:07.859Z</time></trkpt><trkpt lat="43.5442702" lon="6.9673594"><ele>3.0</ele><time>2026-04-12T05:31:14.867Z</time></trkpt><trkpt lat="43.5442274" lon="6.9672849"><ele>3.0</ele><time>2026-04-12T05:31:21.852Z</time></trkpt><trkpt lat="43.5441977" lon="6.9672074"><ele>3.0</ele><time>2026-04-12T05:31:27.868Z</time></trkpt><trkpt lat="43.544153" lon="6.9671314"><ele>2.9999999999999996</ele><time>2026-04-12T05:31:33.869Z</time></trkpt><trkpt lat="43.5441188" lon="6.9670437"><ele>3.0</ele><time>2026-04-12T05:31:41.878Z</time></trkpt><trkpt lat="43.5440905" lon="6.9669511"><ele>2.9999999999999996</ele><time>2026-04-12T05:31:50.848Z</time></trkpt><trkpt lat="43.5440686" lon="6.9668629"><ele>3.0</ele><time>2026-04-12T05:31:57.877Z</time></trkpt><trkpt lat="43.5440431" lon="6.966775"><ele>3.0</ele><time>2026-04-12T05:32:04.86Z</time></trkpt><trkpt lat="43.5440292" lon="6.9666889"><ele>3.0</ele><time>2026-04-12T05:32:11.88Z</time></trkpt><trkpt lat="43.5440165" lon="6.9665876"><ele>3.0</ele><time>2026-04-12T05:32:16.863Z</time></trkpt><trkpt lat="43.5439879" lon="6.9664726"><ele>2.9999999999999996</ele><time>2026-04-12T05:32:19.878Z</time></trkpt><trkpt lat="43.5439571" lon="6.9663763"><ele>3.0</ele><time>2026-04-12T05:32:21.883Z</time></trkpt><trkpt lat="43.5439275" lon="6.9662519"><ele>3.0</ele><time>2026-04-12T05:32:23.863Z</time></trkpt><trkpt lat="43.5438824" lon="6.9661327"><ele>3.0</ele><time>2026-04-12T05:32:25.868Z</time></trkpt><trkpt lat="43.5438442" lon="6.9660025"><ele>3.0</ele><time>2026-04-12T05:32:27.873Z</time></trkpt><trkpt lat="43.5437991" lon="6.9658866"><ele>3.0</ele><time>2026-04-12T05:32:29.871Z</time></trkpt><trkpt lat="43.543756" lon="6.965766"><ele>3.0</ele><time>2026-04-12T05:32:31.866Z</time></trkpt><trkpt lat="43.5437078" lon="6.9656536"><ele>3.0</ele><time>2026-04-12T05:32:33.882Z</time></trkpt><trkpt lat="43.5436663" lon="6.9655333"><ele>3.0</ele><time>2026-04-12T05:32:35.895Z</time></trkpt><trkpt lat="43.5436211" lon="6.9653983"><ele>3.0</ele><time>2026-04-12T05:32:37.887Z</time></trkpt><trkpt lat="43.5435655" lon="6.9652649"><ele>3.0</ele><time>2026-04-12T05:32:39.836Z</time></trkpt><trkpt lat="43.5435159" lon="6.9651318"><ele>3.0</ele><time>2026-04-12T05:32:41.893Z</time></trkpt><trkpt lat="43.5434467" lon="6.9649939"><ele>4.2</ele><time>2026-04-12T05:32:43.917Z</time></trkpt><trkpt lat="43.5434077" lon="6.9649175"><ele>5.4</ele><time>2026-04-12T05:32:44.868Z</time></trkpt><trkpt lat="43.5433487" lon="6.9647715"><ele>6.6000000000000005</ele><time>2026-04-12T05:32:46.903Z</time></trkpt><trkpt lat="43.5432911" lon="6.9646233"><ele>7.8</ele><time>2026-04-12T05:32:48.879Z</time></trkpt><trkpt lat="43.5432331" lon="6.9644715"><ele>9.0</ele><time>2026-04-12T05:32:50.889Z</time></trkpt><trkpt lat="43.5431975" lon="6.9643882"><ele>9.000000000000002</ele><time>2026-04-12T05:32:51.866Z</time></trkpt><trkpt lat="43.5431627" lon="6.9643056"><ele>9.0</ele><time>2026-04-12T05:32:52.887Z</time></trkpt><trkpt lat="43.5431297" lon="6.9642063"><ele>9.0</ele><time>2026-04-12T05:32:53.856Z</time></trkpt><trkpt lat="43.5430949" lon="6.9641219"><ele>9.0</ele><time>2026-04-12T05:32:54.88Z</time></trkpt><trkpt lat="43.5430632" lon="6.9640248"><ele>9.0</ele><time>2026-04-12T05:32:55.88Z</time></trkpt><trkpt lat="43.5430306" lon="6.9639303"><ele>9.000000000000002</ele><time>2026-04-12T05:32:56.857Z</time></trkpt><trkpt lat="43.5429926" lon="6.9638463"><ele>9.0</ele><time>2026-04-12T05:32:57.909Z</time></trkpt><trkpt lat="43.5429509" lon="6.9637587"><ele>9.0</ele><time>2026-04-12T05:32:58.885Z</time></trkpt><trkpt lat="43.542916" lon="6.9636714"><ele>9.0</ele><time>2026-04-12T05:32:59.868Z</time></trkpt><trkpt lat="43.5428738" lon="6.9635899"><ele>9.0</ele><time>2026-04-12T05:33:00.879Z</time></trkpt><trkpt lat="43.542826" lon="6.9635"><ele>9.0</ele><time>2026-04-12T05:33:01.859Z</time></trkpt><trkpt lat="43.5427817" lon="6.9634019"><ele>9.0</ele><time>2026-04-12T05:33:02.869Z</time></trkpt><trkpt lat="43.5427362" lon="6.9632972"><ele>9.0</ele><time>2026-04-12T05:33:03.931Z</time></trkpt><trkpt lat="43.542685" lon="6.963205"><ele>9.0</ele><time>2026-04-12T05:33:04.872Z</time></trkpt><trkpt lat="43.5426381" lon="6.9631124"><ele>9.0</ele><time>2026-04-12T05:33:05.86Z</time></trkpt><trkpt lat="43.5425947" lon="6.9630153"><ele>9.0</ele><time>2026-04-12T05:33:06.848Z</time></trkpt><trkpt lat="43.5425451" lon="6.9629183"><ele>9.0</ele><time>2026-04-12T05:33:07.903Z</time></trkpt><trkpt lat="43.5425047" lon="6.9628229"><ele>9.0</ele><time>2026-04-12T05:33:08.895Z</time></trkpt><trkpt lat="43.5424678" lon="6.9627346"><ele>9.0</ele><time>2026-04-12T05:33:09.879Z</time></trkpt><trkpt lat="43.542429" lon="6.9626455"><ele>9.000000000000002</ele><time>2026-04-12T05:33:10.903Z</time></trkpt><trkpt lat="43.5423808" lon="6.9625591"><ele>9.0</ele><time>2026-04-12T05:33:11.888Z</time></trkpt><trkpt lat="43.5423398" lon="6.9624689"><ele>9.0</ele><time>2026-04-12T05:33:12.858Z</time></trkpt><trkpt lat="43.5422956" lon="6.9623863"><ele>9.0</ele><time>2026-04-12T05:33:13.902Z</time></trkpt><trkpt lat="43.5422553" lon="6.9623032"><ele>9.0</ele><time>2026-04-12T05:33:14.864Z</time></trkpt><trkpt lat="43.5422193" lon="6.9622192"><ele>9.000000000000002</ele><time>2026-04-12T05:33:15.873Z</time></trkpt><trkpt lat="43.5421748" lon="6.9621396"><ele>9.0</ele><time>2026-04-12T05:33:16.876Z</time></trkpt><trkpt lat="43.5421365" lon="6.962054"><ele>9.333333333333334</ele><time>2026-04-12T05:33:17.866Z</time></trkpt><trkpt lat="43.5421008" lon="6.9619713"><ele>9.666666666666666</ele><time>2026-04-12T05:33:18.902Z</time></trkpt><trkpt lat="43.5420694" lon="6.961884"><ele>10.0</ele><time>2026-04-12T05:33:19.837Z</time></trkpt><trkpt lat="43.54204" lon="6.9618027"><ele>10.333333333333332</ele><time>2026-04-12T05:33:20.905Z</time></trkpt><trkpt lat="43.5419787" lon="6.9616665"><ele>10.666666666666666</ele><time>2026-04-12T05:33:22.864Z</time></trkpt><trkpt lat="43.5419128" lon="6.9615258"><ele>11.0</ele><time>2026-04-12T05:33:24.898Z</time></trkpt><trkpt lat="43.541876" lon="6.9614509"><ele>10.0</ele><time>2026-04-12T05:33:25.912Z</time></trkpt><trkpt lat="43.5418176" lon="6.9613094"><ele>9.0</ele><time>2026-04-12T05:33:27.883Z</time></trkpt><trkpt lat="43.5418214" lon="6.961167"><ele>8.0</ele><time>2026-04-12T05:33:29.886Z</time></trkpt><trkpt lat="43.5419063" lon="6.9610403"><ele>7.0</ele><time>2026-04-12T05:33:31.868Z</time></trkpt><trkpt lat="43.5419635" lon="6.9609695"><ele>6.0</ele><time>2026-04-12T05:33:32.883Z</time></trkpt><trkpt lat="43.5420241" lon="6.960899"><ele>6.199999999999999</ele><time>2026-04-12T05:33:33.911Z</time></trkpt><trkpt lat="43.5420902" lon="6.9608236"><ele>6.3999999999999995</ele><time>2026-04-12T05:33:34.895Z</time></trkpt><trkpt lat="43.5421606" lon="6.9607407"><ele>6.6</ele><time>2026-04-12T05:33:35.885Z</time></trkpt><trkpt lat="43.5422404" lon="6.9606566"><ele>6.8</ele><time>2026-04-12T05:33:36.889Z</time></trkpt><trkpt lat="43.5423201" lon="6.9605752"><ele>7.0</ele><time>2026-04-12T05:33:37.868Z</time></trkpt><trkpt lat="43.5423929" lon="6.9605046"><ele>7.000000000000001</ele><time>2026-04-12T05:33:38.896Z</time></trkpt><trkpt lat="43.5424723" lon="6.9604454"><ele>7.0</ele><time>2026-04-12T05:33:39.863Z</time></trkpt><trkpt lat="43.5425428" lon="6.9603852"><ele>7.0</ele><time>2026-04-12T05:33:40.896Z</time></trkpt><trkpt lat="43.5426051" lon="6.9603284"><ele>7.0</ele><time>2026-04-12T05:33:41.876Z</time></trkpt><trkpt lat="43.5426645" lon="6.9602715"><ele>7.000000000000001</ele><time>2026-04-12T05:33:42.919Z</time></trkpt><trkpt lat="43.5427271" lon="6.9602128"><ele>7.0</ele><time>2026-04-12T05:33:43.863Z</time></trkpt><trkpt lat="43.542783" lon="6.9601605"><ele>7.0</ele><time>2026-04-12T05:33:44.893Z</time></trkpt><trkpt lat="43.5428758" lon="6.9600773"><ele>6.999999999999999</ele><time>2026-04-12T05:33:46.878Z</time></trkpt><trkpt lat="43.54296" lon="6.9600122"><ele>6.999999999999999</ele><time>2026-04-12T05:33:48.907Z</time></trkpt><trkpt lat="43.5430555" lon="6.9599952"><ele>7.0</ele><time>2026-04-12T05:33:50.897Z</time></trkpt><trkpt lat="43.5431392" lon="6.9600756"><ele>7.0</ele><time>2026-04-12T05:33:52.855Z</time></trkpt><trkpt lat="43.5432385" lon="6.960157"><ele>6.5</ele><time>2026-04-12T05:33:54.896Z</time></trkpt><trkpt lat="43.5433534" lon="6.9601176"><ele>6.0</ele><time>2026-04-12T05:33:56.893Z</time></trkpt><trkpt lat="43.5434762" lon="6.9600674"><ele>5.5</ele><time>2026-04-12T05:33:58.899Z</time></trkpt><trkpt lat="43.5435927" lon="6.9600734"><ele>5.0</ele><time>2026-04-12T05:34:00.883Z</time></trkpt><trkpt lat="43.5436908" lon="6.9601617"><ele>5.0</ele><time>2026-04-12T05:34:02.89Z</time></trkpt><trkpt lat="43.5437864" lon="6.9602696"><ele>5.0</ele><time>2026-04-12T05:34:04.873Z</time></trkpt><trkpt lat="43.5438857" lon="6.9603709"><ele>5.0</ele><time>2026-04-12T05:34:06.9Z</time></trkpt><trkpt lat="43.5439402" lon="6.9604188"><ele>5.0</ele><time>2026-04-12T05:34:07.879Z</time></trkpt><trkpt lat="43.5440454" lon="6.9605134"><ele>5.0</ele><time>2026-04-12T05:34:09.904Z</time></trkpt><trkpt lat="43.5441057" lon="6.9605751"><ele>5.0</ele><time>2026-04-12T05:34:10.883Z</time></trkpt><trkpt lat="43.5441653" lon="6.9606412"><ele>5.0</ele><time>2026-04-12T05:34:11.876Z</time></trkpt><trkpt lat="43.5442362" lon="6.9607066"><ele>5.0</ele><time>2026-04-12T05:34:12.872Z</time></trkpt><trkpt lat="43.544302" lon="6.9607711"><ele>5.0</ele><time>2026-04-12T05:34:13.886Z</time></trkpt><trkpt lat="43.5443645" lon="6.9608312"><ele>5.0</ele><time>2026-04-12T05:34:14.909Z</time></trkpt><trkpt lat="43.5444211" lon="6.9608943"><ele>5.0</ele><time>2026-04-12T05:34:15.893Z</time></trkpt><trkpt lat="43.5444782" lon="6.9609578"><ele>4.714285714285714</ele><time>2026-04-12T05:34:16.899Z</time></trkpt><trkpt lat="43.5445385" lon="6.9610146"><ele>4.428571428571429</ele><time>2026-04-12T05:34:17.899Z</time></trkpt><trkpt lat="43.5446025" lon="6.9610773"><ele>4.142857142857142</ele><time>2026-04-12T05:34:18.872Z</time></trkpt><trkpt lat="43.5446573" lon="6.9611362"><ele>3.8571428571428568</ele><time>2026-04-12T05:34:19.907Z</time></trkpt><trkpt lat="43.5447108" lon="6.961192"><ele>3.571428571428571</ele><time>2026-04-12T05:34:20.877Z</time></trkpt><trkpt lat="43.5447716" lon="6.9612531"><ele>3.2857142857142856</ele><time>2026-04-12T05:34:21.884Z</time></trkpt><trkpt lat="43.5448287" lon="6.9613198"><ele>3.0</ele><time>2026-04-12T05:34:22.878Z</time></trkpt><trkpt lat="43.5448865" lon="6.9613867"><ele>2.9999999999999996</ele><time>2026-04-12T05:34:23.865Z</time></trkpt><trkpt lat="43.5449388" lon="6.9614452"><ele>3.0</ele><time>2026-04-12T05:34:24.9Z</time></trkpt><trkpt lat="43.5449937" lon="6.9615079"><ele>3.0</ele><time>2026-04-12T05:34:25.895Z</time></trkpt><trkpt lat="43.5450548" lon="6.9615662"><ele>3.0</ele><time>2026-04-12T05:34:26.883Z</time></trkpt><trkpt lat="43.5451161" lon="6.9616224"><ele>3.0</ele><time>2026-04-12T05:34:27.838Z</time></trkpt><trkpt lat="43.5451745" lon="6.9616769"><ele>2.9999999999999996</ele><time>2026-04-12T05:34:28.908Z</time></trkpt><trkpt lat="43.5452386" lon="6.9617366"><ele>3.0</ele><time>2026-04-12T05:34:29.903Z</time></trkpt><trkpt lat="43.5453022" lon="6.9617887"><ele>3.0</ele><time>2026-04-12T05:34:30.88Z</time></trkpt><trkpt lat="43.5453698" lon="6.9618387"><ele>3.0</ele><time>2026-04-12T05:34:31.877Z</time></trkpt><trkpt lat="43.5454388" lon="6.9618882"><ele>3.0</ele><time>2026-04-12T05:34:32.888Z</time></trkpt><trkpt lat="43.5455021" lon="6.9619414"><ele>3.0</ele><time>2026-04-12T05:34:33.891Z</time></trkpt><trkpt lat="43.5455696" lon="6.9619934"><ele>3.0</ele><time>2026-04-12T05:34:34.894Z</time></trkpt><trkpt lat="43.5456347" lon="6.9620372"><ele>3.0</ele><time>2026-04-12T05:34:35.887Z</time></trkpt><trkpt lat="43.5457049" lon="6.9620813"><ele>3.0</ele><time>2026-04-12T05:34:36.884Z</time></trkpt><trkpt lat="43.5457778" lon="6.9621151"><ele>3.0</ele><time>2026-04-12T05:34:37.881Z</time></trkpt><trkpt lat="43.5458548" lon="6.962149"><ele>3.0</ele><time>2026-04-12T05:34:38.905Z</time></trkpt><trkpt lat="43.5459309" lon="6.9621801"><ele>3.0</ele><time>2026-04-12T05:34:39.893Z</time></trkpt><trkpt lat="43.5460034" lon="6.9622158"><ele>3.0</ele><time>2026-04-12T05:34:40.908Z</time></trkpt><trkpt lat="43.5460759" lon="6.9622407"><ele>3.0</ele><time>2026-04-12T05:34:41.831Z</time></trkpt><trkpt lat="43.5461475" lon="6.9622757"><ele>3.666666666666667</ele><time>2026-04-12T05:34:42.885Z</time></trkpt><trkpt lat="43.5462178" lon="6.9623016"><ele>4.333333333333334</ele><time>2026-04-12T05:34:43.896Z</time></trkpt><trkpt lat="43.54629" lon="6.9623303"><ele>5.0</ele><time>2026-04-12T05:34:44.889Z</time></trkpt><trkpt lat="43.5463629" lon="6.9623676"><ele>5.666666666666667</ele><time>2026-04-12T05:34:45.889Z</time></trkpt><trkpt lat="43.5464343" lon="6.9624032"><ele>6.333333333333334</ele><time>2026-04-12T05:34:46.907Z</time></trkpt><trkpt lat="43.5465148" lon="6.9624207"><ele>7.0</ele><time>2026-04-12T05:34:47.884Z</time></trkpt><trkpt lat="43.5465943" lon="6.9624269"><ele>7.000000000000001</ele><time>2026-04-12T05:34:48.88Z</time></trkpt><trkpt lat="43.546674" lon="6.9624365"><ele>7.0</ele><time>2026-04-12T05:34:49.884Z</time></trkpt><trkpt lat="43.5467551" lon="6.962435"><ele>7.0</ele><time>2026-04-12T05:34:50.877Z</time></trkpt><trkpt lat="43.5468341" lon="6.962428"><ele>7.0</ele><time>2026-04-12T05:34:51.884Z</time></trkpt><trkpt lat="43.5469175" lon="6.962423"><ele>7.000000000000001</ele><time>2026-04-12T05:34:52.893Z</time></trkpt><trkpt lat="43.5469934" lon="6.9624205"><ele>7.0</ele><time>2026-04-12T05:34:53.827Z</time></trkpt><trkpt lat="43.5470742" lon="6.9624197"><ele>6.666666666666667</ele><time>2026-04-12T05:34:54.827Z</time></trkpt><trkpt lat="43.5471524" lon="6.9624192"><ele>6.333333333333334</ele><time>2026-04-12T05:34:55.842Z</time></trkpt><trkpt lat="43.5472386" lon="6.9624099"><ele>6.0</ele><time>2026-04-12T05:34:56.845Z</time></trkpt><trkpt lat="43.5473226" lon="6.9623746"><ele>5.666666666666667</ele><time>2026-04-12T05:34:57.859Z</time></trkpt><trkpt lat="43.5474047" lon="6.9623721"><ele>5.333333333333334</ele><time>2026-04-12T05:34:58.856Z</time></trkpt><trkpt lat="43.5474839" lon="6.9623634"><ele>5.0</ele><time>2026-04-12T05:34:59.824Z</time></trkpt><trkpt lat="43.5475622" lon="6.9623664"><ele>5.0</ele><time>2026-04-12T05:35:00.891Z</time></trkpt><trkpt lat="43.5476476" lon="6.9623642"><ele>5.0</ele><time>2026-04-12T05:35:01.891Z</time></trkpt><trkpt lat="43.5477252" lon="6.962369"><ele>5.0</ele><time>2026-04-12T05:35:02.867Z</time></trkpt><trkpt lat="43.5478076" lon="6.9623662"><ele>5.0</ele><time>2026-04-12T05:35:03.901Z</time></trkpt><trkpt lat="43.547886" lon="6.9623688"><ele>5.0</ele><time>2026-04-12T05:35:04.886Z</time></trkpt><trkpt lat="43.5479611" lon="6.9623646"><ele>5.0</ele><time>2026-04-12T05:35:05.861Z</time></trkpt><trkpt lat="43.548032" lon="6.9623576"><ele>4.833333333333334</ele><time>2026-04-12T05:35:06.869Z</time></trkpt><trkpt lat="43.5481083" lon="6.962344"><ele>4.666666666666667</ele><time>2026-04-12T05:35:07.888Z</time></trkpt><trkpt lat="43.5481887" lon="6.9623395"><ele>4.5</ele><time>2026-04-12T05:35:08.882Z</time></trkpt><trkpt lat="43.5482647" lon="6.9623388"><ele>4.333333333333333</ele><time>2026-04-12T05:35:09.9Z</time></trkpt><trkpt lat="43.5483446" lon="6.9623409"><ele>4.166666666666666</ele><time>2026-04-12T05:35:10.886Z</time></trkpt><trkpt lat="43.5484185" lon="6.9623319"><ele>4.0</ele><time>2026-04-12T05:35:11.905Z</time></trkpt><trkpt lat="43.5484915" lon="6.9623244"><ele>4.0</ele><time>2026-04-12T05:35:12.889Z</time></trkpt><trkpt lat="43.5485642" lon="6.9623153"><ele>3.9999999999999996</ele><time>2026-04-12T05:35:13.899Z</time></trkpt><trkpt lat="43.5486347" lon="6.9623152"><ele>4.0</ele><time>2026-04-12T05:35:14.888Z</time></trkpt><trkpt lat="43.5487067" lon="6.9623142"><ele>4.0</ele><time>2026-04-12T05:35:15.881Z</time></trkpt><trkpt lat="43.5487807" lon="6.9623024"><ele>3.9999999999999996</ele><time>2026-04-12T05:35:16.909Z</time></trkpt><trkpt lat="43.548859" lon="6.9622997"><ele>4.0</ele><time>2026-04-12T05:35:17.895Z</time></trkpt><trkpt lat="43.5489353" lon="6.9623005"><ele>4.0</ele><time>2026-04-12T05:35:18.863Z</time></trkpt><trkpt lat="43.549014" lon="6.9622967"><ele>3.833333333333333</ele><time>2026-04-12T05:35:19.863Z</time></trkpt><trkpt lat="43.5490926" lon="6.9622953"><ele>3.6666666666666665</ele><time>2026-04-12T05:35:20.889Z</time></trkpt><trkpt lat="43.5491707" lon="6.9622902"><ele>3.5</ele><time>2026-04-12T05:35:21.858Z</time></trkpt><trkpt lat="43.5492489" lon="6.9622797"><ele>3.333333333333333</ele><time>2026-04-12T05:35:22.87Z</time></trkpt><trkpt lat="43.5493283" lon="6.9622769"><ele>3.1666666666666665</ele><time>2026-04-12T05:35:23.845Z</time></trkpt><trkpt lat="43.5494047" lon="6.9622737"><ele>3.0</ele><time>2026-04-12T05:35:24.885Z</time></trkpt><trkpt lat="43.5494775" lon="6.9622752"><ele>3.0</ele><time>2026-04-12T05:35:25.84Z</time></trkpt><trkpt lat="43.5495505" lon="6.9622772"><ele>3.0</ele><time>2026-04-12T05:35:26.841Z</time></trkpt><trkpt lat="43.5496285" lon="6.9622925"><ele>3.0</ele><time>2026-04-12T05:35:27.9Z</time></trkpt><trkpt lat="43.5497049" lon="6.9622923"><ele>3.0</ele><time>2026-04-12T05:35:28.896Z</time></trkpt><trkpt lat="43.5497694" lon="6.9622992"><ele>3.0</ele><time>2026-04-12T05:35:29.887Z</time></trkpt><trkpt lat="43.5498893" lon="6.9623206"><ele>3.0</ele><time>2026-04-12T05:35:31.92Z</time></trkpt><trkpt lat="43.549994" lon="6.9624079"><ele>3.0</ele><time>2026-04-12T05:35:33.855Z</time></trkpt><trkpt lat="43.5500807" lon="6.9625233"><ele>3.0</ele><time>2026-04-12T05:35:35.929Z</time></trkpt><trkpt lat="43.5501829" lon="6.962556"><ele>3.0</ele><time>2026-04-12T05:35:37.882Z</time></trkpt><trkpt lat="43.5502921" lon="6.9625004"><ele>3.0</ele><time>2026-04-12T05:35:39.908Z</time></trkpt><trkpt lat="43.5503496" lon="6.9623738"><ele>3.0</ele><time>2026-04-12T05:35:41.883Z</time></trkpt><trkpt lat="43.5503521" lon="6.9622845"><ele>3.0</ele><time>2026-04-12T05:35:42.904Z</time></trkpt><trkpt lat="43.5503142" lon="6.9621357"><ele>3.0</ele><time>2026-04-12T05:35:44.898Z</time></trkpt><trkpt lat="43.5502527" lon="6.9619859"><ele>3.0</ele><time>2026-04-12T05:35:46.882Z</time></trkpt><trkpt lat="43.5502441" lon="6.9618103"><ele>3.0</ele><time>2026-04-12T05:35:48.871Z</time></trkpt><trkpt lat="43.550255" lon="6.9616369"><ele>2.8333333333333335</ele><time>2026-04-12T05:35:50.882Z</time></trkpt><trkpt lat="43.5502671" lon="6.9615463"><ele>2.6666666666666665</ele><time>2026-04-12T05:35:51.881Z</time></trkpt><trkpt lat="43.550276" lon="6.9614448"><ele>2.5</ele><time>2026-04-12T05:35:52.853Z</time></trkpt><trkpt lat="43.5502846" lon="6.9613385"><ele>2.333333333333333</ele><time>2026-04-12T05:35:53.892Z</time></trkpt><trkpt lat="43.5502915" lon="6.9612346"><ele>2.1666666666666665</ele><time>2026-04-12T05:35:54.841Z</time></trkpt><trkpt lat="43.5503011" lon="6.9611336"><ele>2.0</ele><time>2026-04-12T05:35:55.88Z</time></trkpt><trkpt lat="43.5503143" lon="6.9610219"><ele>1.9999999999999998</ele><time>2026-04-12T05:35:56.884Z</time></trkpt><trkpt lat="43.5503223" lon="6.9609135"><ele>2.0</ele><time>2026-04-12T05:35:57.864Z</time></trkpt><trkpt lat="43.5503289" lon="6.9607987"><ele>2.0</ele><time>2026-04-12T05:35:58.909Z</time></trkpt><trkpt lat="43.5503317" lon="6.9606851"><ele>2.0</ele><time>2026-04-12T05:35:59.852Z</time></trkpt><trkpt lat="43.550333" lon="6.9605704"><ele>1.9999999999999998</ele><time>2026-04-12T05:36:00.906Z</time></trkpt><trkpt lat="43.5503398" lon="6.9604512"><ele>2.0</ele><time>2026-04-12T05:36:01.85Z</time></trkpt><trkpt lat="43.5503448" lon="6.9603432"><ele>2.333333333333333</ele><time>2026-04-12T05:36:02.878Z</time></trkpt><trkpt lat="43.5503435" lon="6.9602339"><ele>2.6666666666666665</ele><time>2026-04-12T05:36:03.897Z</time></trkpt><trkpt lat="43.550348" lon="6.960127"><ele>3.0</ele><time>2026-04-12T05:36:04.85Z</time></trkpt><trkpt lat="43.550355" lon="6.9600127"><ele>3.333333333333333</ele><time>2026-04-12T05:36:05.894Z</time></trkpt><trkpt lat="43.5503605" lon="6.9598963"><ele>3.6666666666666665</ele><time>2026-04-12T05:36:06.852Z</time></trkpt><trkpt lat="43.5503745" lon="6.9597746"><ele>4.0</ele><time>2026-04-12T05:36:07.877Z</time></trkpt><trkpt lat="43.5503845" lon="6.9596584"><ele>4.5</ele><time>2026-04-12T05:36:08.832Z</time></trkpt><trkpt lat="43.5503954" lon="6.9595397"><ele>5.0</ele><time>2026-04-12T05:36:09.898Z</time></trkpt><trkpt lat="43.5503989" lon="6.9594227"><ele>5.5</ele><time>2026-04-12T05:36:10.881Z</time></trkpt><trkpt lat="43.5504048" lon="6.9593024"><ele>6.0</ele><time>2026-04-12T05:36:11.884Z</time></trkpt><trkpt lat="43.5504002" lon="6.9591819"><ele>6.500000000000001</ele><time>2026-04-12T05:36:12.918Z</time></trkpt><trkpt lat="43.5504063" lon="6.9590592"><ele>7.0</ele><time>2026-04-12T05:36:13.87Z</time></trkpt><trkpt lat="43.550419" lon="6.9589438"><ele>7.000000000000001</ele><time>2026-04-12T05:36:14.848Z</time></trkpt><trkpt lat="43.550424" lon="6.9588292"><ele>7.0</ele><time>2026-04-12T05:36:15.904Z</time></trkpt><trkpt lat="43.5504254" lon="6.9587103"><ele>7.0</ele><time>2026-04-12T05:36:16.894Z</time></trkpt><trkpt lat="43.5504325" lon="6.9585975"><ele>7.0</ele><time>2026-04-12T05:36:17.904Z</time></trkpt><trkpt lat="43.5504428" lon="6.9584894"><ele>7.000000000000001</ele><time>2026-04-12T05:36:18.876Z</time></trkpt><trkpt lat="43.5504482" lon="6.9583699"><ele>7.0</ele><time>2026-04-12T05:36:19.854Z</time></trkpt><trkpt lat="43.5504577" lon="6.9582703"><ele>7.000000000000001</ele><time>2026-04-12T05:36:20.875Z</time></trkpt><trkpt lat="43.5504608" lon="6.958161"><ele>7.0</ele><time>2026-04-12T05:36:21.89Z</time></trkpt><trkpt lat="43.5504693" lon="6.9580451"><ele>7.0</ele><time>2026-04-12T05:36:22.882Z</time></trkpt><trkpt lat="43.5504718" lon="6.95794"><ele>7.0</ele><time>2026-04-12T05:36:23.827Z</time></trkpt><trkpt lat="43.5504773" lon="6.9578309"><ele>7.000000000000001</ele><time>2026-04-12T05:36:24.884Z</time></trkpt><trkpt lat="43.5504868" lon="6.9577338"><ele>7.0</ele><time>2026-04-12T05:36:25.913Z</time></trkpt><trkpt lat="43.5505015" lon="6.9576403"><ele>7.0</ele><time>2026-04-12T05:36:26.888Z</time></trkpt><trkpt lat="43.5505346" lon="6.9575566"><ele>7.0</ele><time>2026-04-12T05:36:27.892Z</time></trkpt><trkpt lat="43.550575" lon="6.9574841"><ele>7.0</ele><time>2026-04-12T05:36:28.873Z</time></trkpt><trkpt lat="43.5506149" lon="6.9574025"><ele>7.0</ele><time>2026-04-12T05:36:29.887Z</time></trkpt><trkpt lat="43.5506453" lon="6.9573062"><ele>7.0</ele><time>2026-04-12T05:36:30.858Z</time></trkpt><trkpt lat="43.5506722" lon="6.9572168"><ele>7.0</ele><time>2026-04-12T05:36:31.849Z</time></trkpt><trkpt lat="43.5507023" lon="6.9571336"><ele>7.0</ele><time>2026-04-12T05:36:32.919Z</time></trkpt><trkpt lat="43.5507405" lon="6.9570443"><ele>6.833333333333334</ele><time>2026-04-12T05:36:33.87Z</time></trkpt><trkpt lat="43.5507726" lon="6.9569492"><ele>6.666666666666667</ele><time>2026-04-12T05:36:34.877Z</time></trkpt><trkpt lat="43.5508134" lon="6.9568506"><ele>6.5</ele><time>2026-04-12T05:36:35.911Z</time></trkpt><trkpt lat="43.5508547" lon="6.956755"><ele>6.333333333333334</ele><time>2026-04-12T05:36:36.887Z</time></trkpt><trkpt lat="43.5508988" lon="6.956661"><ele>6.166666666666667</ele><time>2026-04-12T05:36:37.873Z</time></trkpt><trkpt lat="43.5509416" lon="6.9565712"><ele>6.0</ele><time>2026-04-12T05:36:38.849Z</time></trkpt><trkpt lat="43.5509916" lon="6.9564879"><ele>6.0</ele><time>2026-04-12T05:36:39.9Z</time></trkpt><trkpt lat="43.5510512" lon="6.9564042"><ele>6.0</ele><time>2026-04-12T05:36:40.902Z</time></trkpt><trkpt lat="43.551109" lon="6.9563156"><ele>6.0</ele><time>2026-04-12T05:36:41.895Z</time></trkpt><trkpt lat="43.5511678" lon="6.9562343"><ele>6.0</ele><time>2026-04-12T05:36:42.896Z</time></trkpt><trkpt lat="43.5512281" lon="6.9561597"><ele>6.0</ele><time>2026-04-12T05:36:43.874Z</time></trkpt><trkpt lat="43.5512913" lon="6.956089"><ele>6.0</ele><time>2026-04-12T05:36:44.868Z</time></trkpt><trkpt lat="43.5513543" lon="6.9560138"><ele>6.0</ele><time>2026-04-12T05:36:45.885Z</time></trkpt><trkpt lat="43.5514209" lon="6.9559464"><ele>6.0</ele><time>2026-04-12T05:36:46.896Z</time></trkpt><trkpt lat="43.5514902" lon="6.9558825"><ele>6.0</ele><time>2026-04-12T05:36:47.883Z</time></trkpt><trkpt lat="43.5515564" lon="6.9558218"><ele>6.0</ele><time>2026-04-12T05:36:48.889Z</time></trkpt><trkpt lat="43.5516285" lon="6.9557651"><ele>6.0</ele><time>2026-04-12T05:36:49.869Z</time></trkpt><trkpt lat="43.5516946" lon="6.9557126"><ele>6.0</ele><time>2026-04-12T05:36:50.873Z</time></trkpt><trkpt lat="43.5517627" lon="6.9556549"><ele>6.0</ele><time>2026-04-12T05:36:51.882Z</time></trkpt><trkpt lat="43.5518367" lon="6.9556064"><ele>6.0</ele><time>2026-04-12T05:36:52.887Z</time></trkpt><trkpt lat="43.5519181" lon="6.9555659"><ele>6.0</ele><time>2026-04-12T05:36:53.905Z</time></trkpt><trkpt lat="43.5519948" lon="6.9555216"><ele>6.0</ele><time>2026-04-12T05:36:54.895Z</time></trkpt><trkpt lat="43.5520643" lon="6.9554798"><ele>6.0</ele><time>2026-04-12T05:36:55.897Z</time></trkpt><trkpt lat="43.5521372" lon="6.955444"><ele>6.0</ele><time>2026-04-12T05:36:56.856Z</time></trkpt><trkpt lat="43.5522126" lon="6.9554048"><ele>6.0</ele><time>2026-04-12T05:36:57.895Z</time></trkpt><trkpt lat="43.5522891" lon="6.9553718"><ele>6.0</ele><time>2026-04-12T05:36:58.885Z</time></trkpt><trkpt lat="43.5523633" lon="6.9553372"><ele>6.0</ele><time>2026-04-12T05:36:59.859Z</time></trkpt><trkpt lat="43.5524379" lon="6.9553102"><ele>6.0</ele><time>2026-04-12T05:37:00.849Z</time></trkpt><trkpt lat="43.5525155" lon="6.9552804"><ele>6.0</ele><time>2026-04-12T05:37:01.888Z</time></trkpt><trkpt lat="43.5525893" lon="6.955249"><ele>6.0</ele><time>2026-04-12T05:37:02.909Z</time></trkpt><trkpt lat="43.5526602" lon="6.9552209"><ele>5.999999999999999</ele><time>2026-04-12T05:37:03.904Z</time></trkpt><trkpt lat="43.5527363" lon="6.9551917"><ele>6.0</ele><time>2026-04-12T05:37:04.881Z</time></trkpt><trkpt lat="43.5528128" lon="6.9551655"><ele>6.0</ele><time>2026-04-12T05:37:05.862Z</time></trkpt><trkpt lat="43.552884" lon="6.9551411"><ele>6.0</ele><time>2026-04-12T05:37:06.896Z</time></trkpt><trkpt lat="43.5529463" lon="6.9551093"><ele>6.0</ele><time>2026-04-12T05:37:07.883Z</time></trkpt><trkpt lat="43.5530113" lon="6.9550894"><ele>5.999999999999999</ele><time>2026-04-12T05:37:08.896Z</time></trkpt><trkpt lat="43.5530799" lon="6.9550653"><ele>6.0</ele><time>2026-04-12T05:37:09.882Z</time></trkpt><trkpt lat="43.5531483" lon="6.9550388"><ele>5.857142857142857</ele><time>2026-04-12T05:37:10.902Z</time></trkpt><trkpt lat="43.5532192" lon="6.9550095"><ele>5.714285714285714</ele><time>2026-04-12T05:37:11.888Z</time></trkpt><trkpt lat="43.5532911" lon="6.9549862"><ele>5.571428571428571</ele><time>2026-04-12T05:37:12.889Z</time></trkpt><trkpt lat="43.5533586" lon="6.9549625"><ele>5.428571428571429</ele><time>2026-04-12T05:37:13.891Z</time></trkpt><trkpt lat="43.5534317" lon="6.9549371"><ele>5.285714285714286</ele><time>2026-04-12T05:37:14.892Z</time></trkpt><trkpt lat="43.5535035" lon="6.9549147"><ele>5.142857142857142</ele><time>2026-04-12T05:37:15.865Z</time></trkpt><trkpt lat="43.553571" lon="6.9548878"><ele>5.0</ele><time>2026-04-12T05:37:16.9Z</time></trkpt><trkpt lat="43.553643" lon="6.9548671"><ele>5.142857142857142</ele><time>2026-04-12T05:37:17.892Z</time></trkpt><trkpt lat="43.5537139" lon="6.9548485"><ele>5.285714285714286</ele><time>2026-04-12T05:37:18.896Z</time></trkpt><trkpt lat="43.5537846" lon="6.9548237"><ele>5.428571428571429</ele><time>2026-04-12T05:37:19.921Z</time></trkpt><trkpt lat="43.5538528" lon="6.9547992"><ele>5.571428571428571</ele><time>2026-04-12T05:37:20.878Z</time></trkpt><trkpt lat="43.5539286" lon="6.9547806"><ele>5.714285714285714</ele><time>2026-04-12T05:37:21.864Z</time></trkpt><trkpt lat="43.5540059" lon="6.9547538"><ele>5.857142857142857</ele><time>2026-04-12T05:37:22.895Z</time></trkpt><trkpt lat="43.5540797" lon="6.9547272"><ele>6.0</ele><time>2026-04-12T05:37:23.892Z</time></trkpt><trkpt lat="43.5541502" lon="6.9546997"><ele>6.0</ele><time>2026-04-12T05:37:24.891Z</time></trkpt><trkpt lat="43.5542261" lon="6.9546692"><ele>6.0</ele><time>2026-04-12T05:37:25.885Z</time></trkpt><trkpt lat="43.5542997" lon="6.9546468"><ele>6.0</ele><time>2026-04-12T05:37:26.901Z</time></trkpt><trkpt lat="43.5543769" lon="6.9546303"><ele>6.0</ele><time>2026-04-12T05:37:27.844Z</time></trkpt><trkpt lat="43.5544592" lon="6.9546238"><ele>6.0</ele><time>2026-04-12T05:37:28.886Z</time></trkpt><trkpt lat="43.5545401" lon="6.9546027"><ele>6.0</ele><time>2026-04-12T05:37:29.898Z</time></trkpt><trkpt lat="43.5546126" lon="6.9545724"><ele>6.166666666666667</ele><time>2026-04-12T05:37:30.894Z</time></trkpt><trkpt lat="43.5546955" lon="6.9545452"><ele>6.333333333333334</ele><time>2026-04-12T05:37:31.893Z</time></trkpt><trkpt lat="43.5547788" lon="6.9545159"><ele>6.5</ele><time>2026-04-12T05:37:32.877Z</time></trkpt><trkpt lat="43.5548587" lon="6.9544857"><ele>6.666666666666667</ele><time>2026-04-12T05:37:33.91Z</time></trkpt><trkpt lat="43.554934" lon="6.9544538"><ele>6.833333333333334</ele><time>2026-04-12T05:37:34.878Z</time></trkpt><trkpt lat="43.5550106" lon="6.9544144"><ele>7.0</ele><time>2026-04-12T05:37:35.927Z</time></trkpt><trkpt lat="43.5550867" lon="6.954376"><ele>7.000000000000001</ele><time>2026-04-12T05:37:36.873Z</time></trkpt><trkpt lat="43.5551658" lon="6.9543455"><ele>7.0</ele><time>2026-04-12T05:37:37.841Z</time></trkpt><trkpt lat="43.5552471" lon="6.9543087"><ele>7.0</ele><time>2026-04-12T05:37:38.895Z</time></trkpt><trkpt lat="43.5553283" lon="6.9542756"><ele>7.0</ele><time>2026-04-12T05:37:39.867Z</time></trkpt><trkpt lat="43.5554087" lon="6.9542403"><ele>7.000000000000001</ele><time>2026-04-12T05:37:40.908Z</time></trkpt><trkpt lat="43.5554904" lon="6.9542077"><ele>7.0</ele><time>2026-04-12T05:37:41.894Z</time></trkpt><trkpt lat="43.5555698" lon="6.954169"><ele>7.166666666666667</ele><time>2026-04-12T05:37:42.879Z</time></trkpt><trkpt lat="43.555647" lon="6.9541311"><ele>7.333333333333334</ele><time>2026-04-12T05:37:43.87Z</time></trkpt><trkpt lat="43.5557244" lon="6.954086"><ele>7.5</ele><time>2026-04-12T05:37:44.891Z</time></trkpt><trkpt lat="43.5558028" lon="6.954038"><ele>7.666666666666666</ele><time>2026-04-12T05:37:45.892Z</time></trkpt><trkpt lat="43.5558833" lon="6.9539911"><ele>7.833333333333333</ele><time>2026-04-12T05:37:46.869Z</time></trkpt><trkpt lat="43.5559607" lon="6.9539379"><ele>8.0</ele><time>2026-04-12T05:37:47.911Z</time></trkpt><trkpt lat="43.5560304" lon="6.9538735"><ele>7.999999999999999</ele><time>2026-04-12T05:37:48.87Z</time></trkpt><trkpt lat="43.5561028" lon="6.9538112"><ele>8.0</ele><time>2026-04-12T05:37:49.878Z</time></trkpt><trkpt lat="43.5561754" lon="6.9537496"><ele>8.0</ele><time>2026-04-12T05:37:50.912Z</time></trkpt><trkpt lat="43.5562448" lon="6.9536937"><ele>8.0</ele><time>2026-04-12T05:37:51.861Z</time></trkpt><trkpt lat="43.55631" lon="6.9536363"><ele>7.999999999999999</ele><time>2026-04-12T05:37:52.875Z</time></trkpt><trkpt lat="43.5563718" lon="6.9535794"><ele>8.0</ele><time>2026-04-12T05:37:53.915Z</time></trkpt><trkpt lat="43.5564388" lon="6.9535282"><ele>7.571428571428571</ele><time>2026-04-12T05:37:54.836Z</time></trkpt><trkpt lat="43.5565033" lon="6.9534747"><ele>7.142857142857142</ele><time>2026-04-12T05:37:55.895Z</time></trkpt><trkpt lat="43.5565703" lon="6.9534446"><ele>6.7142857142857135</ele><time>2026-04-12T05:37:56.92Z</time></trkpt><trkpt lat="43.5566385" lon="6.9534442"><ele>6.285714285714286</ele><time>2026-04-12T05:37:57.88Z</time></trkpt><trkpt lat="43.5567085" lon="6.9534489"><ele>5.857142857142858</ele><time>2026-04-12T05:37:58.877Z</time></trkpt><trkpt lat="43.556777" lon="6.9534531"><ele>5.428571428571429</ele><time>2026-04-12T05:37:59.865Z</time></trkpt><trkpt lat="43.5568487" lon="6.9534262"><ele>5.0</ele><time>2026-04-12T05:38:00.878Z</time></trkpt><trkpt lat="43.5569137" lon="6.9533821"><ele>5.0</ele><time>2026-04-12T05:38:01.906Z</time></trkpt><trkpt lat="43.5569701" lon="6.9533232"><ele>5.0</ele><time>2026-04-12T05:38:02.871Z</time></trkpt><trkpt lat="43.5570235" lon="6.9532548"><ele>5.0</ele><time>2026-04-12T05:38:03.908Z</time></trkpt><trkpt lat="43.5570763" lon="6.953181"><ele>5.0</ele><time>2026-04-12T05:38:04.89Z</time></trkpt><trkpt lat="43.5571333" lon="6.9531198"><ele>5.0</ele><time>2026-04-12T05:38:05.872Z</time></trkpt><trkpt lat="43.55719" lon="6.9530528"><ele>5.0</ele><time>2026-04-12T05:38:06.879Z</time></trkpt><trkpt lat="43.557244" lon="6.9529694"><ele>5.0</ele><time>2026-04-12T05:38:07.832Z</time></trkpt><trkpt lat="43.5572877" lon="6.9528846"><ele>5.0</ele><time>2026-04-12T05:38:08.896Z</time></trkpt><trkpt lat="43.5573181" lon="6.9527826"><ele>5.0</ele><time>2026-04-12T05:38:09.901Z</time></trkpt><trkpt lat="43.5573315" lon="6.9526775"><ele>5.0</ele><time>2026-04-12T05:38:10.875Z</time></trkpt><trkpt lat="43.5573382" lon="6.9525658"><ele>5.0</ele><time>2026-04-12T05:38:11.892Z</time></trkpt><trkpt lat="43.557351" lon="6.9524501"><ele>5.0</ele><time>2026-04-12T05:38:12.895Z</time></trkpt><trkpt lat="43.5573765" lon="6.9523317"><ele>5.0</ele><time>2026-04-12T05:38:13.869Z</time></trkpt><trkpt lat="43.5574189" lon="6.9522152"><ele>5.0</ele><time>2026-04-12T05:38:14.877Z</time></trkpt><trkpt lat="43.5574702" lon="6.952113"><ele>5.0</ele><time>2026-04-12T05:38:15.85Z</time></trkpt><trkpt lat="43.5575356" lon="6.9520362"><ele>5.0</ele><time>2026-04-12T05:38:16.879Z</time></trkpt><trkpt lat="43.5576115" lon="6.9519732"><ele>5.0</ele><time>2026-04-12T05:38:17.862Z</time></trkpt><trkpt lat="43.5576906" lon="6.9519324"><ele>5.0</ele><time>2026-04-12T05:38:18.893Z</time></trkpt><trkpt lat="43.5577793" lon="6.9519046"><ele>5.0</ele><time>2026-04-12T05:38:19.873Z</time></trkpt><trkpt lat="43.5578804" lon="6.9518771"><ele>5.2</ele><time>2026-04-12T05:38:20.89Z</time></trkpt><trkpt lat="43.5579758" lon="6.9518433"><ele>5.4</ele><time>2026-04-12T05:38:21.853Z</time></trkpt><trkpt lat="43.5580714" lon="6.9518132"><ele>5.6</ele><time>2026-04-12T05:38:22.873Z</time></trkpt><trkpt lat="43.5581723" lon="6.9518006"><ele>5.8</ele><time>2026-04-12T05:38:23.866Z</time></trkpt><trkpt lat="43.5582726" lon="6.9517678"><ele>6.0</ele><time>2026-04-12T05:38:24.891Z</time></trkpt><trkpt lat="43.5583774" lon="6.9517467"><ele>5.833333333333333</ele><time>2026-04-12T05:38:25.897Z</time></trkpt><trkpt lat="43.5584861" lon="6.9516728"><ele>5.666666666666667</ele><time>2026-04-12T05:38:27.871Z</time></trkpt><trkpt lat="43.5585701" lon="6.9516381"><ele>5.5</ele><time>2026-04-12T05:38:28.88Z</time></trkpt><trkpt lat="43.5586353" lon="6.9516139"><ele>5.333333333333334</ele><time>2026-04-12T05:38:29.896Z</time></trkpt><trkpt lat="43.5587129" lon="6.9515886"><ele>5.166666666666667</ele><time>2026-04-12T05:38:30.901Z</time></trkpt><trkpt lat="43.5587931" lon="6.9515648"><ele>5.0</ele><time>2026-04-12T05:38:31.885Z</time></trkpt><trkpt lat="43.5588725" lon="6.9515356"><ele>5.333333333333334</ele><time>2026-04-12T05:38:32.902Z</time></trkpt><trkpt lat="43.558945" lon="6.9515041"><ele>5.666666666666667</ele><time>2026-04-12T05:38:33.864Z</time></trkpt><trkpt lat="43.5590163" lon="6.9514768"><ele>6.0</ele><time>2026-04-12T05:38:34.869Z</time></trkpt><trkpt lat="43.5590849" lon="6.9514546"><ele>6.333333333333334</ele><time>2026-04-12T05:38:35.877Z</time></trkpt><trkpt lat="43.559161" lon="6.9514293"><ele>6.666666666666667</ele><time>2026-04-12T05:38:36.873Z</time></trkpt><trkpt lat="43.5592327" lon="6.951393"><ele>7.0</ele><time>2026-04-12T05:38:37.868Z</time></trkpt><trkpt lat="43.5593102" lon="6.9513619"><ele>7.000000000000001</ele><time>2026-04-12T05:38:38.904Z</time></trkpt><trkpt lat="43.5593907" lon="6.9513331"><ele>7.0</ele><time>2026-04-12T05:38:39.901Z</time></trkpt><trkpt lat="43.5594691" lon="6.9513085"><ele>7.0</ele><time>2026-04-12T05:38:40.875Z</time></trkpt><trkpt lat="43.5595404" lon="6.9512906"><ele>7.0</ele><time>2026-04-12T05:38:41.901Z</time></trkpt><trkpt lat="43.5596121" lon="6.9512709"><ele>7.000000000000001</ele><time>2026-04-12T05:38:42.876Z</time></trkpt><trkpt lat="43.5596859" lon="6.951244"><ele>7.0</ele><time>2026-04-12T05:38:43.866Z</time></trkpt><trkpt lat="43.5597625" lon="6.9512151"><ele>7.000000000000001</ele><time>2026-04-12T05:38:44.9Z</time></trkpt><trkpt lat="43.55984" lon="6.9511845"><ele>7.0</ele><time>2026-04-12T05:38:45.879Z</time></trkpt><trkpt lat="43.559915" lon="6.9511545"><ele>7.0</ele><time>2026-04-12T05:38:46.877Z</time></trkpt><trkpt lat="43.5599882" lon="6.9511246"><ele>7.0</ele><time>2026-04-12T05:38:47.856Z</time></trkpt><trkpt lat="43.5600608" lon="6.9511024"><ele>7.000000000000001</ele><time>2026-04-12T05:38:48.863Z</time></trkpt><trkpt lat="43.5601331" lon="6.9510775"><ele>7.0</ele><time>2026-04-12T05:38:49.865Z</time></trkpt><trkpt lat="43.5602119" lon="6.9510578"><ele>7.0</ele><time>2026-04-12T05:38:50.857Z</time></trkpt><trkpt lat="43.5602889" lon="6.9510318"><ele>7.0</ele><time>2026-04-12T05:38:51.858Z</time></trkpt><trkpt lat="43.5603633" lon="6.951008"><ele>7.0</ele><time>2026-04-12T05:38:52.903Z</time></trkpt><trkpt lat="43.5604355" lon="6.9509883"><ele>7.0</ele><time>2026-04-12T05:38:53.92Z</time></trkpt><trkpt lat="43.5605099" lon="6.950974"><ele>7.0</ele><time>2026-04-12T05:38:54.878Z</time></trkpt><trkpt lat="43.5605772" lon="6.9509662"><ele>7.0</ele><time>2026-04-12T05:38:55.889Z</time></trkpt><trkpt lat="43.5606437" lon="6.9509922"><ele>7.0</ele><time>2026-04-12T05:38:56.882Z</time></trkpt><trkpt lat="43.560702" lon="6.9510437"><ele>6.857142857142857</ele><time>2026-04-12T05:38:57.85Z</time></trkpt><trkpt lat="43.5607655" lon="6.9510929"><ele>6.714285714285714</ele><time>2026-04-12T05:38:58.876Z</time></trkpt><trkpt lat="43.560829" lon="6.9511169"><ele>6.571428571428571</ele><time>2026-04-12T05:38:59.855Z</time></trkpt><trkpt lat="43.5608922" lon="6.9511316"><ele>6.428571428571429</ele><time>2026-04-12T05:39:00.891Z</time></trkpt><trkpt lat="43.5609543" lon="6.9511085"><ele>6.285714285714286</ele><time>2026-04-12T05:39:01.868Z</time></trkpt><trkpt lat="43.5610146" lon="6.951061"><ele>6.142857142857142</ele><time>2026-04-12T05:39:02.89Z</time></trkpt><trkpt lat="43.5610721" lon="6.9509855"><ele>6.0</ele><time>2026-04-12T05:39:03.901Z</time></trkpt><trkpt lat="43.5611285" lon="6.9509036"><ele>5.666666666666667</ele><time>2026-04-12T05:39:04.887Z</time></trkpt><trkpt lat="43.5611827" lon="6.9508287"><ele>5.333333333333333</ele><time>2026-04-12T05:39:05.864Z</time></trkpt><trkpt lat="43.5612514" lon="6.9507661"><ele>5.0</ele><time>2026-04-12T05:39:06.891Z</time></trkpt><trkpt lat="43.5613292" lon="6.9507333"><ele>4.666666666666666</ele><time>2026-04-12T05:39:07.875Z</time></trkpt><trkpt lat="43.5614022" lon="6.9507024"><ele>4.333333333333333</ele><time>2026-04-12T05:39:08.885Z</time></trkpt><trkpt lat="43.5614751" lon="6.9506816"><ele>4.0</ele><time>2026-04-12T05:39:09.871Z</time></trkpt><trkpt lat="43.5615495" lon="6.9506582"><ele>3.9999999999999996</ele><time>2026-04-12T05:39:10.83Z</time></trkpt><trkpt lat="43.5616235" lon="6.9506412"><ele>4.0</ele><time>2026-04-12T05:39:11.884Z</time></trkpt><trkpt lat="43.5617004" lon="6.9506132"><ele>4.0</ele><time>2026-04-12T05:39:12.866Z</time></trkpt><trkpt lat="43.5617761" lon="6.950585"><ele>4.0</ele><time>2026-04-12T05:39:13.907Z</time></trkpt><trkpt lat="43.5618528" lon="6.9505521"><ele>3.9999999999999996</ele><time>2026-04-12T05:39:14.89Z</time></trkpt><trkpt lat="43.5619306" lon="6.9505173"><ele>4.0</ele><time>2026-04-12T05:39:15.892Z</time></trkpt><trkpt lat="43.5620113" lon="6.9504868"><ele>4.166666666666666</ele><time>2026-04-12T05:39:16.848Z</time></trkpt><trkpt lat="43.5620889" lon="6.950459"><ele>4.333333333333333</ele><time>2026-04-12T05:39:17.871Z</time></trkpt><trkpt lat="43.5621705" lon="6.9504358"><ele>4.5</ele><time>2026-04-12T05:39:18.878Z</time></trkpt><trkpt lat="43.5622488" lon="6.9504132"><ele>4.666666666666667</ele><time>2026-04-12T05:39:19.892Z</time></trkpt><trkpt lat="43.5623281" lon="6.9503873"><ele>4.833333333333334</ele><time>2026-04-12T05:39:20.895Z</time></trkpt><trkpt lat="43.5624119" lon="6.9503616"><ele>5.0</ele><time>2026-04-12T05:39:21.843Z</time></trkpt><trkpt lat="43.562495" lon="6.9503319"><ele>5.0</ele><time>2026-04-12T05:39:22.877Z</time></trkpt><trkpt lat="43.5625774" lon="6.950298"><ele>5.0</ele><time>2026-04-12T05:39:23.888Z</time></trkpt><trkpt lat="43.5626627" lon="6.950266"><ele>5.0</ele><time>2026-04-12T05:39:24.887Z</time></trkpt><trkpt lat="43.5627414" lon="6.9502337"><ele>5.0</ele><time>2026-04-12T05:39:25.888Z</time></trkpt><trkpt lat="43.5628292" lon="6.9501983"><ele>5.0</ele><time>2026-04-12T05:39:26.896Z</time></trkpt><trkpt lat="43.562909" lon="6.9501765"><ele>5.0</ele><time>2026-04-12T05:39:27.903Z</time></trkpt><trkpt lat="43.5629849" lon="6.9501567"><ele>5.166666666666667</ele><time>2026-04-12T05:39:28.868Z</time></trkpt><trkpt lat="43.563063" lon="6.9501322"><ele>5.333333333333334</ele><time>2026-04-12T05:39:29.888Z</time></trkpt><trkpt lat="43.5631403" lon="6.9501158"><ele>5.5</ele><time>2026-04-12T05:39:30.853Z</time></trkpt><trkpt lat="43.5632194" lon="6.9500907"><ele>5.666666666666667</ele><time>2026-04-12T05:39:31.866Z</time></trkpt><trkpt lat="43.5632999" lon="6.950062"><ele>5.833333333333333</ele><time>2026-04-12T05:39:32.902Z</time></trkpt><trkpt lat="43.5633804" lon="6.9500352"><ele>6.0</ele><time>2026-04-12T05:39:33.889Z</time></trkpt><trkpt lat="43.5634567" lon="6.9500072"><ele>6.166666666666667</ele><time>2026-04-12T05:39:34.895Z</time></trkpt><trkpt lat="43.5635396" lon="6.9499765"><ele>6.333333333333334</ele><time>2026-04-12T05:39:35.897Z</time></trkpt><trkpt lat="43.5636209" lon="6.949945"><ele>6.5</ele><time>2026-04-12T05:39:36.886Z</time></trkpt><trkpt lat="43.5637054" lon="6.9499102"><ele>6.666666666666667</ele><time>2026-04-12T05:39:37.901Z</time></trkpt><trkpt lat="43.5637886" lon="6.9498737"><ele>6.833333333333334</ele><time>2026-04-12T05:39:38.917Z</time></trkpt><trkpt lat="43.5638757" lon="6.9498368"><ele>7.0</ele><time>2026-04-12T05:39:39.885Z</time></trkpt><trkpt lat="43.5639623" lon="6.9497984"><ele>6.666666666666667</ele><time>2026-04-12T05:39:40.898Z</time></trkpt><trkpt lat="43.5640465" lon="6.9497652"><ele>6.333333333333334</ele><time>2026-04-12T05:39:41.872Z</time></trkpt><trkpt lat="43.5641262" lon="6.9497404"><ele>6.0</ele><time>2026-04-12T05:39:42.897Z</time></trkpt><trkpt lat="43.5642084" lon="6.9497081"><ele>5.666666666666667</ele><time>2026-04-12T05:39:43.922Z</time></trkpt><trkpt lat="43.5642915" lon="6.9496744"><ele>5.333333333333334</ele><time>2026-04-12T05:39:44.873Z</time></trkpt><trkpt lat="43.564376" lon="6.9496394"><ele>5.0</ele><time>2026-04-12T05:39:45.927Z</time></trkpt><trkpt lat="43.5644595" lon="6.9496062"><ele>5.166666666666667</ele><time>2026-04-12T05:39:46.892Z</time></trkpt><trkpt lat="43.5645476" lon="6.949572"><ele>5.333333333333334</ele><time>2026-04-12T05:39:47.909Z</time></trkpt><trkpt lat="43.5646341" lon="6.9495399"><ele>5.5</ele><time>2026-04-12T05:39:48.864Z</time></trkpt><trkpt lat="43.5647211" lon="6.9495052"><ele>5.666666666666667</ele><time>2026-04-12T05:39:49.864Z</time></trkpt><trkpt lat="43.5648075" lon="6.9494712"><ele>5.833333333333333</ele><time>2026-04-12T05:39:50.896Z</time></trkpt><trkpt lat="43.5648909" lon="6.949444"><ele>6.0</ele><time>2026-04-12T05:39:51.867Z</time></trkpt><trkpt lat="43.5649719" lon="6.9494099"><ele>6.0</ele><time>2026-04-12T05:39:52.919Z</time></trkpt><trkpt lat="43.5650538" lon="6.9493757"><ele>6.0</ele><time>2026-04-12T05:39:53.88Z</time></trkpt><trkpt lat="43.5651363" lon="6.9493456"><ele>6.0</ele><time>2026-04-12T05:39:54.897Z</time></trkpt><trkpt lat="43.5652183" lon="6.9493164"><ele>6.0</ele><time>2026-04-12T05:39:55.893Z</time></trkpt><trkpt lat="43.5652937" lon="6.9492867"><ele>6.0</ele><time>2026-04-12T05:39:56.882Z</time></trkpt><trkpt lat="43.5653719" lon="6.9492625"><ele>6.0</ele><time>2026-04-12T05:39:57.888Z</time></trkpt><trkpt lat="43.5654573" lon="6.9492384"><ele>6.666666666666667</ele><time>2026-04-12T05:39:58.884Z</time></trkpt><trkpt lat="43.565539" lon="6.9492104"><ele>7.333333333333334</ele><time>2026-04-12T05:39:59.919Z</time></trkpt><trkpt lat="43.5656158" lon="6.9491842"><ele>8.0</ele><time>2026-04-12T05:40:00.876Z</time></trkpt><trkpt lat="43.565693" lon="6.949156"><ele>8.666666666666668</ele><time>2026-04-12T05:40:01.89Z</time></trkpt><trkpt lat="43.5657732" lon="6.9491234"><ele>9.333333333333334</ele><time>2026-04-12T05:40:02.87Z</time></trkpt><trkpt lat="43.5658569" lon="6.9490921"><ele>10.0</ele><time>2026-04-12T05:40:03.897Z</time></trkpt><trkpt lat="43.5659382" lon="6.9490653"><ele>10.0</ele><time>2026-04-12T05:40:04.852Z</time></trkpt><trkpt lat="43.5660152" lon="6.9490364"><ele>10.0</ele><time>2026-04-12T05:40:05.841Z</time></trkpt><trkpt lat="43.5660921" lon="6.9490093"><ele>10.0</ele><time>2026-04-12T05:40:06.899Z</time></trkpt><trkpt lat="43.5661708" lon="6.9489815"><ele>10.0</ele><time>2026-04-12T05:40:07.89Z</time></trkpt><trkpt lat="43.5662424" lon="6.9489596"><ele>10.0</ele><time>2026-04-12T05:40:08.903Z</time></trkpt><trkpt lat="43.5663174" lon="6.9489355"><ele>10.0</ele><time>2026-04-12T05:40:09.907Z</time></trkpt><trkpt lat="43.5663872" lon="6.9489091"><ele>10.166666666666668</ele><time>2026-04-12T05:40:10.874Z</time></trkpt><trkpt lat="43.5664604" lon="6.9488929"><ele>10.333333333333334</ele><time>2026-04-12T05:40:11.895Z</time></trkpt><trkpt lat="43.5665323" lon="6.9488876"><ele>10.5</ele><time>2026-04-12T05:40:12.897Z</time></trkpt><trkpt lat="43.566612" lon="6.9489069"><ele>10.666666666666666</ele><time>2026-04-12T05:40:13.888Z</time></trkpt><trkpt lat="43.5666879" lon="6.9489467"><ele>10.833333333333332</ele><time>2026-04-12T05:40:14.887Z</time></trkpt><trkpt lat="43.5667603" lon="6.9489747"><ele>11.0</ele><time>2026-04-12T05:40:15.865Z</time></trkpt><trkpt lat="43.5668438" lon="6.948972"><ele>11.0</ele><time>2026-04-12T05:40:16.896Z</time></trkpt><trkpt lat="43.5669251" lon="6.9489475"><ele>11.0</ele><time>2026-04-12T05:40:17.878Z</time></trkpt><trkpt lat="43.5669948" lon="6.9489102"><ele>11.0</ele><time>2026-04-12T05:40:18.894Z</time></trkpt><trkpt lat="43.5670525" lon="6.948843"><ele>11.0</ele><time>2026-04-12T05:40:19.905Z</time></trkpt><trkpt lat="43.5671108" lon="6.9487578"><ele>11.0</ele><time>2026-04-12T05:40:20.891Z</time></trkpt><trkpt lat="43.567173" lon="6.9486852"><ele>11.0</ele><time>2026-04-12T05:40:21.886Z</time></trkpt><trkpt lat="43.5672423" lon="6.9486209"><ele>10.833333333333332</ele><time>2026-04-12T05:40:22.9Z</time></trkpt><trkpt lat="43.5673206" lon="6.9485722"><ele>10.666666666666666</ele><time>2026-04-12T05:40:23.89Z</time></trkpt><trkpt lat="43.5673984" lon="6.9485259"><ele>10.5</ele><time>2026-04-12T05:40:24.902Z</time></trkpt><trkpt lat="43.5674749" lon="6.9484752"><ele>10.333333333333334</ele><time>2026-04-12T05:40:25.886Z</time></trkpt><trkpt lat="43.5675552" lon="6.9484322"><ele>10.166666666666668</ele><time>2026-04-12T05:40:26.888Z</time></trkpt><trkpt lat="43.5676394" lon="6.9483903"><ele>10.0</ele><time>2026-04-12T05:40:27.872Z</time></trkpt><trkpt lat="43.5677234" lon="6.9483488"><ele>9.833333333333334</ele><time>2026-04-12T05:40:28.873Z</time></trkpt><trkpt lat="43.5678081" lon="6.9483094"><ele>9.666666666666668</ele><time>2026-04-12T05:40:29.884Z</time></trkpt><trkpt lat="43.5678925" lon="6.948267"><ele>9.5</ele><time>2026-04-12T05:40:30.898Z</time></trkpt><trkpt lat="43.5679779" lon="6.9482234"><ele>9.333333333333334</ele><time>2026-04-12T05:40:31.864Z</time></trkpt><trkpt lat="43.5680543" lon="6.9481781"><ele>9.166666666666666</ele><time>2026-04-12T05:40:32.879Z</time></trkpt><trkpt lat="43.5681328" lon="6.9481293"><ele>9.0</ele><time>2026-04-12T05:40:33.848Z</time></trkpt><trkpt lat="43.5682083" lon="6.9480767"><ele>8.666666666666666</ele><time>2026-04-12T05:40:34.892Z</time></trkpt><trkpt lat="43.5682831" lon="6.9480201"><ele>8.333333333333334</ele><time>2026-04-12T05:40:35.905Z</time></trkpt><trkpt lat="43.5683623" lon="6.947964"><ele>8.0</ele><time>2026-04-12T05:40:36.873Z</time></trkpt><trkpt lat="43.568433" lon="6.9479036"><ele>7.666666666666667</ele><time>2026-04-12T05:40:37.907Z</time></trkpt><trkpt lat="43.5685138" lon="6.9478438"><ele>7.333333333333334</ele><time>2026-04-12T05:40:38.904Z</time></trkpt><trkpt lat="43.56859" lon="6.9477744"><ele>7.0</ele><time>2026-04-12T05:40:39.88Z</time></trkpt><trkpt lat="43.5686703" lon="6.9477092"><ele>6.833333333333334</ele><time>2026-04-12T05:40:40.872Z</time></trkpt><trkpt lat="43.5687468" lon="6.9476429"><ele>6.666666666666667</ele><time>2026-04-12T05:40:41.899Z</time></trkpt><trkpt lat="43.5688221" lon="6.9475764"><ele>6.5</ele><time>2026-04-12T05:40:42.866Z</time></trkpt><trkpt lat="43.5688959" lon="6.9475098"><ele>6.333333333333334</ele><time>2026-04-12T05:40:43.867Z</time></trkpt><trkpt lat="43.568963" lon="6.9474444"><ele>6.166666666666667</ele><time>2026-04-12T05:40:44.883Z</time></trkpt><trkpt lat="43.5690323" lon="6.9473764"><ele>6.0</ele><time>2026-04-12T05:40:45.902Z</time></trkpt><trkpt lat="43.5691014" lon="6.9473078"><ele>6.0</ele><time>2026-04-12T05:40:46.881Z</time></trkpt><trkpt lat="43.569169" lon="6.9472355"><ele>6.0</ele><time>2026-04-12T05:40:47.887Z</time></trkpt><trkpt lat="43.5692382" lon="6.947156"><ele>6.0</ele><time>2026-04-12T05:40:48.914Z</time></trkpt><trkpt lat="43.5693029" lon="6.9470835"><ele>6.0</ele><time>2026-04-12T05:40:49.838Z</time></trkpt><trkpt lat="43.5693741" lon="6.9470098"><ele>6.0</ele><time>2026-04-12T05:40:50.886Z</time></trkpt><trkpt lat="43.5694445" lon="6.9469395"><ele>6.0</ele><time>2026-04-12T05:40:51.898Z</time></trkpt><trkpt lat="43.5695165" lon="6.946868"><ele>6.166666666666667</ele><time>2026-04-12T05:40:52.881Z</time></trkpt><trkpt lat="43.5695894" lon="6.9467947"><ele>6.333333333333334</ele><time>2026-04-12T05:40:53.897Z</time></trkpt><trkpt lat="43.5696602" lon="6.9467218"><ele>6.5</ele><time>2026-04-12T05:40:54.886Z</time></trkpt><trkpt lat="43.5697298" lon="6.946652"><ele>6.666666666666667</ele><time>2026-04-12T05:40:55.889Z</time></trkpt><trkpt lat="43.5698014" lon="6.9465857"><ele>6.833333333333334</ele><time>2026-04-12T05:40:56.889Z</time></trkpt><trkpt lat="43.5698731" lon="6.9465187"><ele>7.0</ele><time>2026-04-12T05:40:57.916Z</time></trkpt><trkpt lat="43.5699487" lon="6.9464528"><ele>7.166666666666667</ele><time>2026-04-12T05:40:58.855Z</time></trkpt><trkpt lat="43.570021" lon="6.9463908"><ele>7.333333333333334</ele><time>2026-04-12T05:40:59.896Z</time></trkpt><trkpt lat="43.5700911" lon="6.9463269"><ele>7.5</ele><time>2026-04-12T05:41:00.904Z</time></trkpt><trkpt lat="43.5701635" lon="6.946265"><ele>7.666666666666666</ele><time>2026-04-12T05:41:01.878Z</time></trkpt><trkpt lat="43.5702313" lon="6.9461984"><ele>7.833333333333333</ele><time>2026-04-12T05:41:02.899Z</time></trkpt><trkpt lat="43.5703001" lon="6.9461304"><ele>8.0</ele><time>2026-04-12T05:41:03.866Z</time></trkpt><trkpt lat="43.570372" lon="6.9460682"><ele>7.999999999999999</ele><time>2026-04-12T05:41:04.911Z</time></trkpt><trkpt lat="43.5704456" lon="6.9460117"><ele>8.0</ele><time>2026-04-12T05:41:05.861Z</time></trkpt><trkpt lat="43.5705192" lon="6.9459531"><ele>8.0</ele><time>2026-04-12T05:41:06.86Z</time></trkpt><trkpt lat="43.5705912" lon="6.9458929"><ele>8.0</ele><time>2026-04-12T05:41:07.88Z</time></trkpt><trkpt lat="43.5706624" lon="6.9458316"><ele>7.999999999999999</ele><time>2026-04-12T05:41:08.875Z</time></trkpt><trkpt lat="43.5707322" lon="6.9457713"><ele>8.0</ele><time>2026-04-12T05:41:09.884Z</time></trkpt><trkpt lat="43.570804" lon="6.945717"><ele>8.0</ele><time>2026-04-12T05:41:10.865Z</time></trkpt><trkpt lat="43.5708735" lon="6.9456636"><ele>7.999999999999999</ele><time>2026-04-12T05:41:11.867Z</time></trkpt><trkpt lat="43.5709374" lon="6.9456191"><ele>8.0</ele><time>2026-04-12T05:41:12.885Z</time></trkpt><trkpt lat="43.5710021" lon="6.9455735"><ele>8.0</ele><time>2026-04-12T05:41:13.904Z</time></trkpt><trkpt lat="43.5710626" lon="6.9455292"><ele>7.999999999999999</ele><time>2026-04-12T05:41:14.859Z</time></trkpt><trkpt lat="43.5711218" lon="6.945485"><ele>8.0</ele><time>2026-04-12T05:41:15.904Z</time></trkpt><trkpt lat="43.5711827" lon="6.9454415"><ele>8.0</ele><time>2026-04-12T05:41:16.903Z</time></trkpt><trkpt lat="43.5712465" lon="6.9454113"><ele>7.999999999999999</ele><time>2026-04-12T05:41:17.914Z</time></trkpt><trkpt lat="43.5713122" lon="6.945403"><ele>8.0</ele><time>2026-04-12T05:41:18.896Z</time></trkpt><trkpt lat="43.5714365" lon="6.9454103"><ele>8.0</ele><time>2026-04-12T05:41:20.877Z</time></trkpt><trkpt lat="43.5715001" lon="6.9453827"><ele>8.0</ele><time>2026-04-12T05:41:21.91Z</time></trkpt><trkpt lat="43.5715546" lon="6.9453129"><ele>7.999999999999999</ele><time>2026-04-12T05:41:22.874Z</time></trkpt><trkpt lat="43.5715971" lon="6.9452363"><ele>8.0</ele><time>2026-04-12T05:41:23.889Z</time></trkpt><trkpt lat="43.5716382" lon="6.9451615"><ele>7.999999999999999</ele><time>2026-04-12T05:41:24.897Z</time></trkpt><trkpt lat="43.5716851" lon="6.9451005"><ele>8.0</ele><time>2026-04-12T05:41:25.862Z</time></trkpt><trkpt lat="43.5717465" lon="6.9450588"><ele>8.0</ele><time>2026-04-12T05:41:26.866Z</time></trkpt><trkpt lat="43.5718194" lon="6.9450128"><ele>8.0</ele><time>2026-04-12T05:41:27.877Z</time></trkpt><trkpt lat="43.5718869" lon="6.9449648"><ele>7.999999999999999</ele><time>2026-04-12T05:41:28.864Z</time></trkpt><trkpt lat="43.5719616" lon="6.9449228"><ele>8.0</ele><time>2026-04-12T05:41:30.018Z</time></trkpt><trkpt lat="43.5721127" lon="6.9448308"><ele>7.999999999999999</ele><time>2026-04-12T05:41:31.911Z</time></trkpt><trkpt lat="43.5721895" lon="6.9447778"><ele>8.0</ele><time>2026-04-12T05:41:32.873Z</time></trkpt><trkpt lat="43.5722697" lon="6.9447267"><ele>8.0</ele><time>2026-04-12T05:41:33.877Z</time></trkpt><trkpt lat="43.572348" lon="6.9446721"><ele>8.0</ele><time>2026-04-12T05:41:34.88Z</time></trkpt><trkpt lat="43.5724264" lon="6.9446207"><ele>7.999999999999999</ele><time>2026-04-12T05:41:35.886Z</time></trkpt><trkpt lat="43.5724972" lon="6.9445698"><ele>8.0</ele><time>2026-04-12T05:41:36.863Z</time></trkpt><trkpt lat="43.5725649" lon="6.9445207"><ele>7.999999999999999</ele><time>2026-04-12T05:41:37.889Z</time></trkpt><trkpt lat="43.5726359" lon="6.9444708"><ele>8.0</ele><time>2026-04-12T05:41:38.874Z</time></trkpt><trkpt lat="43.5727023" lon="6.9444226"><ele>8.0</ele><time>2026-04-12T05:41:39.911Z</time></trkpt><trkpt lat="43.5727737" lon="6.9443705"><ele>8.0</ele><time>2026-04-12T05:41:40.888Z</time></trkpt><trkpt lat="43.5728456" lon="6.9443104"><ele>7.999999999999999</ele><time>2026-04-12T05:41:41.87Z</time></trkpt><trkpt lat="43.5729131" lon="6.9442503"><ele>8.0</ele><time>2026-04-12T05:41:42.888Z</time></trkpt><trkpt lat="43.5729857" lon="6.9441914"><ele>8.333333333333332</ele><time>2026-04-12T05:41:43.898Z</time></trkpt><trkpt lat="43.5730574" lon="6.9441304"><ele>8.666666666666666</ele><time>2026-04-12T05:41:44.896Z</time></trkpt><trkpt lat="43.5731245" lon="6.9440703"><ele>9.0</ele><time>2026-04-12T05:41:45.906Z</time></trkpt><trkpt lat="43.5732008" lon="6.9440049"><ele>9.333333333333334</ele><time>2026-04-12T05:41:46.912Z</time></trkpt><trkpt lat="43.5732696" lon="6.9439392"><ele>9.666666666666668</ele><time>2026-04-12T05:41:47.886Z</time></trkpt><trkpt lat="43.5733393" lon="6.9438805"><ele>10.0</ele><time>2026-04-12T05:41:48.881Z</time></trkpt><trkpt lat="43.573413" lon="6.9438253"><ele>10.0</ele><time>2026-04-12T05:41:49.904Z</time></trkpt><trkpt lat="43.5734848" lon="6.9437654"><ele>10.0</ele><time>2026-04-12T05:41:50.922Z</time></trkpt><trkpt lat="43.573559" lon="6.9437061"><ele>10.0</ele><time>2026-04-12T05:41:51.898Z</time></trkpt><trkpt lat="43.5736297" lon="6.9436478"><ele>10.0</ele><time>2026-04-12T05:41:52.873Z</time></trkpt><trkpt lat="43.5737002" lon="6.943586"><ele>10.0</ele><time>2026-04-12T05:41:53.89Z</time></trkpt><trkpt lat="43.5737706" lon="6.9435312"><ele>10.0</ele><time>2026-04-12T05:41:54.892Z</time></trkpt><trkpt lat="43.5738383" lon="6.9434744"><ele>9.666666666666668</ele><time>2026-04-12T05:41:55.89Z</time></trkpt><trkpt lat="43.5739032" lon="6.9434203"><ele>9.333333333333334</ele><time>2026-04-12T05:41:56.904Z</time></trkpt><trkpt lat="43.5739682" lon="6.9433654"><ele>9.0</ele><time>2026-04-12T05:41:57.877Z</time></trkpt><trkpt lat="43.5740321" lon="6.9433121"><ele>8.666666666666666</ele><time>2026-04-12T05:41:58.834Z</time></trkpt><trkpt lat="43.5740987" lon="6.9432613"><ele>8.333333333333332</ele><time>2026-04-12T05:41:59.902Z</time></trkpt><trkpt lat="43.5741674" lon="6.9432046"><ele>8.0</ele><time>2026-04-12T05:42:00.892Z</time></trkpt><trkpt lat="43.5742383" lon="6.9431461"><ele>7.999999999999999</ele><time>2026-04-12T05:42:01.892Z</time></trkpt><trkpt lat="43.5743104" lon="6.9430901"><ele>8.0</ele><time>2026-04-12T05:42:02.914Z</time></trkpt><trkpt lat="43.5743761" lon="6.9430346"><ele>8.0</ele><time>2026-04-12T05:42:03.91Z</time></trkpt><trkpt lat="43.5744433" lon="6.9429798"><ele>8.0</ele><time>2026-04-12T05:42:04.891Z</time></trkpt><trkpt lat="43.5745133" lon="6.9429211"><ele>7.999999999999999</ele><time>2026-04-12T05:42:05.885Z</time></trkpt><trkpt lat="43.5745803" lon="6.9428657"><ele>8.0</ele><time>2026-04-12T05:42:06.885Z</time></trkpt><trkpt lat="43.5746494" lon="6.9428078"><ele>7.999999999999999</ele><time>2026-04-12T05:42:07.88Z</time></trkpt><trkpt lat="43.5747224" lon="6.9427543"><ele>8.0</ele><time>2026-04-12T05:42:08.873Z</time></trkpt><trkpt lat="43.5747922" lon="6.942698"><ele>8.0</ele><time>2026-04-12T05:42:09.915Z</time></trkpt><trkpt lat="43.57486" lon="6.9426425"><ele>8.0</ele><time>2026-04-12T05:42:10.888Z</time></trkpt><trkpt lat="43.5749286" lon="6.9425899"><ele>7.999999999999999</ele><time>2026-04-12T05:42:11.89Z</time></trkpt><trkpt lat="43.5749945" lon="6.9425303"><ele>8.0</ele><time>2026-04-12T05:42:12.91Z</time></trkpt><trkpt lat="43.5750615" lon="6.9424779"><ele>8.166666666666666</ele><time>2026-04-12T05:42:13.869Z</time></trkpt><trkpt lat="43.5751286" lon="6.94242"><ele>8.333333333333332</ele><time>2026-04-12T05:42:14.902Z</time></trkpt><trkpt lat="43.5751988" lon="6.9423652"><ele>8.5</ele><time>2026-04-12T05:42:15.874Z</time></trkpt><trkpt lat="43.5752694" lon="6.9423118"><ele>8.666666666666666</ele><time>2026-04-12T05:42:16.902Z</time></trkpt><trkpt lat="43.5753425" lon="6.9422489"><ele>8.833333333333334</ele><time>2026-04-12T05:42:17.868Z</time></trkpt><trkpt lat="43.5754127" lon="6.9421927"><ele>9.0</ele><time>2026-04-12T05:42:18.863Z</time></trkpt><trkpt lat="43.5754851" lon="6.9421374"><ele>9.0</ele><time>2026-04-12T05:42:19.899Z</time></trkpt><trkpt lat="43.57556" lon="6.9420805"><ele>9.0</ele><time>2026-04-12T05:42:20.879Z</time></trkpt><trkpt lat="43.5756313" lon="6.9420163"><ele>9.0</ele><time>2026-04-12T05:42:21.892Z</time></trkpt><trkpt lat="43.5757008" lon="6.9419523"><ele>9.0</ele><time>2026-04-12T05:42:22.894Z</time></trkpt><trkpt lat="43.5757693" lon="6.9418912"><ele>9.0</ele><time>2026-04-12T05:42:23.899Z</time></trkpt><trkpt lat="43.5758383" lon="6.9418335"><ele>9.0</ele><time>2026-04-12T05:42:24.881Z</time></trkpt><trkpt lat="43.5759077" lon="6.9417738"><ele>9.0</ele><time>2026-04-12T05:42:25.907Z</time></trkpt><trkpt lat="43.5759783" lon="6.9417133"><ele>9.0</ele><time>2026-04-12T05:42:26.866Z</time></trkpt><trkpt lat="43.5760493" lon="6.9416528"><ele>9.0</ele><time>2026-04-12T05:42:27.882Z</time></trkpt><trkpt lat="43.576122" lon="6.9415941"><ele>9.0</ele><time>2026-04-12T05:42:28.856Z</time></trkpt><trkpt lat="43.5761879" lon="6.9415346"><ele>9.0</ele><time>2026-04-12T05:42:29.871Z</time></trkpt><trkpt lat="43.5762556" lon="6.9414806"><ele>9.0</ele><time>2026-04-12T05:42:30.899Z</time></trkpt><trkpt lat="43.5763238" lon="6.9414229"><ele>9.0</ele><time>2026-04-12T05:42:31.863Z</time></trkpt><trkpt lat="43.5763913" lon="6.9413558"><ele>9.0</ele><time>2026-04-12T05:42:32.87Z</time></trkpt><trkpt lat="43.5764575" lon="6.9412942"><ele>9.0</ele><time>2026-04-12T05:42:33.879Z</time></trkpt><trkpt lat="43.5765228" lon="6.9412238"><ele>9.0</ele><time>2026-04-12T05:42:34.883Z</time></trkpt><trkpt lat="43.5765806" lon="6.9411603"><ele>9.0</ele><time>2026-04-12T05:42:35.899Z</time></trkpt><trkpt lat="43.576636" lon="6.9410929"><ele>9.0</ele><time>2026-04-12T05:42:36.834Z</time></trkpt><trkpt lat="43.5766942" lon="6.9410267"><ele>9.000000000000002</ele><time>2026-04-12T05:42:37.91Z</time></trkpt><trkpt lat="43.5767524" lon="6.94095"><ele>9.0</ele><time>2026-04-12T05:42:38.875Z</time></trkpt><trkpt lat="43.5768017" lon="6.9408751"><ele>9.0</ele><time>2026-04-12T05:42:39.904Z</time></trkpt><trkpt lat="43.576851" lon="6.9407998"><ele>9.0</ele><time>2026-04-12T05:42:40.841Z</time></trkpt><trkpt lat="43.5768982" lon="6.9407294"><ele>9.0</ele><time>2026-04-12T05:42:41.891Z</time></trkpt><trkpt lat="43.576955" lon="6.9406613"><ele>9.000000000000002</ele><time>2026-04-12T05:42:42.892Z</time></trkpt><trkpt lat="43.5770123" lon="6.9406209"><ele>9.0</ele><time>2026-04-12T05:42:43.902Z</time></trkpt><trkpt lat="43.5770808" lon="6.9405903"><ele>9.000000000000002</ele><time>2026-04-12T05:42:44.881Z</time></trkpt><trkpt lat="43.5771462" lon="6.9405638"><ele>9.0</ele><time>2026-04-12T05:42:45.904Z</time></trkpt><trkpt lat="43.5771987" lon="6.940513"><ele>9.0</ele><time>2026-04-12T05:42:46.885Z</time></trkpt><trkpt lat="43.5772366" lon="6.9404409"><ele>9.0</ele><time>2026-04-12T05:42:47.872Z</time></trkpt><trkpt lat="43.5772622" lon="6.9403489"><ele>9.0</ele><time>2026-04-12T05:42:48.861Z</time></trkpt><trkpt lat="43.5772699" lon="6.9402474"><ele>9.000000000000002</ele><time>2026-04-12T05:42:49.908Z</time></trkpt><trkpt lat="43.5772679" lon="6.9401492"><ele>9.0</ele><time>2026-04-12T05:42:50.881Z</time></trkpt><trkpt lat="43.577273" lon="6.9400422"><ele>9.0</ele><time>2026-04-12T05:42:51.902Z</time></trkpt><trkpt lat="43.5772932" lon="6.9399309"><ele>9.0</ele><time>2026-04-12T05:42:52.871Z</time></trkpt><trkpt lat="43.5773175" lon="6.9398342"><ele>9.0</ele><time>2026-04-12T05:42:53.898Z</time></trkpt><trkpt lat="43.577356" lon="6.9397302"><ele>9.0</ele><time>2026-04-12T05:42:54.869Z</time></trkpt><trkpt lat="43.5773923" lon="6.9396253"><ele>9.0</ele><time>2026-04-12T05:42:55.909Z</time></trkpt><trkpt lat="43.577427" lon="6.9395179"><ele>9.0</ele><time>2026-04-12T05:42:56.899Z</time></trkpt><trkpt lat="43.5774626" lon="6.9394072"><ele>9.0</ele><time>2026-04-12T05:42:57.909Z</time></trkpt><trkpt lat="43.5774971" lon="6.9392903"><ele>9.0</ele><time>2026-04-12T05:42:58.898Z</time></trkpt><trkpt lat="43.5775269" lon="6.9391731"><ele>9.0</ele><time>2026-04-12T05:42:59.896Z</time></trkpt><trkpt lat="43.5775552" lon="6.9390554"><ele>9.0</ele><time>2026-04-12T05:43:00.876Z</time></trkpt><trkpt lat="43.5775824" lon="6.9389405"><ele>9.0</ele><time>2026-04-12T05:43:01.873Z</time></trkpt><trkpt lat="43.5776084" lon="6.9388272"><ele>9.0</ele><time>2026-04-12T05:43:02.871Z</time></trkpt><trkpt lat="43.5776381" lon="6.938713"><ele>9.0</ele><time>2026-04-12T05:43:03.901Z</time></trkpt><trkpt lat="43.5776651" lon="6.9385957"><ele>9.0</ele><time>2026-04-12T05:43:04.87Z</time></trkpt><trkpt lat="43.5776938" lon="6.9384827"><ele>9.0</ele><time>2026-04-12T05:43:05.859Z</time></trkpt><trkpt lat="43.5777205" lon="6.938368"><ele>9.0</ele><time>2026-04-12T05:43:06.896Z</time></trkpt><trkpt lat="43.5777499" lon="6.9382506"><ele>9.0</ele><time>2026-04-12T05:43:07.899Z</time></trkpt><trkpt lat="43.5777796" lon="6.9381355"><ele>9.0</ele><time>2026-04-12T05:43:08.901Z</time></trkpt><trkpt lat="43.5778037" lon="6.9380197"><ele>9.0</ele><time>2026-04-12T05:43:09.891Z</time></trkpt><trkpt lat="43.5778346" lon="6.9379052"><ele>9.0</ele><time>2026-04-12T05:43:10.883Z</time></trkpt><trkpt lat="43.5778646" lon="6.9377901"><ele>9.0</ele><time>2026-04-12T05:43:11.883Z</time></trkpt><trkpt lat="43.5779004" lon="6.9376695"><ele>9.0</ele><time>2026-04-12T05:43:12.873Z</time></trkpt><trkpt lat="43.5779402" lon="6.937552"><ele>9.0</ele><time>2026-04-12T05:43:13.882Z</time></trkpt><trkpt lat="43.577982" lon="6.9374397"><ele>8.8</ele><time>2026-04-12T05:43:14.923Z</time></trkpt><trkpt lat="43.5780242" lon="6.9373259"><ele>8.600000000000001</ele><time>2026-04-12T05:43:15.899Z</time></trkpt><trkpt lat="43.5780696" lon="6.9372099"><ele>8.4</ele><time>2026-04-12T05:43:16.892Z</time></trkpt><trkpt lat="43.578117" lon="6.9370944"><ele>8.200000000000001</ele><time>2026-04-12T05:43:17.889Z</time></trkpt><trkpt lat="43.5781606" lon="6.9369798"><ele>8.0</ele><time>2026-04-12T05:43:18.895Z</time></trkpt><trkpt lat="43.5782082" lon="6.9368618"><ele>8.0</ele><time>2026-04-12T05:43:19.894Z</time></trkpt><trkpt lat="43.5782547" lon="6.9367388"><ele>8.0</ele><time>2026-04-12T05:43:20.876Z</time></trkpt><trkpt lat="43.5783083" lon="6.9366202"><ele>8.0</ele><time>2026-04-12T05:43:21.896Z</time></trkpt><trkpt lat="43.5783686" lon="6.9365065"><ele>8.0</ele><time>2026-04-12T05:43:22.884Z</time></trkpt><trkpt lat="43.5784288" lon="6.9363842"><ele>8.0</ele><time>2026-04-12T05:43:23.891Z</time></trkpt><trkpt lat="43.578492" lon="6.9362633"><ele>8.0</ele><time>2026-04-12T05:43:24.867Z</time></trkpt><trkpt lat="43.5785558" lon="6.9361461"><ele>8.0</ele><time>2026-04-12T05:43:25.902Z</time></trkpt><trkpt lat="43.5786243" lon="6.9360291"><ele>8.0</ele><time>2026-04-12T05:43:26.862Z</time></trkpt><trkpt lat="43.5786914" lon="6.9359157"><ele>8.0</ele><time>2026-04-12T05:43:27.896Z</time></trkpt><trkpt lat="43.578755" lon="6.9358025"><ele>8.0</ele><time>2026-04-12T05:43:28.895Z</time></trkpt><trkpt lat="43.5788257" lon="6.935691"><ele>8.4</ele><time>2026-04-12T05:43:29.868Z</time></trkpt><trkpt lat="43.5788901" lon="6.935584"><ele>8.8</ele><time>2026-04-12T05:43:30.898Z</time></trkpt><trkpt lat="43.5789515" lon="6.935486"><ele>9.2</ele><time>2026-04-12T05:43:31.886Z</time></trkpt><trkpt lat="43.5790186" lon="6.935392"><ele>9.6</ele><time>2026-04-12T05:43:32.877Z</time></trkpt><trkpt lat="43.5790833" lon="6.935302"><ele>10.0</ele><time>2026-04-12T05:43:33.876Z</time></trkpt><trkpt lat="43.5791524" lon="6.9352154"><ele>10.0</ele><time>2026-04-12T05:43:34.881Z</time></trkpt><trkpt lat="43.5792209" lon="6.935128"><ele>10.0</ele><time>2026-04-12T05:43:35.873Z</time></trkpt><trkpt lat="43.579291" lon="6.935043"><ele>10.0</ele><time>2026-04-12T05:43:36.859Z</time></trkpt><trkpt lat="43.5793667" lon="6.9349572"><ele>10.0</ele><time>2026-04-12T05:43:37.853Z</time></trkpt><trkpt lat="43.5794467" lon="6.9348716"><ele>10.0</ele><time>2026-04-12T05:43:38.912Z</time></trkpt><trkpt lat="43.5795205" lon="6.9347756"><ele>10.0</ele><time>2026-04-12T05:43:39.869Z</time></trkpt><trkpt lat="43.5795961" lon="6.9346896"><ele>10.0</ele><time>2026-04-12T05:43:40.911Z</time></trkpt><trkpt lat="43.5796761" lon="6.9346107"><ele>10.0</ele><time>2026-04-12T05:43:41.889Z</time></trkpt><trkpt lat="43.5797568" lon="6.9345263"><ele>10.0</ele><time>2026-04-12T05:43:42.881Z</time></trkpt><trkpt lat="43.5798371" lon="6.9344367"><ele>10.0</ele><time>2026-04-12T05:43:43.897Z</time></trkpt><trkpt lat="43.5799288" lon="6.9343569"><ele>10.0</ele><time>2026-04-12T05:43:44.86Z</time></trkpt><trkpt lat="43.5800176" lon="6.9342808"><ele>10.0</ele><time>2026-04-12T05:43:45.894Z</time></trkpt><trkpt lat="43.5800999" lon="6.934209"><ele>10.0</ele><time>2026-04-12T05:43:46.9Z</time></trkpt><trkpt lat="43.5801839" lon="6.9341446"><ele>10.0</ele><time>2026-04-12T05:43:47.897Z</time></trkpt><trkpt lat="43.5802661" lon="6.9340827"><ele>10.0</ele><time>2026-04-12T05:43:48.89Z</time></trkpt><trkpt lat="43.5803506" lon="6.9340166"><ele>10.2</ele><time>2026-04-12T05:43:49.879Z</time></trkpt><trkpt lat="43.5804351" lon="6.9339484"><ele>10.4</ele><time>2026-04-12T05:43:50.915Z</time></trkpt><trkpt lat="43.5805242" lon="6.9338865"><ele>10.600000000000001</ele><time>2026-04-12T05:43:51.877Z</time></trkpt><trkpt lat="43.5806095" lon="6.9338279"><ele>10.8</ele><time>2026-04-12T05:43:52.854Z</time></trkpt><trkpt lat="43.5806982" lon="6.9337749"><ele>11.0</ele><time>2026-04-12T05:43:53.876Z</time></trkpt><trkpt lat="43.5807871" lon="6.9337234"><ele>11.0</ele><time>2026-04-12T05:43:54.876Z</time></trkpt><trkpt lat="43.5808775" lon="6.9336674"><ele>11.0</ele><time>2026-04-12T05:43:55.906Z</time></trkpt><trkpt lat="43.5809609" lon="6.9336147"><ele>11.0</ele><time>2026-04-12T05:43:56.877Z</time></trkpt><trkpt lat="43.5810458" lon="6.9335643"><ele>11.0</ele><time>2026-04-12T05:43:57.872Z</time></trkpt><trkpt lat="43.5811318" lon="6.9335221"><ele>11.0</ele><time>2026-04-12T05:43:58.894Z</time></trkpt><trkpt lat="43.5812261" lon="6.9334904"><ele>11.200000000000001</ele><time>2026-04-12T05:43:59.903Z</time></trkpt><trkpt lat="43.5813194" lon="6.9334576"><ele>11.4</ele><time>2026-04-12T05:44:00.866Z</time></trkpt><trkpt lat="43.5814119" lon="6.9334213"><ele>11.6</ele><time>2026-04-12T05:44:01.86Z</time></trkpt><trkpt lat="43.5815016" lon="6.933384"><ele>11.8</ele><time>2026-04-12T05:44:02.897Z</time></trkpt><trkpt lat="43.5815924" lon="6.9333467"><ele>12.0</ele><time>2026-04-12T05:44:03.916Z</time></trkpt><trkpt lat="43.581688" lon="6.933314"><ele>12.0</ele><time>2026-04-12T05:44:04.853Z</time></trkpt><trkpt lat="43.5817837" lon="6.9332915"><ele>12.0</ele><time>2026-04-12T05:44:05.906Z</time></trkpt><trkpt lat="43.5818789" lon="6.9332623"><ele>12.0</ele><time>2026-04-12T05:44:06.839Z</time></trkpt><trkpt lat="43.581974" lon="6.9332352"><ele>12.0</ele><time>2026-04-12T05:44:07.901Z</time></trkpt><trkpt lat="43.5820681" lon="6.9332111"><ele>12.0</ele><time>2026-04-12T05:44:08.912Z</time></trkpt><trkpt lat="43.5821653" lon="6.9331899"><ele>12.0</ele><time>2026-04-12T05:44:09.869Z</time></trkpt><trkpt lat="43.5822618" lon="6.9331707"><ele>12.0</ele><time>2026-04-12T05:44:10.905Z</time></trkpt><trkpt lat="43.5823528" lon="6.9331587"><ele>12.0</ele><time>2026-04-12T05:44:11.859Z</time></trkpt><trkpt lat="43.5824488" lon="6.9331423"><ele>12.0</ele><time>2026-04-12T05:44:12.881Z</time></trkpt><trkpt lat="43.5825392" lon="6.9331341"><ele>12.0</ele><time>2026-04-12T05:44:13.895Z</time></trkpt><trkpt lat="43.582633" lon="6.9331282"><ele>12.0</ele><time>2026-04-12T05:44:14.883Z</time></trkpt><trkpt lat="43.5827231" lon="6.9331207"><ele>12.0</ele><time>2026-04-12T05:44:15.903Z</time></trkpt><trkpt lat="43.5828158" lon="6.9331171"><ele>12.0</ele><time>2026-04-12T05:44:16.872Z</time></trkpt><trkpt lat="43.5829091" lon="6.9331139"><ele>12.0</ele><time>2026-04-12T05:44:17.903Z</time></trkpt><trkpt lat="43.5830013" lon="6.933116"><ele>12.0</ele><time>2026-04-12T05:44:18.908Z</time></trkpt><trkpt lat="43.5830896" lon="6.9331183"><ele>11.6</ele><time>2026-04-12T05:44:19.892Z</time></trkpt><trkpt lat="43.5831818" lon="6.9331219"><ele>11.2</ele><time>2026-04-12T05:44:20.901Z</time></trkpt><trkpt lat="43.5832736" lon="6.9331244"><ele>10.8</ele><time>2026-04-12T05:44:21.886Z</time></trkpt><trkpt lat="43.5833647" lon="6.9331314"><ele>10.4</ele><time>2026-04-12T05:44:22.841Z</time></trkpt><trkpt lat="43.583456" lon="6.9331391"><ele>10.0</ele><time>2026-04-12T05:44:23.88Z</time></trkpt><trkpt lat="43.5835503" lon="6.9331478"><ele>10.0</ele><time>2026-04-12T05:44:24.899Z</time></trkpt><trkpt lat="43.5836421" lon="6.9331656"><ele>10.0</ele><time>2026-04-12T05:44:25.906Z</time></trkpt><trkpt lat="43.5837343" lon="6.9331804"><ele>10.0</ele><time>2026-04-12T05:44:26.876Z</time></trkpt><trkpt lat="43.583829" lon="6.933201"><ele>10.0</ele><time>2026-04-12T05:44:27.888Z</time></trkpt><trkpt lat="43.5839204" lon="6.9332283"><ele>10.0</ele><time>2026-04-12T05:44:28.88Z</time></trkpt><trkpt lat="43.5840079" lon="6.9332524"><ele>10.0</ele><time>2026-04-12T05:44:29.888Z</time></trkpt><trkpt lat="43.5840952" lon="6.9332749"><ele>10.0</ele><time>2026-04-12T05:44:30.874Z</time></trkpt><trkpt lat="43.5841836" lon="6.9333018"><ele>10.0</ele><time>2026-04-12T05:44:31.907Z</time></trkpt><trkpt lat="43.5842733" lon="6.9333277"><ele>10.0</ele><time>2026-04-12T05:44:32.838Z</time></trkpt><trkpt lat="43.5843608" lon="6.9333616"><ele>10.0</ele><time>2026-04-12T05:44:33.888Z</time></trkpt><trkpt lat="43.5844488" lon="6.9333988"><ele>10.2</ele><time>2026-04-12T05:44:34.877Z</time></trkpt><trkpt lat="43.5845371" lon="6.9334332"><ele>10.4</ele><time>2026-04-12T05:44:35.915Z</time></trkpt><trkpt lat="43.5846253" lon="6.9334635"><ele>10.600000000000001</ele><time>2026-04-12T05:44:36.884Z</time></trkpt><trkpt lat="43.5847148" lon="6.9334971"><ele>10.8</ele><time>2026-04-12T05:44:37.885Z</time></trkpt><trkpt lat="43.5848022" lon="6.9335365"><ele>11.0</ele><time>2026-04-12T05:44:38.886Z</time></trkpt><trkpt lat="43.5848888" lon="6.9335813"><ele>11.0</ele><time>2026-04-12T05:44:39.899Z</time></trkpt><trkpt lat="43.5849736" lon="6.9336301"><ele>11.0</ele><time>2026-04-12T05:44:40.888Z</time></trkpt><trkpt lat="43.5850593" lon="6.9336795"><ele>11.0</ele><time>2026-04-12T05:44:41.889Z</time></trkpt><trkpt lat="43.5851434" lon="6.9337277"><ele>11.0</ele><time>2026-04-12T05:44:42.855Z</time></trkpt><trkpt lat="43.5852329" lon="6.933777"><ele>11.0</ele><time>2026-04-12T05:44:43.896Z</time></trkpt><trkpt lat="43.5853134" lon="6.933829"><ele>11.0</ele><time>2026-04-12T05:44:44.897Z</time></trkpt><trkpt lat="43.585393" lon="6.9338701"><ele>11.0</ele><time>2026-04-12T05:44:45.899Z</time></trkpt><trkpt lat="43.5854688" lon="6.9339181"><ele>11.0</ele><time>2026-04-12T05:44:46.916Z</time></trkpt><trkpt lat="43.5855481" lon="6.9339621"><ele>11.0</ele><time>2026-04-12T05:44:47.891Z</time></trkpt><trkpt lat="43.5856263" lon="6.9340094"><ele>11.0</ele><time>2026-04-12T05:44:48.899Z</time></trkpt><trkpt lat="43.5857062" lon="6.9340587"><ele>11.0</ele><time>2026-04-12T05:44:49.912Z</time></trkpt><trkpt lat="43.5857884" lon="6.9341133"><ele>11.0</ele><time>2026-04-12T05:44:50.883Z</time></trkpt><trkpt lat="43.5858757" lon="6.9341643"><ele>11.0</ele><time>2026-04-12T05:44:51.91Z</time></trkpt><trkpt lat="43.5859633" lon="6.9342157"><ele>11.0</ele><time>2026-04-12T05:44:52.889Z</time></trkpt><trkpt lat="43.5860507" lon="6.9342671"><ele>11.0</ele><time>2026-04-12T05:44:53.89Z</time></trkpt><trkpt lat="43.5861389" lon="6.9343237"><ele>11.0</ele><time>2026-04-12T05:44:54.9Z</time></trkpt><trkpt lat="43.5862234" lon="6.9343793"><ele>11.166666666666666</ele><time>2026-04-12T05:44:55.91Z</time></trkpt><trkpt lat="43.586308" lon="6.9344283"><ele>11.333333333333332</ele><time>2026-04-12T05:44:56.886Z</time></trkpt><trkpt lat="43.5863921" lon="6.934479"><ele>11.5</ele><time>2026-04-12T05:44:57.884Z</time></trkpt><trkpt lat="43.5864691" lon="6.9345259"><ele>11.666666666666666</ele><time>2026-04-12T05:44:58.862Z</time></trkpt><trkpt lat="43.5865463" lon="6.9345773"><ele>11.833333333333334</ele><time>2026-04-12T05:44:59.885Z</time></trkpt><trkpt lat="43.5866184" lon="6.9346244"><ele>12.0</ele><time>2026-04-12T05:45:00.894Z</time></trkpt><trkpt lat="43.5866822" lon="6.9346563"><ele>12.0</ele><time>2026-04-12T05:45:01.874Z</time></trkpt><trkpt lat="43.5868027" lon="6.9347305"><ele>12.0</ele><time>2026-04-12T05:45:03.897Z</time></trkpt><trkpt lat="43.5868963" lon="6.9347886"><ele>12.0</ele><time>2026-04-12T05:45:05.852Z</time></trkpt><trkpt lat="43.5869743" lon="6.9348481"><ele>12.0</ele><time>2026-04-12T05:45:07.872Z</time></trkpt><trkpt lat="43.5870299" lon="6.9348939"><ele>12.0</ele><time>2026-04-12T05:45:09.891Z</time></trkpt><trkpt lat="43.5871006" lon="6.9349627"><ele>12.0</ele><time>2026-04-12T05:45:12.868Z</time></trkpt><trkpt lat="43.5871883" lon="6.934955"><ele>12.0</ele><time>2026-04-12T05:45:15.866Z</time></trkpt><trkpt lat="43.5872463" lon="6.9348722"><ele>12.0</ele><time>2026-04-12T05:45:17.895Z</time></trkpt><trkpt lat="43.5873284" lon="6.9348051"><ele>12.0</ele><time>2026-04-12T05:45:19.858Z</time></trkpt><trkpt lat="43.587428" lon="6.9347345"><ele>12.0</ele><time>2026-04-12T05:45:21.889Z</time></trkpt><trkpt lat="43.5875251" lon="6.9346218"><ele>11.999999999999998</ele><time>2026-04-12T05:45:23.885Z</time></trkpt><trkpt lat="43.5875742" lon="6.934556"><ele>12.0</ele><time>2026-04-12T05:45:24.874Z</time></trkpt><trkpt lat="43.5876174" lon="6.934481"><ele>12.0</ele><time>2026-04-12T05:45:25.893Z</time></trkpt><trkpt lat="43.5876636" lon="6.934405"><ele>12.0</ele><time>2026-04-12T05:45:26.862Z</time></trkpt><trkpt lat="43.5877122" lon="6.9343201"><ele>12.0</ele><time>2026-04-12T05:45:27.893Z</time></trkpt><trkpt lat="43.5877574" lon="6.9342385"><ele>11.999999999999998</ele><time>2026-04-12T05:45:28.876Z</time></trkpt><trkpt lat="43.5878041" lon="6.9341521"><ele>12.0</ele><time>2026-04-12T05:45:29.857Z</time></trkpt><trkpt lat="43.587846" lon="6.9340602"><ele>12.166666666666666</ele><time>2026-04-12T05:45:30.911Z</time></trkpt><trkpt lat="43.5878895" lon="6.9339633"><ele>12.333333333333332</ele><time>2026-04-12T05:45:31.869Z</time></trkpt><trkpt lat="43.5879328" lon="6.9338668"><ele>12.5</ele><time>2026-04-12T05:45:32.882Z</time></trkpt><trkpt lat="43.5879782" lon="6.9337752"><ele>12.666666666666666</ele><time>2026-04-12T05:45:33.905Z</time></trkpt><trkpt lat="43.5880232" lon="6.933681"><ele>12.833333333333332</ele><time>2026-04-12T05:45:34.868Z</time></trkpt><trkpt lat="43.5880722" lon="6.9335926"><ele>13.0</ele><time>2026-04-12T05:45:35.889Z</time></trkpt><trkpt lat="43.5881231" lon="6.9335042"><ele>12.999999999999998</ele><time>2026-04-12T05:45:36.884Z</time></trkpt><trkpt lat="43.5881708" lon="6.9334187"><ele>13.0</ele><time>2026-04-12T05:45:37.864Z</time></trkpt><trkpt lat="43.5882206" lon="6.9333334"><ele>13.0</ele><time>2026-04-12T05:45:38.889Z</time></trkpt><trkpt lat="43.5882695" lon="6.9332547"><ele>13.0</ele><time>2026-04-12T05:45:39.919Z</time></trkpt><trkpt lat="43.588321" lon="6.933178"><ele>12.999999999999998</ele><time>2026-04-12T05:45:40.864Z</time></trkpt><trkpt lat="43.5883728" lon="6.9331012"><ele>13.0</ele><time>2026-04-12T05:45:41.868Z</time></trkpt><trkpt lat="43.5884276" lon="6.9330268"><ele>12.999999999999998</ele><time>2026-04-12T05:45:42.878Z</time></trkpt><trkpt lat="43.5884764" lon="6.9329524"><ele>13.0</ele><time>2026-04-12T05:45:43.895Z</time></trkpt><trkpt lat="43.5885335" lon="6.9328814"><ele>13.0</ele><time>2026-04-12T05:45:44.902Z</time></trkpt><trkpt lat="43.5885875" lon="6.9328067"><ele>13.0</ele><time>2026-04-12T05:45:45.891Z</time></trkpt><trkpt lat="43.5886429" lon="6.932729"><ele>12.999999999999998</ele><time>2026-04-12T05:45:46.913Z</time></trkpt><trkpt lat="43.5886983" lon="6.932654"><ele>13.0</ele><time>2026-04-12T05:45:47.896Z</time></trkpt><trkpt lat="43.5887587" lon="6.9325814"><ele>13.333333333333332</ele><time>2026-04-12T05:45:48.858Z</time></trkpt><trkpt lat="43.5888181" lon="6.9325078"><ele>13.666666666666666</ele><time>2026-04-12T05:45:49.86Z</time></trkpt><trkpt lat="43.5888707" lon="6.9324298"><ele>14.0</ele><time>2026-04-12T05:45:50.902Z</time></trkpt><trkpt lat="43.5889256" lon="6.9323559"><ele>14.333333333333332</ele><time>2026-04-12T05:45:51.9Z</time></trkpt><trkpt lat="43.5889865" lon="6.9322889"><ele>14.666666666666666</ele><time>2026-04-12T05:45:52.908Z</time></trkpt><trkpt lat="43.5890486" lon="6.9322095"><ele>15.0</ele><time>2026-04-12T05:45:53.883Z</time></trkpt><trkpt lat="43.5891136" lon="6.9321347"><ele>15.0</ele><time>2026-04-12T05:45:54.879Z</time></trkpt><trkpt lat="43.5891753" lon="6.9320667"><ele>15.0</ele><time>2026-04-12T05:45:55.863Z</time></trkpt><trkpt lat="43.5892438" lon="6.931994"><ele>15.0</ele><time>2026-04-12T05:45:56.912Z</time></trkpt><trkpt lat="43.5893075" lon="6.9319098"><ele>15.0</ele><time>2026-04-12T05:45:57.88Z</time></trkpt><trkpt lat="43.5893728" lon="6.9318282"><ele>15.0</ele><time>2026-04-12T05:45:58.884Z</time></trkpt><trkpt lat="43.589443" lon="6.9317378"><ele>15.0</ele><time>2026-04-12T05:45:59.9Z</time></trkpt><trkpt lat="43.5895116" lon="6.9316516"><ele>14.4</ele><time>2026-04-12T05:46:00.877Z</time></trkpt><trkpt lat="43.5895817" lon="6.9315576"><ele>13.8</ele><time>2026-04-12T05:46:01.837Z</time></trkpt><trkpt lat="43.5896515" lon="6.9314701"><ele>13.2</ele><time>2026-04-12T05:46:02.897Z</time></trkpt><trkpt lat="43.5897244" lon="6.931379"><ele>12.6</ele><time>2026-04-12T05:46:03.888Z</time></trkpt><trkpt lat="43.5897971" lon="6.9312839"><ele>12.0</ele><time>2026-04-12T05:46:04.883Z</time></trkpt><trkpt lat="43.589868" lon="6.9311874"><ele>12.0</ele><time>2026-04-12T05:46:05.911Z</time></trkpt><trkpt lat="43.5899396" lon="6.9310949"><ele>12.0</ele><time>2026-04-12T05:46:06.886Z</time></trkpt><trkpt lat="43.5900108" lon="6.9309972"><ele>12.0</ele><time>2026-04-12T05:46:07.896Z</time></trkpt><trkpt lat="43.5900788" lon="6.9309017"><ele>12.0</ele><time>2026-04-12T05:46:08.881Z</time></trkpt><trkpt lat="43.5901508" lon="6.9308035"><ele>12.0</ele><time>2026-04-12T05:46:09.895Z</time></trkpt><trkpt lat="43.5902205" lon="6.9307045"><ele>12.2</ele><time>2026-04-12T05:46:10.882Z</time></trkpt><trkpt lat="43.5902925" lon="6.9306002"><ele>12.399999999999999</ele><time>2026-04-12T05:46:11.889Z</time></trkpt><trkpt lat="43.5903617" lon="6.9304994"><ele>12.600000000000001</ele><time>2026-04-12T05:46:12.879Z</time></trkpt><trkpt lat="43.5904332" lon="6.9303975"><ele>12.8</ele><time>2026-04-12T05:46:13.886Z</time></trkpt><trkpt lat="43.5905008" lon="6.9302948"><ele>13.0</ele><time>2026-04-12T05:46:14.889Z</time></trkpt><trkpt lat="43.5905616" lon="6.9301888"><ele>13.166666666666666</ele><time>2026-04-12T05:46:15.87Z</time></trkpt><trkpt lat="43.5906223" lon="6.930083"><ele>13.333333333333332</ele><time>2026-04-12T05:46:16.859Z</time></trkpt><trkpt lat="43.5906762" lon="6.9299826"><ele>13.5</ele><time>2026-04-12T05:46:17.908Z</time></trkpt><trkpt lat="43.5907216" lon="6.9298794"><ele>13.666666666666668</ele><time>2026-04-12T05:46:18.875Z</time></trkpt><trkpt lat="43.5907699" lon="6.9297805"><ele>13.833333333333334</ele><time>2026-04-12T05:46:19.906Z</time></trkpt><trkpt lat="43.5908135" lon="6.9296863"><ele>14.0</ele><time>2026-04-12T05:46:20.843Z</time></trkpt><trkpt lat="43.5908522" lon="6.9296044"><ele>14.000000000000002</ele><time>2026-04-12T05:46:21.904Z</time></trkpt><trkpt lat="43.5908937" lon="6.9295273"><ele>14.0</ele><time>2026-04-12T05:46:22.885Z</time></trkpt><trkpt lat="43.5909432" lon="6.9294567"><ele>14.0</ele><time>2026-04-12T05:46:23.855Z</time></trkpt><trkpt lat="43.5909996" lon="6.9293986"><ele>14.0</ele><time>2026-04-12T05:46:24.895Z</time></trkpt><trkpt lat="43.5910941" lon="6.9293043"><ele>14.000000000000002</ele><time>2026-04-12T05:46:26.886Z</time></trkpt><trkpt lat="43.5911571" lon="6.9292206"><ele>14.0</ele><time>2026-04-12T05:46:28.845Z</time></trkpt><trkpt lat="43.5911573" lon="6.9290805"><ele>14.2</ele><time>2026-04-12T05:46:30.857Z</time></trkpt><trkpt lat="43.5910766" lon="6.9290041"><ele>14.399999999999999</ele><time>2026-04-12T05:46:32.893Z</time></trkpt><trkpt lat="43.5909473" lon="6.9290143"><ele>14.6</ele><time>2026-04-12T05:46:34.914Z</time></trkpt><trkpt lat="43.5908736" lon="6.9290241"><ele>14.8</ele><time>2026-04-12T05:46:35.858Z</time></trkpt><trkpt lat="43.5907901" lon="6.9289959"><ele>15.0</ele><time>2026-04-12T05:46:36.859Z</time></trkpt><trkpt lat="43.5907033" lon="6.9289624"><ele>15.0</ele><time>2026-04-12T05:46:37.892Z</time></trkpt><trkpt lat="43.5906237" lon="6.9289195"><ele>15.0</ele><time>2026-04-12T05:46:38.838Z</time></trkpt><trkpt lat="43.5905485" lon="6.928878"><ele>15.0</ele><time>2026-04-12T05:46:39.848Z</time></trkpt><trkpt lat="43.5904663" lon="6.9288331"><ele>15.0</ele><time>2026-04-12T05:46:40.905Z</time></trkpt><trkpt lat="43.5903832" lon="6.9288065"><ele>15.0</ele><time>2026-04-12T05:46:41.854Z</time></trkpt><trkpt lat="43.5903039" lon="6.9287713"><ele>15.0</ele><time>2026-04-12T05:46:42.898Z</time></trkpt><trkpt lat="43.590218" lon="6.9287324"><ele>14.833333333333334</ele><time>2026-04-12T05:46:43.84Z</time></trkpt><trkpt lat="43.5901412" lon="6.9286929"><ele>14.666666666666668</ele><time>2026-04-12T05:46:44.887Z</time></trkpt><trkpt lat="43.5900663" lon="6.9286545"><ele>14.5</ele><time>2026-04-12T05:46:45.893Z</time></trkpt><trkpt lat="43.5899887" lon="6.9286091"><ele>14.333333333333334</ele><time>2026-04-12T05:46:46.903Z</time></trkpt><trkpt lat="43.5899194" lon="6.9285507"><ele>14.166666666666668</ele><time>2026-04-12T05:46:47.892Z</time></trkpt><trkpt lat="43.5898504" lon="6.9284839"><ele>14.0</ele><time>2026-04-12T05:46:48.9Z</time></trkpt><trkpt lat="43.5897973" lon="6.9284203"><ele>14.000000000000002</ele><time>2026-04-12T05:46:49.902Z</time></trkpt><trkpt lat="43.589743" lon="6.9283512"><ele>14.0</ele><time>2026-04-12T05:46:50.897Z</time></trkpt><trkpt lat="43.5896938" lon="6.9282855"><ele>14.0</ele><time>2026-04-12T05:46:51.903Z</time></trkpt><trkpt lat="43.5896459" lon="6.9282284"><ele>14.0</ele><time>2026-04-12T05:46:52.87Z</time></trkpt><trkpt lat="43.5895963" lon="6.9281691"><ele>14.000000000000002</ele><time>2026-04-12T05:46:53.893Z</time></trkpt><trkpt lat="43.5895456" lon="6.9281128"><ele>14.0</ele><time>2026-04-12T05:46:54.897Z</time></trkpt><trkpt lat="43.5894557" lon="6.927987"><ele>13.857142857142858</ele><time>2026-04-12T05:46:56.886Z</time></trkpt><trkpt lat="43.5894026" lon="6.9279226"><ele>13.714285714285715</ele><time>2026-04-12T05:46:57.869Z</time></trkpt><trkpt lat="43.5893518" lon="6.9278604"><ele>13.571428571428571</ele><time>2026-04-12T05:46:58.882Z</time></trkpt><trkpt lat="43.5892965" lon="6.9277964"><ele>13.428571428571429</ele><time>2026-04-12T05:46:59.888Z</time></trkpt><trkpt lat="43.5892456" lon="6.9277291"><ele>13.285714285714286</ele><time>2026-04-12T05:47:00.872Z</time></trkpt><trkpt lat="43.5891967" lon="6.9276715"><ele>13.142857142857142</ele><time>2026-04-12T05:47:01.856Z</time></trkpt><trkpt lat="43.5891474" lon="6.9276074"><ele>13.0</ele><time>2026-04-12T05:47:02.883Z</time></trkpt><trkpt lat="43.5891015" lon="6.9275338"><ele>12.999999999999998</ele><time>2026-04-12T05:47:03.893Z</time></trkpt><trkpt lat="43.5890507" lon="6.9274648"><ele>13.0</ele><time>2026-04-12T05:47:04.882Z</time></trkpt><trkpt lat="43.5889901" lon="6.9274077"><ele>13.0</ele><time>2026-04-12T05:47:05.906Z</time></trkpt><trkpt lat="43.5889338" lon="6.9273407"><ele>13.0</ele><time>2026-04-12T05:47:06.875Z</time></trkpt><trkpt lat="43.5888723" lon="6.9272607"><ele>12.999999999999998</ele><time>2026-04-12T05:47:07.931Z</time></trkpt><trkpt lat="43.5888139" lon="6.927184"><ele>13.0</ele><time>2026-04-12T05:47:08.873Z</time></trkpt><trkpt lat="43.5887395" lon="6.9271205"><ele>12.8</ele><time>2026-04-12T05:47:09.883Z</time></trkpt><trkpt lat="43.5886725" lon="6.9270459"><ele>12.600000000000001</ele><time>2026-04-12T05:47:10.869Z</time></trkpt><trkpt lat="43.5886046" lon="6.9269687"><ele>12.399999999999999</ele><time>2026-04-12T05:47:11.881Z</time></trkpt><trkpt lat="43.5885235" lon="6.9268994"><ele>12.2</ele><time>2026-04-12T05:47:12.882Z</time></trkpt><trkpt lat="43.5884431" lon="6.9268293"><ele>12.0</ele><time>2026-04-12T05:47:13.881Z</time></trkpt><trkpt lat="43.5883565" lon="6.9267558"><ele>12.0</ele><time>2026-04-12T05:47:14.876Z</time></trkpt><trkpt lat="43.5882716" lon="6.9266812"><ele>12.0</ele><time>2026-04-12T05:47:15.881Z</time></trkpt><trkpt lat="43.5881957" lon="6.9266055"><ele>12.0</ele><time>2026-04-12T05:47:16.883Z</time></trkpt><trkpt lat="43.5881177" lon="6.9265312"><ele>12.0</ele><time>2026-04-12T05:47:17.9Z</time></trkpt><trkpt lat="43.588041" lon="6.9264574"><ele>12.0</ele><time>2026-04-12T05:47:18.878Z</time></trkpt><trkpt lat="43.5879596" lon="6.9263871"><ele>12.0</ele><time>2026-04-12T05:47:19.908Z</time></trkpt><trkpt lat="43.5878795" lon="6.9263165"><ele>12.0</ele><time>2026-04-12T05:47:20.839Z</time></trkpt><trkpt lat="43.5877993" lon="6.9262421"><ele>12.0</ele><time>2026-04-12T05:47:21.881Z</time></trkpt><trkpt lat="43.5877207" lon="6.9261685"><ele>12.0</ele><time>2026-04-12T05:47:22.888Z</time></trkpt><trkpt lat="43.5876466" lon="6.9260979"><ele>12.0</ele><time>2026-04-12T05:47:23.874Z</time></trkpt><trkpt lat="43.5875812" lon="6.9260405"><ele>12.166666666666666</ele><time>2026-04-12T05:47:24.877Z</time></trkpt><trkpt lat="43.5875207" lon="6.9259776"><ele>12.333333333333332</ele><time>2026-04-12T05:47:25.884Z</time></trkpt><trkpt lat="43.5874633" lon="6.9259196"><ele>12.5</ele><time>2026-04-12T05:47:26.88Z</time></trkpt><trkpt lat="43.5874133" lon="6.9258597"><ele>12.666666666666666</ele><time>2026-04-12T05:47:27.892Z</time></trkpt><trkpt lat="43.5873626" lon="6.9258051"><ele>12.833333333333332</ele><time>2026-04-12T05:47:28.887Z</time></trkpt><trkpt lat="43.5872645" lon="6.9257172"><ele>13.0</ele><time>2026-04-12T05:47:30.881Z</time></trkpt><trkpt lat="43.5872115" lon="6.9256701"><ele>13.0</ele><time>2026-04-12T05:47:31.87Z</time></trkpt><trkpt lat="43.5871054" lon="6.9255776"><ele>13.0</ele><time>2026-04-12T05:47:33.855Z</time></trkpt><trkpt lat="43.5870206" lon="6.9255041"><ele>13.0</ele><time>2026-04-12T05:47:35.871Z</time></trkpt><trkpt lat="43.5869667" lon="6.9254111"><ele>13.0</ele><time>2026-04-12T05:47:37.861Z</time></trkpt><trkpt lat="43.5869979" lon="6.9252913"><ele>13.0</ele><time>2026-04-12T05:47:39.866Z</time></trkpt><trkpt lat="43.5870705" lon="6.925216"><ele>12.999999999999998</ele><time>2026-04-12T05:47:41.862Z</time></trkpt><trkpt lat="43.58715" lon="6.9251636"><ele>13.0</ele><time>2026-04-12T05:47:43.879Z</time></trkpt><trkpt lat="43.5872281" lon="6.9251437"><ele>13.0</ele><time>2026-04-12T05:47:45.868Z</time></trkpt><trkpt lat="43.5873006" lon="6.9251436"><ele>13.0</ele><time>2026-04-12T05:47:47.866Z</time></trkpt><trkpt lat="43.587379" lon="6.9251553"><ele>12.999999999999998</ele><time>2026-04-12T05:47:50.895Z</time></trkpt><trkpt lat="43.5874585" lon="6.9251665"><ele>13.0</ele><time>2026-04-12T05:47:53.878Z</time></trkpt><trkpt lat="43.5875324" lon="6.9251603"><ele>13.0</ele><time>2026-04-12T05:47:56.873Z</time></trkpt><trkpt lat="43.587605" lon="6.9251416"><ele>13.0</ele><time>2026-04-12T05:48:00.878Z</time></trkpt><trkpt lat="43.5876691" lon="6.9250722"><ele>13.0</ele><time>2026-04-12T05:48:03.874Z</time></trkpt><trkpt lat="43.5877209" lon="6.9249579"><ele>13.0</ele><time>2026-04-12T05:48:05.907Z</time></trkpt><trkpt lat="43.5877813" lon="6.924838"><ele>13.0</ele><time>2026-04-12T05:48:07.894Z</time></trkpt><trkpt lat="43.5878334" lon="6.9247269"><ele>12.8</ele><time>2026-04-12T05:48:09.88Z</time></trkpt><trkpt lat="43.5878638" lon="6.9246296"><ele>12.600000000000001</ele><time>2026-04-12T05:48:11.884Z</time></trkpt><trkpt lat="43.5878843" lon="6.9244967"><ele>12.399999999999999</ele><time>2026-04-12T05:48:13.904Z</time></trkpt><trkpt lat="43.5878947" lon="6.924348"><ele>12.2</ele><time>2026-04-12T05:48:15.907Z</time></trkpt><trkpt lat="43.5879034" lon="6.9241915"><ele>12.0</ele><time>2026-04-12T05:48:17.909Z</time></trkpt><trkpt lat="43.5879115" lon="6.9240427"><ele>12.399999999999999</ele><time>2026-04-12T05:48:19.885Z</time></trkpt><trkpt lat="43.5879165" lon="6.9238871"><ele>12.799999999999999</ele><time>2026-04-12T05:48:21.902Z</time></trkpt><trkpt lat="43.5879124" lon="6.9237192"><ele>13.2</ele><time>2026-04-12T05:48:23.906Z</time></trkpt><trkpt lat="43.5879186" lon="6.9235516"><ele>13.6</ele><time>2026-04-12T05:48:25.86Z</time></trkpt><trkpt lat="43.5879253" lon="6.9234612"><ele>14.0</ele><time>2026-04-12T05:48:26.869Z</time></trkpt><trkpt lat="43.5879312" lon="6.9233691"><ele>14.0</ele><time>2026-04-12T05:48:27.872Z</time></trkpt><trkpt lat="43.587937" lon="6.9232783"><ele>13.999999999999998</ele><time>2026-04-12T05:48:28.897Z</time></trkpt><trkpt lat="43.5879203" lon="6.9231115"><ele>13.999999999999998</ele><time>2026-04-12T05:48:30.902Z</time></trkpt><trkpt lat="43.5879106" lon="6.9230195"><ele>14.0</ele><time>2026-04-12T05:48:31.901Z</time></trkpt><trkpt lat="43.5878797" lon="6.922851"><ele>14.0</ele><time>2026-04-12T05:48:33.897Z</time></trkpt><trkpt lat="43.5878454" lon="6.9226897"><ele>17.799999999999997</ele><time>2026-04-12T05:48:35.905Z</time></trkpt><trkpt lat="43.5878232" lon="6.9226016"><ele>21.599999999999998</ele><time>2026-04-12T05:48:36.867Z</time></trkpt><trkpt lat="43.587772" lon="6.9224539"><ele>25.4</ele><time>2026-04-12T05:48:38.896Z</time></trkpt><trkpt lat="43.5877373" lon="6.9223133"><ele>29.2</ele><time>2026-04-12T05:48:40.881Z</time></trkpt><trkpt lat="43.5877015" lon="6.9221917"><ele>33.0</ele><time>2026-04-12T05:48:42.855Z</time></trkpt><trkpt lat="43.5876996" lon="6.9220702"><ele>33.0</ele><time>2026-04-12T05:48:44.872Z</time></trkpt><trkpt lat="43.5877157" lon="6.9219607"><ele>33.0</ele><time>2026-04-12T05:48:46.884Z</time></trkpt><trkpt lat="43.5877437" lon="6.9218669"><ele>33.0</ele><time>2026-04-12T05:48:48.872Z</time></trkpt><trkpt lat="43.5877522" lon="6.9217798"><ele>33.0</ele><time>2026-04-12T05:48:50.862Z</time></trkpt><trkpt lat="43.5877466" lon="6.9216756"><ele>33.0</ele><time>2026-04-12T05:48:52.882Z</time></trkpt><trkpt lat="43.5877407" lon="6.9215803"><ele>33.0</ele><time>2026-04-12T05:48:54.867Z</time></trkpt><trkpt lat="43.587731" lon="6.9214778"><ele>33.0</ele><time>2026-04-12T05:48:56.865Z</time></trkpt><trkpt lat="43.5877162" lon="6.921372"><ele>33.0</ele><time>2026-04-12T05:48:58.887Z</time></trkpt><trkpt lat="43.5877116" lon="6.9212702"><ele>33.0</ele><time>2026-04-12T05:49:00.865Z</time></trkpt><trkpt lat="43.5876921" lon="6.9211799"><ele>33.0</ele><time>2026-04-12T05:49:02.873Z</time></trkpt><trkpt lat="43.5876873" lon="6.9210878"><ele>33.0</ele><time>2026-04-12T05:49:04.898Z</time></trkpt><trkpt lat="43.5876824" lon="6.9209894"><ele>33.0</ele><time>2026-04-12T05:49:06.9Z</time></trkpt><trkpt lat="43.5876862" lon="6.9208936"><ele>33.0</ele><time>2026-04-12T05:49:08.872Z</time></trkpt><trkpt lat="43.5877221" lon="6.9207971"><ele>33.0</ele><time>2026-04-12T05:49:10.897Z</time></trkpt><trkpt lat="43.5877829" lon="6.9207504"><ele>31.71428571428571</ele><time>2026-04-12T05:49:12.877Z</time></trkpt><trkpt lat="43.5878546" lon="6.9207511"><ele>30.42857142857143</ele><time>2026-04-12T05:49:14.894Z</time></trkpt><trkpt lat="43.5879254" lon="6.9207874"><ele>29.142857142857142</ele><time>2026-04-12T05:49:16.892Z</time></trkpt><trkpt lat="43.5879991" lon="6.9208133"><ele>27.857142857142854</ele><time>2026-04-12T05:49:18.883Z</time></trkpt><trkpt lat="43.5880668" lon="6.9208111"><ele>26.57142857142857</ele><time>2026-04-12T05:49:20.88Z</time></trkpt><trkpt lat="43.5881273" lon="6.9207658"><ele>25.285714285714285</ele><time>2026-04-12T05:49:22.877Z</time></trkpt><trkpt lat="43.5881673" lon="6.9206909"><ele>24.0</ele><time>2026-04-12T05:49:24.878Z</time></trkpt><trkpt lat="43.5881866" lon="6.9206018"><ele>23.999999999999996</ele><time>2026-04-12T05:49:26.868Z</time></trkpt><trkpt lat="43.5881877" lon="6.9205031"><ele>24.0</ele><time>2026-04-12T05:49:28.871Z</time></trkpt><trkpt lat="43.5881949" lon="6.920408"><ele>24.0</ele><time>2026-04-12T05:49:30.886Z</time></trkpt><trkpt lat="43.5882004" lon="6.9203077"><ele>24.0</ele><time>2026-04-12T05:49:32.884Z</time></trkpt><trkpt lat="43.5882219" lon="6.9202159"><ele>24.0</ele><time>2026-04-12T05:49:34.881Z</time></trkpt><trkpt lat="43.5882494" lon="6.9201374"><ele>23.999999999999996</ele><time>2026-04-12T05:49:36.892Z</time></trkpt><trkpt lat="43.5882722" lon="6.9200552"><ele>24.0</ele><time>2026-04-12T05:49:38.862Z</time></trkpt><trkpt lat="43.5883029" lon="6.919973"><ele>25.285714285714285</ele><time>2026-04-12T05:49:40.886Z</time></trkpt><trkpt lat="43.5883305" lon="6.919886"><ele>26.57142857142857</ele><time>2026-04-12T05:49:42.873Z</time></trkpt><trkpt lat="43.5883523" lon="6.9197973"><ele>27.857142857142854</ele><time>2026-04-12T05:49:44.868Z</time></trkpt><trkpt lat="43.588354" lon="6.9196902"><ele>29.142857142857142</ele><time>2026-04-12T05:49:46.882Z</time></trkpt><trkpt lat="43.5883371" lon="6.919599"><ele>30.42857142857143</ele><time>2026-04-12T05:49:48.88Z</time></trkpt><trkpt lat="43.5882955" lon="6.9195202"><ele>31.71428571428571</ele><time>2026-04-12T05:49:50.903Z</time></trkpt><trkpt lat="43.588252" lon="6.9194285"><ele>33.0</ele><time>2026-04-12T05:49:52.905Z</time></trkpt><trkpt lat="43.5882005" lon="6.9193482"><ele>33.0</ele><time>2026-04-12T05:49:54.858Z</time></trkpt><trkpt lat="43.5881524" lon="6.9192623"><ele>33.0</ele><time>2026-04-12T05:49:56.885Z</time></trkpt><trkpt lat="43.5881123" lon="6.9191761"><ele>33.0</ele><time>2026-04-12T05:49:58.899Z</time></trkpt><trkpt lat="43.5880827" lon="6.919068"><ele>33.0</ele><time>2026-04-12T05:50:00.888Z</time></trkpt><trkpt lat="43.5880462" lon="6.9189717"><ele>33.0</ele><time>2026-04-12T05:50:02.885Z</time></trkpt><trkpt lat="43.5879998" lon="6.9188782"><ele>33.0</ele><time>2026-04-12T05:50:04.885Z</time></trkpt><trkpt lat="43.5879407" lon="6.9188047"><ele>32.833333333333336</ele><time>2026-04-12T05:50:06.875Z</time></trkpt><trkpt lat="43.5878573" lon="6.9186974"><ele>32.666666666666664</ele><time>2026-04-12T05:50:09.888Z</time></trkpt><trkpt lat="43.5877932" lon="6.9186326"><ele>32.5</ele><time>2026-04-12T05:50:11.874Z</time></trkpt><trkpt lat="43.5877305" lon="6.9185615"><ele>32.33333333333333</ele><time>2026-04-12T05:50:13.87Z</time></trkpt><trkpt lat="43.5876672" lon="6.9184769"><ele>32.166666666666664</ele><time>2026-04-12T05:50:15.874Z</time></trkpt><trkpt lat="43.5876096" lon="6.9183928"><ele>32.0</ele><time>2026-04-12T05:50:17.876Z</time></trkpt><trkpt lat="43.5875659" lon="6.9182883"><ele>36.33333333333333</ele><time>2026-04-12T05:50:19.882Z</time></trkpt><trkpt lat="43.5875262" lon="6.9181842"><ele>40.666666666666664</ele><time>2026-04-12T05:50:21.888Z</time></trkpt><trkpt lat="43.587496" lon="6.9180819"><ele>45.0</ele><time>2026-04-12T05:50:23.866Z</time></trkpt><trkpt lat="43.5874866" lon="6.9179819"><ele>49.33333333333333</ele><time>2026-04-12T05:50:25.836Z</time></trkpt><trkpt lat="43.5875033" lon="6.9178973"><ele>53.666666666666664</ele><time>2026-04-12T05:50:27.849Z</time></trkpt><trkpt lat="43.5875876" lon="6.9178464"><ele>58.0</ele><time>2026-04-12T05:50:30.886Z</time></trkpt><trkpt lat="43.5876505" lon="6.9178648"><ele>58.00000000000001</ele><time>2026-04-12T05:50:32.898Z</time></trkpt><trkpt lat="43.5877097" lon="6.9179077"><ele>58.0</ele><time>2026-04-12T05:50:34.851Z</time></trkpt><trkpt lat="43.5877706" lon="6.9179521"><ele>58.00000000000001</ele><time>2026-04-12T05:50:36.871Z</time></trkpt><trkpt lat="43.5878306" lon="6.917991"><ele>58.00000000000001</ele><time>2026-04-12T05:50:38.879Z</time></trkpt><trkpt lat="43.5878955" lon="6.9180318"><ele>58.0</ele><time>2026-04-12T05:50:40.882Z</time></trkpt><trkpt lat="43.5879861" lon="6.918075"><ele>58.00000000000001</ele><time>2026-04-12T05:50:43.848Z</time></trkpt><trkpt lat="43.5880471" lon="6.918128"><ele>58.00000000000001</ele><time>2026-04-12T05:50:45.863Z</time></trkpt><trkpt lat="43.5881065" lon="6.9181697"><ele>55.33333333333333</ele><time>2026-04-12T05:50:47.875Z</time></trkpt><trkpt lat="43.588165" lon="6.9182095"><ele>52.666666666666664</ele><time>2026-04-12T05:50:49.854Z</time></trkpt><trkpt lat="43.5882293" lon="6.9182453"><ele>50.0</ele><time>2026-04-12T05:50:51.871Z</time></trkpt><trkpt lat="43.5882904" lon="6.9182681"><ele>47.33333333333333</ele><time>2026-04-12T05:50:53.87Z</time></trkpt><trkpt lat="43.5883776" lon="6.9182384"><ele>44.666666666666664</ele><time>2026-04-12T05:50:56.886Z</time></trkpt><trkpt lat="43.5884487" lon="6.9181573"><ele>42.0</ele><time>2026-04-12T05:50:59.85Z</time></trkpt><trkpt lat="43.5884941" lon="6.9180495"><ele>42.0</ele><time>2026-04-12T05:51:02.873Z</time></trkpt><trkpt lat="43.5885235" lon="6.9179679"><ele>42.0</ele><time>2026-04-12T05:51:04.88Z</time></trkpt><trkpt lat="43.5885608" lon="6.9178569"><ele>42.0</ele><time>2026-04-12T05:51:07.908Z</time></trkpt><trkpt lat="43.5885927" lon="6.9177509"><ele>42.0</ele><time>2026-04-12T05:51:10.893Z</time></trkpt><trkpt lat="43.5886178" lon="6.9176376"><ele>42.0</ele><time>2026-04-12T05:51:13.868Z</time></trkpt><trkpt lat="43.588663" lon="6.9175336"><ele>42.0</ele><time>2026-04-12T05:51:16.865Z</time></trkpt><trkpt lat="43.5887354" lon="6.9174617"><ele>43.166666666666664</ele><time>2026-04-12T05:51:19.875Z</time></trkpt><trkpt lat="43.5888113" lon="6.9174229"><ele>44.33333333333333</ele><time>2026-04-12T05:51:22.867Z</time></trkpt><trkpt lat="43.5888915" lon="6.9174247"><ele>45.5</ele><time>2026-04-12T05:51:25.88Z</time></trkpt><trkpt lat="43.5889874" lon="6.9174351"><ele>46.666666666666664</ele><time>2026-04-12T05:51:28.883Z</time></trkpt><trkpt lat="43.5890456" lon="6.9174828"><ele>47.83333333333333</ele><time>2026-04-12T05:51:30.882Z</time></trkpt><trkpt lat="43.5890957" lon="6.9175859"><ele>49.0</ele><time>2026-04-12T05:51:33.866Z</time></trkpt><trkpt lat="43.5891053" lon="6.9176777"><ele>48.99999999999999</ele><time>2026-04-12T05:51:35.883Z</time></trkpt><trkpt lat="43.5891318" lon="6.9177978"><ele>49.0</ele><time>2026-04-12T05:51:38.888Z</time></trkpt><trkpt lat="43.5891589" lon="6.9178781"><ele>49.0</ele><time>2026-04-12T05:51:40.856Z</time></trkpt><trkpt lat="43.5891917" lon="6.9179531"><ele>49.0</ele><time>2026-04-12T05:51:42.892Z</time></trkpt><trkpt lat="43.5892505" lon="6.9180456"><ele>48.99999999999999</ele><time>2026-04-12T05:51:45.897Z</time></trkpt><trkpt lat="43.5893208" lon="6.9181252"><ele>49.0</ele><time>2026-04-12T05:51:48.888Z</time></trkpt><trkpt lat="43.5893865" lon="6.9181262"><ele>48.99999999999999</ele><time>2026-04-12T05:51:50.868Z</time></trkpt><trkpt lat="43.5894713" lon="6.9180975"><ele>49.0</ele><time>2026-04-12T05:51:53.893Z</time></trkpt><trkpt lat="43.5895497" lon="6.9180298"><ele>49.0</ele><time>2026-04-12T05:51:56.887Z</time></trkpt><trkpt lat="43.589607" lon="6.9179789"><ele>49.0</ele><time>2026-04-12T05:51:58.888Z</time></trkpt><trkpt lat="43.5896802" lon="6.9179044"><ele>48.99999999999999</ele><time>2026-04-12T05:52:01.89Z</time></trkpt><trkpt lat="43.5897365" lon="6.9178322"><ele>49.0</ele><time>2026-04-12T05:52:04.858Z</time></trkpt><trkpt lat="43.5897616" lon="6.9177196"><ele>48.99999999999999</ele><time>2026-04-12T05:52:07.905Z</time></trkpt><trkpt lat="43.5897516" lon="6.9176312"><ele>49.0</ele><time>2026-04-12T05:52:09.875Z</time></trkpt><trkpt lat="43.5896923" lon="6.9175642"><ele>49.0</ele><time>2026-04-12T05:52:12.892Z</time></trkpt><trkpt lat="43.5896074" lon="6.9175662"><ele>49.0</ele><time>2026-04-12T05:52:15.878Z</time></trkpt><trkpt lat="43.5895304" lon="6.9175891"><ele>48.99999999999999</ele><time>2026-04-12T05:52:18.883Z</time></trkpt><trkpt lat="43.5894502" lon="6.9176124"><ele>49.0</ele><time>2026-04-12T05:52:21.888Z</time></trkpt><trkpt lat="43.589378" lon="6.9175722"><ele>52.166666666666664</ele><time>2026-04-12T05:52:24.86Z</time></trkpt><trkpt lat="43.5893378" lon="6.9174782"><ele>55.33333333333333</ele><time>2026-04-12T05:52:27.908Z</time></trkpt><trkpt lat="43.5893167" lon="6.9173636"><ele>58.5</ele><time>2026-04-12T05:52:30.891Z</time></trkpt><trkpt lat="43.5892973" lon="6.9172738"><ele>61.66666666666667</ele><time>2026-04-12T05:52:32.878Z</time></trkpt><trkpt lat="43.5892848" lon="6.9171882"><ele>64.83333333333334</ele><time>2026-04-12T05:52:34.854Z</time></trkpt><trkpt lat="43.5892693" lon="6.9170928"><ele>68.0</ele><time>2026-04-12T05:52:36.846Z</time></trkpt><trkpt lat="43.5892323" lon="6.916985"><ele>68.0</ele><time>2026-04-12T05:52:39.873Z</time></trkpt><trkpt lat="43.5891762" lon="6.9168985"><ele>68.0</ele><time>2026-04-12T05:52:42.892Z</time></trkpt><trkpt lat="43.5890951" lon="6.916847"><ele>68.0</ele><time>2026-04-12T05:52:45.856Z</time></trkpt><trkpt lat="43.5890066" lon="6.9168162"><ele>68.0</ele><time>2026-04-12T05:52:48.867Z</time></trkpt><trkpt lat="43.5889414" lon="6.9167815"><ele>68.0</ele><time>2026-04-12T05:52:50.878Z</time></trkpt><trkpt lat="43.5888879" lon="6.9167192"><ele>68.0</ele><time>2026-04-12T05:52:53.88Z</time></trkpt><trkpt lat="43.5888472" lon="6.916633"><ele>70.66666666666667</ele><time>2026-04-12T05:52:56.867Z</time></trkpt><trkpt lat="43.5888027" lon="6.9165389"><ele>73.33333333333334</ele><time>2026-04-12T05:52:59.85Z</time></trkpt><trkpt lat="43.5887524" lon="6.9164551"><ele>76.0</ele><time>2026-04-12T05:53:02.889Z</time></trkpt><trkpt lat="43.5887001" lon="6.916382"><ele>78.66666666666667</ele><time>2026-04-12T05:53:05.885Z</time></trkpt><trkpt lat="43.5886396" lon="6.9163156"><ele>81.33333333333333</ele><time>2026-04-12T05:53:08.868Z</time></trkpt><trkpt lat="43.5885597" lon="6.9162939"><ele>84.0</ele><time>2026-04-12T05:53:11.882Z</time></trkpt><trkpt lat="43.5884833" lon="6.9163505"><ele>84.66666666666667</ele><time>2026-04-12T05:53:14.864Z</time></trkpt><trkpt lat="43.5884394" lon="6.9164508"><ele>85.33333333333333</ele><time>2026-04-12T05:53:17.877Z</time></trkpt><trkpt lat="43.5883975" lon="6.916559"><ele>86.0</ele><time>2026-04-12T05:53:20.827Z</time></trkpt><trkpt lat="43.5883579" lon="6.9166696"><ele>86.66666666666666</ele><time>2026-04-12T05:53:23.864Z</time></trkpt><trkpt lat="43.5883311" lon="6.9167536"><ele>87.33333333333333</ele><time>2026-04-12T05:53:25.871Z</time></trkpt><trkpt lat="43.5882757" lon="6.9168469"><ele>88.0</ele><time>2026-04-12T05:53:28.858Z</time></trkpt><trkpt lat="43.5881998" lon="6.9169095"><ele>84.0</ele><time>2026-04-12T05:53:31.881Z</time></trkpt><trkpt lat="43.5881119" lon="6.9169164"><ele>80.0</ele><time>2026-04-12T05:53:34.85Z</time></trkpt><trkpt lat="43.5880474" lon="6.9169195"><ele>76.0</ele><time>2026-04-12T05:53:36.871Z</time></trkpt><trkpt lat="43.587963" lon="6.9169156"><ele>72.0</ele><time>2026-04-12T05:53:39.848Z</time></trkpt><trkpt lat="43.587897" lon="6.9169141"><ele>68.0</ele><time>2026-04-12T05:53:42.832Z</time></trkpt><trkpt lat="43.5878289" lon="6.9168962"><ele>64.0</ele><time>2026-04-12T05:53:44.845Z</time></trkpt><trkpt lat="43.5877664" lon="6.916813"><ele>67.16666666666666</ele><time>2026-04-12T05:53:47.867Z</time></trkpt><trkpt lat="43.5877483" lon="6.9167297"><ele>70.33333333333333</ele><time>2026-04-12T05:53:49.892Z</time></trkpt><trkpt lat="43.5877656" lon="6.9166139"><ele>73.5</ele><time>2026-04-12T05:53:52.835Z</time></trkpt><trkpt lat="43.5878422" lon="6.9165786"><ele>76.66666666666667</ele><time>2026-04-12T05:53:55.849Z</time></trkpt><trkpt lat="43.5879187" lon="6.9166032"><ele>79.83333333333334</ele><time>2026-04-12T05:53:58.866Z</time></trkpt><trkpt lat="43.5880078" lon="6.9166588"><ele>83.0</ele><time>2026-04-12T05:54:01.869Z</time></trkpt><trkpt lat="43.5880806" lon="6.9166649"><ele>83.71428571428571</ele><time>2026-04-12T05:54:03.895Z</time></trkpt><trkpt lat="43.588145" lon="6.9166301"><ele>84.42857142857143</ele><time>2026-04-12T05:54:05.887Z</time></trkpt><trkpt lat="43.5881839" lon="6.9165573"><ele>85.14285714285714</ele><time>2026-04-12T05:54:07.892Z</time></trkpt><trkpt lat="43.5882077" lon="6.9164694"><ele>85.85714285714286</ele><time>2026-04-12T05:54:09.89Z</time></trkpt><trkpt lat="43.5882214" lon="6.9163814"><ele>86.57142857142857</ele><time>2026-04-12T05:54:11.881Z</time></trkpt><trkpt lat="43.5882461" lon="6.9162952"><ele>87.28571428571429</ele><time>2026-04-12T05:54:13.875Z</time></trkpt><trkpt lat="43.5882695" lon="6.9162137"><ele>88.0</ele><time>2026-04-12T05:54:15.841Z</time></trkpt><trkpt lat="43.5883152" lon="6.9160989"><ele>88.0</ele><time>2026-04-12T05:54:18.881Z</time></trkpt><trkpt lat="43.5883476" lon="6.9160242"><ele>88.0</ele><time>2026-04-12T05:54:20.874Z</time></trkpt><trkpt lat="43.5884051" lon="6.9159272"><ele>88.0</ele><time>2026-04-12T05:54:23.899Z</time></trkpt><trkpt lat="43.5884665" lon="6.9158417"><ele>88.0</ele><time>2026-04-12T05:54:26.865Z</time></trkpt><trkpt lat="43.5885412" lon="6.915795"><ele>88.0</ele><time>2026-04-12T05:54:29.857Z</time></trkpt><trkpt lat="43.5886337" lon="6.9158115"><ele>88.0</ele><time>2026-04-12T05:54:32.854Z</time></trkpt><trkpt lat="43.5886952" lon="6.9158465"><ele>87.33333333333333</ele><time>2026-04-12T05:54:34.879Z</time></trkpt><trkpt lat="43.5887722" lon="6.9159065"><ele>86.66666666666666</ele><time>2026-04-12T05:54:37.858Z</time></trkpt><trkpt lat="43.5888245" lon="6.9159567"><ele>86.0</ele><time>2026-04-12T05:54:39.867Z</time></trkpt><trkpt lat="43.5888931" lon="6.9160091"><ele>85.33333333333333</ele><time>2026-04-12T05:54:42.87Z</time></trkpt><trkpt lat="43.5889673" lon="6.9160553"><ele>84.66666666666667</ele><time>2026-04-12T05:54:45.883Z</time></trkpt><trkpt lat="43.5890496" lon="6.9160819"><ele>84.0</ele><time>2026-04-12T05:54:48.889Z</time></trkpt><trkpt lat="43.5891262" lon="6.9160842"><ele>84.0</ele><time>2026-04-12T05:54:51.895Z</time></trkpt><trkpt lat="43.5891914" lon="6.9160254"><ele>84.0</ele><time>2026-04-12T05:54:54.877Z</time></trkpt><trkpt lat="43.5892175" lon="6.9159038"><ele>84.0</ele><time>2026-04-12T05:54:57.86Z</time></trkpt><trkpt lat="43.589184" lon="6.9157859"><ele>84.0</ele><time>2026-04-12T05:55:00.887Z</time></trkpt><trkpt lat="43.5891441" lon="6.9157173"><ele>84.0</ele><time>2026-04-12T05:55:02.86Z</time></trkpt><trkpt lat="43.5890873" lon="6.9156183"><ele>84.0</ele><time>2026-04-12T05:55:05.885Z</time></trkpt><trkpt lat="43.5890233" lon="6.9155256"><ele>86.16666666666667</ele><time>2026-04-12T05:55:08.877Z</time></trkpt><trkpt lat="43.5889727" lon="6.9154652"><ele>88.33333333333334</ele><time>2026-04-12T05:55:10.962Z</time></trkpt><trkpt lat="43.5889246" lon="6.9154051"><ele>90.5</ele><time>2026-04-12T05:55:12.895Z</time></trkpt><trkpt lat="43.5888549" lon="6.9153242"><ele>92.66666666666667</ele><time>2026-04-12T05:55:15.911Z</time></trkpt><trkpt lat="43.5887802" lon="6.9152448"><ele>94.83333333333334</ele><time>2026-04-12T05:55:18.85Z</time></trkpt><trkpt lat="43.5887292" lon="6.9151856"><ele>97.0</ele><time>2026-04-12T05:55:20.884Z</time></trkpt><trkpt lat="43.5886784" lon="6.9151153"><ele>100.83333333333334</ele><time>2026-04-12T05:55:22.883Z</time></trkpt><trkpt lat="43.5886461" lon="6.9150275"><ele>104.66666666666667</ele><time>2026-04-12T05:55:24.885Z</time></trkpt><trkpt lat="43.5886232" lon="6.914902"><ele>108.5</ele><time>2026-04-12T05:55:27.871Z</time></trkpt><trkpt lat="43.5886043" lon="6.9148176"><ele>112.33333333333334</ele><time>2026-04-12T05:55:29.885Z</time></trkpt><trkpt lat="43.5885613" lon="6.9147237"><ele>116.16666666666667</ele><time>2026-04-12T05:55:32.883Z</time></trkpt><trkpt lat="43.5884824" lon="6.9146871"><ele>120.0</ele><time>2026-04-12T05:55:35.871Z</time></trkpt><trkpt lat="43.5884211" lon="6.9147078"><ele>120.0</ele><time>2026-04-12T05:55:37.89Z</time></trkpt><trkpt lat="43.5883608" lon="6.9147846"><ele>120.0</ele><time>2026-04-12T05:55:40.871Z</time></trkpt><trkpt lat="43.5883348" lon="6.9148937"><ele>120.0</ele><time>2026-04-12T05:55:43.86Z</time></trkpt><trkpt lat="43.5883252" lon="6.9150267"><ele>120.0</ele><time>2026-04-12T05:55:46.852Z</time></trkpt><trkpt lat="43.5883194" lon="6.9151305"><ele>120.0</ele><time>2026-04-12T05:55:48.883Z</time></trkpt><trkpt lat="43.5882921" lon="6.9152324"><ele>120.0</ele><time>2026-04-12T05:55:50.888Z</time></trkpt><trkpt lat="43.5882471" lon="6.9153057"><ele>118.0</ele><time>2026-04-12T05:55:52.878Z</time></trkpt><trkpt lat="43.5881918" lon="6.915367"><ele>116.0</ele><time>2026-04-12T05:55:54.868Z</time></trkpt><trkpt lat="43.5881296" lon="6.9153928"><ele>114.0</ele><time>2026-04-12T05:55:56.892Z</time></trkpt><trkpt lat="43.588067" lon="6.9154121"><ele>112.0</ele><time>2026-04-12T05:55:58.853Z</time></trkpt><trkpt lat="43.5879829" lon="6.915426"><ele>110.0</ele><time>2026-04-12T05:56:01.912Z</time></trkpt><trkpt lat="43.5878967" lon="6.9154307"><ele>108.0</ele><time>2026-04-12T05:56:04.87Z</time></trkpt><trkpt lat="43.5878118" lon="6.9154364"><ele>107.66666666666667</ele><time>2026-04-12T05:56:07.866Z</time></trkpt><trkpt lat="43.5877242" lon="6.915421"><ele>107.33333333333334</ele><time>2026-04-12T05:56:10.873Z</time></trkpt><trkpt lat="43.5876487" lon="6.915374"><ele>107.0</ele><time>2026-04-12T05:56:13.875Z</time></trkpt><trkpt lat="43.5876101" lon="6.9152877"><ele>106.66666666666667</ele><time>2026-04-12T05:56:16.844Z</time></trkpt><trkpt lat="43.5876012" lon="6.9151761"><ele>106.33333333333334</ele><time>2026-04-12T05:56:19.879Z</time></trkpt><trkpt lat="43.5876318" lon="6.9150729"><ele>106.0</ele><time>2026-04-12T05:56:22.876Z</time></trkpt><trkpt lat="43.5876953" lon="6.9150064"><ele>107.66666666666667</ele><time>2026-04-12T05:56:25.876Z</time></trkpt><trkpt lat="43.5877692" lon="6.9149912"><ele>109.33333333333334</ele><time>2026-04-12T05:56:28.879Z</time></trkpt><trkpt lat="43.5878426" lon="6.9149821"><ele>111.0</ele><time>2026-04-12T05:56:31.86Z</time></trkpt><trkpt lat="43.5879273" lon="6.9149591"><ele>112.66666666666666</ele><time>2026-04-12T05:56:34.867Z</time></trkpt><trkpt lat="43.5880085" lon="6.9149153"><ele>114.33333333333333</ele><time>2026-04-12T05:56:37.866Z</time></trkpt><trkpt lat="43.5880651" lon="6.9148277"><ele>116.0</ele><time>2026-04-12T05:56:40.883Z</time></trkpt><trkpt lat="43.5880988" lon="6.914753"><ele>116.8</ele><time>2026-04-12T05:56:42.875Z</time></trkpt><trkpt lat="43.5881432" lon="6.9146403"><ele>117.6</ele><time>2026-04-12T05:56:45.897Z</time></trkpt><trkpt lat="43.5881743" lon="6.9145296"><ele>118.4</ele><time>2026-04-12T05:56:48.862Z</time></trkpt><trkpt lat="43.5881994" lon="6.9144078"><ele>119.2</ele><time>2026-04-12T05:56:51.888Z</time></trkpt><trkpt lat="43.5882069" lon="6.9142849"><ele>120.0</ele><time>2026-04-12T05:56:54.859Z</time></trkpt><trkpt lat="43.5882099" lon="6.9141606"><ele>121.33333333333333</ele><time>2026-04-12T05:56:57.888Z</time></trkpt><trkpt lat="43.5882083" lon="6.9140297"><ele>122.66666666666666</ele><time>2026-04-12T05:57:00.89Z</time></trkpt><trkpt lat="43.5882112" lon="6.9139005"><ele>124.0</ele><time>2026-04-12T05:57:03.889Z</time></trkpt><trkpt lat="43.5882161" lon="6.9137847"><ele>125.33333333333333</ele><time>2026-04-12T05:57:06.871Z</time></trkpt><trkpt lat="43.5882199" lon="6.9136637"><ele>126.66666666666666</ele><time>2026-04-12T05:57:09.912Z</time></trkpt><trkpt lat="43.5882321" lon="6.9135511"><ele>128.0</ele><time>2026-04-12T05:57:12.877Z</time></trkpt><trkpt lat="43.5882418" lon="6.9134328"><ele>128.83333333333331</ele><time>2026-04-12T05:57:15.856Z</time></trkpt><trkpt lat="43.5882516" lon="6.9133194"><ele>129.66666666666666</ele><time>2026-04-12T05:57:18.869Z</time></trkpt><trkpt lat="43.5882758" lon="6.9131968"><ele>130.5</ele><time>2026-04-12T05:57:21.872Z</time></trkpt><trkpt lat="43.5882871" lon="6.9131069"><ele>131.33333333333334</ele><time>2026-04-12T05:57:23.883Z</time></trkpt><trkpt lat="43.5882734" lon="6.9129758"><ele>132.16666666666669</ele><time>2026-04-12T05:57:26.88Z</time></trkpt><trkpt lat="43.5882542" lon="6.9128559"><ele>133.0</ele><time>2026-04-12T05:57:29.876Z</time></trkpt><trkpt lat="43.5882435" lon="6.9127653"><ele>133.0</ele><time>2026-04-12T05:57:31.894Z</time></trkpt><trkpt lat="43.5882269" lon="6.9126306"><ele>133.0</ele><time>2026-04-12T05:57:34.882Z</time></trkpt><trkpt lat="43.5882107" lon="6.9125411"><ele>133.0</ele><time>2026-04-12T05:57:36.874Z</time></trkpt><trkpt lat="43.5881963" lon="6.9124543"><ele>133.0</ele><time>2026-04-12T05:57:38.901Z</time></trkpt><trkpt lat="43.5881765" lon="6.9123657"><ele>133.0</ele><time>2026-04-12T05:57:40.858Z</time></trkpt><trkpt lat="43.5881576" lon="6.9122733"><ele>133.0</ele><time>2026-04-12T05:57:42.878Z</time></trkpt><trkpt lat="43.5881366" lon="6.9121798"><ele>133.0</ele><time>2026-04-12T05:57:44.883Z</time></trkpt><trkpt lat="43.5881213" lon="6.9120898"><ele>132.83333333333334</ele><time>2026-04-12T05:57:46.882Z</time></trkpt><trkpt lat="43.5881044" lon="6.9119999"><ele>132.66666666666669</ele><time>2026-04-12T05:57:48.856Z</time></trkpt><trkpt lat="43.5880882" lon="6.9118762"><ele>132.5</ele><time>2026-04-12T05:57:51.897Z</time></trkpt><trkpt lat="43.5880821" lon="6.9117846"><ele>132.33333333333334</ele><time>2026-04-12T05:57:53.883Z</time></trkpt><trkpt lat="43.5880738" lon="6.9116568"><ele>132.16666666666666</ele><time>2026-04-12T05:57:56.888Z</time></trkpt><trkpt lat="43.5880687" lon="6.9115677"><ele>132.0</ele><time>2026-04-12T05:57:58.874Z</time></trkpt><trkpt lat="43.5880634" lon="6.9114431"><ele>132.33333333333334</ele><time>2026-04-12T05:58:01.874Z</time></trkpt><trkpt lat="43.5880613" lon="6.9113154"><ele>132.66666666666666</ele><time>2026-04-12T05:58:04.872Z</time></trkpt><trkpt lat="43.5880635" lon="6.9112244"><ele>133.0</ele><time>2026-04-12T05:58:06.849Z</time></trkpt><trkpt lat="43.5880649" lon="6.9110921"><ele>133.33333333333331</ele><time>2026-04-12T05:58:09.893Z</time></trkpt><trkpt lat="43.5880625" lon="6.9110043"><ele>133.66666666666666</ele><time>2026-04-12T05:58:11.882Z</time></trkpt><trkpt lat="43.5880555" lon="6.9109179"><ele>134.0</ele><time>2026-04-12T05:58:13.885Z</time></trkpt><trkpt lat="43.5880502" lon="6.9107953"><ele>135.42857142857144</ele><time>2026-04-12T05:58:16.905Z</time></trkpt><trkpt lat="43.5880439" lon="6.9106767"><ele>136.85714285714286</ele><time>2026-04-12T05:58:19.875Z</time></trkpt><trkpt lat="43.5880394" lon="6.9105853"><ele>138.28571428571428</ele><time>2026-04-12T05:58:21.877Z</time></trkpt><trkpt lat="43.5880388" lon="6.9104844"><ele>139.71428571428572</ele><time>2026-04-12T05:58:23.844Z</time></trkpt><trkpt lat="43.5880335" lon="6.9103881"><ele>141.14285714285714</ele><time>2026-04-12T05:58:25.889Z</time></trkpt><trkpt lat="43.5880213" lon="6.9102929"><ele>142.57142857142858</ele><time>2026-04-12T05:58:27.864Z</time></trkpt><trkpt lat="43.5880273" lon="6.9102019"><ele>144.0</ele><time>2026-04-12T05:58:29.887Z</time></trkpt><trkpt lat="43.5880652" lon="6.9100989"><ele>144.0</ele><time>2026-04-12T05:58:32.87Z</time></trkpt><trkpt lat="43.5881309" lon="6.9100319"><ele>144.0</ele><time>2026-04-12T05:58:35.877Z</time></trkpt><trkpt lat="43.5882009" lon="6.9100088"><ele>144.0</ele><time>2026-04-12T05:58:38.859Z</time></trkpt><trkpt lat="43.5882694" lon="6.9100301"><ele>144.0</ele><time>2026-04-12T05:58:40.881Z</time></trkpt><trkpt lat="43.5883617" lon="6.9100585"><ele>144.0</ele><time>2026-04-12T05:58:43.895Z</time></trkpt><trkpt lat="43.5884262" lon="6.9100701"><ele>144.0</ele><time>2026-04-12T05:58:45.882Z</time></trkpt><trkpt lat="43.5884902" lon="6.9100943"><ele>144.0</ele><time>2026-04-12T05:58:47.851Z</time></trkpt><trkpt lat="43.5885538" lon="6.9101191"><ele>144.0</ele><time>2026-04-12T05:58:49.845Z</time></trkpt><trkpt lat="43.588621" lon="6.9101337"><ele>144.0</ele><time>2026-04-12T05:58:51.865Z</time></trkpt><trkpt lat="43.5887144" lon="6.9101491"><ele>144.0</ele><time>2026-04-12T05:58:54.858Z</time></trkpt><trkpt lat="43.5888082" lon="6.9101613"><ele>144.0</ele><time>2026-04-12T05:58:57.862Z</time></trkpt><trkpt lat="43.5888772" lon="6.910194"><ele>144.0</ele><time>2026-04-12T05:58:59.889Z</time></trkpt><trkpt lat="43.5889394" lon="6.9102344"><ele>144.0</ele><time>2026-04-12T05:59:01.867Z</time></trkpt><trkpt lat="43.589024" lon="6.9102898"><ele>144.0</ele><time>2026-04-12T05:59:04.872Z</time></trkpt><trkpt lat="43.589091" lon="6.9103034"><ele>144.0</ele><time>2026-04-12T05:59:06.865Z</time></trkpt><trkpt lat="43.5891676" lon="6.9102595"><ele>144.0</ele><time>2026-04-12T05:59:09.881Z</time></trkpt><trkpt lat="43.5892124" lon="6.9101875"><ele>144.0</ele><time>2026-04-12T05:59:11.868Z</time></trkpt><trkpt lat="43.5892381" lon="6.9100945"><ele>144.0</ele><time>2026-04-12T05:59:13.876Z</time></trkpt><trkpt lat="43.5892615" lon="6.9099979"><ele>146.85714285714286</ele><time>2026-04-12T05:59:15.895Z</time></trkpt><trkpt lat="43.5892827" lon="6.9099041"><ele>149.71428571428572</ele><time>2026-04-12T05:59:17.892Z</time></trkpt><trkpt lat="43.5893078" lon="6.9098078"><ele>152.57142857142856</ele><time>2026-04-12T05:59:19.884Z</time></trkpt><trkpt lat="43.5893314" lon="6.9097163"><ele>155.42857142857144</ele><time>2026-04-12T05:59:21.888Z</time></trkpt><trkpt lat="43.5893537" lon="6.9096318"><ele>158.28571428571428</ele><time>2026-04-12T05:59:23.878Z</time></trkpt><trkpt lat="43.589373" lon="6.909542"><ele>161.14285714285714</ele><time>2026-04-12T05:59:25.889Z</time></trkpt><trkpt lat="43.5893975" lon="6.909441"><ele>164.0</ele><time>2026-04-12T05:59:27.882Z</time></trkpt><trkpt lat="43.5894254" lon="6.9093286"><ele>163.99999999999997</ele><time>2026-04-12T05:59:29.897Z</time></trkpt><trkpt lat="43.5894645" lon="6.909247"><ele>164.0</ele><time>2026-04-12T05:59:31.888Z</time></trkpt><trkpt lat="43.5895016" lon="6.9091733"><ele>164.0</ele><time>2026-04-12T05:59:33.88Z</time></trkpt><trkpt lat="43.5895326" lon="6.9090925"><ele>164.0</ele><time>2026-04-12T05:59:35.9Z</time></trkpt><trkpt lat="43.5895439" lon="6.9089984"><ele>164.0</ele><time>2026-04-12T05:59:37.882Z</time></trkpt><trkpt lat="43.5895437" lon="6.9089043"><ele>163.99999999999997</ele><time>2026-04-12T05:59:39.884Z</time></trkpt><trkpt lat="43.5895277" lon="6.9088196"><ele>164.0</ele><time>2026-04-12T05:59:41.903Z</time></trkpt><trkpt lat="43.5895109" lon="6.908733"><ele>166.66666666666666</ele><time>2026-04-12T05:59:43.884Z</time></trkpt><trkpt lat="43.5894827" lon="6.9086104"><ele>169.33333333333331</ele><time>2026-04-12T05:59:46.865Z</time></trkpt><trkpt lat="43.589454" lon="6.9085253"><ele>172.0</ele><time>2026-04-12T05:59:48.841Z</time></trkpt><trkpt lat="43.5894201" lon="6.9084519"><ele>174.66666666666666</ele><time>2026-04-12T05:59:50.892Z</time></trkpt><trkpt lat="43.5893654" lon="6.9083968"><ele>177.33333333333334</ele><time>2026-04-12T05:59:52.871Z</time></trkpt><trkpt lat="43.5892835" lon="6.9083342"><ele>180.0</ele><time>2026-04-12T05:59:55.857Z</time></trkpt><trkpt lat="43.5892169" lon="6.9082915"><ele>180.16666666666666</ele><time>2026-04-12T05:59:57.877Z</time></trkpt><trkpt lat="43.5891529" lon="6.9082287"><ele>180.33333333333334</ele><time>2026-04-12T05:59:59.885Z</time></trkpt><trkpt lat="43.5891136" lon="6.9081453"><ele>180.5</ele><time>2026-04-12T06:00:01.87Z</time></trkpt><trkpt lat="43.5890858" lon="6.9080591"><ele>180.66666666666669</ele><time>2026-04-12T06:00:03.869Z</time></trkpt><trkpt lat="43.5890502" lon="6.9079395"><ele>180.83333333333334</ele><time>2026-04-12T06:00:06.878Z</time></trkpt><trkpt lat="43.5890202" lon="6.9078229"><ele>181.0</ele><time>2026-04-12T06:00:09.88Z</time></trkpt><trkpt lat="43.588992" lon="6.9077417"><ele>181.0</ele><time>2026-04-12T06:00:11.873Z</time></trkpt><trkpt lat="43.5889553" lon="6.9076322"><ele>181.0</ele><time>2026-04-12T06:00:14.879Z</time></trkpt><trkpt lat="43.5889152" lon="6.9075149"><ele>181.0</ele><time>2026-04-12T06:00:17.862Z</time></trkpt><trkpt lat="43.5888886" lon="6.9074334"><ele>181.0</ele><time>2026-04-12T06:00:19.878Z</time></trkpt><trkpt lat="43.5888678" lon="6.9073397"><ele>181.0</ele><time>2026-04-12T06:00:21.868Z</time></trkpt><trkpt lat="43.5888521" lon="6.9072525"><ele>181.0</ele><time>2026-04-12T06:00:23.9Z</time></trkpt><trkpt lat="43.5888401" lon="6.9071328"><ele>181.5</ele><time>2026-04-12T06:00:26.876Z</time></trkpt><trkpt lat="43.5888298" lon="6.9070055"><ele>182.0</ele><time>2026-04-12T06:00:29.88Z</time></trkpt><trkpt lat="43.5888029" lon="6.9068834"><ele>182.5</ele><time>2026-04-12T06:00:32.89Z</time></trkpt><trkpt lat="43.5887789" lon="6.9067889"><ele>183.0</ele><time>2026-04-12T06:00:34.884Z</time></trkpt><trkpt lat="43.5887591" lon="6.906696"><ele>183.5</ele><time>2026-04-12T06:00:36.89Z</time></trkpt><trkpt lat="43.5887357" lon="6.9065984"><ele>184.0</ele><time>2026-04-12T06:00:38.891Z</time></trkpt><trkpt lat="43.5887158" lon="6.9065086"><ele>184.0</ele><time>2026-04-12T06:00:40.882Z</time></trkpt><trkpt lat="43.5886995" lon="6.9064125"><ele>184.0</ele><time>2026-04-12T06:00:42.867Z</time></trkpt><trkpt lat="43.5886985" lon="6.9063154"><ele>184.0</ele><time>2026-04-12T06:00:44.887Z</time></trkpt><trkpt lat="43.5886928" lon="6.906223"><ele>184.0</ele><time>2026-04-12T06:00:46.879Z</time></trkpt><trkpt lat="43.588684" lon="6.9061343"><ele>184.0</ele><time>2026-04-12T06:00:48.88Z</time></trkpt><trkpt lat="43.588683" lon="6.9060427"><ele>184.0</ele><time>2026-04-12T06:00:50.864Z</time></trkpt><trkpt lat="43.5887211" lon="6.9059513"><ele>184.0</ele><time>2026-04-12T06:00:52.895Z</time></trkpt><trkpt lat="43.5887805" lon="6.9059047"><ele>184.0</ele><time>2026-04-12T06:00:54.848Z</time></trkpt><trkpt lat="43.5888469" lon="6.9058996"><ele>184.0</ele><time>2026-04-12T06:00:56.864Z</time></trkpt><trkpt lat="43.5889258" lon="6.90592"><ele>184.0</ele><time>2026-04-12T06:00:58.859Z</time></trkpt><trkpt lat="43.5889799" lon="6.905967"><ele>184.0</ele><time>2026-04-12T06:01:00.866Z</time></trkpt><trkpt lat="43.5890403" lon="6.9060175"><ele>184.0</ele><time>2026-04-12T06:01:02.877Z</time></trkpt><trkpt lat="43.5891284" lon="6.9060747"><ele>184.0</ele><time>2026-04-12T06:01:05.889Z</time></trkpt><trkpt lat="43.5892029" lon="6.9060827"><ele>184.0</ele><time>2026-04-12T06:01:07.884Z</time></trkpt><trkpt lat="43.5892605" lon="6.9060464"><ele>184.0</ele><time>2026-04-12T06:01:09.879Z</time></trkpt><trkpt lat="43.589307" lon="6.9059877"><ele>184.0</ele><time>2026-04-12T06:01:11.842Z</time></trkpt><trkpt lat="43.5893522" lon="6.9059038"><ele>184.0</ele><time>2026-04-12T06:01:14.866Z</time></trkpt><trkpt lat="43.5893917" lon="6.9058349"><ele>184.0</ele><time>2026-04-12T06:01:16.88Z</time></trkpt><trkpt lat="43.5894329" lon="6.9057618"><ele>184.0</ele><time>2026-04-12T06:01:18.851Z</time></trkpt><trkpt lat="43.589479" lon="6.9056986"><ele>184.0</ele><time>2026-04-12T06:01:20.876Z</time></trkpt><trkpt lat="43.5895519" lon="6.9056373"><ele>185.66666666666669</ele><time>2026-04-12T06:01:23.875Z</time></trkpt><trkpt lat="43.5896425" lon="6.9056263"><ele>187.33333333333334</ele><time>2026-04-12T06:01:26.889Z</time></trkpt><trkpt lat="43.5897104" lon="6.9056575"><ele>189.0</ele><time>2026-04-12T06:01:28.884Z</time></trkpt><trkpt lat="43.5897714" lon="6.9057168"><ele>190.66666666666669</ele><time>2026-04-12T06:01:30.853Z</time></trkpt><trkpt lat="43.5898108" lon="6.9058421"><ele>192.33333333333334</ele><time>2026-04-12T06:01:33.867Z</time></trkpt><trkpt lat="43.589837" lon="6.9059299"><ele>194.0</ele><time>2026-04-12T06:01:35.855Z</time></trkpt><trkpt lat="43.5898675" lon="6.9060145"><ele>194.0</ele><time>2026-04-12T06:01:37.868Z</time></trkpt><trkpt lat="43.5898929" lon="6.9060957"><ele>194.0</ele><time>2026-04-12T06:01:39.885Z</time></trkpt><trkpt lat="43.5899248" lon="6.9061762"><ele>194.0</ele><time>2026-04-12T06:01:41.87Z</time></trkpt><trkpt lat="43.5899511" lon="6.9062663"><ele>194.0</ele><time>2026-04-12T06:01:43.872Z</time></trkpt><trkpt lat="43.5899834" lon="6.9063522"><ele>194.0</ele><time>2026-04-12T06:01:45.877Z</time></trkpt><trkpt lat="43.5900231" lon="6.9064304"><ele>194.0</ele><time>2026-04-12T06:01:47.877Z</time></trkpt><trkpt lat="43.5900793" lon="6.9064878"><ele>194.0</ele><time>2026-04-12T06:01:49.887Z</time></trkpt><trkpt lat="43.5901423" lon="6.9065279"><ele>194.0</ele><time>2026-04-12T06:01:51.877Z</time></trkpt><trkpt lat="43.5902077" lon="6.9065594"><ele>194.0</ele><time>2026-04-12T06:01:53.892Z</time></trkpt><trkpt lat="43.590276" lon="6.9065822"><ele>194.0</ele><time>2026-04-12T06:01:55.843Z</time></trkpt><trkpt lat="43.5903456" lon="6.9066023"><ele>194.0</ele><time>2026-04-12T06:01:57.891Z</time></trkpt><trkpt lat="43.5904206" lon="6.906608"><ele>194.0</ele><time>2026-04-12T06:01:59.875Z</time></trkpt><trkpt lat="43.5904889" lon="6.9065857"><ele>194.0</ele><time>2026-04-12T06:02:01.877Z</time></trkpt><trkpt lat="43.5905403" lon="6.9065285"><ele>194.0</ele><time>2026-04-12T06:02:03.878Z</time></trkpt><trkpt lat="43.5905885" lon="6.9064579"><ele>194.83333333333334</ele><time>2026-04-12T06:02:05.883Z</time></trkpt><trkpt lat="43.5906323" lon="6.906371"><ele>195.66666666666669</ele><time>2026-04-12T06:02:07.836Z</time></trkpt><trkpt lat="43.590679" lon="6.9062995"><ele>196.5</ele><time>2026-04-12T06:02:09.89Z</time></trkpt><trkpt lat="43.5907456" lon="6.90625"><ele>197.33333333333331</ele><time>2026-04-12T06:02:11.892Z</time></trkpt><trkpt lat="43.5908239" lon="6.9062452"><ele>198.16666666666666</ele><time>2026-04-12T06:02:13.867Z</time></trkpt><trkpt lat="43.5909011" lon="6.9062623"><ele>199.0</ele><time>2026-04-12T06:02:15.885Z</time></trkpt><trkpt lat="43.5909704" lon="6.9062931"><ele>198.99999999999997</ele><time>2026-04-12T06:02:17.881Z</time></trkpt><trkpt lat="43.5910456" lon="6.9062947"><ele>199.0</ele><time>2026-04-12T06:02:19.872Z</time></trkpt><trkpt lat="43.5911134" lon="6.906259"><ele>199.0</ele><time>2026-04-12T06:02:21.896Z</time></trkpt><trkpt lat="43.5911778" lon="6.906216"><ele>199.0</ele><time>2026-04-12T06:02:23.886Z</time></trkpt><trkpt lat="43.5912378" lon="6.9061636"><ele>199.0</ele><time>2026-04-12T06:02:25.873Z</time></trkpt><trkpt lat="43.5913134" lon="6.9061407"><ele>198.99999999999997</ele><time>2026-04-12T06:02:27.88Z</time></trkpt><trkpt lat="43.5913846" lon="6.9061301"><ele>199.0</ele><time>2026-04-12T06:02:29.86Z</time></trkpt><trkpt lat="43.5914667" lon="6.9061431"><ele>198.66666666666666</ele><time>2026-04-12T06:02:31.884Z</time></trkpt><trkpt lat="43.5915323" lon="6.9061311"><ele>198.33333333333331</ele><time>2026-04-12T06:02:33.898Z</time></trkpt><trkpt lat="43.5915953" lon="6.9061228"><ele>198.0</ele><time>2026-04-12T06:02:35.857Z</time></trkpt><trkpt lat="43.591687" lon="6.9060949"><ele>197.66666666666669</ele><time>2026-04-12T06:02:38.826Z</time></trkpt><trkpt lat="43.5917802" lon="6.9060148"><ele>197.33333333333334</ele><time>2026-04-12T06:02:41.821Z</time></trkpt><trkpt lat="43.5918319" lon="6.9059577"><ele>197.0</ele><time>2026-04-12T06:02:43.82Z</time></trkpt><trkpt lat="43.5918966" lon="6.905945"><ele>197.00000000000003</ele><time>2026-04-12T06:02:45.832Z</time></trkpt><trkpt lat="43.5919673" lon="6.9059202"><ele>197.0</ele><time>2026-04-12T06:02:47.823Z</time></trkpt><trkpt lat="43.5920556" lon="6.9058724"><ele>197.0</ele><time>2026-04-12T06:02:49.822Z</time></trkpt><trkpt lat="43.5921286" lon="6.9058575"><ele>197.0</ele><time>2026-04-12T06:02:52.851Z</time></trkpt><trkpt lat="43.5921879" lon="6.9058218"><ele>197.00000000000003</ele><time>2026-04-12T06:02:54.846Z</time></trkpt><trkpt lat="43.5922689" lon="6.9057861"><ele>197.0</ele><time>2026-04-12T06:02:57.836Z</time></trkpt><trkpt lat="43.5923381" lon="6.9057468"><ele>200.66666666666669</ele><time>2026-04-12T06:02:59.836Z</time></trkpt><trkpt lat="43.5923999" lon="6.9057167"><ele>204.33333333333334</ele><time>2026-04-12T06:03:01.872Z</time></trkpt><trkpt lat="43.5924855" lon="6.9056735"><ele>208.0</ele><time>2026-04-12T06:03:04.85Z</time></trkpt><trkpt lat="43.5925543" lon="6.9056447"><ele>211.66666666666669</ele><time>2026-04-12T06:03:06.866Z</time></trkpt><trkpt lat="43.5926255" lon="6.9056157"><ele>215.33333333333334</ele><time>2026-04-12T06:03:08.897Z</time></trkpt><trkpt lat="43.5927153" lon="6.9055556"><ele>219.0</ele><time>2026-04-12T06:03:11.843Z</time></trkpt><trkpt lat="43.5927738" lon="6.9055127"><ele>219.0</ele><time>2026-04-12T06:03:13.873Z</time></trkpt><trkpt lat="43.5928329" lon="6.9054644"><ele>219.0</ele><time>2026-04-12T06:03:15.866Z</time></trkpt><trkpt lat="43.5928947" lon="6.905408"><ele>219.0</ele><time>2026-04-12T06:03:17.87Z</time></trkpt><trkpt lat="43.5929367" lon="6.905341"><ele>219.0</ele><time>2026-04-12T06:03:19.862Z</time></trkpt><trkpt lat="43.592959" lon="6.9052568"><ele>219.0</ele><time>2026-04-12T06:03:21.877Z</time></trkpt><trkpt lat="43.5929564" lon="6.905162"><ele>219.0</ele><time>2026-04-12T06:03:23.886Z</time></trkpt><trkpt lat="43.5929445" lon="6.9050565"><ele>219.0</ele><time>2026-04-12T06:03:25.901Z</time></trkpt><trkpt lat="43.5929093" lon="6.9049761"><ele>218.33333333333334</ele><time>2026-04-12T06:03:27.884Z</time></trkpt><trkpt lat="43.5928453" lon="6.9048809"><ele>217.66666666666669</ele><time>2026-04-12T06:03:30.883Z</time></trkpt><trkpt lat="43.5927989" lon="6.9048132"><ele>217.0</ele><time>2026-04-12T06:03:32.891Z</time></trkpt><trkpt lat="43.5927553" lon="6.90475"><ele>216.33333333333334</ele><time>2026-04-12T06:03:34.861Z</time></trkpt><trkpt lat="43.5926918" lon="6.9046616"><ele>215.66666666666669</ele><time>2026-04-12T06:03:37.894Z</time></trkpt><trkpt lat="43.5926272" lon="6.9045763"><ele>215.0</ele><time>2026-04-12T06:03:40.876Z</time></trkpt><trkpt lat="43.5925575" lon="6.9044953"><ele>216.66666666666669</ele><time>2026-04-12T06:03:43.877Z</time></trkpt><trkpt lat="43.5924895" lon="6.9044102"><ele>218.33333333333334</ele><time>2026-04-12T06:03:46.879Z</time></trkpt><trkpt lat="43.5924224" lon="6.9043262"><ele>220.0</ele><time>2026-04-12T06:03:49.891Z</time></trkpt><trkpt lat="43.5923566" lon="6.9042433"><ele>221.66666666666669</ele><time>2026-04-12T06:03:52.89Z</time></trkpt><trkpt lat="43.5922941" lon="6.9041483"><ele>223.33333333333334</ele><time>2026-04-12T06:03:55.88Z</time></trkpt><trkpt lat="43.5922499" lon="6.9040834"><ele>225.0</ele><time>2026-04-12T06:03:57.898Z</time></trkpt><trkpt lat="43.5921948" lon="6.9039992"><ele>225.00000000000003</ele><time>2026-04-12T06:04:00.903Z</time></trkpt><trkpt lat="43.5921241" lon="6.9039162"><ele>225.0</ele><time>2026-04-12T06:04:03.865Z</time></trkpt><trkpt lat="43.5920767" lon="6.9038555"><ele>225.00000000000003</ele><time>2026-04-12T06:04:05.868Z</time></trkpt><trkpt lat="43.5920255" lon="6.903804"><ele>225.00000000000003</ele><time>2026-04-12T06:04:07.88Z</time></trkpt><trkpt lat="43.5919528" lon="6.9037462"><ele>225.0</ele><time>2026-04-12T06:04:10.897Z</time></trkpt><trkpt lat="43.5918978" lon="6.9037022"><ele>225.00000000000003</ele><time>2026-04-12T06:04:12.861Z</time></trkpt><trkpt lat="43.591838" lon="6.9036712"><ele>225.00000000000003</ele><time>2026-04-12T06:04:14.857Z</time></trkpt><trkpt lat="43.5917535" lon="6.9036263"><ele>226.5</ele><time>2026-04-12T06:04:17.883Z</time></trkpt><trkpt lat="43.5916716" lon="6.9035862"><ele>228.0</ele><time>2026-04-12T06:04:20.879Z</time></trkpt><trkpt lat="43.5916126" lon="6.9035014"><ele>229.5</ele><time>2026-04-12T06:04:23.873Z</time></trkpt><trkpt lat="43.5915837" lon="6.9034163"><ele>231.0</ele><time>2026-04-12T06:04:25.862Z</time></trkpt><trkpt lat="43.591555" lon="6.9033386"><ele>232.5</ele><time>2026-04-12T06:04:27.868Z</time></trkpt><trkpt lat="43.5914967" lon="6.903244"><ele>234.0</ele><time>2026-04-12T06:04:30.875Z</time></trkpt><trkpt lat="43.5914265" lon="6.9031661"><ele>234.0</ele><time>2026-04-12T06:04:33.877Z</time></trkpt><trkpt lat="43.5913425" lon="6.9031163"><ele>234.00000000000003</ele><time>2026-04-12T06:04:36.892Z</time></trkpt><trkpt lat="43.5912796" lon="6.9030982"><ele>234.0</ele><time>2026-04-12T06:04:38.869Z</time></trkpt><trkpt lat="43.5912112" lon="6.9030908"><ele>234.0</ele><time>2026-04-12T06:04:40.862Z</time></trkpt><trkpt lat="43.5911482" lon="6.903084"><ele>234.00000000000003</ele><time>2026-04-12T06:04:42.849Z</time></trkpt><trkpt lat="43.5910573" lon="6.9030805"><ele>234.0</ele><time>2026-04-12T06:04:45.874Z</time></trkpt><trkpt lat="43.5909902" lon="6.9030673"><ele>234.0</ele><time>2026-04-12T06:04:47.83Z</time></trkpt><trkpt lat="43.5909253" lon="6.9030424"><ele>236.5</ele><time>2026-04-12T06:04:49.882Z</time></trkpt><trkpt lat="43.5908456" lon="6.9030201"><ele>239.0</ele><time>2026-04-12T06:04:52.887Z</time></trkpt><trkpt lat="43.5907601" lon="6.9029808"><ele>241.5</ele><time>2026-04-12T06:04:56.059Z</time></trkpt><trkpt lat="43.5906888" lon="6.9029815"><ele>244.0</ele><time>2026-04-12T06:04:58.897Z</time></trkpt><trkpt lat="43.590615" lon="6.9029857"><ele>246.5</ele><time>2026-04-12T06:05:01.868Z</time></trkpt><trkpt lat="43.5905211" lon="6.9029741"><ele>249.0</ele><time>2026-04-12T06:05:04.87Z</time></trkpt><trkpt lat="43.5904458" lon="6.9029506"><ele>249.0</ele><time>2026-04-12T06:05:06.846Z</time></trkpt><trkpt lat="43.5903812" lon="6.9029195"><ele>249.0</ele><time>2026-04-12T06:05:08.871Z</time></trkpt><trkpt lat="43.590311" lon="6.9028379"><ele>249.0</ele><time>2026-04-12T06:05:11.841Z</time></trkpt><trkpt lat="43.5902962" lon="6.9027099"><ele>249.0</ele><time>2026-04-12T06:05:14.847Z</time></trkpt><trkpt lat="43.5902793" lon="6.9025929"><ele>249.0</ele><time>2026-04-12T06:05:17.873Z</time></trkpt><trkpt lat="43.5902317" lon="6.9024828"><ele>249.0</ele><time>2026-04-12T06:05:20.864Z</time></trkpt><trkpt lat="43.5901731" lon="6.9023736"><ele>249.66666666666666</ele><time>2026-04-12T06:05:23.872Z</time></trkpt><trkpt lat="43.5901236" lon="6.9023081"><ele>250.33333333333331</ele><time>2026-04-12T06:05:25.867Z</time></trkpt><trkpt lat="43.5900545" lon="6.9022147"><ele>251.0</ele><time>2026-04-12T06:05:28.868Z</time></trkpt><trkpt lat="43.5900036" lon="6.9021559"><ele>251.66666666666666</ele><time>2026-04-12T06:05:30.898Z</time></trkpt><trkpt lat="43.5899294" lon="6.9020772"><ele>252.33333333333331</ele><time>2026-04-12T06:05:33.877Z</time></trkpt><trkpt lat="43.5898431" lon="6.9020173"><ele>253.0</ele><time>2026-04-12T06:05:36.876Z</time></trkpt><trkpt lat="43.5897857" lon="6.901981"><ele>252.99999999999997</ele><time>2026-04-12T06:05:38.86Z</time></trkpt><trkpt lat="43.5897247" lon="6.9019396"><ele>253.0</ele><time>2026-04-12T06:05:40.887Z</time></trkpt><trkpt lat="43.5896667" lon="6.9018982"><ele>253.0</ele><time>2026-04-12T06:05:42.867Z</time></trkpt><trkpt lat="43.5896078" lon="6.9018508"><ele>253.0</ele><time>2026-04-12T06:05:44.866Z</time></trkpt><trkpt lat="43.589529" lon="6.9017901"><ele>252.99999999999997</ele><time>2026-04-12T06:05:47.851Z</time></trkpt><trkpt lat="43.5894456" lon="6.9017304"><ele>253.0</ele><time>2026-04-12T06:05:50.894Z</time></trkpt><trkpt lat="43.5893766" lon="6.9017151"><ele>252.28571428571433</ele><time>2026-04-12T06:05:52.883Z</time></trkpt><trkpt lat="43.5893014" lon="6.901735"><ele>251.57142857142858</ele><time>2026-04-12T06:05:54.879Z</time></trkpt><trkpt lat="43.5892305" lon="6.9017571"><ele>250.8571428571429</ele><time>2026-04-12T06:05:56.897Z</time></trkpt><trkpt lat="43.5891718" lon="6.9017986"><ele>250.14285714285717</ele><time>2026-04-12T06:05:58.883Z</time></trkpt><trkpt lat="43.5891272" lon="6.9018686"><ele>249.42857142857144</ele><time>2026-04-12T06:06:00.882Z</time></trkpt><trkpt lat="43.5890923" lon="6.9019413"><ele>248.71428571428572</ele><time>2026-04-12T06:06:02.869Z</time></trkpt><trkpt lat="43.5890582" lon="6.902015"><ele>248.0</ele><time>2026-04-12T06:06:04.886Z</time></trkpt><trkpt lat="43.5890303" lon="6.9020933"><ele>250.57142857142858</ele><time>2026-04-12T06:06:06.869Z</time></trkpt><trkpt lat="43.5889991" lon="6.9021701"><ele>253.14285714285717</ele><time>2026-04-12T06:06:08.884Z</time></trkpt><trkpt lat="43.5889636" lon="6.9022434"><ele>255.71428571428572</ele><time>2026-04-12T06:06:10.873Z</time></trkpt><trkpt lat="43.5889181" lon="6.9023119"><ele>258.2857142857143</ele><time>2026-04-12T06:06:12.862Z</time></trkpt><trkpt lat="43.5888393" lon="6.9023231"><ele>260.8571428571429</ele><time>2026-04-12T06:06:15.836Z</time></trkpt><trkpt lat="43.5887676" lon="6.9022632"><ele>263.42857142857144</ele><time>2026-04-12T06:06:18.839Z</time></trkpt><trkpt lat="43.5887047" lon="6.9021963"><ele>266.0</ele><time>2026-04-12T06:06:21.891Z</time></trkpt><trkpt lat="43.5886515" lon="6.902134"><ele>267.33333333333337</ele><time>2026-04-12T06:06:24.863Z</time></trkpt><trkpt lat="43.5885979" lon="6.9020762"><ele>268.6666666666667</ele><time>2026-04-12T06:06:26.881Z</time></trkpt><trkpt lat="43.5885212" lon="6.9020157"><ele>270.0</ele><time>2026-04-12T06:06:29.887Z</time></trkpt><trkpt lat="43.5884658" lon="6.9019663"><ele>271.3333333333333</ele><time>2026-04-12T06:06:31.877Z</time></trkpt><trkpt lat="43.5883931" lon="6.9018973"><ele>272.66666666666663</ele><time>2026-04-12T06:06:34.863Z</time></trkpt><trkpt lat="43.5883153" lon="6.9018447"><ele>274.0</ele><time>2026-04-12T06:06:37.891Z</time></trkpt><trkpt lat="43.5882424" lon="6.9017851"><ele>272.16666666666663</ele><time>2026-04-12T06:06:40.868Z</time></trkpt><trkpt lat="43.5881679" lon="6.9017157"><ele>270.3333333333333</ele><time>2026-04-12T06:06:43.875Z</time></trkpt><trkpt lat="43.5881152" lon="6.9016142"><ele>268.5</ele><time>2026-04-12T06:06:46.885Z</time></trkpt><trkpt lat="43.5880762" lon="6.9014999"><ele>266.6666666666667</ele><time>2026-04-12T06:06:49.879Z</time></trkpt><trkpt lat="43.5880449" lon="6.9013749"><ele>264.83333333333337</ele><time>2026-04-12T06:06:52.892Z</time></trkpt><trkpt lat="43.588043" lon="6.901262"><ele>263.0</ele><time>2026-04-12T06:06:55.865Z</time></trkpt><trkpt lat="43.5880539" lon="6.9011739"><ele>263.0</ele><time>2026-04-12T06:06:57.876Z</time></trkpt><trkpt lat="43.5880616" lon="6.9010456"><ele>263.0</ele><time>2026-04-12T06:07:00.883Z</time></trkpt><trkpt lat="43.5880537" lon="6.9009508"><ele>263.0</ele><time>2026-04-12T06:07:02.862Z</time></trkpt><trkpt lat="43.588033" lon="6.9008647"><ele>263.0</ele><time>2026-04-12T06:07:04.883Z</time></trkpt><trkpt lat="43.5880004" lon="6.9007509"><ele>263.0</ele><time>2026-04-12T06:07:07.904Z</time></trkpt><trkpt lat="43.5879676" lon="6.9006764"><ele>263.0</ele><time>2026-04-12T06:07:09.879Z</time></trkpt><trkpt lat="43.5879237" lon="6.9005684"><ele>262.2857142857143</ele><time>2026-04-12T06:07:12.877Z</time></trkpt><trkpt lat="43.5878829" lon="6.900444"><ele>261.57142857142856</ele><time>2026-04-12T06:07:15.876Z</time></trkpt><trkpt lat="43.5878538" lon="6.9003554"><ele>260.85714285714283</ele><time>2026-04-12T06:07:17.881Z</time></trkpt><trkpt lat="43.5878282" lon="6.900272"><ele>260.1428571428571</ele><time>2026-04-12T06:07:19.874Z</time></trkpt><trkpt lat="43.5878013" lon="6.9001929"><ele>259.42857142857144</ele><time>2026-04-12T06:07:21.868Z</time></trkpt><trkpt lat="43.5877864" lon="6.9001048"><ele>258.71428571428567</ele><time>2026-04-12T06:07:23.85Z</time></trkpt><trkpt lat="43.5877704" lon="6.9000109"><ele>258.0</ele><time>2026-04-12T06:07:25.87Z</time></trkpt><trkpt lat="43.5877705" lon="6.8998829"><ele>257.6666666666667</ele><time>2026-04-12T06:07:28.853Z</time></trkpt><trkpt lat="43.587795" lon="6.8998022"><ele>257.3333333333333</ele><time>2026-04-12T06:07:30.881Z</time></trkpt><trkpt lat="43.5878306" lon="6.8997281"><ele>257.0</ele><time>2026-04-12T06:07:32.851Z</time></trkpt><trkpt lat="43.5878804" lon="6.8996374"><ele>256.66666666666663</ele><time>2026-04-12T06:07:35.894Z</time></trkpt><trkpt lat="43.587926" lon="6.8995289"><ele>256.3333333333333</ele><time>2026-04-12T06:07:38.871Z</time></trkpt><trkpt lat="43.5879449" lon="6.8994417"><ele>256.0</ele><time>2026-04-12T06:07:40.871Z</time></trkpt><trkpt lat="43.5879634" lon="6.8993178"><ele>257.5</ele><time>2026-04-12T06:07:43.87Z</time></trkpt><trkpt lat="43.5879753" lon="6.8992272"><ele>259.0</ele><time>2026-04-12T06:07:45.863Z</time></trkpt><trkpt lat="43.587996" lon="6.8991059"><ele>260.5</ele><time>2026-04-12T06:07:48.849Z</time></trkpt><trkpt lat="43.5880215" lon="6.8989774"><ele>262.0</ele><time>2026-04-12T06:07:51.915Z</time></trkpt><trkpt lat="43.5880332" lon="6.898881"><ele>263.5</ele><time>2026-04-12T06:07:53.989Z</time></trkpt><trkpt lat="43.5880524" lon="6.8987929"><ele>265.0</ele><time>2026-04-12T06:07:55.889Z</time></trkpt><trkpt lat="43.5880665" lon="6.8986976"><ele>264.99999999999994</ele><time>2026-04-12T06:07:57.873Z</time></trkpt><trkpt lat="43.5880871" lon="6.898615"><ele>265.0</ele><time>2026-04-12T06:07:59.875Z</time></trkpt><trkpt lat="43.5881025" lon="6.8984977"><ele>265.0</ele><time>2026-04-12T06:08:02.885Z</time></trkpt><trkpt lat="43.5881185" lon="6.8984102"><ele>265.0</ele><time>2026-04-12T06:08:04.857Z</time></trkpt><trkpt lat="43.5881698" lon="6.8983043"><ele>265.0</ele><time>2026-04-12T06:08:07.872Z</time></trkpt><trkpt lat="43.5882194" lon="6.8982466"><ele>264.99999999999994</ele><time>2026-04-12T06:08:09.878Z</time></trkpt><trkpt lat="43.5882622" lon="6.89818"><ele>265.0</ele><time>2026-04-12T06:08:11.889Z</time></trkpt><trkpt lat="43.5883013" lon="6.8981093"><ele>267.66666666666663</ele><time>2026-04-12T06:08:13.888Z</time></trkpt><trkpt lat="43.5883371" lon="6.8980266"><ele>270.3333333333333</ele><time>2026-04-12T06:08:15.859Z</time></trkpt><trkpt lat="43.5883867" lon="6.8979207"><ele>273.0</ele><time>2026-04-12T06:08:18.878Z</time></trkpt><trkpt lat="43.5884086" lon="6.8978392"><ele>275.6666666666667</ele><time>2026-04-12T06:08:20.88Z</time></trkpt><trkpt lat="43.5884396" lon="6.8977243"><ele>278.33333333333337</ele><time>2026-04-12T06:08:23.878Z</time></trkpt><trkpt lat="43.5884746" lon="6.8976343"><ele>281.0</ele><time>2026-04-12T06:08:25.909Z</time></trkpt><trkpt lat="43.5885057" lon="6.8975428"><ele>280.6666666666667</ele><time>2026-04-12T06:08:27.886Z</time></trkpt><trkpt lat="43.5885313" lon="6.897459"><ele>280.33333333333337</ele><time>2026-04-12T06:08:29.874Z</time></trkpt><trkpt lat="43.5885763" lon="6.8973877"><ele>280.0</ele><time>2026-04-12T06:08:31.89Z</time></trkpt><trkpt lat="43.5886304" lon="6.8972754"><ele>279.6666666666667</ele><time>2026-04-12T06:08:34.892Z</time></trkpt><trkpt lat="43.5886568" lon="6.897179"><ele>279.3333333333333</ele><time>2026-04-12T06:08:36.874Z</time></trkpt><trkpt lat="43.5886764" lon="6.8970732"><ele>279.0</ele><time>2026-04-12T06:08:38.876Z</time></trkpt><trkpt lat="43.5886821" lon="6.8969615"><ele>281.0</ele><time>2026-04-12T06:08:40.882Z</time></trkpt><trkpt lat="43.588664" lon="6.8968561"><ele>283.0</ele><time>2026-04-12T06:08:42.878Z</time></trkpt><trkpt lat="43.5886095" lon="6.8967468"><ele>285.0</ele><time>2026-04-12T06:08:44.832Z</time></trkpt><trkpt lat="43.5885198" lon="6.896649"><ele>287.0</ele><time>2026-04-12T06:08:46.87Z</time></trkpt><trkpt lat="43.5884193" lon="6.8965581"><ele>289.0</ele><time>2026-04-12T06:08:48.885Z</time></trkpt><trkpt lat="43.5883606" lon="6.8965259"><ele>289.0</ele><time>2026-04-12T06:08:49.888Z</time></trkpt><trkpt lat="43.588294" lon="6.8965074"><ele>289.0</ele><time>2026-04-12T06:08:50.857Z</time></trkpt><trkpt lat="43.5881628" lon="6.8965432"><ele>289.0</ele><time>2026-04-12T06:08:52.848Z</time></trkpt><trkpt lat="43.5881018" lon="6.8965687"><ele>289.0</ele><time>2026-04-12T06:08:53.868Z</time></trkpt><trkpt lat="43.5880319" lon="6.8965915"><ele>289.0</ele><time>2026-04-12T06:08:54.863Z</time></trkpt><trkpt lat="43.587959" lon="6.8966016"><ele>289.0</ele><time>2026-04-12T06:08:55.891Z</time></trkpt><trkpt lat="43.587883" lon="6.8966152"><ele>289.0</ele><time>2026-04-12T06:08:56.882Z</time></trkpt><trkpt lat="43.5877986" lon="6.8966316"><ele>289.0</ele><time>2026-04-12T06:08:57.885Z</time></trkpt><trkpt lat="43.5877157" lon="6.8966427"><ele>289.0</ele><time>2026-04-12T06:08:58.885Z</time></trkpt><trkpt lat="43.587638" lon="6.8966423"><ele>289.0</ele><time>2026-04-12T06:08:59.866Z</time></trkpt><trkpt lat="43.5875673" lon="6.8966052"><ele>289.0</ele><time>2026-04-12T06:09:00.868Z</time></trkpt><trkpt lat="43.5875052" lon="6.8965419"><ele>289.0</ele><time>2026-04-12T06:09:01.899Z</time></trkpt><trkpt lat="43.5874502" lon="6.8964537"><ele>289.0</ele><time>2026-04-12T06:09:02.871Z</time></trkpt><trkpt lat="43.5873899" lon="6.8963793"><ele>289.0</ele><time>2026-04-12T06:09:03.902Z</time></trkpt><trkpt lat="43.5873197" lon="6.8963206"><ele>289.0</ele><time>2026-04-12T06:09:04.853Z</time></trkpt><trkpt lat="43.5872193" lon="6.8963006"><ele>289.0</ele><time>2026-04-12T06:09:05.879Z</time></trkpt><trkpt lat="43.5871369" lon="6.89632"><ele>289.0</ele><time>2026-04-12T06:09:06.873Z</time></trkpt><trkpt lat="43.5870565" lon="6.8963755"><ele>289.0</ele><time>2026-04-12T06:09:07.9Z</time></trkpt><trkpt lat="43.5869721" lon="6.8964392"><ele>290.2</ele><time>2026-04-12T06:09:08.872Z</time></trkpt><trkpt lat="43.5868939" lon="6.8965264"><ele>291.4</ele><time>2026-04-12T06:09:09.891Z</time></trkpt><trkpt lat="43.5868226" lon="6.8966308"><ele>292.6</ele><time>2026-04-12T06:09:10.862Z</time></trkpt><trkpt lat="43.5867639" lon="6.8967477"><ele>293.8</ele><time>2026-04-12T06:09:11.895Z</time></trkpt><trkpt lat="43.5866974" lon="6.8968589"><ele>295.0</ele><time>2026-04-12T06:09:12.862Z</time></trkpt><trkpt lat="43.5866233" lon="6.896965"><ele>295.0</ele><time>2026-04-12T06:09:13.866Z</time></trkpt><trkpt lat="43.5865448" lon="6.8970602"><ele>295.0</ele><time>2026-04-12T06:09:14.863Z</time></trkpt><trkpt lat="43.5864588" lon="6.8971421"><ele>295.0</ele><time>2026-04-12T06:09:15.867Z</time></trkpt><trkpt lat="43.5863614" lon="6.8972162"><ele>295.0</ele><time>2026-04-12T06:09:16.861Z</time></trkpt><trkpt lat="43.5862702" lon="6.8972951"><ele>295.0</ele><time>2026-04-12T06:09:17.883Z</time></trkpt><trkpt lat="43.5861828" lon="6.8973805"><ele>293.6</ele><time>2026-04-12T06:09:18.891Z</time></trkpt><trkpt lat="43.5861149" lon="6.8974689"><ele>292.2</ele><time>2026-04-12T06:09:19.88Z</time></trkpt><trkpt lat="43.5860594" lon="6.8975621"><ele>290.8</ele><time>2026-04-12T06:09:20.861Z</time></trkpt><trkpt lat="43.5860242" lon="6.8976713"><ele>289.4</ele><time>2026-04-12T06:09:21.865Z</time></trkpt><trkpt lat="43.5860046" lon="6.8978054"><ele>288.0</ele><time>2026-04-12T06:09:22.895Z</time></trkpt><trkpt lat="43.5859681" lon="6.8979167"><ele>288.0</ele><time>2026-04-12T06:09:23.876Z</time></trkpt><trkpt lat="43.5858951" lon="6.897981"><ele>288.0</ele><time>2026-04-12T06:09:24.861Z</time></trkpt><trkpt lat="43.585806" lon="6.8980244"><ele>288.0</ele><time>2026-04-12T06:09:25.869Z</time></trkpt><trkpt lat="43.585717" lon="6.8980754"><ele>288.0</ele><time>2026-04-12T06:09:26.851Z</time></trkpt><trkpt lat="43.5856522" lon="6.8981605"><ele>288.0</ele><time>2026-04-12T06:09:27.893Z</time></trkpt><trkpt lat="43.5855996" lon="6.8982579"><ele>288.0</ele><time>2026-04-12T06:09:28.864Z</time></trkpt><trkpt lat="43.5855535" lon="6.8983588"><ele>288.0</ele><time>2026-04-12T06:09:29.874Z</time></trkpt><trkpt lat="43.5855033" lon="6.8984353"><ele>288.0</ele><time>2026-04-12T06:09:30.875Z</time></trkpt><trkpt lat="43.5854401" lon="6.8984853"><ele>288.0</ele><time>2026-04-12T06:09:31.874Z</time></trkpt><trkpt lat="43.5853601" lon="6.8984901"><ele>288.0</ele><time>2026-04-12T06:09:32.872Z</time></trkpt><trkpt lat="43.5852751" lon="6.8984749"><ele>288.0</ele><time>2026-04-12T06:09:33.865Z</time></trkpt><trkpt lat="43.5851911" lon="6.8984309"><ele>286.0</ele><time>2026-04-12T06:09:34.846Z</time></trkpt><trkpt lat="43.585119" lon="6.8983394"><ele>284.0</ele><time>2026-04-12T06:09:35.892Z</time></trkpt><trkpt lat="43.5850767" lon="6.8982353"><ele>282.0</ele><time>2026-04-12T06:09:36.877Z</time></trkpt><trkpt lat="43.5850614" lon="6.8981274"><ele>280.0</ele><time>2026-04-12T06:09:37.875Z</time></trkpt><trkpt lat="43.5850858" lon="6.8980032"><ele>278.0</ele><time>2026-04-12T06:09:38.868Z</time></trkpt><trkpt lat="43.5851231" lon="6.8979"><ele>276.0</ele><time>2026-04-12T06:09:39.855Z</time></trkpt><trkpt lat="43.5851649" lon="6.8977943"><ele>276.0</ele><time>2026-04-12T06:09:40.867Z</time></trkpt><trkpt lat="43.5852" lon="6.8976854"><ele>276.0</ele><time>2026-04-12T06:09:41.889Z</time></trkpt><trkpt lat="43.5852092" lon="6.8975708"><ele>276.0</ele><time>2026-04-12T06:09:42.877Z</time></trkpt><trkpt lat="43.5852029" lon="6.8974568"><ele>276.0</ele><time>2026-04-12T06:09:43.87Z</time></trkpt><trkpt lat="43.5852002" lon="6.8973448"><ele>276.0</ele><time>2026-04-12T06:09:44.875Z</time></trkpt><trkpt lat="43.5852285" lon="6.8972517"><ele>276.0</ele><time>2026-04-12T06:09:45.868Z</time></trkpt><trkpt lat="43.5852788" lon="6.8971656"><ele>277.1666666666667</ele><time>2026-04-12T06:09:46.872Z</time></trkpt><trkpt lat="43.5853078" lon="6.8970675"><ele>278.3333333333333</ele><time>2026-04-12T06:09:47.88Z</time></trkpt><trkpt lat="43.585319" lon="6.8969654"><ele>279.5</ele><time>2026-04-12T06:09:48.889Z</time></trkpt><trkpt lat="43.5853143" lon="6.8968629"><ele>280.66666666666663</ele><time>2026-04-12T06:09:49.874Z</time></trkpt><trkpt lat="43.585315" lon="6.8967624"><ele>281.8333333333333</ele><time>2026-04-12T06:09:50.9Z</time></trkpt><trkpt lat="43.5853396" lon="6.896656"><ele>283.0</ele><time>2026-04-12T06:09:51.884Z</time></trkpt><trkpt lat="43.5853794" lon="6.8965736"><ele>279.3333333333333</ele><time>2026-04-12T06:09:52.872Z</time></trkpt><trkpt lat="43.5854196" lon="6.8965016"><ele>275.66666666666663</ele><time>2026-04-12T06:09:53.886Z</time></trkpt><trkpt lat="43.5854579" lon="6.8964257"><ele>272.0</ele><time>2026-04-12T06:09:54.868Z</time></trkpt><trkpt lat="43.5854959" lon="6.8962667"><ele>268.3333333333333</ele><time>2026-04-12T06:09:56.831Z</time></trkpt><trkpt lat="43.5854797" lon="6.8961732"><ele>264.6666666666667</ele><time>2026-04-12T06:09:57.827Z</time></trkpt><trkpt lat="43.5854424" lon="6.8960953"><ele>261.0</ele><time>2026-04-12T06:09:58.847Z</time></trkpt><trkpt lat="43.5853741" lon="6.8959574"><ele>261.6666666666667</ele><time>2026-04-12T06:10:00.838Z</time></trkpt><trkpt lat="43.585342" lon="6.8958738"><ele>262.3333333333333</ele><time>2026-04-12T06:10:01.861Z</time></trkpt><trkpt lat="43.5853233" lon="6.8957844"><ele>263.0</ele><time>2026-04-12T06:10:02.889Z</time></trkpt><trkpt lat="43.5853129" lon="6.8956943"><ele>263.66666666666663</ele><time>2026-04-12T06:10:03.877Z</time></trkpt><trkpt lat="43.5853442" lon="6.8955938"><ele>264.3333333333333</ele><time>2026-04-12T06:10:04.898Z</time></trkpt><trkpt lat="43.5853919" lon="6.8955352"><ele>265.0</ele><time>2026-04-12T06:10:05.85Z</time></trkpt><trkpt lat="43.5854963" lon="6.8954478"><ele>265.0</ele><time>2026-04-12T06:10:07.892Z</time></trkpt><trkpt lat="43.5855963" lon="6.895368"><ele>265.0</ele><time>2026-04-12T06:10:09.904Z</time></trkpt><trkpt lat="43.5856671" lon="6.895228"><ele>265.0</ele><time>2026-04-12T06:10:11.896Z</time></trkpt><trkpt lat="43.585716" lon="6.8950742"><ele>265.0</ele><time>2026-04-12T06:10:13.867Z</time></trkpt><trkpt lat="43.5857513" lon="6.894923"><ele>267.8</ele><time>2026-04-12T06:10:15.88Z</time></trkpt><trkpt lat="43.5857799" lon="6.8947733"><ele>270.6</ele><time>2026-04-12T06:10:17.881Z</time></trkpt><trkpt lat="43.5858518" lon="6.8946466"><ele>273.4</ele><time>2026-04-12T06:10:19.879Z</time></trkpt><trkpt lat="43.585906" lon="6.8944919"><ele>276.2</ele><time>2026-04-12T06:10:21.859Z</time></trkpt><trkpt lat="43.5859195" lon="6.8944058"><ele>279.0</ele><time>2026-04-12T06:10:22.885Z</time></trkpt><trkpt lat="43.5859144" lon="6.8942454"><ele>279.0</ele><time>2026-04-12T06:10:24.864Z</time></trkpt><trkpt lat="43.5858969" lon="6.8941607"><ele>279.0</ele><time>2026-04-12T06:10:25.871Z</time></trkpt><trkpt lat="43.585844" lon="6.8940139"><ele>279.0</ele><time>2026-04-12T06:10:27.852Z</time></trkpt><trkpt lat="43.5857615" lon="6.8938921"><ele>279.0</ele><time>2026-04-12T06:10:29.884Z</time></trkpt><trkpt lat="43.5856687" lon="6.8937946"><ele>279.0</ele><time>2026-04-12T06:10:31.888Z</time></trkpt><trkpt lat="43.5855666" lon="6.8937347"><ele>279.0</ele><time>2026-04-12T06:10:33.895Z</time></trkpt><trkpt lat="43.5854651" lon="6.8936741"><ele>279.0</ele><time>2026-04-12T06:10:35.898Z</time></trkpt><trkpt lat="43.5853636" lon="6.893628"><ele>279.0</ele><time>2026-04-12T06:10:37.86Z</time></trkpt><trkpt lat="43.585259" lon="6.8935776"><ele>279.0</ele><time>2026-04-12T06:10:39.89Z</time></trkpt><trkpt lat="43.5851596" lon="6.8935152"><ele>279.0</ele><time>2026-04-12T06:10:41.894Z</time></trkpt><trkpt lat="43.585099" lon="6.8933967"><ele>278.0</ele><time>2026-04-12T06:10:43.895Z</time></trkpt><trkpt lat="43.585087" lon="6.8932364"><ele>277.0</ele><time>2026-04-12T06:10:45.884Z</time></trkpt><trkpt lat="43.5851332" lon="6.8931078"><ele>276.0</ele><time>2026-04-12T06:10:47.884Z</time></trkpt><trkpt lat="43.5852091" lon="6.8930411"><ele>275.0</ele><time>2026-04-12T06:10:49.884Z</time></trkpt><trkpt lat="43.5853178" lon="6.8930116"><ele>274.0</ele><time>2026-04-12T06:10:51.899Z</time></trkpt><trkpt lat="43.5854287" lon="6.8929686"><ele>274.0</ele><time>2026-04-12T06:10:53.894Z</time></trkpt><trkpt lat="43.5855253" lon="6.8928969"><ele>274.0</ele><time>2026-04-12T06:10:55.874Z</time></trkpt><trkpt lat="43.5856148" lon="6.8928111"><ele>274.0</ele><time>2026-04-12T06:10:57.856Z</time></trkpt><trkpt lat="43.5857003" lon="6.8927328"><ele>274.0</ele><time>2026-04-12T06:10:59.884Z</time></trkpt><trkpt lat="43.5857978" lon="6.8926815"><ele>274.0</ele><time>2026-04-12T06:11:01.879Z</time></trkpt><trkpt lat="43.5858833" lon="6.8925805"><ele>276.4</ele><time>2026-04-12T06:11:03.887Z</time></trkpt><trkpt lat="43.5859207" lon="6.8924291"><ele>278.79999999999995</ele><time>2026-04-12T06:11:05.856Z</time></trkpt><trkpt lat="43.5859064" lon="6.8922925"><ele>281.20000000000005</ele><time>2026-04-12T06:11:07.886Z</time></trkpt><trkpt lat="43.5858555" lon="6.8921663"><ele>283.6</ele><time>2026-04-12T06:11:09.892Z</time></trkpt><trkpt lat="43.5857939" lon="6.8920407"><ele>286.0</ele><time>2026-04-12T06:11:11.893Z</time></trkpt><trkpt lat="43.5857375" lon="6.8919104"><ele>286.0</ele><time>2026-04-12T06:11:13.85Z</time></trkpt><trkpt lat="43.585701" lon="6.8917678"><ele>286.0</ele><time>2026-04-12T06:11:15.82Z</time></trkpt><trkpt lat="43.5856941" lon="6.8916184"><ele>286.0</ele><time>2026-04-12T06:11:17.85Z</time></trkpt><trkpt lat="43.5856741" lon="6.8914689"><ele>286.0</ele><time>2026-04-12T06:11:19.871Z</time></trkpt><trkpt lat="43.5856264" lon="6.8913245"><ele>286.0</ele><time>2026-04-12T06:11:21.876Z</time></trkpt><trkpt lat="43.5855614" lon="6.8912053"><ele>285.8</ele><time>2026-04-12T06:11:23.845Z</time></trkpt><trkpt lat="43.5854944" lon="6.8910954"><ele>285.6</ele><time>2026-04-12T06:11:25.868Z</time></trkpt><trkpt lat="43.5854266" lon="6.8909955"><ele>285.4</ele><time>2026-04-12T06:11:27.89Z</time></trkpt><trkpt lat="43.5853444" lon="6.8909085"><ele>285.2</ele><time>2026-04-12T06:11:29.872Z</time></trkpt><trkpt lat="43.5852737" lon="6.8908212"><ele>285.0</ele><time>2026-04-12T06:11:31.875Z</time></trkpt><trkpt lat="43.5852021" lon="6.8907002"><ele>291.0</ele><time>2026-04-12T06:11:33.88Z</time></trkpt><trkpt lat="43.5851415" lon="6.8905869"><ele>297.0</ele><time>2026-04-12T06:11:35.857Z</time></trkpt><trkpt lat="43.5850872" lon="6.8904907"><ele>303.0</ele><time>2026-04-12T06:11:37.881Z</time></trkpt><trkpt lat="43.5850254" lon="6.8903922"><ele>309.0</ele><time>2026-04-12T06:11:39.868Z</time></trkpt><trkpt lat="43.5849744" lon="6.8902733"><ele>315.0</ele><time>2026-04-12T06:11:41.859Z</time></trkpt><trkpt lat="43.5849534" lon="6.8901375"><ele>313.2</ele><time>2026-04-12T06:11:43.871Z</time></trkpt><trkpt lat="43.5849565" lon="6.8899867"><ele>311.4</ele><time>2026-04-12T06:11:45.861Z</time></trkpt><trkpt lat="43.5849867" lon="6.8898403"><ele>309.6</ele><time>2026-04-12T06:11:47.888Z</time></trkpt><trkpt lat="43.5850217" lon="6.8896988"><ele>307.8</ele><time>2026-04-12T06:11:49.861Z</time></trkpt><trkpt lat="43.5850635" lon="6.8895543"><ele>306.0</ele><time>2026-04-12T06:11:51.902Z</time></trkpt><trkpt lat="43.585069" lon="6.8893967"><ele>304.6</ele><time>2026-04-12T06:11:53.879Z</time></trkpt><trkpt lat="43.5850135" lon="6.8892585"><ele>303.20000000000005</ele><time>2026-04-12T06:11:55.896Z</time></trkpt><trkpt lat="43.5849253" lon="6.8891491"><ele>301.79999999999995</ele><time>2026-04-12T06:11:57.862Z</time></trkpt><trkpt lat="43.5848389" lon="6.8890322"><ele>300.4</ele><time>2026-04-12T06:11:59.877Z</time></trkpt><trkpt lat="43.5848027" lon="6.8889559"><ele>299.0</ele><time>2026-04-12T06:12:00.855Z</time></trkpt><trkpt lat="43.5847832" lon="6.8888712"><ele>299.0</ele><time>2026-04-12T06:12:01.867Z</time></trkpt><trkpt lat="43.5847731" lon="6.8887776"><ele>299.0</ele><time>2026-04-12T06:12:02.88Z</time></trkpt><trkpt lat="43.5847688" lon="6.8886888"><ele>299.0</ele><time>2026-04-12T06:12:03.917Z</time></trkpt><trkpt lat="43.5847701" lon="6.8885927"><ele>299.0</ele><time>2026-04-12T06:12:04.84Z</time></trkpt><trkpt lat="43.5847769" lon="6.8885061"><ele>299.0</ele><time>2026-04-12T06:12:05.903Z</time></trkpt><trkpt lat="43.5847899" lon="6.8884205"><ele>299.0</ele><time>2026-04-12T06:12:06.889Z</time></trkpt><trkpt lat="43.5848071" lon="6.8883296"><ele>299.0</ele><time>2026-04-12T06:12:07.861Z</time></trkpt><trkpt lat="43.5848277" lon="6.8881645"><ele>298.0</ele><time>2026-04-12T06:12:09.889Z</time></trkpt><trkpt lat="43.5848537" lon="6.8880034"><ele>297.0</ele><time>2026-04-12T06:12:11.844Z</time></trkpt><trkpt lat="43.5848769" lon="6.8879175"><ele>296.0</ele><time>2026-04-12T06:12:12.906Z</time></trkpt><trkpt lat="43.584928" lon="6.8877573"><ele>295.0</ele><time>2026-04-12T06:12:14.86Z</time></trkpt><trkpt lat="43.5849562" lon="6.8876757"><ele>294.0</ele><time>2026-04-12T06:12:15.899Z</time></trkpt><trkpt lat="43.5849748" lon="6.8875855"><ele>293.0</ele><time>2026-04-12T06:12:16.863Z</time></trkpt><trkpt lat="43.5849849" lon="6.8874885"><ele>292.99999999999994</ele><time>2026-04-12T06:12:17.836Z</time></trkpt><trkpt lat="43.5849868" lon="6.8873887"><ele>293.0</ele><time>2026-04-12T06:12:18.866Z</time></trkpt><trkpt lat="43.58498" lon="6.887287"><ele>293.0</ele><time>2026-04-12T06:12:19.886Z</time></trkpt><trkpt lat="43.5849563" lon="6.8871786"><ele>293.0</ele><time>2026-04-12T06:12:20.884Z</time></trkpt><trkpt lat="43.584914" lon="6.8870913"><ele>293.0</ele><time>2026-04-12T06:12:21.852Z</time></trkpt><trkpt lat="43.5848662" lon="6.8870176"><ele>292.99999999999994</ele><time>2026-04-12T06:12:22.876Z</time></trkpt><trkpt lat="43.5848151" lon="6.8869466"><ele>293.0</ele><time>2026-04-12T06:12:23.877Z</time></trkpt><trkpt lat="43.5847571" lon="6.8868734"><ele>293.0</ele><time>2026-04-12T06:12:24.883Z</time></trkpt><trkpt lat="43.5847067" lon="6.8867772"><ele>293.0</ele><time>2026-04-12T06:12:25.891Z</time></trkpt><trkpt lat="43.5846726" lon="6.8866714"><ele>293.0</ele><time>2026-04-12T06:12:26.863Z</time></trkpt><trkpt lat="43.5846649" lon="6.8865692"><ele>293.0</ele><time>2026-04-12T06:12:27.829Z</time></trkpt><trkpt lat="43.584685" lon="6.8864826"><ele>293.0</ele><time>2026-04-12T06:12:28.864Z</time></trkpt><trkpt lat="43.5847136" lon="6.8863976"><ele>293.0</ele><time>2026-04-12T06:12:29.856Z</time></trkpt><trkpt lat="43.5848037" lon="6.8863262"><ele>293.83333333333337</ele><time>2026-04-12T06:12:31.884Z</time></trkpt><trkpt lat="43.5848904" lon="6.8863187"><ele>294.6666666666667</ele><time>2026-04-12T06:12:33.884Z</time></trkpt><trkpt lat="43.5849728" lon="6.8862904"><ele>295.5</ele><time>2026-04-12T06:12:35.838Z</time></trkpt><trkpt lat="43.5850523" lon="6.8862708"><ele>296.3333333333333</ele><time>2026-04-12T06:12:37.881Z</time></trkpt><trkpt lat="43.5851377" lon="6.8862495"><ele>297.16666666666663</ele><time>2026-04-12T06:12:39.844Z</time></trkpt><trkpt lat="43.5852161" lon="6.8862239"><ele>298.0</ele><time>2026-04-12T06:12:41.863Z</time></trkpt><trkpt lat="43.5852919" lon="6.8861926"><ele>294.66666666666663</ele><time>2026-04-12T06:12:43.857Z</time></trkpt><trkpt lat="43.5853664" lon="6.8861684"><ele>291.3333333333333</ele><time>2026-04-12T06:12:45.901Z</time></trkpt><trkpt lat="43.5854447" lon="6.8861438"><ele>288.0</ele><time>2026-04-12T06:12:47.882Z</time></trkpt><trkpt lat="43.5855251" lon="6.8861065"><ele>284.6666666666667</ele><time>2026-04-12T06:12:49.87Z</time></trkpt><trkpt lat="43.5856022" lon="6.8860826"><ele>281.33333333333337</ele><time>2026-04-12T06:12:51.867Z</time></trkpt><trkpt lat="43.5856759" lon="6.8860348"><ele>278.0</ele><time>2026-04-12T06:12:53.868Z</time></trkpt><trkpt lat="43.585736" lon="6.8859697"><ele>283.5</ele><time>2026-04-12T06:12:55.839Z</time></trkpt><trkpt lat="43.585811" lon="6.8859071"><ele>289.0</ele><time>2026-04-12T06:12:57.882Z</time></trkpt><trkpt lat="43.585896" lon="6.8858528"><ele>294.5</ele><time>2026-04-12T06:12:59.828Z</time></trkpt><trkpt lat="43.5859768" lon="6.8858124"><ele>300.0</ele><time>2026-04-12T06:13:01.867Z</time></trkpt><trkpt lat="43.5860458" lon="6.8857561"><ele>305.5</ele><time>2026-04-12T06:13:03.863Z</time></trkpt><trkpt lat="43.5861072" lon="6.8856834"><ele>311.0</ele><time>2026-04-12T06:13:05.88Z</time></trkpt><trkpt lat="43.5861658" lon="6.8855902"><ele>312.5</ele><time>2026-04-12T06:13:07.882Z</time></trkpt><trkpt lat="43.5862088" lon="6.8854877"><ele>314.0</ele><time>2026-04-12T06:13:09.875Z</time></trkpt><trkpt lat="43.5862305" lon="6.885386"><ele>315.5</ele><time>2026-04-12T06:13:11.889Z</time></trkpt><trkpt lat="43.5862738" lon="6.8852823"><ele>317.0</ele><time>2026-04-12T06:13:13.892Z</time></trkpt><trkpt lat="43.5863099" lon="6.885191"><ele>318.5</ele><time>2026-04-12T06:13:15.874Z</time></trkpt><trkpt lat="43.5863649" lon="6.8851146"><ele>320.0</ele><time>2026-04-12T06:13:17.876Z</time></trkpt><trkpt lat="43.5864248" lon="6.8850419"><ele>320.0</ele><time>2026-04-12T06:13:19.86Z</time></trkpt><trkpt lat="43.5864882" lon="6.8849697"><ele>320.0</ele><time>2026-04-12T06:13:21.857Z</time></trkpt><trkpt lat="43.5865394" lon="6.8848996"><ele>320.0</ele><time>2026-04-12T06:13:23.886Z</time></trkpt><trkpt lat="43.5866086" lon="6.8848396"><ele>320.0</ele><time>2026-04-12T06:13:25.852Z</time></trkpt><trkpt lat="43.5866857" lon="6.8848033"><ele>320.0</ele><time>2026-04-12T06:13:27.873Z</time></trkpt><trkpt lat="43.5867646" lon="6.8847994"><ele>320.0</ele><time>2026-04-12T06:13:29.857Z</time></trkpt><trkpt lat="43.5868489" lon="6.8848063"><ele>320.0</ele><time>2026-04-12T06:13:31.865Z</time></trkpt><trkpt lat="43.5869374" lon="6.884804"><ele>320.0</ele><time>2026-04-12T06:13:33.861Z</time></trkpt><trkpt lat="43.5870233" lon="6.8847982"><ele>320.0</ele><time>2026-04-12T06:13:35.855Z</time></trkpt><trkpt lat="43.5871009" lon="6.8847596"><ele>320.0</ele><time>2026-04-12T06:13:37.856Z</time></trkpt><trkpt lat="43.5871712" lon="6.8846938"><ele>320.0</ele><time>2026-04-12T06:13:39.886Z</time></trkpt><trkpt lat="43.5872306" lon="6.8846202"><ele>320.0</ele><time>2026-04-12T06:13:41.896Z</time></trkpt><trkpt lat="43.587297" lon="6.8845578"><ele>321.1428571428571</ele><time>2026-04-12T06:13:43.87Z</time></trkpt><trkpt lat="43.5873611" lon="6.8845091"><ele>322.2857142857143</ele><time>2026-04-12T06:13:45.864Z</time></trkpt><trkpt lat="43.5874308" lon="6.8844548"><ele>323.42857142857144</ele><time>2026-04-12T06:13:47.893Z</time></trkpt><trkpt lat="43.5875007" lon="6.8844125"><ele>324.57142857142856</ele><time>2026-04-12T06:13:49.873Z</time></trkpt><trkpt lat="43.5875616" lon="6.8843602"><ele>325.7142857142857</ele><time>2026-04-12T06:13:51.854Z</time></trkpt><trkpt lat="43.5876113" lon="6.8842948"><ele>326.85714285714283</ele><time>2026-04-12T06:13:53.866Z</time></trkpt><trkpt lat="43.5876575" lon="6.884216"><ele>328.0</ele><time>2026-04-12T06:13:55.886Z</time></trkpt><trkpt lat="43.5877015" lon="6.8841228"><ele>328.0</ele><time>2026-04-12T06:13:57.881Z</time></trkpt><trkpt lat="43.5877363" lon="6.8840246"><ele>328.0</ele><time>2026-04-12T06:13:59.875Z</time></trkpt><trkpt lat="43.5877607" lon="6.8839322"><ele>328.0</ele><time>2026-04-12T06:14:01.862Z</time></trkpt><trkpt lat="43.587792" lon="6.8838337"><ele>328.0</ele><time>2026-04-12T06:14:03.873Z</time></trkpt><trkpt lat="43.5878264" lon="6.8837326"><ele>328.0</ele><time>2026-04-12T06:14:05.861Z</time></trkpt><trkpt lat="43.5878644" lon="6.8836461"><ele>328.0</ele><time>2026-04-12T06:14:07.883Z</time></trkpt><trkpt lat="43.587905" lon="6.8835723"><ele>325.85714285714283</ele><time>2026-04-12T06:14:09.879Z</time></trkpt><trkpt lat="43.5879537" lon="6.8834941"><ele>323.7142857142857</ele><time>2026-04-12T06:14:11.891Z</time></trkpt><trkpt lat="43.5880068" lon="6.8834276"><ele>321.57142857142856</ele><time>2026-04-12T06:14:13.869Z</time></trkpt><trkpt lat="43.5880536" lon="6.8833496"><ele>319.42857142857144</ele><time>2026-04-12T06:14:15.842Z</time></trkpt><trkpt lat="43.5880856" lon="6.8832574"><ele>317.2857142857143</ele><time>2026-04-12T06:14:17.868Z</time></trkpt><trkpt lat="43.5881015" lon="6.8831617"><ele>315.1428571428571</ele><time>2026-04-12T06:14:19.891Z</time></trkpt><trkpt lat="43.588104" lon="6.8830662"><ele>313.0</ele><time>2026-04-12T06:14:21.857Z</time></trkpt><trkpt lat="43.5880853" lon="6.8829614"><ele>313.0</ele><time>2026-04-12T06:14:23.886Z</time></trkpt><trkpt lat="43.5880637" lon="6.8828655"><ele>313.0</ele><time>2026-04-12T06:14:25.861Z</time></trkpt><trkpt lat="43.5880374" lon="6.8827803"><ele>313.0</ele><time>2026-04-12T06:14:27.882Z</time></trkpt><trkpt lat="43.5879783" lon="6.8826701"><ele>313.0</ele><time>2026-04-12T06:14:30.879Z</time></trkpt><trkpt lat="43.5879094" lon="6.882575"><ele>313.0</ele><time>2026-04-12T06:14:33.827Z</time></trkpt><trkpt lat="43.5878556" lon="6.8825149"><ele>313.0</ele><time>2026-04-12T06:14:35.887Z</time></trkpt><trkpt lat="43.5878063" lon="6.8824591"><ele>318.1428571428571</ele><time>2026-04-12T06:14:37.877Z</time></trkpt><trkpt lat="43.5877532" lon="6.8824056"><ele>323.2857142857143</ele><time>2026-04-12T06:14:39.866Z</time></trkpt><trkpt lat="43.587707" lon="6.8823456"><ele>328.42857142857144</ele><time>2026-04-12T06:14:41.849Z</time></trkpt><trkpt lat="43.5876593" lon="6.8822888"><ele>333.57142857142856</ele><time>2026-04-12T06:14:43.881Z</time></trkpt><trkpt lat="43.5875868" lon="6.8822034"><ele>338.7142857142857</ele><time>2026-04-12T06:14:46.87Z</time></trkpt><trkpt lat="43.5875477" lon="6.8821338"><ele>343.85714285714283</ele><time>2026-04-12T06:14:48.869Z</time></trkpt><trkpt lat="43.5875162" lon="6.882053"><ele>349.0</ele><time>2026-04-12T06:14:50.895Z</time></trkpt><trkpt lat="43.5874878" lon="6.8819667"><ele>349.0</ele><time>2026-04-12T06:14:52.87Z</time></trkpt><trkpt lat="43.5874658" lon="6.8818829"><ele>349.0</ele><time>2026-04-12T06:14:54.872Z</time></trkpt><trkpt lat="43.5874434" lon="6.8817983"><ele>349.0</ele><time>2026-04-12T06:14:56.879Z</time></trkpt><trkpt lat="43.5874137" lon="6.8817158"><ele>349.0</ele><time>2026-04-12T06:14:58.855Z</time></trkpt><trkpt lat="43.5873982" lon="6.8816038"><ele>349.0</ele><time>2026-04-12T06:15:01.864Z</time></trkpt><trkpt lat="43.5873579" lon="6.8814927"><ele>349.0</ele><time>2026-04-12T06:15:04.881Z</time></trkpt><trkpt lat="43.5873367" lon="6.8813743"><ele>347.99999999999994</ele><time>2026-04-12T06:15:07.892Z</time></trkpt><trkpt lat="43.5873261" lon="6.881257"><ele>347.0</ele><time>2026-04-12T06:15:10.866Z</time></trkpt><trkpt lat="43.5873427" lon="6.8811372"><ele>346.0</ele><time>2026-04-12T06:15:13.827Z</time></trkpt><trkpt lat="43.5873821" lon="6.8810427"><ele>345.0</ele><time>2026-04-12T06:15:16.847Z</time></trkpt><trkpt lat="43.5874315" lon="6.8809888"><ele>344.0</ele><time>2026-04-12T06:15:18.875Z</time></trkpt><trkpt lat="43.5874913" lon="6.8809542"><ele>342.99999999999994</ele><time>2026-04-12T06:15:20.89Z</time></trkpt><trkpt lat="43.5875546" lon="6.8809175"><ele>342.0</ele><time>2026-04-12T06:15:22.869Z</time></trkpt><trkpt lat="43.5876261" lon="6.8808674"><ele>340.8333333333333</ele><time>2026-04-12T06:15:25.876Z</time></trkpt><trkpt lat="43.5877077" lon="6.8808154"><ele>339.6666666666667</ele><time>2026-04-12T06:15:28.858Z</time></trkpt><trkpt lat="43.5877861" lon="6.8807552"><ele>338.5</ele><time>2026-04-12T06:15:31.866Z</time></trkpt><trkpt lat="43.5878446" lon="6.8807126"><ele>337.33333333333337</ele><time>2026-04-12T06:15:33.893Z</time></trkpt><trkpt lat="43.5879271" lon="6.8806663"><ele>336.1666666666667</ele><time>2026-04-12T06:15:36.861Z</time></trkpt><trkpt lat="43.5879844" lon="6.8806289"><ele>335.0</ele><time>2026-04-12T06:15:38.872Z</time></trkpt><trkpt lat="43.5880459" lon="6.8805914"><ele>335.0</ele><time>2026-04-12T06:15:40.869Z</time></trkpt><trkpt lat="43.5881267" lon="6.8805392"><ele>335.0</ele><time>2026-04-12T06:15:43.88Z</time></trkpt><trkpt lat="43.588204" lon="6.880471"><ele>335.0</ele><time>2026-04-12T06:15:46.882Z</time></trkpt><trkpt lat="43.5882888" lon="6.8804233"><ele>335.0</ele><time>2026-04-12T06:15:49.864Z</time></trkpt><trkpt lat="43.5883689" lon="6.8803726"><ele>335.0</ele><time>2026-04-12T06:15:52.851Z</time></trkpt><trkpt lat="43.5884418" lon="6.8803379"><ele>335.0</ele><time>2026-04-12T06:15:55.868Z</time></trkpt><trkpt lat="43.5885106" lon="6.8802987"><ele>335.0</ele><time>2026-04-12T06:15:58.862Z</time></trkpt><trkpt lat="43.5885883" lon="6.880241"><ele>335.0</ele><time>2026-04-12T06:16:01.862Z</time></trkpt><trkpt lat="43.5886641" lon="6.8801624"><ele>335.0</ele><time>2026-04-12T06:16:04.861Z</time></trkpt><trkpt lat="43.5887046" lon="6.8800916"><ele>335.0</ele><time>2026-04-12T06:16:06.868Z</time></trkpt><trkpt lat="43.5887722" lon="6.879996"><ele>335.0</ele><time>2026-04-12T06:16:09.862Z</time></trkpt><trkpt lat="43.5888271" lon="6.8799375"><ele>335.0</ele><time>2026-04-12T06:16:11.868Z</time></trkpt><trkpt lat="43.5888967" lon="6.8798651"><ele>336.5</ele><time>2026-04-12T06:16:14.859Z</time></trkpt><trkpt lat="43.588967" lon="6.8797922"><ele>338.0</ele><time>2026-04-12T06:16:17.874Z</time></trkpt><trkpt lat="43.5890322" lon="6.8797238"><ele>339.5</ele><time>2026-04-12T06:16:20.854Z</time></trkpt><trkpt lat="43.5890803" lon="6.879623"><ele>341.0</ele><time>2026-04-12T06:16:23.877Z</time></trkpt><trkpt lat="43.5890978" lon="6.8795105"><ele>342.5</ele><time>2026-04-12T06:16:26.876Z</time></trkpt><trkpt lat="43.5890983" lon="6.8793934"><ele>344.0</ele><time>2026-04-12T06:16:29.882Z</time></trkpt><trkpt lat="43.5890874" lon="6.8793039"><ele>346.0</ele><time>2026-04-12T06:16:32.864Z</time></trkpt><trkpt lat="43.5890498" lon="6.8791985"><ele>348.0</ele><time>2026-04-12T06:16:35.875Z</time></trkpt><trkpt lat="43.589007" lon="6.8790918"><ele>350.0</ele><time>2026-04-12T06:16:38.867Z</time></trkpt><trkpt lat="43.5889594" lon="6.8789937"><ele>352.0</ele><time>2026-04-12T06:16:41.864Z</time></trkpt><trkpt lat="43.5889144" lon="6.8789056"><ele>354.0</ele><time>2026-04-12T06:16:44.879Z</time></trkpt><trkpt lat="43.5888665" lon="6.8788183"><ele>356.0</ele><time>2026-04-12T06:16:47.885Z</time></trkpt><trkpt lat="43.5888185" lon="6.8787224"><ele>356.0</ele><time>2026-04-12T06:16:50.885Z</time></trkpt><trkpt lat="43.5887766" lon="6.8786274"><ele>356.0</ele><time>2026-04-12T06:16:53.874Z</time></trkpt><trkpt lat="43.5887481" lon="6.8785088"><ele>356.0</ele><time>2026-04-12T06:16:56.871Z</time></trkpt><trkpt lat="43.5887683" lon="6.878393"><ele>356.0</ele><time>2026-04-12T06:16:59.871Z</time></trkpt><trkpt lat="43.5888081" lon="6.878295"><ele>356.0</ele><time>2026-04-12T06:17:02.87Z</time></trkpt><trkpt lat="43.5888656" lon="6.8782123"><ele>356.0</ele><time>2026-04-12T06:17:05.878Z</time></trkpt><trkpt lat="43.5889319" lon="6.8781409"><ele>356.83333333333337</ele><time>2026-04-12T06:17:08.865Z</time></trkpt><trkpt lat="43.588992" lon="6.8780593"><ele>357.6666666666667</ele><time>2026-04-12T06:17:11.861Z</time></trkpt><trkpt lat="43.5890577" lon="6.8779844"><ele>358.5</ele><time>2026-04-12T06:17:14.886Z</time></trkpt><trkpt lat="43.5891082" lon="6.8779312"><ele>359.3333333333333</ele><time>2026-04-12T06:17:16.844Z</time></trkpt><trkpt lat="43.5891789" lon="6.8778557"><ele>360.16666666666663</ele><time>2026-04-12T06:17:19.845Z</time></trkpt><trkpt lat="43.5892553" lon="6.8777764"><ele>361.0</ele><time>2026-04-12T06:17:22.88Z</time></trkpt><trkpt lat="43.5893076" lon="6.8777125"><ele>361.0</ele><time>2026-04-12T06:17:24.849Z</time></trkpt><trkpt lat="43.5893543" lon="6.8776508"><ele>361.0</ele><time>2026-04-12T06:17:26.859Z</time></trkpt><trkpt lat="43.5894091" lon="6.8775648"><ele>361.0</ele><time>2026-04-12T06:17:29.868Z</time></trkpt><trkpt lat="43.58944" lon="6.8774794"><ele>361.0</ele><time>2026-04-12T06:17:31.849Z</time></trkpt><trkpt lat="43.5894574" lon="6.8773849"><ele>361.0</ele><time>2026-04-12T06:17:33.894Z</time></trkpt><trkpt lat="43.5894756" lon="6.8772987"><ele>361.0</ele><time>2026-04-12T06:17:35.876Z</time></trkpt><trkpt lat="43.5894932" lon="6.8772036"><ele>361.0</ele><time>2026-04-12T06:17:37.874Z</time></trkpt><trkpt lat="43.5895111" lon="6.8771187"><ele>359.8571428571429</ele><time>2026-04-12T06:17:39.885Z</time></trkpt><trkpt lat="43.589531" lon="6.8770271"><ele>358.71428571428567</ele><time>2026-04-12T06:17:41.88Z</time></trkpt><trkpt lat="43.5895533" lon="6.8769287"><ele>357.57142857142856</ele><time>2026-04-12T06:17:43.884Z</time></trkpt><trkpt lat="43.5895807" lon="6.8768447"><ele>356.42857142857144</ele><time>2026-04-12T06:17:45.887Z</time></trkpt><trkpt lat="43.5896201" lon="6.8767523"><ele>355.28571428571433</ele><time>2026-04-12T06:17:47.869Z</time></trkpt><trkpt lat="43.5896645" lon="6.8766687"><ele>354.1428571428571</ele><time>2026-04-12T06:17:49.871Z</time></trkpt><trkpt lat="43.5897257" lon="6.8766001"><ele>353.0</ele><time>2026-04-12T06:17:51.878Z</time></trkpt><trkpt lat="43.5897919" lon="6.8765274"><ele>356.1666666666667</ele><time>2026-04-12T06:17:53.893Z</time></trkpt><trkpt lat="43.5898572" lon="6.8764556"><ele>359.33333333333337</ele><time>2026-04-12T06:17:55.902Z</time></trkpt><trkpt lat="43.589912" lon="6.8763907"><ele>362.5</ele><time>2026-04-12T06:17:57.872Z</time></trkpt><trkpt lat="43.5899719" lon="6.8763192"><ele>365.6666666666667</ele><time>2026-04-12T06:17:59.851Z</time></trkpt><trkpt lat="43.5900271" lon="6.8762546"><ele>368.8333333333333</ele><time>2026-04-12T06:18:01.871Z</time></trkpt><trkpt lat="43.5900791" lon="6.8761838"><ele>372.0</ele><time>2026-04-12T06:18:03.867Z</time></trkpt><trkpt lat="43.5901409" lon="6.8760975"><ele>372.0</ele><time>2026-04-12T06:18:05.821Z</time></trkpt><trkpt lat="43.5901904" lon="6.8760237"><ele>372.0</ele><time>2026-04-12T06:18:07.834Z</time></trkpt><trkpt lat="43.5902381" lon="6.875947"><ele>372.0</ele><time>2026-04-12T06:18:09.844Z</time></trkpt><trkpt lat="43.5903478" lon="6.8758376"><ele>372.0</ele><time>2026-04-12T06:18:12.858Z</time></trkpt><trkpt lat="43.5904158" lon="6.8757566"><ele>372.0</ele><time>2026-04-12T06:18:14.877Z</time></trkpt><trkpt lat="43.5904821" lon="6.8756665"><ele>370.8</ele><time>2026-04-12T06:18:16.875Z</time></trkpt><trkpt lat="43.5905403" lon="6.875598"><ele>369.6</ele><time>2026-04-12T06:18:18.873Z</time></trkpt><trkpt lat="43.5906009" lon="6.8755282"><ele>368.40000000000003</ele><time>2026-04-12T06:18:20.877Z</time></trkpt><trkpt lat="43.5906763" lon="6.8754479"><ele>367.20000000000005</ele><time>2026-04-12T06:18:22.893Z</time></trkpt><trkpt lat="43.5907718" lon="6.8753583"><ele>366.0</ele><time>2026-04-12T06:18:24.874Z</time></trkpt><trkpt lat="43.5908734" lon="6.8752786"><ele>366.0</ele><time>2026-04-12T06:18:26.876Z</time></trkpt><trkpt lat="43.5909696" lon="6.8751629"><ele>366.0</ele><time>2026-04-12T06:18:28.874Z</time></trkpt><trkpt lat="43.5910235" lon="6.8750965"><ele>366.0</ele><time>2026-04-12T06:18:29.901Z</time></trkpt><trkpt lat="43.5910805" lon="6.8750204"><ele>366.0</ele><time>2026-04-12T06:18:30.839Z</time></trkpt><trkpt lat="43.5911361" lon="6.8749349"><ele>366.0</ele><time>2026-04-12T06:18:31.905Z</time></trkpt><trkpt lat="43.5911794" lon="6.8748305"><ele>366.0</ele><time>2026-04-12T06:18:32.874Z</time></trkpt><trkpt lat="43.5912131" lon="6.8747058"><ele>363.8</ele><time>2026-04-12T06:18:33.881Z</time></trkpt><trkpt lat="43.5912252" lon="6.8745752"><ele>361.6</ele><time>2026-04-12T06:18:34.882Z</time></trkpt><trkpt lat="43.5912327" lon="6.8744401"><ele>359.4</ele><time>2026-04-12T06:18:35.905Z</time></trkpt><trkpt lat="43.5912377" lon="6.8743044"><ele>357.2</ele><time>2026-04-12T06:18:36.884Z</time></trkpt><trkpt lat="43.5912461" lon="6.8741715"><ele>355.0</ele><time>2026-04-12T06:18:37.888Z</time></trkpt><trkpt lat="43.5912586" lon="6.8740439"><ele>355.0</ele><time>2026-04-12T06:18:38.901Z</time></trkpt><trkpt lat="43.5912757" lon="6.8739098"><ele>355.0</ele><time>2026-04-12T06:18:39.877Z</time></trkpt><trkpt lat="43.5913043" lon="6.8737858"><ele>355.0</ele><time>2026-04-12T06:18:40.831Z</time></trkpt><trkpt lat="43.5913394" lon="6.873665"><ele>355.0</ele><time>2026-04-12T06:18:41.864Z</time></trkpt><trkpt lat="43.5913765" lon="6.8735386"><ele>355.0</ele><time>2026-04-12T06:18:42.891Z</time></trkpt><trkpt lat="43.5914117" lon="6.8734111"><ele>356.2</ele><time>2026-04-12T06:18:43.871Z</time></trkpt><trkpt lat="43.591455" lon="6.8732895"><ele>357.4</ele><time>2026-04-12T06:18:44.851Z</time></trkpt><trkpt lat="43.5914923" lon="6.8731762"><ele>358.6</ele><time>2026-04-12T06:18:45.89Z</time></trkpt><trkpt lat="43.5915327" lon="6.8730562"><ele>359.8</ele><time>2026-04-12T06:18:46.889Z</time></trkpt><trkpt lat="43.5915885" lon="6.87295"><ele>361.0</ele><time>2026-04-12T06:18:47.868Z</time></trkpt><trkpt lat="43.5916544" lon="6.8728532"><ele>361.0</ele><time>2026-04-12T06:18:48.867Z</time></trkpt><trkpt lat="43.5917269" lon="6.8727675"><ele>361.0</ele><time>2026-04-12T06:18:49.89Z</time></trkpt><trkpt lat="43.591808" lon="6.872687"><ele>361.0</ele><time>2026-04-12T06:18:50.851Z</time></trkpt><trkpt lat="43.5918932" lon="6.8726221"><ele>361.0</ele><time>2026-04-12T06:18:51.865Z</time></trkpt><trkpt lat="43.5919852" lon="6.8725717"><ele>361.0</ele><time>2026-04-12T06:18:52.889Z</time></trkpt><trkpt lat="43.5920841" lon="6.8725387"><ele>360.4</ele><time>2026-04-12T06:18:53.888Z</time></trkpt><trkpt lat="43.5921903" lon="6.8725277"><ele>359.8</ele><time>2026-04-12T06:18:54.857Z</time></trkpt><trkpt lat="43.5923058" lon="6.8725069"><ele>359.2</ele><time>2026-04-12T06:18:55.838Z</time></trkpt><trkpt lat="43.5924089" lon="6.8724629"><ele>358.59999999999997</ele><time>2026-04-12T06:18:56.859Z</time></trkpt><trkpt lat="43.5925114" lon="6.8724096"><ele>358.0</ele><time>2026-04-12T06:18:57.861Z</time></trkpt><trkpt lat="43.5926092" lon="6.872347"><ele>358.0</ele><time>2026-04-12T06:18:58.878Z</time></trkpt><trkpt lat="43.5926981" lon="6.8722702"><ele>358.0</ele><time>2026-04-12T06:18:59.874Z</time></trkpt><trkpt lat="43.5927767" lon="6.8721862"><ele>358.0</ele><time>2026-04-12T06:19:00.894Z</time></trkpt><trkpt lat="43.5928485" lon="6.8720839"><ele>358.0</ele><time>2026-04-12T06:19:01.888Z</time></trkpt><trkpt lat="43.5929018" lon="6.8719744"><ele>358.0</ele><time>2026-04-12T06:19:02.888Z</time></trkpt><trkpt lat="43.5929371" lon="6.8718358"><ele>354.4</ele><time>2026-04-12T06:19:03.865Z</time></trkpt><trkpt lat="43.5929602" lon="6.8716947"><ele>350.79999999999995</ele><time>2026-04-12T06:19:04.864Z</time></trkpt><trkpt lat="43.5929728" lon="6.8715487"><ele>347.2</ele><time>2026-04-12T06:19:05.87Z</time></trkpt><trkpt lat="43.5929757" lon="6.8713998"><ele>343.6</ele><time>2026-04-12T06:19:06.846Z</time></trkpt><trkpt lat="43.5929813" lon="6.8712505"><ele>340.0</ele><time>2026-04-12T06:19:07.878Z</time></trkpt><trkpt lat="43.5929841" lon="6.8711113"><ele>340.0</ele><time>2026-04-12T06:19:08.873Z</time></trkpt><trkpt lat="43.5929908" lon="6.8709748"><ele>340.0</ele><time>2026-04-12T06:19:09.89Z</time></trkpt><trkpt lat="43.5930046" lon="6.8708398"><ele>340.0</ele><time>2026-04-12T06:19:10.863Z</time></trkpt><trkpt lat="43.5930306" lon="6.8707092"><ele>340.0</ele><time>2026-04-12T06:19:11.866Z</time></trkpt><trkpt lat="43.5930884" lon="6.8705827"><ele>340.0</ele><time>2026-04-12T06:19:12.848Z</time></trkpt><trkpt lat="43.5931734" lon="6.8704853"><ele>342.0</ele><time>2026-04-12T06:19:13.879Z</time></trkpt><trkpt lat="43.5932672" lon="6.8704104"><ele>344.0</ele><time>2026-04-12T06:19:14.88Z</time></trkpt><trkpt lat="43.5933686" lon="6.8703552"><ele>346.0</ele><time>2026-04-12T06:19:15.872Z</time></trkpt><trkpt lat="43.5934791" lon="6.8702935"><ele>348.0</ele><time>2026-04-12T06:19:16.876Z</time></trkpt><trkpt lat="43.5935841" lon="6.8702266"><ele>343.59999999999997</ele><time>2026-04-12T06:19:17.893Z</time></trkpt><trkpt lat="43.5936794" lon="6.8701617"><ele>339.2</ele><time>2026-04-12T06:19:18.858Z</time></trkpt><trkpt lat="43.5937484" lon="6.8700843"><ele>334.8</ele><time>2026-04-12T06:19:19.836Z</time></trkpt><trkpt lat="43.5937909" lon="6.869967"><ele>330.4</ele><time>2026-04-12T06:19:20.892Z</time></trkpt><trkpt lat="43.5938003" lon="6.8698311"><ele>326.0</ele><time>2026-04-12T06:19:21.91Z</time></trkpt><trkpt lat="43.5937873" lon="6.8696867"><ele>326.0</ele><time>2026-04-12T06:19:22.876Z</time></trkpt><trkpt lat="43.5937642" lon="6.8695461"><ele>326.0</ele><time>2026-04-12T06:19:23.855Z</time></trkpt><trkpt lat="43.5937282" lon="6.8694115"><ele>326.0</ele><time>2026-04-12T06:19:24.848Z</time></trkpt><trkpt lat="43.5936777" lon="6.8692835"><ele>326.0</ele><time>2026-04-12T06:19:25.843Z</time></trkpt><trkpt lat="43.5936035" lon="6.8691886"><ele>326.0</ele><time>2026-04-12T06:19:26.892Z</time></trkpt><trkpt lat="43.5935335" lon="6.8691052"><ele>333.0</ele><time>2026-04-12T06:19:27.877Z</time></trkpt><trkpt lat="43.5934671" lon="6.8690006"><ele>340.0</ele><time>2026-04-12T06:19:28.85Z</time></trkpt><trkpt lat="43.5934388" lon="6.8688684"><ele>347.0</ele><time>2026-04-12T06:19:29.857Z</time></trkpt><trkpt lat="43.5934623" lon="6.8687347"><ele>354.0</ele><time>2026-04-12T06:19:30.847Z</time></trkpt><trkpt lat="43.5935046" lon="6.8685928"><ele>361.0</ele><time>2026-04-12T06:19:31.873Z</time></trkpt><trkpt lat="43.5935347" lon="6.8684444"><ele>359.75</ele><time>2026-04-12T06:19:32.853Z</time></trkpt><trkpt lat="43.5935381" lon="6.868289"><ele>358.5</ele><time>2026-04-12T06:19:33.863Z</time></trkpt><trkpt lat="43.5935272" lon="6.868128"><ele>357.25</ele><time>2026-04-12T06:19:34.887Z</time></trkpt><trkpt lat="43.5935233" lon="6.8679761"><ele>356.0</ele><time>2026-04-12T06:19:35.877Z</time></trkpt><trkpt lat="43.5935314" lon="6.8678171"><ele>356.0</ele><time>2026-04-12T06:19:36.856Z</time></trkpt><trkpt lat="43.5935689" lon="6.8676606"><ele>356.0</ele><time>2026-04-12T06:19:37.856Z</time></trkpt><trkpt lat="43.5936312" lon="6.8675236"><ele>356.0</ele><time>2026-04-12T06:19:38.872Z</time></trkpt><trkpt lat="43.5937155" lon="6.8674064"><ele>356.0</ele><time>2026-04-12T06:19:39.865Z</time></trkpt><trkpt lat="43.5938119" lon="6.8673078"><ele>349.6</ele><time>2026-04-12T06:19:40.833Z</time></trkpt><trkpt lat="43.5938992" lon="6.8672036"><ele>343.20000000000005</ele><time>2026-04-12T06:19:41.857Z</time></trkpt><trkpt lat="43.5939554" lon="6.8670899"><ele>336.79999999999995</ele><time>2026-04-12T06:19:42.876Z</time></trkpt><trkpt lat="43.5939717" lon="6.8669537"><ele>330.4</ele><time>2026-04-12T06:19:43.834Z</time></trkpt><trkpt lat="43.5939398" lon="6.8668141"><ele>324.0</ele><time>2026-04-12T06:19:44.881Z</time></trkpt><trkpt lat="43.59386" lon="6.8667178"><ele>323.79999999999995</ele><time>2026-04-12T06:19:45.842Z</time></trkpt><trkpt lat="43.5937753" lon="6.8666558"><ele>323.59999999999997</ele><time>2026-04-12T06:19:46.856Z</time></trkpt><trkpt lat="43.5936768" lon="6.8666006"><ele>323.4</ele><time>2026-04-12T06:19:47.85Z</time></trkpt><trkpt lat="43.5935843" lon="6.866554"><ele>323.2</ele><time>2026-04-12T06:19:48.855Z</time></trkpt><trkpt lat="43.5934812" lon="6.8664897"><ele>323.0</ele><time>2026-04-12T06:19:49.897Z</time></trkpt><trkpt lat="43.5933852" lon="6.8663955"><ele>327.0</ele><time>2026-04-12T06:19:50.883Z</time></trkpt><trkpt lat="43.5932917" lon="6.8662965"><ele>331.0</ele><time>2026-04-12T06:19:51.886Z</time></trkpt><trkpt lat="43.5931952" lon="6.8662123"><ele>335.0</ele><time>2026-04-12T06:19:52.858Z</time></trkpt><trkpt lat="43.5930825" lon="6.8661563"><ele>339.0</ele><time>2026-04-12T06:19:53.84Z</time></trkpt><trkpt lat="43.5929737" lon="6.866128"><ele>339.0</ele><time>2026-04-12T06:19:54.835Z</time></trkpt><trkpt lat="43.5928612" lon="6.8660865"><ele>339.0</ele><time>2026-04-12T06:19:55.865Z</time></trkpt><trkpt lat="43.5927673" lon="6.8660097"><ele>339.0</ele><time>2026-04-12T06:19:56.867Z</time></trkpt><trkpt lat="43.5927091" lon="6.8658973"><ele>339.0</ele><time>2026-04-12T06:19:57.872Z</time></trkpt><trkpt lat="43.592674" lon="6.8657567"><ele>339.0</ele><time>2026-04-12T06:19:58.879Z</time></trkpt><trkpt lat="43.5926098" lon="6.8656326"><ele>337.6</ele><time>2026-04-12T06:19:59.846Z</time></trkpt><trkpt lat="43.5925354" lon="6.8655259"><ele>336.2</ele><time>2026-04-12T06:20:00.844Z</time></trkpt><trkpt lat="43.5924631" lon="6.8654114"><ele>334.8</ele><time>2026-04-12T06:20:01.87Z</time></trkpt><trkpt lat="43.5924044" lon="6.8652779"><ele>333.40000000000003</ele><time>2026-04-12T06:20:02.873Z</time></trkpt><trkpt lat="43.5923661" lon="6.8651339"><ele>332.0</ele><time>2026-04-12T06:20:03.901Z</time></trkpt><trkpt lat="43.5923398" lon="6.8649815"><ele>328.75</ele><time>2026-04-12T06:20:04.829Z</time></trkpt><trkpt lat="43.592327" lon="6.8648204"><ele>325.5</ele><time>2026-04-12T06:20:05.836Z</time></trkpt><trkpt lat="43.5923139" lon="6.8646489"><ele>322.25</ele><time>2026-04-12T06:20:06.831Z</time></trkpt><trkpt lat="43.5922873" lon="6.8644748"><ele>319.0</ele><time>2026-04-12T06:20:07.862Z</time></trkpt><trkpt lat="43.5922652" lon="6.8643101"><ele>316.5</ele><time>2026-04-12T06:20:08.876Z</time></trkpt><trkpt lat="43.5922312" lon="6.8641451"><ele>314.0</ele><time>2026-04-12T06:20:09.849Z</time></trkpt><trkpt lat="43.5922081" lon="6.8639779"><ele>311.5</ele><time>2026-04-12T06:20:10.851Z</time></trkpt><trkpt lat="43.5921855" lon="6.8638111"><ele>309.0</ele><time>2026-04-12T06:20:11.825Z</time></trkpt><trkpt lat="43.5921721" lon="6.8636332"><ele>309.0</ele><time>2026-04-12T06:20:12.869Z</time></trkpt><trkpt lat="43.5921716" lon="6.8634772"><ele>309.0</ele><time>2026-04-12T06:20:13.861Z</time></trkpt><trkpt lat="43.5921948" lon="6.8632995"><ele>309.0</ele><time>2026-04-12T06:20:14.892Z</time></trkpt><trkpt lat="43.5922195" lon="6.863124"><ele>309.0</ele><time>2026-04-12T06:20:15.887Z</time></trkpt><trkpt lat="43.5922585" lon="6.8629624"><ele>309.75</ele><time>2026-04-12T06:20:16.861Z</time></trkpt><trkpt lat="43.5923053" lon="6.862811"><ele>310.5</ele><time>2026-04-12T06:20:17.871Z</time></trkpt><trkpt lat="43.592372" lon="6.8626777"><ele>311.25</ele><time>2026-04-12T06:20:18.881Z</time></trkpt><trkpt lat="43.5924529" lon="6.8625569"><ele>312.0</ele><time>2026-04-12T06:20:19.886Z</time></trkpt><trkpt lat="43.5925365" lon="6.8624354"><ele>312.0</ele><time>2026-04-12T06:20:20.884Z</time></trkpt><trkpt lat="43.5926045" lon="6.8623098"><ele>312.0</ele><time>2026-04-12T06:20:21.887Z</time></trkpt><trkpt lat="43.5926638" lon="6.8621832"><ele>312.0</ele><time>2026-04-12T06:20:22.854Z</time></trkpt><trkpt lat="43.592735" lon="6.862061"><ele>312.0</ele><time>2026-04-12T06:20:23.846Z</time></trkpt><trkpt lat="43.5928212" lon="6.861952"><ele>309.5</ele><time>2026-04-12T06:20:24.898Z</time></trkpt><trkpt lat="43.5929305" lon="6.8618639"><ele>307.0</ele><time>2026-04-12T06:20:25.859Z</time></trkpt><trkpt lat="43.5930442" lon="6.8617967"><ele>304.5</ele><time>2026-04-12T06:20:26.881Z</time></trkpt><trkpt lat="43.5931556" lon="6.8617305"><ele>302.0</ele><time>2026-04-12T06:20:27.875Z</time></trkpt><trkpt lat="43.5932572" lon="6.861645"><ele>302.0</ele><time>2026-04-12T06:20:28.888Z</time></trkpt><trkpt lat="43.5933528" lon="6.8615357"><ele>302.0</ele><time>2026-04-12T06:20:29.897Z</time></trkpt><trkpt lat="43.5934413" lon="6.8614226"><ele>302.0</ele><time>2026-04-12T06:20:30.871Z</time></trkpt><trkpt lat="43.5935261" lon="6.8613"><ele>302.0</ele><time>2026-04-12T06:20:31.891Z</time></trkpt><trkpt lat="43.5936026" lon="6.861169"><ele>302.0</ele><time>2026-04-12T06:20:32.852Z</time></trkpt><trkpt lat="43.5936713" lon="6.8610332"><ele>302.0</ele><time>2026-04-12T06:20:33.84Z</time></trkpt><trkpt lat="43.5937335" lon="6.8608893"><ele>302.0</ele><time>2026-04-12T06:20:34.872Z</time></trkpt><trkpt lat="43.5938056" lon="6.8607644"><ele>302.0</ele><time>2026-04-12T06:20:35.876Z</time></trkpt><trkpt lat="43.5938967" lon="6.860658"><ele>298.75</ele><time>2026-04-12T06:20:36.879Z</time></trkpt><trkpt lat="43.5939966" lon="6.8605772"><ele>295.5</ele><time>2026-04-12T06:20:37.874Z</time></trkpt><trkpt lat="43.5940946" lon="6.8605021"><ele>292.25</ele><time>2026-04-12T06:20:38.851Z</time></trkpt><trkpt lat="43.5941849" lon="6.8603868"><ele>289.0</ele><time>2026-04-12T06:20:39.867Z</time></trkpt><trkpt lat="43.5942647" lon="6.8602564"><ele>289.0</ele><time>2026-04-12T06:20:40.881Z</time></trkpt><trkpt lat="43.5943447" lon="6.8601336"><ele>289.0</ele><time>2026-04-12T06:20:41.84Z</time></trkpt><trkpt lat="43.5944271" lon="6.8600325"><ele>289.0</ele><time>2026-04-12T06:20:42.875Z</time></trkpt><trkpt lat="43.5945206" lon="6.8599377"><ele>289.0</ele><time>2026-04-12T06:20:43.872Z</time></trkpt><trkpt lat="43.5946197" lon="6.8598557"><ele>288.0</ele><time>2026-04-12T06:20:44.855Z</time></trkpt><trkpt lat="43.5947194" lon="6.8597805"><ele>287.0</ele><time>2026-04-12T06:20:45.839Z</time></trkpt><trkpt lat="43.594816" lon="6.8596926"><ele>286.0</ele><time>2026-04-12T06:20:46.844Z</time></trkpt><trkpt lat="43.5949165" lon="6.8596161"><ele>285.0</ele><time>2026-04-12T06:20:47.85Z</time></trkpt><trkpt lat="43.5950226" lon="6.8595449"><ele>285.0</ele><time>2026-04-12T06:20:48.851Z</time></trkpt><trkpt lat="43.5951311" lon="6.8594681"><ele>285.0</ele><time>2026-04-12T06:20:49.875Z</time></trkpt><trkpt lat="43.5952275" lon="6.8593882"><ele>285.0</ele><time>2026-04-12T06:20:50.879Z</time></trkpt><trkpt lat="43.5953377" lon="6.8593156"><ele>285.0</ele><time>2026-04-12T06:20:51.871Z</time></trkpt><trkpt lat="43.595438" lon="6.8592357"><ele>287.0</ele><time>2026-04-12T06:20:52.865Z</time></trkpt><trkpt lat="43.5955265" lon="6.8591536"><ele>289.0</ele><time>2026-04-12T06:20:53.864Z</time></trkpt><trkpt lat="43.5955986" lon="6.8590637"><ele>291.0</ele><time>2026-04-12T06:20:54.89Z</time></trkpt><trkpt lat="43.5956555" lon="6.8589575"><ele>293.0</ele><time>2026-04-12T06:20:55.854Z</time></trkpt><trkpt lat="43.595698" lon="6.858824"><ele>295.0</ele><time>2026-04-12T06:20:56.886Z</time></trkpt><trkpt lat="43.5957347" lon="6.8586923"><ele>295.0</ele><time>2026-04-12T06:20:57.863Z</time></trkpt><trkpt lat="43.5957874" lon="6.8585657"><ele>295.0</ele><time>2026-04-12T06:20:58.862Z</time></trkpt><trkpt lat="43.5958593" lon="6.8584713"><ele>295.0</ele><time>2026-04-12T06:20:59.889Z</time></trkpt><trkpt lat="43.5959616" lon="6.8584014"><ele>295.0</ele><time>2026-04-12T06:21:00.868Z</time></trkpt><trkpt lat="43.596061" lon="6.8583458"><ele>295.0</ele><time>2026-04-12T06:21:01.842Z</time></trkpt><trkpt lat="43.5961524" lon="6.8582867"><ele>295.8</ele><time>2026-04-12T06:21:02.871Z</time></trkpt><trkpt lat="43.596242" lon="6.8582168"><ele>296.6</ele><time>2026-04-12T06:21:03.846Z</time></trkpt><trkpt lat="43.5963346" lon="6.8581509"><ele>297.4</ele><time>2026-04-12T06:21:04.856Z</time></trkpt><trkpt lat="43.5964298" lon="6.8580954"><ele>298.2</ele><time>2026-04-12T06:21:05.858Z</time></trkpt><trkpt lat="43.5965372" lon="6.8580269"><ele>299.0</ele><time>2026-04-12T06:21:06.859Z</time></trkpt><trkpt lat="43.5966174" lon="6.8579125"><ele>299.0</ele><time>2026-04-12T06:21:07.851Z</time></trkpt><trkpt lat="43.5967018" lon="6.8577981"><ele>299.0</ele><time>2026-04-12T06:21:08.852Z</time></trkpt><trkpt lat="43.5967959" lon="6.8576972"><ele>299.0</ele><time>2026-04-12T06:21:09.859Z</time></trkpt><trkpt lat="43.5969086" lon="6.8576314"><ele>299.0</ele><time>2026-04-12T06:21:10.846Z</time></trkpt><trkpt lat="43.5970226" lon="6.8575776"><ele>296.25</ele><time>2026-04-12T06:21:11.849Z</time></trkpt><trkpt lat="43.5971333" lon="6.8575048"><ele>293.5</ele><time>2026-04-12T06:21:12.856Z</time></trkpt><trkpt lat="43.5972313" lon="6.8574143"><ele>290.75</ele><time>2026-04-12T06:21:13.86Z</time></trkpt><trkpt lat="43.5973291" lon="6.8573161"><ele>288.0</ele><time>2026-04-12T06:21:14.878Z</time></trkpt><trkpt lat="43.5974323" lon="6.8572471"><ele>288.0</ele><time>2026-04-12T06:21:15.838Z</time></trkpt><trkpt lat="43.5975444" lon="6.8572094"><ele>288.0</ele><time>2026-04-12T06:21:16.872Z</time></trkpt><trkpt lat="43.5976691" lon="6.8572179"><ele>288.0</ele><time>2026-04-12T06:21:17.841Z</time></trkpt><trkpt lat="43.5977874" lon="6.8572326"><ele>288.0</ele><time>2026-04-12T06:21:18.851Z</time></trkpt><trkpt lat="43.5979104" lon="6.8572481"><ele>287.2</ele><time>2026-04-12T06:21:19.853Z</time></trkpt><trkpt lat="43.5980261" lon="6.8572247"><ele>286.4</ele><time>2026-04-12T06:21:20.845Z</time></trkpt><trkpt lat="43.5981318" lon="6.8571808"><ele>285.59999999999997</ele><time>2026-04-12T06:21:21.872Z</time></trkpt><trkpt lat="43.5982374" lon="6.8571327"><ele>284.8</ele><time>2026-04-12T06:21:22.852Z</time></trkpt><trkpt lat="43.5983255" lon="6.8570621"><ele>284.0</ele><time>2026-04-12T06:21:23.864Z</time></trkpt><trkpt lat="43.5983957" lon="6.8569482"><ele>284.0</ele><time>2026-04-12T06:21:24.88Z</time></trkpt><trkpt lat="43.598462" lon="6.856854"><ele>284.0</ele><time>2026-04-12T06:21:25.893Z</time></trkpt><trkpt lat="43.5985327" lon="6.856783"><ele>284.0</ele><time>2026-04-12T06:21:26.85Z</time></trkpt><trkpt lat="43.5986042" lon="6.8567365"><ele>284.0</ele><time>2026-04-12T06:21:27.881Z</time></trkpt><trkpt lat="43.5986649" lon="6.856697"><ele>284.0</ele><time>2026-04-12T06:21:28.891Z</time></trkpt><trkpt lat="43.5987197" lon="6.8565669"><ele>284.0</ele><time>2026-04-12T06:21:30.854Z</time></trkpt><trkpt lat="43.5986401" lon="6.856437"><ele>281.6666666666667</ele><time>2026-04-12T06:21:32.859Z</time></trkpt><trkpt lat="43.5985714" lon="6.856456"><ele>279.33333333333337</ele><time>2026-04-12T06:21:33.874Z</time></trkpt><trkpt lat="43.5985077" lon="6.8564997"><ele>277.0</ele><time>2026-04-12T06:21:34.902Z</time></trkpt><trkpt lat="43.5984412" lon="6.8565652"><ele>274.6666666666667</ele><time>2026-04-12T06:21:35.863Z</time></trkpt><trkpt lat="43.5983743" lon="6.8566341"><ele>272.3333333333333</ele><time>2026-04-12T06:21:36.83Z</time></trkpt><trkpt lat="43.5982959" lon="6.8567123"><ele>270.0</ele><time>2026-04-12T06:21:37.873Z</time></trkpt><trkpt lat="43.598219" lon="6.8567766"><ele>268.6</ele><time>2026-04-12T06:21:38.886Z</time></trkpt><trkpt lat="43.5981296" lon="6.8568319"><ele>267.2</ele><time>2026-04-12T06:21:39.825Z</time></trkpt><trkpt lat="43.5980293" lon="6.8568403"><ele>265.8</ele><time>2026-04-12T06:21:40.84Z</time></trkpt><trkpt lat="43.5979271" lon="6.8568296"><ele>264.4</ele><time>2026-04-12T06:21:41.838Z</time></trkpt><trkpt lat="43.5978116" lon="6.856799"><ele>263.0</ele><time>2026-04-12T06:21:42.823Z</time></trkpt><trkpt lat="43.597704" lon="6.8567787"><ele>263.0</ele><time>2026-04-12T06:21:43.843Z</time></trkpt><trkpt lat="43.597594" lon="6.8567448"><ele>263.0</ele><time>2026-04-12T06:21:44.845Z</time></trkpt><trkpt lat="43.5974768" lon="6.8567213"><ele>263.0</ele><time>2026-04-12T06:21:45.873Z</time></trkpt><trkpt lat="43.5973609" lon="6.8566804"><ele>263.0</ele><time>2026-04-12T06:21:46.864Z</time></trkpt><trkpt lat="43.5972613" lon="6.8566438"><ele>263.0</ele><time>2026-04-12T06:21:47.857Z</time></trkpt><trkpt lat="43.5971639" lon="6.8566154"><ele>263.0</ele><time>2026-04-12T06:21:48.842Z</time></trkpt><trkpt lat="43.5970552" lon="6.8566203"><ele>263.0</ele><time>2026-04-12T06:21:49.875Z</time></trkpt><trkpt lat="43.5969548" lon="6.8566572"><ele>263.0</ele><time>2026-04-12T06:21:50.878Z</time></trkpt><trkpt lat="43.5968421" lon="6.8567252"><ele>263.0</ele><time>2026-04-12T06:21:51.861Z</time></trkpt><trkpt lat="43.5967337" lon="6.856802"><ele>266.75</ele><time>2026-04-12T06:21:52.905Z</time></trkpt><trkpt lat="43.5966232" lon="6.8568822"><ele>270.5</ele><time>2026-04-12T06:21:53.871Z</time></trkpt><trkpt lat="43.5965133" lon="6.8569529"><ele>274.25</ele><time>2026-04-12T06:21:54.873Z</time></trkpt><trkpt lat="43.5963937" lon="6.8570264"><ele>278.0</ele><time>2026-04-12T06:21:55.854Z</time></trkpt><trkpt lat="43.5962726" lon="6.8570994"><ele>273.0</ele><time>2026-04-12T06:21:56.888Z</time></trkpt><trkpt lat="43.5961554" lon="6.8571688"><ele>268.0</ele><time>2026-04-12T06:21:57.859Z</time></trkpt><trkpt lat="43.5960473" lon="6.8572353"><ele>263.0</ele><time>2026-04-12T06:21:58.88Z</time></trkpt><trkpt lat="43.5959482" lon="6.8573018"><ele>258.0</ele><time>2026-04-12T06:21:59.843Z</time></trkpt><trkpt lat="43.5958474" lon="6.8573358"><ele>258.0</ele><time>2026-04-12T06:22:00.863Z</time></trkpt><trkpt lat="43.5957476" lon="6.8573329"><ele>258.0</ele><time>2026-04-12T06:22:01.87Z</time></trkpt><trkpt lat="43.5956512" lon="6.8573027"><ele>258.0</ele><time>2026-04-12T06:22:02.826Z</time></trkpt><trkpt lat="43.5955481" lon="6.8572695"><ele>258.0</ele><time>2026-04-12T06:22:03.884Z</time></trkpt><trkpt lat="43.5954496" lon="6.8573271"><ele>258.0</ele><time>2026-04-12T06:22:04.874Z</time></trkpt><trkpt lat="43.5953497" lon="6.8574156"><ele>260.5</ele><time>2026-04-12T06:22:05.857Z</time></trkpt><trkpt lat="43.5952403" lon="6.8574961"><ele>263.0</ele><time>2026-04-12T06:22:06.867Z</time></trkpt><trkpt lat="43.5951359" lon="6.8575751"><ele>265.5</ele><time>2026-04-12T06:22:07.861Z</time></trkpt><trkpt lat="43.5950316" lon="6.857648"><ele>268.0</ele><time>2026-04-12T06:22:08.883Z</time></trkpt><trkpt lat="43.5949424" lon="6.8577266"><ele>268.0</ele><time>2026-04-12T06:22:09.875Z</time></trkpt><trkpt lat="43.5948528" lon="6.8578116"><ele>268.0</ele><time>2026-04-12T06:22:10.889Z</time></trkpt><trkpt lat="43.5947532" lon="6.8578563"><ele>268.0</ele><time>2026-04-12T06:22:11.858Z</time></trkpt><trkpt lat="43.5946478" lon="6.8578745"><ele>268.0</ele><time>2026-04-12T06:22:12.877Z</time></trkpt><trkpt lat="43.5945558" lon="6.8578731"><ele>268.0</ele><time>2026-04-12T06:22:13.914Z</time></trkpt><trkpt lat="43.5944685" lon="6.8578743"><ele>268.3333333333333</ele><time>2026-04-12T06:22:14.832Z</time></trkpt><trkpt lat="43.5943974" lon="6.8578481"><ele>268.66666666666663</ele><time>2026-04-12T06:22:15.823Z</time></trkpt><trkpt lat="43.5943194" lon="6.8577831"><ele>269.0</ele><time>2026-04-12T06:22:16.827Z</time></trkpt><trkpt lat="43.5942572" lon="6.8576651"><ele>269.3333333333333</ele><time>2026-04-12T06:22:17.832Z</time></trkpt><trkpt lat="43.5942229" lon="6.8575547"><ele>269.6666666666667</ele><time>2026-04-12T06:22:18.85Z</time></trkpt><trkpt lat="43.5941875" lon="6.8574544"><ele>270.0</ele><time>2026-04-12T06:22:19.847Z</time></trkpt><trkpt lat="43.5941327" lon="6.8573308"><ele>265.0</ele><time>2026-04-12T06:22:20.849Z</time></trkpt><trkpt lat="43.5940987" lon="6.8571931"><ele>260.0</ele><time>2026-04-12T06:22:21.83Z</time></trkpt><trkpt lat="43.5940538" lon="6.8570547"><ele>255.0</ele><time>2026-04-12T06:22:22.864Z</time></trkpt><trkpt lat="43.5940018" lon="6.8569179"><ele>250.0</ele><time>2026-04-12T06:22:23.83Z</time></trkpt><trkpt lat="43.5939536" lon="6.8567973"><ele>245.0</ele><time>2026-04-12T06:22:24.834Z</time></trkpt><trkpt lat="43.5939025" lon="6.856708"><ele>244.2</ele><time>2026-04-12T06:22:25.862Z</time></trkpt><trkpt lat="43.5938458" lon="6.8566058"><ele>243.4</ele><time>2026-04-12T06:22:26.864Z</time></trkpt><trkpt lat="43.593764" lon="6.8565255"><ele>242.60000000000002</ele><time>2026-04-12T06:22:27.874Z</time></trkpt><trkpt lat="43.5936794" lon="6.8564697"><ele>241.8</ele><time>2026-04-12T06:22:28.857Z</time></trkpt><trkpt lat="43.5935861" lon="6.8564361"><ele>241.0</ele><time>2026-04-12T06:22:29.861Z</time></trkpt><trkpt lat="43.5935006" lon="6.8564215"><ele>240.99999999999997</ele><time>2026-04-12T06:22:30.856Z</time></trkpt><trkpt lat="43.5934262" lon="6.856401"><ele>241.0</ele><time>2026-04-12T06:22:31.847Z</time></trkpt><trkpt lat="43.5933593" lon="6.8563824"><ele>241.0</ele><time>2026-04-12T06:22:32.877Z</time></trkpt><trkpt lat="43.5932938" lon="6.856354"><ele>241.0</ele><time>2026-04-12T06:22:33.88Z</time></trkpt><trkpt lat="43.5932194" lon="6.8562427"><ele>240.99999999999997</ele><time>2026-04-12T06:22:35.851Z</time></trkpt><trkpt lat="43.5932713" lon="6.8561585"><ele>241.0</ele><time>2026-04-12T06:22:38.864Z</time></trkpt><trkpt lat="43.5933602" lon="6.8562402"><ele>240.99999999999997</ele><time>2026-04-12T06:22:40.858Z</time></trkpt><trkpt lat="43.5934704" lon="6.8563106"><ele>241.0</ele><time>2026-04-12T06:22:42.847Z</time></trkpt><trkpt lat="43.5935491" lon="6.8563122"><ele>241.0</ele><time>2026-04-12T06:22:43.862Z</time></trkpt><trkpt lat="43.5936293" lon="6.8563074"><ele>241.0</ele><time>2026-04-12T06:22:44.835Z</time></trkpt><trkpt lat="43.593706" lon="6.8563081"><ele>240.99999999999997</ele><time>2026-04-12T06:22:45.844Z</time></trkpt><trkpt lat="43.5937841" lon="6.8563239"><ele>241.0</ele><time>2026-04-12T06:22:46.887Z</time></trkpt><trkpt lat="43.5938649" lon="6.8563472"><ele>241.66666666666666</ele><time>2026-04-12T06:22:47.862Z</time></trkpt><trkpt lat="43.5939399" lon="6.8563866"><ele>242.33333333333331</ele><time>2026-04-12T06:22:48.831Z</time></trkpt><trkpt lat="43.5940033" lon="6.8564488"><ele>243.0</ele><time>2026-04-12T06:22:49.862Z</time></trkpt><trkpt lat="43.5940643" lon="6.8565379"><ele>243.66666666666669</ele><time>2026-04-12T06:22:50.851Z</time></trkpt><trkpt lat="43.5941318" lon="6.8566265"><ele>244.33333333333334</ele><time>2026-04-12T06:22:51.83Z</time></trkpt><trkpt lat="43.5941895" lon="6.8567101"><ele>245.0</ele><time>2026-04-12T06:22:52.877Z</time></trkpt><trkpt lat="43.5942456" lon="6.8568049"><ele>245.00000000000003</ele><time>2026-04-12T06:22:53.877Z</time></trkpt><trkpt lat="43.5942862" lon="6.856908"><ele>245.0</ele><time>2026-04-12T06:22:54.871Z</time></trkpt><trkpt lat="43.5943131" lon="6.8570119"><ele>245.0</ele><time>2026-04-12T06:22:55.881Z</time></trkpt><trkpt lat="43.5943436" lon="6.8571151"><ele>245.0</ele><time>2026-04-12T06:22:56.87Z</time></trkpt><trkpt lat="43.5943857" lon="6.85721"><ele>245.00000000000003</ele><time>2026-04-12T06:22:57.876Z</time></trkpt><trkpt lat="43.5944385" lon="6.8572827"><ele>245.0</ele><time>2026-04-12T06:22:58.858Z</time></trkpt><trkpt lat="43.5945054" lon="6.857317"><ele>243.8</ele><time>2026-04-12T06:22:59.887Z</time></trkpt><trkpt lat="43.5945866" lon="6.8573127"><ele>242.6</ele><time>2026-04-12T06:23:00.886Z</time></trkpt><trkpt lat="43.5946778" lon="6.8572701"><ele>241.39999999999998</ele><time>2026-04-12T06:23:01.887Z</time></trkpt><trkpt lat="43.5947518" lon="6.857195"><ele>240.2</ele><time>2026-04-12T06:23:02.867Z</time></trkpt><trkpt lat="43.5948212" lon="6.8570979"><ele>239.0</ele><time>2026-04-12T06:23:03.881Z</time></trkpt><trkpt lat="43.5948964" lon="6.8570026"><ele>239.0</ele><time>2026-04-12T06:23:04.878Z</time></trkpt><trkpt lat="43.5949702" lon="6.8569153"><ele>238.99999999999997</ele><time>2026-04-12T06:23:05.883Z</time></trkpt><trkpt lat="43.5950385" lon="6.8568237"><ele>238.99999999999997</ele><time>2026-04-12T06:23:06.868Z</time></trkpt><trkpt lat="43.5951137" lon="6.8567205"><ele>239.0</ele><time>2026-04-12T06:23:07.879Z</time></trkpt><trkpt lat="43.5951939" lon="6.8566109"><ele>239.0</ele><time>2026-04-12T06:23:08.851Z</time></trkpt><trkpt lat="43.5952814" lon="6.8565224"><ele>235.75</ele><time>2026-04-12T06:23:09.865Z</time></trkpt><trkpt lat="43.5953877" lon="6.8564515"><ele>232.5</ele><time>2026-04-12T06:23:10.883Z</time></trkpt><trkpt lat="43.595505" lon="6.8564071"><ele>229.25</ele><time>2026-04-12T06:23:11.879Z</time></trkpt><trkpt lat="43.5956201" lon="6.8563625"><ele>226.0</ele><time>2026-04-12T06:23:12.864Z</time></trkpt><trkpt lat="43.5957358" lon="6.8563008"><ele>226.0</ele><time>2026-04-12T06:23:13.871Z</time></trkpt><trkpt lat="43.5958438" lon="6.8562287"><ele>226.0</ele><time>2026-04-12T06:23:14.863Z</time></trkpt><trkpt lat="43.5959521" lon="6.8561568"><ele>226.0</ele><time>2026-04-12T06:23:15.862Z</time></trkpt><trkpt lat="43.5960559" lon="6.8560826"><ele>226.0</ele><time>2026-04-12T06:23:16.889Z</time></trkpt><trkpt lat="43.5961426" lon="6.8559847"><ele>224.4</ele><time>2026-04-12T06:23:17.856Z</time></trkpt><trkpt lat="43.5962183" lon="6.8558759"><ele>222.8</ele><time>2026-04-12T06:23:18.889Z</time></trkpt><trkpt lat="43.5962927" lon="6.8557506"><ele>221.20000000000002</ele><time>2026-04-12T06:23:19.888Z</time></trkpt><trkpt lat="43.5963667" lon="6.85564"><ele>219.60000000000002</ele><time>2026-04-12T06:23:20.854Z</time></trkpt><trkpt lat="43.5964432" lon="6.8555325"><ele>218.0</ele><time>2026-04-12T06:23:21.854Z</time></trkpt><trkpt lat="43.5965146" lon="6.8554314"><ele>218.0</ele><time>2026-04-12T06:23:22.885Z</time></trkpt><trkpt lat="43.596595" lon="6.8553466"><ele>218.0</ele><time>2026-04-12T06:23:23.898Z</time></trkpt><trkpt lat="43.5966874" lon="6.8552876"><ele>218.0</ele><time>2026-04-12T06:23:24.88Z</time></trkpt><trkpt lat="43.5967959" lon="6.8552532"><ele>218.0</ele><time>2026-04-12T06:23:25.882Z</time></trkpt><trkpt lat="43.5968888" lon="6.8552602"><ele>218.0</ele><time>2026-04-12T06:23:26.873Z</time></trkpt><trkpt lat="43.5969736" lon="6.8552511"><ele>219.2</ele><time>2026-04-12T06:23:27.86Z</time></trkpt><trkpt lat="43.597039" lon="6.855178"><ele>220.4</ele><time>2026-04-12T06:23:28.865Z</time></trkpt><trkpt lat="43.5970738" lon="6.8550763"><ele>221.59999999999997</ele><time>2026-04-12T06:23:29.883Z</time></trkpt><trkpt lat="43.5970865" lon="6.8549284"><ele>222.79999999999998</ele><time>2026-04-12T06:23:30.862Z</time></trkpt><trkpt lat="43.5970961" lon="6.8547752"><ele>224.0</ele><time>2026-04-12T06:23:31.886Z</time></trkpt><trkpt lat="43.5970935" lon="6.8546368"><ele>224.0</ele><time>2026-04-12T06:23:32.892Z</time></trkpt><trkpt lat="43.5970958" lon="6.8545077"><ele>223.99999999999997</ele><time>2026-04-12T06:23:33.856Z</time></trkpt><trkpt lat="43.5971064" lon="6.8543653"><ele>223.99999999999997</ele><time>2026-04-12T06:23:34.876Z</time></trkpt><trkpt lat="43.5971103" lon="6.8542235"><ele>224.0</ele><time>2026-04-12T06:23:35.855Z</time></trkpt><trkpt lat="43.5971196" lon="6.8540779"><ele>224.0</ele><time>2026-04-12T06:23:36.853Z</time></trkpt><trkpt lat="43.5971231" lon="6.8539235"><ele>222.6</ele><time>2026-04-12T06:23:37.876Z</time></trkpt><trkpt lat="43.5971229" lon="6.8537723"><ele>221.2</ele><time>2026-04-12T06:23:38.866Z</time></trkpt><trkpt lat="43.5971201" lon="6.8536321"><ele>219.79999999999998</ele><time>2026-04-12T06:23:39.863Z</time></trkpt><trkpt lat="43.5971253" lon="6.8534927"><ele>218.39999999999998</ele><time>2026-04-12T06:23:40.895Z</time></trkpt><trkpt lat="43.5971559" lon="6.8533659"><ele>217.0</ele><time>2026-04-12T06:23:41.859Z</time></trkpt><trkpt lat="43.5972082" lon="6.8532439"><ele>213.0</ele><time>2026-04-12T06:23:42.876Z</time></trkpt><trkpt lat="43.5972862" lon="6.8531455"><ele>209.0</ele><time>2026-04-12T06:23:43.873Z</time></trkpt><trkpt lat="43.5973819" lon="6.8530739"><ele>205.0</ele><time>2026-04-12T06:23:44.865Z</time></trkpt><trkpt lat="43.5974787" lon="6.8530092"><ele>201.0</ele><time>2026-04-12T06:23:45.874Z</time></trkpt><trkpt lat="43.5975846" lon="6.8529452"><ele>197.0</ele><time>2026-04-12T06:23:46.86Z</time></trkpt><trkpt lat="43.5976853" lon="6.8528839"><ele>197.0</ele><time>2026-04-12T06:23:47.876Z</time></trkpt><trkpt lat="43.5977725" lon="6.8528007"><ele>197.0</ele><time>2026-04-12T06:23:48.85Z</time></trkpt><trkpt lat="43.5978311" lon="6.8526712"><ele>197.0</ele><time>2026-04-12T06:23:49.889Z</time></trkpt><trkpt lat="43.5978736" lon="6.8525203"><ele>197.0</ele><time>2026-04-12T06:23:50.872Z</time></trkpt><trkpt lat="43.5979349" lon="6.8523788"><ele>197.6</ele><time>2026-04-12T06:23:51.871Z</time></trkpt><trkpt lat="43.5980159" lon="6.8522594"><ele>198.2</ele><time>2026-04-12T06:23:52.865Z</time></trkpt><trkpt lat="43.5981093" lon="6.8521737"><ele>198.8</ele><time>2026-04-12T06:23:53.842Z</time></trkpt><trkpt lat="43.5981965" lon="6.8521141"><ele>199.4</ele><time>2026-04-12T06:23:54.862Z</time></trkpt><trkpt lat="43.5982684" lon="6.8520588"><ele>200.0</ele><time>2026-04-12T06:23:55.873Z</time></trkpt><trkpt lat="43.5983122" lon="6.8519829"><ele>200.0</ele><time>2026-04-12T06:23:56.877Z</time></trkpt><trkpt lat="43.5983206" lon="6.8518741"><ele>200.0</ele><time>2026-04-12T06:23:57.893Z</time></trkpt><trkpt lat="43.5982845" lon="6.8517463"><ele>200.0</ele><time>2026-04-12T06:23:58.879Z</time></trkpt><trkpt lat="43.5982338" lon="6.8516495"><ele>200.0</ele><time>2026-04-12T06:23:59.874Z</time></trkpt><trkpt lat="43.5981674" lon="6.8515517"><ele>200.0</ele><time>2026-04-12T06:24:00.883Z</time></trkpt><trkpt lat="43.5981021" lon="6.8514463"><ele>197.8</ele><time>2026-04-12T06:24:01.879Z</time></trkpt><trkpt lat="43.5980516" lon="6.8513303"><ele>195.6</ele><time>2026-04-12T06:24:02.892Z</time></trkpt><trkpt lat="43.5979827" lon="6.8512185"><ele>193.39999999999998</ele><time>2026-04-12T06:24:03.895Z</time></trkpt><trkpt lat="43.5979032" lon="6.8511107"><ele>191.2</ele><time>2026-04-12T06:24:04.87Z</time></trkpt><trkpt lat="43.5978188" lon="6.8510101"><ele>189.0</ele><time>2026-04-12T06:24:05.887Z</time></trkpt><trkpt lat="43.5977385" lon="6.850913"><ele>183.79999999999998</ele><time>2026-04-12T06:24:06.896Z</time></trkpt><trkpt lat="43.5976563" lon="6.8508063"><ele>178.6</ele><time>2026-04-12T06:24:07.888Z</time></trkpt><trkpt lat="43.5975781" lon="6.8507086"><ele>173.4</ele><time>2026-04-12T06:24:08.897Z</time></trkpt><trkpt lat="43.5975148" lon="6.8506062"><ele>168.2</ele><time>2026-04-12T06:24:09.871Z</time></trkpt><trkpt lat="43.5974536" lon="6.8504914"><ele>163.0</ele><time>2026-04-12T06:24:10.886Z</time></trkpt><trkpt lat="43.5974053" lon="6.8503465"><ele>163.0</ele><time>2026-04-12T06:24:11.856Z</time></trkpt><trkpt lat="43.5973753" lon="6.8501941"><ele>163.0</ele><time>2026-04-12T06:24:12.892Z</time></trkpt><trkpt lat="43.5973674" lon="6.8500361"><ele>163.0</ele><time>2026-04-12T06:24:13.873Z</time></trkpt><trkpt lat="43.5973812" lon="6.8498779"><ele>163.0</ele><time>2026-04-12T06:24:14.871Z</time></trkpt><trkpt lat="43.5974077" lon="6.8497182"><ele>164.25</ele><time>2026-04-12T06:24:15.898Z</time></trkpt><trkpt lat="43.5974548" lon="6.8495718"><ele>165.5</ele><time>2026-04-12T06:24:16.871Z</time></trkpt><trkpt lat="43.597518" lon="6.8494292"><ele>166.75</ele><time>2026-04-12T06:24:17.876Z</time></trkpt><trkpt lat="43.5975947" lon="6.849294"><ele>168.0</ele><time>2026-04-12T06:24:18.886Z</time></trkpt><trkpt lat="43.5976723" lon="6.8491642"><ele>169.0</ele><time>2026-04-12T06:24:19.893Z</time></trkpt><trkpt lat="43.5977612" lon="6.8490497"><ele>170.0</ele><time>2026-04-12T06:24:20.857Z</time></trkpt><trkpt lat="43.5978651" lon="6.8489569"><ele>171.0</ele><time>2026-04-12T06:24:21.882Z</time></trkpt><trkpt lat="43.5979769" lon="6.8488938"><ele>172.0</ele><time>2026-04-12T06:24:22.874Z</time></trkpt><trkpt lat="43.5980911" lon="6.8488443"><ele>172.0</ele><time>2026-04-12T06:24:23.861Z</time></trkpt><trkpt lat="43.5981972" lon="6.8488045"><ele>172.0</ele><time>2026-04-12T06:24:24.895Z</time></trkpt><trkpt lat="43.5982911" lon="6.8487541"><ele>172.0</ele><time>2026-04-12T06:24:25.884Z</time></trkpt><trkpt lat="43.5983639" lon="6.8486408"><ele>172.0</ele><time>2026-04-12T06:24:26.883Z</time></trkpt><trkpt lat="43.5984159" lon="6.8484987"><ele>172.0</ele><time>2026-04-12T06:24:27.858Z</time></trkpt><trkpt lat="43.5984329" lon="6.8483535"><ele>168.0</ele><time>2026-04-12T06:24:28.872Z</time></trkpt><trkpt lat="43.5984462" lon="6.8482105"><ele>164.0</ele><time>2026-04-12T06:24:29.879Z</time></trkpt><trkpt lat="43.598453" lon="6.8480603"><ele>160.0</ele><time>2026-04-12T06:24:30.894Z</time></trkpt><trkpt lat="43.5984717" lon="6.8479116"><ele>156.0</ele><time>2026-04-12T06:24:31.891Z</time></trkpt><trkpt lat="43.5984823" lon="6.8477525"><ele>152.0</ele><time>2026-04-12T06:24:32.869Z</time></trkpt><trkpt lat="43.5984922" lon="6.8475905"><ele>149.75</ele><time>2026-04-12T06:24:33.84Z</time></trkpt><trkpt lat="43.5985003" lon="6.8474224"><ele>147.5</ele><time>2026-04-12T06:24:34.837Z</time></trkpt><trkpt lat="43.5985063" lon="6.8472588"><ele>145.25</ele><time>2026-04-12T06:24:35.869Z</time></trkpt><trkpt lat="43.598513" lon="6.8470876"><ele>143.0</ele><time>2026-04-12T06:24:36.862Z</time></trkpt><trkpt lat="43.5985213" lon="6.846929"><ele>142.20000000000002</ele><time>2026-04-12T06:24:37.856Z</time></trkpt><trkpt lat="43.598531" lon="6.8467895"><ele>141.4</ele><time>2026-04-12T06:24:38.866Z</time></trkpt><trkpt lat="43.5985507" lon="6.8466574"><ele>140.60000000000002</ele><time>2026-04-12T06:24:39.864Z</time></trkpt><trkpt lat="43.5986076" lon="6.8465488"><ele>139.8</ele><time>2026-04-12T06:24:40.878Z</time></trkpt><trkpt lat="43.5986962" lon="6.8464688"><ele>139.0</ele><time>2026-04-12T06:24:41.828Z</time></trkpt><trkpt lat="43.5988132" lon="6.8464406"><ele>139.0</ele><time>2026-04-12T06:24:42.848Z</time></trkpt><trkpt lat="43.5989208" lon="6.8464481"><ele>139.0</ele><time>2026-04-12T06:24:43.872Z</time></trkpt><trkpt lat="43.5990228" lon="6.8464744"><ele>139.0</ele><time>2026-04-12T06:24:44.847Z</time></trkpt><trkpt lat="43.5991052" lon="6.8465434"><ele>139.0</ele><time>2026-04-12T06:24:45.865Z</time></trkpt><trkpt lat="43.599159" lon="6.8466325"><ele>139.0</ele><time>2026-04-12T06:24:46.863Z</time></trkpt><trkpt lat="43.5991773" lon="6.8467541"><ele>142.4</ele><time>2026-04-12T06:24:47.879Z</time></trkpt><trkpt lat="43.5991776" lon="6.8468835"><ele>145.8</ele><time>2026-04-12T06:24:48.846Z</time></trkpt><trkpt lat="43.5992112" lon="6.8470084"><ele>149.2</ele><time>2026-04-12T06:24:49.873Z</time></trkpt><trkpt lat="43.5992788" lon="6.8470992"><ele>152.6</ele><time>2026-04-12T06:24:50.873Z</time></trkpt><trkpt lat="43.5993715" lon="6.8471341"><ele>156.0</ele><time>2026-04-12T06:24:51.887Z</time></trkpt><trkpt lat="43.5994705" lon="6.84712"><ele>158.0</ele><time>2026-04-12T06:24:52.874Z</time></trkpt><trkpt lat="43.5995553" lon="6.8470627"><ele>160.0</ele><time>2026-04-12T06:24:53.881Z</time></trkpt><trkpt lat="43.5996333" lon="6.8469993"><ele>162.0</ele><time>2026-04-12T06:24:54.869Z</time></trkpt><trkpt lat="43.5997095" lon="6.8469253"><ele>164.0</ele><time>2026-04-12T06:24:55.867Z</time></trkpt><trkpt lat="43.5997967" lon="6.8468541"><ele>166.0</ele><time>2026-04-12T06:24:56.865Z</time></trkpt><trkpt lat="43.5998874" lon="6.8467694"><ele>160.60000000000002</ele><time>2026-04-12T06:24:57.829Z</time></trkpt><trkpt lat="43.59998" lon="6.846699"><ele>155.20000000000002</ele><time>2026-04-12T06:24:58.877Z</time></trkpt><trkpt lat="43.6000749" lon="6.8466259"><ele>149.8</ele><time>2026-04-12T06:24:59.871Z</time></trkpt><trkpt lat="43.6001758" lon="6.8465624"><ele>144.4</ele><time>2026-04-12T06:25:00.853Z</time></trkpt><trkpt lat="43.6002812" lon="6.8465175"><ele>139.0</ele><time>2026-04-12T06:25:01.874Z</time></trkpt><trkpt lat="43.6004031" lon="6.8464911"><ele>139.0</ele><time>2026-04-12T06:25:02.875Z</time></trkpt><trkpt lat="43.6005191" lon="6.8464769"><ele>139.0</ele><time>2026-04-12T06:25:03.865Z</time></trkpt><trkpt lat="43.6006416" lon="6.8464651"><ele>139.0</ele><time>2026-04-12T06:25:04.879Z</time></trkpt><trkpt lat="43.600762" lon="6.846441"><ele>139.0</ele><time>2026-04-12T06:25:05.866Z</time></trkpt><trkpt lat="43.6008944" lon="6.8464108"><ele>139.0</ele><time>2026-04-12T06:25:06.885Z</time></trkpt><trkpt lat="43.6010205" lon="6.8463705"><ele>139.0</ele><time>2026-04-12T06:25:07.869Z</time></trkpt><trkpt lat="43.6011311" lon="6.8463056"><ele>139.0</ele><time>2026-04-12T06:25:08.897Z</time></trkpt><trkpt lat="43.6012323" lon="6.8462336"><ele>139.0</ele><time>2026-04-12T06:25:09.872Z</time></trkpt><trkpt lat="43.6013329" lon="6.8461594"><ele>139.0</ele><time>2026-04-12T06:25:10.865Z</time></trkpt><trkpt lat="43.6014305" lon="6.8460924"><ele>139.0</ele><time>2026-04-12T06:25:11.866Z</time></trkpt><trkpt lat="43.6015187" lon="6.8460151"><ele>139.0</ele><time>2026-04-12T06:25:12.874Z</time></trkpt><trkpt lat="43.6016075" lon="6.845932"><ele>139.0</ele><time>2026-04-12T06:25:13.882Z</time></trkpt><trkpt lat="43.6016907" lon="6.8458383"><ele>139.0</ele><time>2026-04-12T06:25:14.844Z</time></trkpt><trkpt lat="43.6017585" lon="6.8457124"><ele>135.6</ele><time>2026-04-12T06:25:15.872Z</time></trkpt><trkpt lat="43.6018072" lon="6.8455739"><ele>132.2</ele><time>2026-04-12T06:25:16.863Z</time></trkpt><trkpt lat="43.6018544" lon="6.8454341"><ele>128.79999999999998</ele><time>2026-04-12T06:25:17.873Z</time></trkpt><trkpt lat="43.6018889" lon="6.8452947"><ele>125.39999999999999</ele><time>2026-04-12T06:25:18.853Z</time></trkpt><trkpt lat="43.6019225" lon="6.845169"><ele>122.0</ele><time>2026-04-12T06:25:19.872Z</time></trkpt><trkpt lat="43.6019426" lon="6.8450288"><ele>118.39999999999999</ele><time>2026-04-12T06:25:20.87Z</time></trkpt><trkpt lat="43.6019526" lon="6.8448839"><ele>114.79999999999998</ele><time>2026-04-12T06:25:21.862Z</time></trkpt><trkpt lat="43.6019501" lon="6.8447332"><ele>111.2</ele><time>2026-04-12T06:25:22.885Z</time></trkpt><trkpt lat="43.601937" lon="6.84458"><ele>107.6</ele><time>2026-04-12T06:25:23.883Z</time></trkpt><trkpt lat="43.6019251" lon="6.8444236"><ele>104.0</ele><time>2026-04-12T06:25:24.882Z</time></trkpt><trkpt lat="43.6019129" lon="6.8442632"><ele>103.75</ele><time>2026-04-12T06:25:25.849Z</time></trkpt><trkpt lat="43.6019013" lon="6.844101"><ele>103.5</ele><time>2026-04-12T06:25:26.887Z</time></trkpt><trkpt lat="43.6018944" lon="6.8439404"><ele>103.25</ele><time>2026-04-12T06:25:27.873Z</time></trkpt><trkpt lat="43.6018813" lon="6.8437695"><ele>103.0</ele><time>2026-04-12T06:25:28.891Z</time></trkpt><trkpt lat="43.6018664" lon="6.8436062"><ele>102.80000000000001</ele><time>2026-04-12T06:25:29.868Z</time></trkpt><trkpt lat="43.6018463" lon="6.8434469"><ele>102.6</ele><time>2026-04-12T06:25:30.883Z</time></trkpt><trkpt lat="43.6018225" lon="6.8433005"><ele>102.4</ele><time>2026-04-12T06:25:31.891Z</time></trkpt><trkpt lat="43.6017985" lon="6.843172"><ele>102.19999999999999</ele><time>2026-04-12T06:25:32.846Z</time></trkpt><trkpt lat="43.6017748" lon="6.8430575"><ele>102.0</ele><time>2026-04-12T06:25:33.892Z</time></trkpt><trkpt lat="43.6017556" lon="6.8429471"><ele>102.0</ele><time>2026-04-12T06:25:34.877Z</time></trkpt><trkpt lat="43.6017458" lon="6.8428428"><ele>102.0</ele><time>2026-04-12T06:25:35.877Z</time></trkpt><trkpt lat="43.6017603" lon="6.8427438"><ele>102.0</ele><time>2026-04-12T06:25:36.866Z</time></trkpt><trkpt lat="43.6018074" lon="6.8426611"><ele>102.0</ele><time>2026-04-12T06:25:37.876Z</time></trkpt><trkpt lat="43.60188" lon="6.8425981"><ele>102.0</ele><time>2026-04-12T06:25:38.872Z</time></trkpt><trkpt lat="43.6019578" lon="6.8425746"><ele>102.0</ele><time>2026-04-12T06:25:39.869Z</time></trkpt><trkpt lat="43.6020514" lon="6.8425441"><ele>102.39999999999999</ele><time>2026-04-12T06:25:40.881Z</time></trkpt><trkpt lat="43.6021481" lon="6.8425148"><ele>102.8</ele><time>2026-04-12T06:25:41.845Z</time></trkpt><trkpt lat="43.6022471" lon="6.8424866"><ele>103.2</ele><time>2026-04-12T06:25:42.87Z</time></trkpt><trkpt lat="43.6023441" lon="6.8424522"><ele>103.6</ele><time>2026-04-12T06:25:43.874Z</time></trkpt><trkpt lat="43.6024433" lon="6.8424236"><ele>104.0</ele><time>2026-04-12T06:25:44.844Z</time></trkpt><trkpt lat="43.6025456" lon="6.8423916"><ele>104.0</ele><time>2026-04-12T06:25:45.882Z</time></trkpt><trkpt lat="43.6026553" lon="6.8423716"><ele>104.0</ele><time>2026-04-12T06:25:46.833Z</time></trkpt><trkpt lat="43.6027694" lon="6.8423583"><ele>104.0</ele><time>2026-04-12T06:25:47.92Z</time></trkpt><trkpt lat="43.6028825" lon="6.8423539"><ele>104.0</ele><time>2026-04-12T06:25:48.853Z</time></trkpt><trkpt lat="43.6029962" lon="6.8423492"><ele>103.25</ele><time>2026-04-12T06:25:49.898Z</time></trkpt><trkpt lat="43.6031099" lon="6.8423378"><ele>102.5</ele><time>2026-04-12T06:25:50.841Z</time></trkpt><trkpt lat="43.6032268" lon="6.8423313"><ele>101.75</ele><time>2026-04-12T06:25:51.854Z</time></trkpt><trkpt lat="43.6033418" lon="6.8423315"><ele>101.0</ele><time>2026-04-12T06:25:52.883Z</time></trkpt><trkpt lat="43.6034598" lon="6.8423315"><ele>101.0</ele><time>2026-04-12T06:25:53.893Z</time></trkpt><trkpt lat="43.6035803" lon="6.8423364"><ele>101.0</ele><time>2026-04-12T06:25:54.862Z</time></trkpt><trkpt lat="43.6037085" lon="6.842347"><ele>101.0</ele><time>2026-04-12T06:25:55.886Z</time></trkpt><trkpt lat="43.6038324" lon="6.8423601"><ele>101.0</ele><time>2026-04-12T06:25:56.861Z</time></trkpt><trkpt lat="43.6039556" lon="6.8423805"><ele>98.0</ele><time>2026-04-12T06:25:57.856Z</time></trkpt><trkpt lat="43.6040827" lon="6.8423987"><ele>95.0</ele><time>2026-04-12T06:25:58.868Z</time></trkpt><trkpt lat="43.6041976" lon="6.8424231"><ele>92.0</ele><time>2026-04-12T06:25:59.892Z</time></trkpt><trkpt lat="43.6043011" lon="6.8424537"><ele>89.0</ele><time>2026-04-12T06:26:00.878Z</time></trkpt><trkpt lat="43.6043992" lon="6.8424973"><ele>89.0</ele><time>2026-04-12T06:26:01.881Z</time></trkpt><trkpt lat="43.6044891" lon="6.8425753"><ele>89.0</ele><time>2026-04-12T06:26:02.862Z</time></trkpt><trkpt lat="43.6045572" lon="6.84268"><ele>89.0</ele><time>2026-04-12T06:26:03.872Z</time></trkpt><trkpt lat="43.6045924" lon="6.8427953"><ele>89.0</ele><time>2026-04-12T06:26:04.869Z</time></trkpt><trkpt lat="43.6045935" lon="6.8429244"><ele>89.0</ele><time>2026-04-12T06:26:05.861Z</time></trkpt><trkpt lat="43.604587" lon="6.8430592"><ele>88.2</ele><time>2026-04-12T06:26:06.895Z</time></trkpt><trkpt lat="43.604598" lon="6.8432026"><ele>87.4</ele><time>2026-04-12T06:26:07.861Z</time></trkpt><trkpt lat="43.604634" lon="6.8433391"><ele>86.6</ele><time>2026-04-12T06:26:08.851Z</time></trkpt><trkpt lat="43.6046963" lon="6.8434598"><ele>85.8</ele><time>2026-04-12T06:26:09.895Z</time></trkpt><trkpt lat="43.6047585" lon="6.8435882"><ele>85.0</ele><time>2026-04-12T06:26:10.865Z</time></trkpt><trkpt lat="43.6048363" lon="6.8437005"><ele>85.0</ele><time>2026-04-12T06:26:11.901Z</time></trkpt><trkpt lat="43.6049068" lon="6.8438187"><ele>85.0</ele><time>2026-04-12T06:26:12.873Z</time></trkpt><trkpt lat="43.6049648" lon="6.8439495"><ele>85.0</ele><time>2026-04-12T06:26:13.88Z</time></trkpt><trkpt lat="43.6050165" lon="6.8440912"><ele>85.0</ele><time>2026-04-12T06:26:14.883Z</time></trkpt><trkpt lat="43.6050646" lon="6.8442301"><ele>85.0</ele><time>2026-04-12T06:26:15.851Z</time></trkpt><trkpt lat="43.6051158" lon="6.8443512"><ele>84.66666666666666</ele><time>2026-04-12T06:26:16.883Z</time></trkpt><trkpt lat="43.6051612" lon="6.8444527"><ele>84.33333333333333</ele><time>2026-04-12T06:26:17.892Z</time></trkpt><trkpt lat="43.6052257" lon="6.8445202"><ele>84.0</ele><time>2026-04-12T06:26:18.885Z</time></trkpt><trkpt lat="43.6053006" lon="6.8445465"><ele>83.66666666666667</ele><time>2026-04-12T06:26:19.851Z</time></trkpt><trkpt lat="43.6053848" lon="6.8445396"><ele>83.33333333333334</ele><time>2026-04-12T06:26:20.868Z</time></trkpt><trkpt lat="43.6054576" lon="6.8444978"><ele>83.0</ele><time>2026-04-12T06:26:21.866Z</time></trkpt><trkpt lat="43.6055254" lon="6.8444406"><ele>83.0</ele><time>2026-04-12T06:26:22.863Z</time></trkpt><trkpt lat="43.605587" lon="6.8443917"><ele>83.0</ele><time>2026-04-12T06:26:23.883Z</time></trkpt><trkpt lat="43.6056566" lon="6.8443322"><ele>83.0</ele><time>2026-04-12T06:26:24.824Z</time></trkpt><trkpt lat="43.6057375" lon="6.8442947"><ele>83.0</ele><time>2026-04-12T06:26:25.871Z</time></trkpt><trkpt lat="43.6058189" lon="6.8442899"><ele>83.0</ele><time>2026-04-12T06:26:26.882Z</time></trkpt><trkpt lat="43.6058914" lon="6.8443212"><ele>83.0</ele><time>2026-04-12T06:26:27.855Z</time></trkpt><trkpt lat="43.6059552" lon="6.8443796"><ele>83.0</ele><time>2026-04-12T06:26:28.882Z</time></trkpt><trkpt lat="43.6060176" lon="6.8444491"><ele>83.0</ele><time>2026-04-12T06:26:29.853Z</time></trkpt><trkpt lat="43.6060939" lon="6.8445147"><ele>83.0</ele><time>2026-04-12T06:26:30.851Z</time></trkpt><trkpt lat="43.6061693" lon="6.8445777"><ele>83.0</ele><time>2026-04-12T06:26:31.878Z</time></trkpt><trkpt lat="43.6062571" lon="6.8446464"><ele>83.0</ele><time>2026-04-12T06:26:32.888Z</time></trkpt><trkpt lat="43.6063457" lon="6.8447247"><ele>82.80000000000001</ele><time>2026-04-12T06:26:33.857Z</time></trkpt><trkpt lat="43.6064294" lon="6.8448019"><ele>82.6</ele><time>2026-04-12T06:26:34.867Z</time></trkpt><trkpt lat="43.606513" lon="6.8448786"><ele>82.4</ele><time>2026-04-12T06:26:35.888Z</time></trkpt><trkpt lat="43.6065961" lon="6.844956"><ele>82.19999999999999</ele><time>2026-04-12T06:26:36.849Z</time></trkpt><trkpt lat="43.6066736" lon="6.8450347"><ele>82.0</ele><time>2026-04-12T06:26:37.869Z</time></trkpt><trkpt lat="43.6067447" lon="6.8451186"><ele>81.0</ele><time>2026-04-12T06:26:38.882Z</time></trkpt><trkpt lat="43.6068077" lon="6.8452108"><ele>80.0</ele><time>2026-04-12T06:26:39.837Z</time></trkpt><trkpt lat="43.6068733" lon="6.8453044"><ele>79.0</ele><time>2026-04-12T06:26:40.867Z</time></trkpt><trkpt lat="43.6069502" lon="6.8453794"><ele>78.0</ele><time>2026-04-12T06:26:41.897Z</time></trkpt><trkpt lat="43.6070323" lon="6.8454447"><ele>77.0</ele><time>2026-04-12T06:26:42.851Z</time></trkpt><trkpt lat="43.6071144" lon="6.8454971"><ele>76.2</ele><time>2026-04-12T06:26:43.861Z</time></trkpt><trkpt lat="43.6072064" lon="6.8455411"><ele>75.4</ele><time>2026-04-12T06:26:44.882Z</time></trkpt><trkpt lat="43.6072985" lon="6.8455676"><ele>74.6</ele><time>2026-04-12T06:26:45.867Z</time></trkpt><trkpt lat="43.6073902" lon="6.8455779"><ele>73.8</ele><time>2026-04-12T06:26:46.876Z</time></trkpt><trkpt lat="43.6074863" lon="6.8455639"><ele>73.0</ele><time>2026-04-12T06:26:47.858Z</time></trkpt><trkpt lat="43.6075763" lon="6.8455479"><ele>73.0</ele><time>2026-04-12T06:26:48.848Z</time></trkpt><trkpt lat="43.607659" lon="6.845537"><ele>73.0</ele><time>2026-04-12T06:26:49.885Z</time></trkpt><trkpt lat="43.6077422" lon="6.8455223"><ele>73.0</ele><time>2026-04-12T06:26:50.866Z</time></trkpt><trkpt lat="43.6078218" lon="6.8455094"><ele>73.0</ele><time>2026-04-12T06:26:51.854Z</time></trkpt><trkpt lat="43.6078908" lon="6.8454893"><ele>73.0</ele><time>2026-04-12T06:26:52.879Z</time></trkpt><trkpt lat="43.6079647" lon="6.8454714"><ele>73.0</ele><time>2026-04-12T06:26:53.85Z</time></trkpt><trkpt lat="43.6080309" lon="6.8454527"><ele>73.16666666666666</ele><time>2026-04-12T06:26:54.858Z</time></trkpt><trkpt lat="43.6080992" lon="6.8454363"><ele>73.33333333333333</ele><time>2026-04-12T06:26:55.86Z</time></trkpt><trkpt lat="43.608172" lon="6.8454187"><ele>73.5</ele><time>2026-04-12T06:26:56.865Z</time></trkpt><trkpt lat="43.6082498" lon="6.8453962"><ele>73.66666666666667</ele><time>2026-04-12T06:26:57.877Z</time></trkpt><trkpt lat="43.6083329" lon="6.8453665"><ele>73.83333333333334</ele><time>2026-04-12T06:26:58.868Z</time></trkpt><trkpt lat="43.6084182" lon="6.8453384"><ele>74.0</ele><time>2026-04-12T06:26:59.863Z</time></trkpt><trkpt lat="43.6085066" lon="6.8453075"><ele>74.0</ele><time>2026-04-12T06:27:00.89Z</time></trkpt><trkpt lat="43.6085904" lon="6.8452706"><ele>74.0</ele><time>2026-04-12T06:27:01.83Z</time></trkpt><trkpt lat="43.6086728" lon="6.8452299"><ele>74.0</ele><time>2026-04-12T06:27:02.88Z</time></trkpt><trkpt lat="43.6087615" lon="6.8451939"><ele>74.0</ele><time>2026-04-12T06:27:03.904Z</time></trkpt><trkpt lat="43.6088536" lon="6.8451492"><ele>74.0</ele><time>2026-04-12T06:27:04.855Z</time></trkpt><trkpt lat="43.6089492" lon="6.8450977"><ele>74.0</ele><time>2026-04-12T06:27:05.894Z</time></trkpt><trkpt lat="43.6090483" lon="6.8450553"><ele>74.0</ele><time>2026-04-12T06:27:06.861Z</time></trkpt><trkpt lat="43.6091488" lon="6.8450216"><ele>74.0</ele><time>2026-04-12T06:27:07.886Z</time></trkpt><trkpt lat="43.609253" lon="6.8449962"><ele>74.0</ele><time>2026-04-12T06:27:08.832Z</time></trkpt><trkpt lat="43.6093589" lon="6.8449707"><ele>74.0</ele><time>2026-04-12T06:27:09.87Z</time></trkpt><trkpt lat="43.6094595" lon="6.8449412"><ele>74.0</ele><time>2026-04-12T06:27:10.875Z</time></trkpt><trkpt lat="43.6095527" lon="6.8449013"><ele>74.0</ele><time>2026-04-12T06:27:11.866Z</time></trkpt><trkpt lat="43.6096449" lon="6.8448628"><ele>74.0</ele><time>2026-04-12T06:27:12.886Z</time></trkpt><trkpt lat="43.6097356" lon="6.8448335"><ele>74.0</ele><time>2026-04-12T06:27:13.855Z</time></trkpt><trkpt lat="43.6098252" lon="6.8448099"><ele>74.0</ele><time>2026-04-12T06:27:14.866Z</time></trkpt><trkpt lat="43.6099171" lon="6.8447957"><ele>74.0</ele><time>2026-04-12T06:27:15.896Z</time></trkpt><trkpt lat="43.6100099" lon="6.8448014"><ele>74.0</ele><time>2026-04-12T06:27:16.844Z</time></trkpt><trkpt lat="43.6100935" lon="6.8448154"><ele>74.0</ele><time>2026-04-12T06:27:17.878Z</time></trkpt><trkpt lat="43.6101774" lon="6.8448342"><ele>74.0</ele><time>2026-04-12T06:27:18.898Z</time></trkpt><trkpt lat="43.61026" lon="6.8448563"><ele>74.0</ele><time>2026-04-12T06:27:19.876Z</time></trkpt><trkpt lat="43.6103372" lon="6.8448831"><ele>74.0</ele><time>2026-04-12T06:27:20.89Z</time></trkpt><trkpt lat="43.6104147" lon="6.8449188"><ele>73.83333333333334</ele><time>2026-04-12T06:27:21.853Z</time></trkpt><trkpt lat="43.6104891" lon="6.8449524"><ele>73.66666666666667</ele><time>2026-04-12T06:27:22.896Z</time></trkpt><trkpt lat="43.6105598" lon="6.8449926"><ele>73.5</ele><time>2026-04-12T06:27:23.869Z</time></trkpt><trkpt lat="43.6106347" lon="6.8450248"><ele>73.33333333333333</ele><time>2026-04-12T06:27:24.864Z</time></trkpt><trkpt lat="43.6107076" lon="6.8450369"><ele>73.16666666666666</ele><time>2026-04-12T06:27:25.908Z</time></trkpt><trkpt lat="43.6107827" lon="6.8450046"><ele>73.0</ele><time>2026-04-12T06:27:26.883Z</time></trkpt><trkpt lat="43.6108459" lon="6.8449533"><ele>73.0</ele><time>2026-04-12T06:27:27.881Z</time></trkpt><trkpt lat="43.6108944" lon="6.8448921"><ele>73.0</ele><time>2026-04-12T06:27:28.89Z</time></trkpt><trkpt lat="43.6109744" lon="6.8447975"><ele>73.0</ele><time>2026-04-12T06:27:30.894Z</time></trkpt><trkpt lat="43.6110618" lon="6.8447082"><ele>73.0</ele><time>2026-04-12T06:27:32.896Z</time></trkpt><trkpt lat="43.6111542" lon="6.8446342"><ele>73.0</ele><time>2026-04-12T06:27:34.876Z</time></trkpt><trkpt lat="43.6112404" lon="6.8445802"><ele>73.0</ele><time>2026-04-12T06:27:36.873Z</time></trkpt><trkpt lat="43.6113296" lon="6.8445238"><ele>73.0</ele><time>2026-04-12T06:27:38.879Z</time></trkpt><trkpt lat="43.6114154" lon="6.8444724"><ele>73.0</ele><time>2026-04-12T06:27:40.883Z</time></trkpt><trkpt lat="43.6114928" lon="6.8444467"><ele>73.0</ele><time>2026-04-12T06:27:42.85Z</time></trkpt><trkpt lat="43.6115705" lon="6.8444015"><ele>73.0</ele><time>2026-04-12T06:27:44.884Z</time></trkpt><trkpt lat="43.611648" lon="6.844363"><ele>73.0</ele><time>2026-04-12T06:27:46.864Z</time></trkpt><trkpt lat="43.6117229" lon="6.8443275"><ele>73.85714285714286</ele><time>2026-04-12T06:27:48.846Z</time></trkpt><trkpt lat="43.6117925" lon="6.8442955"><ele>74.71428571428572</ele><time>2026-04-12T06:27:50.872Z</time></trkpt><trkpt lat="43.6118625" lon="6.844257"><ele>75.57142857142858</ele><time>2026-04-12T06:27:52.861Z</time></trkpt><trkpt lat="43.6119321" lon="6.8442128"><ele>76.42857142857143</ele><time>2026-04-12T06:27:54.873Z</time></trkpt><trkpt lat="43.6120062" lon="6.8441928"><ele>77.28571428571429</ele><time>2026-04-12T06:27:56.858Z</time></trkpt><trkpt lat="43.6120771" lon="6.8441686"><ele>78.14285714285715</ele><time>2026-04-12T06:27:58.87Z</time></trkpt><trkpt lat="43.6121425" lon="6.8441517"><ele>79.0</ele><time>2026-04-12T06:28:00.877Z</time></trkpt><trkpt lat="43.6122021" lon="6.8441156"><ele>79.00000000000001</ele><time>2026-04-12T06:28:02.857Z</time></trkpt><trkpt lat="43.6122763" lon="6.8440768"><ele>79.0</ele><time>2026-04-12T06:28:04.864Z</time></trkpt><trkpt lat="43.6123335" lon="6.8440219"><ele>79.0</ele><time>2026-04-12T06:28:06.863Z</time></trkpt><trkpt lat="43.6123929" lon="6.8439719"><ele>79.0</ele><time>2026-04-12T06:28:08.892Z</time></trkpt><trkpt lat="43.6124442" lon="6.8439116"><ele>79.0</ele><time>2026-04-12T06:28:10.873Z</time></trkpt><trkpt lat="43.6124852" lon="6.8438415"><ele>79.00000000000001</ele><time>2026-04-12T06:28:12.873Z</time></trkpt><trkpt lat="43.6125122" lon="6.8437483"><ele>79.0</ele><time>2026-04-12T06:28:14.866Z</time></trkpt><trkpt lat="43.6125302" lon="6.8436525"><ele>79.00000000000001</ele><time>2026-04-12T06:28:16.871Z</time></trkpt><trkpt lat="43.6125327" lon="6.8435599"><ele>79.0</ele><time>2026-04-12T06:28:18.88Z</time></trkpt><trkpt lat="43.6125129" lon="6.8434714"><ele>79.0</ele><time>2026-04-12T06:28:20.861Z</time></trkpt><trkpt lat="43.6124853" lon="6.8433847"><ele>79.0</ele><time>2026-04-12T06:28:22.847Z</time></trkpt><trkpt lat="43.6124228" lon="6.8433092"><ele>79.0</ele><time>2026-04-12T06:28:25.846Z</time></trkpt><trkpt lat="43.6123649" lon="6.8432712"><ele>79.00000000000001</ele><time>2026-04-12T06:28:27.867Z</time></trkpt><trkpt lat="43.6122852" lon="6.8432133"><ele>79.0</ele><time>2026-04-12T06:28:30.88Z</time></trkpt><trkpt lat="43.6122076" lon="6.8431846"><ele>80.0</ele><time>2026-04-12T06:28:32.876Z</time></trkpt><trkpt lat="43.6121233" lon="6.8431526"><ele>81.0</ele><time>2026-04-12T06:28:35.881Z</time></trkpt><trkpt lat="43.6120392" lon="6.8431425"><ele>82.0</ele><time>2026-04-12T06:28:38.874Z</time></trkpt><trkpt lat="43.6119649" lon="6.8431045"><ele>83.0</ele><time>2026-04-12T06:28:41.854Z</time></trkpt><trkpt lat="43.6118864" lon="6.8430386"><ele>84.0</ele><time>2026-04-12T06:28:44.874Z</time></trkpt><trkpt lat="43.6118267" lon="6.8429614"><ele>85.0</ele><time>2026-04-12T06:28:47.873Z</time></trkpt><trkpt lat="43.6117635" lon="6.8428814"><ele>87.5</ele><time>2026-04-12T06:28:50.874Z</time></trkpt><trkpt lat="43.6117205" lon="6.8427828"><ele>90.0</ele><time>2026-04-12T06:28:53.861Z</time></trkpt><trkpt lat="43.6116799" lon="6.8426622"><ele>92.5</ele><time>2026-04-12T06:28:56.863Z</time></trkpt><trkpt lat="43.6116576" lon="6.8425606"><ele>95.0</ele><time>2026-04-12T06:28:58.891Z</time></trkpt><trkpt lat="43.6116378" lon="6.8424566"><ele>97.50000000000001</ele><time>2026-04-12T06:29:00.865Z</time></trkpt><trkpt lat="43.6116208" lon="6.842356"><ele>100.0</ele><time>2026-04-12T06:29:02.863Z</time></trkpt><trkpt lat="43.6116146" lon="6.8422652"><ele>100.00000000000001</ele><time>2026-04-12T06:29:04.877Z</time></trkpt><trkpt lat="43.6116029" lon="6.8421638"><ele>100.0</ele><time>2026-04-12T06:29:06.884Z</time></trkpt><trkpt lat="43.6116037" lon="6.8420628"><ele>100.0</ele><time>2026-04-12T06:29:08.868Z</time></trkpt><trkpt lat="43.6116041" lon="6.8419632"><ele>100.0</ele><time>2026-04-12T06:29:10.856Z</time></trkpt><trkpt lat="43.6116099" lon="6.8418641"><ele>100.0</ele><time>2026-04-12T06:29:12.862Z</time></trkpt><trkpt lat="43.6116093" lon="6.8417669"><ele>100.00000000000001</ele><time>2026-04-12T06:29:14.864Z</time></trkpt><trkpt lat="43.6116072" lon="6.8416767"><ele>100.0</ele><time>2026-04-12T06:29:16.872Z</time></trkpt><trkpt lat="43.6115989" lon="6.8415878"><ele>100.00000000000001</ele><time>2026-04-12T06:29:18.865Z</time></trkpt><trkpt lat="43.6115834" lon="6.8414848"><ele>100.0</ele><time>2026-04-12T06:29:20.869Z</time></trkpt><trkpt lat="43.611581" lon="6.8413941"><ele>100.0</ele><time>2026-04-12T06:29:22.863Z</time></trkpt><trkpt lat="43.6115776" lon="6.8412978"><ele>100.0</ele><time>2026-04-12T06:29:24.875Z</time></trkpt><trkpt lat="43.6115767" lon="6.8412051"><ele>100.0</ele><time>2026-04-12T06:29:26.871Z</time></trkpt><trkpt lat="43.6115788" lon="6.8411126"><ele>100.00000000000001</ele><time>2026-04-12T06:29:28.875Z</time></trkpt><trkpt lat="43.6116055" lon="6.84099"><ele>100.0</ele><time>2026-04-12T06:29:31.872Z</time></trkpt><trkpt lat="43.6116503" lon="6.8409286"><ele>101.42857142857143</ele><time>2026-04-12T06:29:33.872Z</time></trkpt><trkpt lat="43.6117088" lon="6.8408849"><ele>102.85714285714286</ele><time>2026-04-12T06:29:35.865Z</time></trkpt><trkpt lat="43.6117932" lon="6.8408254"><ele>104.28571428571428</ele><time>2026-04-12T06:29:38.871Z</time></trkpt><trkpt lat="43.6118319" lon="6.840747"><ele>105.71428571428572</ele><time>2026-04-12T06:29:40.876Z</time></trkpt><trkpt lat="43.6118664" lon="6.8406539"><ele>107.14285714285714</ele><time>2026-04-12T06:29:42.866Z</time></trkpt><trkpt lat="43.6118835" lon="6.8405622"><ele>108.57142857142857</ele><time>2026-04-12T06:29:44.835Z</time></trkpt><trkpt lat="43.6118923" lon="6.8404652"><ele>110.0</ele><time>2026-04-12T06:29:46.887Z</time></trkpt><trkpt lat="43.6118923" lon="6.8403739"><ele>109.99999999999999</ele><time>2026-04-12T06:29:48.856Z</time></trkpt><trkpt lat="43.6119213" lon="6.8402942"><ele>110.0</ele><time>2026-04-12T06:29:50.854Z</time></trkpt><trkpt lat="43.6120029" lon="6.8402449"><ele>110.0</ele><time>2026-04-12T06:29:53.844Z</time></trkpt><trkpt lat="43.6120949" lon="6.8402747"><ele>110.0</ele><time>2026-04-12T06:29:56.872Z</time></trkpt><trkpt lat="43.6121585" lon="6.8403012"><ele>109.99999999999999</ele><time>2026-04-12T06:29:58.883Z</time></trkpt><trkpt lat="43.6122292" lon="6.8403002"><ele>110.0</ele><time>2026-04-12T06:30:00.869Z</time></trkpt><trkpt lat="43.6122962" lon="6.8402588"><ele>108.49999999999999</ele><time>2026-04-12T06:30:02.875Z</time></trkpt><trkpt lat="43.6123463" lon="6.8401647"><ele>107.0</ele><time>2026-04-12T06:30:04.869Z</time></trkpt><trkpt lat="43.6123602" lon="6.8400798"><ele>105.5</ele><time>2026-04-12T06:30:06.859Z</time></trkpt><trkpt lat="43.6123782" lon="6.8399616"><ele>104.0</ele><time>2026-04-12T06:30:09.857Z</time></trkpt><trkpt lat="43.6123852" lon="6.8398336"><ele>102.49999999999999</ele><time>2026-04-12T06:30:12.886Z</time></trkpt><trkpt lat="43.612388" lon="6.8397442"><ele>101.0</ele><time>2026-04-12T06:30:14.852Z</time></trkpt><trkpt lat="43.6124017" lon="6.8396577"><ele>100.99999999999999</ele><time>2026-04-12T06:30:16.874Z</time></trkpt><trkpt lat="43.6124228" lon="6.8395562"><ele>101.0</ele><time>2026-04-12T06:30:18.866Z</time></trkpt><trkpt lat="43.6124557" lon="6.8394607"><ele>101.0</ele><time>2026-04-12T06:30:20.85Z</time></trkpt><trkpt lat="43.6124887" lon="6.8393747"><ele>101.0</ele><time>2026-04-12T06:30:22.836Z</time></trkpt><trkpt lat="43.6125165" lon="6.839277"><ele>100.99999999999999</ele><time>2026-04-12T06:30:24.872Z</time></trkpt><trkpt lat="43.6125205" lon="6.8391665"><ele>101.0</ele><time>2026-04-12T06:30:26.852Z</time></trkpt><trkpt lat="43.6125208" lon="6.8390615"><ele>103.14285714285714</ele><time>2026-04-12T06:30:28.831Z</time></trkpt><trkpt lat="43.6125167" lon="6.8389572"><ele>105.28571428571428</ele><time>2026-04-12T06:30:30.87Z</time></trkpt><trkpt lat="43.6125065" lon="6.8388419"><ele>107.42857142857144</ele><time>2026-04-12T06:30:33.885Z</time></trkpt><trkpt lat="43.6124838" lon="6.8387586"><ele>109.57142857142858</ele><time>2026-04-12T06:30:35.854Z</time></trkpt><trkpt lat="43.612482" lon="6.8386599"><ele>111.71428571428572</ele><time>2026-04-12T06:30:38.866Z</time></trkpt><trkpt lat="43.6124991" lon="6.8385424"><ele>113.85714285714288</ele><time>2026-04-12T06:30:41.861Z</time></trkpt><trkpt lat="43.612547" lon="6.83848"><ele>116.00000000000001</ele><time>2026-04-12T06:30:43.858Z</time></trkpt><trkpt lat="43.6126247" lon="6.8384864"><ele>116.00000000000001</ele><time>2026-04-12T06:30:46.852Z</time></trkpt><trkpt lat="43.6126897" lon="6.8384982"><ele>116.0</ele><time>2026-04-12T06:30:48.869Z</time></trkpt><trkpt lat="43.6127611" lon="6.83852"><ele>116.00000000000001</ele><time>2026-04-12T06:30:50.877Z</time></trkpt><trkpt lat="43.6128305" lon="6.8385127"><ele>116.00000000000001</ele><time>2026-04-12T06:30:52.876Z</time></trkpt><trkpt lat="43.6128959" lon="6.8384756"><ele>116.0</ele><time>2026-04-12T06:30:54.863Z</time></trkpt><trkpt lat="43.6129619" lon="6.8384282"><ele>116.00000000000001</ele><time>2026-04-12T06:30:56.863Z</time></trkpt><trkpt lat="43.613013" lon="6.8383677"><ele>116.00000000000001</ele><time>2026-04-12T06:30:58.871Z</time></trkpt><trkpt lat="43.6130612" lon="6.83829"><ele>114.42857142857144</ele><time>2026-04-12T06:31:00.878Z</time></trkpt><trkpt lat="43.6131118" lon="6.8382076"><ele>112.85714285714286</ele><time>2026-04-12T06:31:02.872Z</time></trkpt><trkpt lat="43.6131577" lon="6.8381367"><ele>111.28571428571429</ele><time>2026-04-12T06:31:04.858Z</time></trkpt><trkpt lat="43.6132049" lon="6.8380666"><ele>109.71428571428572</ele><time>2026-04-12T06:31:06.877Z</time></trkpt><trkpt lat="43.6132538" lon="6.8379952"><ele>108.14285714285714</ele><time>2026-04-12T06:31:08.861Z</time></trkpt><trkpt lat="43.6132943" lon="6.8379222"><ele>106.57142857142857</ele><time>2026-04-12T06:31:10.877Z</time></trkpt><trkpt lat="43.6133308" lon="6.8378373"><ele>105.0</ele><time>2026-04-12T06:31:12.856Z</time></trkpt><trkpt lat="43.6133652" lon="6.8377487"><ele>105.0</ele><time>2026-04-12T06:31:14.872Z</time></trkpt><trkpt lat="43.6133995" lon="6.8376515"><ele>105.0</ele><time>2026-04-12T06:31:16.838Z</time></trkpt><trkpt lat="43.6134239" lon="6.8375569"><ele>105.0</ele><time>2026-04-12T06:31:18.872Z</time></trkpt><trkpt lat="43.6134496" lon="6.8374638"><ele>105.0</ele><time>2026-04-12T06:31:20.851Z</time></trkpt><trkpt lat="43.6134824" lon="6.8373763"><ele>105.0</ele><time>2026-04-12T06:31:22.863Z</time></trkpt><trkpt lat="43.6135156" lon="6.8373011"><ele>105.0</ele><time>2026-04-12T06:31:24.9Z</time></trkpt><trkpt lat="43.6135452" lon="6.8372234"><ele>105.0</ele><time>2026-04-12T06:31:26.871Z</time></trkpt><trkpt lat="43.6135807" lon="6.8371452"><ele>103.5</ele><time>2026-04-12T06:31:28.859Z</time></trkpt><trkpt lat="43.6136263" lon="6.8370673"><ele>102.0</ele><time>2026-04-12T06:31:30.861Z</time></trkpt><trkpt lat="43.6136768" lon="6.8369741"><ele>100.5</ele><time>2026-04-12T06:31:32.896Z</time></trkpt><trkpt lat="43.6137317" lon="6.8369122"><ele>99.0</ele><time>2026-04-12T06:31:34.862Z</time></trkpt><trkpt lat="43.6137897" lon="6.8368174"><ele>97.5</ele><time>2026-04-12T06:31:37.878Z</time></trkpt><trkpt lat="43.613833" lon="6.8367475"><ele>96.0</ele><time>2026-04-12T06:31:39.838Z</time></trkpt><trkpt lat="43.6138799" lon="6.8366707"><ele>99.0</ele><time>2026-04-12T06:31:41.86Z</time></trkpt><trkpt lat="43.613921" lon="6.8365903"><ele>102.0</ele><time>2026-04-12T06:31:43.867Z</time></trkpt><trkpt lat="43.6139648" lon="6.8365135"><ele>105.0</ele><time>2026-04-12T06:31:45.866Z</time></trkpt><trkpt lat="43.6139956" lon="6.836421"><ele>108.0</ele><time>2026-04-12T06:31:47.885Z</time></trkpt><trkpt lat="43.6140211" lon="6.8363249"><ele>111.00000000000001</ele><time>2026-04-12T06:31:49.867Z</time></trkpt><trkpt lat="43.6140564" lon="6.8362439"><ele>114.0</ele><time>2026-04-12T06:31:51.849Z</time></trkpt><trkpt lat="43.6140813" lon="6.8361585"><ele>117.0</ele><time>2026-04-12T06:31:53.883Z</time></trkpt><trkpt lat="43.6140981" lon="6.8360663"><ele>118.16666666666667</ele><time>2026-04-12T06:31:55.869Z</time></trkpt><trkpt lat="43.6140928" lon="6.8359575"><ele>119.33333333333334</ele><time>2026-04-12T06:31:57.871Z</time></trkpt><trkpt lat="43.6140791" lon="6.835856"><ele>120.5</ele><time>2026-04-12T06:31:59.881Z</time></trkpt><trkpt lat="43.6140589" lon="6.8357539"><ele>121.66666666666667</ele><time>2026-04-12T06:32:01.869Z</time></trkpt><trkpt lat="43.6140348" lon="6.8356584"><ele>122.83333333333334</ele><time>2026-04-12T06:32:03.881Z</time></trkpt><trkpt lat="43.6140033" lon="6.8355633"><ele>124.0</ele><time>2026-04-12T06:32:05.86Z</time></trkpt><trkpt lat="43.6139767" lon="6.8354695"><ele>124.0</ele><time>2026-04-12T06:32:07.868Z</time></trkpt><trkpt lat="43.6139426" lon="6.8353777"><ele>124.00000000000001</ele><time>2026-04-12T06:32:09.867Z</time></trkpt><trkpt lat="43.6139139" lon="6.8352887"><ele>124.0</ele><time>2026-04-12T06:32:11.856Z</time></trkpt><trkpt lat="43.6138821" lon="6.8351934"><ele>124.0</ele><time>2026-04-12T06:32:13.881Z</time></trkpt><trkpt lat="43.6138661" lon="6.8351053"><ele>124.00000000000001</ele><time>2026-04-12T06:32:15.873Z</time></trkpt><trkpt lat="43.6138431" lon="6.8350188"><ele>124.0</ele><time>2026-04-12T06:32:17.876Z</time></trkpt><trkpt lat="43.6138172" lon="6.8349234"><ele>124.0</ele><time>2026-04-12T06:32:19.879Z</time></trkpt><trkpt lat="43.613791" lon="6.8348116"><ele>123.33333333333334</ele><time>2026-04-12T06:32:21.881Z</time></trkpt><trkpt lat="43.6137659" lon="6.8347017"><ele>122.66666666666667</ele><time>2026-04-12T06:32:23.842Z</time></trkpt><trkpt lat="43.6137436" lon="6.8345992"><ele>122.0</ele><time>2026-04-12T06:32:25.843Z</time></trkpt><trkpt lat="43.6136959" lon="6.834489"><ele>121.33333333333334</ele><time>2026-04-12T06:32:27.872Z</time></trkpt><trkpt lat="43.61366" lon="6.8343736"><ele>120.66666666666667</ele><time>2026-04-12T06:32:29.863Z</time></trkpt><trkpt lat="43.6136287" lon="6.8342558"><ele>120.0</ele><time>2026-04-12T06:32:31.861Z</time></trkpt><trkpt lat="43.6136027" lon="6.8341421"><ele>125.0</ele><time>2026-04-12T06:32:33.846Z</time></trkpt><trkpt lat="43.613576" lon="6.8340447"><ele>130.0</ele><time>2026-04-12T06:32:35.869Z</time></trkpt><trkpt lat="43.6135416" lon="6.8339294"><ele>135.0</ele><time>2026-04-12T06:32:37.881Z</time></trkpt><trkpt lat="43.6134876" lon="6.8338295"><ele>140.0</ele><time>2026-04-12T06:32:39.867Z</time></trkpt><trkpt lat="43.6134359" lon="6.8337633"><ele>145.0</ele><time>2026-04-12T06:32:41.884Z</time></trkpt><trkpt lat="43.6133818" lon="6.8337035"><ele>150.0</ele><time>2026-04-12T06:32:43.869Z</time></trkpt><trkpt lat="43.6133207" lon="6.8336517"><ele>150.0</ele><time>2026-04-12T06:32:45.852Z</time></trkpt><trkpt lat="43.613237" lon="6.8335985"><ele>150.0</ele><time>2026-04-12T06:32:47.855Z</time></trkpt><trkpt lat="43.6131665" lon="6.8335367"><ele>150.0</ele><time>2026-04-12T06:32:49.878Z</time></trkpt><trkpt lat="43.6131122" lon="6.8334668"><ele>150.0</ele><time>2026-04-12T06:32:51.864Z</time></trkpt><trkpt lat="43.6130599" lon="6.8333851"><ele>150.0</ele><time>2026-04-12T06:32:53.86Z</time></trkpt><trkpt lat="43.6130037" lon="6.8332924"><ele>150.0</ele><time>2026-04-12T06:32:55.868Z</time></trkpt><trkpt lat="43.6129619" lon="6.8331974"><ele>147.5</ele><time>2026-04-12T06:32:57.849Z</time></trkpt><trkpt lat="43.6129044" lon="6.8331131"><ele>145.0</ele><time>2026-04-12T06:32:59.864Z</time></trkpt><trkpt lat="43.6128447" lon="6.8330338"><ele>142.5</ele><time>2026-04-12T06:33:01.867Z</time></trkpt><trkpt lat="43.6128016" lon="6.8329547"><ele>140.0</ele><time>2026-04-12T06:33:03.867Z</time></trkpt><trkpt lat="43.6127438" lon="6.8328863"><ele>137.5</ele><time>2026-04-12T06:33:05.876Z</time></trkpt><trkpt lat="43.6126881" lon="6.832821"><ele>135.0</ele><time>2026-04-12T06:33:07.855Z</time></trkpt><trkpt lat="43.6126214" lon="6.832746"><ele>137.0</ele><time>2026-04-12T06:33:09.873Z</time></trkpt><trkpt lat="43.6125618" lon="6.8326716"><ele>139.0</ele><time>2026-04-12T06:33:11.86Z</time></trkpt><trkpt lat="43.6125011" lon="6.8326121"><ele>141.0</ele><time>2026-04-12T06:33:13.856Z</time></trkpt><trkpt lat="43.612443" lon="6.8325452"><ele>143.0</ele><time>2026-04-12T06:33:15.867Z</time></trkpt><trkpt lat="43.6123789" lon="6.8324853"><ele>145.0</ele><time>2026-04-12T06:33:17.875Z</time></trkpt><trkpt lat="43.6122975" lon="6.8324095"><ele>147.0</ele><time>2026-04-12T06:33:19.875Z</time></trkpt><trkpt lat="43.6122206" lon="6.8323367"><ele>147.0</ele><time>2026-04-12T06:33:21.876Z</time></trkpt><trkpt lat="43.6121583" lon="6.8322577"><ele>147.0</ele><time>2026-04-12T06:33:23.856Z</time></trkpt><trkpt lat="43.6120987" lon="6.832188"><ele>147.0</ele><time>2026-04-12T06:33:25.876Z</time></trkpt><trkpt lat="43.6120492" lon="6.832124"><ele>147.0</ele><time>2026-04-12T06:33:27.861Z</time></trkpt><trkpt lat="43.6119984" lon="6.832048"><ele>147.0</ele><time>2026-04-12T06:33:29.856Z</time></trkpt><trkpt lat="43.6119546" lon="6.8319787"><ele>147.0</ele><time>2026-04-12T06:33:31.847Z</time></trkpt><trkpt lat="43.6119078" lon="6.8319183"><ele>147.0</ele><time>2026-04-12T06:33:33.845Z</time></trkpt><trkpt lat="43.6118382" lon="6.8318257"><ele>149.0</ele><time>2026-04-12T06:33:36.851Z</time></trkpt><trkpt lat="43.6117768" lon="6.8317652"><ele>151.0</ele><time>2026-04-12T06:33:38.82Z</time></trkpt><trkpt lat="43.6117226" lon="6.8316761"><ele>153.0</ele><time>2026-04-12T06:33:41.829Z</time></trkpt><trkpt lat="43.6116569" lon="6.8315994"><ele>155.0</ele><time>2026-04-12T06:33:43.869Z</time></trkpt><trkpt lat="43.6115903" lon="6.8315197"><ele>157.0</ele><time>2026-04-12T06:33:46.871Z</time></trkpt><trkpt lat="43.6115565" lon="6.8314446"><ele>159.0</ele><time>2026-04-12T06:33:48.861Z</time></trkpt><trkpt lat="43.6115148" lon="6.8313652"><ele>159.0</ele><time>2026-04-12T06:33:50.88Z</time></trkpt><trkpt lat="43.6114505" lon="6.8312725"><ele>159.0</ele><time>2026-04-12T06:33:52.856Z</time></trkpt><trkpt lat="43.6114057" lon="6.83119"><ele>159.0</ele><time>2026-04-12T06:33:54.884Z</time></trkpt><trkpt lat="43.6113616" lon="6.8311069"><ele>159.0</ele><time>2026-04-12T06:33:56.876Z</time></trkpt><trkpt lat="43.6113103" lon="6.8310239"><ele>159.0</ele><time>2026-04-12T06:33:58.853Z</time></trkpt><trkpt lat="43.6112422" lon="6.8309242"><ele>159.0</ele><time>2026-04-12T06:34:00.874Z</time></trkpt><trkpt lat="43.6111752" lon="6.8308536"><ele>160.28571428571428</ele><time>2026-04-12T06:34:02.861Z</time></trkpt><trkpt lat="43.6111242" lon="6.8307743"><ele>161.57142857142858</ele><time>2026-04-12T06:34:04.862Z</time></trkpt><trkpt lat="43.6110719" lon="6.8307188"><ele>162.85714285714286</ele><time>2026-04-12T06:34:06.883Z</time></trkpt><trkpt lat="43.6110249" lon="6.8306577"><ele>164.14285714285714</ele><time>2026-04-12T06:34:08.862Z</time></trkpt><trkpt lat="43.6109555" lon="6.830591"><ele>165.42857142857144</ele><time>2026-04-12T06:34:10.868Z</time></trkpt><trkpt lat="43.6108944" lon="6.8305261"><ele>166.71428571428572</ele><time>2026-04-12T06:34:12.856Z</time></trkpt><trkpt lat="43.6108357" lon="6.8304587"><ele>168.0</ele><time>2026-04-12T06:34:14.851Z</time></trkpt><trkpt lat="43.6107715" lon="6.8304022"><ele>168.0</ele><time>2026-04-12T06:34:16.849Z</time></trkpt><trkpt lat="43.610693" lon="6.8303584"><ele>168.0</ele><time>2026-04-12T06:34:18.86Z</time></trkpt><trkpt lat="43.6106236" lon="6.8303149"><ele>168.0</ele><time>2026-04-12T06:34:20.855Z</time></trkpt><trkpt lat="43.6105608" lon="6.8302664"><ele>168.0</ele><time>2026-04-12T06:34:22.861Z</time></trkpt><trkpt lat="43.6104918" lon="6.8302134"><ele>168.0</ele><time>2026-04-12T06:34:24.861Z</time></trkpt><trkpt lat="43.6104461" lon="6.8301479"><ele>168.0</ele><time>2026-04-12T06:34:26.852Z</time></trkpt><trkpt lat="43.6103833" lon="6.8300598"><ele>169.57142857142858</ele><time>2026-04-12T06:34:29.889Z</time></trkpt><trkpt lat="43.6103282" lon="6.8299971"><ele>171.14285714285714</ele><time>2026-04-12T06:34:31.874Z</time></trkpt><trkpt lat="43.6102569" lon="6.8299255"><ele>172.71428571428572</ele><time>2026-04-12T06:34:33.872Z</time></trkpt><trkpt lat="43.6102088" lon="6.8298484"><ele>174.28571428571428</ele><time>2026-04-12T06:34:35.868Z</time></trkpt><trkpt lat="43.610158" lon="6.8297711"><ele>175.85714285714286</ele><time>2026-04-12T06:34:38.876Z</time></trkpt><trkpt lat="43.6101155" lon="6.8297014"><ele>177.42857142857144</ele><time>2026-04-12T06:34:40.869Z</time></trkpt><trkpt lat="43.6100751" lon="6.8296226"><ele>179.0</ele><time>2026-04-12T06:34:42.872Z</time></trkpt><trkpt lat="43.6100321" lon="6.8295492"><ele>179.0</ele><time>2026-04-12T06:34:44.874Z</time></trkpt><trkpt lat="43.6100018" lon="6.8294558"><ele>179.0</ele><time>2026-04-12T06:34:46.856Z</time></trkpt><trkpt lat="43.609965" lon="6.8293621"><ele>179.0</ele><time>2026-04-12T06:34:48.845Z</time></trkpt><trkpt lat="43.6099441" lon="6.8292673"><ele>179.0</ele><time>2026-04-12T06:34:50.875Z</time></trkpt><trkpt lat="43.6099278" lon="6.8291592"><ele>179.0</ele><time>2026-04-12T06:34:52.879Z</time></trkpt><trkpt lat="43.6099183" lon="6.8290549"><ele>179.0</ele><time>2026-04-12T06:34:54.871Z</time></trkpt><trkpt lat="43.6098922" lon="6.8289557"><ele>177.5</ele><time>2026-04-12T06:34:56.862Z</time></trkpt><trkpt lat="43.6098542" lon="6.828852"><ele>176.0</ele><time>2026-04-12T06:34:58.875Z</time></trkpt><trkpt lat="43.6098047" lon="6.8287638"><ele>174.5</ele><time>2026-04-12T06:35:00.847Z</time></trkpt><trkpt lat="43.6097545" lon="6.8287071"><ele>173.0</ele><time>2026-04-12T06:35:02.882Z</time></trkpt><trkpt lat="43.6096819" lon="6.8286347"><ele>171.5</ele><time>2026-04-12T06:35:04.865Z</time></trkpt><trkpt lat="43.609608" lon="6.8285566"><ele>170.0</ele><time>2026-04-12T06:35:06.868Z</time></trkpt><trkpt lat="43.6095473" lon="6.8284969"><ele>171.83333333333331</ele><time>2026-04-12T06:35:08.862Z</time></trkpt><trkpt lat="43.6094777" lon="6.8284446"><ele>173.66666666666666</ele><time>2026-04-12T06:35:10.872Z</time></trkpt><trkpt lat="43.6094027" lon="6.8283742"><ele>175.5</ele><time>2026-04-12T06:35:12.888Z</time></trkpt><trkpt lat="43.6093292" lon="6.8282945"><ele>177.33333333333334</ele><time>2026-04-12T06:35:14.878Z</time></trkpt><trkpt lat="43.6092777" lon="6.8282043"><ele>179.16666666666669</ele><time>2026-04-12T06:35:16.865Z</time></trkpt><trkpt lat="43.6092517" lon="6.8280896"><ele>181.0</ele><time>2026-04-12T06:35:18.874Z</time></trkpt><trkpt lat="43.6092465" lon="6.8279672"><ele>181.0</ele><time>2026-04-12T06:35:20.879Z</time></trkpt><trkpt lat="43.6092546" lon="6.8278598"><ele>181.0</ele><time>2026-04-12T06:35:22.882Z</time></trkpt><trkpt lat="43.6092585" lon="6.8277471"><ele>181.0</ele><time>2026-04-12T06:35:24.888Z</time></trkpt><trkpt lat="43.609265" lon="6.8276423"><ele>181.0</ele><time>2026-04-12T06:35:26.871Z</time></trkpt><trkpt lat="43.6092522" lon="6.8275169"><ele>181.0</ele><time>2026-04-12T06:35:28.872Z</time></trkpt><trkpt lat="43.6092341" lon="6.8273895"><ele>181.0</ele><time>2026-04-12T06:35:30.874Z</time></trkpt><trkpt lat="43.6091953" lon="6.8272859"><ele>181.60000000000002</ele><time>2026-04-12T06:35:32.852Z</time></trkpt><trkpt lat="43.6091472" lon="6.827179"><ele>182.2</ele><time>2026-04-12T06:35:34.877Z</time></trkpt><trkpt lat="43.6090862" lon="6.8270842"><ele>182.8</ele><time>2026-04-12T06:35:36.875Z</time></trkpt><trkpt lat="43.6090224" lon="6.826989"><ele>183.39999999999998</ele><time>2026-04-12T06:35:38.855Z</time></trkpt><trkpt lat="43.6089567" lon="6.8268896"><ele>184.0</ele><time>2026-04-12T06:35:40.87Z</time></trkpt><trkpt lat="43.6088891" lon="6.8267833"><ele>184.0</ele><time>2026-04-12T06:35:42.881Z</time></trkpt><trkpt lat="43.6088297" lon="6.8266805"><ele>184.0</ele><time>2026-04-12T06:35:44.887Z</time></trkpt><trkpt lat="43.6087631" lon="6.8265787"><ele>184.0</ele><time>2026-04-12T06:35:46.876Z</time></trkpt><trkpt lat="43.6086769" lon="6.8264602"><ele>184.0</ele><time>2026-04-12T06:35:48.87Z</time></trkpt><trkpt lat="43.6085835" lon="6.8263479"><ele>184.0</ele><time>2026-04-12T06:35:50.866Z</time></trkpt><trkpt lat="43.6085356" lon="6.8262875"><ele>184.14285714285714</ele><time>2026-04-12T06:35:51.864Z</time></trkpt><trkpt lat="43.6084812" lon="6.826232"><ele>184.28571428571428</ele><time>2026-04-12T06:35:52.882Z</time></trkpt><trkpt lat="43.608429" lon="6.8261783"><ele>184.42857142857142</ele><time>2026-04-12T06:35:53.886Z</time></trkpt><trkpt lat="43.6083791" lon="6.8261169"><ele>184.57142857142856</ele><time>2026-04-12T06:35:54.887Z</time></trkpt><trkpt lat="43.6083284" lon="6.8260604"><ele>184.71428571428572</ele><time>2026-04-12T06:35:55.871Z</time></trkpt><trkpt lat="43.6082795" lon="6.8259979"><ele>184.85714285714283</ele><time>2026-04-12T06:35:56.881Z</time></trkpt><trkpt lat="43.6082344" lon="6.8259357"><ele>185.0</ele><time>2026-04-12T06:35:57.892Z</time></trkpt><trkpt lat="43.6081861" lon="6.8258712"><ele>185.0</ele><time>2026-04-12T06:35:58.847Z</time></trkpt><trkpt lat="43.6081403" lon="6.8258066"><ele>185.0</ele><time>2026-04-12T06:35:59.88Z</time></trkpt><trkpt lat="43.6080953" lon="6.8257429"><ele>185.0</ele><time>2026-04-12T06:36:00.895Z</time></trkpt><trkpt lat="43.6080025" lon="6.8256221"><ele>185.0</ele><time>2026-04-12T06:36:02.844Z</time></trkpt><trkpt lat="43.6079564" lon="6.8255609"><ele>185.0</ele><time>2026-04-12T06:36:03.868Z</time></trkpt><trkpt lat="43.6079088" lon="6.8255025"><ele>185.0</ele><time>2026-04-12T06:36:04.85Z</time></trkpt><trkpt lat="43.6078072" lon="6.8253919"><ele>184.28571428571428</ele><time>2026-04-12T06:36:06.896Z</time></trkpt><trkpt lat="43.6077546" lon="6.8253314"><ele>183.57142857142856</ele><time>2026-04-12T06:36:07.83Z</time></trkpt><trkpt lat="43.6077024" lon="6.8252647"><ele>182.85714285714283</ele><time>2026-04-12T06:36:08.889Z</time></trkpt><trkpt lat="43.6076448" lon="6.8252093"><ele>182.14285714285714</ele><time>2026-04-12T06:36:09.878Z</time></trkpt><trkpt lat="43.6075894" lon="6.8251426"><ele>181.42857142857144</ele><time>2026-04-12T06:36:10.879Z</time></trkpt><trkpt lat="43.6075313" lon="6.8250683"><ele>180.7142857142857</ele><time>2026-04-12T06:36:11.893Z</time></trkpt><trkpt lat="43.6074708" lon="6.8250018"><ele>180.0</ele><time>2026-04-12T06:36:12.881Z</time></trkpt><trkpt lat="43.6074097" lon="6.8249367"><ele>180.0</ele><time>2026-04-12T06:36:13.875Z</time></trkpt><trkpt lat="43.607347" lon="6.8248671"><ele>180.0</ele><time>2026-04-12T06:36:14.877Z</time></trkpt><trkpt lat="43.6072865" lon="6.8247979"><ele>180.0</ele><time>2026-04-12T06:36:15.857Z</time></trkpt><trkpt lat="43.6072305" lon="6.8247247"><ele>180.0</ele><time>2026-04-12T06:36:16.88Z</time></trkpt><trkpt lat="43.6071702" lon="6.8246435"><ele>180.0</ele><time>2026-04-12T06:36:17.86Z</time></trkpt><trkpt lat="43.6071116" lon="6.8245586"><ele>180.0</ele><time>2026-04-12T06:36:18.875Z</time></trkpt><trkpt lat="43.6070615" lon="6.8244633"><ele>180.0</ele><time>2026-04-12T06:36:19.868Z</time></trkpt><trkpt lat="43.6070172" lon="6.8243628"><ele>180.0</ele><time>2026-04-12T06:36:20.843Z</time></trkpt><trkpt lat="43.6069742" lon="6.8242602"><ele>180.0</ele><time>2026-04-12T06:36:21.877Z</time></trkpt><trkpt lat="43.6069326" lon="6.8241516"><ele>180.0</ele><time>2026-04-12T06:36:22.864Z</time></trkpt><trkpt lat="43.6068944" lon="6.8240473"><ele>180.0</ele><time>2026-04-12T06:36:23.894Z</time></trkpt><trkpt lat="43.6068569" lon="6.8239348"><ele>180.0</ele><time>2026-04-12T06:36:24.857Z</time></trkpt><trkpt lat="43.6068178" lon="6.8238242"><ele>180.0</ele><time>2026-04-12T06:36:25.843Z</time></trkpt><trkpt lat="43.6067831" lon="6.8237121"><ele>180.0</ele><time>2026-04-12T06:36:26.84Z</time></trkpt><trkpt lat="43.6067462" lon="6.8236027"><ele>180.0</ele><time>2026-04-12T06:36:27.883Z</time></trkpt><trkpt lat="43.6067052" lon="6.8234946"><ele>180.0</ele><time>2026-04-12T06:36:28.859Z</time></trkpt><trkpt lat="43.6066636" lon="6.8233782"><ele>180.0</ele><time>2026-04-12T06:36:29.844Z</time></trkpt><trkpt lat="43.6066206" lon="6.8232661"><ele>180.0</ele><time>2026-04-12T06:36:30.886Z</time></trkpt><trkpt lat="43.6065751" lon="6.823159"><ele>180.0</ele><time>2026-04-12T06:36:31.861Z</time></trkpt><trkpt lat="43.6065263" lon="6.8230564"><ele>180.0</ele><time>2026-04-12T06:36:32.862Z</time></trkpt><trkpt lat="43.6064771" lon="6.8229547"><ele>180.0</ele><time>2026-04-12T06:36:33.888Z</time></trkpt><trkpt lat="43.6064246" lon="6.8228509"><ele>180.0</ele><time>2026-04-12T06:36:34.865Z</time></trkpt><trkpt lat="43.6063717" lon="6.8227614"><ele>180.0</ele><time>2026-04-12T06:36:35.885Z</time></trkpt><trkpt lat="43.60632" lon="6.8226724"><ele>182.33333333333334</ele><time>2026-04-12T06:36:36.888Z</time></trkpt><trkpt lat="43.6062641" lon="6.8225859"><ele>184.66666666666669</ele><time>2026-04-12T06:36:37.862Z</time></trkpt><trkpt lat="43.6062115" lon="6.8224965"><ele>187.0</ele><time>2026-04-12T06:36:38.87Z</time></trkpt><trkpt lat="43.6061597" lon="6.8224112"><ele>189.33333333333334</ele><time>2026-04-12T06:36:39.848Z</time></trkpt><trkpt lat="43.6061092" lon="6.8223214"><ele>191.66666666666669</ele><time>2026-04-12T06:36:40.874Z</time></trkpt><trkpt lat="43.6060609" lon="6.82224"><ele>194.0</ele><time>2026-04-12T06:36:41.865Z</time></trkpt><trkpt lat="43.6060121" lon="6.8221503"><ele>191.16666666666669</ele><time>2026-04-12T06:36:42.877Z</time></trkpt><trkpt lat="43.6059577" lon="6.8220625"><ele>188.33333333333334</ele><time>2026-04-12T06:36:43.887Z</time></trkpt><trkpt lat="43.6059101" lon="6.8219563"><ele>185.5</ele><time>2026-04-12T06:36:44.847Z</time></trkpt><trkpt lat="43.6058599" lon="6.8218619"><ele>182.66666666666669</ele><time>2026-04-12T06:36:45.903Z</time></trkpt><trkpt lat="43.6058036" lon="6.8217639"><ele>179.83333333333334</ele><time>2026-04-12T06:36:46.841Z</time></trkpt><trkpt lat="43.6057478" lon="6.8216673"><ele>177.0</ele><time>2026-04-12T06:36:47.848Z</time></trkpt><trkpt lat="43.60571" lon="6.8215641"><ele>177.0</ele><time>2026-04-12T06:36:48.878Z</time></trkpt><trkpt lat="43.6056724" lon="6.8214609"><ele>177.0</ele><time>2026-04-12T06:36:49.845Z</time></trkpt><trkpt lat="43.6056411" lon="6.8213541"><ele>177.0</ele><time>2026-04-12T06:36:50.892Z</time></trkpt><trkpt lat="43.6056012" lon="6.821246"><ele>177.0</ele><time>2026-04-12T06:36:51.89Z</time></trkpt><trkpt lat="43.6055705" lon="6.8211346"><ele>177.0</ele><time>2026-04-12T06:36:52.888Z</time></trkpt><trkpt lat="43.6055393" lon="6.8210201"><ele>177.0</ele><time>2026-04-12T06:36:53.883Z</time></trkpt><trkpt lat="43.6055132" lon="6.8209025"><ele>178.83333333333334</ele><time>2026-04-12T06:36:54.901Z</time></trkpt><trkpt lat="43.6054922" lon="6.8207809"><ele>180.66666666666666</ele><time>2026-04-12T06:36:55.87Z</time></trkpt><trkpt lat="43.6054813" lon="6.8206637"><ele>182.5</ele><time>2026-04-12T06:36:56.827Z</time></trkpt><trkpt lat="43.6054798" lon="6.8205445"><ele>184.33333333333331</ele><time>2026-04-12T06:36:57.891Z</time></trkpt><trkpt lat="43.6054851" lon="6.820424"><ele>186.16666666666666</ele><time>2026-04-12T06:36:58.86Z</time></trkpt><trkpt lat="43.6054904" lon="6.820307"><ele>188.0</ele><time>2026-04-12T06:36:59.869Z</time></trkpt><trkpt lat="43.6055084" lon="6.8201857"><ele>188.33333333333331</ele><time>2026-04-12T06:37:00.895Z</time></trkpt><trkpt lat="43.6055207" lon="6.820072"><ele>188.66666666666666</ele><time>2026-04-12T06:37:01.857Z</time></trkpt><trkpt lat="43.6055342" lon="6.8199582"><ele>189.0</ele><time>2026-04-12T06:37:02.882Z</time></trkpt><trkpt lat="43.6055434" lon="6.8198428"><ele>189.33333333333334</ele><time>2026-04-12T06:37:03.83Z</time></trkpt><trkpt lat="43.6055508" lon="6.8197273"><ele>189.66666666666669</ele><time>2026-04-12T06:37:04.865Z</time></trkpt><trkpt lat="43.6055565" lon="6.8196137"><ele>190.0</ele><time>2026-04-12T06:37:05.901Z</time></trkpt><trkpt lat="43.6055575" lon="6.8194921"><ele>190.0</ele><time>2026-04-12T06:37:06.854Z</time></trkpt><trkpt lat="43.6055613" lon="6.8193741"><ele>190.0</ele><time>2026-04-12T06:37:07.885Z</time></trkpt><trkpt lat="43.6055623" lon="6.8192626"><ele>190.0</ele><time>2026-04-12T06:37:08.862Z</time></trkpt><trkpt lat="43.6055641" lon="6.8191446"><ele>190.0</ele><time>2026-04-12T06:37:09.854Z</time></trkpt><trkpt lat="43.6055633" lon="6.8190288"><ele>190.0</ele><time>2026-04-12T06:37:10.861Z</time></trkpt><trkpt lat="43.6055613" lon="6.8189189"><ele>190.0</ele><time>2026-04-12T06:37:11.841Z</time></trkpt><trkpt lat="43.6055653" lon="6.8188081"><ele>189.5</ele><time>2026-04-12T06:37:12.875Z</time></trkpt><trkpt lat="43.6055684" lon="6.8186987"><ele>189.0</ele><time>2026-04-12T06:37:13.853Z</time></trkpt><trkpt lat="43.6055794" lon="6.8185885"><ele>188.5</ele><time>2026-04-12T06:37:14.854Z</time></trkpt><trkpt lat="43.6055867" lon="6.8184728"><ele>188.0</ele><time>2026-04-12T06:37:15.842Z</time></trkpt><trkpt lat="43.6056032" lon="6.8183612"><ele>187.5</ele><time>2026-04-12T06:37:16.829Z</time></trkpt><trkpt lat="43.605621" lon="6.8182535"><ele>187.0</ele><time>2026-04-12T06:37:17.883Z</time></trkpt><trkpt lat="43.605644" lon="6.8181434"><ele>185.83333333333334</ele><time>2026-04-12T06:37:18.883Z</time></trkpt><trkpt lat="43.6056697" lon="6.8180355"><ele>184.66666666666669</ele><time>2026-04-12T06:37:19.826Z</time></trkpt><trkpt lat="43.6057028" lon="6.8179415"><ele>183.5</ele><time>2026-04-12T06:37:20.89Z</time></trkpt><trkpt lat="43.6057428" lon="6.8178507"><ele>182.33333333333334</ele><time>2026-04-12T06:37:21.857Z</time></trkpt><trkpt lat="43.6057904" lon="6.8177635"><ele>181.16666666666666</ele><time>2026-04-12T06:37:22.876Z</time></trkpt><trkpt lat="43.6058509" lon="6.8176844"><ele>180.0</ele><time>2026-04-12T06:37:23.854Z</time></trkpt><trkpt lat="43.6059144" lon="6.8176232"><ele>179.42857142857142</ele><time>2026-04-12T06:37:24.887Z</time></trkpt><trkpt lat="43.6059864" lon="6.8175867"><ele>178.85714285714286</ele><time>2026-04-12T06:37:25.863Z</time></trkpt><trkpt lat="43.6060538" lon="6.8175609"><ele>178.28571428571428</ele><time>2026-04-12T06:37:26.879Z</time></trkpt><trkpt lat="43.6061243" lon="6.8175397"><ele>177.71428571428572</ele><time>2026-04-12T06:37:27.887Z</time></trkpt><trkpt lat="43.6061995" lon="6.8175189"><ele>177.14285714285714</ele><time>2026-04-12T06:37:28.88Z</time></trkpt><trkpt lat="43.6062729" lon="6.8174965"><ele>176.57142857142858</ele><time>2026-04-12T06:37:29.848Z</time></trkpt><trkpt lat="43.6063488" lon="6.8174735"><ele>176.0</ele><time>2026-04-12T06:37:30.88Z</time></trkpt><trkpt lat="43.606421" lon="6.817452"><ele>176.0</ele><time>2026-04-12T06:37:31.878Z</time></trkpt><trkpt lat="43.6064958" lon="6.8174362"><ele>176.0</ele><time>2026-04-12T06:37:32.865Z</time></trkpt><trkpt lat="43.6065689" lon="6.8174272"><ele>176.0</ele><time>2026-04-12T06:37:33.894Z</time></trkpt><trkpt lat="43.6066425" lon="6.8174298"><ele>176.0</ele><time>2026-04-12T06:37:34.882Z</time></trkpt><trkpt lat="43.6067149" lon="6.8174568"><ele>176.0</ele><time>2026-04-12T06:37:35.9Z</time></trkpt><trkpt lat="43.6067861" lon="6.8174882"><ele>176.0</ele><time>2026-04-12T06:37:36.876Z</time></trkpt><trkpt lat="43.6068521" lon="6.8175111"><ele>176.0</ele><time>2026-04-12T06:37:37.886Z</time></trkpt><trkpt lat="43.606924" lon="6.8175403"><ele>176.0</ele><time>2026-04-12T06:37:38.867Z</time></trkpt><trkpt lat="43.6069926" lon="6.8175695"><ele>176.0</ele><time>2026-04-12T06:37:39.858Z</time></trkpt><trkpt lat="43.6070645" lon="6.8176121"><ele>176.0</ele><time>2026-04-12T06:37:40.888Z</time></trkpt><trkpt lat="43.6071331" lon="6.8176529"><ele>176.0</ele><time>2026-04-12T06:37:41.867Z</time></trkpt><trkpt lat="43.6072019" lon="6.8176858"><ele>176.0</ele><time>2026-04-12T06:37:42.867Z</time></trkpt><trkpt lat="43.6072767" lon="6.8177217"><ele>176.0</ele><time>2026-04-12T06:37:43.857Z</time></trkpt><trkpt lat="43.607351" lon="6.8177695"><ele>177.5</ele><time>2026-04-12T06:37:44.85Z</time></trkpt><trkpt lat="43.607427" lon="6.8178136"><ele>179.0</ele><time>2026-04-12T06:37:45.909Z</time></trkpt><trkpt lat="43.6075015" lon="6.8178665"><ele>180.5</ele><time>2026-04-12T06:37:46.868Z</time></trkpt><trkpt lat="43.6075726" lon="6.8179201"><ele>182.0</ele><time>2026-04-12T06:37:47.885Z</time></trkpt><trkpt lat="43.6076415" lon="6.8179739"><ele>183.5</ele><time>2026-04-12T06:37:48.888Z</time></trkpt><trkpt lat="43.6077069" lon="6.8180332"><ele>185.0</ele><time>2026-04-12T06:37:49.893Z</time></trkpt><trkpt lat="43.6077723" lon="6.8180944"><ele>183.16666666666666</ele><time>2026-04-12T06:37:50.889Z</time></trkpt><trkpt lat="43.6078438" lon="6.8181499"><ele>181.33333333333331</ele><time>2026-04-12T06:37:51.863Z</time></trkpt><trkpt lat="43.6079107" lon="6.8182076"><ele>179.5</ele><time>2026-04-12T06:37:52.859Z</time></trkpt><trkpt lat="43.6079794" lon="6.8182635"><ele>177.66666666666666</ele><time>2026-04-12T06:37:53.89Z</time></trkpt><trkpt lat="43.6080474" lon="6.8183166"><ele>175.83333333333334</ele><time>2026-04-12T06:37:54.869Z</time></trkpt><trkpt lat="43.6081134" lon="6.8183687"><ele>174.0</ele><time>2026-04-12T06:37:55.866Z</time></trkpt><trkpt lat="43.6081837" lon="6.8184197"><ele>174.0</ele><time>2026-04-12T06:37:56.847Z</time></trkpt><trkpt lat="43.6082562" lon="6.8184723"><ele>174.0</ele><time>2026-04-12T06:37:57.851Z</time></trkpt><trkpt lat="43.6083271" lon="6.8185217"><ele>174.0</ele><time>2026-04-12T06:37:58.876Z</time></trkpt><trkpt lat="43.6083957" lon="6.8185657"><ele>174.0</ele><time>2026-04-12T06:37:59.885Z</time></trkpt><trkpt lat="43.6084698" lon="6.8186079"><ele>174.0</ele><time>2026-04-12T06:38:00.889Z</time></trkpt><trkpt lat="43.6085393" lon="6.8186603"><ele>174.0</ele><time>2026-04-12T06:38:01.874Z</time></trkpt><trkpt lat="43.6086088" lon="6.8187045"><ele>175.16666666666666</ele><time>2026-04-12T06:38:02.863Z</time></trkpt><trkpt lat="43.6086777" lon="6.8187557"><ele>176.33333333333334</ele><time>2026-04-12T06:38:03.89Z</time></trkpt><trkpt lat="43.6087462" lon="6.8188117"><ele>177.5</ele><time>2026-04-12T06:38:04.835Z</time></trkpt><trkpt lat="43.6088163" lon="6.8188664"><ele>178.66666666666669</ele><time>2026-04-12T06:38:05.898Z</time></trkpt><trkpt lat="43.6088857" lon="6.8189116"><ele>179.83333333333334</ele><time>2026-04-12T06:38:06.896Z</time></trkpt><trkpt lat="43.6089585" lon="6.8189627"><ele>181.0</ele><time>2026-04-12T06:38:07.884Z</time></trkpt><trkpt lat="43.6090339" lon="6.8190129"><ele>181.0</ele><time>2026-04-12T06:38:08.891Z</time></trkpt><trkpt lat="43.609111" lon="6.8190644"><ele>181.0</ele><time>2026-04-12T06:38:09.87Z</time></trkpt><trkpt lat="43.6091805" lon="6.8191117"><ele>181.0</ele><time>2026-04-12T06:38:10.878Z</time></trkpt><trkpt lat="43.6092534" lon="6.8191696"><ele>181.0</ele><time>2026-04-12T06:38:11.903Z</time></trkpt><trkpt lat="43.6093245" lon="6.8192238"><ele>181.0</ele><time>2026-04-12T06:38:12.869Z</time></trkpt><trkpt lat="43.609402" lon="6.8192669"><ele>181.0</ele><time>2026-04-12T06:38:13.876Z</time></trkpt><trkpt lat="43.6094807" lon="6.8193009"><ele>181.5</ele><time>2026-04-12T06:38:14.899Z</time></trkpt><trkpt lat="43.6095595" lon="6.8193258"><ele>182.0</ele><time>2026-04-12T06:38:15.89Z</time></trkpt><trkpt lat="43.6096472" lon="6.8193374"><ele>182.5</ele><time>2026-04-12T06:38:16.858Z</time></trkpt><trkpt lat="43.6097325" lon="6.8193411"><ele>183.0</ele><time>2026-04-12T06:38:17.9Z</time></trkpt><trkpt lat="43.6098187" lon="6.8193459"><ele>183.5</ele><time>2026-04-12T06:38:18.836Z</time></trkpt><trkpt lat="43.6099" lon="6.8193589"><ele>184.0</ele><time>2026-04-12T06:38:19.876Z</time></trkpt><trkpt lat="43.6099736" lon="6.8193822"><ele>184.0</ele><time>2026-04-12T06:38:20.888Z</time></trkpt><trkpt lat="43.6100481" lon="6.8194236"><ele>184.0</ele><time>2026-04-12T06:38:21.859Z</time></trkpt><trkpt lat="43.6101177" lon="6.8194853"><ele>184.0</ele><time>2026-04-12T06:38:22.895Z</time></trkpt><trkpt lat="43.610181" lon="6.8195471"><ele>184.0</ele><time>2026-04-12T06:38:23.837Z</time></trkpt><trkpt lat="43.6102378" lon="6.8196146"><ele>184.0</ele><time>2026-04-12T06:38:24.858Z</time></trkpt><trkpt lat="43.6102898" lon="6.8196806"><ele>184.0</ele><time>2026-04-12T06:38:25.851Z</time></trkpt><trkpt lat="43.6103423" lon="6.8197502"><ele>184.42857142857144</ele><time>2026-04-12T06:38:26.837Z</time></trkpt><trkpt lat="43.6103986" lon="6.8198121"><ele>184.85714285714283</ele><time>2026-04-12T06:38:27.847Z</time></trkpt><trkpt lat="43.6104526" lon="6.8198664"><ele>185.28571428571428</ele><time>2026-04-12T06:38:28.856Z</time></trkpt><trkpt lat="43.6105036" lon="6.819939"><ele>185.71428571428572</ele><time>2026-04-12T06:38:29.881Z</time></trkpt><trkpt lat="43.6105568" lon="6.8200167"><ele>186.14285714285717</ele><time>2026-04-12T06:38:30.88Z</time></trkpt><trkpt lat="43.610611" lon="6.8200835"><ele>186.57142857142856</ele><time>2026-04-12T06:38:31.85Z</time></trkpt><trkpt lat="43.6106756" lon="6.8201417"><ele>187.0</ele><time>2026-04-12T06:38:32.86Z</time></trkpt><trkpt lat="43.6107407" lon="6.820205"><ele>187.0</ele><time>2026-04-12T06:38:33.825Z</time></trkpt><trkpt lat="43.6108048" lon="6.8202391"><ele>187.0</ele><time>2026-04-12T06:38:34.848Z</time></trkpt><trkpt lat="43.6108654" lon="6.820275"><ele>187.0</ele><time>2026-04-12T06:38:35.835Z</time></trkpt><trkpt lat="43.6109309" lon="6.8203206"><ele>187.0</ele><time>2026-04-12T06:38:36.862Z</time></trkpt><trkpt lat="43.6109989" lon="6.820364"><ele>187.0</ele><time>2026-04-12T06:38:37.833Z</time></trkpt><trkpt lat="43.6110634" lon="6.820403"><ele>187.0</ele><time>2026-04-12T06:38:38.904Z</time></trkpt><trkpt lat="43.6111353" lon="6.8204411"><ele>187.0</ele><time>2026-04-12T06:38:39.875Z</time></trkpt><trkpt lat="43.6111973" lon="6.8204737"><ele>186.16666666666669</ele><time>2026-04-12T06:38:40.886Z</time></trkpt><trkpt lat="43.6113146" lon="6.8205241"><ele>185.33333333333334</ele><time>2026-04-12T06:38:42.853Z</time></trkpt><trkpt lat="43.6113849" lon="6.8205394"><ele>184.5</ele><time>2026-04-12T06:38:43.842Z</time></trkpt><trkpt lat="43.6114494" lon="6.8205467"><ele>183.66666666666666</ele><time>2026-04-12T06:38:44.844Z</time></trkpt><trkpt lat="43.6115131" lon="6.8205516"><ele>182.83333333333331</ele><time>2026-04-12T06:38:45.832Z</time></trkpt><trkpt lat="43.6115783" lon="6.820544"><ele>182.0</ele><time>2026-04-12T06:38:46.864Z</time></trkpt><trkpt lat="43.6116449" lon="6.8205282"><ele>182.0</ele><time>2026-04-12T06:38:47.865Z</time></trkpt><trkpt lat="43.6117083" lon="6.8205062"><ele>182.0</ele><time>2026-04-12T06:38:48.864Z</time></trkpt><trkpt lat="43.6117685" lon="6.8204743"><ele>182.0</ele><time>2026-04-12T06:38:49.88Z</time></trkpt><trkpt lat="43.6118669" lon="6.8204087"><ele>182.0</ele><time>2026-04-12T06:38:51.886Z</time></trkpt><trkpt lat="43.6119551" lon="6.8203148"><ele>182.0</ele><time>2026-04-12T06:38:53.874Z</time></trkpt><trkpt lat="43.6120455" lon="6.8202105"><ele>182.2</ele><time>2026-04-12T06:38:55.867Z</time></trkpt><trkpt lat="43.6121249" lon="6.8201297"><ele>182.39999999999998</ele><time>2026-04-12T06:38:57.847Z</time></trkpt><trkpt lat="43.6121842" lon="6.8200595"><ele>182.60000000000002</ele><time>2026-04-12T06:38:59.88Z</time></trkpt><trkpt lat="43.612236" lon="6.82001"><ele>182.8</ele><time>2026-04-12T06:39:00.853Z</time></trkpt><trkpt lat="43.6123198" lon="6.8198868"><ele>183.0</ele><time>2026-04-12T06:39:02.873Z</time></trkpt><trkpt lat="43.6123838" lon="6.8197482"><ele>183.0</ele><time>2026-04-12T06:39:04.835Z</time></trkpt><trkpt lat="43.6124139" lon="6.8196508"><ele>183.0</ele><time>2026-04-12T06:39:05.885Z</time></trkpt><trkpt lat="43.6124165" lon="6.8195494"><ele>183.0</ele><time>2026-04-12T06:39:06.885Z</time></trkpt><trkpt lat="43.6123987" lon="6.819384"><ele>183.0</ele><time>2026-04-12T06:39:08.903Z</time></trkpt><trkpt lat="43.6123999" lon="6.8192899"><ele>183.0</ele><time>2026-04-12T06:39:09.878Z</time></trkpt><trkpt lat="43.6124375" lon="6.8191276"><ele>183.0</ele><time>2026-04-12T06:39:11.867Z</time></trkpt><trkpt lat="43.6124639" lon="6.8190383"><ele>183.0</ele><time>2026-04-12T06:39:12.853Z</time></trkpt><trkpt lat="43.6124832" lon="6.8189361"><ele>183.0</ele><time>2026-04-12T06:39:13.878Z</time></trkpt><trkpt lat="43.6124765" lon="6.8188351"><ele>183.0</ele><time>2026-04-12T06:39:14.847Z</time></trkpt><trkpt lat="43.6124666" lon="6.818742"><ele>183.0</ele><time>2026-04-12T06:39:15.877Z</time></trkpt><trkpt lat="43.6124133" lon="6.8185816"><ele>183.0</ele><time>2026-04-12T06:39:17.893Z</time></trkpt><trkpt lat="43.6123462" lon="6.8184406"><ele>183.5</ele><time>2026-04-12T06:39:19.888Z</time></trkpt><trkpt lat="43.6122956" lon="6.8182991"><ele>184.0</ele><time>2026-04-12T06:39:21.893Z</time></trkpt><trkpt lat="43.6122523" lon="6.8181479"><ele>184.5</ele><time>2026-04-12T06:39:23.879Z</time></trkpt><trkpt lat="43.6122193" lon="6.8180006"><ele>185.0</ele><time>2026-04-12T06:39:25.874Z</time></trkpt><trkpt lat="43.6121857" lon="6.8178618"><ele>185.0</ele><time>2026-04-12T06:39:27.869Z</time></trkpt><trkpt lat="43.6121609" lon="6.8177308"><ele>185.0</ele><time>2026-04-12T06:39:29.879Z</time></trkpt><trkpt lat="43.6121353" lon="6.8175999"><ele>185.0</ele><time>2026-04-12T06:39:31.867Z</time></trkpt><trkpt lat="43.6121122" lon="6.8174773"><ele>185.0</ele><time>2026-04-12T06:39:33.864Z</time></trkpt><trkpt lat="43.6120889" lon="6.8173476"><ele>185.0</ele><time>2026-04-12T06:39:35.843Z</time></trkpt><trkpt lat="43.6120717" lon="6.8172116"><ele>185.33333333333331</ele><time>2026-04-12T06:39:37.869Z</time></trkpt><trkpt lat="43.6120545" lon="6.8170987"><ele>185.66666666666666</ele><time>2026-04-12T06:39:39.869Z</time></trkpt><trkpt lat="43.6120402" lon="6.8169951"><ele>186.0</ele><time>2026-04-12T06:39:41.891Z</time></trkpt><trkpt lat="43.6120284" lon="6.8168743"><ele>186.33333333333334</ele><time>2026-04-12T06:39:43.864Z</time></trkpt><trkpt lat="43.6120095" lon="6.8167592"><ele>186.66666666666669</ele><time>2026-04-12T06:39:45.846Z</time></trkpt><trkpt lat="43.6119858" lon="6.8166421"><ele>187.0</ele><time>2026-04-12T06:39:47.869Z</time></trkpt><trkpt lat="43.6119752" lon="6.8165325"><ele>187.83333333333334</ele><time>2026-04-12T06:39:49.893Z</time></trkpt><trkpt lat="43.611957" lon="6.816431"><ele>188.66666666666669</ele><time>2026-04-12T06:39:51.88Z</time></trkpt><trkpt lat="43.6119282" lon="6.8163141"><ele>189.5</ele><time>2026-04-12T06:39:53.874Z</time></trkpt><trkpt lat="43.6118936" lon="6.8161998"><ele>190.33333333333334</ele><time>2026-04-12T06:39:55.875Z</time></trkpt><trkpt lat="43.6118565" lon="6.8160845"><ele>191.16666666666666</ele><time>2026-04-12T06:39:57.868Z</time></trkpt><trkpt lat="43.6118156" lon="6.8159752"><ele>192.0</ele><time>2026-04-12T06:39:59.853Z</time></trkpt><trkpt lat="43.6117738" lon="6.815869"><ele>192.6</ele><time>2026-04-12T06:40:01.853Z</time></trkpt><trkpt lat="43.6117208" lon="6.8157775"><ele>193.2</ele><time>2026-04-12T06:40:03.866Z</time></trkpt><trkpt lat="43.6116638" lon="6.8156813"><ele>193.8</ele><time>2026-04-12T06:40:05.883Z</time></trkpt><trkpt lat="43.6116073" lon="6.8155867"><ele>194.4</ele><time>2026-04-12T06:40:07.869Z</time></trkpt><trkpt lat="43.6115469" lon="6.8154907"><ele>195.0</ele><time>2026-04-12T06:40:09.865Z</time></trkpt><trkpt lat="43.611482" lon="6.8153929"><ele>195.0</ele><time>2026-04-12T06:40:11.871Z</time></trkpt><trkpt lat="43.6114088" lon="6.8153043"><ele>195.0</ele><time>2026-04-12T06:40:13.867Z</time></trkpt><trkpt lat="43.6113339" lon="6.8152152"><ele>195.0</ele><time>2026-04-12T06:40:15.876Z</time></trkpt><trkpt lat="43.6112533" lon="6.8151258"><ele>195.0</ele><time>2026-04-12T06:40:17.861Z</time></trkpt><trkpt lat="43.6111733" lon="6.8150392"><ele>195.0</ele><time>2026-04-12T06:40:19.905Z</time></trkpt><trkpt lat="43.6110922" lon="6.8149567"><ele>195.0</ele><time>2026-04-12T06:40:21.891Z</time></trkpt><trkpt lat="43.6110132" lon="6.8148687"><ele>195.0</ele><time>2026-04-12T06:40:23.861Z</time></trkpt><trkpt lat="43.6109336" lon="6.8147884"><ele>195.0</ele><time>2026-04-12T06:40:25.887Z</time></trkpt><trkpt lat="43.6108477" lon="6.8147024"><ele>195.0</ele><time>2026-04-12T06:40:27.861Z</time></trkpt><trkpt lat="43.6107559" lon="6.8146333"><ele>195.0</ele><time>2026-04-12T06:40:29.837Z</time></trkpt><trkpt lat="43.6106821" lon="6.8145373"><ele>195.0</ele><time>2026-04-12T06:40:31.847Z</time></trkpt><trkpt lat="43.6106021" lon="6.8144822"><ele>195.0</ele><time>2026-04-12T06:40:33.873Z</time></trkpt><trkpt lat="43.6105097" lon="6.8144216"><ele>195.0</ele><time>2026-04-12T06:40:35.854Z</time></trkpt><trkpt lat="43.6104301" lon="6.8143412"><ele>195.0</ele><time>2026-04-12T06:40:37.822Z</time></trkpt><trkpt lat="43.6103726" lon="6.8142794"><ele>195.0</ele><time>2026-04-12T06:40:39.866Z</time></trkpt><trkpt lat="43.6103108" lon="6.8142175"><ele>195.0</ele><time>2026-04-12T06:40:41.825Z</time></trkpt><trkpt lat="43.6102499" lon="6.8141697"><ele>196.28571428571428</ele><time>2026-04-12T06:40:43.852Z</time></trkpt><trkpt lat="43.6101951" lon="6.8141154"><ele>197.57142857142856</ele><time>2026-04-12T06:40:45.866Z</time></trkpt><trkpt lat="43.6101344" lon="6.8140376"><ele>198.85714285714286</ele><time>2026-04-12T06:40:48.855Z</time></trkpt><trkpt lat="43.6100773" lon="6.81399"><ele>200.14285714285714</ele><time>2026-04-12T06:40:50.897Z</time></trkpt><trkpt lat="43.6100325" lon="6.8139284"><ele>201.42857142857144</ele><time>2026-04-12T06:40:52.874Z</time></trkpt><trkpt lat="43.6099772" lon="6.8138583"><ele>202.71428571428572</ele><time>2026-04-12T06:40:55.863Z</time></trkpt><trkpt lat="43.6099271" lon="6.8137985"><ele>204.0</ele><time>2026-04-12T06:40:57.841Z</time></trkpt><trkpt lat="43.6098715" lon="6.8137434"><ele>204.0</ele><time>2026-04-12T06:40:59.859Z</time></trkpt><trkpt lat="43.6098111" lon="6.8136936"><ele>204.0</ele><time>2026-04-12T06:41:00.862Z</time></trkpt><trkpt lat="43.6097515" lon="6.813622"><ele>204.0</ele><time>2026-04-12T06:41:02.868Z</time></trkpt><trkpt lat="43.6096865" lon="6.8135458"><ele>204.0</ele><time>2026-04-12T06:41:04.865Z</time></trkpt><trkpt lat="43.6096187" lon="6.8134692"><ele>204.0</ele><time>2026-04-12T06:41:06.876Z</time></trkpt><trkpt lat="43.6095523" lon="6.8133911"><ele>204.0</ele><time>2026-04-12T06:41:08.906Z</time></trkpt><trkpt lat="43.6094896" lon="6.813307"><ele>204.16666666666666</ele><time>2026-04-12T06:41:10.896Z</time></trkpt><trkpt lat="43.609432" lon="6.8132291"><ele>204.33333333333331</ele><time>2026-04-12T06:41:12.885Z</time></trkpt><trkpt lat="43.6093848" lon="6.8131408"><ele>204.5</ele><time>2026-04-12T06:41:14.864Z</time></trkpt><trkpt lat="43.6093388" lon="6.8130488"><ele>204.66666666666666</ele><time>2026-04-12T06:41:16.845Z</time></trkpt><trkpt lat="43.6093023" lon="6.8129694"><ele>204.83333333333331</ele><time>2026-04-12T06:41:18.863Z</time></trkpt><trkpt lat="43.6092638" lon="6.8128915"><ele>205.0</ele><time>2026-04-12T06:41:20.879Z</time></trkpt><trkpt lat="43.6092245" lon="6.8127647"><ele>205.0</ele><time>2026-04-12T06:41:23.878Z</time></trkpt><trkpt lat="43.6092016" lon="6.8126741"><ele>205.0</ele><time>2026-04-12T06:41:25.867Z</time></trkpt><trkpt lat="43.6091951" lon="6.8125759"><ele>205.0</ele><time>2026-04-12T06:41:27.873Z</time></trkpt><trkpt lat="43.6091863" lon="6.8124765"><ele>205.0</ele><time>2026-04-12T06:41:29.883Z</time></trkpt><trkpt lat="43.6091906" lon="6.8123735"><ele>205.0</ele><time>2026-04-12T06:41:31.883Z</time></trkpt><trkpt lat="43.6091965" lon="6.8122695"><ele>205.0</ele><time>2026-04-12T06:41:33.862Z</time></trkpt><trkpt lat="43.609203" lon="6.8121642"><ele>205.0</ele><time>2026-04-12T06:41:35.881Z</time></trkpt><trkpt lat="43.6092167" lon="6.8120658"><ele>206.2857142857143</ele><time>2026-04-12T06:41:37.869Z</time></trkpt><trkpt lat="43.609232" lon="6.8119678"><ele>207.57142857142856</ele><time>2026-04-12T06:41:39.858Z</time></trkpt><trkpt lat="43.6092425" lon="6.8118632"><ele>208.85714285714286</ele><time>2026-04-12T06:41:41.859Z</time></trkpt><trkpt lat="43.6092472" lon="6.8117634"><ele>210.14285714285717</ele><time>2026-04-12T06:41:43.867Z</time></trkpt><trkpt lat="43.6092513" lon="6.8116653"><ele>211.42857142857144</ele><time>2026-04-12T06:41:45.875Z</time></trkpt><trkpt lat="43.6092499" lon="6.8115613"><ele>212.71428571428572</ele><time>2026-04-12T06:41:47.883Z</time></trkpt><trkpt lat="43.6092419" lon="6.8114528"><ele>214.0</ele><time>2026-04-12T06:41:49.857Z</time></trkpt><trkpt lat="43.6092343" lon="6.8113426"><ele>214.33333333333331</ele><time>2026-04-12T06:41:51.864Z</time></trkpt><trkpt lat="43.6092077" lon="6.8112375"><ele>214.66666666666666</ele><time>2026-04-12T06:41:53.857Z</time></trkpt><trkpt lat="43.609188" lon="6.8111359"><ele>215.0</ele><time>2026-04-12T06:41:55.866Z</time></trkpt><trkpt lat="43.6091645" lon="6.8110262"><ele>215.33333333333331</ele><time>2026-04-12T06:41:57.858Z</time></trkpt><trkpt lat="43.6091356" lon="6.8109237"><ele>215.66666666666666</ele><time>2026-04-12T06:41:59.868Z</time></trkpt><trkpt lat="43.6090987" lon="6.8108279"><ele>216.0</ele><time>2026-04-12T06:42:01.86Z</time></trkpt><trkpt lat="43.6090629" lon="6.8107307"><ele>217.5</ele><time>2026-04-12T06:42:03.859Z</time></trkpt><trkpt lat="43.6090152" lon="6.8106488"><ele>219.0</ele><time>2026-04-12T06:42:05.865Z</time></trkpt><trkpt lat="43.6089553" lon="6.810583"><ele>220.5</ele><time>2026-04-12T06:42:07.854Z</time></trkpt><trkpt lat="43.6089087" lon="6.8105116"><ele>222.0</ele><time>2026-04-12T06:42:09.857Z</time></trkpt><trkpt lat="43.6088552" lon="6.810444"><ele>223.5</ele><time>2026-04-12T06:42:11.833Z</time></trkpt><trkpt lat="43.6088009" lon="6.8103809"><ele>225.0</ele><time>2026-04-12T06:42:13.864Z</time></trkpt><trkpt lat="43.6087237" lon="6.8103018"><ele>225.0</ele><time>2026-04-12T06:42:16.858Z</time></trkpt><trkpt lat="43.6086662" lon="6.8102478"><ele>225.0</ele><time>2026-04-12T06:42:18.861Z</time></trkpt><trkpt lat="43.6086051" lon="6.8102045"><ele>225.0</ele><time>2026-04-12T06:42:20.859Z</time></trkpt><trkpt lat="43.608543" lon="6.8101612"><ele>225.0</ele><time>2026-04-12T06:42:22.864Z</time></trkpt><trkpt lat="43.6084561" lon="6.8101329"><ele>225.0</ele><time>2026-04-12T06:42:24.87Z</time></trkpt><trkpt lat="43.6083592" lon="6.8100858"><ele>225.0</ele><time>2026-04-12T06:42:26.871Z</time></trkpt><trkpt lat="43.6082731" lon="6.810046"><ele>225.83333333333334</ele><time>2026-04-12T06:42:28.867Z</time></trkpt><trkpt lat="43.6082001" lon="6.8100149"><ele>226.66666666666669</ele><time>2026-04-12T06:42:30.866Z</time></trkpt><trkpt lat="43.6081249" lon="6.8099855"><ele>227.5</ele><time>2026-04-12T06:42:32.865Z</time></trkpt><trkpt lat="43.6080484" lon="6.8099533"><ele>228.33333333333334</ele><time>2026-04-12T06:42:34.875Z</time></trkpt><trkpt lat="43.6079699" lon="6.809916"><ele>229.16666666666669</ele><time>2026-04-12T06:42:36.851Z</time></trkpt><trkpt lat="43.6079018" lon="6.8098704"><ele>230.0</ele><time>2026-04-12T06:42:38.857Z</time></trkpt><trkpt lat="43.6078269" lon="6.8098351"><ele>229.00000000000003</ele><time>2026-04-12T06:42:40.9Z</time></trkpt><trkpt lat="43.607739" lon="6.8098029"><ele>228.0</ele><time>2026-04-12T06:42:42.855Z</time></trkpt><trkpt lat="43.6076588" lon="6.8097786"><ele>227.0</ele><time>2026-04-12T06:42:44.863Z</time></trkpt><trkpt lat="43.6075736" lon="6.8097487"><ele>226.0</ele><time>2026-04-12T06:42:46.872Z</time></trkpt><trkpt lat="43.6074931" lon="6.8096982"><ele>225.00000000000003</ele><time>2026-04-12T06:42:48.856Z</time></trkpt><trkpt lat="43.607416" lon="6.8096609"><ele>224.0</ele><time>2026-04-12T06:42:50.863Z</time></trkpt><trkpt lat="43.6073325" lon="6.8096173"><ele>224.00000000000003</ele><time>2026-04-12T06:42:52.859Z</time></trkpt><trkpt lat="43.6072581" lon="6.8095692"><ele>224.0</ele><time>2026-04-12T06:42:54.828Z</time></trkpt><trkpt lat="43.607187" lon="6.809528"><ele>224.0</ele><time>2026-04-12T06:42:56.877Z</time></trkpt><trkpt lat="43.6071115" lon="6.8094622"><ele>224.0</ele><time>2026-04-12T06:42:58.878Z</time></trkpt><trkpt lat="43.6070234" lon="6.8093975"><ele>224.00000000000003</ele><time>2026-04-12T06:43:00.88Z</time></trkpt><trkpt lat="43.6069438" lon="6.8093299"><ele>224.0</ele><time>2026-04-12T06:43:02.87Z</time></trkpt><trkpt lat="43.6068697" lon="6.8092613"><ele>225.83333333333334</ele><time>2026-04-12T06:43:04.904Z</time></trkpt><trkpt lat="43.6067998" lon="6.809192"><ele>227.66666666666669</ele><time>2026-04-12T06:43:06.862Z</time></trkpt><trkpt lat="43.6067286" lon="6.8091303"><ele>229.5</ele><time>2026-04-12T06:43:08.883Z</time></trkpt><trkpt lat="43.606666" lon="6.809065"><ele>231.33333333333331</ele><time>2026-04-12T06:43:10.839Z</time></trkpt><trkpt lat="43.6065968" lon="6.8089893"><ele>233.16666666666666</ele><time>2026-04-12T06:43:12.852Z</time></trkpt><trkpt lat="43.6065323" lon="6.8089071"><ele>235.0</ele><time>2026-04-12T06:43:14.87Z</time></trkpt><trkpt lat="43.6064688" lon="6.8088295"><ele>234.99999999999997</ele><time>2026-04-12T06:43:16.879Z</time></trkpt><trkpt lat="43.6064072" lon="6.8087325"><ele>235.0</ele><time>2026-04-12T06:43:18.865Z</time></trkpt><trkpt lat="43.6063522" lon="6.808651"><ele>235.0</ele><time>2026-04-12T06:43:20.874Z</time></trkpt><trkpt lat="43.6062992" lon="6.8085536"><ele>235.0</ele><time>2026-04-12T06:43:22.883Z</time></trkpt><trkpt lat="43.6062472" lon="6.8084697"><ele>234.99999999999997</ele><time>2026-04-12T06:43:24.863Z</time></trkpt><trkpt lat="43.6061908" lon="6.8083772"><ele>235.0</ele><time>2026-04-12T06:43:26.871Z</time></trkpt><trkpt lat="43.6061324" lon="6.8082925"><ele>235.0</ele><time>2026-04-12T06:43:28.871Z</time></trkpt><trkpt lat="43.6060695" lon="6.8081997"><ele>235.0</ele><time>2026-04-12T06:43:30.868Z</time></trkpt><trkpt lat="43.6060051" lon="6.8081177"><ele>235.0</ele><time>2026-04-12T06:43:32.86Z</time></trkpt><trkpt lat="43.6059411" lon="6.8080231"><ele>235.0</ele><time>2026-04-12T06:43:34.866Z</time></trkpt><trkpt lat="43.6058744" lon="6.8079316"><ele>235.0</ele><time>2026-04-12T06:43:36.861Z</time></trkpt><trkpt lat="43.6058027" lon="6.8078559"><ele>234.99999999999997</ele><time>2026-04-12T06:43:38.871Z</time></trkpt><trkpt lat="43.6057323" lon="6.8077818"><ele>235.0</ele><time>2026-04-12T06:43:40.865Z</time></trkpt><trkpt lat="43.6056668" lon="6.8077165"><ele>235.0</ele><time>2026-04-12T06:43:42.866Z</time></trkpt><trkpt lat="43.6055901" lon="6.8076557"><ele>235.0</ele><time>2026-04-12T06:43:44.876Z</time></trkpt><trkpt lat="43.6055094" lon="6.8075964"><ele>234.99999999999997</ele><time>2026-04-12T06:43:46.872Z</time></trkpt><trkpt lat="43.6054315" lon="6.8075466"><ele>235.0</ele><time>2026-04-12T06:43:48.869Z</time></trkpt><trkpt lat="43.6053523" lon="6.8074944"><ele>235.8</ele><time>2026-04-12T06:43:50.868Z</time></trkpt><trkpt lat="43.6052738" lon="6.8074435"><ele>236.6</ele><time>2026-04-12T06:43:52.878Z</time></trkpt><trkpt lat="43.6051876" lon="6.8073971"><ele>237.39999999999998</ele><time>2026-04-12T06:43:54.882Z</time></trkpt><trkpt lat="43.6050922" lon="6.8073547"><ele>238.2</ele><time>2026-04-12T06:43:56.87Z</time></trkpt><trkpt lat="43.6049919" lon="6.8073085"><ele>239.0</ele><time>2026-04-12T06:43:58.885Z</time></trkpt><trkpt lat="43.6048862" lon="6.8072663"><ele>239.0</ele><time>2026-04-12T06:44:00.877Z</time></trkpt><trkpt lat="43.6047752" lon="6.8072182"><ele>239.0</ele><time>2026-04-12T06:44:02.889Z</time></trkpt><trkpt lat="43.6046582" lon="6.8071728"><ele>239.0</ele><time>2026-04-12T06:44:04.887Z</time></trkpt><trkpt lat="43.6045466" lon="6.8071246"><ele>239.0</ele><time>2026-04-12T06:44:06.891Z</time></trkpt><trkpt lat="43.6044401" lon="6.8070825"><ele>237.75</ele><time>2026-04-12T06:44:08.858Z</time></trkpt><trkpt lat="43.6043271" lon="6.8070379"><ele>236.5</ele><time>2026-04-12T06:44:10.876Z</time></trkpt><trkpt lat="43.6042113" lon="6.8069999"><ele>235.25</ele><time>2026-04-12T06:44:12.879Z</time></trkpt><trkpt lat="43.6040998" lon="6.8069607"><ele>234.0</ele><time>2026-04-12T06:44:14.898Z</time></trkpt><trkpt lat="43.6039738" lon="6.8069152"><ele>234.0</ele><time>2026-04-12T06:44:16.849Z</time></trkpt><trkpt lat="43.6038628" lon="6.8068739"><ele>234.0</ele><time>2026-04-12T06:44:18.871Z</time></trkpt><trkpt lat="43.6037506" lon="6.80683"><ele>234.0</ele><time>2026-04-12T06:44:20.895Z</time></trkpt><trkpt lat="43.6036324" lon="6.8067759"><ele>234.0</ele><time>2026-04-12T06:44:22.889Z</time></trkpt><trkpt lat="43.603519" lon="6.8067292"><ele>236.5</ele><time>2026-04-12T06:44:24.874Z</time></trkpt><trkpt lat="43.6034177" lon="6.8066693"><ele>239.0</ele><time>2026-04-12T06:44:26.88Z</time></trkpt><trkpt lat="43.6033113" lon="6.8065847"><ele>241.5</ele><time>2026-04-12T06:44:28.872Z</time></trkpt><trkpt lat="43.6032096" lon="6.806499"><ele>244.0</ele><time>2026-04-12T06:44:30.865Z</time></trkpt><trkpt lat="43.6031126" lon="6.8063982"><ele>244.0</ele><time>2026-04-12T06:44:32.871Z</time></trkpt><trkpt lat="43.603018" lon="6.8062839"><ele>244.0</ele><time>2026-04-12T06:44:34.871Z</time></trkpt><trkpt lat="43.6029244" lon="6.8061939"><ele>244.0</ele><time>2026-04-12T06:44:36.881Z</time></trkpt><trkpt lat="43.6028342" lon="6.8060957"><ele>244.0</ele><time>2026-04-12T06:44:38.876Z</time></trkpt><trkpt lat="43.6027401" lon="6.8059923"><ele>245.0</ele><time>2026-04-12T06:44:40.874Z</time></trkpt><trkpt lat="43.6026528" lon="6.8059056"><ele>246.0</ele><time>2026-04-12T06:44:42.865Z</time></trkpt><trkpt lat="43.6025528" lon="6.8058217"><ele>247.0</ele><time>2026-04-12T06:44:44.878Z</time></trkpt><trkpt lat="43.6024427" lon="6.8057483"><ele>248.0</ele><time>2026-04-12T06:44:46.865Z</time></trkpt><trkpt lat="43.6023457" lon="6.8056948"><ele>248.0</ele><time>2026-04-12T06:44:48.845Z</time></trkpt><trkpt lat="43.6022478" lon="6.8056409"><ele>248.0</ele><time>2026-04-12T06:44:50.868Z</time></trkpt><trkpt lat="43.6021331" lon="6.8055804"><ele>248.0</ele><time>2026-04-12T06:44:52.866Z</time></trkpt><trkpt lat="43.6020233" lon="6.8055113"><ele>248.0</ele><time>2026-04-12T06:44:54.887Z</time></trkpt><trkpt lat="43.6019113" lon="6.8054488"><ele>246.5</ele><time>2026-04-12T06:44:56.875Z</time></trkpt><trkpt lat="43.6018064" lon="6.8053685"><ele>245.0</ele><time>2026-04-12T06:44:58.879Z</time></trkpt><trkpt lat="43.6017003" lon="6.8052889"><ele>243.5</ele><time>2026-04-12T06:45:00.903Z</time></trkpt><trkpt lat="43.6016001" lon="6.8051954"><ele>242.0</ele><time>2026-04-12T06:45:02.861Z</time></trkpt><trkpt lat="43.6014883" lon="6.8051037"><ele>243.0</ele><time>2026-04-12T06:45:04.881Z</time></trkpt><trkpt lat="43.6013942" lon="6.8050019"><ele>244.0</ele><time>2026-04-12T06:45:06.87Z</time></trkpt><trkpt lat="43.6012997" lon="6.8049063"><ele>245.0</ele><time>2026-04-12T06:45:08.858Z</time></trkpt><trkpt lat="43.6011981" lon="6.8048067"><ele>246.0</ele><time>2026-04-12T06:45:10.852Z</time></trkpt><trkpt lat="43.6010996" lon="6.8046965"><ele>246.0</ele><time>2026-04-12T06:45:12.849Z</time></trkpt><trkpt lat="43.6010003" lon="6.8045898"><ele>246.0</ele><time>2026-04-12T06:45:14.89Z</time></trkpt><trkpt lat="43.6009506" lon="6.8045319"><ele>246.0</ele><time>2026-04-12T06:45:15.884Z</time></trkpt><trkpt lat="43.6008598" lon="6.804412"><ele>246.0</ele><time>2026-04-12T06:45:17.886Z</time></trkpt><trkpt lat="43.6008178" lon="6.8043437"><ele>246.0</ele><time>2026-04-12T06:45:18.887Z</time></trkpt><trkpt lat="43.6007719" lon="6.8042796"><ele>246.0</ele><time>2026-04-12T06:45:19.856Z</time></trkpt><trkpt lat="43.6007246" lon="6.8042148"><ele>248.20000000000002</ele><time>2026-04-12T06:45:20.893Z</time></trkpt><trkpt lat="43.60068" lon="6.8041527"><ele>250.40000000000003</ele><time>2026-04-12T06:45:21.88Z</time></trkpt><trkpt lat="43.6005976" lon="6.804034"><ele>252.6</ele><time>2026-04-12T06:45:23.828Z</time></trkpt><trkpt lat="43.6005144" lon="6.8039142"><ele>254.8</ele><time>2026-04-12T06:45:25.884Z</time></trkpt><trkpt lat="43.6004439" lon="6.8037891"><ele>257.0</ele><time>2026-04-12T06:45:27.87Z</time></trkpt><trkpt lat="43.6003647" lon="6.8036631"><ele>256.33333333333337</ele><time>2026-04-12T06:45:29.861Z</time></trkpt><trkpt lat="43.6002902" lon="6.8035222"><ele>255.66666666666669</ele><time>2026-04-12T06:45:31.875Z</time></trkpt><trkpt lat="43.6002477" lon="6.8034532"><ele>255.0</ele><time>2026-04-12T06:45:32.888Z</time></trkpt><trkpt lat="43.6002076" lon="6.8033779"><ele>254.33333333333331</ele><time>2026-04-12T06:45:33.87Z</time></trkpt><trkpt lat="43.600171" lon="6.8033061"><ele>253.66666666666666</ele><time>2026-04-12T06:45:34.869Z</time></trkpt><trkpt lat="43.6001342" lon="6.8032331"><ele>253.0</ele><time>2026-04-12T06:45:35.884Z</time></trkpt><trkpt lat="43.6000612" lon="6.8030939"><ele>253.0</ele><time>2026-04-12T06:45:37.873Z</time></trkpt><trkpt lat="43.5999874" lon="6.8029607"><ele>253.0</ele><time>2026-04-12T06:45:39.86Z</time></trkpt><trkpt lat="43.5999093" lon="6.8028416"><ele>253.0</ele><time>2026-04-12T06:45:41.88Z</time></trkpt><trkpt lat="43.5998617" lon="6.8027828"><ele>253.0</ele><time>2026-04-12T06:45:42.882Z</time></trkpt><trkpt lat="43.5997789" lon="6.8026723"><ele>253.0</ele><time>2026-04-12T06:45:44.853Z</time></trkpt><trkpt lat="43.5996869" lon="6.8025795"><ele>253.14285714285717</ele><time>2026-04-12T06:45:46.862Z</time></trkpt><trkpt lat="43.5996359" lon="6.802521"><ele>253.28571428571428</ele><time>2026-04-12T06:45:47.889Z</time></trkpt><trkpt lat="43.5995838" lon="6.8024678"><ele>253.42857142857144</ele><time>2026-04-12T06:45:48.857Z</time></trkpt><trkpt lat="43.5995285" lon="6.8024168"><ele>253.57142857142858</ele><time>2026-04-12T06:45:49.887Z</time></trkpt><trkpt lat="43.5994771" lon="6.8023651"><ele>253.71428571428572</ele><time>2026-04-12T06:45:50.863Z</time></trkpt><trkpt lat="43.5994185" lon="6.802328"><ele>253.85714285714286</ele><time>2026-04-12T06:45:51.869Z</time></trkpt><trkpt lat="43.5993561" lon="6.8022782"><ele>254.0</ele><time>2026-04-12T06:45:52.885Z</time></trkpt><trkpt lat="43.599293" lon="6.802223"><ele>254.0</ele><time>2026-04-12T06:45:53.878Z</time></trkpt><trkpt lat="43.5992295" lon="6.8021698"><ele>254.0</ele><time>2026-04-12T06:45:54.886Z</time></trkpt><trkpt lat="43.5991704" lon="6.8021212"><ele>254.0</ele><time>2026-04-12T06:45:55.863Z</time></trkpt><trkpt lat="43.5991085" lon="6.8020687"><ele>254.0</ele><time>2026-04-12T06:45:56.877Z</time></trkpt><trkpt lat="43.5990503" lon="6.802008"><ele>254.0</ele><time>2026-04-12T06:45:57.881Z</time></trkpt><trkpt lat="43.5989937" lon="6.8019514"><ele>254.0</ele><time>2026-04-12T06:45:58.86Z</time></trkpt><trkpt lat="43.5989386" lon="6.8018905"><ele>254.0</ele><time>2026-04-12T06:45:59.876Z</time></trkpt><trkpt lat="43.5988848" lon="6.8018227"><ele>254.00000000000003</ele><time>2026-04-12T06:46:00.871Z</time></trkpt><trkpt lat="43.5988232" lon="6.8017445"><ele>254.0</ele><time>2026-04-12T06:46:01.887Z</time></trkpt><trkpt lat="43.5987666" lon="6.8016644"><ele>254.0</ele><time>2026-04-12T06:46:02.886Z</time></trkpt><trkpt lat="43.5987035" lon="6.8015856"><ele>254.0</ele><time>2026-04-12T06:46:03.882Z</time></trkpt><trkpt lat="43.5986436" lon="6.8014958"><ele>254.00000000000003</ele><time>2026-04-12T06:46:04.858Z</time></trkpt><trkpt lat="43.598587" lon="6.801408"><ele>254.0</ele><time>2026-04-12T06:46:05.842Z</time></trkpt><trkpt lat="43.5985258" lon="6.8013138"><ele>254.00000000000003</ele><time>2026-04-12T06:46:06.854Z</time></trkpt><trkpt lat="43.5984677" lon="6.8012269"><ele>254.0</ele><time>2026-04-12T06:46:07.878Z</time></trkpt><trkpt lat="43.5984058" lon="6.8011322"><ele>254.0</ele><time>2026-04-12T06:46:08.849Z</time></trkpt><trkpt lat="43.5983567" lon="6.8010414"><ele>254.0</ele><time>2026-04-12T06:46:09.876Z</time></trkpt><trkpt lat="43.5982974" lon="6.8009484"><ele>254.00000000000003</ele><time>2026-04-12T06:46:10.873Z</time></trkpt><trkpt lat="43.5982451" lon="6.8008586"><ele>254.0</ele><time>2026-04-12T06:46:11.889Z</time></trkpt><trkpt lat="43.5981902" lon="6.8007689"><ele>254.33333333333334</ele><time>2026-04-12T06:46:12.891Z</time></trkpt><trkpt lat="43.5981409" lon="6.8006854"><ele>254.66666666666669</ele><time>2026-04-12T06:46:13.891Z</time></trkpt><trkpt lat="43.5980957" lon="6.8006036"><ele>255.0</ele><time>2026-04-12T06:46:14.855Z</time></trkpt><trkpt lat="43.5980475" lon="6.8005225"><ele>255.33333333333331</ele><time>2026-04-12T06:46:15.879Z</time></trkpt><trkpt lat="43.598001" lon="6.8004457"><ele>255.66666666666666</ele><time>2026-04-12T06:46:16.859Z</time></trkpt><trkpt lat="43.5979236" lon="6.8003256"><ele>256.0</ele><time>2026-04-12T06:46:18.873Z</time></trkpt><trkpt lat="43.597856" lon="6.8002137"><ele>255.8</ele><time>2026-04-12T06:46:20.899Z</time></trkpt><trkpt lat="43.5977856" lon="6.8001052"><ele>255.60000000000002</ele><time>2026-04-12T06:46:22.89Z</time></trkpt><trkpt lat="43.597717" lon="6.7999317"><ele>255.4</ele><time>2026-04-12T06:46:25.879Z</time></trkpt><trkpt lat="43.597669" lon="6.799782"><ele>255.2</ele><time>2026-04-12T06:46:27.873Z</time></trkpt><trkpt lat="43.5976428" lon="6.7997023"><ele>255.0</ele><time>2026-04-12T06:46:28.891Z</time></trkpt><trkpt lat="43.5975959" lon="6.7995247"><ele>255.0</ele><time>2026-04-12T06:46:30.886Z</time></trkpt><trkpt lat="43.5975692" lon="6.7994195"><ele>255.0</ele><time>2026-04-12T06:46:31.848Z</time></trkpt><trkpt lat="43.5975354" lon="6.7993196"><ele>255.0</ele><time>2026-04-12T06:46:32.868Z</time></trkpt><trkpt lat="43.5975081" lon="6.7992226"><ele>255.0</ele><time>2026-04-12T06:46:33.888Z</time></trkpt><trkpt lat="43.5974759" lon="6.7991225"><ele>255.0</ele><time>2026-04-12T06:46:34.849Z</time></trkpt><trkpt lat="43.5974432" lon="6.7990208"><ele>255.0</ele><time>2026-04-12T06:46:35.868Z</time></trkpt><trkpt lat="43.5974028" lon="6.7989223"><ele>256.1666666666667</ele><time>2026-04-12T06:46:36.853Z</time></trkpt><trkpt lat="43.5973645" lon="6.7988254"><ele>257.3333333333333</ele><time>2026-04-12T06:46:37.88Z</time></trkpt><trkpt lat="43.5973305" lon="6.7987266"><ele>258.5</ele><time>2026-04-12T06:46:38.883Z</time></trkpt><trkpt lat="43.5973048" lon="6.7986322"><ele>259.66666666666663</ele><time>2026-04-12T06:46:39.866Z</time></trkpt><trkpt lat="43.5972735" lon="6.7985398"><ele>260.8333333333333</ele><time>2026-04-12T06:46:40.842Z</time></trkpt><trkpt lat="43.5972361" lon="6.7984484"><ele>262.0</ele><time>2026-04-12T06:46:41.88Z</time></trkpt><trkpt lat="43.5972036" lon="6.7983555"><ele>262.66666666666663</ele><time>2026-04-12T06:46:42.869Z</time></trkpt><trkpt lat="43.5971713" lon="6.7982597"><ele>263.3333333333333</ele><time>2026-04-12T06:46:43.845Z</time></trkpt><trkpt lat="43.5971375" lon="6.7981644"><ele>264.0</ele><time>2026-04-12T06:46:44.831Z</time></trkpt><trkpt lat="43.5970946" lon="6.7980732"><ele>264.6666666666667</ele><time>2026-04-12T06:46:45.891Z</time></trkpt><trkpt lat="43.5970546" lon="6.797971"><ele>265.33333333333337</ele><time>2026-04-12T06:46:46.906Z</time></trkpt><trkpt lat="43.5970159" lon="6.7978698"><ele>266.0</ele><time>2026-04-12T06:46:47.872Z</time></trkpt><trkpt lat="43.5969759" lon="6.7977707"><ele>264.33333333333337</ele><time>2026-04-12T06:46:48.89Z</time></trkpt><trkpt lat="43.5969381" lon="6.7976667"><ele>262.6666666666667</ele><time>2026-04-12T06:46:49.889Z</time></trkpt><trkpt lat="43.5968994" lon="6.7975604"><ele>261.0</ele><time>2026-04-12T06:46:50.895Z</time></trkpt><trkpt lat="43.5968622" lon="6.7974501"><ele>259.3333333333333</ele><time>2026-04-12T06:46:51.856Z</time></trkpt><trkpt lat="43.5968304" lon="6.797344"><ele>257.66666666666663</ele><time>2026-04-12T06:46:52.888Z</time></trkpt><trkpt lat="43.5967964" lon="6.7972334"><ele>256.0</ele><time>2026-04-12T06:46:53.834Z</time></trkpt><trkpt lat="43.596758" lon="6.7971265"><ele>256.0</ele><time>2026-04-12T06:46:54.865Z</time></trkpt><trkpt lat="43.5967149" lon="6.7970132"><ele>256.0</ele><time>2026-04-12T06:46:55.868Z</time></trkpt><trkpt lat="43.5966799" lon="6.796902"><ele>256.0</ele><time>2026-04-12T06:46:56.892Z</time></trkpt><trkpt lat="43.596644" lon="6.7967907"><ele>256.0</ele><time>2026-04-12T06:46:57.887Z</time></trkpt><trkpt lat="43.5966076" lon="6.7966727"><ele>256.0</ele><time>2026-04-12T06:46:58.859Z</time></trkpt><trkpt lat="43.596579" lon="6.7965508"><ele>256.6</ele><time>2026-04-12T06:46:59.881Z</time></trkpt><trkpt lat="43.5965529" lon="6.7964263"><ele>257.20000000000005</ele><time>2026-04-12T06:47:00.876Z</time></trkpt><trkpt lat="43.5965429" lon="6.7962997"><ele>257.79999999999995</ele><time>2026-04-12T06:47:01.879Z</time></trkpt><trkpt lat="43.5965341" lon="6.7961679"><ele>258.4</ele><time>2026-04-12T06:47:02.871Z</time></trkpt><trkpt lat="43.5965334" lon="6.7960358"><ele>259.0</ele><time>2026-04-12T06:47:03.875Z</time></trkpt><trkpt lat="43.5965415" lon="6.7959075"><ele>259.0</ele><time>2026-04-12T06:47:04.855Z</time></trkpt><trkpt lat="43.5965571" lon="6.7957764"><ele>259.0</ele><time>2026-04-12T06:47:05.895Z</time></trkpt><trkpt lat="43.5965817" lon="6.7956406"><ele>259.0</ele><time>2026-04-12T06:47:06.872Z</time></trkpt><trkpt lat="43.5966109" lon="6.795497"><ele>259.0</ele><time>2026-04-12T06:47:07.904Z</time></trkpt><trkpt lat="43.5966482" lon="6.7953488"><ele>259.0</ele><time>2026-04-12T06:47:08.874Z</time></trkpt><trkpt lat="43.596691" lon="6.7952081"><ele>257.5</ele><time>2026-04-12T06:47:09.867Z</time></trkpt><trkpt lat="43.5967355" lon="6.795061"><ele>256.0</ele><time>2026-04-12T06:47:10.863Z</time></trkpt><trkpt lat="43.5967917" lon="6.7949159"><ele>254.5</ele><time>2026-04-12T06:47:11.863Z</time></trkpt><trkpt lat="43.5968601" lon="6.7947714"><ele>253.0</ele><time>2026-04-12T06:47:12.87Z</time></trkpt><trkpt lat="43.5969229" lon="6.7946345"><ele>253.0</ele><time>2026-04-12T06:47:13.861Z</time></trkpt><trkpt lat="43.596981" lon="6.7944907"><ele>253.0</ele><time>2026-04-12T06:47:14.863Z</time></trkpt><trkpt lat="43.5970352" lon="6.7943374"><ele>253.0</ele><time>2026-04-12T06:47:15.861Z</time></trkpt><trkpt lat="43.5970768" lon="6.7941804"><ele>253.0</ele><time>2026-04-12T06:47:16.896Z</time></trkpt><trkpt lat="43.5971199" lon="6.7940344"><ele>252.5</ele><time>2026-04-12T06:47:17.853Z</time></trkpt><trkpt lat="43.5971432" lon="6.7938765"><ele>252.0</ele><time>2026-04-12T06:47:18.877Z</time></trkpt><trkpt lat="43.5971679" lon="6.7937152"><ele>251.5</ele><time>2026-04-12T06:47:19.883Z</time></trkpt><trkpt lat="43.597192" lon="6.7935517"><ele>251.0</ele><time>2026-04-12T06:47:20.869Z</time></trkpt><trkpt lat="43.5971973" lon="6.7933834"><ele>251.0</ele><time>2026-04-12T06:47:21.873Z</time></trkpt><trkpt lat="43.5971908" lon="6.7932156"><ele>251.0</ele><time>2026-04-12T06:47:22.873Z</time></trkpt><trkpt lat="43.5971843" lon="6.7930436"><ele>251.0</ele><time>2026-04-12T06:47:23.864Z</time></trkpt><trkpt lat="43.5971821" lon="6.7928726"><ele>251.0</ele><time>2026-04-12T06:47:24.871Z</time></trkpt><trkpt lat="43.5971779" lon="6.7926924"><ele>250.25</ele><time>2026-04-12T06:47:25.889Z</time></trkpt><trkpt lat="43.5971698" lon="6.7925141"><ele>249.5</ele><time>2026-04-12T06:47:26.865Z</time></trkpt><trkpt lat="43.5971652" lon="6.7923332"><ele>248.75</ele><time>2026-04-12T06:47:27.886Z</time></trkpt><trkpt lat="43.5971615" lon="6.7921519"><ele>248.0</ele><time>2026-04-12T06:47:28.888Z</time></trkpt><trkpt lat="43.5971574" lon="6.7919631"><ele>247.0</ele><time>2026-04-12T06:47:29.849Z</time></trkpt><trkpt lat="43.597162" lon="6.7917786"><ele>246.0</ele><time>2026-04-12T06:47:30.854Z</time></trkpt><trkpt lat="43.5971658" lon="6.7915881"><ele>245.0</ele><time>2026-04-12T06:47:31.856Z</time></trkpt><trkpt lat="43.5971857" lon="6.7914007"><ele>244.0</ele><time>2026-04-12T06:47:32.868Z</time></trkpt><trkpt lat="43.5972165" lon="6.7912186"><ele>244.0</ele><time>2026-04-12T06:47:33.882Z</time></trkpt><trkpt lat="43.5972646" lon="6.7910342"><ele>244.0</ele><time>2026-04-12T06:47:34.865Z</time></trkpt><trkpt lat="43.5973237" lon="6.7908693"><ele>244.0</ele><time>2026-04-12T06:47:35.87Z</time></trkpt><trkpt lat="43.5973797" lon="6.7906994"><ele>244.0</ele><time>2026-04-12T06:47:36.868Z</time></trkpt><trkpt lat="43.5974301" lon="6.790531"><ele>242.0</ele><time>2026-04-12T06:47:37.868Z</time></trkpt><trkpt lat="43.5974798" lon="6.7903585"><ele>240.0</ele><time>2026-04-12T06:47:38.87Z</time></trkpt><trkpt lat="43.5975309" lon="6.7901912"><ele>238.0</ele><time>2026-04-12T06:47:39.881Z</time></trkpt><trkpt lat="43.5975826" lon="6.7900247"><ele>236.0</ele><time>2026-04-12T06:47:40.869Z</time></trkpt><trkpt lat="43.5976343" lon="6.7898644"><ele>234.5</ele><time>2026-04-12T06:47:41.875Z</time></trkpt><trkpt lat="43.5976949" lon="6.789701"><ele>233.0</ele><time>2026-04-12T06:47:42.87Z</time></trkpt><trkpt lat="43.59776" lon="6.7895438"><ele>231.5</ele><time>2026-04-12T06:47:43.872Z</time></trkpt><trkpt lat="43.5978283" lon="6.7893889"><ele>230.0</ele><time>2026-04-12T06:47:44.871Z</time></trkpt><trkpt lat="43.5979082" lon="6.7892381"><ele>230.0</ele><time>2026-04-12T06:47:45.887Z</time></trkpt><trkpt lat="43.5979904" lon="6.7890834"><ele>230.0</ele><time>2026-04-12T06:47:46.865Z</time></trkpt><trkpt lat="43.5980735" lon="6.7889368"><ele>230.0</ele><time>2026-04-12T06:47:47.883Z</time></trkpt><trkpt lat="43.5981573" lon="6.7887874"><ele>230.0</ele><time>2026-04-12T06:47:48.861Z</time></trkpt><trkpt lat="43.5982411" lon="6.7886358"><ele>229.0</ele><time>2026-04-12T06:47:49.888Z</time></trkpt><trkpt lat="43.5983153" lon="6.7884818"><ele>228.0</ele><time>2026-04-12T06:47:50.886Z</time></trkpt><trkpt lat="43.5983881" lon="6.788323"><ele>227.0</ele><time>2026-04-12T06:47:51.827Z</time></trkpt><trkpt lat="43.5984569" lon="6.7881622"><ele>226.0</ele><time>2026-04-12T06:47:52.866Z</time></trkpt><trkpt lat="43.5985211" lon="6.7880087"><ele>226.0</ele><time>2026-04-12T06:47:53.873Z</time></trkpt><trkpt lat="43.5985792" lon="6.7878646"><ele>226.0</ele><time>2026-04-12T06:47:54.863Z</time></trkpt><trkpt lat="43.5986271" lon="6.7877088"><ele>226.0</ele><time>2026-04-12T06:47:55.848Z</time></trkpt><trkpt lat="43.5986713" lon="6.7875549"><ele>226.0</ele><time>2026-04-12T06:47:56.846Z</time></trkpt><trkpt lat="43.5987107" lon="6.7874079"><ele>224.0</ele><time>2026-04-12T06:47:57.863Z</time></trkpt><trkpt lat="43.5987553" lon="6.7872668"><ele>222.00000000000003</ele><time>2026-04-12T06:47:58.861Z</time></trkpt><trkpt lat="43.5988021" lon="6.7871401"><ele>220.00000000000003</ele><time>2026-04-12T06:47:59.862Z</time></trkpt><trkpt lat="43.598851" lon="6.7870097"><ele>218.0</ele><time>2026-04-12T06:48:00.849Z</time></trkpt><trkpt lat="43.5988943" lon="6.7868686"><ele>216.0</ele><time>2026-04-12T06:48:01.847Z</time></trkpt><trkpt lat="43.598948" lon="6.786734"><ele>214.4</ele><time>2026-04-12T06:48:02.842Z</time></trkpt><trkpt lat="43.5990004" lon="6.7866057"><ele>212.8</ele><time>2026-04-12T06:48:03.849Z</time></trkpt><trkpt lat="43.5990653" lon="6.7864843"><ele>211.20000000000002</ele><time>2026-04-12T06:48:04.843Z</time></trkpt><trkpt lat="43.599139" lon="6.7863978"><ele>209.60000000000002</ele><time>2026-04-12T06:48:05.847Z</time></trkpt><trkpt lat="43.5992305" lon="6.786348"><ele>208.0</ele><time>2026-04-12T06:48:06.859Z</time></trkpt><trkpt lat="43.5993121" lon="6.7863072"><ele>208.0</ele><time>2026-04-12T06:48:07.827Z</time></trkpt><trkpt lat="43.5994058" lon="6.7862932"><ele>208.0</ele><time>2026-04-12T06:48:08.853Z</time></trkpt><trkpt lat="43.5994976" lon="6.78632"><ele>208.0</ele><time>2026-04-12T06:48:09.859Z</time></trkpt><trkpt lat="43.5995825" lon="6.7863712"><ele>208.0</ele><time>2026-04-12T06:48:10.856Z</time></trkpt><trkpt lat="43.5996712" lon="6.7864358"><ele>208.0</ele><time>2026-04-12T06:48:11.856Z</time></trkpt><trkpt lat="43.5997587" lon="6.7865029"><ele>207.60000000000002</ele><time>2026-04-12T06:48:12.866Z</time></trkpt><trkpt lat="43.5998514" lon="6.7865686"><ele>207.20000000000002</ele><time>2026-04-12T06:48:13.869Z</time></trkpt><trkpt lat="43.5999557" lon="6.7866094"><ele>206.8</ele><time>2026-04-12T06:48:14.853Z</time></trkpt><trkpt lat="43.6000588" lon="6.7866242"><ele>206.4</ele><time>2026-04-12T06:48:15.895Z</time></trkpt><trkpt lat="43.6001557" lon="6.7866213"><ele>206.0</ele><time>2026-04-12T06:48:16.871Z</time></trkpt><trkpt lat="43.6002497" lon="6.7865941"><ele>206.60000000000002</ele><time>2026-04-12T06:48:17.865Z</time></trkpt><trkpt lat="43.600347" lon="6.7865567"><ele>207.2</ele><time>2026-04-12T06:48:18.9Z</time></trkpt><trkpt lat="43.6004433" lon="6.7865116"><ele>207.8</ele><time>2026-04-12T06:48:19.893Z</time></trkpt><trkpt lat="43.6005293" lon="6.7864501"><ele>208.39999999999998</ele><time>2026-04-12T06:48:20.846Z</time></trkpt><trkpt lat="43.6006094" lon="6.7863777"><ele>209.0</ele><time>2026-04-12T06:48:21.884Z</time></trkpt><trkpt lat="43.6006803" lon="6.7862914"><ele>209.0</ele><time>2026-04-12T06:48:22.841Z</time></trkpt><trkpt lat="43.600758" lon="6.7862154"><ele>209.0</ele><time>2026-04-12T06:48:23.891Z</time></trkpt><trkpt lat="43.6008394" lon="6.7861516"><ele>209.0</ele><time>2026-04-12T06:48:24.839Z</time></trkpt><trkpt lat="43.6009166" lon="6.7860724"><ele>209.0</ele><time>2026-04-12T06:48:25.875Z</time></trkpt><trkpt lat="43.6009923" lon="6.7859844"><ele>209.0</ele><time>2026-04-12T06:48:26.897Z</time></trkpt><trkpt lat="43.6010648" lon="6.7859044"><ele>208.79999999999998</ele><time>2026-04-12T06:48:27.881Z</time></trkpt><trkpt lat="43.6011446" lon="6.7858256"><ele>208.6</ele><time>2026-04-12T06:48:28.874Z</time></trkpt><trkpt lat="43.6012234" lon="6.7857579"><ele>208.4</ele><time>2026-04-12T06:48:29.877Z</time></trkpt><trkpt lat="43.6013099" lon="6.7857"><ele>208.2</ele><time>2026-04-12T06:48:30.849Z</time></trkpt><trkpt lat="43.6013908" lon="6.7856493"><ele>208.0</ele><time>2026-04-12T06:48:31.884Z</time></trkpt><trkpt lat="43.6014619" lon="6.7855953"><ele>208.0</ele><time>2026-04-12T06:48:32.879Z</time></trkpt><trkpt lat="43.6015338" lon="6.7855417"><ele>208.0</ele><time>2026-04-12T06:48:33.873Z</time></trkpt><trkpt lat="43.6016149" lon="6.7854836"><ele>208.0</ele><time>2026-04-12T06:48:34.869Z</time></trkpt><trkpt lat="43.6016965" lon="6.7854177"><ele>208.0</ele><time>2026-04-12T06:48:35.889Z</time></trkpt><trkpt lat="43.6017814" lon="6.7853509"><ele>208.0</ele><time>2026-04-12T06:48:36.862Z</time></trkpt><trkpt lat="43.6018754" lon="6.7852809"><ele>208.0</ele><time>2026-04-12T06:48:37.896Z</time></trkpt><trkpt lat="43.6019574" lon="6.7852011"><ele>208.0</ele><time>2026-04-12T06:48:38.87Z</time></trkpt><trkpt lat="43.6020467" lon="6.7851273"><ele>208.0</ele><time>2026-04-12T06:48:39.863Z</time></trkpt><trkpt lat="43.6021382" lon="6.7850394"><ele>208.0</ele><time>2026-04-12T06:48:40.887Z</time></trkpt><trkpt lat="43.6022342" lon="6.7849557"><ele>208.0</ele><time>2026-04-12T06:48:41.87Z</time></trkpt><trkpt lat="43.6023256" lon="6.7848676"><ele>205.33333333333331</ele><time>2026-04-12T06:48:43.05Z</time></trkpt><trkpt lat="43.6025129" lon="6.7846929"><ele>202.66666666666669</ele><time>2026-04-12T06:48:44.909Z</time></trkpt><trkpt lat="43.6026117" lon="6.7846053"><ele>200.0</ele><time>2026-04-12T06:48:45.865Z</time></trkpt><trkpt lat="43.6027022" lon="6.7845218"><ele>200.0</ele><time>2026-04-12T06:48:46.853Z</time></trkpt><trkpt lat="43.6027983" lon="6.7844406"><ele>200.0</ele><time>2026-04-12T06:48:47.869Z</time></trkpt><trkpt lat="43.6028941" lon="6.7843561"><ele>200.0</ele><time>2026-04-12T06:48:48.825Z</time></trkpt><trkpt lat="43.6029867" lon="6.784267"><ele>200.0</ele><time>2026-04-12T06:48:49.89Z</time></trkpt><trkpt lat="43.6030779" lon="6.7841855"><ele>200.0</ele><time>2026-04-12T06:48:50.865Z</time></trkpt><trkpt lat="43.6031698" lon="6.7841067"><ele>199.6</ele><time>2026-04-12T06:48:51.862Z</time></trkpt><trkpt lat="43.6032571" lon="6.784029"><ele>199.2</ele><time>2026-04-12T06:48:52.85Z</time></trkpt><trkpt lat="43.6033456" lon="6.7839532"><ele>198.8</ele><time>2026-04-12T06:48:53.877Z</time></trkpt><trkpt lat="43.6034313" lon="6.7838864"><ele>198.4</ele><time>2026-04-12T06:48:54.859Z</time></trkpt><trkpt lat="43.603516" lon="6.7838147"><ele>198.0</ele><time>2026-04-12T06:48:55.873Z</time></trkpt><trkpt lat="43.6036064" lon="6.7837395"><ele>198.2</ele><time>2026-04-12T06:48:56.841Z</time></trkpt><trkpt lat="43.6036945" lon="6.7836666"><ele>198.4</ele><time>2026-04-12T06:48:57.868Z</time></trkpt><trkpt lat="43.6037755" lon="6.7835823"><ele>198.6</ele><time>2026-04-12T06:48:58.877Z</time></trkpt><trkpt lat="43.6038529" lon="6.7835019"><ele>198.79999999999998</ele><time>2026-04-12T06:48:59.878Z</time></trkpt><trkpt lat="43.6039307" lon="6.7834238"><ele>199.0</ele><time>2026-04-12T06:49:00.885Z</time></trkpt><trkpt lat="43.6040057" lon="6.7833518"><ele>198.99999999999997</ele><time>2026-04-12T06:49:01.851Z</time></trkpt><trkpt lat="43.6040801" lon="6.7832867"><ele>199.0</ele><time>2026-04-12T06:49:02.852Z</time></trkpt><trkpt lat="43.6041638" lon="6.7832247"><ele>199.0</ele><time>2026-04-12T06:49:03.841Z</time></trkpt><trkpt lat="43.6042446" lon="6.7831667"><ele>199.0</ele><time>2026-04-12T06:49:04.85Z</time></trkpt><trkpt lat="43.6043179" lon="6.7831011"><ele>198.99999999999997</ele><time>2026-04-12T06:49:05.871Z</time></trkpt><trkpt lat="43.6043898" lon="6.7830378"><ele>199.0</ele><time>2026-04-12T06:49:06.869Z</time></trkpt><trkpt lat="43.6044567" lon="6.7829707"><ele>198.85714285714283</ele><time>2026-04-12T06:49:07.872Z</time></trkpt><trkpt lat="43.6045159" lon="6.7829065"><ele>198.71428571428572</ele><time>2026-04-12T06:49:08.879Z</time></trkpt><trkpt lat="43.6045746" lon="6.7828426"><ele>198.57142857142856</ele><time>2026-04-12T06:49:09.869Z</time></trkpt><trkpt lat="43.6046294" lon="6.782778"><ele>198.42857142857142</ele><time>2026-04-12T06:49:10.871Z</time></trkpt><trkpt lat="43.6046888" lon="6.7827101"><ele>198.28571428571428</ele><time>2026-04-12T06:49:11.865Z</time></trkpt><trkpt lat="43.6047442" lon="6.7826403"><ele>198.14285714285714</ele><time>2026-04-12T06:49:12.855Z</time></trkpt><trkpt lat="43.6047943" lon="6.7825752"><ele>198.0</ele><time>2026-04-12T06:49:13.877Z</time></trkpt><trkpt lat="43.6048476" lon="6.7825169"><ele>198.0</ele><time>2026-04-12T06:49:14.902Z</time></trkpt><trkpt lat="43.6049001" lon="6.7824524"><ele>198.0</ele><time>2026-04-12T06:49:15.881Z</time></trkpt><trkpt lat="43.6049539" lon="6.7823884"><ele>198.0</ele><time>2026-04-12T06:49:16.881Z</time></trkpt><trkpt lat="43.6050095" lon="6.7823178"><ele>198.0</ele><time>2026-04-12T06:49:17.865Z</time></trkpt><trkpt lat="43.6050618" lon="6.7822426"><ele>198.0</ele><time>2026-04-12T06:49:18.875Z</time></trkpt><trkpt lat="43.6051131" lon="6.7821769"><ele>198.0</ele><time>2026-04-12T06:49:19.852Z</time></trkpt><trkpt lat="43.6051607" lon="6.7820986"><ele>198.0</ele><time>2026-04-12T06:49:20.884Z</time></trkpt><trkpt lat="43.6052047" lon="6.7820198"><ele>198.0</ele><time>2026-04-12T06:49:21.906Z</time></trkpt><trkpt lat="43.6052494" lon="6.781933"><ele>198.0</ele><time>2026-04-12T06:49:22.853Z</time></trkpt><trkpt lat="43.6052964" lon="6.7818374"><ele>198.0</ele><time>2026-04-12T06:49:23.869Z</time></trkpt><trkpt lat="43.6053449" lon="6.7817378"><ele>198.0</ele><time>2026-04-12T06:49:24.851Z</time></trkpt><trkpt lat="43.6053934" lon="6.7816334"><ele>198.0</ele><time>2026-04-12T06:49:25.887Z</time></trkpt><trkpt lat="43.6054428" lon="6.7815327"><ele>198.0</ele><time>2026-04-12T06:49:26.87Z</time></trkpt><trkpt lat="43.60549" lon="6.7814246"><ele>197.8</ele><time>2026-04-12T06:49:27.892Z</time></trkpt><trkpt lat="43.6055385" lon="6.7813158"><ele>197.60000000000002</ele><time>2026-04-12T06:49:28.875Z</time></trkpt><trkpt lat="43.6055811" lon="6.781203"><ele>197.39999999999998</ele><time>2026-04-12T06:49:29.882Z</time></trkpt><trkpt lat="43.6056273" lon="6.7810987"><ele>197.2</ele><time>2026-04-12T06:49:30.877Z</time></trkpt><trkpt lat="43.6056865" lon="6.7809934"><ele>197.0</ele><time>2026-04-12T06:49:31.885Z</time></trkpt><trkpt lat="43.6057472" lon="6.7809016"><ele>197.0</ele><time>2026-04-12T06:49:32.884Z</time></trkpt><trkpt lat="43.605809" lon="6.7808038"><ele>197.0</ele><time>2026-04-12T06:49:33.829Z</time></trkpt><trkpt lat="43.6058723" lon="6.7807026"><ele>197.0</ele><time>2026-04-12T06:49:34.883Z</time></trkpt><trkpt lat="43.6059322" lon="6.7806039"><ele>197.0</ele><time>2026-04-12T06:49:35.875Z</time></trkpt><trkpt lat="43.6059933" lon="6.7805022"><ele>197.0</ele><time>2026-04-12T06:49:36.873Z</time></trkpt><trkpt lat="43.6060517" lon="6.7804058"><ele>197.0</ele><time>2026-04-12T06:49:37.884Z</time></trkpt><trkpt lat="43.6060991" lon="6.7803208"><ele>197.0</ele><time>2026-04-12T06:49:38.888Z</time></trkpt><trkpt lat="43.6061465" lon="6.7802409"><ele>197.0</ele><time>2026-04-12T06:49:39.868Z</time></trkpt><trkpt lat="43.6061891" lon="6.7801593"><ele>197.0</ele><time>2026-04-12T06:49:40.856Z</time></trkpt><trkpt lat="43.6062221" lon="6.780076"><ele>197.0</ele><time>2026-04-12T06:49:41.858Z</time></trkpt><trkpt lat="43.6062445" lon="6.7799819"><ele>197.0</ele><time>2026-04-12T06:49:42.863Z</time></trkpt><trkpt lat="43.606261" lon="6.7798871"><ele>197.0</ele><time>2026-04-12T06:49:43.843Z</time></trkpt><trkpt lat="43.6062802" lon="6.7797877"><ele>197.50000000000003</ele><time>2026-04-12T06:49:44.825Z</time></trkpt><trkpt lat="43.6062971" lon="6.7796875"><ele>198.0</ele><time>2026-04-12T06:49:45.875Z</time></trkpt><trkpt lat="43.6063125" lon="6.7795829"><ele>198.5</ele><time>2026-04-12T06:49:46.876Z</time></trkpt><trkpt lat="43.6063346" lon="6.7794766"><ele>199.0</ele><time>2026-04-12T06:49:47.882Z</time></trkpt><trkpt lat="43.6063546" lon="6.7793769"><ele>199.50000000000003</ele><time>2026-04-12T06:49:48.888Z</time></trkpt><trkpt lat="43.6063786" lon="6.7792756"><ele>200.0</ele><time>2026-04-12T06:49:49.873Z</time></trkpt><trkpt lat="43.6063942" lon="6.7791704"><ele>200.00000000000003</ele><time>2026-04-12T06:49:50.864Z</time></trkpt><trkpt lat="43.6064092" lon="6.7790625"><ele>200.0</ele><time>2026-04-12T06:49:51.837Z</time></trkpt><trkpt lat="43.6064258" lon="6.7789614"><ele>200.0</ele><time>2026-04-12T06:49:52.876Z</time></trkpt><trkpt lat="43.6064444" lon="6.7788601"><ele>200.0</ele><time>2026-04-12T06:49:53.891Z</time></trkpt><trkpt lat="43.6064637" lon="6.7787549"><ele>200.00000000000003</ele><time>2026-04-12T06:49:54.872Z</time></trkpt><trkpt lat="43.6064784" lon="6.7786538"><ele>200.0</ele><time>2026-04-12T06:49:55.905Z</time></trkpt><trkpt lat="43.6064909" lon="6.7785559"><ele>199.71428571428572</ele><time>2026-04-12T06:49:56.886Z</time></trkpt><trkpt lat="43.6065128" lon="6.7784671"><ele>199.42857142857144</ele><time>2026-04-12T06:49:57.898Z</time></trkpt><trkpt lat="43.6065373" lon="6.7783749"><ele>199.14285714285717</ele><time>2026-04-12T06:49:58.897Z</time></trkpt><trkpt lat="43.6065631" lon="6.7782855"><ele>198.85714285714286</ele><time>2026-04-12T06:49:59.887Z</time></trkpt><trkpt lat="43.6065951" lon="6.7781954"><ele>198.57142857142856</ele><time>2026-04-12T06:50:00.868Z</time></trkpt><trkpt lat="43.6066365" lon="6.77811"><ele>198.2857142857143</ele><time>2026-04-12T06:50:01.863Z</time></trkpt><trkpt lat="43.6066821" lon="6.7780327"><ele>198.0</ele><time>2026-04-12T06:50:02.868Z</time></trkpt><trkpt lat="43.6067275" lon="6.777955"><ele>198.0</ele><time>2026-04-12T06:50:03.872Z</time></trkpt><trkpt lat="43.606771" lon="6.7778671"><ele>198.0</ele><time>2026-04-12T06:50:04.861Z</time></trkpt><trkpt lat="43.6068154" lon="6.7777772"><ele>198.0</ele><time>2026-04-12T06:50:05.909Z</time></trkpt><trkpt lat="43.606858" lon="6.7776922"><ele>198.0</ele><time>2026-04-12T06:50:06.883Z</time></trkpt><trkpt lat="43.6068945" lon="6.7776084"><ele>198.0</ele><time>2026-04-12T06:50:07.862Z</time></trkpt><trkpt lat="43.6069229" lon="6.7775165"><ele>198.0</ele><time>2026-04-12T06:50:08.831Z</time></trkpt><trkpt lat="43.606952" lon="6.7774217"><ele>198.0</ele><time>2026-04-12T06:50:09.858Z</time></trkpt><trkpt lat="43.6069846" lon="6.777329"><ele>198.5</ele><time>2026-04-12T06:50:10.889Z</time></trkpt><trkpt lat="43.6070211" lon="6.7772427"><ele>199.0</ele><time>2026-04-12T06:50:11.886Z</time></trkpt><trkpt lat="43.6070627" lon="6.7771601"><ele>199.5</ele><time>2026-04-12T06:50:12.88Z</time></trkpt><trkpt lat="43.6071047" lon="6.7770947"><ele>200.0</ele><time>2026-04-12T06:50:13.88Z</time></trkpt><trkpt lat="43.6072135" lon="6.7770081"><ele>200.5</ele><time>2026-04-12T06:50:15.892Z</time></trkpt><trkpt lat="43.6072734" lon="6.776973"><ele>201.0</ele><time>2026-04-12T06:50:16.891Z</time></trkpt><trkpt lat="43.6073617" lon="6.7768808"><ele>201.0</ele><time>2026-04-12T06:50:18.863Z</time></trkpt><trkpt lat="43.6074387" lon="6.7767687"><ele>201.0</ele><time>2026-04-12T06:50:20.876Z</time></trkpt><trkpt lat="43.6075096" lon="6.7766447"><ele>201.0</ele><time>2026-04-12T06:50:22.898Z</time></trkpt><trkpt lat="43.6075824" lon="6.7765207"><ele>201.0</ele><time>2026-04-12T06:50:24.854Z</time></trkpt><trkpt lat="43.6076586" lon="6.7764"><ele>201.0</ele><time>2026-04-12T06:50:26.871Z</time></trkpt><trkpt lat="43.607726" lon="6.7762834"><ele>201.0</ele><time>2026-04-12T06:50:28.878Z</time></trkpt><trkpt lat="43.6077897" lon="6.7761657"><ele>201.0</ele><time>2026-04-12T06:50:30.858Z</time></trkpt><trkpt lat="43.607854" lon="6.7760467"><ele>201.0</ele><time>2026-04-12T06:50:32.87Z</time></trkpt><trkpt lat="43.6079196" lon="6.7759192"><ele>201.0</ele><time>2026-04-12T06:50:34.873Z</time></trkpt><trkpt lat="43.6079866" lon="6.7758045"><ele>202.33333333333334</ele><time>2026-04-12T06:50:36.896Z</time></trkpt><trkpt lat="43.6080429" lon="6.7756953"><ele>203.66666666666669</ele><time>2026-04-12T06:50:38.861Z</time></trkpt><trkpt lat="43.6080977" lon="6.7755907"><ele>205.0</ele><time>2026-04-12T06:50:40.858Z</time></trkpt><trkpt lat="43.6081514" lon="6.7754963"><ele>206.33333333333334</ele><time>2026-04-12T06:50:42.842Z</time></trkpt><trkpt lat="43.6082111" lon="6.7754233"><ele>207.66666666666669</ele><time>2026-04-12T06:50:44.841Z</time></trkpt><trkpt lat="43.6082665" lon="6.7753392"><ele>209.0</ele><time>2026-04-12T06:50:46.873Z</time></trkpt><trkpt lat="43.6083185" lon="6.775257"><ele>209.00000000000003</ele><time>2026-04-12T06:50:48.833Z</time></trkpt><trkpt lat="43.6083813" lon="6.7751349"><ele>209.0</ele><time>2026-04-12T06:50:51.868Z</time></trkpt><trkpt lat="43.608423" lon="6.7750378"><ele>209.0</ele><time>2026-04-12T06:50:53.84Z</time></trkpt><trkpt lat="43.6084807" lon="6.7749417"><ele>209.0</ele><time>2026-04-12T06:50:56.867Z</time></trkpt><trkpt lat="43.6085126" lon="6.7748659"><ele>209.00000000000003</ele><time>2026-04-12T06:50:58.884Z</time></trkpt><trkpt lat="43.6085643" lon="6.7747972"><ele>209.0</ele><time>2026-04-12T06:51:01.86Z</time></trkpt><trkpt lat="43.6086169" lon="6.774715"><ele>210.66666666666669</ele><time>2026-04-12T06:51:04.888Z</time></trkpt><trkpt lat="43.6086649" lon="6.7746309"><ele>212.33333333333334</ele><time>2026-04-12T06:51:07.858Z</time></trkpt><trkpt lat="43.6087261" lon="6.7745339"><ele>214.0</ele><time>2026-04-12T06:51:10.844Z</time></trkpt><trkpt lat="43.608777" lon="6.7744328"><ele>215.66666666666669</ele><time>2026-04-12T06:51:13.853Z</time></trkpt><trkpt lat="43.6088341" lon="6.774341"><ele>217.33333333333334</ele><time>2026-04-12T06:51:16.881Z</time></trkpt><trkpt lat="43.6088894" lon="6.7742569"><ele>219.0</ele><time>2026-04-12T06:51:19.887Z</time></trkpt><trkpt lat="43.6089387" lon="6.7741696"><ele>219.0</ele><time>2026-04-12T06:51:22.864Z</time></trkpt><trkpt lat="43.6089974" lon="6.7740885"><ele>219.0</ele><time>2026-04-12T06:51:25.821Z</time></trkpt><trkpt lat="43.6090537" lon="6.7740026"><ele>219.0</ele><time>2026-04-12T06:51:28.855Z</time></trkpt><trkpt lat="43.6091085" lon="6.7739332"><ele>219.0</ele><time>2026-04-12T06:51:31.854Z</time></trkpt><trkpt lat="43.6091751" lon="6.7739025"><ele>219.0</ele><time>2026-04-12T06:51:34.862Z</time></trkpt><trkpt lat="43.609248" lon="6.7739583"><ele>219.0</ele><time>2026-04-12T06:51:38.896Z</time></trkpt><trkpt lat="43.6093018" lon="6.7740461"><ele>219.0</ele><time>2026-04-12T06:51:41.855Z</time></trkpt><trkpt lat="43.6093433" lon="6.7741324"><ele>219.0</ele><time>2026-04-12T06:51:44.854Z</time></trkpt><trkpt lat="43.6093951" lon="6.7742223"><ele>219.0</ele><time>2026-04-12T06:51:47.871Z</time></trkpt><trkpt lat="43.6094489" lon="6.7742936"><ele>219.0</ele><time>2026-04-12T06:51:50.889Z</time></trkpt><trkpt lat="43.6094979" lon="6.7743774"><ele>219.0</ele><time>2026-04-12T06:51:53.875Z</time></trkpt><trkpt lat="43.6095451" lon="6.7744561"><ele>219.0</ele><time>2026-04-12T06:51:56.891Z</time></trkpt><trkpt lat="43.6096042" lon="6.7745431"><ele>221.5</ele><time>2026-04-12T06:51:59.881Z</time></trkpt><trkpt lat="43.6096569" lon="6.7746162"><ele>224.0</ele><time>2026-04-12T06:52:02.874Z</time></trkpt><trkpt lat="43.6097067" lon="6.7746919"><ele>226.5</ele><time>2026-04-12T06:52:05.888Z</time></trkpt><trkpt lat="43.6097485" lon="6.7747691"><ele>229.0</ele><time>2026-04-12T06:52:08.87Z</time></trkpt><trkpt lat="43.6097805" lon="6.7748682"><ele>231.5</ele><time>2026-04-12T06:52:11.874Z</time></trkpt><trkpt lat="43.6098106" lon="6.7749638"><ele>234.0</ele><time>2026-04-12T06:52:14.875Z</time></trkpt><trkpt lat="43.6098392" lon="6.775063"><ele>234.0</ele><time>2026-04-12T06:52:17.871Z</time></trkpt><trkpt lat="43.6098673" lon="6.7751642"><ele>234.0</ele><time>2026-04-12T06:52:20.847Z</time></trkpt><trkpt lat="43.6099032" lon="6.7752622"><ele>234.0</ele><time>2026-04-12T06:52:23.86Z</time></trkpt><trkpt lat="43.6099422" lon="6.7753665"><ele>234.0</ele><time>2026-04-12T06:52:26.874Z</time></trkpt><trkpt lat="43.6099782" lon="6.7754734"><ele>234.0</ele><time>2026-04-12T06:52:29.883Z</time></trkpt><trkpt lat="43.6100125" lon="6.7755792"><ele>234.0</ele><time>2026-04-12T06:52:32.865Z</time></trkpt><trkpt lat="43.6100348" lon="6.7756889"><ele>234.0</ele><time>2026-04-12T06:52:35.853Z</time></trkpt><trkpt lat="43.610068" lon="6.7757873"><ele>234.0</ele><time>2026-04-12T06:52:38.832Z</time></trkpt><trkpt lat="43.6100937" lon="6.775882"><ele>234.0</ele><time>2026-04-12T06:52:41.857Z</time></trkpt><trkpt lat="43.6101161" lon="6.7759796"><ele>234.0</ele><time>2026-04-12T06:52:44.863Z</time></trkpt><trkpt lat="43.6101313" lon="6.7760879"><ele>234.0</ele><time>2026-04-12T06:52:47.843Z</time></trkpt><trkpt lat="43.6101435" lon="6.7761966"><ele>234.0</ele><time>2026-04-12T06:52:50.879Z</time></trkpt><trkpt lat="43.6101573" lon="6.7763052"><ele>234.16666666666666</ele><time>2026-04-12T06:52:53.873Z</time></trkpt><trkpt lat="43.6101698" lon="6.7764209"><ele>234.33333333333331</ele><time>2026-04-12T06:52:56.878Z</time></trkpt><trkpt lat="43.6101913" lon="6.7765354"><ele>234.5</ele><time>2026-04-12T06:52:59.863Z</time></trkpt><trkpt lat="43.6102214" lon="6.776643"><ele>234.66666666666666</ele><time>2026-04-12T06:53:02.83Z</time></trkpt><trkpt lat="43.6102686" lon="6.7767425"><ele>234.83333333333331</ele><time>2026-04-12T06:53:05.876Z</time></trkpt><trkpt lat="43.6103199" lon="6.7768269"><ele>235.0</ele><time>2026-04-12T06:53:08.877Z</time></trkpt><trkpt lat="43.6103879" lon="6.7768936"><ele>234.99999999999997</ele><time>2026-04-12T06:53:11.877Z</time></trkpt><trkpt lat="43.6104654" lon="6.7769428"><ele>235.0</ele><time>2026-04-12T06:53:14.876Z</time></trkpt><trkpt lat="43.6105529" lon="6.7769718"><ele>235.0</ele><time>2026-04-12T06:53:17.877Z</time></trkpt><trkpt lat="43.6106405" lon="6.7769669"><ele>235.0</ele><time>2026-04-12T06:53:20.891Z</time></trkpt><trkpt lat="43.6107152" lon="6.7769256"><ele>234.99999999999997</ele><time>2026-04-12T06:53:23.851Z</time></trkpt><trkpt lat="43.6107716" lon="6.7768481"><ele>235.0</ele><time>2026-04-12T06:53:26.859Z</time></trkpt><trkpt lat="43.6107851" lon="6.7767312"><ele>237.0</ele><time>2026-04-12T06:53:29.852Z</time></trkpt><trkpt lat="43.6107614" lon="6.7766287"><ele>238.99999999999997</ele><time>2026-04-12T06:53:32.838Z</time></trkpt><trkpt lat="43.6107117" lon="6.7765545"><ele>241.0</ele><time>2026-04-12T06:53:35.872Z</time></trkpt><trkpt lat="43.6106704" lon="6.77648"><ele>243.0</ele><time>2026-04-12T06:53:38.876Z</time></trkpt><trkpt lat="43.6106397" lon="6.7763898"><ele>244.99999999999997</ele><time>2026-04-12T06:53:41.85Z</time></trkpt><trkpt lat="43.6106327" lon="6.7762963"><ele>247.0</ele><time>2026-04-12T06:53:44.871Z</time></trkpt><trkpt lat="43.6106359" lon="6.7762005"><ele>249.0</ele><time>2026-04-12T06:53:47.874Z</time></trkpt><trkpt lat="43.6106347" lon="6.7760805"><ele>250.16666666666666</ele><time>2026-04-12T06:53:50.878Z</time></trkpt><trkpt lat="43.6106402" lon="6.7759769"><ele>251.33333333333331</ele><time>2026-04-12T06:53:53.863Z</time></trkpt><trkpt lat="43.6106397" lon="6.7758552"><ele>252.5</ele><time>2026-04-12T06:53:56.853Z</time></trkpt><trkpt lat="43.6106646" lon="6.7757361"><ele>253.66666666666666</ele><time>2026-04-12T06:53:59.849Z</time></trkpt><trkpt lat="43.6106875" lon="6.7756533"><ele>254.83333333333331</ele><time>2026-04-12T06:54:01.862Z</time></trkpt><trkpt lat="43.610712" lon="6.7755719"><ele>256.0</ele><time>2026-04-12T06:54:03.864Z</time></trkpt><trkpt lat="43.6107565" lon="6.775466"><ele>255.99999999999997</ele><time>2026-04-12T06:54:06.86Z</time></trkpt><trkpt lat="43.6108088" lon="6.7753766"><ele>256.0</ele><time>2026-04-12T06:54:09.875Z</time></trkpt><trkpt lat="43.6108682" lon="6.7752931"><ele>256.0</ele><time>2026-04-12T06:54:12.87Z</time></trkpt><trkpt lat="43.6109261" lon="6.7752197"><ele>256.0</ele><time>2026-04-12T06:54:15.862Z</time></trkpt><trkpt lat="43.6109834" lon="6.775143"><ele>255.99999999999997</ele><time>2026-04-12T06:54:18.875Z</time></trkpt><trkpt lat="43.6110483" lon="6.7750788"><ele>256.0</ele><time>2026-04-12T06:54:21.86Z</time></trkpt><trkpt lat="43.6111077" lon="6.7750119"><ele>258.0</ele><time>2026-04-12T06:54:24.831Z</time></trkpt><trkpt lat="43.6111781" lon="6.7749515"><ele>260.0</ele><time>2026-04-12T06:54:27.856Z</time></trkpt><trkpt lat="43.6112474" lon="6.7748969"><ele>262.0</ele><time>2026-04-12T06:54:30.851Z</time></trkpt><trkpt lat="43.6113163" lon="6.7748552"><ele>264.0</ele><time>2026-04-12T06:54:33.88Z</time></trkpt><trkpt lat="43.6113918" lon="6.7748136"><ele>266.0</ele><time>2026-04-12T06:54:36.865Z</time></trkpt><trkpt lat="43.6114637" lon="6.7747801"><ele>268.0</ele><time>2026-04-12T06:54:39.885Z</time></trkpt><trkpt lat="43.6115396" lon="6.7747501"><ele>268.0</ele><time>2026-04-12T06:54:42.869Z</time></trkpt><trkpt lat="43.6116084" lon="6.7747047"><ele>268.0</ele><time>2026-04-12T06:54:45.9Z</time></trkpt><trkpt lat="43.611673" lon="6.7746617"><ele>268.0</ele><time>2026-04-12T06:54:48.847Z</time></trkpt><trkpt lat="43.6117355" lon="6.7746079"><ele>268.0</ele><time>2026-04-12T06:54:51.871Z</time></trkpt><trkpt lat="43.6118042" lon="6.7745361"><ele>268.0</ele><time>2026-04-12T06:54:54.887Z</time></trkpt><trkpt lat="43.6118681" lon="6.7744727"><ele>268.0</ele><time>2026-04-12T06:54:57.877Z</time></trkpt><trkpt lat="43.6119353" lon="6.7744044"><ele>269.16666666666663</ele><time>2026-04-12T06:55:00.878Z</time></trkpt><trkpt lat="43.6120045" lon="6.7743328"><ele>270.3333333333333</ele><time>2026-04-12T06:55:03.871Z</time></trkpt><trkpt lat="43.612066" lon="6.7742769"><ele>271.5</ele><time>2026-04-12T06:55:06.875Z</time></trkpt><trkpt lat="43.6121342" lon="6.7742141"><ele>272.6666666666667</ele><time>2026-04-12T06:55:09.852Z</time></trkpt><trkpt lat="43.6121925" lon="6.7741571"><ele>273.83333333333337</ele><time>2026-04-12T06:55:12.857Z</time></trkpt><trkpt lat="43.6122528" lon="6.7740965"><ele>275.0</ele><time>2026-04-12T06:55:15.852Z</time></trkpt><trkpt lat="43.6123152" lon="6.7740502"><ele>275.0</ele><time>2026-04-12T06:55:18.855Z</time></trkpt><trkpt lat="43.6123859" lon="6.7739899"><ele>275.0</ele><time>2026-04-12T06:55:21.874Z</time></trkpt><trkpt lat="43.6124588" lon="6.7739344"><ele>275.0</ele><time>2026-04-12T06:55:24.884Z</time></trkpt><trkpt lat="43.6125279" lon="6.7738816"><ele>275.0</ele><time>2026-04-12T06:55:27.889Z</time></trkpt><trkpt lat="43.6125899" lon="6.7738404"><ele>275.0</ele><time>2026-04-12T06:55:30.853Z</time></trkpt><trkpt lat="43.6126651" lon="6.7738012"><ele>275.0</ele><time>2026-04-12T06:55:34.874Z</time></trkpt><trkpt lat="43.6127426" lon="6.7737527"><ele>275.0</ele><time>2026-04-12T06:55:38.871Z</time></trkpt><trkpt lat="43.6128097" lon="6.7736991"><ele>275.0</ele><time>2026-04-12T06:55:41.857Z</time></trkpt><trkpt lat="43.6128878" lon="6.7736449"><ele>275.0</ele><time>2026-04-12T06:55:44.865Z</time></trkpt><trkpt lat="43.6129559" lon="6.7736047"><ele>275.0</ele><time>2026-04-12T06:55:47.861Z</time></trkpt><trkpt lat="43.6130236" lon="6.7735667"><ele>275.0</ele><time>2026-04-12T06:55:50.868Z</time></trkpt><trkpt lat="43.6130912" lon="6.7735316"><ele>275.0</ele><time>2026-04-12T06:55:53.861Z</time></trkpt><trkpt lat="43.6131687" lon="6.7734782"><ele>276.6666666666667</ele><time>2026-04-12T06:55:56.857Z</time></trkpt><trkpt lat="43.6132414" lon="6.7734428"><ele>278.33333333333337</ele><time>2026-04-12T06:55:59.872Z</time></trkpt><trkpt lat="43.6133169" lon="6.7733953"><ele>280.0</ele><time>2026-04-12T06:56:02.857Z</time></trkpt><trkpt lat="43.6133894" lon="6.7733562"><ele>281.6666666666667</ele><time>2026-04-12T06:56:05.873Z</time></trkpt><trkpt lat="43.6134607" lon="6.7733303"><ele>283.3333333333333</ele><time>2026-04-12T06:56:08.855Z</time></trkpt><trkpt lat="43.6135378" lon="6.7732917"><ele>285.0</ele><time>2026-04-12T06:56:11.84Z</time></trkpt><trkpt lat="43.6136215" lon="6.7732478"><ele>286.6666666666667</ele><time>2026-04-12T06:56:14.854Z</time></trkpt><trkpt lat="43.6136917" lon="6.7732217"><ele>288.3333333333333</ele><time>2026-04-12T06:56:17.856Z</time></trkpt><trkpt lat="43.6137745" lon="6.7731891"><ele>290.0</ele><time>2026-04-12T06:56:20.868Z</time></trkpt><trkpt lat="43.6138517" lon="6.7731599"><ele>291.66666666666663</ele><time>2026-04-12T06:56:23.86Z</time></trkpt><trkpt lat="43.6139267" lon="6.7731425"><ele>293.3333333333333</ele><time>2026-04-12T06:56:26.868Z</time></trkpt><trkpt lat="43.6139962" lon="6.7731228"><ele>295.0</ele><time>2026-04-12T06:56:29.871Z</time></trkpt><trkpt lat="43.6140715" lon="6.7731017"><ele>295.00000000000006</ele><time>2026-04-12T06:56:32.852Z</time></trkpt><trkpt lat="43.6141365" lon="6.7730699"><ele>295.0</ele><time>2026-04-12T06:56:35.863Z</time></trkpt><trkpt lat="43.6142035" lon="6.7730326"><ele>295.0</ele><time>2026-04-12T06:56:38.857Z</time></trkpt><trkpt lat="43.6142746" lon="6.7729907"><ele>295.0</ele><time>2026-04-12T06:56:41.866Z</time></trkpt><trkpt lat="43.61434" lon="6.7729513"><ele>295.0</ele><time>2026-04-12T06:56:44.871Z</time></trkpt><trkpt lat="43.614401" lon="6.7729092"><ele>295.00000000000006</ele><time>2026-04-12T06:56:47.873Z</time></trkpt><trkpt lat="43.6144555" lon="6.7728607"><ele>295.0</ele><time>2026-04-12T06:56:50.887Z</time></trkpt><trkpt lat="43.6145203" lon="6.7728127"><ele>296.16666666666663</ele><time>2026-04-12T06:56:53.872Z</time></trkpt><trkpt lat="43.6145901" lon="6.7727666"><ele>297.3333333333333</ele><time>2026-04-12T06:56:56.858Z</time></trkpt><trkpt lat="43.6146595" lon="6.772703"><ele>298.5</ele><time>2026-04-12T06:56:59.874Z</time></trkpt><trkpt lat="43.6147291" lon="6.7726467"><ele>299.6666666666667</ele><time>2026-04-12T06:57:02.891Z</time></trkpt><trkpt lat="43.6147941" lon="6.7725851"><ele>300.83333333333337</ele><time>2026-04-12T06:57:05.865Z</time></trkpt><trkpt lat="43.6148509" lon="6.772513"><ele>302.0</ele><time>2026-04-12T06:57:08.876Z</time></trkpt><trkpt lat="43.6149032" lon="6.7724229"><ele>302.0</ele><time>2026-04-12T06:57:11.882Z</time></trkpt><trkpt lat="43.6149603" lon="6.7723306"><ele>302.0</ele><time>2026-04-12T06:57:14.863Z</time></trkpt><trkpt lat="43.6150096" lon="6.7722324"><ele>302.0</ele><time>2026-04-12T06:57:17.867Z</time></trkpt><trkpt lat="43.6150635" lon="6.7721402"><ele>302.0</ele><time>2026-04-12T06:57:20.874Z</time></trkpt><trkpt lat="43.6151241" lon="6.7720661"><ele>302.0</ele><time>2026-04-12T06:57:23.863Z</time></trkpt><trkpt lat="43.6151922" lon="6.7719934"><ele>302.0</ele><time>2026-04-12T06:57:26.875Z</time></trkpt><trkpt lat="43.6152539" lon="6.7719176"><ele>304.6666666666667</ele><time>2026-04-12T06:57:29.86Z</time></trkpt><trkpt lat="43.6153225" lon="6.7718527"><ele>307.33333333333337</ele><time>2026-04-12T06:57:32.873Z</time></trkpt><trkpt lat="43.6153871" lon="6.7717725"><ele>310.0</ele><time>2026-04-12T06:57:35.876Z</time></trkpt><trkpt lat="43.6154419" lon="6.7717019"><ele>312.6666666666667</ele><time>2026-04-12T06:57:38.844Z</time></trkpt><trkpt lat="43.6155025" lon="6.7716282"><ele>315.3333333333333</ele><time>2026-04-12T06:57:41.862Z</time></trkpt><trkpt lat="43.6155574" lon="6.7715511"><ele>318.0</ele><time>2026-04-12T06:57:44.826Z</time></trkpt><trkpt lat="43.6156074" lon="6.7714717"><ele>318.0</ele><time>2026-04-12T06:57:47.874Z</time></trkpt><trkpt lat="43.6156541" lon="6.7713655"><ele>318.0</ele><time>2026-04-12T06:57:50.874Z</time></trkpt><trkpt lat="43.6156934" lon="6.7712872"><ele>318.0</ele><time>2026-04-12T06:57:53.852Z</time></trkpt><trkpt lat="43.6157409" lon="6.7711961"><ele>318.0</ele><time>2026-04-12T06:57:56.861Z</time></trkpt><trkpt lat="43.6157823" lon="6.7711072"><ele>318.0</ele><time>2026-04-12T06:57:59.865Z</time></trkpt><trkpt lat="43.6158193" lon="6.7710116"><ele>318.0</ele><time>2026-04-12T06:58:02.838Z</time></trkpt><trkpt lat="43.6158434" lon="6.7709071"><ele>316.7142857142857</ele><time>2026-04-12T06:58:05.874Z</time></trkpt><trkpt lat="43.6158686" lon="6.7708221"><ele>315.42857142857144</ele><time>2026-04-12T06:58:07.859Z</time></trkpt><trkpt lat="43.6158934" lon="6.7707088"><ele>314.14285714285717</ele><time>2026-04-12T06:58:10.865Z</time></trkpt><trkpt lat="43.6159174" lon="6.7706192"><ele>312.8571428571429</ele><time>2026-04-12T06:58:12.864Z</time></trkpt><trkpt lat="43.6159403" lon="6.7705308"><ele>311.57142857142856</ele><time>2026-04-12T06:58:14.846Z</time></trkpt><trkpt lat="43.6159723" lon="6.7704379"><ele>310.28571428571433</ele><time>2026-04-12T06:58:16.861Z</time></trkpt><trkpt lat="43.6159915" lon="6.7703495"><ele>309.0</ele><time>2026-04-12T06:58:18.856Z</time></trkpt><trkpt lat="43.6160211" lon="6.7702283"><ele>308.5714285714286</ele><time>2026-04-12T06:58:21.857Z</time></trkpt><trkpt lat="43.6160383" lon="6.7701095"><ele>308.14285714285717</ele><time>2026-04-12T06:58:24.869Z</time></trkpt><trkpt lat="43.616054" lon="6.7700226"><ele>307.7142857142857</ele><time>2026-04-12T06:58:26.868Z</time></trkpt><trkpt lat="43.6160773" lon="6.7699328"><ele>307.28571428571433</ele><time>2026-04-12T06:58:28.885Z</time></trkpt><trkpt lat="43.6161068" lon="6.7698526"><ele>306.8571428571429</ele><time>2026-04-12T06:58:30.849Z</time></trkpt><trkpt lat="43.6161505" lon="6.7697376"><ele>306.42857142857144</ele><time>2026-04-12T06:58:33.866Z</time></trkpt><trkpt lat="43.6161796" lon="6.7696581"><ele>306.0</ele><time>2026-04-12T06:58:35.875Z</time></trkpt><trkpt lat="43.6162244" lon="6.7695415"><ele>308.57142857142856</ele><time>2026-04-12T06:58:38.864Z</time></trkpt><trkpt lat="43.6162562" lon="6.7694531"><ele>311.14285714285717</ele><time>2026-04-12T06:58:40.86Z</time></trkpt><trkpt lat="43.6162904" lon="6.7693782"><ele>313.7142857142857</ele><time>2026-04-12T06:58:42.859Z</time></trkpt><trkpt lat="43.6163417" lon="6.7692816"><ele>316.2857142857143</ele><time>2026-04-12T06:58:45.881Z</time></trkpt><trkpt lat="43.6163839" lon="6.7692152"><ele>318.85714285714283</ele><time>2026-04-12T06:58:47.891Z</time></trkpt><trkpt lat="43.6164479" lon="6.7691237"><ele>321.42857142857144</ele><time>2026-04-12T06:58:50.861Z</time></trkpt><trkpt lat="43.6164976" lon="6.769069"><ele>324.0</ele><time>2026-04-12T06:58:52.881Z</time></trkpt><trkpt lat="43.6165507" lon="6.7690137"><ele>324.0</ele><time>2026-04-12T06:58:54.866Z</time></trkpt><trkpt lat="43.6166184" lon="6.7689351"><ele>324.0</ele><time>2026-04-12T06:58:57.874Z</time></trkpt><trkpt lat="43.6166807" lon="6.7688564"><ele>324.0</ele><time>2026-04-12T06:59:00.874Z</time></trkpt><trkpt lat="43.616741" lon="6.7687661"><ele>324.0</ele><time>2026-04-12T06:59:03.854Z</time></trkpt><trkpt lat="43.6167894" lon="6.7686668"><ele>324.0</ele><time>2026-04-12T06:59:06.863Z</time></trkpt><trkpt lat="43.6168481" lon="6.768568"><ele>324.0</ele><time>2026-04-12T06:59:09.824Z</time></trkpt><trkpt lat="43.6169086" lon="6.7684703"><ele>322.3333333333333</ele><time>2026-04-12T06:59:12.859Z</time></trkpt><trkpt lat="43.6169601" lon="6.7683744"><ele>320.6666666666667</ele><time>2026-04-12T06:59:15.842Z</time></trkpt><trkpt lat="43.6170182" lon="6.7682822"><ele>319.0</ele><time>2026-04-12T06:59:18.851Z</time></trkpt><trkpt lat="43.6170563" lon="6.7682034"><ele>317.33333333333337</ele><time>2026-04-12T06:59:20.86Z</time></trkpt><trkpt lat="43.6170886" lon="6.7681259"><ele>315.6666666666667</ele><time>2026-04-12T06:59:22.861Z</time></trkpt><trkpt lat="43.6171297" lon="6.7680445"><ele>314.0</ele><time>2026-04-12T06:59:25.859Z</time></trkpt><trkpt lat="43.6171602" lon="6.7679431"><ele>318.83333333333337</ele><time>2026-04-12T06:59:28.894Z</time></trkpt><trkpt lat="43.6171798" lon="6.7678238"><ele>323.6666666666667</ele><time>2026-04-12T06:59:31.872Z</time></trkpt><trkpt lat="43.6171897" lon="6.7677176"><ele>328.5</ele><time>2026-04-12T06:59:34.872Z</time></trkpt><trkpt lat="43.6172042" lon="6.7675977"><ele>333.3333333333333</ele><time>2026-04-12T06:59:37.876Z</time></trkpt><trkpt lat="43.6172191" lon="6.7674915"><ele>338.16666666666663</ele><time>2026-04-12T06:59:40.858Z</time></trkpt><trkpt lat="43.6172238" lon="6.7673993"><ele>343.0</ele><time>2026-04-12T06:59:43.887Z</time></trkpt><trkpt lat="43.6172379" lon="6.7672957"><ele>343.0</ele><time>2026-04-12T06:59:46.863Z</time></trkpt><trkpt lat="43.617234" lon="6.7671833"><ele>343.0</ele><time>2026-04-12T06:59:49.881Z</time></trkpt><trkpt lat="43.6172296" lon="6.7670739"><ele>343.0</ele><time>2026-04-12T06:59:52.868Z</time></trkpt><trkpt lat="43.617229" lon="6.7669659"><ele>343.0</ele><time>2026-04-12T06:59:55.862Z</time></trkpt><trkpt lat="43.617227" lon="6.7668594"><ele>343.0</ele><time>2026-04-12T06:59:58.86Z</time></trkpt><trkpt lat="43.6172415" lon="6.7667529"><ele>343.0</ele><time>2026-04-12T07:00:01.843Z</time></trkpt><trkpt lat="43.617256" lon="6.7666408"><ele>343.42857142857144</ele><time>2026-04-12T07:00:04.886Z</time></trkpt><trkpt lat="43.6172674" lon="6.7665549"><ele>343.8571428571429</ele><time>2026-04-12T07:00:07.86Z</time></trkpt><trkpt lat="43.6172753" lon="6.7664663"><ele>344.2857142857143</ele><time>2026-04-12T07:00:10.845Z</time></trkpt><trkpt lat="43.617288" lon="6.7663529"><ele>344.7142857142857</ele><time>2026-04-12T07:00:13.856Z</time></trkpt><trkpt lat="43.6173085" lon="6.7662586"><ele>345.14285714285717</ele><time>2026-04-12T07:00:15.878Z</time></trkpt><trkpt lat="43.6173404" lon="6.766158"><ele>345.57142857142856</ele><time>2026-04-12T07:00:18.847Z</time></trkpt><trkpt lat="43.6173438" lon="6.7660708"><ele>346.0</ele><time>2026-04-12T07:00:21.861Z</time></trkpt><trkpt lat="43.6173641" lon="6.7659789"><ele>346.16666666666663</ele><time>2026-04-12T07:00:25.865Z</time></trkpt><trkpt lat="43.6174057" lon="6.765893"><ele>346.3333333333333</ele><time>2026-04-12T07:00:28.88Z</time></trkpt><trkpt lat="43.6174449" lon="6.7657961"><ele>346.5</ele><time>2026-04-12T07:00:31.859Z</time></trkpt><trkpt lat="43.617467" lon="6.7657101"><ele>346.6666666666667</ele><time>2026-04-12T07:00:34.827Z</time></trkpt><trkpt lat="43.61753" lon="6.7656671"><ele>346.83333333333337</ele><time>2026-04-12T07:00:37.82Z</time></trkpt><trkpt lat="43.6175989" lon="6.7656239"><ele>347.0</ele><time>2026-04-12T07:00:40.859Z</time></trkpt><trkpt lat="43.6176323" lon="6.7655122"><ele>347.0</ele><time>2026-04-12T07:00:43.846Z</time></trkpt><trkpt lat="43.617643" lon="6.76542"><ele>347.0</ele><time>2026-04-12T07:00:45.853Z</time></trkpt><trkpt lat="43.6176438" lon="6.7653303"><ele>347.0</ele><time>2026-04-12T07:00:47.837Z</time></trkpt><trkpt lat="43.6176387" lon="6.7652169"><ele>347.0</ele><time>2026-04-12T07:00:50.885Z</time></trkpt><trkpt lat="43.6176114" lon="6.7650936"><ele>347.0</ele><time>2026-04-12T07:00:53.872Z</time></trkpt><trkpt lat="43.6175832" lon="6.7649802"><ele>347.0</ele><time>2026-04-12T07:00:56.845Z</time></trkpt><trkpt lat="43.6175532" lon="6.764901"><ele>347.0</ele><time>2026-04-12T07:00:58.852Z</time></trkpt><trkpt lat="43.6175032" lon="6.7647921"><ele>347.0</ele><time>2026-04-12T07:01:01.875Z</time></trkpt><trkpt lat="43.6174638" lon="6.7646921"><ele>347.0</ele><time>2026-04-12T07:01:04.868Z</time></trkpt><trkpt lat="43.6174338" lon="6.7646024"><ele>347.0</ele><time>2026-04-12T07:01:07.864Z</time></trkpt><trkpt lat="43.6174145" lon="6.7644991"><ele>347.0</ele><time>2026-04-12T07:01:10.871Z</time></trkpt><trkpt lat="43.6174099" lon="6.7643929"><ele>347.0</ele><time>2026-04-12T07:01:13.852Z</time></trkpt><trkpt lat="43.6174275" lon="6.7642567"><ele>347.0</ele><time>2026-04-12T07:01:17.87Z</time></trkpt><trkpt lat="43.6174461" lon="6.7641388"><ele>347.0</ele><time>2026-04-12T07:01:20.866Z</time></trkpt><trkpt lat="43.6175005" lon="6.7640752"><ele>347.0</ele><time>2026-04-12T07:01:23.871Z</time></trkpt><trkpt lat="43.6175596" lon="6.7641302"><ele>347.0</ele><time>2026-04-12T07:01:26.863Z</time></trkpt><trkpt lat="43.6175701" lon="6.7642292"><ele>347.0</ele><time>2026-04-12T07:01:29.856Z</time></trkpt><trkpt lat="43.6175956" lon="6.764326"><ele>347.0</ele><time>2026-04-12T07:01:32.852Z</time></trkpt><trkpt lat="43.6176401" lon="6.7644285"><ele>347.0</ele><time>2026-04-12T07:01:35.876Z</time></trkpt><trkpt lat="43.6177235" lon="6.7644337"><ele>347.0</ele><time>2026-04-12T07:01:38.833Z</time></trkpt><trkpt lat="43.6178105" lon="6.7643826"><ele>347.0</ele><time>2026-04-12T07:01:40.86Z</time></trkpt><trkpt lat="43.6178824" lon="6.7643582"><ele>347.0</ele><time>2026-04-12T07:01:42.858Z</time></trkpt><trkpt lat="43.6179452" lon="6.7644511"><ele>347.0</ele><time>2026-04-12T07:01:45.87Z</time></trkpt><trkpt lat="43.6179634" lon="6.7645422"><ele>347.0</ele><time>2026-04-12T07:01:47.871Z</time></trkpt><trkpt lat="43.617974" lon="6.7646632"><ele>349.0</ele><time>2026-04-12T07:01:50.88Z</time></trkpt><trkpt lat="43.6179918" lon="6.7647712"><ele>351.0</ele><time>2026-04-12T07:01:52.88Z</time></trkpt><trkpt lat="43.6180115" lon="6.7648877"><ele>353.0</ele><time>2026-04-12T07:01:54.838Z</time></trkpt><trkpt lat="43.6180398" lon="6.7649935"><ele>355.0</ele><time>2026-04-12T07:01:56.871Z</time></trkpt><trkpt lat="43.6180538" lon="6.7651024"><ele>357.0</ele><time>2026-04-12T07:01:58.878Z</time></trkpt><trkpt lat="43.6180844" lon="6.7652057"><ele>359.0</ele><time>2026-04-12T07:02:00.868Z</time></trkpt><trkpt lat="43.6181231" lon="6.7652823"><ele>359.0</ele><time>2026-04-12T07:02:02.875Z</time></trkpt><trkpt lat="43.6181895" lon="6.7653019"><ele>359.0</ele><time>2026-04-12T07:02:04.834Z</time></trkpt><trkpt lat="43.618263" lon="6.7652782"><ele>359.0</ele><time>2026-04-12T07:02:06.867Z</time></trkpt><trkpt lat="43.6183396" lon="6.7652578"><ele>359.0</ele><time>2026-04-12T07:02:08.875Z</time></trkpt><trkpt lat="43.6184167" lon="6.7652247"><ele>359.0</ele><time>2026-04-12T07:02:10.867Z</time></trkpt><trkpt lat="43.6184824" lon="6.7652027"><ele>359.0</ele><time>2026-04-12T07:02:12.852Z</time></trkpt><trkpt lat="43.6185528" lon="6.7651801"><ele>359.0</ele><time>2026-04-12T07:02:14.838Z</time></trkpt><trkpt lat="43.6186254" lon="6.7651509"><ele>358.2</ele><time>2026-04-12T07:02:16.883Z</time></trkpt><trkpt lat="43.6187138" lon="6.7651287"><ele>357.4</ele><time>2026-04-12T07:02:18.88Z</time></trkpt><trkpt lat="43.6188156" lon="6.7651026"><ele>356.6</ele><time>2026-04-12T07:02:20.868Z</time></trkpt><trkpt lat="43.6189201" lon="6.7650708"><ele>355.8</ele><time>2026-04-12T07:02:22.85Z</time></trkpt><trkpt lat="43.619027" lon="6.7650693"><ele>355.0</ele><time>2026-04-12T07:02:24.87Z</time></trkpt><trkpt lat="43.6191307" lon="6.7651284"><ele>355.75</ele><time>2026-04-12T07:02:26.84Z</time></trkpt><trkpt lat="43.61918" lon="6.7652863"><ele>356.5</ele><time>2026-04-12T07:02:28.88Z</time></trkpt><trkpt lat="43.6192172" lon="6.7654453"><ele>357.25</ele><time>2026-04-12T07:02:30.864Z</time></trkpt><trkpt lat="43.6192446" lon="6.7656045"><ele>358.0</ele><time>2026-04-12T07:02:32.881Z</time></trkpt><trkpt lat="43.6192767" lon="6.7657597"><ele>358.0</ele><time>2026-04-12T07:02:34.869Z</time></trkpt><trkpt lat="43.6193091" lon="6.7659229"><ele>358.0</ele><time>2026-04-12T07:02:36.839Z</time></trkpt><trkpt lat="43.6193337" lon="6.7660944"><ele>358.0</ele><time>2026-04-12T07:02:38.9Z</time></trkpt><trkpt lat="43.6193589" lon="6.7661854"><ele>358.0</ele><time>2026-04-12T07:02:39.865Z</time></trkpt><trkpt lat="43.6193801" lon="6.7662682"><ele>358.0</ele><time>2026-04-12T07:02:40.885Z</time></trkpt><trkpt lat="43.6194313" lon="6.7664182"><ele>358.2</ele><time>2026-04-12T07:02:42.906Z</time></trkpt><trkpt lat="43.6195308" lon="6.7665264"><ele>358.4</ele><time>2026-04-12T07:02:44.868Z</time></trkpt><trkpt lat="43.6195907" lon="6.7665563"><ele>358.59999999999997</ele><time>2026-04-12T07:02:45.831Z</time></trkpt><trkpt lat="43.6196603" lon="6.766567"><ele>358.79999999999995</ele><time>2026-04-12T07:02:46.893Z</time></trkpt><trkpt lat="43.6197839" lon="6.7665673"><ele>359.0</ele><time>2026-04-12T07:02:48.876Z</time></trkpt><trkpt lat="43.619913" lon="6.7665471"><ele>359.0</ele><time>2026-04-12T07:02:50.863Z</time></trkpt><trkpt lat="43.6199776" lon="6.7665316"><ele>359.0</ele><time>2026-04-12T07:02:51.883Z</time></trkpt><trkpt lat="43.6200451" lon="6.7665087"><ele>359.0</ele><time>2026-04-12T07:02:52.829Z</time></trkpt><trkpt lat="43.6201068" lon="6.766479"><ele>359.0</ele><time>2026-04-12T07:02:53.866Z</time></trkpt><trkpt lat="43.6201739" lon="6.7664546"><ele>359.0</ele><time>2026-04-12T07:02:54.893Z</time></trkpt><trkpt lat="43.6202427" lon="6.7664296"><ele>359.0</ele><time>2026-04-12T07:02:55.857Z</time></trkpt><trkpt lat="43.6203149" lon="6.7663898"><ele>359.0</ele><time>2026-04-12T07:02:56.882Z</time></trkpt><trkpt lat="43.6203825" lon="6.7663646"><ele>360.14285714285717</ele><time>2026-04-12T07:02:57.853Z</time></trkpt><trkpt lat="43.6204576" lon="6.7663499"><ele>361.28571428571433</ele><time>2026-04-12T07:02:58.889Z</time></trkpt><trkpt lat="43.6205317" lon="6.7663304"><ele>362.42857142857144</ele><time>2026-04-12T07:02:59.889Z</time></trkpt><trkpt lat="43.6206035" lon="6.7663058"><ele>363.57142857142856</ele><time>2026-04-12T07:03:00.887Z</time></trkpt><trkpt lat="43.6206756" lon="6.7662771"><ele>364.7142857142857</ele><time>2026-04-12T07:03:01.88Z</time></trkpt><trkpt lat="43.6207503" lon="6.7662562"><ele>365.85714285714283</ele><time>2026-04-12T07:03:02.881Z</time></trkpt><trkpt lat="43.620821" lon="6.7662322"><ele>367.0</ele><time>2026-04-12T07:03:03.879Z</time></trkpt><trkpt lat="43.6208951" lon="6.7662057"><ele>367.0</ele><time>2026-04-12T07:03:04.875Z</time></trkpt><trkpt lat="43.6209646" lon="6.7661751"><ele>367.0</ele><time>2026-04-12T07:03:05.823Z</time></trkpt><trkpt lat="43.6210385" lon="6.766131"><ele>367.0</ele><time>2026-04-12T07:03:06.859Z</time></trkpt><trkpt lat="43.6211131" lon="6.766068"><ele>367.0</ele><time>2026-04-12T07:03:07.852Z</time></trkpt><trkpt lat="43.621192" lon="6.7659999"><ele>367.0</ele><time>2026-04-12T07:03:08.879Z</time></trkpt><trkpt lat="43.6212651" lon="6.765918"><ele>367.0</ele><time>2026-04-12T07:03:09.835Z</time></trkpt><trkpt lat="43.621331" lon="6.7658364"><ele>366.0</ele><time>2026-04-12T07:03:10.855Z</time></trkpt><trkpt lat="43.6213976" lon="6.765767"><ele>365.0</ele><time>2026-04-12T07:03:11.88Z</time></trkpt><trkpt lat="43.6214635" lon="6.7657014"><ele>364.0</ele><time>2026-04-12T07:03:12.867Z</time></trkpt><trkpt lat="43.6215318" lon="6.7656372"><ele>363.0</ele><time>2026-04-12T07:03:13.887Z</time></trkpt><trkpt lat="43.6215983" lon="6.7655817"><ele>362.0</ele><time>2026-04-12T07:03:14.859Z</time></trkpt><trkpt lat="43.6216736" lon="6.765539"><ele>361.0</ele><time>2026-04-12T07:03:15.854Z</time></trkpt><trkpt lat="43.6217509" lon="6.765491"><ele>361.0</ele><time>2026-04-12T07:03:16.906Z</time></trkpt><trkpt lat="43.6218241" lon="6.7654542"><ele>361.0</ele><time>2026-04-12T07:03:17.879Z</time></trkpt><trkpt lat="43.6218996" lon="6.7654067"><ele>361.0</ele><time>2026-04-12T07:03:18.875Z</time></trkpt><trkpt lat="43.6219682" lon="6.7653562"><ele>361.0</ele><time>2026-04-12T07:03:19.885Z</time></trkpt><trkpt lat="43.6220367" lon="6.7653069"><ele>361.0</ele><time>2026-04-12T07:03:20.864Z</time></trkpt><trkpt lat="43.6221063" lon="6.7652635"><ele>361.0</ele><time>2026-04-12T07:03:21.873Z</time></trkpt><trkpt lat="43.6221774" lon="6.7652202"><ele>361.3333333333333</ele><time>2026-04-12T07:03:22.897Z</time></trkpt><trkpt lat="43.6222543" lon="6.7651924"><ele>361.66666666666663</ele><time>2026-04-12T07:03:23.874Z</time></trkpt><trkpt lat="43.6223341" lon="6.7651941"><ele>362.0</ele><time>2026-04-12T07:03:24.871Z</time></trkpt><trkpt lat="43.6224094" lon="6.7652173"><ele>362.3333333333333</ele><time>2026-04-12T07:03:25.873Z</time></trkpt><trkpt lat="43.6224785" lon="6.7652791"><ele>362.6666666666667</ele><time>2026-04-12T07:03:26.857Z</time></trkpt><trkpt lat="43.6225419" lon="6.765357"><ele>363.0</ele><time>2026-04-12T07:03:27.874Z</time></trkpt><trkpt lat="43.6226049" lon="6.765433"><ele>363.0</ele><time>2026-04-12T07:03:28.833Z</time></trkpt><trkpt lat="43.6226589" lon="6.7655246"><ele>363.0</ele><time>2026-04-12T07:03:29.883Z</time></trkpt><trkpt lat="43.6227154" lon="6.7656092"><ele>363.0</ele><time>2026-04-12T07:03:30.898Z</time></trkpt><trkpt lat="43.6227755" lon="6.7656918"><ele>363.0</ele><time>2026-04-12T07:03:31.881Z</time></trkpt><trkpt lat="43.6228355" lon="6.7657644"><ele>363.0</ele><time>2026-04-12T07:03:32.827Z</time></trkpt><trkpt lat="43.6229023" lon="6.7658156"><ele>363.0</ele><time>2026-04-12T07:03:33.891Z</time></trkpt><trkpt lat="43.6229742" lon="6.7658563"><ele>363.1666666666667</ele><time>2026-04-12T07:03:34.88Z</time></trkpt><trkpt lat="43.623051" lon="6.7658993"><ele>363.3333333333333</ele><time>2026-04-12T07:03:35.898Z</time></trkpt><trkpt lat="43.6231285" lon="6.7659383"><ele>363.5</ele><time>2026-04-12T07:03:36.876Z</time></trkpt><trkpt lat="43.6232085" lon="6.7659781"><ele>363.66666666666663</ele><time>2026-04-12T07:03:37.898Z</time></trkpt><trkpt lat="43.6232833" lon="6.7660123"><ele>363.8333333333333</ele><time>2026-04-12T07:03:38.896Z</time></trkpt><trkpt lat="43.6233554" lon="6.7660548"><ele>364.0</ele><time>2026-04-12T07:03:39.844Z</time></trkpt><trkpt lat="43.6234304" lon="6.7660977"><ele>364.0</ele><time>2026-04-12T07:03:40.901Z</time></trkpt><trkpt lat="43.6235071" lon="6.7661587"><ele>364.0</ele><time>2026-04-12T07:03:41.872Z</time></trkpt><trkpt lat="43.6235796" lon="6.7662426"><ele>364.0</ele><time>2026-04-12T07:03:42.834Z</time></trkpt><trkpt lat="43.623649" lon="6.7663205"><ele>364.0</ele><time>2026-04-12T07:03:43.883Z</time></trkpt><trkpt lat="43.6237195" lon="6.7664019"><ele>364.0</ele><time>2026-04-12T07:03:44.869Z</time></trkpt><trkpt lat="43.6237819" lon="6.7664903"><ele>361.66666666666663</ele><time>2026-04-12T07:03:45.89Z</time></trkpt><trkpt lat="43.623832" lon="6.7665833"><ele>359.3333333333333</ele><time>2026-04-12T07:03:46.883Z</time></trkpt><trkpt lat="43.6238773" lon="6.7666864"><ele>357.0</ele><time>2026-04-12T07:03:47.861Z</time></trkpt><trkpt lat="43.6239116" lon="6.7667963"><ele>354.6666666666667</ele><time>2026-04-12T07:03:48.856Z</time></trkpt><trkpt lat="43.6239335" lon="6.7669056"><ele>352.33333333333337</ele><time>2026-04-12T07:03:49.88Z</time></trkpt><trkpt lat="43.6239455" lon="6.7670207"><ele>350.0</ele><time>2026-04-12T07:03:50.872Z</time></trkpt><trkpt lat="43.6239552" lon="6.7671314"><ele>350.0</ele><time>2026-04-12T07:03:51.855Z</time></trkpt><trkpt lat="43.6239564" lon="6.7672318"><ele>350.0</ele><time>2026-04-12T07:03:52.891Z</time></trkpt><trkpt lat="43.6239528" lon="6.7673357"><ele>350.0</ele><time>2026-04-12T07:03:53.878Z</time></trkpt><trkpt lat="43.6239481" lon="6.7674437"><ele>350.0</ele><time>2026-04-12T07:03:54.855Z</time></trkpt><trkpt lat="43.6239554" lon="6.7675495"><ele>350.0</ele><time>2026-04-12T07:03:55.895Z</time></trkpt><trkpt lat="43.6239707" lon="6.7676464"><ele>350.0</ele><time>2026-04-12T07:03:56.839Z</time></trkpt><trkpt lat="43.6239971" lon="6.7677478"><ele>352.1666666666667</ele><time>2026-04-12T07:03:57.879Z</time></trkpt><trkpt lat="43.6240438" lon="6.7678331"><ele>354.33333333333337</ele><time>2026-04-12T07:03:58.875Z</time></trkpt><trkpt lat="43.624106" lon="6.7678853"><ele>356.5</ele><time>2026-04-12T07:03:59.862Z</time></trkpt><trkpt lat="43.6241803" lon="6.7679092"><ele>358.6666666666667</ele><time>2026-04-12T07:04:00.868Z</time></trkpt><trkpt lat="43.6242564" lon="6.7678887"><ele>360.8333333333333</ele><time>2026-04-12T07:04:01.879Z</time></trkpt><trkpt lat="43.6243323" lon="6.7678514"><ele>363.0</ele><time>2026-04-12T07:04:02.873Z</time></trkpt><trkpt lat="43.6244039" lon="6.7678186"><ele>362.99999999999994</ele><time>2026-04-12T07:04:03.884Z</time></trkpt><trkpt lat="43.6244719" lon="6.7677936"><ele>363.0</ele><time>2026-04-12T07:04:04.872Z</time></trkpt><trkpt lat="43.6245361" lon="6.7677608"><ele>363.0</ele><time>2026-04-12T07:04:05.891Z</time></trkpt><trkpt lat="43.6246029" lon="6.7677251"><ele>363.0</ele><time>2026-04-12T07:04:06.871Z</time></trkpt><trkpt lat="43.6246687" lon="6.7676909"><ele>363.0</ele><time>2026-04-12T07:04:07.843Z</time></trkpt><trkpt lat="43.6247335" lon="6.7676568"><ele>362.99999999999994</ele><time>2026-04-12T07:04:08.873Z</time></trkpt><trkpt lat="43.624802" lon="6.7676261"><ele>363.0</ele><time>2026-04-12T07:04:09.873Z</time></trkpt><trkpt lat="43.624869" lon="6.7675938"><ele>362.0</ele><time>2026-04-12T07:04:10.893Z</time></trkpt><trkpt lat="43.6249311" lon="6.7675432"><ele>361.0</ele><time>2026-04-12T07:04:11.892Z</time></trkpt><trkpt lat="43.6250146" lon="6.7674283"><ele>360.0</ele><time>2026-04-12T07:04:13.871Z</time></trkpt><trkpt lat="43.6250729" lon="6.7673057"><ele>359.0</ele><time>2026-04-12T07:04:15.88Z</time></trkpt><trkpt lat="43.6251218" lon="6.7671846"><ele>358.0</ele><time>2026-04-12T07:04:17.844Z</time></trkpt><trkpt lat="43.6251575" lon="6.7670522"><ele>358.0</ele><time>2026-04-12T07:04:19.865Z</time></trkpt><trkpt lat="43.6251698" lon="6.7668989"><ele>358.0</ele><time>2026-04-12T07:04:21.87Z</time></trkpt><trkpt lat="43.6251588" lon="6.7667617"><ele>358.0</ele><time>2026-04-12T07:04:23.904Z</time></trkpt><trkpt lat="43.6251483" lon="6.7666166"><ele>358.0</ele><time>2026-04-12T07:04:25.871Z</time></trkpt><trkpt lat="43.6251295" lon="6.7664669"><ele>358.0</ele><time>2026-04-12T07:04:27.896Z</time></trkpt><trkpt lat="43.6251023" lon="6.766334"><ele>357.4</ele><time>2026-04-12T07:04:29.869Z</time></trkpt><trkpt lat="43.6250693" lon="6.766208"><ele>356.79999999999995</ele><time>2026-04-12T07:04:31.849Z</time></trkpt><trkpt lat="43.6250293" lon="6.7660758"><ele>356.2</ele><time>2026-04-12T07:04:33.873Z</time></trkpt><trkpt lat="43.6250191" lon="6.7659188"><ele>355.6</ele><time>2026-04-12T07:04:35.875Z</time></trkpt><trkpt lat="43.62501" lon="6.7657598"><ele>355.0</ele><time>2026-04-12T07:04:37.856Z</time></trkpt><trkpt lat="43.6249857" lon="6.7655806"><ele>355.0</ele><time>2026-04-12T07:04:39.875Z</time></trkpt><trkpt lat="43.624976" lon="6.7654879"><ele>355.0</ele><time>2026-04-12T07:04:40.854Z</time></trkpt><trkpt lat="43.6249664" lon="6.7654008"><ele>355.0</ele><time>2026-04-12T07:04:41.893Z</time></trkpt><trkpt lat="43.6249549" lon="6.7653138"><ele>355.0</ele><time>2026-04-12T07:04:42.879Z</time></trkpt><trkpt lat="43.6249436" lon="6.7652259"><ele>355.0</ele><time>2026-04-12T07:04:43.861Z</time></trkpt><trkpt lat="43.6249326" lon="6.7651365"><ele>355.0</ele><time>2026-04-12T07:04:44.854Z</time></trkpt><trkpt lat="43.6249269" lon="6.7650489"><ele>355.0</ele><time>2026-04-12T07:04:45.866Z</time></trkpt><trkpt lat="43.624934" lon="6.7649608"><ele>355.1428571428571</ele><time>2026-04-12T07:04:46.844Z</time></trkpt><trkpt lat="43.6249456" lon="6.76487"><ele>355.2857142857143</ele><time>2026-04-12T07:04:47.881Z</time></trkpt><trkpt lat="43.6249557" lon="6.7647787"><ele>355.42857142857144</ele><time>2026-04-12T07:04:48.858Z</time></trkpt><trkpt lat="43.6249642" lon="6.7646907"><ele>355.57142857142856</ele><time>2026-04-12T07:04:49.876Z</time></trkpt><trkpt lat="43.6249738" lon="6.764598"><ele>355.7142857142857</ele><time>2026-04-12T07:04:50.879Z</time></trkpt><trkpt lat="43.6249871" lon="6.7645111"><ele>355.85714285714283</ele><time>2026-04-12T07:04:51.863Z</time></trkpt><trkpt lat="43.6249984" lon="6.7644251"><ele>356.0</ele><time>2026-04-12T07:04:52.888Z</time></trkpt><trkpt lat="43.625012" lon="6.7643351"><ele>355.57142857142856</ele><time>2026-04-12T07:04:53.848Z</time></trkpt><trkpt lat="43.6250215" lon="6.7642415"><ele>355.1428571428571</ele><time>2026-04-12T07:04:54.865Z</time></trkpt><trkpt lat="43.6250368" lon="6.7641515"><ele>354.71428571428567</ele><time>2026-04-12T07:04:55.877Z</time></trkpt><trkpt lat="43.6250389" lon="6.7640496"><ele>354.2857142857143</ele><time>2026-04-12T07:04:56.863Z</time></trkpt><trkpt lat="43.6250556" lon="6.7639581"><ele>353.8571428571429</ele><time>2026-04-12T07:04:57.886Z</time></trkpt><trkpt lat="43.6250748" lon="6.7638602"><ele>353.4285714285714</ele><time>2026-04-12T07:04:58.838Z</time></trkpt><trkpt lat="43.6251044" lon="6.7637622"><ele>353.0</ele><time>2026-04-12T07:04:59.893Z</time></trkpt><trkpt lat="43.6251521" lon="6.7636759"><ele>353.0</ele><time>2026-04-12T07:05:00.865Z</time></trkpt><trkpt lat="43.6252021" lon="6.7636105"><ele>353.0</ele><time>2026-04-12T07:05:01.887Z</time></trkpt><trkpt lat="43.6252777" lon="6.7634495"><ele>353.0</ele><time>2026-04-12T07:05:03.88Z</time></trkpt><trkpt lat="43.6253144" lon="6.7633604"><ele>353.0</ele><time>2026-04-12T07:05:04.824Z</time></trkpt><trkpt lat="43.6253551" lon="6.7632842"><ele>353.0</ele><time>2026-04-12T07:05:05.862Z</time></trkpt><trkpt lat="43.6254041" lon="6.7632179"><ele>353.0</ele><time>2026-04-12T07:05:06.864Z</time></trkpt><trkpt lat="43.6254539" lon="6.7631575"><ele>354.57142857142856</ele><time>2026-04-12T07:05:07.876Z</time></trkpt><trkpt lat="43.6255064" lon="6.763092"><ele>356.14285714285717</ele><time>2026-04-12T07:05:08.89Z</time></trkpt><trkpt lat="43.6255609" lon="6.7630323"><ele>357.7142857142857</ele><time>2026-04-12T07:05:09.844Z</time></trkpt><trkpt lat="43.6256149" lon="6.7629742"><ele>359.2857142857143</ele><time>2026-04-12T07:05:10.872Z</time></trkpt><trkpt lat="43.6256722" lon="6.7629151"><ele>360.8571428571429</ele><time>2026-04-12T07:05:11.853Z</time></trkpt><trkpt lat="43.6257246" lon="6.7628396"><ele>362.42857142857144</ele><time>2026-04-12T07:05:12.859Z</time></trkpt><trkpt lat="43.6257786" lon="6.7627841"><ele>364.0</ele><time>2026-04-12T07:05:13.894Z</time></trkpt><trkpt lat="43.625834" lon="6.7627179"><ele>365.2857142857143</ele><time>2026-04-12T07:05:14.87Z</time></trkpt><trkpt lat="43.6258883" lon="6.7626591"><ele>366.57142857142856</ele><time>2026-04-12T07:05:15.895Z</time></trkpt><trkpt lat="43.6259442" lon="6.7626028"><ele>367.8571428571429</ele><time>2026-04-12T07:05:16.882Z</time></trkpt><trkpt lat="43.6259946" lon="6.7625437"><ele>369.1428571428571</ele><time>2026-04-12T07:05:17.853Z</time></trkpt><trkpt lat="43.6260437" lon="6.762476"><ele>370.42857142857144</ele><time>2026-04-12T07:05:18.86Z</time></trkpt><trkpt lat="43.6260925" lon="6.7623962"><ele>371.7142857142857</ele><time>2026-04-12T07:05:19.886Z</time></trkpt><trkpt lat="43.6261361" lon="6.7623179"><ele>373.0</ele><time>2026-04-12T07:05:20.863Z</time></trkpt><trkpt lat="43.6261803" lon="6.7622414"><ele>373.0</ele><time>2026-04-12T07:05:21.868Z</time></trkpt><trkpt lat="43.6262164" lon="6.7621651"><ele>373.0</ele><time>2026-04-12T07:05:22.873Z</time></trkpt><trkpt lat="43.6262505" lon="6.7620834"><ele>373.0</ele><time>2026-04-12T07:05:23.892Z</time></trkpt><trkpt lat="43.6262779" lon="6.7620004"><ele>373.0</ele><time>2026-04-12T07:05:24.863Z</time></trkpt><trkpt lat="43.626306" lon="6.7619159"><ele>373.0</ele><time>2026-04-12T07:05:25.872Z</time></trkpt><trkpt lat="43.6263328" lon="6.7618303"><ele>373.0</ele><time>2026-04-12T07:05:26.894Z</time></trkpt><trkpt lat="43.6263582" lon="6.7617405"><ele>373.0</ele><time>2026-04-12T07:05:27.869Z</time></trkpt><trkpt lat="43.6263919" lon="6.7616644"><ele>370.4</ele><time>2026-04-12T07:05:28.884Z</time></trkpt><trkpt lat="43.6264706" lon="6.7615236"><ele>367.79999999999995</ele><time>2026-04-12T07:05:30.868Z</time></trkpt><trkpt lat="43.6265538" lon="6.7614026"><ele>365.2</ele><time>2026-04-12T07:05:32.893Z</time></trkpt><trkpt lat="43.62661" lon="6.7613531"><ele>362.6</ele><time>2026-04-12T07:05:33.858Z</time></trkpt><trkpt lat="43.6266727" lon="6.7613166"><ele>360.0</ele><time>2026-04-12T07:05:34.889Z</time></trkpt><trkpt lat="43.6267776" lon="6.761262"><ele>360.0</ele><time>2026-04-12T07:05:36.881Z</time></trkpt><trkpt lat="43.6268806" lon="6.7612184"><ele>360.0</ele><time>2026-04-12T07:05:38.881Z</time></trkpt><trkpt lat="43.6269653" lon="6.7611833"><ele>360.0</ele><time>2026-04-12T07:05:40.866Z</time></trkpt><trkpt lat="43.6270344" lon="6.7611493"><ele>360.0</ele><time>2026-04-12T07:05:42.873Z</time></trkpt><trkpt lat="43.6271062" lon="6.7611532"><ele>360.0</ele><time>2026-04-12T07:05:45.872Z</time></trkpt><trkpt lat="43.6271675" lon="6.7612039"><ele>360.0</ele><time>2026-04-12T07:05:50.848Z</time></trkpt><trkpt lat="43.6272297" lon="6.7612282"><ele>362.1428571428571</ele><time>2026-04-12T07:05:54.873Z</time></trkpt><trkpt lat="43.6272918" lon="6.7612752"><ele>364.28571428571433</ele><time>2026-04-12T07:05:58.873Z</time></trkpt><trkpt lat="43.6273528" lon="6.7613231"><ele>366.42857142857144</ele><time>2026-04-12T07:06:03.866Z</time></trkpt><trkpt lat="43.6274223" lon="6.7613642"><ele>368.57142857142856</ele><time>2026-04-12T07:06:08.862Z</time></trkpt><trkpt lat="43.6274896" lon="6.7613816"><ele>370.71428571428567</ele><time>2026-04-12T07:06:12.886Z</time></trkpt><trkpt lat="43.627552" lon="6.7614072"><ele>372.8571428571429</ele><time>2026-04-12T07:06:16.84Z</time></trkpt><trkpt lat="43.6276144" lon="6.761437"><ele>375.0</ele><time>2026-04-12T07:06:20.764Z</time></trkpt><trkpt lat="43.6276822" lon="6.7614523"><ele>375.0</ele><time>2026-04-12T07:06:23.951Z</time></trkpt><trkpt lat="43.6277571" lon="6.7614645"><ele>375.0</ele><time>2026-04-12T07:06:26.763Z</time></trkpt><trkpt lat="43.6278343" lon="6.761417"><ele>375.0</ele><time>2026-04-12T07:06:29.82Z</time></trkpt><trkpt lat="43.6279105" lon="6.7613338"><ele>375.0</ele><time>2026-04-12T07:06:30.847Z</time></trkpt><trkpt lat="43.6279868" lon="6.7613349"><ele>375.0</ele><time>2026-04-12T07:06:35.822Z</time></trkpt><trkpt lat="43.6280575" lon="6.761381"><ele>375.0</ele><time>2026-04-12T07:06:40.853Z</time></trkpt><trkpt lat="43.6281116" lon="6.7614318"><ele>377.0</ele><time>2026-04-12T07:06:43.859Z</time></trkpt><trkpt lat="43.6281776" lon="6.7614842"><ele>379.0</ele><time>2026-04-12T07:06:49.84Z</time></trkpt><trkpt lat="43.6282339" lon="6.7615294"><ele>381.0</ele><time>2026-04-12T07:06:55.855Z</time></trkpt><trkpt lat="43.6283175" lon="6.7615571"><ele>383.0</ele><time>2026-04-12T07:06:59.854Z</time></trkpt><trkpt lat="43.6284067" lon="6.761589"><ele>385.0</ele><time>2026-04-12T07:07:03.851Z</time></trkpt><trkpt lat="43.62847" lon="6.7615898"><ele>387.0</ele><time>2026-04-12T07:07:06.867Z</time></trkpt><trkpt lat="43.6285471" lon="6.7616127"><ele>387.0</ele><time>2026-04-12T07:07:10.854Z</time></trkpt><trkpt lat="43.6286248" lon="6.7616202"><ele>387.0</ele><time>2026-04-12T07:07:14.848Z</time></trkpt><trkpt lat="43.6286968" lon="6.7616369"><ele>387.0</ele><time>2026-04-12T07:07:17.855Z</time></trkpt><trkpt lat="43.6287685" lon="6.7616525"><ele>387.0</ele><time>2026-04-12T07:07:20.861Z</time></trkpt><trkpt lat="43.6288453" lon="6.7616636"><ele>387.0</ele><time>2026-04-12T07:07:23.869Z</time></trkpt><trkpt lat="43.62892" lon="6.7616749"><ele>387.0</ele><time>2026-04-12T07:07:26.842Z</time></trkpt><trkpt lat="43.629001" lon="6.7616811"><ele>387.6666666666667</ele><time>2026-04-12T07:07:30.863Z</time></trkpt><trkpt lat="43.6290659" lon="6.7616832"><ele>388.33333333333337</ele><time>2026-04-12T07:07:33.868Z</time></trkpt><trkpt lat="43.6291394" lon="6.7616935"><ele>389.0</ele><time>2026-04-12T07:07:37.863Z</time></trkpt><trkpt lat="43.6292114" lon="6.7617258"><ele>389.6666666666667</ele><time>2026-04-12T07:07:41.877Z</time></trkpt><trkpt lat="43.6292938" lon="6.7617364"><ele>390.33333333333337</ele><time>2026-04-12T07:07:44.875Z</time></trkpt><trkpt lat="43.6293882" lon="6.7617169"><ele>391.0</ele><time>2026-04-12T07:07:47.854Z</time></trkpt><trkpt lat="43.6294412" lon="6.7616649"><ele>391.00000000000006</ele><time>2026-04-12T07:07:49.859Z</time></trkpt><trkpt lat="43.6294809" lon="6.7615958"><ele>391.0</ele><time>2026-04-12T07:07:51.889Z</time></trkpt><trkpt lat="43.6295202" lon="6.761511"><ele>391.0</ele><time>2026-04-12T07:07:53.864Z</time></trkpt><trkpt lat="43.6295538" lon="6.7614242"><ele>391.0</ele><time>2026-04-12T07:07:55.866Z</time></trkpt><trkpt lat="43.629586" lon="6.7613023"><ele>391.00000000000006</ele><time>2026-04-12T07:07:57.865Z</time></trkpt><trkpt lat="43.6296222" lon="6.7611791"><ele>391.0</ele><time>2026-04-12T07:07:59.865Z</time></trkpt><trkpt lat="43.629644" lon="6.7610433"><ele>391.0</ele><time>2026-04-12T07:08:01.876Z</time></trkpt><trkpt lat="43.6296665" lon="6.7608861"><ele>391.0</ele><time>2026-04-12T07:08:03.86Z</time></trkpt><trkpt lat="43.6296885" lon="6.7607439"><ele>391.0</ele><time>2026-04-12T07:08:05.867Z</time></trkpt><trkpt lat="43.6297118" lon="6.7605903"><ele>391.0</ele><time>2026-04-12T07:08:07.871Z</time></trkpt><trkpt lat="43.6297318" lon="6.7604348"><ele>391.0</ele><time>2026-04-12T07:08:09.868Z</time></trkpt><trkpt lat="43.6297526" lon="6.7602968"><ele>390.8</ele><time>2026-04-12T07:08:11.88Z</time></trkpt><trkpt lat="43.6297715" lon="6.7601471"><ele>390.6</ele><time>2026-04-12T07:08:13.873Z</time></trkpt><trkpt lat="43.629793" lon="6.760014"><ele>390.4</ele><time>2026-04-12T07:08:15.872Z</time></trkpt><trkpt lat="43.6298087" lon="6.7598901"><ele>390.2</ele><time>2026-04-12T07:08:17.863Z</time></trkpt><trkpt lat="43.6298365" lon="6.7597756"><ele>390.0</ele><time>2026-04-12T07:08:19.866Z</time></trkpt><trkpt lat="43.6298617" lon="6.7596452"><ele>390.0</ele><time>2026-04-12T07:08:21.871Z</time></trkpt><trkpt lat="43.6298891" lon="6.7595048"><ele>390.0</ele><time>2026-04-12T07:08:23.851Z</time></trkpt><trkpt lat="43.6299115" lon="6.7593798"><ele>390.0</ele><time>2026-04-12T07:08:25.825Z</time></trkpt><trkpt lat="43.6299344" lon="6.7592367"><ele>390.0</ele><time>2026-04-12T07:08:27.882Z</time></trkpt><trkpt lat="43.6299556" lon="6.7590972"><ele>390.0</ele><time>2026-04-12T07:08:29.891Z</time></trkpt><trkpt lat="43.6299638" lon="6.7589661"><ele>390.4</ele><time>2026-04-12T07:08:31.905Z</time></trkpt><trkpt lat="43.6299844" lon="6.7588428"><ele>390.8</ele><time>2026-04-12T07:08:33.921Z</time></trkpt><trkpt lat="43.6300583" lon="6.7587979"><ele>391.20000000000005</ele><time>2026-04-12T07:08:36.876Z</time></trkpt><trkpt lat="43.6301343" lon="6.7588643"><ele>391.6</ele><time>2026-04-12T07:08:38.871Z</time></trkpt><trkpt lat="43.6302233" lon="6.7589461"><ele>392.0</ele><time>2026-04-12T07:08:40.898Z</time></trkpt><trkpt lat="43.6303248" lon="6.7590347"><ele>391.99999999999994</ele><time>2026-04-12T07:08:42.878Z</time></trkpt><trkpt lat="43.6304316" lon="6.7591111"><ele>392.0</ele><time>2026-04-12T07:08:44.873Z</time></trkpt><trkpt lat="43.6304886" lon="6.7591634"><ele>392.0</ele><time>2026-04-12T07:08:45.887Z</time></trkpt><trkpt lat="43.6305516" lon="6.7592199"><ele>392.0</ele><time>2026-04-12T07:08:46.881Z</time></trkpt><trkpt lat="43.6306112" lon="6.7592693"><ele>391.99999999999994</ele><time>2026-04-12T07:08:47.875Z</time></trkpt><trkpt lat="43.6306688" lon="6.7593214"><ele>392.0</ele><time>2026-04-12T07:08:48.845Z</time></trkpt><trkpt lat="43.6307268" lon="6.7593707"><ele>391.66666666666663</ele><time>2026-04-12T07:08:49.867Z</time></trkpt><trkpt lat="43.6308289" lon="6.7594728"><ele>391.3333333333333</ele><time>2026-04-12T07:08:51.869Z</time></trkpt><trkpt lat="43.6308801" lon="6.7595324"><ele>391.0</ele><time>2026-04-12T07:08:52.846Z</time></trkpt><trkpt lat="43.6309332" lon="6.7595827"><ele>390.66666666666663</ele><time>2026-04-12T07:08:53.861Z</time></trkpt><trkpt lat="43.6309876" lon="6.7596329"><ele>390.3333333333333</ele><time>2026-04-12T07:08:54.874Z</time></trkpt><trkpt lat="43.6310431" lon="6.7596841"><ele>390.0</ele><time>2026-04-12T07:08:55.896Z</time></trkpt><trkpt lat="43.6311001" lon="6.7597388"><ele>390.2857142857143</ele><time>2026-04-12T07:08:56.879Z</time></trkpt><trkpt lat="43.6311551" lon="6.759791"><ele>390.57142857142856</ele><time>2026-04-12T07:08:57.887Z</time></trkpt><trkpt lat="43.6312061" lon="6.7598439"><ele>390.8571428571429</ele><time>2026-04-12T07:08:58.862Z</time></trkpt><trkpt lat="43.6312578" lon="6.7598987"><ele>391.1428571428571</ele><time>2026-04-12T07:08:59.886Z</time></trkpt><trkpt lat="43.6313101" lon="6.7599508"><ele>391.42857142857144</ele><time>2026-04-12T07:09:00.885Z</time></trkpt><trkpt lat="43.6313705" lon="6.759998"><ele>391.7142857142857</ele><time>2026-04-12T07:09:01.895Z</time></trkpt><trkpt lat="43.631429" lon="6.7600413"><ele>392.0</ele><time>2026-04-12T07:09:02.859Z</time></trkpt><trkpt lat="43.6314834" lon="6.7600876"><ele>392.0</ele><time>2026-04-12T07:09:03.895Z</time></trkpt><trkpt lat="43.6315434" lon="6.7601251"><ele>392.0</ele><time>2026-04-12T07:09:04.874Z</time></trkpt><trkpt lat="43.6316057" lon="6.7601702"><ele>392.0</ele><time>2026-04-12T07:09:05.868Z</time></trkpt><trkpt lat="43.631665" lon="6.7602129"><ele>392.0</ele><time>2026-04-12T07:09:06.847Z</time></trkpt><trkpt lat="43.6317277" lon="6.760259"><ele>392.0</ele><time>2026-04-12T07:09:07.841Z</time></trkpt><trkpt lat="43.6317864" lon="6.7603028"><ele>392.0</ele><time>2026-04-12T07:09:08.891Z</time></trkpt><trkpt lat="43.6318534" lon="6.760346"><ele>392.0</ele><time>2026-04-12T07:09:09.865Z</time></trkpt><trkpt lat="43.6319221" lon="6.7603854"><ele>391.49999999999994</ele><time>2026-04-12T07:09:10.849Z</time></trkpt><trkpt lat="43.6319969" lon="6.7604269"><ele>391.0</ele><time>2026-04-12T07:09:11.829Z</time></trkpt><trkpt lat="43.6320623" lon="6.7604701"><ele>390.5</ele><time>2026-04-12T07:09:12.866Z</time></trkpt><trkpt lat="43.632148" lon="6.7605078"><ele>390.0</ele><time>2026-04-12T07:09:13.857Z</time></trkpt><trkpt lat="43.6322206" lon="6.7605378"><ele>389.49999999999994</ele><time>2026-04-12T07:09:14.857Z</time></trkpt><trkpt lat="43.6322842" lon="6.7605881"><ele>389.0</ele><time>2026-04-12T07:09:15.826Z</time></trkpt><trkpt lat="43.6323544" lon="6.7606413"><ele>389.0</ele><time>2026-04-12T07:09:16.848Z</time></trkpt><trkpt lat="43.6324293" lon="6.7606703"><ele>389.0</ele><time>2026-04-12T07:09:17.873Z</time></trkpt><trkpt lat="43.6324935" lon="6.7607126"><ele>389.0</ele><time>2026-04-12T07:09:18.85Z</time></trkpt><trkpt lat="43.6325573" lon="6.7607579"><ele>389.0</ele><time>2026-04-12T07:09:19.885Z</time></trkpt><trkpt lat="43.6326274" lon="6.7607964"><ele>389.0</ele><time>2026-04-12T07:09:20.833Z</time></trkpt><trkpt lat="43.6326958" lon="6.760838"><ele>389.0</ele><time>2026-04-12T07:09:21.884Z</time></trkpt><trkpt lat="43.6327652" lon="6.7608829"><ele>389.0</ele><time>2026-04-12T07:09:22.894Z</time></trkpt><trkpt lat="43.6328308" lon="6.7609343"><ele>389.14285714285717</ele><time>2026-04-12T07:09:23.851Z</time></trkpt><trkpt lat="43.6328944" lon="6.7609904"><ele>389.2857142857143</ele><time>2026-04-12T07:09:24.885Z</time></trkpt><trkpt lat="43.6329569" lon="6.7610454"><ele>389.42857142857144</ele><time>2026-04-12T07:09:25.859Z</time></trkpt><trkpt lat="43.6330163" lon="6.761095"><ele>389.57142857142856</ele><time>2026-04-12T07:09:26.877Z</time></trkpt><trkpt lat="43.6330791" lon="6.7611538"><ele>389.71428571428567</ele><time>2026-04-12T07:09:27.869Z</time></trkpt><trkpt lat="43.6331359" lon="6.761224"><ele>389.85714285714283</ele><time>2026-04-12T07:09:28.881Z</time></trkpt><trkpt lat="43.6331903" lon="6.7612873"><ele>390.0</ele><time>2026-04-12T07:09:29.877Z</time></trkpt><trkpt lat="43.6332523" lon="6.7613433"><ele>390.1428571428571</ele><time>2026-04-12T07:09:30.87Z</time></trkpt><trkpt lat="43.6333147" lon="6.7613919"><ele>390.2857142857143</ele><time>2026-04-12T07:09:31.869Z</time></trkpt><trkpt lat="43.6333774" lon="6.7614356"><ele>390.42857142857144</ele><time>2026-04-12T07:09:32.877Z</time></trkpt><trkpt lat="43.6334417" lon="6.7614697"><ele>390.57142857142856</ele><time>2026-04-12T07:09:33.879Z</time></trkpt><trkpt lat="43.6335111" lon="6.7614983"><ele>390.7142857142857</ele><time>2026-04-12T07:09:34.876Z</time></trkpt><trkpt lat="43.6335808" lon="6.7615204"><ele>390.85714285714283</ele><time>2026-04-12T07:09:35.876Z</time></trkpt><trkpt lat="43.6336489" lon="6.7615434"><ele>391.0</ele><time>2026-04-12T07:09:36.872Z</time></trkpt><trkpt lat="43.633716" lon="6.7615724"><ele>390.99999999999994</ele><time>2026-04-12T07:09:37.873Z</time></trkpt><trkpt lat="43.6337757" lon="6.7616128"><ele>391.0</ele><time>2026-04-12T07:09:38.872Z</time></trkpt><trkpt lat="43.6338326" lon="6.7616638"><ele>391.0</ele><time>2026-04-12T07:09:39.859Z</time></trkpt><trkpt lat="43.6338938" lon="6.7617162"><ele>391.0</ele><time>2026-04-12T07:09:40.875Z</time></trkpt><trkpt lat="43.6339522" lon="6.7617616"><ele>391.0</ele><time>2026-04-12T07:09:41.835Z</time></trkpt><trkpt lat="43.6340056" lon="6.7618092"><ele>390.99999999999994</ele><time>2026-04-12T07:09:42.876Z</time></trkpt><trkpt lat="43.6340633" lon="6.7618591"><ele>391.0</ele><time>2026-04-12T07:09:43.882Z</time></trkpt><trkpt lat="43.6341229" lon="6.7619048"><ele>391.2857142857143</ele><time>2026-04-12T07:09:44.875Z</time></trkpt><trkpt lat="43.6341838" lon="6.7619534"><ele>391.57142857142856</ele><time>2026-04-12T07:09:45.913Z</time></trkpt><trkpt lat="43.6342435" lon="6.7619988"><ele>391.8571428571429</ele><time>2026-04-12T07:09:46.879Z</time></trkpt><trkpt lat="43.6343029" lon="6.762042"><ele>392.1428571428571</ele><time>2026-04-12T07:09:47.852Z</time></trkpt><trkpt lat="43.6343691" lon="6.7620794"><ele>392.42857142857144</ele><time>2026-04-12T07:09:48.877Z</time></trkpt><trkpt lat="43.6344352" lon="6.7621137"><ele>392.7142857142857</ele><time>2026-04-12T07:09:49.858Z</time></trkpt><trkpt lat="43.6345005" lon="6.7621494"><ele>393.0</ele><time>2026-04-12T07:09:50.883Z</time></trkpt><trkpt lat="43.6345714" lon="6.7621852"><ele>393.00000000000006</ele><time>2026-04-12T07:09:51.885Z</time></trkpt><trkpt lat="43.6346404" lon="6.7622184"><ele>393.0</ele><time>2026-04-12T07:09:52.858Z</time></trkpt><trkpt lat="43.6347079" lon="6.7622518"><ele>393.0</ele><time>2026-04-12T07:09:53.864Z</time></trkpt><trkpt lat="43.6347693" lon="6.7622935"><ele>393.0</ele><time>2026-04-12T07:09:54.881Z</time></trkpt><trkpt lat="43.6348338" lon="6.7623243"><ele>393.0</ele><time>2026-04-12T07:09:55.842Z</time></trkpt><trkpt lat="43.6348921" lon="6.7623756"><ele>393.00000000000006</ele><time>2026-04-12T07:09:56.89Z</time></trkpt><trkpt lat="43.6349436" lon="6.7624357"><ele>393.0</ele><time>2026-04-12T07:09:57.836Z</time></trkpt><trkpt lat="43.6349928" lon="6.7625137"><ele>393.0</ele><time>2026-04-12T07:09:58.881Z</time></trkpt><trkpt lat="43.6350336" lon="6.7625853"><ele>393.0</ele><time>2026-04-12T07:09:59.867Z</time></trkpt><trkpt lat="43.6350929" lon="6.7627329"><ele>393.0</ele><time>2026-04-12T07:10:01.867Z</time></trkpt><trkpt lat="43.6351336" lon="6.7628777"><ele>393.0</ele><time>2026-04-12T07:10:03.863Z</time></trkpt><trkpt lat="43.63518" lon="6.7629862"><ele>393.0</ele><time>2026-04-12T07:10:05.88Z</time></trkpt><trkpt lat="43.6352114" lon="6.7631047"><ele>392.79999999999995</ele><time>2026-04-12T07:10:07.859Z</time></trkpt><trkpt lat="43.6352583" lon="6.7632153"><ele>392.6</ele><time>2026-04-12T07:10:09.881Z</time></trkpt><trkpt lat="43.6353088" lon="6.7633247"><ele>392.4</ele><time>2026-04-12T07:10:11.878Z</time></trkpt><trkpt lat="43.6353693" lon="6.7634323"><ele>392.20000000000005</ele><time>2026-04-12T07:10:13.888Z</time></trkpt><trkpt lat="43.6354261" lon="6.7635333"><ele>392.0</ele><time>2026-04-12T07:10:15.857Z</time></trkpt><trkpt lat="43.6354816" lon="6.7636328"><ele>392.40000000000003</ele><time>2026-04-12T07:10:17.86Z</time></trkpt><trkpt lat="43.63555" lon="6.7637329"><ele>392.8</ele><time>2026-04-12T07:10:19.868Z</time></trkpt><trkpt lat="43.6356304" lon="6.7638216"><ele>393.2</ele><time>2026-04-12T07:10:21.867Z</time></trkpt><trkpt lat="43.6357212" lon="6.7638717"><ele>393.6</ele><time>2026-04-12T07:10:23.835Z</time></trkpt><trkpt lat="43.6358245" lon="6.7639186"><ele>394.0</ele><time>2026-04-12T07:10:25.867Z</time></trkpt><trkpt lat="43.6359326" lon="6.7639625"><ele>394.0</ele><time>2026-04-12T07:10:27.874Z</time></trkpt><trkpt lat="43.6360365" lon="6.7640076"><ele>394.0</ele><time>2026-04-12T07:10:29.857Z</time></trkpt><trkpt lat="43.6361383" lon="6.7640542"><ele>394.0</ele><time>2026-04-12T07:10:31.858Z</time></trkpt><trkpt lat="43.6362284" lon="6.7641255"><ele>394.0</ele><time>2026-04-12T07:10:33.878Z</time></trkpt><trkpt lat="43.6362914" lon="6.7641908"><ele>394.0</ele><time>2026-04-12T07:10:35.856Z</time></trkpt><trkpt lat="43.6363766" lon="6.7642485"><ele>394.0</ele><time>2026-04-12T07:10:37.892Z</time></trkpt><trkpt lat="43.6364729" lon="6.7643083"><ele>394.0</ele><time>2026-04-12T07:10:39.879Z</time></trkpt><trkpt lat="43.6365697" lon="6.7643498"><ele>394.0</ele><time>2026-04-12T07:10:41.9Z</time></trkpt><trkpt lat="43.6366809" lon="6.7644023"><ele>394.0</ele><time>2026-04-12T07:10:43.884Z</time></trkpt><trkpt lat="43.6368013" lon="6.7644562"><ele>394.0</ele><time>2026-04-12T07:10:45.867Z</time></trkpt><trkpt lat="43.6369184" lon="6.7645178"><ele>394.0</ele><time>2026-04-12T07:10:47.897Z</time></trkpt><trkpt lat="43.6370211" lon="6.7646312"><ele>394.0</ele><time>2026-04-12T07:10:49.857Z</time></trkpt><trkpt lat="43.6370665" lon="6.7647006"><ele>394.0</ele><time>2026-04-12T07:10:50.877Z</time></trkpt><trkpt lat="43.6371093" lon="6.7647766"><ele>394.0</ele><time>2026-04-12T07:10:51.865Z</time></trkpt><trkpt lat="43.6371588" lon="6.7648636"><ele>393.6666666666667</ele><time>2026-04-12T07:10:52.866Z</time></trkpt><trkpt lat="43.6372072" lon="6.7649523"><ele>393.33333333333337</ele><time>2026-04-12T07:10:53.863Z</time></trkpt><trkpt lat="43.637253" lon="6.765035"><ele>393.0</ele><time>2026-04-12T07:10:54.872Z</time></trkpt><trkpt lat="43.637305" lon="6.7651156"><ele>392.66666666666663</ele><time>2026-04-12T07:10:55.897Z</time></trkpt><trkpt lat="43.6373547" lon="6.7651903"><ele>392.3333333333333</ele><time>2026-04-12T07:10:56.864Z</time></trkpt><trkpt lat="43.637409" lon="6.7652648"><ele>392.0</ele><time>2026-04-12T07:10:57.893Z</time></trkpt><trkpt lat="43.6374622" lon="6.7653381"><ele>391.7142857142857</ele><time>2026-04-12T07:10:58.875Z</time></trkpt><trkpt lat="43.6375204" lon="6.7654016"><ele>391.42857142857144</ele><time>2026-04-12T07:10:59.868Z</time></trkpt><trkpt lat="43.6375729" lon="6.7654577"><ele>391.1428571428571</ele><time>2026-04-12T07:11:00.869Z</time></trkpt><trkpt lat="43.6376209" lon="6.7655224"><ele>390.8571428571429</ele><time>2026-04-12T07:11:01.871Z</time></trkpt><trkpt lat="43.6376679" lon="6.7655894"><ele>390.57142857142856</ele><time>2026-04-12T07:11:02.887Z</time></trkpt><trkpt lat="43.6377169" lon="6.7656553"><ele>390.2857142857143</ele><time>2026-04-12T07:11:03.862Z</time></trkpt><trkpt lat="43.6377726" lon="6.7657264"><ele>390.0</ele><time>2026-04-12T07:11:04.9Z</time></trkpt><trkpt lat="43.6378285" lon="6.765793"><ele>389.6666666666667</ele><time>2026-04-12T07:11:05.873Z</time></trkpt><trkpt lat="43.6378834" lon="6.765869"><ele>389.33333333333337</ele><time>2026-04-12T07:11:06.878Z</time></trkpt><trkpt lat="43.6379397" lon="6.7659499"><ele>389.0</ele><time>2026-04-12T07:11:07.887Z</time></trkpt><trkpt lat="43.6379964" lon="6.7660356"><ele>388.6666666666667</ele><time>2026-04-12T07:11:08.86Z</time></trkpt><trkpt lat="43.6380505" lon="6.7661071"><ele>388.33333333333337</ele><time>2026-04-12T07:11:09.878Z</time></trkpt><trkpt lat="43.6381043" lon="6.7661838"><ele>388.0</ele><time>2026-04-12T07:11:10.877Z</time></trkpt><trkpt lat="43.6381538" lon="6.7662548"><ele>388.00000000000006</ele><time>2026-04-12T07:11:11.897Z</time></trkpt><trkpt lat="43.6382007" lon="6.7663296"><ele>388.0</ele><time>2026-04-12T07:11:12.833Z</time></trkpt><trkpt lat="43.638254" lon="6.7664061"><ele>388.0</ele><time>2026-04-12T07:11:13.885Z</time></trkpt><trkpt lat="43.6383181" lon="6.7664945"><ele>388.0</ele><time>2026-04-12T07:11:14.866Z</time></trkpt><trkpt lat="43.6383848" lon="6.7665805"><ele>388.00000000000006</ele><time>2026-04-12T07:11:15.895Z</time></trkpt><trkpt lat="43.6384494" lon="6.7666557"><ele>388.0</ele><time>2026-04-12T07:11:16.877Z</time></trkpt><trkpt lat="43.6385239" lon="6.7667194"><ele>388.00000000000006</ele><time>2026-04-12T07:11:17.855Z</time></trkpt><trkpt lat="43.6385999" lon="6.7667636"><ele>388.0</ele><time>2026-04-12T07:11:18.869Z</time></trkpt><trkpt lat="43.6386769" lon="6.7668051"><ele>388.0</ele><time>2026-04-12T07:11:19.89Z</time></trkpt><trkpt lat="43.6387547" lon="6.7668371"><ele>388.0</ele><time>2026-04-12T07:11:20.874Z</time></trkpt><trkpt lat="43.6388351" lon="6.7668644"><ele>388.00000000000006</ele><time>2026-04-12T07:11:21.892Z</time></trkpt><trkpt lat="43.6389167" lon="6.766896"><ele>388.0</ele><time>2026-04-12T07:11:22.875Z</time></trkpt><trkpt lat="43.6389984" lon="6.7669353"><ele>388.33333333333337</ele><time>2026-04-12T07:11:23.896Z</time></trkpt><trkpt lat="43.6390782" lon="6.7669652"><ele>388.6666666666667</ele><time>2026-04-12T07:11:24.863Z</time></trkpt><trkpt lat="43.6391532" lon="6.766992"><ele>389.0</ele><time>2026-04-12T07:11:25.888Z</time></trkpt><trkpt lat="43.6392237" lon="6.7670174"><ele>389.33333333333337</ele><time>2026-04-12T07:11:26.866Z</time></trkpt><trkpt lat="43.6393015" lon="6.7670538"><ele>389.6666666666667</ele><time>2026-04-12T07:11:27.875Z</time></trkpt><trkpt lat="43.6393763" lon="6.7670805"><ele>390.0</ele><time>2026-04-12T07:11:28.891Z</time></trkpt><trkpt lat="43.6394452" lon="6.7671042"><ele>389.8333333333333</ele><time>2026-04-12T07:11:29.858Z</time></trkpt><trkpt lat="43.639509" lon="6.7671265"><ele>389.66666666666663</ele><time>2026-04-12T07:11:30.881Z</time></trkpt><trkpt lat="43.6395703" lon="6.7671532"><ele>389.5</ele><time>2026-04-12T07:11:31.879Z</time></trkpt><trkpt lat="43.6396315" lon="6.7671857"><ele>389.3333333333333</ele><time>2026-04-12T07:11:32.871Z</time></trkpt><trkpt lat="43.6396956" lon="6.7672223"><ele>389.16666666666663</ele><time>2026-04-12T07:11:33.867Z</time></trkpt><trkpt lat="43.6398048" lon="6.7672952"><ele>389.0</ele><time>2026-04-12T07:11:35.874Z</time></trkpt><trkpt lat="43.639904" lon="6.7673516"><ele>389.0</ele><time>2026-04-12T07:11:37.86Z</time></trkpt><trkpt lat="43.6400151" lon="6.7674135"><ele>389.0</ele><time>2026-04-12T07:11:39.859Z</time></trkpt><trkpt lat="43.6401229" lon="6.7674537"><ele>389.0</ele><time>2026-04-12T07:11:41.905Z</time></trkpt><trkpt lat="43.6402426" lon="6.767497"><ele>389.0</ele><time>2026-04-12T07:11:43.866Z</time></trkpt><trkpt lat="43.6403074" lon="6.7675154"><ele>389.0</ele><time>2026-04-12T07:11:44.87Z</time></trkpt><trkpt lat="43.6403712" lon="6.7675407"><ele>389.16666666666663</ele><time>2026-04-12T07:11:45.883Z</time></trkpt><trkpt lat="43.6404333" lon="6.7675724"><ele>389.3333333333333</ele><time>2026-04-12T07:11:46.865Z</time></trkpt><trkpt lat="43.640497" lon="6.7676018"><ele>389.5</ele><time>2026-04-12T07:11:47.878Z</time></trkpt><trkpt lat="43.6405558" lon="6.7676408"><ele>389.66666666666663</ele><time>2026-04-12T07:11:48.869Z</time></trkpt><trkpt lat="43.6406628" lon="6.7677256"><ele>389.8333333333333</ele><time>2026-04-12T07:11:50.875Z</time></trkpt><trkpt lat="43.6407601" lon="6.7678244"><ele>390.0</ele><time>2026-04-12T07:11:52.842Z</time></trkpt><trkpt lat="43.6408593" lon="6.7679263"><ele>391.0</ele><time>2026-04-12T07:11:54.883Z</time></trkpt><trkpt lat="43.6409452" lon="6.7680433"><ele>392.0</ele><time>2026-04-12T07:11:56.873Z</time></trkpt><trkpt lat="43.6410303" lon="6.7681347"><ele>393.0</ele><time>2026-04-12T07:11:58.867Z</time></trkpt><trkpt lat="43.6411092" lon="6.7682354"><ele>394.0</ele><time>2026-04-12T07:12:00.846Z</time></trkpt><trkpt lat="43.641195" lon="6.7683509"><ele>394.0</ele><time>2026-04-12T07:12:02.914Z</time></trkpt><trkpt lat="43.6412822" lon="6.7684522"><ele>394.0</ele><time>2026-04-12T07:12:04.881Z</time></trkpt><trkpt lat="43.6413607" lon="6.7685515"><ele>394.0</ele><time>2026-04-12T07:12:06.9Z</time></trkpt><trkpt lat="43.641441" lon="6.7686612"><ele>394.0</ele><time>2026-04-12T07:12:08.903Z</time></trkpt><trkpt lat="43.641532" lon="6.7687704"><ele>394.14285714285717</ele><time>2026-04-12T07:12:10.879Z</time></trkpt><trkpt lat="43.6415778" lon="6.7688309"><ele>394.28571428571433</ele><time>2026-04-12T07:12:11.885Z</time></trkpt><trkpt lat="43.6416232" lon="6.7688924"><ele>394.42857142857144</ele><time>2026-04-12T07:12:12.884Z</time></trkpt><trkpt lat="43.641669" lon="6.7689531"><ele>394.57142857142856</ele><time>2026-04-12T07:12:13.881Z</time></trkpt><trkpt lat="43.641769" lon="6.7690618"><ele>394.7142857142857</ele><time>2026-04-12T07:12:15.885Z</time></trkpt><trkpt lat="43.6418241" lon="6.7691076"><ele>394.85714285714283</ele><time>2026-04-12T07:12:16.887Z</time></trkpt><trkpt lat="43.6418794" lon="6.7691547"><ele>395.0</ele><time>2026-04-12T07:12:17.871Z</time></trkpt><trkpt lat="43.6420005" lon="6.7692019"><ele>394.57142857142856</ele><time>2026-04-12T07:12:19.883Z</time></trkpt><trkpt lat="43.6420692" lon="6.7692154"><ele>394.14285714285717</ele><time>2026-04-12T07:12:20.844Z</time></trkpt><trkpt lat="43.6421401" lon="6.7692191"><ele>393.7142857142857</ele><time>2026-04-12T07:12:21.875Z</time></trkpt><trkpt lat="43.6422192" lon="6.7692263"><ele>393.2857142857143</ele><time>2026-04-12T07:12:22.853Z</time></trkpt><trkpt lat="43.6422979" lon="6.7692305"><ele>392.8571428571429</ele><time>2026-04-12T07:12:23.87Z</time></trkpt><trkpt lat="43.6423668" lon="6.7692482"><ele>392.42857142857144</ele><time>2026-04-12T07:12:24.888Z</time></trkpt><trkpt lat="43.6424315" lon="6.7692786"><ele>392.0</ele><time>2026-04-12T07:12:25.87Z</time></trkpt><trkpt lat="43.6424914" lon="6.7693245"><ele>392.0</ele><time>2026-04-12T07:12:26.868Z</time></trkpt><trkpt lat="43.6425911" lon="6.7694185"><ele>392.0</ele><time>2026-04-12T07:12:28.891Z</time></trkpt><trkpt lat="43.6426825" lon="6.7695357"><ele>392.0</ele><time>2026-04-12T07:12:30.838Z</time></trkpt><trkpt lat="43.6427325" lon="6.7695959"><ele>392.0</ele><time>2026-04-12T07:12:31.845Z</time></trkpt><trkpt lat="43.6428055" lon="6.7697319"><ele>392.0</ele><time>2026-04-12T07:12:33.857Z</time></trkpt><trkpt lat="43.6428711" lon="6.7698735"><ele>392.8</ele><time>2026-04-12T07:12:35.878Z</time></trkpt><trkpt lat="43.6429334" lon="6.7700017"><ele>393.6</ele><time>2026-04-12T07:12:37.873Z</time></trkpt><trkpt lat="43.6430022" lon="6.7701148"><ele>394.40000000000003</ele><time>2026-04-12T07:12:39.893Z</time></trkpt><trkpt lat="43.6430761" lon="6.7702094"><ele>395.20000000000005</ele><time>2026-04-12T07:12:41.854Z</time></trkpt><trkpt lat="43.6431581" lon="6.7702935"><ele>396.0</ele><time>2026-04-12T07:12:43.853Z</time></trkpt><trkpt lat="43.6432446" lon="6.7703801"><ele>396.0</ele><time>2026-04-12T07:12:45.899Z</time></trkpt><trkpt lat="43.6433239" lon="6.7704833"><ele>396.0</ele><time>2026-04-12T07:12:47.886Z</time></trkpt><trkpt lat="43.6433942" lon="6.7706011"><ele>396.0</ele><time>2026-04-12T07:12:49.874Z</time></trkpt><trkpt lat="43.6434576" lon="6.7707202"><ele>396.0</ele><time>2026-04-12T07:12:51.872Z</time></trkpt><trkpt lat="43.6435246" lon="6.7708404"><ele>396.0</ele><time>2026-04-12T07:12:53.871Z</time></trkpt><trkpt lat="43.6435808" lon="6.7709628"><ele>397.0</ele><time>2026-04-12T07:12:55.845Z</time></trkpt><trkpt lat="43.6436442" lon="6.7710822"><ele>398.0</ele><time>2026-04-12T07:12:57.892Z</time></trkpt><trkpt lat="43.6437078" lon="6.771204"><ele>399.0</ele><time>2026-04-12T07:12:59.866Z</time></trkpt><trkpt lat="43.6437742" lon="6.7713127"><ele>400.0</ele><time>2026-04-12T07:13:01.864Z</time></trkpt><trkpt lat="43.6438427" lon="6.7714247"><ele>401.0</ele><time>2026-04-12T07:13:03.852Z</time></trkpt><trkpt lat="43.6439094" lon="6.7715337"><ele>401.0</ele><time>2026-04-12T07:13:05.859Z</time></trkpt><trkpt lat="43.6439704" lon="6.7716456"><ele>401.0</ele><time>2026-04-12T07:13:07.852Z</time></trkpt><trkpt lat="43.6440209" lon="6.7717456"><ele>401.0</ele><time>2026-04-12T07:13:09.852Z</time></trkpt><trkpt lat="43.6440716" lon="6.7718475"><ele>401.0</ele><time>2026-04-12T07:13:11.868Z</time></trkpt><trkpt lat="43.6441207" lon="6.7719481"><ele>401.0</ele><time>2026-04-12T07:13:13.848Z</time></trkpt><trkpt lat="43.6441719" lon="6.7720401"><ele>400.8</ele><time>2026-04-12T07:13:15.869Z</time></trkpt><trkpt lat="43.6442234" lon="6.7721482"><ele>400.6</ele><time>2026-04-12T07:13:17.861Z</time></trkpt><trkpt lat="43.644277" lon="6.7722564"><ele>400.4</ele><time>2026-04-12T07:13:19.879Z</time></trkpt><trkpt lat="43.6443321" lon="6.7723616"><ele>400.2</ele><time>2026-04-12T07:13:21.859Z</time></trkpt><trkpt lat="43.6443914" lon="6.7724631"><ele>400.0</ele><time>2026-04-12T07:13:23.892Z</time></trkpt><trkpt lat="43.6444489" lon="6.7725657"><ele>400.8</ele><time>2026-04-12T07:13:25.882Z</time></trkpt><trkpt lat="43.6445067" lon="6.7726648"><ele>401.6</ele><time>2026-04-12T07:13:27.866Z</time></trkpt><trkpt lat="43.6445634" lon="6.7727643"><ele>402.4</ele><time>2026-04-12T07:13:29.909Z</time></trkpt><trkpt lat="43.6446209" lon="6.7728594"><ele>403.2</ele><time>2026-04-12T07:13:31.874Z</time></trkpt><trkpt lat="43.6446735" lon="6.7729503"><ele>404.0</ele><time>2026-04-12T07:13:33.86Z</time></trkpt><trkpt lat="43.6447313" lon="6.7730562"><ele>404.0</ele><time>2026-04-12T07:13:35.866Z</time></trkpt><trkpt lat="43.6447939" lon="6.7731641"><ele>404.0</ele><time>2026-04-12T07:13:37.87Z</time></trkpt><trkpt lat="43.6448571" lon="6.7732691"><ele>404.0</ele><time>2026-04-12T07:13:39.882Z</time></trkpt><trkpt lat="43.6449177" lon="6.7733842"><ele>404.0</ele><time>2026-04-12T07:13:41.903Z</time></trkpt><trkpt lat="43.6449843" lon="6.7734983"><ele>404.0</ele><time>2026-04-12T07:13:43.889Z</time></trkpt><trkpt lat="43.6450565" lon="6.7735969"><ele>403.4</ele><time>2026-04-12T07:13:45.892Z</time></trkpt><trkpt lat="43.645135" lon="6.77372"><ele>402.79999999999995</ele><time>2026-04-12T07:13:47.878Z</time></trkpt><trkpt lat="43.6452138" lon="6.7738314"><ele>402.20000000000005</ele><time>2026-04-12T07:13:49.878Z</time></trkpt><trkpt lat="43.6452956" lon="6.773926"><ele>401.6</ele><time>2026-04-12T07:13:51.858Z</time></trkpt><trkpt lat="43.6453702" lon="6.7740133"><ele>401.0</ele><time>2026-04-12T07:13:53.873Z</time></trkpt><trkpt lat="43.6454497" lon="6.7740997"><ele>401.99999999999994</ele><time>2026-04-12T07:13:55.897Z</time></trkpt><trkpt lat="43.6455225" lon="6.7741846"><ele>403.0</ele><time>2026-04-12T07:13:57.869Z</time></trkpt><trkpt lat="43.6455883" lon="6.7742623"><ele>404.0</ele><time>2026-04-12T07:13:59.87Z</time></trkpt><trkpt lat="43.645649" lon="6.7743412"><ele>405.0</ele><time>2026-04-12T07:14:01.889Z</time></trkpt><trkpt lat="43.6457012" lon="6.7744162"><ele>405.99999999999994</ele><time>2026-04-12T07:14:03.879Z</time></trkpt><trkpt lat="43.6457546" lon="6.7744864"><ele>407.0</ele><time>2026-04-12T07:14:05.865Z</time></trkpt><trkpt lat="43.645797" lon="6.7745684"><ele>407.00000000000006</ele><time>2026-04-12T07:14:07.858Z</time></trkpt><trkpt lat="43.6458385" lon="6.7746475"><ele>407.0</ele><time>2026-04-12T07:14:09.856Z</time></trkpt><trkpt lat="43.6458759" lon="6.7747268"><ele>407.0</ele><time>2026-04-12T07:14:11.879Z</time></trkpt><trkpt lat="43.6459166" lon="6.7748041"><ele>407.0</ele><time>2026-04-12T07:14:13.867Z</time></trkpt><trkpt lat="43.6459538" lon="6.7748768"><ele>407.0</ele><time>2026-04-12T07:14:15.85Z</time></trkpt><trkpt lat="43.6459879" lon="6.774961"><ele>407.00000000000006</ele><time>2026-04-12T07:14:17.86Z</time></trkpt><trkpt lat="43.6460272" lon="6.7750472"><ele>407.0</ele><time>2026-04-12T07:14:19.863Z</time></trkpt><trkpt lat="43.6460655" lon="6.7751241"><ele>407.00000000000006</ele><time>2026-04-12T07:14:21.842Z</time></trkpt><trkpt lat="43.646122" lon="6.7752311"><ele>407.0</ele><time>2026-04-12T07:14:24.863Z</time></trkpt><trkpt lat="43.646161" lon="6.7753117"><ele>407.0</ele><time>2026-04-12T07:14:26.873Z</time></trkpt><trkpt lat="43.6461976" lon="6.7753865"><ele>407.0</ele><time>2026-04-12T07:14:28.877Z</time></trkpt><trkpt lat="43.6462366" lon="6.7754668"><ele>407.0</ele><time>2026-04-12T07:14:30.855Z</time></trkpt><trkpt lat="43.6462847" lon="6.7755476"><ele>407.00000000000006</ele><time>2026-04-12T07:14:32.87Z</time></trkpt><trkpt lat="43.6463247" lon="6.7756237"><ele>407.0</ele><time>2026-04-12T07:14:34.866Z</time></trkpt><trkpt lat="43.6463605" lon="6.7757008"><ele>408.7142857142857</ele><time>2026-04-12T07:14:36.856Z</time></trkpt><trkpt lat="43.6463968" lon="6.7757719"><ele>410.42857142857144</ele><time>2026-04-12T07:14:38.861Z</time></trkpt><trkpt lat="43.6464379" lon="6.7758491"><ele>412.1428571428571</ele><time>2026-04-12T07:14:40.845Z</time></trkpt><trkpt lat="43.6464841" lon="6.7759402"><ele>413.8571428571429</ele><time>2026-04-12T07:14:42.865Z</time></trkpt><trkpt lat="43.6465181" lon="6.7760278"><ele>415.57142857142856</ele><time>2026-04-12T07:14:44.863Z</time></trkpt><trkpt lat="43.6465578" lon="6.7761079"><ele>417.2857142857143</ele><time>2026-04-12T07:14:46.86Z</time></trkpt><trkpt lat="43.6465971" lon="6.7761858"><ele>419.0</ele><time>2026-04-12T07:14:48.876Z</time></trkpt><trkpt lat="43.6466381" lon="6.7762614"><ele>418.99999999999994</ele><time>2026-04-12T07:14:50.863Z</time></trkpt><trkpt lat="43.6466794" lon="6.7763363"><ele>419.0</ele><time>2026-04-12T07:14:52.864Z</time></trkpt><trkpt lat="43.6467256" lon="6.7764157"><ele>419.0</ele><time>2026-04-12T07:14:54.867Z</time></trkpt><trkpt lat="43.6467611" lon="6.7765023"><ele>419.0</ele><time>2026-04-12T07:14:56.858Z</time></trkpt><trkpt lat="43.646793" lon="6.7765866"><ele>419.0</ele><time>2026-04-12T07:14:58.869Z</time></trkpt><trkpt lat="43.6468201" lon="6.7766694"><ele>418.99999999999994</ele><time>2026-04-12T07:15:00.87Z</time></trkpt><trkpt lat="43.6468433" lon="6.776757"><ele>419.0</ele><time>2026-04-12T07:15:02.875Z</time></trkpt><trkpt lat="43.6468642" lon="6.7768794"><ele>419.49999999999994</ele><time>2026-04-12T07:15:05.872Z</time></trkpt><trkpt lat="43.6468749" lon="6.7769942"><ele>420.0</ele><time>2026-04-12T07:15:08.867Z</time></trkpt><trkpt lat="43.646889" lon="6.7771202"><ele>420.5</ele><time>2026-04-12T07:15:11.85Z</time></trkpt><trkpt lat="43.6468948" lon="6.7772085"><ele>421.0</ele><time>2026-04-12T07:15:13.847Z</time></trkpt><trkpt lat="43.6468968" lon="6.777328"><ele>421.49999999999994</ele><time>2026-04-12T07:15:16.881Z</time></trkpt><trkpt lat="43.6469012" lon="6.7774433"><ele>422.0</ele><time>2026-04-12T07:15:19.876Z</time></trkpt><trkpt lat="43.6469098" lon="6.7775311"><ele>421.99999999999994</ele><time>2026-04-12T07:15:21.877Z</time></trkpt><trkpt lat="43.6469176" lon="6.7776534"><ele>422.0</ele><time>2026-04-12T07:15:24.866Z</time></trkpt><trkpt lat="43.6469168" lon="6.7777462"><ele>422.0</ele><time>2026-04-12T07:15:26.854Z</time></trkpt><trkpt lat="43.6469183" lon="6.7778381"><ele>422.0</ele><time>2026-04-12T07:15:28.881Z</time></trkpt><trkpt lat="43.6469133" lon="6.7779307"><ele>421.99999999999994</ele><time>2026-04-12T07:15:30.865Z</time></trkpt><trkpt lat="43.6469046" lon="6.7780239"><ele>422.0</ele><time>2026-04-12T07:15:32.867Z</time></trkpt><trkpt lat="43.6468906" lon="6.7781542"><ele>423.0</ele><time>2026-04-12T07:15:35.866Z</time></trkpt><trkpt lat="43.6468833" lon="6.7782474"><ele>424.0</ele><time>2026-04-12T07:15:37.878Z</time></trkpt><trkpt lat="43.646869" lon="6.7783387"><ele>425.0</ele><time>2026-04-12T07:15:39.849Z</time></trkpt><trkpt lat="43.6468666" lon="6.7784298"><ele>426.0</ele><time>2026-04-12T07:15:41.876Z</time></trkpt><trkpt lat="43.6468584" lon="6.7785204"><ele>427.0</ele><time>2026-04-12T07:15:43.882Z</time></trkpt><trkpt lat="43.6468471" lon="6.7786124"><ele>428.0</ele><time>2026-04-12T07:15:45.868Z</time></trkpt><trkpt lat="43.6468421" lon="6.778709"><ele>429.0</ele><time>2026-04-12T07:15:47.862Z</time></trkpt><trkpt lat="43.6468366" lon="6.7787979"><ele>429.0</ele><time>2026-04-12T07:15:49.875Z</time></trkpt><trkpt lat="43.6468343" lon="6.7788969"><ele>429.0</ele><time>2026-04-12T07:15:51.856Z</time></trkpt><trkpt lat="43.6468248" lon="6.7790053"><ele>429.0</ele><time>2026-04-12T07:15:53.858Z</time></trkpt><trkpt lat="43.646824" lon="6.7791079"><ele>429.0</ele><time>2026-04-12T07:15:55.853Z</time></trkpt><trkpt lat="43.646817" lon="6.7792118"><ele>429.0</ele><time>2026-04-12T07:15:57.86Z</time></trkpt><trkpt lat="43.6467951" lon="6.7793171"><ele>429.0</ele><time>2026-04-12T07:15:59.871Z</time></trkpt><trkpt lat="43.6467667" lon="6.7794441"><ele>427.75</ele><time>2026-04-12T07:16:01.852Z</time></trkpt><trkpt lat="43.646732" lon="6.7795852"><ele>426.5</ele><time>2026-04-12T07:16:03.86Z</time></trkpt><trkpt lat="43.6466823" lon="6.7797438"><ele>425.25</ele><time>2026-04-12T07:16:05.878Z</time></trkpt><trkpt lat="43.6466404" lon="6.7798888"><ele>424.0</ele><time>2026-04-12T07:16:07.844Z</time></trkpt><trkpt lat="43.6466273" lon="6.7800465"><ele>424.00000000000006</ele><time>2026-04-12T07:16:09.866Z</time></trkpt><trkpt lat="43.6466659" lon="6.7801278"><ele>424.0</ele><time>2026-04-12T07:16:10.885Z</time></trkpt><trkpt lat="43.6467339" lon="6.7801801"><ele>424.0</ele><time>2026-04-12T07:16:11.854Z</time></trkpt><trkpt lat="43.6468144" lon="6.7802035"><ele>424.0</ele><time>2026-04-12T07:16:12.865Z</time></trkpt><trkpt lat="43.646902" lon="6.7801957"><ele>424.00000000000006</ele><time>2026-04-12T07:16:13.879Z</time></trkpt><trkpt lat="43.6469888" lon="6.7801781"><ele>424.0</ele><time>2026-04-12T07:16:14.851Z</time></trkpt><trkpt lat="43.6470804" lon="6.7801687"><ele>422.4</ele><time>2026-04-12T07:16:15.851Z</time></trkpt><trkpt lat="43.6471667" lon="6.7801455"><ele>420.79999999999995</ele><time>2026-04-12T07:16:16.9Z</time></trkpt><trkpt lat="43.6472581" lon="6.7801081"><ele>419.20000000000005</ele><time>2026-04-12T07:16:17.836Z</time></trkpt><trkpt lat="43.6473488" lon="6.7800577"><ele>417.6</ele><time>2026-04-12T07:16:18.906Z</time></trkpt><trkpt lat="43.647437" lon="6.7799934"><ele>416.0</ele><time>2026-04-12T07:16:19.83Z</time></trkpt><trkpt lat="43.6475237" lon="6.7799264"><ele>416.0</ele><time>2026-04-12T07:16:20.885Z</time></trkpt><trkpt lat="43.6476082" lon="6.779859"><ele>416.0</ele><time>2026-04-12T07:16:21.882Z</time></trkpt><trkpt lat="43.6476872" lon="6.7798041"><ele>416.0</ele><time>2026-04-12T07:16:22.862Z</time></trkpt><trkpt lat="43.6477691" lon="6.7797622"><ele>416.0</ele><time>2026-04-12T07:16:23.85Z</time></trkpt><trkpt lat="43.6478637" lon="6.779734"><ele>416.0</ele><time>2026-04-12T07:16:24.879Z</time></trkpt><trkpt lat="43.6479638" lon="6.7797262"><ele>412.4</ele><time>2026-04-12T07:16:25.902Z</time></trkpt><trkpt lat="43.6480624" lon="6.7797453"><ele>408.8</ele><time>2026-04-12T07:16:26.877Z</time></trkpt><trkpt lat="43.6481668" lon="6.7797778"><ele>405.2</ele><time>2026-04-12T07:16:27.891Z</time></trkpt><trkpt lat="43.648278" lon="6.7797866"><ele>401.59999999999997</ele><time>2026-04-12T07:16:28.86Z</time></trkpt><trkpt lat="43.6483863" lon="6.7798"><ele>398.0</ele><time>2026-04-12T07:16:29.858Z</time></trkpt><trkpt lat="43.6484962" lon="6.7798129"><ele>398.0</ele><time>2026-04-12T07:16:30.854Z</time></trkpt><trkpt lat="43.6486093" lon="6.7798149"><ele>398.0</ele><time>2026-04-12T07:16:31.869Z</time></trkpt><trkpt lat="43.6487248" lon="6.7798106"><ele>398.0</ele><time>2026-04-12T07:16:32.863Z</time></trkpt><trkpt lat="43.6488452" lon="6.7798115"><ele>398.0</ele><time>2026-04-12T07:16:33.864Z</time></trkpt><trkpt lat="43.6489629" lon="6.7798096"><ele>397.2</ele><time>2026-04-12T07:16:34.87Z</time></trkpt><trkpt lat="43.6490664" lon="6.7798133"><ele>396.4</ele><time>2026-04-12T07:16:35.89Z</time></trkpt><trkpt lat="43.6491721" lon="6.7798185"><ele>395.59999999999997</ele><time>2026-04-12T07:16:36.883Z</time></trkpt><trkpt lat="43.6492745" lon="6.7798242"><ele>394.79999999999995</ele><time>2026-04-12T07:16:37.853Z</time></trkpt><trkpt lat="43.6493793" lon="6.7798345"><ele>394.0</ele><time>2026-04-12T07:16:38.849Z</time></trkpt><trkpt lat="43.6494896" lon="6.7798398"><ele>393.2</ele><time>2026-04-12T07:16:39.883Z</time></trkpt><trkpt lat="43.6496024" lon="6.7798434"><ele>392.4</ele><time>2026-04-12T07:16:40.856Z</time></trkpt><trkpt lat="43.6497085" lon="6.7798448"><ele>391.6</ele><time>2026-04-12T07:16:41.821Z</time></trkpt><trkpt lat="43.6498064" lon="6.7798455"><ele>390.8</ele><time>2026-04-12T07:16:42.819Z</time></trkpt><trkpt lat="43.6498944" lon="6.7798719"><ele>390.0</ele><time>2026-04-12T07:16:43.851Z</time></trkpt><trkpt lat="43.6499996" lon="6.7798605"><ele>390.0</ele><time>2026-04-12T07:16:44.849Z</time></trkpt><trkpt lat="43.6501206" lon="6.7798547"><ele>390.0</ele><time>2026-04-12T07:16:45.853Z</time></trkpt><trkpt lat="43.6502157" lon="6.7798201"><ele>390.0</ele><time>2026-04-12T07:16:46.84Z</time></trkpt><trkpt lat="43.6503031" lon="6.7797837"><ele>390.0</ele><time>2026-04-12T07:16:47.831Z</time></trkpt><trkpt lat="43.6503926" lon="6.7797435"><ele>390.0</ele><time>2026-04-12T07:16:48.835Z</time></trkpt><trkpt lat="43.650484" lon="6.7796652"><ele>391.0</ele><time>2026-04-12T07:16:49.832Z</time></trkpt><trkpt lat="43.6505802" lon="6.7795777"><ele>392.0</ele><time>2026-04-12T07:16:50.871Z</time></trkpt><trkpt lat="43.6506787" lon="6.7794822"><ele>393.0</ele><time>2026-04-12T07:16:51.847Z</time></trkpt><trkpt lat="43.650769" lon="6.7793858"><ele>394.0</ele><time>2026-04-12T07:16:52.849Z</time></trkpt><trkpt lat="43.6508567" lon="6.7792887"><ele>394.0</ele><time>2026-04-12T07:16:53.859Z</time></trkpt><trkpt lat="43.6509406" lon="6.7792034"><ele>394.0</ele><time>2026-04-12T07:16:54.871Z</time></trkpt><trkpt lat="43.6510193" lon="6.7791133"><ele>394.0</ele><time>2026-04-12T07:16:55.857Z</time></trkpt><trkpt lat="43.651095" lon="6.7790286"><ele>394.0</ele><time>2026-04-12T07:16:56.868Z</time></trkpt><trkpt lat="43.6511662" lon="6.7789365"><ele>394.0</ele><time>2026-04-12T07:16:57.839Z</time></trkpt><trkpt lat="43.6512435" lon="6.7788473"><ele>389.6</ele><time>2026-04-12T07:16:58.881Z</time></trkpt><trkpt lat="43.6513212" lon="6.7787536"><ele>385.2</ele><time>2026-04-12T07:16:59.886Z</time></trkpt><trkpt lat="43.651394" lon="6.7786593"><ele>380.8</ele><time>2026-04-12T07:17:00.865Z</time></trkpt><trkpt lat="43.65146" lon="6.7785672"><ele>376.40000000000003</ele><time>2026-04-12T07:17:01.859Z</time></trkpt><trkpt lat="43.6515267" lon="6.7784595"><ele>372.0</ele><time>2026-04-12T07:17:02.88Z</time></trkpt><trkpt lat="43.6515988" lon="6.7783422"><ele>372.0</ele><time>2026-04-12T07:17:03.834Z</time></trkpt><trkpt lat="43.6516537" lon="6.7782278"><ele>372.0</ele><time>2026-04-12T07:17:04.879Z</time></trkpt><trkpt lat="43.6517018" lon="6.7781144"><ele>372.0</ele><time>2026-04-12T07:17:05.871Z</time></trkpt><trkpt lat="43.6517514" lon="6.7780035"><ele>372.0</ele><time>2026-04-12T07:17:06.873Z</time></trkpt><trkpt lat="43.6518031" lon="6.7778944"><ele>372.0</ele><time>2026-04-12T07:17:07.852Z</time></trkpt><trkpt lat="43.6518511" lon="6.7777771"><ele>376.6</ele><time>2026-04-12T07:17:08.89Z</time></trkpt><trkpt lat="43.6519005" lon="6.7776631"><ele>381.20000000000005</ele><time>2026-04-12T07:17:09.863Z</time></trkpt><trkpt lat="43.651945" lon="6.7775355"><ele>385.8</ele><time>2026-04-12T07:17:10.871Z</time></trkpt><trkpt lat="43.6519945" lon="6.777404"><ele>390.4</ele><time>2026-04-12T07:17:11.865Z</time></trkpt><trkpt lat="43.6520395" lon="6.7772726"><ele>395.0</ele><time>2026-04-12T07:17:12.876Z</time></trkpt><trkpt lat="43.6520807" lon="6.7771516"><ele>389.16666666666663</ele><time>2026-04-12T07:17:13.825Z</time></trkpt><trkpt lat="43.6521203" lon="6.7770384"><ele>383.3333333333333</ele><time>2026-04-12T07:17:14.854Z</time></trkpt><trkpt lat="43.6521631" lon="6.7769227"><ele>377.5</ele><time>2026-04-12T07:17:15.881Z</time></trkpt><trkpt lat="43.6522025" lon="6.7768123"><ele>371.66666666666663</ele><time>2026-04-12T07:17:16.847Z</time></trkpt><trkpt lat="43.6522379" lon="6.7767076"><ele>365.8333333333333</ele><time>2026-04-12T07:17:17.869Z</time></trkpt><trkpt lat="43.6522733" lon="6.7766096"><ele>360.0</ele><time>2026-04-12T07:17:18.851Z</time></trkpt><trkpt lat="43.6523031" lon="6.7765182"><ele>360.0</ele><time>2026-04-12T07:17:19.856Z</time></trkpt><trkpt lat="43.6523365" lon="6.7764313"><ele>360.0</ele><time>2026-04-12T07:17:20.868Z</time></trkpt><trkpt lat="43.652376" lon="6.7763416"><ele>360.0</ele><time>2026-04-12T07:17:21.846Z</time></trkpt><trkpt lat="43.6524306" lon="6.776259"><ele>360.0</ele><time>2026-04-12T07:17:22.846Z</time></trkpt><trkpt lat="43.6524886" lon="6.776178"><ele>360.0</ele><time>2026-04-12T07:17:23.853Z</time></trkpt><trkpt lat="43.6525573" lon="6.7761057"><ele>360.0</ele><time>2026-04-12T07:17:24.856Z</time></trkpt><trkpt lat="43.6526286" lon="6.7760316"><ele>356.8333333333333</ele><time>2026-04-12T07:17:25.861Z</time></trkpt><trkpt lat="43.6527061" lon="6.7759637"><ele>353.6666666666667</ele><time>2026-04-12T07:17:26.884Z</time></trkpt><trkpt lat="43.6527756" lon="6.7758903"><ele>350.5</ele><time>2026-04-12T07:17:27.842Z</time></trkpt><trkpt lat="43.6528407" lon="6.7758185"><ele>347.33333333333337</ele><time>2026-04-12T07:17:28.857Z</time></trkpt><trkpt lat="43.6529065" lon="6.7757436"><ele>344.1666666666667</ele><time>2026-04-12T07:17:29.864Z</time></trkpt><trkpt lat="43.6529727" lon="6.7756693"><ele>341.0</ele><time>2026-04-12T07:17:30.846Z</time></trkpt><trkpt lat="43.6530369" lon="6.7755981"><ele>341.0</ele><time>2026-04-12T07:17:31.858Z</time></trkpt><trkpt lat="43.6531054" lon="6.7755288"><ele>341.0</ele><time>2026-04-12T07:17:32.854Z</time></trkpt><trkpt lat="43.653171" lon="6.7754553"><ele>341.0</ele><time>2026-04-12T07:17:33.854Z</time></trkpt><trkpt lat="43.6532361" lon="6.775375"><ele>341.0</ele><time>2026-04-12T07:17:34.87Z</time></trkpt><trkpt lat="43.6533003" lon="6.7752918"><ele>341.0</ele><time>2026-04-12T07:17:35.858Z</time></trkpt><trkpt lat="43.6533652" lon="6.7752007"><ele>341.0</ele><time>2026-04-12T07:17:36.89Z</time></trkpt><trkpt lat="43.653426" lon="6.7751015"><ele>337.4</ele><time>2026-04-12T07:17:37.868Z</time></trkpt><trkpt lat="43.653483" lon="6.7750024"><ele>333.8</ele><time>2026-04-12T07:17:38.872Z</time></trkpt><trkpt lat="43.6535351" lon="6.7748974"><ele>330.2</ele><time>2026-04-12T07:17:39.87Z</time></trkpt><trkpt lat="43.653599" lon="6.7747897"><ele>326.59999999999997</ele><time>2026-04-12T07:17:40.87Z</time></trkpt><trkpt lat="43.653656" lon="6.7746918"><ele>323.0</ele><time>2026-04-12T07:17:41.863Z</time></trkpt><trkpt lat="43.6537176" lon="6.7745955"><ele>323.0</ele><time>2026-04-12T07:17:42.886Z</time></trkpt><trkpt lat="43.6537744" lon="6.7744987"><ele>323.0</ele><time>2026-04-12T07:17:43.834Z</time></trkpt><trkpt lat="43.6538403" lon="6.774411"><ele>323.0</ele><time>2026-04-12T07:17:44.847Z</time></trkpt><trkpt lat="43.6539148" lon="6.7743235"><ele>323.0</ele><time>2026-04-12T07:17:45.848Z</time></trkpt><trkpt lat="43.6540001" lon="6.7742394"><ele>323.0</ele><time>2026-04-12T07:17:46.856Z</time></trkpt><trkpt lat="43.6540818" lon="6.7741584"><ele>321.4</ele><time>2026-04-12T07:17:47.852Z</time></trkpt><trkpt lat="43.654164" lon="6.7740868"><ele>319.79999999999995</ele><time>2026-04-12T07:17:48.873Z</time></trkpt><trkpt lat="43.6542466" lon="6.7740154"><ele>318.2</ele><time>2026-04-12T07:17:49.872Z</time></trkpt><trkpt lat="43.6543196" lon="6.7739391"><ele>316.6</ele><time>2026-04-12T07:17:50.838Z</time></trkpt><trkpt lat="43.6543948" lon="6.7738697"><ele>315.0</ele><time>2026-04-12T07:17:51.869Z</time></trkpt><trkpt lat="43.6544621" lon="6.7737984"><ele>315.0</ele><time>2026-04-12T07:17:52.887Z</time></trkpt><trkpt lat="43.654521" lon="6.7737117"><ele>315.0</ele><time>2026-04-12T07:17:53.871Z</time></trkpt><trkpt lat="43.6545666" lon="6.7736164"><ele>315.0</ele><time>2026-04-12T07:17:54.855Z</time></trkpt><trkpt lat="43.6546008" lon="6.7735017"><ele>315.0</ele><time>2026-04-12T07:17:55.86Z</time></trkpt><trkpt lat="43.6546166" lon="6.7733828"><ele>315.0</ele><time>2026-04-12T07:17:56.85Z</time></trkpt><trkpt lat="43.6546254" lon="6.7732603"><ele>315.0</ele><time>2026-04-12T07:17:57.855Z</time></trkpt><trkpt lat="43.6546326" lon="6.7731312"><ele>318.0</ele><time>2026-04-12T07:17:58.884Z</time></trkpt><trkpt lat="43.6546356" lon="6.7730003"><ele>321.0</ele><time>2026-04-12T07:17:59.857Z</time></trkpt><trkpt lat="43.6546643" lon="6.7728658"><ele>324.0</ele><time>2026-04-12T07:18:00.882Z</time></trkpt><trkpt lat="43.6546958" lon="6.7727239"><ele>327.0</ele><time>2026-04-12T07:18:01.849Z</time></trkpt><trkpt lat="43.6547304" lon="6.7725914"><ele>330.0</ele><time>2026-04-12T07:18:02.86Z</time></trkpt><trkpt lat="43.6547726" lon="6.7724615"><ele>331.0</ele><time>2026-04-12T07:18:03.887Z</time></trkpt><trkpt lat="43.6548198" lon="6.7723294"><ele>332.0</ele><time>2026-04-12T07:18:04.849Z</time></trkpt><trkpt lat="43.6548707" lon="6.7722062"><ele>333.0</ele><time>2026-04-12T07:18:05.87Z</time></trkpt><trkpt lat="43.6549215" lon="6.772086"><ele>334.0</ele><time>2026-04-12T07:18:06.876Z</time></trkpt><trkpt lat="43.6549798" lon="6.7719677"><ele>335.0</ele><time>2026-04-12T07:18:07.863Z</time></trkpt><trkpt lat="43.6550314" lon="6.771844"><ele>336.6</ele><time>2026-04-12T07:18:08.87Z</time></trkpt><trkpt lat="43.6550827" lon="6.7717258"><ele>338.2</ele><time>2026-04-12T07:18:09.879Z</time></trkpt><trkpt lat="43.6551261" lon="6.7716224"><ele>339.79999999999995</ele><time>2026-04-12T07:18:10.877Z</time></trkpt><trkpt lat="43.6551678" lon="6.7715132"><ele>341.4</ele><time>2026-04-12T07:18:11.879Z</time></trkpt><trkpt lat="43.6552129" lon="6.7714087"><ele>343.0</ele><time>2026-04-12T07:18:12.861Z</time></trkpt><trkpt lat="43.6552602" lon="6.7713086"><ele>339.79999999999995</ele><time>2026-04-12T07:18:13.869Z</time></trkpt><trkpt lat="43.6553139" lon="6.7712137"><ele>336.6</ele><time>2026-04-12T07:18:14.878Z</time></trkpt><trkpt lat="43.6553833" lon="6.7711462"><ele>333.4</ele><time>2026-04-12T07:18:15.85Z</time></trkpt><trkpt lat="43.6554623" lon="6.7710941"><ele>330.20000000000005</ele><time>2026-04-12T07:18:16.869Z</time></trkpt><trkpt lat="43.6555459" lon="6.7710371"><ele>327.0</ele><time>2026-04-12T07:18:17.856Z</time></trkpt><trkpt lat="43.6556398" lon="6.7709917"><ele>327.0</ele><time>2026-04-12T07:18:18.876Z</time></trkpt><trkpt lat="43.6557329" lon="6.7709365"><ele>327.0</ele><time>2026-04-12T07:18:19.825Z</time></trkpt><trkpt lat="43.6558198" lon="6.7708819"><ele>327.0</ele><time>2026-04-12T07:18:20.863Z</time></trkpt><trkpt lat="43.6559038" lon="6.7708372"><ele>327.0</ele><time>2026-04-12T07:18:21.841Z</time></trkpt><trkpt lat="43.6559806" lon="6.7707835"><ele>327.0</ele><time>2026-04-12T07:18:22.861Z</time></trkpt><trkpt lat="43.656066" lon="6.7707239"><ele>322.8</ele><time>2026-04-12T07:18:23.871Z</time></trkpt><trkpt lat="43.6561505" lon="6.7706493"><ele>318.6</ele><time>2026-04-12T07:18:24.841Z</time></trkpt><trkpt lat="43.6562225" lon="6.7705475"><ele>314.40000000000003</ele><time>2026-04-12T07:18:25.88Z</time></trkpt><trkpt lat="43.6562559" lon="6.7704345"><ele>310.20000000000005</ele><time>2026-04-12T07:18:26.871Z</time></trkpt><trkpt lat="43.6563168" lon="6.7703553"><ele>306.0</ele><time>2026-04-12T07:18:27.878Z</time></trkpt><trkpt lat="43.6564022" lon="6.7702779"><ele>306.0</ele><time>2026-04-12T07:18:28.871Z</time></trkpt><trkpt lat="43.6564944" lon="6.7701983"><ele>306.0</ele><time>2026-04-12T07:18:29.871Z</time></trkpt><trkpt lat="43.6565911" lon="6.7701246"><ele>306.0</ele><time>2026-04-12T07:18:30.852Z</time></trkpt><trkpt lat="43.6566907" lon="6.7700489"><ele>306.0</ele><time>2026-04-12T07:18:31.892Z</time></trkpt><trkpt lat="43.6567828" lon="6.7699731"><ele>306.0</ele><time>2026-04-12T07:18:32.86Z</time></trkpt><trkpt lat="43.6568734" lon="6.7698919"><ele>305.0</ele><time>2026-04-12T07:18:33.849Z</time></trkpt><trkpt lat="43.6569687" lon="6.7698245"><ele>304.0</ele><time>2026-04-12T07:18:34.856Z</time></trkpt><trkpt lat="43.6570551" lon="6.7697745"><ele>303.0</ele><time>2026-04-12T07:18:35.875Z</time></trkpt><trkpt lat="43.6571437" lon="6.7697174"><ele>302.0</ele><time>2026-04-12T07:18:36.855Z</time></trkpt><trkpt lat="43.6572391" lon="6.7696666"><ele>301.0</ele><time>2026-04-12T07:18:37.883Z</time></trkpt><trkpt lat="43.6573155" lon="6.7696246"><ele>301.0</ele><time>2026-04-12T07:18:38.827Z</time></trkpt><trkpt lat="43.6573855" lon="6.7695813"><ele>301.0</ele><time>2026-04-12T07:18:39.854Z</time></trkpt><trkpt lat="43.6574521" lon="6.769534"><ele>301.0</ele><time>2026-04-12T07:18:40.897Z</time></trkpt><trkpt lat="43.6575207" lon="6.7694884"><ele>301.0</ele><time>2026-04-12T07:18:41.852Z</time></trkpt><trkpt lat="43.6575816" lon="6.769434"><ele>301.0</ele><time>2026-04-12T07:18:42.87Z</time></trkpt><trkpt lat="43.6576294" lon="6.7693652"><ele>301.0</ele><time>2026-04-12T07:18:43.857Z</time></trkpt><trkpt lat="43.6576589" lon="6.7692553"><ele>302.8333333333333</ele><time>2026-04-12T07:18:44.88Z</time></trkpt><trkpt lat="43.6576625" lon="6.7691247"><ele>304.66666666666663</ele><time>2026-04-12T07:18:45.842Z</time></trkpt><trkpt lat="43.6576527" lon="6.7690046"><ele>306.5</ele><time>2026-04-12T07:18:46.839Z</time></trkpt><trkpt lat="43.6576463" lon="6.7688849"><ele>308.3333333333333</ele><time>2026-04-12T07:18:47.853Z</time></trkpt><trkpt lat="43.6576436" lon="6.7687611"><ele>310.1666666666667</ele><time>2026-04-12T07:18:48.876Z</time></trkpt><trkpt lat="43.6576451" lon="6.7686377"><ele>312.0</ele><time>2026-04-12T07:18:49.877Z</time></trkpt><trkpt lat="43.6576515" lon="6.7685202"><ele>313.2857142857143</ele><time>2026-04-12T07:18:50.878Z</time></trkpt><trkpt lat="43.657668" lon="6.7684124"><ele>314.57142857142856</ele><time>2026-04-12T07:18:51.882Z</time></trkpt><trkpt lat="43.6576833" lon="6.7683094"><ele>315.85714285714283</ele><time>2026-04-12T07:18:52.842Z</time></trkpt><trkpt lat="43.6577022" lon="6.7682091"><ele>317.1428571428571</ele><time>2026-04-12T07:18:53.868Z</time></trkpt><trkpt lat="43.6577388" lon="6.768125"><ele>318.42857142857144</ele><time>2026-04-12T07:18:54.888Z</time></trkpt><trkpt lat="43.6577901" lon="6.7680478"><ele>319.71428571428567</ele><time>2026-04-12T07:18:55.874Z</time></trkpt><trkpt lat="43.6578493" lon="6.7679924"><ele>321.0</ele><time>2026-04-12T07:18:56.859Z</time></trkpt><trkpt lat="43.6579207" lon="6.7679541"><ele>318.0</ele><time>2026-04-12T07:18:57.87Z</time></trkpt><trkpt lat="43.6579995" lon="6.7679049"><ele>315.0</ele><time>2026-04-12T07:18:58.854Z</time></trkpt><trkpt lat="43.6580663" lon="6.7678309"><ele>312.0</ele><time>2026-04-12T07:18:59.877Z</time></trkpt><trkpt lat="43.658141" lon="6.7677585"><ele>309.0</ele><time>2026-04-12T07:19:00.867Z</time></trkpt><trkpt lat="43.6582169" lon="6.7676951"><ele>306.0</ele><time>2026-04-12T07:19:01.876Z</time></trkpt><trkpt lat="43.6582883" lon="6.7676325"><ele>303.0</ele><time>2026-04-12T07:19:02.872Z</time></trkpt><trkpt lat="43.6583588" lon="6.7675682"><ele>303.0</ele><time>2026-04-12T07:19:03.864Z</time></trkpt><trkpt lat="43.6584328" lon="6.7674978"><ele>303.0</ele><time>2026-04-12T07:19:04.87Z</time></trkpt><trkpt lat="43.6585066" lon="6.7674193"><ele>303.0</ele><time>2026-04-12T07:19:05.867Z</time></trkpt><trkpt lat="43.658574" lon="6.7673434"><ele>303.0</ele><time>2026-04-12T07:19:06.877Z</time></trkpt><trkpt lat="43.6586435" lon="6.7672626"><ele>303.0</ele><time>2026-04-12T07:19:07.85Z</time></trkpt><trkpt lat="43.6587067" lon="6.7671884"><ele>303.0</ele><time>2026-04-12T07:19:08.908Z</time></trkpt><trkpt lat="43.6587678" lon="6.7671125"><ele>298.6666666666667</ele><time>2026-04-12T07:19:09.838Z</time></trkpt><trkpt lat="43.6588243" lon="6.767038"><ele>294.3333333333333</ele><time>2026-04-12T07:19:10.87Z</time></trkpt><trkpt lat="43.6588773" lon="6.7669548"><ele>290.0</ele><time>2026-04-12T07:19:11.879Z</time></trkpt><trkpt lat="43.6589155" lon="6.7668587"><ele>285.66666666666663</ele><time>2026-04-12T07:19:12.858Z</time></trkpt><trkpt lat="43.6589525" lon="6.7667418"><ele>281.3333333333333</ele><time>2026-04-12T07:19:13.882Z</time></trkpt><trkpt lat="43.6589853" lon="6.7666337"><ele>277.0</ele><time>2026-04-12T07:19:14.871Z</time></trkpt><trkpt lat="43.6590145" lon="6.7665143"><ele>277.0</ele><time>2026-04-12T07:19:15.852Z</time></trkpt><trkpt lat="43.6590558" lon="6.7664146"><ele>277.0</ele><time>2026-04-12T07:19:16.875Z</time></trkpt><trkpt lat="43.6591048" lon="6.7663187"><ele>277.0</ele><time>2026-04-12T07:19:17.873Z</time></trkpt><trkpt lat="43.6591484" lon="6.7662071"><ele>277.0</ele><time>2026-04-12T07:19:18.867Z</time></trkpt><trkpt lat="43.6591815" lon="6.7660992"><ele>277.0</ele><time>2026-04-12T07:19:19.864Z</time></trkpt><trkpt lat="43.6592112" lon="6.765998"><ele>277.0</ele><time>2026-04-12T07:19:20.866Z</time></trkpt><trkpt lat="43.6592384" lon="6.7659022"><ele>279.8</ele><time>2026-04-12T07:19:21.88Z</time></trkpt><trkpt lat="43.6592665" lon="6.7658188"><ele>282.6</ele><time>2026-04-12T07:19:22.867Z</time></trkpt><trkpt lat="43.6593226" lon="6.7656949"><ele>285.40000000000003</ele><time>2026-04-12T07:19:24.861Z</time></trkpt><trkpt lat="43.6593756" lon="6.7655666"><ele>288.2</ele><time>2026-04-12T07:19:26.855Z</time></trkpt><trkpt lat="43.6593569" lon="6.7654021"><ele>291.0</ele><time>2026-04-12T07:19:28.879Z</time></trkpt><trkpt lat="43.6593398" lon="6.7653066"><ele>291.0</ele><time>2026-04-12T07:19:29.841Z</time></trkpt><trkpt lat="43.6593246" lon="6.7652117"><ele>291.0</ele><time>2026-04-12T07:19:30.863Z</time></trkpt><trkpt lat="43.6593179" lon="6.7651138"><ele>291.0</ele><time>2026-04-12T07:19:31.866Z</time></trkpt><trkpt lat="43.6593176" lon="6.7650202"><ele>291.0</ele><time>2026-04-12T07:19:32.877Z</time></trkpt><trkpt lat="43.6593505" lon="6.7649367"><ele>291.0</ele><time>2026-04-12T07:19:33.864Z</time></trkpt><trkpt lat="43.6594081" lon="6.7648713"><ele>291.0</ele><time>2026-04-12T07:19:34.859Z</time></trkpt><trkpt lat="43.6594736" lon="6.7648134"><ele>291.0</ele><time>2026-04-12T07:19:35.866Z</time></trkpt><trkpt lat="43.6595368" lon="6.7647566"><ele>288.0</ele><time>2026-04-12T07:19:36.878Z</time></trkpt><trkpt lat="43.6595999" lon="6.7646898"><ele>285.0</ele><time>2026-04-12T07:19:37.896Z</time></trkpt><trkpt lat="43.6596564" lon="6.7646173"><ele>282.0</ele><time>2026-04-12T07:19:38.854Z</time></trkpt><trkpt lat="43.6597155" lon="6.7645412"><ele>279.0</ele><time>2026-04-12T07:19:39.881Z</time></trkpt><trkpt lat="43.6597741" lon="6.7644624"><ele>276.0</ele><time>2026-04-12T07:19:40.858Z</time></trkpt><trkpt lat="43.6598337" lon="6.7643797"><ele>273.0</ele><time>2026-04-12T07:19:41.857Z</time></trkpt><trkpt lat="43.659888" lon="6.7642996"><ele>273.0</ele><time>2026-04-12T07:19:42.868Z</time></trkpt><trkpt lat="43.6599442" lon="6.7642407"><ele>273.0</ele><time>2026-04-12T07:19:43.86Z</time></trkpt><trkpt lat="43.6599981" lon="6.764174"><ele>273.0</ele><time>2026-04-12T07:19:44.855Z</time></trkpt><trkpt lat="43.6600403" lon="6.7640897"><ele>273.0</ele><time>2026-04-12T07:19:45.851Z</time></trkpt><trkpt lat="43.6600698" lon="6.7639894"><ele>273.0</ele><time>2026-04-12T07:19:46.881Z</time></trkpt><trkpt lat="43.6600878" lon="6.7638701"><ele>273.0</ele><time>2026-04-12T07:19:47.869Z</time></trkpt><trkpt lat="43.6600941" lon="6.763749"><ele>273.0</ele><time>2026-04-12T07:19:48.869Z</time></trkpt><trkpt lat="43.6601105" lon="6.7636354"><ele>273.0</ele><time>2026-04-12T07:19:49.864Z</time></trkpt><trkpt lat="43.660143" lon="6.7635338"><ele>273.0</ele><time>2026-04-12T07:19:50.847Z</time></trkpt><trkpt lat="43.6601954" lon="6.7634469"><ele>273.0</ele><time>2026-04-12T07:19:51.863Z</time></trkpt><trkpt lat="43.6602651" lon="6.7633785"><ele>273.0</ele><time>2026-04-12T07:19:52.853Z</time></trkpt><trkpt lat="43.6603389" lon="6.7633391"><ele>273.0</ele><time>2026-04-12T07:19:53.841Z</time></trkpt><trkpt lat="43.6604153" lon="6.7633207"><ele>271.2</ele><time>2026-04-12T07:19:54.857Z</time></trkpt><trkpt lat="43.6605005" lon="6.7633144"><ele>269.4</ele><time>2026-04-12T07:19:55.887Z</time></trkpt><trkpt lat="43.6605937" lon="6.7632909"><ele>267.59999999999997</ele><time>2026-04-12T07:19:56.872Z</time></trkpt><trkpt lat="43.6606793" lon="6.7632626"><ele>265.8</ele><time>2026-04-12T07:19:57.844Z</time></trkpt><trkpt lat="43.6607608" lon="6.7632117"><ele>264.0</ele><time>2026-04-12T07:19:58.858Z</time></trkpt><trkpt lat="43.6608403" lon="6.7631403"><ele>264.0</ele><time>2026-04-12T07:19:59.877Z</time></trkpt><trkpt lat="43.6609152" lon="6.7630645"><ele>264.0</ele><time>2026-04-12T07:20:00.871Z</time></trkpt><trkpt lat="43.6609858" lon="6.7629896"><ele>264.0</ele><time>2026-04-12T07:20:01.87Z</time></trkpt><trkpt lat="43.6610654" lon="6.7629205"><ele>264.0</ele><time>2026-04-12T07:20:02.872Z</time></trkpt><trkpt lat="43.6611293" lon="6.76284"><ele>264.0</ele><time>2026-04-12T07:20:03.866Z</time></trkpt><trkpt lat="43.661197" lon="6.7627544"><ele>262.8</ele><time>2026-04-12T07:20:04.854Z</time></trkpt><trkpt lat="43.6612646" lon="6.7626664"><ele>261.59999999999997</ele><time>2026-04-12T07:20:05.846Z</time></trkpt><trkpt lat="43.661331" lon="6.7625714"><ele>260.4</ele><time>2026-04-12T07:20:06.864Z</time></trkpt><trkpt lat="43.6614053" lon="6.7624819"><ele>259.2</ele><time>2026-04-12T07:20:07.886Z</time></trkpt><trkpt lat="43.6614795" lon="6.7623927"><ele>258.0</ele><time>2026-04-12T07:20:08.875Z</time></trkpt><trkpt lat="43.6615582" lon="6.762313"><ele>258.0</ele><time>2026-04-12T07:20:09.843Z</time></trkpt><trkpt lat="43.6616349" lon="6.7622442"><ele>258.0</ele><time>2026-04-12T07:20:10.864Z</time></trkpt><trkpt lat="43.6617173" lon="6.7621792"><ele>258.0</ele><time>2026-04-12T07:20:11.87Z</time></trkpt><trkpt lat="43.661805" lon="6.7621129"><ele>258.0</ele><time>2026-04-12T07:20:12.875Z</time></trkpt><trkpt lat="43.6618979" lon="6.7620518"><ele>258.0</ele><time>2026-04-12T07:20:13.86Z</time></trkpt><trkpt lat="43.6619954" lon="6.7619974"><ele>259.4</ele><time>2026-04-12T07:20:14.87Z</time></trkpt><trkpt lat="43.6620863" lon="6.7619579"><ele>260.8</ele><time>2026-04-12T07:20:15.864Z</time></trkpt><trkpt lat="43.662179" lon="6.761927"><ele>262.2</ele><time>2026-04-12T07:20:16.846Z</time></trkpt><trkpt lat="43.6622731" lon="6.7618978"><ele>263.6</ele><time>2026-04-12T07:20:17.872Z</time></trkpt><trkpt lat="43.662368" lon="6.761864"><ele>265.0</ele><time>2026-04-12T07:20:18.865Z</time></trkpt><trkpt lat="43.6624669" lon="6.7618369"><ele>265.0</ele><time>2026-04-12T07:20:19.848Z</time></trkpt><trkpt lat="43.662566" lon="6.7618224"><ele>265.0</ele><time>2026-04-12T07:20:20.857Z</time></trkpt><trkpt lat="43.6626705" lon="6.7618283"><ele>265.0</ele><time>2026-04-12T07:20:21.873Z</time></trkpt><trkpt lat="43.6627721" lon="6.761831"><ele>265.0</ele><time>2026-04-12T07:20:22.884Z</time></trkpt><trkpt lat="43.6628644" lon="6.7618385"><ele>265.0</ele><time>2026-04-12T07:20:23.83Z</time></trkpt><trkpt lat="43.6629613" lon="6.7618382"><ele>263.0</ele><time>2026-04-12T07:20:24.856Z</time></trkpt><trkpt lat="43.6630441" lon="6.7618079"><ele>261.0</ele><time>2026-04-12T07:20:25.882Z</time></trkpt><trkpt lat="43.6631359" lon="6.7617754"><ele>259.0</ele><time>2026-04-12T07:20:26.846Z</time></trkpt><trkpt lat="43.6632284" lon="6.7617659"><ele>257.0</ele><time>2026-04-12T07:20:27.869Z</time></trkpt><trkpt lat="43.6633232" lon="6.7617776"><ele>255.0</ele><time>2026-04-12T07:20:28.853Z</time></trkpt><trkpt lat="43.6634233" lon="6.761798"><ele>255.0</ele><time>2026-04-12T07:20:29.876Z</time></trkpt><trkpt lat="43.6635226" lon="6.7618131"><ele>255.0</ele><time>2026-04-12T07:20:30.883Z</time></trkpt><trkpt lat="43.6636274" lon="6.7618181"><ele>255.0</ele><time>2026-04-12T07:20:31.852Z</time></trkpt><trkpt lat="43.6637254" lon="6.7618193"><ele>255.0</ele><time>2026-04-12T07:20:32.849Z</time></trkpt><trkpt lat="43.6638173" lon="6.7618298"><ele>255.0</ele><time>2026-04-12T07:20:33.843Z</time></trkpt><trkpt lat="43.6639007" lon="6.7618545"><ele>252.4</ele><time>2026-04-12T07:20:34.873Z</time></trkpt><trkpt lat="43.6639862" lon="6.7618721"><ele>249.8</ele><time>2026-04-12T07:20:35.881Z</time></trkpt><trkpt lat="43.6640762" lon="6.7618733"><ele>247.2</ele><time>2026-04-12T07:20:36.851Z</time></trkpt><trkpt lat="43.6641689" lon="6.7618519"><ele>244.6</ele><time>2026-04-12T07:20:37.866Z</time></trkpt><trkpt lat="43.66426" lon="6.761822"><ele>242.0</ele><time>2026-04-12T07:20:38.853Z</time></trkpt><trkpt lat="43.6643457" lon="6.7617965"><ele>242.0</ele><time>2026-04-12T07:20:39.862Z</time></trkpt><trkpt lat="43.6644325" lon="6.7617681"><ele>242.0</ele><time>2026-04-12T07:20:40.824Z</time></trkpt><trkpt lat="43.6645296" lon="6.7617386"><ele>242.0</ele><time>2026-04-12T07:20:41.855Z</time></trkpt><trkpt lat="43.6646322" lon="6.7617072"><ele>242.0</ele><time>2026-04-12T07:20:42.85Z</time></trkpt><trkpt lat="43.6647281" lon="6.7616846"><ele>242.0</ele><time>2026-04-12T07:20:43.866Z</time></trkpt><trkpt lat="43.6648156" lon="6.7616556"><ele>240.16666666666669</ele><time>2026-04-12T07:20:44.847Z</time></trkpt><trkpt lat="43.6649027" lon="6.7616351"><ele>238.33333333333334</ele><time>2026-04-12T07:20:45.869Z</time></trkpt><trkpt lat="43.6649839" lon="6.761615"><ele>236.5</ele><time>2026-04-12T07:20:46.861Z</time></trkpt><trkpt lat="43.6650536" lon="6.7616079"><ele>234.66666666666669</ele><time>2026-04-12T07:20:47.863Z</time></trkpt><trkpt lat="43.6651357" lon="6.7616038"><ele>232.83333333333334</ele><time>2026-04-12T07:20:48.86Z</time></trkpt><trkpt lat="43.6652085" lon="6.761586"><ele>231.0</ele><time>2026-04-12T07:20:49.871Z</time></trkpt><trkpt lat="43.6652749" lon="6.761537"><ele>230.66666666666666</ele><time>2026-04-12T07:20:50.859Z</time></trkpt><trkpt lat="43.6653443" lon="6.7614731"><ele>230.33333333333331</ele><time>2026-04-12T07:20:51.869Z</time></trkpt><trkpt lat="43.6654123" lon="6.7613962"><ele>230.0</ele><time>2026-04-12T07:20:52.861Z</time></trkpt><trkpt lat="43.6654783" lon="6.7613101"><ele>229.66666666666666</ele><time>2026-04-12T07:20:53.829Z</time></trkpt><trkpt lat="43.6655354" lon="6.7612303"><ele>229.33333333333331</ele><time>2026-04-12T07:20:54.824Z</time></trkpt><trkpt lat="43.6655873" lon="6.7611495"><ele>229.0</ele><time>2026-04-12T07:20:55.83Z</time></trkpt><trkpt lat="43.6656274" lon="6.7610493"><ele>228.71428571428572</ele><time>2026-04-12T07:20:56.821Z</time></trkpt><trkpt lat="43.6656694" lon="6.760971"><ele>228.42857142857144</ele><time>2026-04-12T07:20:57.868Z</time></trkpt><trkpt lat="43.6657094" lon="6.7608946"><ele>228.14285714285717</ele><time>2026-04-12T07:20:58.862Z</time></trkpt><trkpt lat="43.6657642" lon="6.7608131"><ele>227.85714285714286</ele><time>2026-04-12T07:20:59.851Z</time></trkpt><trkpt lat="43.6658177" lon="6.7607355"><ele>227.5714285714286</ele><time>2026-04-12T07:21:00.829Z</time></trkpt><trkpt lat="43.6658631" lon="6.7606607"><ele>227.2857142857143</ele><time>2026-04-12T07:21:01.85Z</time></trkpt><trkpt lat="43.6659221" lon="6.7605906"><ele>227.0</ele><time>2026-04-12T07:21:02.876Z</time></trkpt><trkpt lat="43.6659892" lon="6.7605304"><ele>227.0</ele><time>2026-04-12T07:21:03.843Z</time></trkpt><trkpt lat="43.6660569" lon="6.7604984"><ele>227.00000000000003</ele><time>2026-04-12T07:21:04.868Z</time></trkpt><trkpt lat="43.6661236" lon="6.7604823"><ele>227.0</ele><time>2026-04-12T07:21:05.852Z</time></trkpt><trkpt lat="43.6661872" lon="6.760489"><ele>227.0</ele><time>2026-04-12T07:21:06.84Z</time></trkpt><trkpt lat="43.666248" lon="6.7605136"><ele>227.00000000000003</ele><time>2026-04-12T07:21:07.83Z</time></trkpt><trkpt lat="43.6663123" lon="6.7605507"><ele>227.0</ele><time>2026-04-12T07:21:08.865Z</time></trkpt><trkpt lat="43.666379" lon="6.7605872"><ele>227.0</ele><time>2026-04-12T07:21:09.864Z</time></trkpt><trkpt lat="43.6664449" lon="6.7606022"><ele>228.33333333333334</ele><time>2026-04-12T07:21:10.855Z</time></trkpt><trkpt lat="43.6665567" lon="6.7606332"><ele>229.66666666666669</ele><time>2026-04-12T07:21:12.834Z</time></trkpt><trkpt lat="43.6666528" lon="6.7606669"><ele>231.0</ele><time>2026-04-12T07:21:14.864Z</time></trkpt><trkpt lat="43.6667297" lon="6.7607026"><ele>232.33333333333331</ele><time>2026-04-12T07:21:16.852Z</time></trkpt><trkpt lat="43.6668086" lon="6.760708"><ele>233.66666666666666</ele><time>2026-04-12T07:21:19.865Z</time></trkpt><trkpt lat="43.666872" lon="6.7607067"><ele>235.0</ele><time>2026-04-12T07:21:21.857Z</time></trkpt><trkpt lat="43.6669487" lon="6.7607183"><ele>235.0</ele><time>2026-04-12T07:21:23.836Z</time></trkpt><trkpt lat="43.667014" lon="6.7606874"><ele>234.99999999999997</ele><time>2026-04-12T07:21:25.865Z</time></trkpt><trkpt lat="43.6670348" lon="6.7605824"><ele>235.0</ele><time>2026-04-12T07:21:28.867Z</time></trkpt><trkpt lat="43.6669866" lon="6.760492"><ele>235.0</ele><time>2026-04-12T07:21:31.842Z</time></trkpt><trkpt lat="43.6669508" lon="6.7604201"><ele>234.99999999999997</ele><time>2026-04-12T07:21:34.857Z</time></trkpt><trkpt lat="43.6669032" lon="6.760346"><ele>235.0</ele><time>2026-04-12T07:21:37.865Z</time></trkpt><trkpt lat="43.6668438" lon="6.7602927"><ele>235.0</ele><time>2026-04-12T07:21:40.851Z</time></trkpt><trkpt lat="43.6667665" lon="6.7602698"><ele>234.99999999999997</ele><time>2026-04-12T07:21:43.853Z</time></trkpt><trkpt lat="43.6666939" lon="6.7602476"><ele>235.0</ele><time>2026-04-12T07:21:46.864Z</time></trkpt><trkpt lat="43.6666112" lon="6.7602564"><ele>235.0</ele><time>2026-04-12T07:21:49.853Z</time></trkpt><trkpt lat="43.666548" lon="6.7602155"><ele>235.0</ele><time>2026-04-12T07:21:52.858Z</time></trkpt><trkpt lat="43.6666213" lon="6.7601623"><ele>234.99999999999997</ele><time>2026-04-12T07:21:59.846Z</time></trkpt><trkpt lat="43.6667002" lon="6.7601769"><ele>235.0</ele><time>2026-04-12T07:22:03.837Z</time></trkpt><trkpt lat="43.6667811" lon="6.7601662"><ele>235.0</ele><time>2026-04-12T07:22:06.855Z</time></trkpt><trkpt lat="43.6668547" lon="6.7601791"><ele>234.99999999999997</ele><time>2026-04-12T07:22:10.862Z</time></trkpt><trkpt lat="43.6669156" lon="6.7602134"><ele>235.0</ele><time>2026-04-12T07:22:13.868Z</time></trkpt><trkpt lat="43.6669868" lon="6.7602508"><ele>235.0</ele><time>2026-04-12T07:22:16.85Z</time></trkpt><trkpt lat="43.6670619" lon="6.7602795"><ele>234.99999999999997</ele><time>2026-04-12T07:22:19.862Z</time></trkpt><trkpt lat="43.6671374" lon="6.760297"><ele>235.0</ele><time>2026-04-12T07:22:22.833Z</time></trkpt><trkpt lat="43.6672149" lon="6.7603157"><ele>235.0</ele><time>2026-04-12T07:22:25.865Z</time></trkpt><trkpt lat="43.6672879" lon="6.7603445"><ele>237.33333333333331</ele><time>2026-04-12T07:22:28.86Z</time></trkpt><trkpt lat="43.6673684" lon="6.7604059"><ele>239.66666666666666</ele><time>2026-04-12T07:22:31.853Z</time></trkpt><trkpt lat="43.6674358" lon="6.7604532"><ele>242.0</ele><time>2026-04-12T07:22:34.869Z</time></trkpt><trkpt lat="43.6674921" lon="6.760496"><ele>244.33333333333331</ele><time>2026-04-12T07:22:37.843Z</time></trkpt><trkpt lat="43.6675622" lon="6.7605436"><ele>246.66666666666666</ele><time>2026-04-12T07:22:40.868Z</time></trkpt><trkpt lat="43.6676263" lon="6.7605936"><ele>249.0</ele><time>2026-04-12T07:22:43.84Z</time></trkpt><trkpt lat="43.6676975" lon="6.7606528"><ele>249.0</ele><time>2026-04-12T07:22:46.853Z</time></trkpt><trkpt lat="43.6677673" lon="6.7607221"><ele>249.0</ele><time>2026-04-12T07:22:49.871Z</time></trkpt><trkpt lat="43.6678346" lon="6.7607864"><ele>249.0</ele><time>2026-04-12T07:22:52.865Z</time></trkpt><trkpt lat="43.6678973" lon="6.7608625"><ele>249.0</ele><time>2026-04-12T07:22:55.876Z</time></trkpt><trkpt lat="43.6679531" lon="6.7609374"><ele>249.0</ele><time>2026-04-12T07:22:58.853Z</time></trkpt><trkpt lat="43.6680214" lon="6.7609981"><ele>249.0</ele><time>2026-04-12T07:23:01.866Z</time></trkpt><trkpt lat="43.6680963" lon="6.761063"><ele>247.83333333333334</ele><time>2026-04-12T07:23:04.86Z</time></trkpt><trkpt lat="43.6681781" lon="6.7611293"><ele>246.66666666666669</ele><time>2026-04-12T07:23:07.853Z</time></trkpt><trkpt lat="43.6682598" lon="6.7611661"><ele>245.5</ele><time>2026-04-12T07:23:10.877Z</time></trkpt><trkpt lat="43.6683412" lon="6.761199"><ele>244.33333333333334</ele><time>2026-04-12T07:23:13.837Z</time></trkpt><trkpt lat="43.6684235" lon="6.761206"><ele>243.16666666666669</ele><time>2026-04-12T07:23:16.854Z</time></trkpt><trkpt lat="43.6685032" lon="6.7612117"><ele>242.0</ele><time>2026-04-12T07:23:19.845Z</time></trkpt><trkpt lat="43.668591" lon="6.7612272"><ele>243.33333333333334</ele><time>2026-04-12T07:23:22.861Z</time></trkpt><trkpt lat="43.6686716" lon="6.7612295"><ele>244.66666666666669</ele><time>2026-04-12T07:23:25.856Z</time></trkpt><trkpt lat="43.6687483" lon="6.7612308"><ele>246.0</ele><time>2026-04-12T07:23:28.863Z</time></trkpt><trkpt lat="43.6688311" lon="6.761217"><ele>247.33333333333331</ele><time>2026-04-12T07:23:31.855Z</time></trkpt><trkpt lat="43.6689065" lon="6.7611944"><ele>248.66666666666666</ele><time>2026-04-12T07:23:34.847Z</time></trkpt><trkpt lat="43.6689867" lon="6.7611863"><ele>250.0</ele><time>2026-04-12T07:23:37.862Z</time></trkpt><trkpt lat="43.6690657" lon="6.7611668"><ele>249.99999999999997</ele><time>2026-04-12T07:23:40.832Z</time></trkpt><trkpt lat="43.6691318" lon="6.7611573"><ele>250.0</ele><time>2026-04-12T07:23:43.863Z</time></trkpt><trkpt lat="43.6692047" lon="6.761113"><ele>250.0</ele><time>2026-04-12T07:23:46.861Z</time></trkpt><trkpt lat="43.6692698" lon="6.7610788"><ele>250.0</ele><time>2026-04-12T07:23:49.857Z</time></trkpt><trkpt lat="43.6693473" lon="6.7610087"><ele>249.99999999999997</ele><time>2026-04-12T07:23:52.866Z</time></trkpt><trkpt lat="43.6694171" lon="6.7609446"><ele>250.0</ele><time>2026-04-12T07:23:55.874Z</time></trkpt><trkpt lat="43.6694789" lon="6.7608553"><ele>250.66666666666666</ele><time>2026-04-12T07:23:58.855Z</time></trkpt><trkpt lat="43.6695372" lon="6.7607774"><ele>251.33333333333331</ele><time>2026-04-12T07:24:01.86Z</time></trkpt><trkpt lat="43.6695941" lon="6.7606797"><ele>252.0</ele><time>2026-04-12T07:24:04.854Z</time></trkpt><trkpt lat="43.669661" lon="6.7606118"><ele>252.66666666666669</ele><time>2026-04-12T07:24:07.866Z</time></trkpt><trkpt lat="43.669727" lon="6.7605574"><ele>253.33333333333334</ele><time>2026-04-12T07:24:10.865Z</time></trkpt><trkpt lat="43.6697989" lon="6.7605388"><ele>254.0</ele><time>2026-04-12T07:24:13.848Z</time></trkpt><trkpt lat="43.6698752" lon="6.7605351"><ele>254.00000000000003</ele><time>2026-04-12T07:24:16.863Z</time></trkpt><trkpt lat="43.6699583" lon="6.7604647"><ele>254.0</ele><time>2026-04-12T07:24:18.853Z</time></trkpt><trkpt lat="43.6700072" lon="6.7603896"><ele>254.0</ele><time>2026-04-12T07:24:20.848Z</time></trkpt><trkpt lat="43.6700427" lon="6.760317"><ele>254.0</ele><time>2026-04-12T07:24:22.847Z</time></trkpt><trkpt lat="43.6700891" lon="6.7602571"><ele>254.00000000000003</ele><time>2026-04-12T07:24:24.849Z</time></trkpt><trkpt lat="43.6701716" lon="6.7602109"><ele>254.0</ele><time>2026-04-12T07:24:27.849Z</time></trkpt><trkpt lat="43.6702337" lon="6.7601841"><ele>256.5</ele><time>2026-04-12T07:24:29.854Z</time></trkpt><trkpt lat="43.6702954" lon="6.7601638"><ele>259.0</ele><time>2026-04-12T07:24:31.849Z</time></trkpt><trkpt lat="43.6703722" lon="6.7601457"><ele>261.5</ele><time>2026-04-12T07:24:34.851Z</time></trkpt><trkpt lat="43.6704426" lon="6.760162"><ele>264.0</ele><time>2026-04-12T07:24:37.863Z</time></trkpt><trkpt lat="43.6705193" lon="6.760128"><ele>266.5</ele><time>2026-04-12T07:24:40.848Z</time></trkpt><trkpt lat="43.6705904" lon="6.7600697"><ele>269.0</ele><time>2026-04-12T07:24:43.864Z</time></trkpt><trkpt lat="43.6706551" lon="6.7599894"><ele>269.0</ele><time>2026-04-12T07:24:46.833Z</time></trkpt><trkpt lat="43.6707072" lon="6.7599037"><ele>269.0</ele><time>2026-04-12T07:24:49.855Z</time></trkpt><trkpt lat="43.6707574" lon="6.7598486"><ele>269.0</ele><time>2026-04-12T07:24:51.859Z</time></trkpt><trkpt lat="43.6708161" lon="6.7597993"><ele>269.0</ele><time>2026-04-12T07:24:53.854Z</time></trkpt><trkpt lat="43.6709016" lon="6.7597398"><ele>269.0</ele><time>2026-04-12T07:24:56.862Z</time></trkpt><trkpt lat="43.6709806" lon="6.7597082"><ele>269.0</ele><time>2026-04-12T07:24:59.848Z</time></trkpt><trkpt lat="43.6710586" lon="6.7596797"><ele>268.5</ele><time>2026-04-12T07:25:02.855Z</time></trkpt><trkpt lat="43.671145" lon="6.7596619"><ele>268.0</ele><time>2026-04-12T07:25:05.854Z</time></trkpt><trkpt lat="43.6712249" lon="6.7596441"><ele>267.5</ele><time>2026-04-12T07:25:08.861Z</time></trkpt><trkpt lat="43.6712948" lon="6.759608"><ele>267.0</ele><time>2026-04-12T07:25:11.863Z</time></trkpt><trkpt lat="43.6713749" lon="6.7595634"><ele>266.5</ele><time>2026-04-12T07:25:14.834Z</time></trkpt><trkpt lat="43.6714503" lon="6.7595706"><ele>266.0</ele><time>2026-04-12T07:25:17.828Z</time></trkpt><trkpt lat="43.6715295" lon="6.7595913"><ele>266.0</ele><time>2026-04-12T07:25:20.84Z</time></trkpt><trkpt lat="43.6716118" lon="6.7596006"><ele>266.0</ele><time>2026-04-12T07:25:23.853Z</time></trkpt><trkpt lat="43.6716893" lon="6.7595877"><ele>266.0</ele><time>2026-04-12T07:25:26.846Z</time></trkpt><trkpt lat="43.6717692" lon="6.7595537"><ele>266.0</ele><time>2026-04-12T07:25:29.848Z</time></trkpt><trkpt lat="43.6718559" lon="6.7595141"><ele>266.0</ele><time>2026-04-12T07:25:32.83Z</time></trkpt><trkpt lat="43.6719384" lon="6.7595174"><ele>266.0</ele><time>2026-04-12T07:25:35.85Z</time></trkpt><trkpt lat="43.6720266" lon="6.7595366"><ele>266.6666666666667</ele><time>2026-04-12T07:25:38.865Z</time></trkpt><trkpt lat="43.6721141" lon="6.7595437"><ele>267.33333333333337</ele><time>2026-04-12T07:25:41.858Z</time></trkpt><trkpt lat="43.672205" lon="6.7595528"><ele>268.0</ele><time>2026-04-12T07:25:44.865Z</time></trkpt><trkpt lat="43.6722841" lon="6.7595664"><ele>268.6666666666667</ele><time>2026-04-12T07:25:47.851Z</time></trkpt><trkpt lat="43.6723653" lon="6.7595793"><ele>269.3333333333333</ele><time>2026-04-12T07:25:50.869Z</time></trkpt><trkpt lat="43.6724499" lon="6.7595751"><ele>270.0</ele><time>2026-04-12T07:25:53.869Z</time></trkpt><trkpt lat="43.6725316" lon="6.7595794"><ele>270.0</ele><time>2026-04-12T07:25:56.848Z</time></trkpt><trkpt lat="43.6726041" lon="6.7595737"><ele>270.0</ele><time>2026-04-12T07:25:59.862Z</time></trkpt><trkpt lat="43.6726833" lon="6.7595809"><ele>270.0</ele><time>2026-04-12T07:26:02.868Z</time></trkpt><trkpt lat="43.6727606" lon="6.7595644"><ele>270.0</ele><time>2026-04-12T07:26:05.856Z</time></trkpt><trkpt lat="43.6728399" lon="6.7595553"><ele>270.0</ele><time>2026-04-12T07:26:08.852Z</time></trkpt><trkpt lat="43.672913" lon="6.7595311"><ele>270.0</ele><time>2026-04-12T07:26:11.869Z</time></trkpt><trkpt lat="43.6729845" lon="6.7594751"><ele>270.1666666666667</ele><time>2026-04-12T07:26:14.85Z</time></trkpt><trkpt lat="43.67304" lon="6.7593831"><ele>270.3333333333333</ele><time>2026-04-12T07:26:17.869Z</time></trkpt><trkpt lat="43.6730844" lon="6.7592779"><ele>270.5</ele><time>2026-04-12T07:26:20.837Z</time></trkpt><trkpt lat="43.6731225" lon="6.7591859"><ele>270.66666666666663</ele><time>2026-04-12T07:26:23.864Z</time></trkpt><trkpt lat="43.6731745" lon="6.7590925"><ele>270.8333333333333</ele><time>2026-04-12T07:26:26.881Z</time></trkpt><trkpt lat="43.6732395" lon="6.7590118"><ele>271.0</ele><time>2026-04-12T07:26:29.855Z</time></trkpt><trkpt lat="43.6733211" lon="6.7589555"><ele>274.5</ele><time>2026-04-12T07:26:32.851Z</time></trkpt><trkpt lat="43.6733946" lon="6.7588957"><ele>278.0</ele><time>2026-04-12T07:26:35.873Z</time></trkpt><trkpt lat="43.6734467" lon="6.7587931"><ele>281.5</ele><time>2026-04-12T07:26:38.869Z</time></trkpt><trkpt lat="43.6734886" lon="6.758686"><ele>285.0</ele><time>2026-04-12T07:26:41.849Z</time></trkpt><trkpt lat="43.6735576" lon="6.7586066"><ele>288.5</ele><time>2026-04-12T07:26:44.866Z</time></trkpt><trkpt lat="43.6736432" lon="6.7586032"><ele>292.0</ele><time>2026-04-12T07:26:47.864Z</time></trkpt><trkpt lat="43.6737337" lon="6.7586262"><ele>292.66666666666663</ele><time>2026-04-12T07:26:50.871Z</time></trkpt><trkpt lat="43.6738217" lon="6.7586447"><ele>293.3333333333333</ele><time>2026-04-12T07:26:53.852Z</time></trkpt><trkpt lat="43.6739004" lon="6.7586377"><ele>294.0</ele><time>2026-04-12T07:26:56.86Z</time></trkpt><trkpt lat="43.6739844" lon="6.7586366"><ele>294.6666666666667</ele><time>2026-04-12T07:26:59.845Z</time></trkpt><trkpt lat="43.6740731" lon="6.7586458"><ele>295.33333333333337</ele><time>2026-04-12T07:27:02.856Z</time></trkpt><trkpt lat="43.6741576" lon="6.7586795"><ele>296.0</ele><time>2026-04-12T07:27:05.872Z</time></trkpt><trkpt lat="43.6742359" lon="6.7587273"><ele>296.0</ele><time>2026-04-12T07:27:08.861Z</time></trkpt><trkpt lat="43.6743048" lon="6.7587998"><ele>296.0</ele><time>2026-04-12T07:27:11.839Z</time></trkpt><trkpt lat="43.6743694" lon="6.7588831"><ele>296.0</ele><time>2026-04-12T07:27:14.863Z</time></trkpt><trkpt lat="43.6744216" lon="6.7589771"><ele>296.0</ele><time>2026-04-12T07:27:17.845Z</time></trkpt><trkpt lat="43.6744765" lon="6.7590688"><ele>296.0</ele><time>2026-04-12T07:27:20.859Z</time></trkpt><trkpt lat="43.6745286" lon="6.759156"><ele>296.0</ele><time>2026-04-12T07:27:23.845Z</time></trkpt><trkpt lat="43.6745739" lon="6.7592536"><ele>299.1666666666667</ele><time>2026-04-12T07:27:26.853Z</time></trkpt><trkpt lat="43.6746064" lon="6.759361"><ele>302.33333333333337</ele><time>2026-04-12T07:27:29.846Z</time></trkpt><trkpt lat="43.6746359" lon="6.7594846"><ele>305.5</ele><time>2026-04-12T07:27:32.864Z</time></trkpt><trkpt lat="43.6746669" lon="6.7595878"><ele>308.6666666666667</ele><time>2026-04-12T07:27:35.881Z</time></trkpt><trkpt lat="43.6747059" lon="6.7596969"><ele>311.8333333333333</ele><time>2026-04-12T07:27:38.857Z</time></trkpt><trkpt lat="43.6747568" lon="6.7597914"><ele>315.0</ele><time>2026-04-12T07:27:41.884Z</time></trkpt><trkpt lat="43.6748019" lon="6.7599003"><ele>315.0</ele><time>2026-04-12T07:27:44.883Z</time></trkpt><trkpt lat="43.6748483" lon="6.7599947"><ele>315.0</ele><time>2026-04-12T07:27:47.857Z</time></trkpt><trkpt lat="43.6748927" lon="6.7600876"><ele>315.0</ele><time>2026-04-12T07:27:50.871Z</time></trkpt><trkpt lat="43.6749393" lon="6.7601873"><ele>315.0</ele><time>2026-04-12T07:27:53.851Z</time></trkpt><trkpt lat="43.6749866" lon="6.7602829"><ele>315.0</ele><time>2026-04-12T07:27:56.863Z</time></trkpt><trkpt lat="43.6750423" lon="6.7603625"><ele>315.0</ele><time>2026-04-12T07:27:59.858Z</time></trkpt><trkpt lat="43.6751237" lon="6.7603766"><ele>312.6666666666667</ele><time>2026-04-12T07:28:02.858Z</time></trkpt><trkpt lat="43.6752001" lon="6.7603219"><ele>310.3333333333333</ele><time>2026-04-12T07:28:05.86Z</time></trkpt><trkpt lat="43.6752544" lon="6.7602768"><ele>308.0</ele><time>2026-04-12T07:28:07.854Z</time></trkpt><trkpt lat="43.6753117" lon="6.7602342"><ele>305.66666666666663</ele><time>2026-04-12T07:28:09.866Z</time></trkpt><trkpt lat="43.6753892" lon="6.7601934"><ele>303.3333333333333</ele><time>2026-04-12T07:28:12.856Z</time></trkpt><trkpt lat="43.6754732" lon="6.7601677"><ele>301.0</ele><time>2026-04-12T07:28:15.86Z</time></trkpt><trkpt lat="43.6755603" lon="6.7601488"><ele>301.0</ele><time>2026-04-12T07:28:18.852Z</time></trkpt><trkpt lat="43.6756434" lon="6.7601305"><ele>301.0</ele><time>2026-04-12T07:28:21.875Z</time></trkpt><trkpt lat="43.6757323" lon="6.7601237"><ele>301.0</ele><time>2026-04-12T07:28:24.841Z</time></trkpt><trkpt lat="43.6758145" lon="6.7601229"><ele>301.0</ele><time>2026-04-12T07:28:27.859Z</time></trkpt><trkpt lat="43.6758903" lon="6.7601399"><ele>301.0</ele><time>2026-04-12T07:28:30.848Z</time></trkpt><trkpt lat="43.675951" lon="6.7601632"><ele>301.0</ele><time>2026-04-12T07:28:34.848Z</time></trkpt><trkpt lat="43.6760053" lon="6.7602116"><ele>301.0</ele><time>2026-04-12T07:29:44.852Z</time></trkpt><trkpt lat="43.6760692" lon="6.7602241"><ele>301.0</ele><time>2026-04-12T07:29:47.863Z</time></trkpt><trkpt lat="43.6761506" lon="6.7602133"><ele>301.0</ele><time>2026-04-12T07:29:50.849Z</time></trkpt><trkpt lat="43.6762282" lon="6.7602252"><ele>301.0</ele><time>2026-04-12T07:29:53.826Z</time></trkpt><trkpt lat="43.6763084" lon="6.7602394"><ele>301.0</ele><time>2026-04-12T07:29:56.854Z</time></trkpt><trkpt lat="43.6763826" lon="6.7602658"><ele>301.0</ele><time>2026-04-12T07:29:59.852Z</time></trkpt><trkpt lat="43.6764627" lon="6.760286"><ele>303.0</ele><time>2026-04-12T07:30:02.852Z</time></trkpt><trkpt lat="43.6765397" lon="6.7602948"><ele>305.0</ele><time>2026-04-12T07:30:05.862Z</time></trkpt><trkpt lat="43.6766193" lon="6.7603098"><ele>307.0</ele><time>2026-04-12T07:30:08.858Z</time></trkpt><trkpt lat="43.6766913" lon="6.7603117"><ele>309.0</ele><time>2026-04-12T07:30:11.858Z</time></trkpt><trkpt lat="43.6767702" lon="6.7603269"><ele>311.0</ele><time>2026-04-12T07:30:14.855Z</time></trkpt><trkpt lat="43.6768349" lon="6.7603652"><ele>313.0</ele><time>2026-04-12T07:30:16.866Z</time></trkpt><trkpt lat="43.6769166" lon="6.7604163"><ele>315.5</ele><time>2026-04-12T07:30:19.857Z</time></trkpt><trkpt lat="43.6769945" lon="6.760457"><ele>318.0</ele><time>2026-04-12T07:30:22.859Z</time></trkpt><trkpt lat="43.6770752" lon="6.7604911"><ele>320.5</ele><time>2026-04-12T07:30:25.823Z</time></trkpt><trkpt lat="43.6771615" lon="6.7605231"><ele>323.0</ele><time>2026-04-12T07:30:28.865Z</time></trkpt><trkpt lat="43.6772493" lon="6.7605336"><ele>325.5</ele><time>2026-04-12T07:30:31.845Z</time></trkpt><trkpt lat="43.6773155" lon="6.7604764"><ele>328.0</ele><time>2026-04-12T07:30:34.86Z</time></trkpt><trkpt lat="43.6773261" lon="6.7603655"><ele>328.0</ele><time>2026-04-12T07:30:37.848Z</time></trkpt><trkpt lat="43.6772551" lon="6.7603013"><ele>328.0</ele><time>2026-04-12T07:30:40.851Z</time></trkpt><trkpt lat="43.6771768" lon="6.7602777"><ele>328.0</ele><time>2026-04-12T07:30:43.842Z</time></trkpt><trkpt lat="43.6771089" lon="6.7602671"><ele>328.0</ele><time>2026-04-12T07:30:46.865Z</time></trkpt><trkpt lat="43.6770284" lon="6.7602351"><ele>328.0</ele><time>2026-04-12T07:30:50.861Z</time></trkpt><trkpt lat="43.6769677" lon="6.7601807"><ele>328.0</ele><time>2026-04-12T07:30:53.827Z</time></trkpt><trkpt lat="43.6769108" lon="6.760099"><ele>330.85714285714283</ele><time>2026-04-12T07:30:57.874Z</time></trkpt><trkpt lat="43.6768535" lon="6.7600549"><ele>333.7142857142857</ele><time>2026-04-12T07:30:59.853Z</time></trkpt><trkpt lat="43.6767731" lon="6.7599989"><ele>336.57142857142856</ele><time>2026-04-12T07:31:02.871Z</time></trkpt><trkpt lat="43.6767137" lon="6.7599532"><ele>339.42857142857144</ele><time>2026-04-12T07:31:04.858Z</time></trkpt><trkpt lat="43.6766362" lon="6.759899"><ele>342.2857142857143</ele><time>2026-04-12T07:31:07.866Z</time></trkpt><trkpt lat="43.6765742" lon="6.7598685"><ele>345.1428571428571</ele><time>2026-04-12T07:31:09.857Z</time></trkpt><trkpt lat="43.6765172" lon="6.7598272"><ele>348.0</ele><time>2026-04-12T07:31:11.85Z</time></trkpt><trkpt lat="43.6764433" lon="6.759769"><ele>348.0</ele><time>2026-04-12T07:31:14.873Z</time></trkpt><trkpt lat="43.6763598" lon="6.7597294"><ele>348.0</ele><time>2026-04-12T07:31:17.848Z</time></trkpt><trkpt lat="43.6762762" lon="6.7596938"><ele>348.0</ele><time>2026-04-12T07:31:20.849Z</time></trkpt><trkpt lat="43.6761862" lon="6.7596878"><ele>348.0</ele><time>2026-04-12T07:31:23.847Z</time></trkpt><trkpt lat="43.6761219" lon="6.7596851"><ele>348.0</ele><time>2026-04-12T07:31:25.867Z</time></trkpt><trkpt lat="43.6760551" lon="6.7596763"><ele>348.0</ele><time>2026-04-12T07:31:27.86Z</time></trkpt><trkpt lat="43.675983" lon="6.7596597"><ele>346.6666666666667</ele><time>2026-04-12T07:31:29.854Z</time></trkpt><trkpt lat="43.6759177" lon="6.759655"><ele>345.3333333333333</ele><time>2026-04-12T07:31:31.859Z</time></trkpt><trkpt lat="43.6758393" lon="6.7596544"><ele>344.0</ele><time>2026-04-12T07:31:34.871Z</time></trkpt><trkpt lat="43.675765" lon="6.7596429"><ele>342.66666666666663</ele><time>2026-04-12T07:31:37.86Z</time></trkpt><trkpt lat="43.6756689" lon="6.7596328"><ele>341.3333333333333</ele><time>2026-04-12T07:31:40.851Z</time></trkpt><trkpt lat="43.6756028" lon="6.7596347"><ele>340.0</ele><time>2026-04-12T07:31:42.868Z</time></trkpt><trkpt lat="43.6755202" lon="6.7596298"><ele>340.0</ele><time>2026-04-12T07:31:45.848Z</time></trkpt><trkpt lat="43.6754475" lon="6.7595846"><ele>340.0</ele><time>2026-04-12T07:31:49.863Z</time></trkpt><trkpt lat="43.675383" lon="6.7595063"><ele>340.0</ele><time>2026-04-12T07:31:53.867Z</time></trkpt><trkpt lat="43.6753544" lon="6.7593994"><ele>340.0</ele><time>2026-04-12T07:31:56.876Z</time></trkpt><trkpt lat="43.6753195" lon="6.7592873"><ele>340.0</ele><time>2026-04-12T07:31:59.849Z</time></trkpt><trkpt lat="43.6752929" lon="6.7591896"><ele>340.0</ele><time>2026-04-12T07:32:02.87Z</time></trkpt><trkpt lat="43.6752632" lon="6.7590709"><ele>340.3333333333333</ele><time>2026-04-12T07:32:05.855Z</time></trkpt><trkpt lat="43.6752368" lon="6.7589682"><ele>340.66666666666663</ele><time>2026-04-12T07:32:08.824Z</time></trkpt><trkpt lat="43.6752351" lon="6.7588376"><ele>341.0</ele><time>2026-04-12T07:32:11.867Z</time></trkpt><trkpt lat="43.6752148" lon="6.7587316"><ele>341.3333333333333</ele><time>2026-04-12T07:32:13.846Z</time></trkpt><trkpt lat="43.6751908" lon="6.7586193"><ele>341.6666666666667</ele><time>2026-04-12T07:32:16.829Z</time></trkpt><trkpt lat="43.6751527" lon="6.758522"><ele>342.0</ele><time>2026-04-12T07:32:19.841Z</time></trkpt><trkpt lat="43.6751257" lon="6.7584144"><ele>346.5</ele><time>2026-04-12T07:32:22.864Z</time></trkpt><trkpt lat="43.6750803" lon="6.7583242"><ele>351.0</ele><time>2026-04-12T07:32:25.864Z</time></trkpt><trkpt lat="43.6750265" lon="6.7582167"><ele>355.5</ele><time>2026-04-12T07:32:29.823Z</time></trkpt><trkpt lat="43.6749742" lon="6.7581339"><ele>360.0</ele><time>2026-04-12T07:32:32.823Z</time></trkpt><trkpt lat="43.6749078" lon="6.7580544"><ele>364.5</ele><time>2026-04-12T07:32:35.841Z</time></trkpt><trkpt lat="43.6748577" lon="6.7579486"><ele>369.0</ele><time>2026-04-12T07:32:38.828Z</time></trkpt><trkpt lat="43.6748076" lon="6.7578825"><ele>369.0</ele><time>2026-04-12T07:32:41.863Z</time></trkpt><trkpt lat="43.67475" lon="6.7577924"><ele>369.0</ele><time>2026-04-12T07:32:45.851Z</time></trkpt><trkpt lat="43.6746681" lon="6.757722"><ele>369.0</ele><time>2026-04-12T07:32:48.857Z</time></trkpt><trkpt lat="43.6745995" lon="6.757669"><ele>369.0</ele><time>2026-04-12T07:32:51.834Z</time></trkpt><trkpt lat="43.6745247" lon="6.7576234"><ele>369.0</ele><time>2026-04-12T07:32:54.865Z</time></trkpt><trkpt lat="43.6744412" lon="6.7575804"><ele>369.0</ele><time>2026-04-12T07:32:57.853Z</time></trkpt><trkpt lat="43.6743733" lon="6.7575561"><ele>370.5</ele><time>2026-04-12T07:32:59.846Z</time></trkpt><trkpt lat="43.6742876" lon="6.7575449"><ele>372.0</ele><time>2026-04-12T07:33:01.875Z</time></trkpt><trkpt lat="43.6741945" lon="6.7575831"><ele>373.5</ele><time>2026-04-12T07:33:04.86Z</time></trkpt><trkpt lat="43.6741351" lon="6.7576446"><ele>375.0</ele><time>2026-04-12T07:33:06.868Z</time></trkpt><trkpt lat="43.6740863" lon="6.7577026"><ele>376.5</ele><time>2026-04-12T07:33:08.869Z</time></trkpt><trkpt lat="43.6740313" lon="6.7577599"><ele>378.0</ele><time>2026-04-12T07:33:10.865Z</time></trkpt><trkpt lat="43.6739489" lon="6.7578026"><ele>378.0</ele><time>2026-04-12T07:33:13.835Z</time></trkpt><trkpt lat="43.67389" lon="6.7577394"><ele>378.0</ele><time>2026-04-12T07:33:16.862Z</time></trkpt><trkpt lat="43.6739085" lon="6.7576414"><ele>378.0</ele><time>2026-04-12T07:33:19.85Z</time></trkpt><trkpt lat="43.6739776" lon="6.7575623"><ele>378.0</ele><time>2026-04-12T07:33:22.861Z</time></trkpt><trkpt lat="43.6740558" lon="6.7575004"><ele>378.0</ele><time>2026-04-12T07:33:25.84Z</time></trkpt><trkpt lat="43.6741381" lon="6.7574525"><ele>378.0</ele><time>2026-04-12T07:33:28.842Z</time></trkpt><trkpt lat="43.6742169" lon="6.7574205"><ele>378.0</ele><time>2026-04-12T07:33:31.839Z</time></trkpt><trkpt lat="43.6742967" lon="6.7574014"><ele>378.0</ele><time>2026-04-12T07:33:34.862Z</time></trkpt><trkpt lat="43.6743733" lon="6.7573939"><ele>378.0</ele><time>2026-04-12T07:33:37.856Z</time></trkpt><trkpt lat="43.6744554" lon="6.7574152"><ele>378.0</ele><time>2026-04-12T07:33:40.846Z</time></trkpt><trkpt lat="43.6745373" lon="6.7574534"><ele>378.0</ele><time>2026-04-12T07:33:43.858Z</time></trkpt><trkpt lat="43.6746193" lon="6.7574859"><ele>378.0</ele><time>2026-04-12T07:33:46.86Z</time></trkpt><trkpt lat="43.6747054" lon="6.7575314"><ele>376.5</ele><time>2026-04-12T07:33:49.861Z</time></trkpt><trkpt lat="43.6747791" lon="6.757585"><ele>375.0</ele><time>2026-04-12T07:33:52.866Z</time></trkpt><trkpt lat="43.6748491" lon="6.7576381"><ele>373.5</ele><time>2026-04-12T07:33:55.844Z</time></trkpt><trkpt lat="43.6749268" lon="6.7577067"><ele>372.0</ele><time>2026-04-12T07:33:58.841Z</time></trkpt><trkpt lat="43.6749914" lon="6.7577665"><ele>370.5</ele><time>2026-04-12T07:34:01.845Z</time></trkpt><trkpt lat="43.6750542" lon="6.7578386"><ele>369.0</ele><time>2026-04-12T07:34:04.846Z</time></trkpt><trkpt lat="43.6751149" lon="6.7579032"><ele>369.0</ele><time>2026-04-12T07:34:07.865Z</time></trkpt><trkpt lat="43.6751825" lon="6.7579674"><ele>369.0</ele><time>2026-04-12T07:34:10.865Z</time></trkpt><trkpt lat="43.6752467" lon="6.7580374"><ele>369.0</ele><time>2026-04-12T07:34:13.826Z</time></trkpt><trkpt lat="43.6753063" lon="6.7581125"><ele>369.0</ele><time>2026-04-12T07:34:16.831Z</time></trkpt><trkpt lat="43.6753624" lon="6.7581923"><ele>369.0</ele><time>2026-04-12T07:34:19.84Z</time></trkpt><trkpt lat="43.675407" lon="6.7582717"><ele>369.0</ele><time>2026-04-12T07:34:22.868Z</time></trkpt><trkpt lat="43.6754397" lon="6.7583625"><ele>370.6666666666667</ele><time>2026-04-12T07:34:25.886Z</time></trkpt><trkpt lat="43.6754741" lon="6.7584446"><ele>372.3333333333333</ele><time>2026-04-12T07:34:28.885Z</time></trkpt><trkpt lat="43.6755059" lon="6.7585552"><ele>374.0</ele><time>2026-04-12T07:34:31.871Z</time></trkpt><trkpt lat="43.6755422" lon="6.7586599"><ele>375.66666666666663</ele><time>2026-04-12T07:34:34.852Z</time></trkpt><trkpt lat="43.6755975" lon="6.7587379"><ele>377.3333333333333</ele><time>2026-04-12T07:34:37.871Z</time></trkpt><trkpt lat="43.6756573" lon="6.7587967"><ele>379.0</ele><time>2026-04-12T07:34:40.854Z</time></trkpt><trkpt lat="43.6757385" lon="6.7588257"><ele>379.0</ele><time>2026-04-12T07:34:43.862Z</time></trkpt><trkpt lat="43.6758247" lon="6.7588462"><ele>379.0</ele><time>2026-04-12T07:34:46.886Z</time></trkpt><trkpt lat="43.675965" lon="6.7588579"><ele>379.0</ele><time>2026-04-12T07:34:51.871Z</time></trkpt><trkpt lat="43.6760475" lon="6.7588614"><ele>379.0</ele><time>2026-04-12T07:34:54.871Z</time></trkpt><trkpt lat="43.6761239" lon="6.758855"><ele>379.0</ele><time>2026-04-12T07:34:57.856Z</time></trkpt><trkpt lat="43.6762043" lon="6.7588574"><ele>381.3333333333333</ele><time>2026-04-12T07:35:00.843Z</time></trkpt><trkpt lat="43.6762843" lon="6.7588282"><ele>383.66666666666663</ele><time>2026-04-12T07:35:03.842Z</time></trkpt><trkpt lat="43.6763696" lon="6.7588195"><ele>386.0</ele><time>2026-04-12T07:35:06.849Z</time></trkpt><trkpt lat="43.6764542" lon="6.7588301"><ele>388.3333333333333</ele><time>2026-04-12T07:35:09.878Z</time></trkpt><trkpt lat="43.6765331" lon="6.7588252"><ele>390.6666666666667</ele><time>2026-04-12T07:35:12.842Z</time></trkpt><trkpt lat="43.6766212" lon="6.7588424"><ele>393.0</ele><time>2026-04-12T07:35:15.857Z</time></trkpt><trkpt lat="43.6766988" lon="6.7588591"><ele>393.0</ele><time>2026-04-12T07:35:18.861Z</time></trkpt><trkpt lat="43.6767724" lon="6.7589013"><ele>393.0</ele><time>2026-04-12T07:35:21.858Z</time></trkpt><trkpt lat="43.6768457" lon="6.758941"><ele>393.0</ele><time>2026-04-12T07:35:24.849Z</time></trkpt><trkpt lat="43.6769124" lon="6.7589999"><ele>393.0</ele><time>2026-04-12T07:35:27.85Z</time></trkpt><trkpt lat="43.6769808" lon="6.7590459"><ele>393.0</ele><time>2026-04-12T07:35:30.859Z</time></trkpt><trkpt lat="43.6770524" lon="6.7590832"><ele>393.0</ele><time>2026-04-12T07:35:33.84Z</time></trkpt><trkpt lat="43.677126" lon="6.7591151"><ele>394.8333333333333</ele><time>2026-04-12T07:35:36.847Z</time></trkpt><trkpt lat="43.6772113" lon="6.7591429"><ele>396.66666666666663</ele><time>2026-04-12T07:35:39.892Z</time></trkpt><trkpt lat="43.6772855" lon="6.7591572"><ele>398.5</ele><time>2026-04-12T07:35:42.865Z</time></trkpt><trkpt lat="43.6773641" lon="6.759168"><ele>400.3333333333333</ele><time>2026-04-12T07:35:45.877Z</time></trkpt><trkpt lat="43.6774428" lon="6.7591781"><ele>402.16666666666663</ele><time>2026-04-12T07:35:48.866Z</time></trkpt><trkpt lat="43.6775231" lon="6.759185"><ele>404.0</ele><time>2026-04-12T07:35:51.869Z</time></trkpt><trkpt lat="43.6775985" lon="6.7591873"><ele>403.99999999999994</ele><time>2026-04-12T07:35:54.839Z</time></trkpt><trkpt lat="43.6776764" lon="6.759204"><ele>404.0</ele><time>2026-04-12T07:35:57.854Z</time></trkpt><trkpt lat="43.6777547" lon="6.7591992"><ele>404.0</ele><time>2026-04-12T07:36:00.882Z</time></trkpt><trkpt lat="43.6778417" lon="6.7591967"><ele>404.0</ele><time>2026-04-12T07:36:03.897Z</time></trkpt><trkpt lat="43.6779304" lon="6.7591969"><ele>403.99999999999994</ele><time>2026-04-12T07:36:06.846Z</time></trkpt><trkpt lat="43.6780041" lon="6.7591746"><ele>404.0</ele><time>2026-04-12T07:36:09.848Z</time></trkpt><trkpt lat="43.6780704" lon="6.759141"><ele>404.49999999999994</ele><time>2026-04-12T07:36:12.858Z</time></trkpt><trkpt lat="43.6781457" lon="6.7590762"><ele>405.0</ele><time>2026-04-12T07:36:15.851Z</time></trkpt><trkpt lat="43.6782214" lon="6.7590242"><ele>405.5</ele><time>2026-04-12T07:36:18.872Z</time></trkpt><trkpt lat="43.6783002" lon="6.7589802"><ele>406.0</ele><time>2026-04-12T07:36:21.859Z</time></trkpt><trkpt lat="43.6783801" lon="6.7589523"><ele>406.49999999999994</ele><time>2026-04-12T07:36:24.872Z</time></trkpt><trkpt lat="43.6784616" lon="6.7589267"><ele>407.0</ele><time>2026-04-12T07:36:27.855Z</time></trkpt><trkpt lat="43.6785425" lon="6.7589117"><ele>404.49999999999994</ele><time>2026-04-12T07:36:30.851Z</time></trkpt><trkpt lat="43.6786279" lon="6.7588873"><ele>402.0</ele><time>2026-04-12T07:36:33.864Z</time></trkpt><trkpt lat="43.6787015" lon="6.7588682"><ele>399.5</ele><time>2026-04-12T07:36:36.855Z</time></trkpt><trkpt lat="43.6787878" lon="6.7588428"><ele>397.0</ele><time>2026-04-12T07:36:39.86Z</time></trkpt><trkpt lat="43.6788651" lon="6.7587965"><ele>394.49999999999994</ele><time>2026-04-12T07:36:42.828Z</time></trkpt><trkpt lat="43.6789236" lon="6.758753"><ele>392.0</ele><time>2026-04-12T07:36:44.866Z</time></trkpt><trkpt lat="43.6789823" lon="6.7587078"><ele>391.99999999999994</ele><time>2026-04-12T07:36:46.857Z</time></trkpt><trkpt lat="43.6790553" lon="6.7586401"><ele>392.0</ele><time>2026-04-12T07:36:49.862Z</time></trkpt><trkpt lat="43.6791212" lon="6.7585792"><ele>392.0</ele><time>2026-04-12T07:36:52.867Z</time></trkpt><trkpt lat="43.679179" lon="6.7585092"><ele>392.0</ele><time>2026-04-12T07:36:55.863Z</time></trkpt><trkpt lat="43.6792284" lon="6.7584364"><ele>391.99999999999994</ele><time>2026-04-12T07:36:58.861Z</time></trkpt><trkpt lat="43.6792754" lon="6.7583709"><ele>392.0</ele><time>2026-04-12T07:37:01.862Z</time></trkpt><trkpt lat="43.6793273" lon="6.7583077"><ele>395.8333333333333</ele><time>2026-04-12T07:37:04.86Z</time></trkpt><trkpt lat="43.679389" lon="6.7582509"><ele>399.66666666666663</ele><time>2026-04-12T07:37:07.851Z</time></trkpt><trkpt lat="43.6794632" lon="6.7582113"><ele>403.5</ele><time>2026-04-12T07:37:10.87Z</time></trkpt><trkpt lat="43.6795445" lon="6.7581778"><ele>407.33333333333337</ele><time>2026-04-12T07:37:13.852Z</time></trkpt><trkpt lat="43.6796264" lon="6.758164"><ele>411.1666666666667</ele><time>2026-04-12T07:37:16.876Z</time></trkpt><trkpt lat="43.6797311" lon="6.7581475"><ele>415.0</ele><time>2026-04-12T07:37:20.86Z</time></trkpt><trkpt lat="43.6798052" lon="6.7581424"><ele>415.00000000000006</ele><time>2026-04-12T07:37:23.857Z</time></trkpt><trkpt lat="43.6798715" lon="6.7581259"><ele>415.0</ele><time>2026-04-12T07:37:26.839Z</time></trkpt><trkpt lat="43.6799536" lon="6.7581149"><ele>415.0</ele><time>2026-04-12T07:37:29.866Z</time></trkpt><trkpt lat="43.6800414" lon="6.7581005"><ele>415.0</ele><time>2026-04-12T07:37:32.856Z</time></trkpt><trkpt lat="43.6801167" lon="6.7580611"><ele>415.00000000000006</ele><time>2026-04-12T07:37:35.833Z</time></trkpt><trkpt lat="43.6801819" lon="6.7579595"><ele>415.0</ele><time>2026-04-12T07:37:38.825Z</time></trkpt><trkpt lat="43.680227" lon="6.7578937"><ele>415.0</ele><time>2026-04-12T07:37:40.833Z</time></trkpt><trkpt lat="43.6802447" lon="6.7577944"><ele>415.0</ele><time>2026-04-12T07:37:43.828Z</time></trkpt><trkpt lat="43.680315" lon="6.7577566"><ele>415.0</ele><time>2026-04-12T07:37:46.836Z</time></trkpt><trkpt lat="43.6803422" lon="6.7576721"><ele>415.0</ele><time>2026-04-12T07:37:50.856Z</time></trkpt><trkpt lat="43.6803724" lon="6.7575664"><ele>415.0</ele><time>2026-04-12T07:37:53.835Z</time></trkpt><trkpt lat="43.6803924" lon="6.7574825"><ele>415.0</ele><time>2026-04-12T07:37:55.858Z</time></trkpt><trkpt lat="43.6803998" lon="6.7573927"><ele>415.0</ele><time>2026-04-12T07:37:58.864Z</time></trkpt><trkpt lat="43.6804052" lon="6.7573035"><ele>414.83333333333337</ele><time>2026-04-12T07:38:01.825Z</time></trkpt><trkpt lat="43.6804235" lon="6.7571696"><ele>414.6666666666667</ele><time>2026-04-12T07:38:04.857Z</time></trkpt><trkpt lat="43.6804386" lon="6.7570506"><ele>414.5</ele><time>2026-04-12T07:38:07.878Z</time></trkpt><trkpt lat="43.6804408" lon="6.756944"><ele>414.33333333333337</ele><time>2026-04-12T07:38:09.873Z</time></trkpt><trkpt lat="43.6804486" lon="6.7568556"><ele>414.1666666666667</ele><time>2026-04-12T07:38:11.871Z</time></trkpt><trkpt lat="43.6804577" lon="6.7567407"><ele>414.0</ele><time>2026-04-12T07:38:14.845Z</time></trkpt><trkpt lat="43.6804669" lon="6.7566239"><ele>414.5</ele><time>2026-04-12T07:38:17.864Z</time></trkpt><trkpt lat="43.6804663" lon="6.7565067"><ele>415.0</ele><time>2026-04-12T07:38:20.862Z</time></trkpt><trkpt lat="43.6804641" lon="6.7563805"><ele>415.5</ele><time>2026-04-12T07:38:23.866Z</time></trkpt><trkpt lat="43.6804799" lon="6.7562482"><ele>416.0</ele><time>2026-04-12T07:38:26.884Z</time></trkpt><trkpt lat="43.6804881" lon="6.7561227"><ele>416.5</ele><time>2026-04-12T07:38:29.843Z</time></trkpt><trkpt lat="43.680503" lon="6.7560178"><ele>417.0</ele><time>2026-04-12T07:38:32.87Z</time></trkpt><trkpt lat="43.6804987" lon="6.7559026"><ele>418.0</ele><time>2026-04-12T07:38:35.853Z</time></trkpt><trkpt lat="43.6804996" lon="6.75579"><ele>419.0</ele><time>2026-04-12T07:38:38.869Z</time></trkpt><trkpt lat="43.6805086" lon="6.7556941"><ele>420.0</ele><time>2026-04-12T07:38:41.871Z</time></trkpt><trkpt lat="43.6805155" lon="6.7555928"><ele>421.0</ele><time>2026-04-12T07:38:44.867Z</time></trkpt><trkpt lat="43.6805033" lon="6.7554729"><ele>422.0</ele><time>2026-04-12T07:38:47.876Z</time></trkpt><trkpt lat="43.6805048" lon="6.7553552"><ele>423.0</ele><time>2026-04-12T07:38:50.864Z</time></trkpt><trkpt lat="43.6804875" lon="6.7552705"><ele>423.0</ele><time>2026-04-12T07:38:52.852Z</time></trkpt><trkpt lat="43.6804569" lon="6.7551944"><ele>423.0</ele><time>2026-04-12T07:38:54.877Z</time></trkpt><trkpt lat="43.6804105" lon="6.7550896"><ele>423.0</ele><time>2026-04-12T07:38:57.856Z</time></trkpt><trkpt lat="43.680367" lon="6.7549999"><ele>423.0</ele><time>2026-04-12T07:39:00.863Z</time></trkpt><trkpt lat="43.6803176" lon="6.7549153"><ele>423.0</ele><time>2026-04-12T07:39:03.863Z</time></trkpt><trkpt lat="43.6802696" lon="6.7548287"><ele>423.0</ele><time>2026-04-12T07:39:06.863Z</time></trkpt><trkpt lat="43.6802208" lon="6.7547383"><ele>428.6666666666667</ele><time>2026-04-12T07:39:09.873Z</time></trkpt><trkpt lat="43.6801906" lon="6.7546433"><ele>434.33333333333337</ele><time>2026-04-12T07:39:12.847Z</time></trkpt><trkpt lat="43.6801614" lon="6.754535"><ele>440.0</ele><time>2026-04-12T07:39:15.856Z</time></trkpt><trkpt lat="43.6801375" lon="6.754427"><ele>445.6666666666667</ele><time>2026-04-12T07:39:18.869Z</time></trkpt><trkpt lat="43.6801079" lon="6.7543079"><ele>451.33333333333337</ele><time>2026-04-12T07:39:21.871Z</time></trkpt><trkpt lat="43.6800992" lon="6.7541864"><ele>457.0</ele><time>2026-04-12T07:39:24.857Z</time></trkpt><trkpt lat="43.6801021" lon="6.7540696"><ele>457.00000000000006</ele><time>2026-04-12T07:39:27.838Z</time></trkpt><trkpt lat="43.6801099" lon="6.7539583"><ele>457.0</ele><time>2026-04-12T07:39:30.852Z</time></trkpt><trkpt lat="43.6801281" lon="6.7538507"><ele>457.0</ele><time>2026-04-12T07:39:33.847Z</time></trkpt><trkpt lat="43.680159" lon="6.7537344"><ele>457.0</ele><time>2026-04-12T07:39:36.845Z</time></trkpt><trkpt lat="43.6801822" lon="6.7536176"><ele>457.00000000000006</ele><time>2026-04-12T07:39:39.871Z</time></trkpt><trkpt lat="43.6802138" lon="6.7535179"><ele>457.0</ele><time>2026-04-12T07:39:42.875Z</time></trkpt><trkpt lat="43.6802451" lon="6.7534372"><ele>457.4285714285715</ele><time>2026-04-12T07:39:45.857Z</time></trkpt><trkpt lat="43.6802877" lon="6.7533579"><ele>457.8571428571429</ele><time>2026-04-12T07:39:48.87Z</time></trkpt><trkpt lat="43.6803159" lon="6.7532783"><ele>458.2857142857143</ele><time>2026-04-12T07:39:51.885Z</time></trkpt><trkpt lat="43.6803481" lon="6.7531988"><ele>458.7142857142857</ele><time>2026-04-12T07:39:54.862Z</time></trkpt><trkpt lat="43.6803736" lon="6.7531168"><ele>459.1428571428571</ele><time>2026-04-12T07:39:57.872Z</time></trkpt><trkpt lat="43.6803872" lon="6.7530012"><ele>459.5714285714285</ele><time>2026-04-12T07:40:01.871Z</time></trkpt><trkpt lat="43.6803906" lon="6.7528961"><ele>459.99999999999994</ele><time>2026-04-12T07:40:04.886Z</time></trkpt><trkpt lat="43.6803893" lon="6.7527921"><ele>462.42857142857133</ele><time>2026-04-12T07:40:07.863Z</time></trkpt><trkpt lat="43.6803859" lon="6.7526978"><ele>464.85714285714283</ele><time>2026-04-12T07:40:10.851Z</time></trkpt><trkpt lat="43.6803696" lon="6.7526087"><ele>467.2857142857142</ele><time>2026-04-12T07:40:13.842Z</time></trkpt><trkpt lat="43.6803476" lon="6.7525101"><ele>469.71428571428567</ele><time>2026-04-12T07:40:16.847Z</time></trkpt><trkpt lat="43.6803265" lon="6.7524076"><ele>472.1428571428571</ele><time>2026-04-12T07:40:19.864Z</time></trkpt><trkpt lat="43.6803226" lon="6.752315"><ele>474.57142857142856</ele><time>2026-04-12T07:40:22.855Z</time></trkpt><trkpt lat="43.680304" lon="6.7522186"><ele>477.0</ele><time>2026-04-12T07:40:25.846Z</time></trkpt><trkpt lat="43.6802917" lon="6.7521256"><ele>477.0</ele><time>2026-04-12T07:40:28.864Z</time></trkpt><trkpt lat="43.6802766" lon="6.7520321"><ele>476.99999999999994</ele><time>2026-04-12T07:40:31.844Z</time></trkpt><trkpt lat="43.6802629" lon="6.7519312"><ele>477.0</ele><time>2026-04-12T07:40:34.866Z</time></trkpt><trkpt lat="43.6802384" lon="6.7518387"><ele>477.0</ele><time>2026-04-12T07:40:37.841Z</time></trkpt><trkpt lat="43.6802071" lon="6.7517466"><ele>476.99999999999994</ele><time>2026-04-12T07:40:40.868Z</time></trkpt><trkpt lat="43.6801644" lon="6.7516644"><ele>477.0</ele><time>2026-04-12T07:40:43.845Z</time></trkpt><trkpt lat="43.6801075" lon="6.7515964"><ele>477.0</ele><time>2026-04-12T07:40:46.855Z</time></trkpt><trkpt lat="43.6800612" lon="6.751527"><ele>477.1428571428571</ele><time>2026-04-12T07:40:50.882Z</time></trkpt><trkpt lat="43.6799968" lon="6.7514601"><ele>477.2857142857142</ele><time>2026-04-12T07:40:54.847Z</time></trkpt><trkpt lat="43.6799403" lon="6.7513965"><ele>477.42857142857144</ele><time>2026-04-12T07:40:58.867Z</time></trkpt><trkpt lat="43.6798909" lon="6.751314"><ele>477.57142857142856</ele><time>2026-04-12T07:41:02.871Z</time></trkpt><trkpt lat="43.6798355" lon="6.7512428"><ele>477.7142857142857</ele><time>2026-04-12T07:41:05.859Z</time></trkpt><trkpt lat="43.6797919" lon="6.7511709"><ele>477.8571428571429</ele><time>2026-04-12T07:41:08.879Z</time></trkpt><trkpt lat="43.6797467" lon="6.7510887"><ele>478.00000000000006</ele><time>2026-04-12T07:41:11.87Z</time></trkpt><trkpt lat="43.6797044" lon="6.7509932"><ele>478.00000000000006</ele><time>2026-04-12T07:41:14.861Z</time></trkpt><trkpt lat="43.6796827" lon="6.7508927"><ele>478.0</ele><time>2026-04-12T07:41:17.853Z</time></trkpt><trkpt lat="43.6796632" lon="6.7507895"><ele>478.0</ele><time>2026-04-12T07:41:20.859Z</time></trkpt><trkpt lat="43.6796463" lon="6.7506764"><ele>478.0</ele><time>2026-04-12T07:41:23.845Z</time></trkpt><trkpt lat="43.6796284" lon="6.7505733"><ele>478.00000000000006</ele><time>2026-04-12T07:41:26.865Z</time></trkpt><trkpt lat="43.679604" lon="6.7504656"><ele>478.0</ele><time>2026-04-12T07:41:29.844Z</time></trkpt><trkpt lat="43.679588" lon="6.7503449"><ele>478.00000000000006</ele><time>2026-04-12T07:41:32.882Z</time></trkpt><trkpt lat="43.6795813" lon="6.7502262"><ele>478.0</ele><time>2026-04-12T07:41:35.904Z</time></trkpt><trkpt lat="43.6795851" lon="6.7501143"><ele>478.0</ele><time>2026-04-12T07:41:38.858Z</time></trkpt><trkpt lat="43.679601" lon="6.750003"><ele>478.0</ele><time>2026-04-12T07:41:41.851Z</time></trkpt><trkpt lat="43.6796374" lon="6.749909"><ele>478.00000000000006</ele><time>2026-04-12T07:41:44.862Z</time></trkpt><trkpt lat="43.6796671" lon="6.7498163"><ele>478.0</ele><time>2026-04-12T07:41:47.862Z</time></trkpt><trkpt lat="43.6797" lon="6.7497287"><ele>478.7142857142858</ele><time>2026-04-12T07:41:50.861Z</time></trkpt><trkpt lat="43.6797399" lon="6.7496488"><ele>479.42857142857144</ele><time>2026-04-12T07:41:53.852Z</time></trkpt><trkpt lat="43.6797752" lon="6.7495708"><ele>480.14285714285717</ele><time>2026-04-12T07:41:56.862Z</time></trkpt><trkpt lat="43.679813" lon="6.7494928"><ele>480.8571428571429</ele><time>2026-04-12T07:41:59.842Z</time></trkpt><trkpt lat="43.6798418" lon="6.7494007"><ele>481.57142857142856</ele><time>2026-04-12T07:42:02.889Z</time></trkpt><trkpt lat="43.6798548" lon="6.7492967"><ele>482.2857142857143</ele><time>2026-04-12T07:42:05.863Z</time></trkpt><trkpt lat="43.6798371" lon="6.7492006"><ele>483.0</ele><time>2026-04-12T07:42:08.867Z</time></trkpt><trkpt lat="43.679806" lon="6.7491171"><ele>483.42857142857144</ele><time>2026-04-12T07:42:11.846Z</time></trkpt><trkpt lat="43.6797675" lon="6.7490256"><ele>483.8571428571429</ele><time>2026-04-12T07:42:15.877Z</time></trkpt><trkpt lat="43.679727" lon="6.748953"><ele>484.2857142857143</ele><time>2026-04-12T07:42:18.851Z</time></trkpt><trkpt lat="43.6796771" lon="6.7488695"><ele>484.7142857142857</ele><time>2026-04-12T07:42:22.863Z</time></trkpt><trkpt lat="43.6796312" lon="6.748775"><ele>485.14285714285717</ele><time>2026-04-12T07:42:26.867Z</time></trkpt><trkpt lat="43.6795926" lon="6.7486959"><ele>485.57142857142856</ele><time>2026-04-12T07:42:29.853Z</time></trkpt><trkpt lat="43.6795596" lon="6.7486158"><ele>486.0</ele><time>2026-04-12T07:42:32.882Z</time></trkpt><trkpt lat="43.679527" lon="6.7485355"><ele>486.5</ele><time>2026-04-12T07:42:35.859Z</time></trkpt><trkpt lat="43.6794887" lon="6.7484524"><ele>487.0</ele><time>2026-04-12T07:42:38.872Z</time></trkpt><trkpt lat="43.6794622" lon="6.7483491"><ele>487.5</ele><time>2026-04-12T07:42:42.871Z</time></trkpt><trkpt lat="43.6794401" lon="6.7482381"><ele>488.0</ele><time>2026-04-12T07:42:46.897Z</time></trkpt><trkpt lat="43.6794234" lon="6.7481289"><ele>488.5</ele><time>2026-04-12T07:42:49.887Z</time></trkpt><trkpt lat="43.6794257" lon="6.7480291"><ele>489.0</ele><time>2026-04-12T07:42:52.872Z</time></trkpt><trkpt lat="43.6794194" lon="6.7479208"><ele>489.0</ele><time>2026-04-12T07:42:55.857Z</time></trkpt><trkpt lat="43.6794255" lon="6.7478199"><ele>489.00000000000006</ele><time>2026-04-12T07:42:58.886Z</time></trkpt><trkpt lat="43.6794385" lon="6.747717"><ele>489.0</ele><time>2026-04-12T07:43:01.868Z</time></trkpt><trkpt lat="43.6794388" lon="6.747618"><ele>489.0</ele><time>2026-04-12T07:43:04.875Z</time></trkpt><trkpt lat="43.6794306" lon="6.7475269"><ele>489.00000000000006</ele><time>2026-04-12T07:43:07.877Z</time></trkpt><trkpt lat="43.6794006" lon="6.7474279"><ele>489.0</ele><time>2026-04-12T07:43:12.859Z</time></trkpt><trkpt lat="43.6793515" lon="6.7473672"><ele>489.0</ele><time>2026-04-12T07:43:15.832Z</time></trkpt><trkpt lat="43.6792875" lon="6.747309"><ele>490.0</ele><time>2026-04-12T07:43:18.875Z</time></trkpt><trkpt lat="43.6792153" lon="6.7472709"><ele>491.00000000000006</ele><time>2026-04-12T07:43:21.875Z</time></trkpt><trkpt lat="43.679153" lon="6.7472263"><ele>492.0</ele><time>2026-04-12T07:43:24.865Z</time></trkpt><trkpt lat="43.679095" lon="6.7471814"><ele>493.0</ele><time>2026-04-12T07:43:27.854Z</time></trkpt><trkpt lat="43.6790344" lon="6.7471347"><ele>494.00000000000006</ele><time>2026-04-12T07:43:30.861Z</time></trkpt><trkpt lat="43.6789732" lon="6.747097"><ele>495.0</ele><time>2026-04-12T07:43:33.851Z</time></trkpt><trkpt lat="43.6789081" lon="6.7470567"><ele>496.0</ele><time>2026-04-12T07:43:36.863Z</time></trkpt><trkpt lat="43.6788443" lon="6.7470096"><ele>496.0</ele><time>2026-04-12T07:43:39.875Z</time></trkpt><trkpt lat="43.6787847" lon="6.7469767"><ele>496.00000000000006</ele><time>2026-04-12T07:43:42.877Z</time></trkpt><trkpt lat="43.6787229" lon="6.7469336"><ele>496.0</ele><time>2026-04-12T07:43:45.832Z</time></trkpt><trkpt lat="43.6786578" lon="6.7468932"><ele>496.0</ele><time>2026-04-12T07:43:48.857Z</time></trkpt><trkpt lat="43.6785928" lon="6.7468494"><ele>496.00000000000006</ele><time>2026-04-12T07:43:51.855Z</time></trkpt><trkpt lat="43.6785226" lon="6.7468082"><ele>496.0</ele><time>2026-04-12T07:43:54.868Z</time></trkpt><trkpt lat="43.6784448" lon="6.746781"><ele>496.0</ele><time>2026-04-12T07:43:57.851Z</time></trkpt><trkpt lat="43.6783669" lon="6.7467735"><ele>497.83333333333337</ele><time>2026-04-12T07:44:00.854Z</time></trkpt><trkpt lat="43.6782944" lon="6.7467578"><ele>499.6666666666667</ele><time>2026-04-12T07:44:03.85Z</time></trkpt><trkpt lat="43.6782202" lon="6.7467544"><ele>501.5</ele><time>2026-04-12T07:44:06.854Z</time></trkpt><trkpt lat="43.6781455" lon="6.7467556"><ele>503.33333333333337</ele><time>2026-04-12T07:44:09.854Z</time></trkpt><trkpt lat="43.6780733" lon="6.7467504"><ele>505.1666666666667</ele><time>2026-04-12T07:44:12.873Z</time></trkpt><trkpt lat="43.677988" lon="6.7467444"><ele>507.0</ele><time>2026-04-12T07:44:15.877Z</time></trkpt><trkpt lat="43.6779092" lon="6.7467343"><ele>507.0</ele><time>2026-04-12T07:44:18.859Z</time></trkpt><trkpt lat="43.6778321" lon="6.746719"><ele>507.0</ele><time>2026-04-12T07:44:21.861Z</time></trkpt><trkpt lat="43.6777565" lon="6.7467076"><ele>507.0</ele><time>2026-04-12T07:44:24.866Z</time></trkpt><trkpt lat="43.6776787" lon="6.7466934"><ele>507.0</ele><time>2026-04-12T07:44:28.864Z</time></trkpt><trkpt lat="43.6776085" lon="6.7466573"><ele>507.0</ele><time>2026-04-12T07:44:31.872Z</time></trkpt><trkpt lat="43.6775341" lon="6.7466098"><ele>507.0</ele><time>2026-04-12T07:44:34.877Z</time></trkpt><trkpt lat="43.6774585" lon="6.7465688"><ele>507.8333333333333</ele><time>2026-04-12T07:44:37.875Z</time></trkpt><trkpt lat="43.6773894" lon="6.7465162"><ele>508.66666666666663</ele><time>2026-04-12T07:44:40.879Z</time></trkpt><trkpt lat="43.6773255" lon="6.7464663"><ele>509.5</ele><time>2026-04-12T07:44:43.852Z</time></trkpt><trkpt lat="43.677248" lon="6.7464199"><ele>510.3333333333333</ele><time>2026-04-12T07:44:46.862Z</time></trkpt><trkpt lat="43.6771672" lon="6.7463757"><ele>511.16666666666663</ele><time>2026-04-12T07:44:49.888Z</time></trkpt><trkpt lat="43.6770917" lon="6.7463256"><ele>512.0</ele><time>2026-04-12T07:44:52.866Z</time></trkpt><trkpt lat="43.6770231" lon="6.7462595"><ele>512.0</ele><time>2026-04-12T07:44:55.859Z</time></trkpt><trkpt lat="43.6769605" lon="6.7461935"><ele>511.99999999999994</ele><time>2026-04-12T07:44:58.857Z</time></trkpt><trkpt lat="43.6769193" lon="6.7461122"><ele>512.0</ele><time>2026-04-12T07:45:01.868Z</time></trkpt><trkpt lat="43.6768754" lon="6.7460312"><ele>512.0</ele><time>2026-04-12T07:45:04.872Z</time></trkpt><trkpt lat="43.6768343" lon="6.7459454"><ele>511.99999999999994</ele><time>2026-04-12T07:45:07.846Z</time></trkpt><trkpt lat="43.6768032" lon="6.745863"><ele>512.0</ele><time>2026-04-12T07:45:10.849Z</time></trkpt><trkpt lat="43.6767622" lon="6.7457717"><ele>512.0</ele><time>2026-04-12T07:45:13.86Z</time></trkpt><trkpt lat="43.6767275" lon="6.7456761"><ele>512.8333333333333</ele><time>2026-04-12T07:45:16.871Z</time></trkpt><trkpt lat="43.6766819" lon="6.7455839"><ele>513.6666666666666</ele><time>2026-04-12T07:45:19.877Z</time></trkpt><trkpt lat="43.6766549" lon="6.7454943"><ele>514.5</ele><time>2026-04-12T07:45:22.854Z</time></trkpt><trkpt lat="43.6766147" lon="6.7454005"><ele>515.3333333333334</ele><time>2026-04-12T07:45:25.845Z</time></trkpt><trkpt lat="43.6765841" lon="6.7453084"><ele>516.1666666666667</ele><time>2026-04-12T07:45:28.857Z</time></trkpt><trkpt lat="43.6765453" lon="6.7452165"><ele>517.0</ele><time>2026-04-12T07:45:31.869Z</time></trkpt><trkpt lat="43.6765131" lon="6.7451175"><ele>517.8333333333334</ele><time>2026-04-12T07:45:34.869Z</time></trkpt><trkpt lat="43.676477" lon="6.7450096"><ele>518.6666666666667</ele><time>2026-04-12T07:45:37.87Z</time></trkpt><trkpt lat="43.6764469" lon="6.744895"><ele>519.5</ele><time>2026-04-12T07:45:40.884Z</time></trkpt><trkpt lat="43.6764234" lon="6.7447827"><ele>520.3333333333334</ele><time>2026-04-12T07:45:43.856Z</time></trkpt><trkpt lat="43.6764199" lon="6.744655"><ele>521.1666666666666</ele><time>2026-04-12T07:45:46.852Z</time></trkpt><trkpt lat="43.6764332" lon="6.7445315"><ele>522.0</ele><time>2026-04-12T07:45:49.893Z</time></trkpt><trkpt lat="43.6764429" lon="6.7444059"><ele>522.8000000000001</ele><time>2026-04-12T07:45:52.888Z</time></trkpt><trkpt lat="43.6764521" lon="6.7442919"><ele>523.6</ele><time>2026-04-12T07:45:55.853Z</time></trkpt><trkpt lat="43.6764614" lon="6.7441727"><ele>524.4000000000001</ele><time>2026-04-12T07:45:58.849Z</time></trkpt><trkpt lat="43.6764798" lon="6.7440473"><ele>525.2</ele><time>2026-04-12T07:46:01.889Z</time></trkpt><trkpt lat="43.6765024" lon="6.7439206"><ele>526.0</ele><time>2026-04-12T07:46:04.896Z</time></trkpt><trkpt lat="43.6765185" lon="6.7437915"><ele>526.0</ele><time>2026-04-12T07:46:07.872Z</time></trkpt><trkpt lat="43.6765352" lon="6.7436646"><ele>526.0</ele><time>2026-04-12T07:46:10.839Z</time></trkpt><trkpt lat="43.6765534" lon="6.7435375"><ele>526.0</ele><time>2026-04-12T07:46:13.862Z</time></trkpt><trkpt lat="43.6765636" lon="6.7434474"><ele>526.0</ele><time>2026-04-12T07:46:15.865Z</time></trkpt><trkpt lat="43.6765728" lon="6.7433554"><ele>526.0</ele><time>2026-04-12T07:46:17.857Z</time></trkpt><trkpt lat="43.6765776" lon="6.7432673"><ele>526.0</ele><time>2026-04-12T07:46:19.848Z</time></trkpt><trkpt lat="43.6765786" lon="6.7431764"><ele>526.0</ele><time>2026-04-12T07:46:23.853Z</time></trkpt><trkpt lat="43.6765493" lon="6.7430594"><ele>526.0</ele><time>2026-04-12T07:46:26.836Z</time></trkpt><trkpt lat="43.6765208" lon="6.7429641"><ele>526.0</ele><time>2026-04-12T07:46:28.867Z</time></trkpt><trkpt lat="43.6764666" lon="6.7428451"><ele>526.0</ele><time>2026-04-12T07:46:30.876Z</time></trkpt><trkpt lat="43.6764401" lon="6.742762"><ele>526.0</ele><time>2026-04-12T07:46:32.883Z</time></trkpt><trkpt lat="43.6764073" lon="6.742685"><ele>526.0</ele><time>2026-04-12T07:46:34.86Z</time></trkpt><trkpt lat="43.6763783" lon="6.7426067"><ele>526.2857142857142</ele><time>2026-04-12T07:46:36.881Z</time></trkpt><trkpt lat="43.6763425" lon="6.7425297"><ele>526.5714285714286</ele><time>2026-04-12T07:46:38.863Z</time></trkpt><trkpt lat="43.6763049" lon="6.7424245"><ele>526.8571428571429</ele><time>2026-04-12T07:46:41.875Z</time></trkpt><trkpt lat="43.6762706" lon="6.7423483"><ele>527.1428571428571</ele><time>2026-04-12T07:46:43.836Z</time></trkpt><trkpt lat="43.6762419" lon="6.742269"><ele>527.4285714285714</ele><time>2026-04-12T07:46:45.838Z</time></trkpt><trkpt lat="43.6762128" lon="6.7421893"><ele>527.7142857142857</ele><time>2026-04-12T07:46:47.863Z</time></trkpt><trkpt lat="43.6761659" lon="6.7420694"><ele>528.0</ele><time>2026-04-12T07:46:50.86Z</time></trkpt><trkpt lat="43.6761246" lon="6.741983"><ele>528.4285714285714</ele><time>2026-04-12T07:46:52.861Z</time></trkpt><trkpt lat="43.6760852" lon="6.7419029"><ele>528.8571428571429</ele><time>2026-04-12T07:46:54.868Z</time></trkpt><trkpt lat="43.676049" lon="6.7418108"><ele>529.2857142857143</ele><time>2026-04-12T07:46:56.858Z</time></trkpt><trkpt lat="43.6760181" lon="6.7417291"><ele>529.7142857142858</ele><time>2026-04-12T07:46:58.874Z</time></trkpt><trkpt lat="43.6759834" lon="6.7416486"><ele>530.1428571428572</ele><time>2026-04-12T07:47:00.871Z</time></trkpt><trkpt lat="43.6759425" lon="6.7415613"><ele>530.5714285714286</ele><time>2026-04-12T07:47:02.854Z</time></trkpt><trkpt lat="43.6759045" lon="6.7414842"><ele>531.0</ele><time>2026-04-12T07:47:04.886Z</time></trkpt><trkpt lat="43.6758621" lon="6.7414097"><ele>531.0</ele><time>2026-04-12T07:47:06.868Z</time></trkpt><trkpt lat="43.6758094" lon="6.7413242"><ele>531.0</ele><time>2026-04-12T07:47:08.87Z</time></trkpt><trkpt lat="43.6757665" lon="6.7412357"><ele>531.0</ele><time>2026-04-12T07:47:10.884Z</time></trkpt><trkpt lat="43.6757323" lon="6.7411568"><ele>531.0</ele><time>2026-04-12T07:47:12.862Z</time></trkpt><trkpt lat="43.6756969" lon="6.7410814"><ele>531.0</ele><time>2026-04-12T07:47:14.866Z</time></trkpt><trkpt lat="43.6756616" lon="6.7410058"><ele>531.0</ele><time>2026-04-12T07:47:16.85Z</time></trkpt><trkpt lat="43.675622" lon="6.7409294"><ele>531.0</ele><time>2026-04-12T07:47:18.848Z</time></trkpt><trkpt lat="43.6755833" lon="6.7408495"><ele>531.2857142857143</ele><time>2026-04-12T07:47:20.88Z</time></trkpt><trkpt lat="43.6755503" lon="6.7407746"><ele>531.5714285714287</ele><time>2026-04-12T07:47:22.867Z</time></trkpt><trkpt lat="43.6755145" lon="6.7407"><ele>531.8571428571429</ele><time>2026-04-12T07:47:24.855Z</time></trkpt><trkpt lat="43.6754852" lon="6.7406198"><ele>532.1428571428571</ele><time>2026-04-12T07:47:26.879Z</time></trkpt><trkpt lat="43.6754451" lon="6.7405441"><ele>532.4285714285713</ele><time>2026-04-12T07:47:28.888Z</time></trkpt><trkpt lat="43.6754046" lon="6.7404662"><ele>532.7142857142857</ele><time>2026-04-12T07:47:30.849Z</time></trkpt><trkpt lat="43.6753592" lon="6.7403811"><ele>533.0</ele><time>2026-04-12T07:47:32.889Z</time></trkpt><trkpt lat="43.6753158" lon="6.7403087"><ele>533.0</ele><time>2026-04-12T07:47:34.89Z</time></trkpt><trkpt lat="43.6752799" lon="6.7402364"><ele>533.0</ele><time>2026-04-12T07:47:36.847Z</time></trkpt><trkpt lat="43.675247" lon="6.740154"><ele>533.0</ele><time>2026-04-12T07:47:38.853Z</time></trkpt><trkpt lat="43.6752108" lon="6.7400708"><ele>533.0</ele><time>2026-04-12T07:47:40.873Z</time></trkpt><trkpt lat="43.6751696" lon="6.7399914"><ele>533.0</ele><time>2026-04-12T07:47:42.863Z</time></trkpt><trkpt lat="43.6751305" lon="6.7399147"><ele>533.0</ele><time>2026-04-12T07:47:44.862Z</time></trkpt><trkpt lat="43.6750992" lon="6.7398331"><ele>533.0</ele><time>2026-04-12T07:47:46.855Z</time></trkpt><trkpt lat="43.6750628" lon="6.7397568"><ele>533.7142857142857</ele><time>2026-04-12T07:47:48.857Z</time></trkpt><trkpt lat="43.6750246" lon="6.7396749"><ele>534.4285714285713</ele><time>2026-04-12T07:47:50.86Z</time></trkpt><trkpt lat="43.6749833" lon="6.7396049"><ele>535.1428571428571</ele><time>2026-04-12T07:47:52.85Z</time></trkpt><trkpt lat="43.6749479" lon="6.7395262"><ele>535.8571428571429</ele><time>2026-04-12T07:47:54.853Z</time></trkpt><trkpt lat="43.6749036" lon="6.7394092"><ele>536.5714285714287</ele><time>2026-04-12T07:47:57.856Z</time></trkpt><trkpt lat="43.6748648" lon="6.7393262"><ele>537.2857142857143</ele><time>2026-04-12T07:47:59.866Z</time></trkpt><trkpt lat="43.6748256" lon="6.7392387"><ele>538.0</ele><time>2026-04-12T07:48:01.874Z</time></trkpt><trkpt lat="43.6747901" lon="6.7391605"><ele>538.2857142857143</ele><time>2026-04-12T07:48:03.848Z</time></trkpt><trkpt lat="43.6747569" lon="6.7390862"><ele>538.5714285714287</ele><time>2026-04-12T07:48:05.879Z</time></trkpt><trkpt lat="43.6747155" lon="6.7390108"><ele>538.8571428571429</ele><time>2026-04-12T07:48:07.857Z</time></trkpt><trkpt lat="43.6746681" lon="6.738901"><ele>539.1428571428571</ele><time>2026-04-12T07:48:10.854Z</time></trkpt><trkpt lat="43.6746354" lon="6.7388237"><ele>539.4285714285713</ele><time>2026-04-12T07:48:12.883Z</time></trkpt><trkpt lat="43.6745969" lon="6.7387419"><ele>539.7142857142857</ele><time>2026-04-12T07:48:14.868Z</time></trkpt><trkpt lat="43.6745577" lon="6.738662"><ele>540.0</ele><time>2026-04-12T07:48:16.853Z</time></trkpt><trkpt lat="43.674521" lon="6.7385837"><ele>540.3333333333334</ele><time>2026-04-12T07:48:18.877Z</time></trkpt><trkpt lat="43.6744833" lon="6.7385054"><ele>540.6666666666666</ele><time>2026-04-12T07:48:20.862Z</time></trkpt><trkpt lat="43.6744282" lon="6.7383956"><ele>541.0</ele><time>2026-04-12T07:48:23.858Z</time></trkpt><trkpt lat="43.6743925" lon="6.7383136"><ele>541.3333333333333</ele><time>2026-04-12T07:48:25.843Z</time></trkpt><trkpt lat="43.6743346" lon="6.7382098"><ele>541.6666666666666</ele><time>2026-04-12T07:48:28.879Z</time></trkpt><trkpt lat="43.6742822" lon="6.7381006"><ele>542.0</ele><time>2026-04-12T07:48:31.856Z</time></trkpt><trkpt lat="43.6742311" lon="6.7379916"><ele>542.0</ele><time>2026-04-12T07:48:34.863Z</time></trkpt><trkpt lat="43.6741894" lon="6.7378877"><ele>542.0</ele><time>2026-04-12T07:48:37.872Z</time></trkpt><trkpt lat="43.6741353" lon="6.7377798"><ele>542.0</ele><time>2026-04-12T07:48:40.849Z</time></trkpt><trkpt lat="43.6741047" lon="6.7376999"><ele>542.0</ele><time>2026-04-12T07:48:42.863Z</time></trkpt><trkpt lat="43.6740649" lon="6.7376148"><ele>542.0</ele><time>2026-04-12T07:48:44.889Z</time></trkpt><trkpt lat="43.674012" lon="6.7375042"><ele>542.0</ele><time>2026-04-12T07:48:47.853Z</time></trkpt><trkpt lat="43.6739688" lon="6.7374004"><ele>542.7142857142857</ele><time>2026-04-12T07:48:50.862Z</time></trkpt><trkpt lat="43.6739355" lon="6.7373234"><ele>543.4285714285714</ele><time>2026-04-12T07:48:52.858Z</time></trkpt><trkpt lat="43.6738969" lon="6.7372427"><ele>544.1428571428571</ele><time>2026-04-12T07:48:55.848Z</time></trkpt><trkpt lat="43.6738622" lon="6.7371449"><ele>544.8571428571429</ele><time>2026-04-12T07:48:59.855Z</time></trkpt><trkpt lat="43.6738418" lon="6.737029"><ele>545.5714285714286</ele><time>2026-04-12T07:49:02.886Z</time></trkpt><trkpt lat="43.6738157" lon="6.7369359"><ele>546.2857142857142</ele><time>2026-04-12T07:49:05.856Z</time></trkpt><trkpt lat="43.6737826" lon="6.7368446"><ele>547.0</ele><time>2026-04-12T07:49:08.858Z</time></trkpt><trkpt lat="43.673756" lon="6.7367459"><ele>547.3333333333334</ele><time>2026-04-12T07:49:11.851Z</time></trkpt><trkpt lat="43.6737245" lon="6.7366378"><ele>547.6666666666667</ele><time>2026-04-12T07:49:14.869Z</time></trkpt><trkpt lat="43.6736885" lon="6.736538"><ele>548.0</ele><time>2026-04-12T07:49:17.849Z</time></trkpt><trkpt lat="43.6736527" lon="6.7364342"><ele>548.3333333333334</ele><time>2026-04-12T07:49:20.869Z</time></trkpt><trkpt lat="43.6736291" lon="6.7363321"><ele>548.6666666666666</ele><time>2026-04-12T07:49:23.864Z</time></trkpt><trkpt lat="43.6736078" lon="6.7362267"><ele>549.0</ele><time>2026-04-12T07:49:26.835Z</time></trkpt><trkpt lat="43.6735791" lon="6.7361058"><ele>549.8333333333334</ele><time>2026-04-12T07:49:29.873Z</time></trkpt><trkpt lat="43.6735689" lon="6.7359888"><ele>550.6666666666666</ele><time>2026-04-12T07:49:32.861Z</time></trkpt><trkpt lat="43.6735756" lon="6.7358725"><ele>551.5</ele><time>2026-04-12T07:49:35.875Z</time></trkpt><trkpt lat="43.6735791" lon="6.7357617"><ele>552.3333333333333</ele><time>2026-04-12T07:49:38.884Z</time></trkpt><trkpt lat="43.6735942" lon="6.7356518"><ele>553.1666666666666</ele><time>2026-04-12T07:49:41.849Z</time></trkpt><trkpt lat="43.6736133" lon="6.7355448"><ele>554.0</ele><time>2026-04-12T07:49:44.847Z</time></trkpt><trkpt lat="43.6736393" lon="6.7354488"><ele>555.1666666666666</ele><time>2026-04-12T07:49:47.878Z</time></trkpt><trkpt lat="43.6736574" lon="6.7353374"><ele>556.3333333333333</ele><time>2026-04-12T07:49:50.853Z</time></trkpt><trkpt lat="43.6736898" lon="6.7352407"><ele>557.5</ele><time>2026-04-12T07:49:53.861Z</time></trkpt><trkpt lat="43.673724" lon="6.7351663"><ele>558.6666666666666</ele><time>2026-04-12T07:49:55.871Z</time></trkpt><trkpt lat="43.6737575" lon="6.7350558"><ele>559.8333333333334</ele><time>2026-04-12T07:49:58.865Z</time></trkpt><trkpt lat="43.6737856" lon="6.734932"><ele>561.0</ele><time>2026-04-12T07:50:01.87Z</time></trkpt><trkpt lat="43.6737984" lon="6.7348387"><ele>561.5</ele><time>2026-04-12T07:50:03.865Z</time></trkpt><trkpt lat="43.6738007" lon="6.7347486"><ele>562.0</ele><time>2026-04-12T07:50:05.86Z</time></trkpt><trkpt lat="43.6738011" lon="6.7346515"><ele>562.5</ele><time>2026-04-12T07:50:07.886Z</time></trkpt><trkpt lat="43.6737838" lon="6.734533"><ele>563.0</ele><time>2026-04-12T07:50:10.874Z</time></trkpt><trkpt lat="43.6737687" lon="6.734414"><ele>563.5</ele><time>2026-04-12T07:50:13.865Z</time></trkpt><trkpt lat="43.6737531" lon="6.7343278"><ele>564.0</ele><time>2026-04-12T07:50:15.877Z</time></trkpt><trkpt lat="43.6737455" lon="6.7342183"><ele>564.6666666666666</ele><time>2026-04-12T07:50:18.858Z</time></trkpt><trkpt lat="43.6737238" lon="6.7340985"><ele>565.3333333333334</ele><time>2026-04-12T07:50:21.876Z</time></trkpt><trkpt lat="43.6737069" lon="6.7339915"><ele>566.0</ele><time>2026-04-12T07:50:24.874Z</time></trkpt><trkpt lat="43.6736852" lon="6.7338751"><ele>566.6666666666667</ele><time>2026-04-12T07:50:27.87Z</time></trkpt><trkpt lat="43.6736645" lon="6.733753"><ele>567.3333333333334</ele><time>2026-04-12T07:50:30.876Z</time></trkpt><trkpt lat="43.6736349" lon="6.7336276"><ele>568.0</ele><time>2026-04-12T07:50:33.859Z</time></trkpt><trkpt lat="43.6736201" lon="6.7335"><ele>568.0</ele><time>2026-04-12T07:50:36.88Z</time></trkpt><trkpt lat="43.6736337" lon="6.7333793"><ele>568.0</ele><time>2026-04-12T07:50:39.887Z</time></trkpt><trkpt lat="43.673686" lon="6.7332943"><ele>568.0</ele><time>2026-04-12T07:50:42.868Z</time></trkpt><trkpt lat="43.6737551" lon="6.7333378"><ele>568.0</ele><time>2026-04-12T07:50:45.88Z</time></trkpt><trkpt lat="43.6738072" lon="6.7334417"><ele>568.0</ele><time>2026-04-12T07:50:48.85Z</time></trkpt><trkpt lat="43.6738627" lon="6.7335437"><ele>568.0</ele><time>2026-04-12T07:50:51.874Z</time></trkpt><trkpt lat="43.6739219" lon="6.7336058"><ele>568.0</ele><time>2026-04-12T07:50:53.855Z</time></trkpt><trkpt lat="43.6739799" lon="6.7336642"><ele>568.0</ele><time>2026-04-12T07:50:55.872Z</time></trkpt><trkpt lat="43.6740676" lon="6.733707"><ele>568.0</ele><time>2026-04-12T07:50:58.851Z</time></trkpt><trkpt lat="43.6741335" lon="6.7337017"><ele>568.0</ele><time>2026-04-12T07:51:00.862Z</time></trkpt><trkpt lat="43.6742086" lon="6.7336622"><ele>568.0</ele><time>2026-04-12T07:51:03.843Z</time></trkpt><trkpt lat="43.6742797" lon="6.7336084"><ele>568.0</ele><time>2026-04-12T07:51:06.864Z</time></trkpt><trkpt lat="43.6743454" lon="6.7335512"><ele>569.0</ele><time>2026-04-12T07:51:09.878Z</time></trkpt><trkpt lat="43.6744033" lon="6.7334832"><ele>570.0</ele><time>2026-04-12T07:51:12.852Z</time></trkpt><trkpt lat="43.6744685" lon="6.733409"><ele>571.0</ele><time>2026-04-12T07:51:15.878Z</time></trkpt><trkpt lat="43.6745309" lon="6.7333541"><ele>572.0</ele><time>2026-04-12T07:51:18.865Z</time></trkpt><trkpt lat="43.6745987" lon="6.7333031"><ele>573.0</ele><time>2026-04-12T07:51:21.877Z</time></trkpt><trkpt lat="43.6746717" lon="6.733249"><ele>574.0</ele><time>2026-04-12T07:51:24.842Z</time></trkpt><trkpt lat="43.674735" lon="6.7331936"><ele>574.5714285714286</ele><time>2026-04-12T07:51:27.867Z</time></trkpt><trkpt lat="43.6747983" lon="6.7331442"><ele>575.1428571428571</ele><time>2026-04-12T07:51:30.866Z</time></trkpt><trkpt lat="43.6748649" lon="6.7330842"><ele>575.7142857142858</ele><time>2026-04-12T07:51:33.872Z</time></trkpt><trkpt lat="43.6749292" lon="6.7330329"><ele>576.2857142857142</ele><time>2026-04-12T07:51:36.839Z</time></trkpt><trkpt lat="43.6749926" lon="6.7329814"><ele>576.8571428571429</ele><time>2026-04-12T07:51:39.858Z</time></trkpt><trkpt lat="43.6750564" lon="6.732933"><ele>577.4285714285714</ele><time>2026-04-12T07:51:42.878Z</time></trkpt><trkpt lat="43.6751191" lon="6.7328781"><ele>578.0</ele><time>2026-04-12T07:51:45.878Z</time></trkpt><trkpt lat="43.6751755" lon="6.7328288"><ele>578.0</ele><time>2026-04-12T07:51:48.85Z</time></trkpt><trkpt lat="43.6752317" lon="6.7327801"><ele>578.0</ele><time>2026-04-12T07:51:51.883Z</time></trkpt><trkpt lat="43.6752912" lon="6.7327303"><ele>578.0</ele><time>2026-04-12T07:51:54.842Z</time></trkpt><trkpt lat="43.6753666" lon="6.7326533"><ele>578.0</ele><time>2026-04-12T07:51:57.834Z</time></trkpt><trkpt lat="43.6754379" lon="6.7326033"><ele>578.0</ele><time>2026-04-12T07:52:00.827Z</time></trkpt><trkpt lat="43.6754974" lon="6.7325568"><ele>578.0</ele><time>2026-04-12T07:52:03.88Z</time></trkpt><trkpt lat="43.6755529" lon="6.7325151"><ele>578.0</ele><time>2026-04-12T07:52:06.873Z</time></trkpt><trkpt lat="43.6756035" lon="6.7324606"><ele>579.5714285714286</ele><time>2026-04-12T07:52:09.863Z</time></trkpt><trkpt lat="43.6756624" lon="6.7324175"><ele>581.1428571428571</ele><time>2026-04-12T07:52:12.878Z</time></trkpt><trkpt lat="43.6757225" lon="6.7323689"><ele>582.7142857142857</ele><time>2026-04-12T07:52:15.855Z</time></trkpt><trkpt lat="43.6757795" lon="6.7323187"><ele>584.2857142857142</ele><time>2026-04-12T07:52:18.868Z</time></trkpt><trkpt lat="43.675838" lon="6.7322606"><ele>585.8571428571428</ele><time>2026-04-12T07:52:21.848Z</time></trkpt><trkpt lat="43.6758885" lon="6.732202"><ele>587.4285714285714</ele><time>2026-04-12T07:52:24.849Z</time></trkpt><trkpt lat="43.6759425" lon="6.7321169"><ele>589.0</ele><time>2026-04-12T07:52:28.882Z</time></trkpt><trkpt lat="43.6759887" lon="6.7320524"><ele>589.0</ele><time>2026-04-12T07:52:31.855Z</time></trkpt><trkpt lat="43.6760532" lon="6.7319835"><ele>589.0</ele><time>2026-04-12T07:52:35.86Z</time></trkpt><trkpt lat="43.6761073" lon="6.7319239"><ele>589.0</ele><time>2026-04-12T07:52:38.853Z</time></trkpt><trkpt lat="43.6761611" lon="6.7318609"><ele>589.0</ele><time>2026-04-12T07:52:41.875Z</time></trkpt><trkpt lat="43.6762255" lon="6.7318074"><ele>589.0</ele><time>2026-04-12T07:52:45.854Z</time></trkpt><trkpt lat="43.6762905" lon="6.7317478"><ele>589.0</ele><time>2026-04-12T07:52:49.866Z</time></trkpt><trkpt lat="43.6763625" lon="6.7317056"><ele>590.5714285714286</ele><time>2026-04-12T07:52:53.866Z</time></trkpt><trkpt lat="43.6764225" lon="6.7316428"><ele>592.1428571428571</ele><time>2026-04-12T07:52:57.86Z</time></trkpt><trkpt lat="43.6764737" lon="6.7315887"><ele>593.7142857142857</ele><time>2026-04-12T07:53:00.867Z</time></trkpt><trkpt lat="43.6765355" lon="6.7315216"><ele>595.2857142857142</ele><time>2026-04-12T07:53:04.858Z</time></trkpt><trkpt lat="43.6765984" lon="6.7314789"><ele>596.8571428571429</ele><time>2026-04-12T07:53:08.869Z</time></trkpt><trkpt lat="43.676664" lon="6.7314306"><ele>598.4285714285713</ele><time>2026-04-12T07:53:12.852Z</time></trkpt><trkpt lat="43.6767199" lon="6.7313819"><ele>600.0</ele><time>2026-04-12T07:53:16.869Z</time></trkpt><trkpt lat="43.6767905" lon="6.7313135"><ele>599.9999999999999</ele><time>2026-04-12T07:53:20.853Z</time></trkpt><trkpt lat="43.6768588" lon="6.7312688"><ele>600.0</ele><time>2026-04-12T07:53:24.865Z</time></trkpt><trkpt lat="43.6769305" lon="6.7312111"><ele>600.0</ele><time>2026-04-12T07:53:28.868Z</time></trkpt><trkpt lat="43.6769913" lon="6.731165"><ele>600.0</ele><time>2026-04-12T07:53:32.871Z</time></trkpt><trkpt lat="43.6770474" lon="6.7311222"><ele>600.0</ele><time>2026-04-12T07:53:35.875Z</time></trkpt><trkpt lat="43.6771122" lon="6.7310788"><ele>599.9999999999999</ele><time>2026-04-12T07:53:38.889Z</time></trkpt><trkpt lat="43.6771747" lon="6.7310375"><ele>600.0</ele><time>2026-04-12T07:53:41.875Z</time></trkpt><trkpt lat="43.6772345" lon="6.7309945"><ele>601.4285714285713</ele><time>2026-04-12T07:53:44.874Z</time></trkpt><trkpt lat="43.6772938" lon="6.7309503"><ele>602.8571428571429</ele><time>2026-04-12T07:53:47.857Z</time></trkpt><trkpt lat="43.677354" lon="6.7309043"><ele>604.2857142857142</ele><time>2026-04-12T07:53:50.857Z</time></trkpt><trkpt lat="43.6774361" lon="6.7308501"><ele>605.7142857142857</ele><time>2026-04-12T07:53:53.858Z</time></trkpt><trkpt lat="43.677494" lon="6.7308048"><ele>607.1428571428571</ele><time>2026-04-12T07:53:56.874Z</time></trkpt><trkpt lat="43.6775488" lon="6.7307558"><ele>608.5714285714286</ele><time>2026-04-12T07:53:59.872Z</time></trkpt><trkpt lat="43.6776112" lon="6.7307185"><ele>610.0</ele><time>2026-04-12T07:54:03.855Z</time></trkpt><trkpt lat="43.6776798" lon="6.7306704"><ele>610.0</ele><time>2026-04-12T07:54:07.845Z</time></trkpt><trkpt lat="43.6777452" lon="6.7305947"><ele>610.0</ele><time>2026-04-12T07:54:11.869Z</time></trkpt><trkpt lat="43.6778042" lon="6.7305382"><ele>610.0</ele><time>2026-04-12T07:54:14.881Z</time></trkpt><trkpt lat="43.6778767" lon="6.7304749"><ele>610.0</ele><time>2026-04-12T07:54:18.853Z</time></trkpt><trkpt lat="43.6779457" lon="6.7304257"><ele>610.0</ele><time>2026-04-12T07:54:21.892Z</time></trkpt><trkpt lat="43.6780029" lon="6.7303632"><ele>610.0</ele><time>2026-04-12T07:54:24.856Z</time></trkpt><trkpt lat="43.678057" lon="6.7303074"><ele>610.5714285714286</ele><time>2026-04-12T07:54:27.889Z</time></trkpt><trkpt lat="43.6781105" lon="6.7302485"><ele>611.1428571428571</ele><time>2026-04-12T07:54:30.853Z</time></trkpt><trkpt lat="43.6781675" lon="6.7301897"><ele>611.7142857142857</ele><time>2026-04-12T07:54:33.868Z</time></trkpt><trkpt lat="43.678225" lon="6.7301256"><ele>612.2857142857142</ele><time>2026-04-12T07:54:36.846Z</time></trkpt><trkpt lat="43.6782806" lon="6.7300708"><ele>612.8571428571429</ele><time>2026-04-12T07:54:39.864Z</time></trkpt><trkpt lat="43.6783309" lon="6.7300104"><ele>613.4285714285713</ele><time>2026-04-12T07:54:42.86Z</time></trkpt><trkpt lat="43.6783936" lon="6.7299466"><ele>614.0</ele><time>2026-04-12T07:54:46.856Z</time></trkpt><trkpt lat="43.6784507" lon="6.7298853"><ele>614.7142857142857</ele><time>2026-04-12T07:54:49.867Z</time></trkpt><trkpt lat="43.6785106" lon="6.7298201"><ele>615.4285714285714</ele><time>2026-04-12T07:54:52.857Z</time></trkpt><trkpt lat="43.6785614" lon="6.729762"><ele>616.1428571428571</ele><time>2026-04-12T07:54:55.876Z</time></trkpt><trkpt lat="43.6786179" lon="6.7296968"><ele>616.8571428571429</ele><time>2026-04-12T07:54:58.876Z</time></trkpt><trkpt lat="43.6786646" lon="6.7296208"><ele>617.5714285714286</ele><time>2026-04-12T07:55:01.872Z</time></trkpt><trkpt lat="43.6787047" lon="6.7295489"><ele>618.2857142857142</ele><time>2026-04-12T07:55:04.858Z</time></trkpt><trkpt lat="43.678743" lon="6.7294599"><ele>619.0</ele><time>2026-04-12T07:55:07.887Z</time></trkpt><trkpt lat="43.6787813" lon="6.7293722"><ele>620.7142857142857</ele><time>2026-04-12T07:55:10.871Z</time></trkpt><trkpt lat="43.6788133" lon="6.7292887"><ele>622.4285714285714</ele><time>2026-04-12T07:55:13.856Z</time></trkpt><trkpt lat="43.6788626" lon="6.7292131"><ele>624.1428571428571</ele><time>2026-04-12T07:55:16.879Z</time></trkpt><trkpt lat="43.6789119" lon="6.7291413"><ele>625.8571428571429</ele><time>2026-04-12T07:55:19.875Z</time></trkpt><trkpt lat="43.6789732" lon="6.7290673"><ele>627.5714285714286</ele><time>2026-04-12T07:55:23.864Z</time></trkpt><trkpt lat="43.6790383" lon="6.7290153"><ele>629.2857142857143</ele><time>2026-04-12T07:55:26.873Z</time></trkpt><trkpt lat="43.6790985" lon="6.7289692"><ele>631.0</ele><time>2026-04-12T07:55:29.858Z</time></trkpt><trkpt lat="43.6791701" lon="6.728922"><ele>631.0</ele><time>2026-04-12T07:55:32.87Z</time></trkpt><trkpt lat="43.6792474" lon="6.7288729"><ele>631.0</ele><time>2026-04-12T07:55:35.883Z</time></trkpt><trkpt lat="43.6793214" lon="6.7288397"><ele>631.0</ele><time>2026-04-12T07:55:38.867Z</time></trkpt><trkpt lat="43.6793883" lon="6.728809"><ele>631.0</ele><time>2026-04-12T07:55:41.858Z</time></trkpt><trkpt lat="43.6794636" lon="6.7288"><ele>631.0</ele><time>2026-04-12T07:55:45.839Z</time></trkpt><trkpt lat="43.6795336" lon="6.728773"><ele>631.0</ele><time>2026-04-12T07:55:48.88Z</time></trkpt><trkpt lat="43.6796065" lon="6.7287507"><ele>631.5</ele><time>2026-04-12T07:55:51.88Z</time></trkpt><trkpt lat="43.6796938" lon="6.728719"><ele>632.0</ele><time>2026-04-12T07:55:54.85Z</time></trkpt><trkpt lat="43.6797784" lon="6.7286749"><ele>632.5</ele><time>2026-04-12T07:55:58.872Z</time></trkpt><trkpt lat="43.6798472" lon="6.7286353"><ele>633.0</ele><time>2026-04-12T07:56:01.86Z</time></trkpt><trkpt lat="43.6799135" lon="6.7285927"><ele>633.5</ele><time>2026-04-12T07:56:04.866Z</time></trkpt><trkpt lat="43.6799995" lon="6.7285377"><ele>634.0</ele><time>2026-04-12T07:56:07.862Z</time></trkpt><trkpt lat="43.6800699" lon="6.7284994"><ele>634.1666666666667</ele><time>2026-04-12T07:56:09.862Z</time></trkpt><trkpt lat="43.6801439" lon="6.7284337"><ele>634.3333333333334</ele><time>2026-04-12T07:56:11.865Z</time></trkpt><trkpt lat="43.6802178" lon="6.7283738"><ele>634.5</ele><time>2026-04-12T07:56:13.855Z</time></trkpt><trkpt lat="43.6802807" lon="6.7283315"><ele>634.6666666666666</ele><time>2026-04-12T07:56:15.855Z</time></trkpt><trkpt lat="43.6803457" lon="6.7282843"><ele>634.8333333333333</ele><time>2026-04-12T07:56:17.869Z</time></trkpt><trkpt lat="43.6804024" lon="6.7282357"><ele>635.0</ele><time>2026-04-12T07:56:19.854Z</time></trkpt><trkpt lat="43.6804705" lon="6.72818"><ele>635.8571428571428</ele><time>2026-04-12T07:56:21.864Z</time></trkpt><trkpt lat="43.6805268" lon="6.7281363"><ele>636.7142857142857</ele><time>2026-04-12T07:56:23.882Z</time></trkpt><trkpt lat="43.6805814" lon="6.7280911"><ele>637.5714285714286</ele><time>2026-04-12T07:56:25.862Z</time></trkpt><trkpt lat="43.6806383" lon="6.7280506"><ele>638.4285714285713</ele><time>2026-04-12T07:56:27.861Z</time></trkpt><trkpt lat="43.680716" lon="6.7279934"><ele>639.2857142857142</ele><time>2026-04-12T07:56:30.88Z</time></trkpt><trkpt lat="43.6807785" lon="6.7279605"><ele>640.1428571428571</ele><time>2026-04-12T07:56:32.852Z</time></trkpt><trkpt lat="43.6808622" lon="6.7279062"><ele>641.0</ele><time>2026-04-12T07:56:35.884Z</time></trkpt><trkpt lat="43.6809209" lon="6.727872"><ele>641.0</ele><time>2026-04-12T07:56:37.864Z</time></trkpt><trkpt lat="43.6810053" lon="6.7278333"><ele>641.0</ele><time>2026-04-12T07:56:40.847Z</time></trkpt><trkpt lat="43.6810832" lon="6.7277839"><ele>641.0</ele><time>2026-04-12T07:56:43.843Z</time></trkpt><trkpt lat="43.681145" lon="6.7277324"><ele>641.0</ele><time>2026-04-12T07:56:46.885Z</time></trkpt><trkpt lat="43.6812277" lon="6.7276777"><ele>641.0</ele><time>2026-04-12T07:56:49.85Z</time></trkpt><trkpt lat="43.6812888" lon="6.7276494"><ele>641.0</ele><time>2026-04-12T07:56:51.832Z</time></trkpt><trkpt lat="43.6813615" lon="6.7275994"><ele>642.4285714285714</ele><time>2026-04-12T07:56:54.853Z</time></trkpt><trkpt lat="43.6814431" lon="6.7275559"><ele>643.8571428571429</ele><time>2026-04-12T07:56:57.87Z</time></trkpt><trkpt lat="43.6815054" lon="6.7275072"><ele>645.2857142857142</ele><time>2026-04-12T07:57:00.864Z</time></trkpt><trkpt lat="43.6815799" lon="6.7274433"><ele>646.7142857142858</ele><time>2026-04-12T07:57:03.873Z</time></trkpt><trkpt lat="43.6816351" lon="6.7273929"><ele>648.1428571428571</ele><time>2026-04-12T07:57:05.874Z</time></trkpt><trkpt lat="43.6816902" lon="6.7273435"><ele>649.5714285714286</ele><time>2026-04-12T07:57:07.863Z</time></trkpt><trkpt lat="43.6817465" lon="6.7272933"><ele>651.0</ele><time>2026-04-12T07:57:09.855Z</time></trkpt><trkpt lat="43.6818158" lon="6.7272292"><ele>651.0</ele><time>2026-04-12T07:57:12.86Z</time></trkpt><trkpt lat="43.6818711" lon="6.7271738"><ele>651.0</ele><time>2026-04-12T07:57:15.853Z</time></trkpt><trkpt lat="43.6819455" lon="6.7271582"><ele>651.0</ele><time>2026-04-12T07:57:18.83Z</time></trkpt><trkpt lat="43.6820164" lon="6.7271572"><ele>651.0</ele><time>2026-04-12T07:57:21.871Z</time></trkpt><trkpt lat="43.6820861" lon="6.72718"><ele>651.0</ele><time>2026-04-12T07:57:24.855Z</time></trkpt><trkpt lat="43.6821339" lon="6.7272631"><ele>651.0</ele><time>2026-04-12T07:57:28.862Z</time></trkpt><trkpt lat="43.6821513" lon="6.7273718"><ele>651.0</ele><time>2026-04-12T07:57:32.855Z</time></trkpt><trkpt lat="43.6821575" lon="6.7274709"><ele>652.6666666666666</ele><time>2026-04-12T07:57:35.877Z</time></trkpt><trkpt lat="43.6821597" lon="6.7275586"><ele>654.3333333333334</ele><time>2026-04-12T07:57:38.86Z</time></trkpt><trkpt lat="43.6821541" lon="6.7276606"><ele>656.0</ele><time>2026-04-12T07:57:41.877Z</time></trkpt><trkpt lat="43.6821673" lon="6.7277677"><ele>657.6666666666667</ele><time>2026-04-12T07:57:44.866Z</time></trkpt><trkpt lat="43.6821791" lon="6.7278764"><ele>659.3333333333334</ele><time>2026-04-12T07:57:47.86Z</time></trkpt><trkpt lat="43.6821981" lon="6.7279894"><ele>661.0</ele><time>2026-04-12T07:57:50.866Z</time></trkpt><trkpt lat="43.682227" lon="6.7280975"><ele>661.1666666666667</ele><time>2026-04-12T07:57:53.864Z</time></trkpt><trkpt lat="43.6822525" lon="6.7281968"><ele>661.3333333333334</ele><time>2026-04-12T07:57:56.863Z</time></trkpt><trkpt lat="43.6822761" lon="6.7283052"><ele>661.5</ele><time>2026-04-12T07:57:59.881Z</time></trkpt><trkpt lat="43.6822945" lon="6.7284045"><ele>661.6666666666666</ele><time>2026-04-12T07:58:02.876Z</time></trkpt><trkpt lat="43.6823144" lon="6.7285088"><ele>661.8333333333333</ele><time>2026-04-12T07:58:05.867Z</time></trkpt><trkpt lat="43.6823483" lon="6.7286143"><ele>662.0</ele><time>2026-04-12T07:58:08.873Z</time></trkpt><trkpt lat="43.6823797" lon="6.7287185"><ele>662.0</ele><time>2026-04-12T07:58:11.855Z</time></trkpt><trkpt lat="43.6824201" lon="6.7288252"><ele>662.0</ele><time>2026-04-12T07:58:14.851Z</time></trkpt><trkpt lat="43.68247" lon="6.7289257"><ele>662.0</ele><time>2026-04-12T07:58:17.871Z</time></trkpt><trkpt lat="43.6825246" lon="6.7290158"><ele>662.0</ele><time>2026-04-12T07:58:20.883Z</time></trkpt><trkpt lat="43.6825755" lon="6.7291007"><ele>662.0</ele><time>2026-04-12T07:58:23.891Z</time></trkpt><trkpt lat="43.6826258" lon="6.7291814"><ele>662.0</ele><time>2026-04-12T07:58:26.856Z</time></trkpt><trkpt lat="43.6826777" lon="6.7292724"><ele>662.0</ele><time>2026-04-12T07:58:29.87Z</time></trkpt><trkpt lat="43.6827225" lon="6.7293662"><ele>662.0</ele><time>2026-04-12T07:58:32.853Z</time></trkpt><trkpt lat="43.6827663" lon="6.7294701"><ele>662.0</ele><time>2026-04-12T07:58:35.848Z</time></trkpt><trkpt lat="43.6828153" lon="6.7295758"><ele>662.0</ele><time>2026-04-12T07:58:38.833Z</time></trkpt><trkpt lat="43.6828589" lon="6.7296823"><ele>662.0</ele><time>2026-04-12T07:58:41.878Z</time></trkpt><trkpt lat="43.6828879" lon="6.7297657"><ele>662.0</ele><time>2026-04-12T07:58:43.863Z</time></trkpt><trkpt lat="43.6829223" lon="6.72988"><ele>664.3333333333333</ele><time>2026-04-12T07:58:46.857Z</time></trkpt><trkpt lat="43.6829491" lon="6.7299943"><ele>666.6666666666666</ele><time>2026-04-12T07:58:49.834Z</time></trkpt><trkpt lat="43.6829522" lon="6.7301084"><ele>669.0</ele><time>2026-04-12T07:58:52.865Z</time></trkpt><trkpt lat="43.6829529" lon="6.7302182"><ele>671.3333333333334</ele><time>2026-04-12T07:58:55.87Z</time></trkpt><trkpt lat="43.6829611" lon="6.7303052"><ele>673.6666666666667</ele><time>2026-04-12T07:58:57.877Z</time></trkpt><trkpt lat="43.6829745" lon="6.7303962"><ele>676.0</ele><time>2026-04-12T07:58:59.866Z</time></trkpt><trkpt lat="43.6829892" lon="6.730495"><ele>676.1666666666667</ele><time>2026-04-12T07:59:01.856Z</time></trkpt><trkpt lat="43.6830121" lon="6.7305959"><ele>676.3333333333334</ele><time>2026-04-12T07:59:03.848Z</time></trkpt><trkpt lat="43.6830355" lon="6.7306867"><ele>676.5</ele><time>2026-04-12T07:59:05.856Z</time></trkpt><trkpt lat="43.6830654" lon="6.7307722"><ele>676.6666666666666</ele><time>2026-04-12T07:59:07.874Z</time></trkpt><trkpt lat="43.6831016" lon="6.730855"><ele>676.8333333333333</ele><time>2026-04-12T07:59:09.86Z</time></trkpt><trkpt lat="43.6831469" lon="6.7309716"><ele>677.0</ele><time>2026-04-12T07:59:12.869Z</time></trkpt><trkpt lat="43.6831795" lon="6.7310559"><ele>677.0</ele><time>2026-04-12T07:59:14.852Z</time></trkpt><trkpt lat="43.6832114" lon="6.7311386"><ele>677.0</ele><time>2026-04-12T07:59:16.864Z</time></trkpt><trkpt lat="43.6832381" lon="6.7312204"><ele>677.0</ele><time>2026-04-12T07:59:18.836Z</time></trkpt><trkpt lat="43.6832689" lon="6.7313307"><ele>677.0</ele><time>2026-04-12T07:59:21.864Z</time></trkpt><trkpt lat="43.6833049" lon="6.7314435"><ele>677.0</ele><time>2026-04-12T07:59:24.865Z</time></trkpt><trkpt lat="43.6833454" lon="6.7315563"><ele>677.0</ele><time>2026-04-12T07:59:27.851Z</time></trkpt><trkpt lat="43.6833866" lon="6.7316629"><ele>677.0</ele><time>2026-04-12T07:59:30.864Z</time></trkpt><trkpt lat="43.6834392" lon="6.7317686"><ele>677.0</ele><time>2026-04-12T07:59:33.85Z</time></trkpt><trkpt lat="43.6834929" lon="6.73187"><ele>677.0</ele><time>2026-04-12T07:59:36.862Z</time></trkpt><trkpt lat="43.6835447" lon="6.7319675"><ele>677.0</ele><time>2026-04-12T07:59:39.837Z</time></trkpt><trkpt lat="43.6835918" lon="6.7320602"><ele>677.0</ele><time>2026-04-12T07:59:42.857Z</time></trkpt><trkpt lat="43.6836392" lon="6.73215"><ele>677.0</ele><time>2026-04-12T07:59:45.864Z</time></trkpt><trkpt lat="43.683678" lon="6.7322344"><ele>677.5</ele><time>2026-04-12T07:59:48.866Z</time></trkpt><trkpt lat="43.6837172" lon="6.7323154"><ele>678.0</ele><time>2026-04-12T07:59:51.881Z</time></trkpt><trkpt lat="43.6837684" lon="6.7324064"><ele>678.5</ele><time>2026-04-12T07:59:54.855Z</time></trkpt><trkpt lat="43.6838129" lon="6.732505"><ele>679.0</ele><time>2026-04-12T07:59:57.886Z</time></trkpt><trkpt lat="43.6838609" lon="6.7325982"><ele>679.5</ele><time>2026-04-12T08:00:00.867Z</time></trkpt><trkpt lat="43.6839148" lon="6.7326817"><ele>680.0</ele><time>2026-04-12T08:00:03.871Z</time></trkpt><trkpt lat="43.6839734" lon="6.7327529"><ele>680.0</ele><time>2026-04-12T08:00:06.864Z</time></trkpt><trkpt lat="43.6840362" lon="6.7328035"><ele>680.0</ele><time>2026-04-12T08:00:09.862Z</time></trkpt><trkpt lat="43.6840986" lon="6.7327757"><ele>680.0</ele><time>2026-04-12T08:00:12.87Z</time></trkpt><trkpt lat="43.6841347" lon="6.7326787"><ele>680.0</ele><time>2026-04-12T08:00:16.866Z</time></trkpt><trkpt lat="43.6841335" lon="6.7325901"><ele>680.0</ele><time>2026-04-12T08:00:19.856Z</time></trkpt><trkpt lat="43.6841288" lon="6.7324989"><ele>680.0</ele><time>2026-04-12T08:00:22.889Z</time></trkpt><trkpt lat="43.684131" lon="6.7324119"><ele>680.0</ele><time>2026-04-12T08:00:25.854Z</time></trkpt><trkpt lat="43.6841364" lon="6.7323165"><ele>681.5714285714286</ele><time>2026-04-12T08:00:28.878Z</time></trkpt><trkpt lat="43.6841326" lon="6.7322181"><ele>683.1428571428571</ele><time>2026-04-12T08:00:31.829Z</time></trkpt><trkpt lat="43.684128" lon="6.732113"><ele>684.7142857142857</ele><time>2026-04-12T08:00:34.883Z</time></trkpt><trkpt lat="43.6841178" lon="6.7320186"><ele>686.2857142857142</ele><time>2026-04-12T08:00:37.907Z</time></trkpt><trkpt lat="43.6841073" lon="6.7319192"><ele>687.8571428571429</ele><time>2026-04-12T08:00:40.881Z</time></trkpt><trkpt lat="43.6840979" lon="6.7318241"><ele>689.4285714285713</ele><time>2026-04-12T08:00:43.855Z</time></trkpt><trkpt lat="43.6840842" lon="6.7317208"><ele>691.0</ele><time>2026-04-12T08:00:46.891Z</time></trkpt><trkpt lat="43.6840791" lon="6.7316091"><ele>692.0</ele><time>2026-04-12T08:00:49.844Z</time></trkpt><trkpt lat="43.6840736" lon="6.7315021"><ele>693.0</ele><time>2026-04-12T08:00:52.837Z</time></trkpt><trkpt lat="43.6840772" lon="6.731392"><ele>694.0</ele><time>2026-04-12T08:00:55.838Z</time></trkpt><trkpt lat="43.6840871" lon="6.7312897"><ele>695.0</ele><time>2026-04-12T08:00:58.834Z</time></trkpt><trkpt lat="43.6841052" lon="6.7311836"><ele>696.0</ele><time>2026-04-12T08:01:01.876Z</time></trkpt><trkpt lat="43.6841214" lon="6.7310849"><ele>697.0</ele><time>2026-04-12T08:01:04.859Z</time></trkpt><trkpt lat="43.6841438" lon="6.7309874"><ele>697.2857142857143</ele><time>2026-04-12T08:01:07.865Z</time></trkpt><trkpt lat="43.6841623" lon="6.7308829"><ele>697.5714285714286</ele><time>2026-04-12T08:01:10.876Z</time></trkpt><trkpt lat="43.6841831" lon="6.7307805"><ele>697.8571428571429</ele><time>2026-04-12T08:01:13.848Z</time></trkpt><trkpt lat="43.6842106" lon="6.7306782"><ele>698.1428571428571</ele><time>2026-04-12T08:01:16.874Z</time></trkpt><trkpt lat="43.684245" lon="6.7305886"><ele>698.4285714285714</ele><time>2026-04-12T08:01:19.877Z</time></trkpt><trkpt lat="43.6842746" lon="6.730502"><ele>698.7142857142857</ele><time>2026-04-12T08:01:22.864Z</time></trkpt><trkpt lat="43.6843093" lon="6.7304207"><ele>699.0</ele><time>2026-04-12T08:01:25.886Z</time></trkpt><trkpt lat="43.684351" lon="6.7303404"><ele>699.0</ele><time>2026-04-12T08:01:28.857Z</time></trkpt><trkpt lat="43.6843946" lon="6.7302569"><ele>699.0</ele><time>2026-04-12T08:01:31.868Z</time></trkpt><trkpt lat="43.6844359" lon="6.7301726"><ele>699.0</ele><time>2026-04-12T08:01:34.846Z</time></trkpt><trkpt lat="43.6844789" lon="6.7300591"><ele>699.0</ele><time>2026-04-12T08:01:37.85Z</time></trkpt><trkpt lat="43.6845447" lon="6.7299912"><ele>699.0</ele><time>2026-04-12T08:01:40.835Z</time></trkpt><trkpt lat="43.6845807" lon="6.7298907"><ele>699.0</ele><time>2026-04-12T08:01:44.868Z</time></trkpt><trkpt lat="43.6846239" lon="6.7298007"><ele>701.0</ele><time>2026-04-12T08:01:48.864Z</time></trkpt><trkpt lat="43.6846647" lon="6.7297027"><ele>703.0</ele><time>2026-04-12T08:01:52.853Z</time></trkpt><trkpt lat="43.6847044" lon="6.729612"><ele>705.0</ele><time>2026-04-12T08:01:55.847Z</time></trkpt><trkpt lat="43.6847527" lon="6.7295264"><ele>707.0</ele><time>2026-04-12T08:01:58.863Z</time></trkpt><trkpt lat="43.6848027" lon="6.7294373"><ele>709.0</ele><time>2026-04-12T08:02:01.876Z</time></trkpt><trkpt lat="43.6848422" lon="6.7293473"><ele>711.0</ele><time>2026-04-12T08:02:04.865Z</time></trkpt><trkpt lat="43.6848895" lon="6.7292702"><ele>711.0</ele><time>2026-04-12T08:02:07.856Z</time></trkpt><trkpt lat="43.6849445" lon="6.7291826"><ele>711.0</ele><time>2026-04-12T08:02:10.857Z</time></trkpt><trkpt lat="43.6849972" lon="6.7291075"><ele>711.0</ele><time>2026-04-12T08:02:13.86Z</time></trkpt><trkpt lat="43.6850472" lon="6.7290287"><ele>711.0</ele><time>2026-04-12T08:02:16.861Z</time></trkpt><trkpt lat="43.6851005" lon="6.7289539"><ele>711.0</ele><time>2026-04-12T08:02:19.881Z</time></trkpt><trkpt lat="43.6851643" lon="6.728875"><ele>711.0</ele><time>2026-04-12T08:02:22.876Z</time></trkpt><trkpt lat="43.6852136" lon="6.7288029"><ele>712.0</ele><time>2026-04-12T08:02:25.864Z</time></trkpt><trkpt lat="43.685266" lon="6.728729"><ele>713.0</ele><time>2026-04-12T08:02:28.868Z</time></trkpt><trkpt lat="43.6853272" lon="6.7286421"><ele>714.0</ele><time>2026-04-12T08:02:32.868Z</time></trkpt><trkpt lat="43.6853813" lon="6.7285682"><ele>715.0</ele><time>2026-04-12T08:02:35.864Z</time></trkpt><trkpt lat="43.6854394" lon="6.7284833"><ele>716.0</ele><time>2026-04-12T08:02:38.892Z</time></trkpt><trkpt lat="43.6855027" lon="6.7284148"><ele>717.0</ele><time>2026-04-12T08:02:41.842Z</time></trkpt><trkpt lat="43.6855714" lon="6.728357"><ele>717.0</ele><time>2026-04-12T08:02:44.864Z</time></trkpt><trkpt lat="43.685644" lon="6.7283144"><ele>717.0</ele><time>2026-04-12T08:02:47.835Z</time></trkpt><trkpt lat="43.6857087" lon="6.7282802"><ele>717.0</ele><time>2026-04-12T08:02:50.868Z</time></trkpt><trkpt lat="43.6857802" lon="6.7282714"><ele>717.0</ele><time>2026-04-12T08:02:53.859Z</time></trkpt><trkpt lat="43.6858597" lon="6.728267"><ele>717.0</ele><time>2026-04-12T08:02:56.877Z</time></trkpt><trkpt lat="43.6859384" lon="6.7282705"><ele>717.0</ele><time>2026-04-12T08:02:59.86Z</time></trkpt><trkpt lat="43.686018" lon="6.7282633"><ele>717.0</ele><time>2026-04-12T08:03:02.866Z</time></trkpt><trkpt lat="43.6860923" lon="6.7282667"><ele>717.0</ele><time>2026-04-12T08:03:05.872Z</time></trkpt><trkpt lat="43.6861671" lon="6.7282559"><ele>717.0</ele><time>2026-04-12T08:03:08.855Z</time></trkpt><trkpt lat="43.6862435" lon="6.7282378"><ele>717.0</ele><time>2026-04-12T08:03:11.866Z</time></trkpt><trkpt lat="43.6863169" lon="6.7282149"><ele>717.0</ele><time>2026-04-12T08:03:14.847Z</time></trkpt><trkpt lat="43.6863848" lon="6.7281899"><ele>717.0</ele><time>2026-04-12T08:03:17.852Z</time></trkpt><trkpt lat="43.6864546" lon="6.7281503"><ele>717.0</ele><time>2026-04-12T08:03:20.857Z</time></trkpt><trkpt lat="43.6865177" lon="6.7280904"><ele>718.0</ele><time>2026-04-12T08:03:23.864Z</time></trkpt><trkpt lat="43.6865758" lon="6.7280276"><ele>719.0</ele><time>2026-04-12T08:03:26.879Z</time></trkpt><trkpt lat="43.6866251" lon="6.7279512"><ele>720.0</ele><time>2026-04-12T08:03:30.891Z</time></trkpt><trkpt lat="43.6866766" lon="6.7278763"><ele>721.0</ele><time>2026-04-12T08:03:34.86Z</time></trkpt><trkpt lat="43.6867344" lon="6.7278064"><ele>722.0</ele><time>2026-04-12T08:03:38.872Z</time></trkpt><trkpt lat="43.6867916" lon="6.727743"><ele>723.0</ele><time>2026-04-12T08:03:41.857Z</time></trkpt><trkpt lat="43.6868654" lon="6.7276736"><ele>724.6666666666666</ele><time>2026-04-12T08:03:44.882Z</time></trkpt><trkpt lat="43.6869472" lon="6.7276113"><ele>726.3333333333334</ele><time>2026-04-12T08:03:47.871Z</time></trkpt><trkpt lat="43.6870206" lon="6.7275608"><ele>728.0</ele><time>2026-04-12T08:03:50.872Z</time></trkpt><trkpt lat="43.6870927" lon="6.727496"><ele>729.6666666666667</ele><time>2026-04-12T08:03:53.849Z</time></trkpt><trkpt lat="43.6871616" lon="6.7274412"><ele>731.3333333333334</ele><time>2026-04-12T08:03:56.882Z</time></trkpt><trkpt lat="43.6872205" lon="6.7273878"><ele>733.0</ele><time>2026-04-12T08:03:58.825Z</time></trkpt><trkpt lat="43.6872848" lon="6.7273043"><ele>733.0</ele><time>2026-04-12T08:04:00.876Z</time></trkpt><trkpt lat="43.6873562" lon="6.7272389"><ele>733.0</ele><time>2026-04-12T08:04:02.84Z</time></trkpt><trkpt lat="43.6874295" lon="6.7271873"><ele>733.0</ele><time>2026-04-12T08:04:04.848Z</time></trkpt><trkpt lat="43.6875" lon="6.7271455"><ele>733.0</ele><time>2026-04-12T08:04:06.911Z</time></trkpt><trkpt lat="43.6875646" lon="6.7270993"><ele>733.0</ele><time>2026-04-12T08:04:08.867Z</time></trkpt><trkpt lat="43.6876306" lon="6.7270405"><ele>733.0</ele><time>2026-04-12T08:04:10.869Z</time></trkpt><trkpt lat="43.6877018" lon="6.7269937"><ele>732.6666666666667</ele><time>2026-04-12T08:04:12.828Z</time></trkpt><trkpt lat="43.6877757" lon="6.726943"><ele>732.3333333333334</ele><time>2026-04-12T08:04:14.869Z</time></trkpt><trkpt lat="43.6878446" lon="6.7268927"><ele>732.0</ele><time>2026-04-12T08:04:16.859Z</time></trkpt><trkpt lat="43.6879118" lon="6.726855"><ele>731.6666666666666</ele><time>2026-04-12T08:04:18.864Z</time></trkpt><trkpt lat="43.6879887" lon="6.7268039"><ele>731.3333333333333</ele><time>2026-04-12T08:04:20.855Z</time></trkpt><trkpt lat="43.6880595" lon="6.7267821"><ele>731.0</ele><time>2026-04-12T08:04:22.851Z</time></trkpt><trkpt lat="43.6881331" lon="6.726759"><ele>731.0</ele><time>2026-04-12T08:04:24.866Z</time></trkpt><trkpt lat="43.6882122" lon="6.726758"><ele>731.0</ele><time>2026-04-12T08:04:26.857Z</time></trkpt><trkpt lat="43.6882795" lon="6.7267494"><ele>731.0</ele><time>2026-04-12T08:04:28.853Z</time></trkpt><trkpt lat="43.6883477" lon="6.7267385"><ele>731.0</ele><time>2026-04-12T08:04:30.861Z</time></trkpt><trkpt lat="43.6884104" lon="6.7267286"><ele>731.0</ele><time>2026-04-12T08:04:32.862Z</time></trkpt><trkpt lat="43.6885036" lon="6.7267115"><ele>731.0</ele><time>2026-04-12T08:04:35.882Z</time></trkpt><trkpt lat="43.6886026" lon="6.7266987"><ele>732.5</ele><time>2026-04-12T08:04:38.853Z</time></trkpt><trkpt lat="43.6886819" lon="6.7266927"><ele>734.0</ele><time>2026-04-12T08:04:40.857Z</time></trkpt><trkpt lat="43.6887712" lon="6.7267029"><ele>735.5</ele><time>2026-04-12T08:04:42.872Z</time></trkpt><trkpt lat="43.68886" lon="6.7267201"><ele>737.0</ele><time>2026-04-12T08:04:44.861Z</time></trkpt><trkpt lat="43.6889561" lon="6.7267319"><ele>738.5</ele><time>2026-04-12T08:04:46.861Z</time></trkpt><trkpt lat="43.6890466" lon="6.7267557"><ele>740.0</ele><time>2026-04-12T08:04:48.855Z</time></trkpt><trkpt lat="43.6891366" lon="6.7267794"><ele>740.0</ele><time>2026-04-12T08:04:50.849Z</time></trkpt><trkpt lat="43.6892244" lon="6.7267942"><ele>740.0</ele><time>2026-04-12T08:04:52.862Z</time></trkpt><trkpt lat="43.6893036" lon="6.7268022"><ele>740.0</ele><time>2026-04-12T08:04:54.868Z</time></trkpt><trkpt lat="43.6893824" lon="6.7268154"><ele>740.0</ele><time>2026-04-12T08:04:57.857Z</time></trkpt><trkpt lat="43.6894634" lon="6.7267979"><ele>740.0</ele><time>2026-04-12T08:05:00.848Z</time></trkpt><trkpt lat="43.6895422" lon="6.7267366"><ele>740.0</ele><time>2026-04-12T08:05:03.858Z</time></trkpt><trkpt lat="43.6895798" lon="6.7266647"><ele>743.0</ele><time>2026-04-12T08:05:05.839Z</time></trkpt><trkpt lat="43.6895836" lon="6.7265589"><ele>746.0</ele><time>2026-04-12T08:05:07.857Z</time></trkpt><trkpt lat="43.6895582" lon="6.7264327"><ele>749.0</ele><time>2026-04-12T08:05:09.863Z</time></trkpt><trkpt lat="43.6895429" lon="6.7263218"><ele>752.0</ele><time>2026-04-12T08:05:11.863Z</time></trkpt><trkpt lat="43.6895185" lon="6.7262323"><ele>755.0</ele><time>2026-04-12T08:05:13.871Z</time></trkpt><trkpt lat="43.689494" lon="6.7261176"><ele>758.0</ele><time>2026-04-12T08:05:16.885Z</time></trkpt><trkpt lat="43.6894759" lon="6.7260044"><ele>758.0</ele><time>2026-04-12T08:05:19.864Z</time></trkpt><trkpt lat="43.6894679" lon="6.7258801"><ele>758.0</ele><time>2026-04-12T08:05:22.856Z</time></trkpt><trkpt lat="43.6894976" lon="6.7257657"><ele>758.0</ele><time>2026-04-12T08:05:25.848Z</time></trkpt><trkpt lat="43.689536" lon="6.7256534"><ele>758.0</ele><time>2026-04-12T08:05:28.856Z</time></trkpt><trkpt lat="43.6895823" lon="6.7255832"><ele>758.0</ele><time>2026-04-12T08:05:30.854Z</time></trkpt><trkpt lat="43.6896357" lon="6.7255167"><ele>758.0</ele><time>2026-04-12T08:05:32.853Z</time></trkpt><trkpt lat="43.6896906" lon="6.7254502"><ele>758.0</ele><time>2026-04-12T08:05:34.85Z</time></trkpt><trkpt lat="43.6897448" lon="6.7253923"><ele>758.0</ele><time>2026-04-12T08:05:36.841Z</time></trkpt><trkpt lat="43.6898037" lon="6.7253317"><ele>758.0</ele><time>2026-04-12T08:05:38.851Z</time></trkpt><trkpt lat="43.6898747" lon="6.7252697"><ele>758.0</ele><time>2026-04-12T08:05:40.874Z</time></trkpt><trkpt lat="43.6899657" lon="6.725203"><ele>758.0</ele><time>2026-04-12T08:05:42.864Z</time></trkpt><trkpt lat="43.6900614" lon="6.7251389"><ele>758.0</ele><time>2026-04-12T08:05:44.848Z</time></trkpt><trkpt lat="43.6901576" lon="6.7250901"><ele>756.0</ele><time>2026-04-12T08:05:46.85Z</time></trkpt><trkpt lat="43.6902265" lon="6.7249819"><ele>754.0</ele><time>2026-04-12T08:05:48.864Z</time></trkpt><trkpt lat="43.6902286" lon="6.7248528"><ele>752.0</ele><time>2026-04-12T08:05:50.871Z</time></trkpt><trkpt lat="43.6901798" lon="6.7247422"><ele>750.0</ele><time>2026-04-12T08:05:52.858Z</time></trkpt><trkpt lat="43.6901138" lon="6.7246697"><ele>748.0</ele><time>2026-04-12T08:05:54.856Z</time></trkpt><trkpt lat="43.690043" lon="6.7246031"><ele>748.0</ele><time>2026-04-12T08:05:56.861Z</time></trkpt><trkpt lat="43.6899745" lon="6.7245343"><ele>748.0</ele><time>2026-04-12T08:05:58.843Z</time></trkpt><trkpt lat="43.689904" lon="6.724465"><ele>748.0</ele><time>2026-04-12T08:06:00.871Z</time></trkpt><trkpt lat="43.6898243" lon="6.724419"><ele>748.0</ele><time>2026-04-12T08:06:02.843Z</time></trkpt><trkpt lat="43.6897411" lon="6.7243811"><ele>748.0</ele><time>2026-04-12T08:06:04.851Z</time></trkpt><trkpt lat="43.6896568" lon="6.724341"><ele>748.0</ele><time>2026-04-12T08:06:06.864Z</time></trkpt><trkpt lat="43.689587" lon="6.7243083"><ele>749.6666666666667</ele><time>2026-04-12T08:06:08.869Z</time></trkpt><trkpt lat="43.6895223" lon="6.724248"><ele>751.3333333333334</ele><time>2026-04-12T08:06:10.866Z</time></trkpt><trkpt lat="43.6894734" lon="6.7241528"><ele>753.0</ele><time>2026-04-12T08:06:12.837Z</time></trkpt><trkpt lat="43.6894571" lon="6.72404"><ele>754.6666666666666</ele><time>2026-04-12T08:06:14.86Z</time></trkpt><trkpt lat="43.6894698" lon="6.7239334"><ele>756.3333333333333</ele><time>2026-04-12T08:06:16.858Z</time></trkpt><trkpt lat="43.6894821" lon="6.7238264"><ele>758.0</ele><time>2026-04-12T08:06:18.858Z</time></trkpt><trkpt lat="43.6894943" lon="6.7237087"><ele>758.0</ele><time>2026-04-12T08:06:20.872Z</time></trkpt><trkpt lat="43.6895196" lon="6.7235863"><ele>758.0</ele><time>2026-04-12T08:06:22.893Z</time></trkpt><trkpt lat="43.6895536" lon="6.7234764"><ele>758.0</ele><time>2026-04-12T08:06:24.855Z</time></trkpt><trkpt lat="43.6895907" lon="6.7233643"><ele>758.0</ele><time>2026-04-12T08:06:26.842Z</time></trkpt><trkpt lat="43.6896198" lon="6.7232845"><ele>758.0</ele><time>2026-04-12T08:06:28.845Z</time></trkpt><trkpt lat="43.6896579" lon="6.7232016"><ele>758.0</ele><time>2026-04-12T08:06:30.854Z</time></trkpt><trkpt lat="43.6897028" lon="6.7231223"><ele>758.2857142857143</ele><time>2026-04-12T08:06:32.861Z</time></trkpt><trkpt lat="43.6897665" lon="6.723048"><ele>758.5714285714286</ele><time>2026-04-12T08:06:34.864Z</time></trkpt><trkpt lat="43.6898149" lon="6.7229864"><ele>758.8571428571429</ele><time>2026-04-12T08:06:36.853Z</time></trkpt><trkpt lat="43.6898611" lon="6.7229173"><ele>759.1428571428571</ele><time>2026-04-12T08:06:38.847Z</time></trkpt><trkpt lat="43.6899173" lon="6.7228508"><ele>759.4285714285714</ele><time>2026-04-12T08:06:40.845Z</time></trkpt><trkpt lat="43.6899732" lon="6.722782"><ele>759.7142857142858</ele><time>2026-04-12T08:06:42.855Z</time></trkpt><trkpt lat="43.6900278" lon="6.7227204"><ele>760.0</ele><time>2026-04-12T08:06:44.839Z</time></trkpt><trkpt lat="43.6900782" lon="6.7226527"><ele>758.8333333333334</ele><time>2026-04-12T08:06:46.873Z</time></trkpt><trkpt lat="43.6901313" lon="6.7225825"><ele>757.6666666666667</ele><time>2026-04-12T08:06:48.86Z</time></trkpt><trkpt lat="43.6901842" lon="6.7225154"><ele>756.5</ele><time>2026-04-12T08:06:50.823Z</time></trkpt><trkpt lat="43.69024" lon="6.7224455"><ele>755.3333333333334</ele><time>2026-04-12T08:06:52.863Z</time></trkpt><trkpt lat="43.6903037" lon="6.7223764"><ele>754.1666666666666</ele><time>2026-04-12T08:06:54.851Z</time></trkpt><trkpt lat="43.6903598" lon="6.7223101"><ele>753.0</ele><time>2026-04-12T08:06:56.859Z</time></trkpt><trkpt lat="43.6904204" lon="6.7222456"><ele>754.0</ele><time>2026-04-12T08:06:58.853Z</time></trkpt><trkpt lat="43.6904789" lon="6.72219"><ele>755.0</ele><time>2026-04-12T08:07:00.868Z</time></trkpt><trkpt lat="43.6905394" lon="6.7221269"><ele>756.0</ele><time>2026-04-12T08:07:02.85Z</time></trkpt><trkpt lat="43.6906008" lon="6.7220734"><ele>757.0</ele><time>2026-04-12T08:07:04.867Z</time></trkpt><trkpt lat="43.6906627" lon="6.7220161"><ele>758.0</ele><time>2026-04-12T08:07:06.856Z</time></trkpt><trkpt lat="43.6907165" lon="6.7219576"><ele>759.0</ele><time>2026-04-12T08:07:08.848Z</time></trkpt><trkpt lat="43.6907715" lon="6.7218946"><ele>760.0</ele><time>2026-04-12T08:07:10.865Z</time></trkpt><trkpt lat="43.6908266" lon="6.7218331"><ele>760.0</ele><time>2026-04-12T08:07:12.859Z</time></trkpt><trkpt lat="43.6908821" lon="6.7217657"><ele>760.0</ele><time>2026-04-12T08:07:14.866Z</time></trkpt><trkpt lat="43.690939" lon="6.721705"><ele>760.0</ele><time>2026-04-12T08:07:16.866Z</time></trkpt><trkpt lat="43.6909861" lon="6.721638"><ele>760.0</ele><time>2026-04-12T08:07:18.858Z</time></trkpt><trkpt lat="43.6910411" lon="6.7215349"><ele>760.0</ele><time>2026-04-12T08:07:21.847Z</time></trkpt><trkpt lat="43.6910784" lon="6.7214595"><ele>760.0</ele><time>2026-04-12T08:07:23.873Z</time></trkpt><trkpt lat="43.6911356" lon="6.7213542"><ele>762.3333333333334</ele><time>2026-04-12T08:07:26.864Z</time></trkpt><trkpt lat="43.6911909" lon="6.7212706"><ele>764.6666666666667</ele><time>2026-04-12T08:07:29.847Z</time></trkpt><trkpt lat="43.6912437" lon="6.7212053"><ele>767.0</ele><time>2026-04-12T08:07:32.849Z</time></trkpt><trkpt lat="43.6912954" lon="6.7211514"><ele>769.3333333333334</ele><time>2026-04-12T08:07:35.845Z</time></trkpt><trkpt lat="43.691351" lon="6.7211078"><ele>771.6666666666666</ele><time>2026-04-12T08:07:37.855Z</time></trkpt><trkpt lat="43.6914321" lon="6.7210468"><ele>774.0</ele><time>2026-04-12T08:07:40.872Z</time></trkpt><trkpt lat="43.6915072" lon="6.721065"><ele>775.5</ele><time>2026-04-12T08:07:43.872Z</time></trkpt><trkpt lat="43.6914959" lon="6.7211549"><ele>777.0</ele><time>2026-04-12T08:07:46.872Z</time></trkpt><trkpt lat="43.6914233" lon="6.7212239"><ele>778.5</ele><time>2026-04-12T08:07:49.866Z</time></trkpt><trkpt lat="43.6913601" lon="6.7212974"><ele>780.0</ele><time>2026-04-12T08:07:52.856Z</time></trkpt><trkpt lat="43.6913044" lon="6.7213848"><ele>781.5</ele><time>2026-04-12T08:07:55.854Z</time></trkpt><trkpt lat="43.6912548" lon="6.7214505"><ele>783.0</ele><time>2026-04-12T08:07:57.836Z</time></trkpt><trkpt lat="43.6912183" lon="6.721525"><ele>783.0</ele><time>2026-04-12T08:07:59.85Z</time></trkpt><trkpt lat="43.6911832" lon="6.7215993"><ele>783.0</ele><time>2026-04-12T08:08:01.867Z</time></trkpt><trkpt lat="43.6911329" lon="6.7217101"><ele>783.0</ele><time>2026-04-12T08:08:04.863Z</time></trkpt><trkpt lat="43.6910986" lon="6.7218144"><ele>783.0</ele><time>2026-04-12T08:08:07.858Z</time></trkpt><trkpt lat="43.691064" lon="6.7219335"><ele>783.0</ele><time>2026-04-12T08:08:10.881Z</time></trkpt><trkpt lat="43.691029" lon="6.7220472"><ele>783.0</ele><time>2026-04-12T08:08:13.876Z</time></trkpt><trkpt lat="43.6910058" lon="6.7221613"><ele>782.2857142857142</ele><time>2026-04-12T08:08:16.847Z</time></trkpt><trkpt lat="43.6909726" lon="6.7222758"><ele>781.5714285714287</ele><time>2026-04-12T08:08:19.855Z</time></trkpt><trkpt lat="43.6909525" lon="6.7223592"><ele>780.8571428571429</ele><time>2026-04-12T08:08:21.858Z</time></trkpt><trkpt lat="43.6909352" lon="6.7224433"><ele>780.1428571428571</ele><time>2026-04-12T08:08:23.869Z</time></trkpt><trkpt lat="43.6909232" lon="6.7225308"><ele>779.4285714285713</ele><time>2026-04-12T08:08:25.864Z</time></trkpt><trkpt lat="43.6909041" lon="6.7226168"><ele>778.7142857142858</ele><time>2026-04-12T08:08:27.859Z</time></trkpt><trkpt lat="43.6908864" lon="6.7227024"><ele>778.0</ele><time>2026-04-12T08:08:29.856Z</time></trkpt><trkpt lat="43.6908552" lon="6.7228152"><ele>778.0</ele><time>2026-04-12T08:08:32.864Z</time></trkpt><trkpt lat="43.6908311" lon="6.722903"><ele>778.0</ele><time>2026-04-12T08:08:34.851Z</time></trkpt><trkpt lat="43.6908036" lon="6.7229879"><ele>778.0</ele><time>2026-04-12T08:08:36.845Z</time></trkpt><trkpt lat="43.6907888" lon="6.7230835"><ele>778.0</ele><time>2026-04-12T08:08:38.849Z</time></trkpt><trkpt lat="43.6908102" lon="6.7231755"><ele>778.0</ele><time>2026-04-12T08:08:40.846Z</time></trkpt><trkpt lat="43.6908717" lon="6.7232252"><ele>778.0</ele><time>2026-04-12T08:08:42.831Z</time></trkpt><trkpt lat="43.6909281" lon="6.7231841"><ele>778.0</ele><time>2026-04-12T08:08:44.862Z</time></trkpt><trkpt lat="43.6909723" lon="6.7230842"><ele>777.9999999999999</ele><time>2026-04-12T08:08:47.873Z</time></trkpt><trkpt lat="43.6910082" lon="6.7230061"><ele>778.0</ele><time>2026-04-12T08:08:49.833Z</time></trkpt><trkpt lat="43.6910473" lon="6.7229252"><ele>778.0</ele><time>2026-04-12T08:08:51.86Z</time></trkpt><trkpt lat="43.6910856" lon="6.7228499"><ele>778.0</ele><time>2026-04-12T08:08:53.866Z</time></trkpt><trkpt lat="43.691147" lon="6.7227459"><ele>777.9999999999999</ele><time>2026-04-12T08:08:56.865Z</time></trkpt><trkpt lat="43.6912009" lon="6.7226444"><ele>778.0</ele><time>2026-04-12T08:08:59.854Z</time></trkpt><trkpt lat="43.691263" lon="6.7225505"><ele>779.8571428571429</ele><time>2026-04-12T08:09:02.859Z</time></trkpt><trkpt lat="43.6913061" lon="6.7224799"><ele>781.7142857142857</ele><time>2026-04-12T08:09:04.878Z</time></trkpt><trkpt lat="43.6913495" lon="6.7224017"><ele>783.5714285714286</ele><time>2026-04-12T08:09:06.852Z</time></trkpt><trkpt lat="43.6913911" lon="6.722319"><ele>785.4285714285714</ele><time>2026-04-12T08:09:08.856Z</time></trkpt><trkpt lat="43.6914362" lon="6.7222512"><ele>787.2857142857142</ele><time>2026-04-12T08:09:10.873Z</time></trkpt><trkpt lat="43.6914954" lon="6.7221493"><ele>789.1428571428571</ele><time>2026-04-12T08:09:13.856Z</time></trkpt><trkpt lat="43.6915349" lon="6.7220739"><ele>791.0</ele><time>2026-04-12T08:09:15.834Z</time></trkpt><trkpt lat="43.6915916" lon="6.7219664"><ele>789.6666666666667</ele><time>2026-04-12T08:09:18.865Z</time></trkpt><trkpt lat="43.6916314" lon="6.7218973"><ele>788.3333333333334</ele><time>2026-04-12T08:09:20.856Z</time></trkpt><trkpt lat="43.6916886" lon="6.7218056"><ele>787.0</ele><time>2026-04-12T08:09:23.865Z</time></trkpt><trkpt lat="43.691743" lon="6.7217294"><ele>785.6666666666667</ele><time>2026-04-12T08:09:26.852Z</time></trkpt><trkpt lat="43.6918049" lon="6.7216411"><ele>784.3333333333334</ele><time>2026-04-12T08:09:29.866Z</time></trkpt><trkpt lat="43.6918714" lon="6.7215455"><ele>783.0</ele><time>2026-04-12T08:09:32.862Z</time></trkpt><trkpt lat="43.6919181" lon="6.7214821"><ele>784.6666666666666</ele><time>2026-04-12T08:09:34.843Z</time></trkpt><trkpt lat="43.6919706" lon="6.7214057"><ele>786.3333333333333</ele><time>2026-04-12T08:09:36.852Z</time></trkpt><trkpt lat="43.6920317" lon="6.721328"><ele>788.0</ele><time>2026-04-12T08:09:38.871Z</time></trkpt><trkpt lat="43.6920955" lon="6.721231"><ele>789.6666666666666</ele><time>2026-04-12T08:09:41.86Z</time></trkpt><trkpt lat="43.6921451" lon="6.7211679"><ele>791.3333333333333</ele><time>2026-04-12T08:09:43.862Z</time></trkpt><trkpt lat="43.6921873" lon="6.7210964"><ele>793.0</ele><time>2026-04-12T08:09:45.857Z</time></trkpt><trkpt lat="43.6922417" lon="6.7210357"><ele>792.9999999999999</ele><time>2026-04-12T08:09:47.825Z</time></trkpt><trkpt lat="43.6923177" lon="6.7209679"><ele>793.0</ele><time>2026-04-12T08:09:50.903Z</time></trkpt><trkpt lat="43.6923974" lon="6.7208999"><ele>793.0</ele><time>2026-04-12T08:09:53.872Z</time></trkpt><trkpt lat="43.6924611" lon="6.7208465"><ele>793.0</ele><time>2026-04-12T08:09:55.858Z</time></trkpt><trkpt lat="43.6925434" lon="6.7207867"><ele>792.9999999999999</ele><time>2026-04-12T08:09:58.859Z</time></trkpt><trkpt lat="43.6926187" lon="6.7207055"><ele>793.0</ele><time>2026-04-12T08:10:01.829Z</time></trkpt><trkpt lat="43.6926598" lon="6.7206323"><ele>793.0000000000001</ele><time>2026-04-12T08:10:03.879Z</time></trkpt><trkpt lat="43.6926888" lon="6.7205405"><ele>793.0</ele><time>2026-04-12T08:10:05.832Z</time></trkpt><trkpt lat="43.6926886" lon="6.7204494"><ele>793.0</ele><time>2026-04-12T08:10:07.867Z</time></trkpt><trkpt lat="43.6926865" lon="6.7203441"><ele>793.0</ele><time>2026-04-12T08:10:09.859Z</time></trkpt><trkpt lat="43.6926672" lon="6.7202149"><ele>793.0</ele><time>2026-04-12T08:10:12.869Z</time></trkpt><trkpt lat="43.69264" lon="6.7201252"><ele>793.0000000000001</ele><time>2026-04-12T08:10:14.849Z</time></trkpt><trkpt lat="43.6926188" lon="6.7200424"><ele>793.0</ele><time>2026-04-12T08:10:16.874Z</time></trkpt><trkpt lat="43.6925838" lon="6.719925"><ele>793.3333333333333</ele><time>2026-04-12T08:10:19.833Z</time></trkpt><trkpt lat="43.6925629" lon="6.7198398"><ele>793.6666666666666</ele><time>2026-04-12T08:10:21.841Z</time></trkpt><trkpt lat="43.6925192" lon="6.7197192"><ele>794.0</ele><time>2026-04-12T08:10:24.852Z</time></trkpt><trkpt lat="43.69249" lon="6.7196368"><ele>794.3333333333333</ele><time>2026-04-12T08:10:26.863Z</time></trkpt><trkpt lat="43.6924414" lon="6.719527"><ele>794.6666666666666</ele><time>2026-04-12T08:10:29.856Z</time></trkpt><trkpt lat="43.6923852" lon="6.7194284"><ele>795.0</ele><time>2026-04-12T08:10:32.873Z</time></trkpt><trkpt lat="43.6923396" lon="6.7193559"><ele>796.3333333333334</ele><time>2026-04-12T08:10:34.862Z</time></trkpt><trkpt lat="43.6922817" lon="6.7192838"><ele>797.6666666666667</ele><time>2026-04-12T08:10:36.872Z</time></trkpt><trkpt lat="43.6922365" lon="6.7192011"><ele>799.0</ele><time>2026-04-12T08:10:38.868Z</time></trkpt><trkpt lat="43.692181" lon="6.7191242"><ele>800.3333333333334</ele><time>2026-04-12T08:10:40.891Z</time></trkpt><trkpt lat="43.6921276" lon="6.7190408"><ele>801.6666666666667</ele><time>2026-04-12T08:10:42.869Z</time></trkpt><trkpt lat="43.6920768" lon="6.7189678"><ele>803.0</ele><time>2026-04-12T08:10:44.841Z</time></trkpt><trkpt lat="43.6920297" lon="6.7188967"><ele>802.9999999999999</ele><time>2026-04-12T08:10:46.869Z</time></trkpt><trkpt lat="43.6919772" lon="6.7188195"><ele>803.0</ele><time>2026-04-12T08:10:48.869Z</time></trkpt><trkpt lat="43.6919311" lon="6.7187462"><ele>803.0</ele><time>2026-04-12T08:10:50.86Z</time></trkpt><trkpt lat="43.6918909" lon="6.7186582"><ele>803.0</ele><time>2026-04-12T08:10:52.856Z</time></trkpt><trkpt lat="43.6918605" lon="6.7185411"><ele>803.0</ele><time>2026-04-12T08:10:55.874Z</time></trkpt><trkpt lat="43.6918332" lon="6.7184614"><ele>802.9999999999999</ele><time>2026-04-12T08:10:57.827Z</time></trkpt><trkpt lat="43.6917958" lon="6.7183836"><ele>803.0</ele><time>2026-04-12T08:11:01.889Z</time></trkpt><trkpt lat="43.691731" lon="6.7182441"><ele>802.8333333333334</ele><time>2026-04-12T08:11:04.874Z</time></trkpt><trkpt lat="43.691707" lon="6.7181207"><ele>802.6666666666667</ele><time>2026-04-12T08:11:07.846Z</time></trkpt><trkpt lat="43.6916956" lon="6.7180278"><ele>802.5</ele><time>2026-04-12T08:11:09.864Z</time></trkpt><trkpt lat="43.69168" lon="6.7179061"><ele>802.3333333333333</ele><time>2026-04-12T08:11:12.858Z</time></trkpt><trkpt lat="43.6916671" lon="6.7177785"><ele>802.1666666666666</ele><time>2026-04-12T08:11:15.88Z</time></trkpt><trkpt lat="43.6916655" lon="6.7176885"><ele>802.0</ele><time>2026-04-12T08:11:17.868Z</time></trkpt><trkpt lat="43.6916539" lon="6.7176004"><ele>802.4999999999999</ele><time>2026-04-12T08:11:19.854Z</time></trkpt><trkpt lat="43.6916643" lon="6.7174702"><ele>803.0</ele><time>2026-04-12T08:11:22.861Z</time></trkpt><trkpt lat="43.6916799" lon="6.717362"><ele>803.5</ele><time>2026-04-12T08:11:24.85Z</time></trkpt><trkpt lat="43.6917081" lon="6.7172629"><ele>804.0</ele><time>2026-04-12T08:11:26.88Z</time></trkpt><trkpt lat="43.691749" lon="6.7171443"><ele>804.4999999999999</ele><time>2026-04-12T08:11:28.864Z</time></trkpt><trkpt lat="43.6917841" lon="6.7170135"><ele>805.0</ele><time>2026-04-12T08:11:30.824Z</time></trkpt><trkpt lat="43.6918165" lon="6.7168708"><ele>803.8333333333333</ele><time>2026-04-12T08:11:32.867Z</time></trkpt><trkpt lat="43.6918678" lon="6.7167303"><ele>802.6666666666666</ele><time>2026-04-12T08:11:34.87Z</time></trkpt><trkpt lat="43.6919313" lon="6.716583"><ele>801.5</ele><time>2026-04-12T08:11:36.854Z</time></trkpt><trkpt lat="43.6919652" lon="6.7165079"><ele>800.3333333333333</ele><time>2026-04-12T08:11:37.867Z</time></trkpt><trkpt lat="43.6920007" lon="6.7164331"><ele>799.1666666666666</ele><time>2026-04-12T08:11:38.855Z</time></trkpt><trkpt lat="43.6920447" lon="6.7163567"><ele>798.0</ele><time>2026-04-12T08:11:39.868Z</time></trkpt><trkpt lat="43.6920872" lon="6.7162744"><ele>799.8571428571429</ele><time>2026-04-12T08:11:40.867Z</time></trkpt><trkpt lat="43.6921283" lon="6.716192"><ele>801.7142857142858</ele><time>2026-04-12T08:11:41.894Z</time></trkpt><trkpt lat="43.6921704" lon="6.7161109"><ele>803.5714285714286</ele><time>2026-04-12T08:11:42.842Z</time></trkpt><trkpt lat="43.6922156" lon="6.7160424"><ele>805.4285714285714</ele><time>2026-04-12T08:11:43.894Z</time></trkpt><trkpt lat="43.6922556" lon="6.7159707"><ele>807.2857142857143</ele><time>2026-04-12T08:11:44.857Z</time></trkpt><trkpt lat="43.6922977" lon="6.7159022"><ele>809.1428571428571</ele><time>2026-04-12T08:11:45.866Z</time></trkpt><trkpt lat="43.692334" lon="6.7158267"><ele>811.0</ele><time>2026-04-12T08:11:46.863Z</time></trkpt><trkpt lat="43.6923946" lon="6.7156732"><ele>811.0</ele><time>2026-04-12T08:11:48.888Z</time></trkpt><trkpt lat="43.6924446" lon="6.7155224"><ele>811.0</ele><time>2026-04-12T08:11:50.868Z</time></trkpt><trkpt lat="43.6924778" lon="6.7153851"><ele>811.0</ele><time>2026-04-12T08:11:52.879Z</time></trkpt><trkpt lat="43.6924853" lon="6.7152393"><ele>811.0</ele><time>2026-04-12T08:11:54.858Z</time></trkpt><trkpt lat="43.692455" lon="6.7150921"><ele>811.0</ele><time>2026-04-12T08:11:56.843Z</time></trkpt><trkpt lat="43.6923835" lon="6.7149856"><ele>810.3333333333333</ele><time>2026-04-12T08:11:58.889Z</time></trkpt><trkpt lat="43.692328" lon="6.7148879"><ele>809.6666666666666</ele><time>2026-04-12T08:12:00.869Z</time></trkpt><trkpt lat="43.6923361" lon="6.7147658"><ele>809.0</ele><time>2026-04-12T08:12:02.87Z</time></trkpt><trkpt lat="43.6923731" lon="6.7146809"><ele>808.3333333333333</ele><time>2026-04-12T08:12:04.85Z</time></trkpt><trkpt lat="43.6923923" lon="6.7145848"><ele>807.6666666666666</ele><time>2026-04-12T08:12:06.876Z</time></trkpt><trkpt lat="43.6924253" lon="6.714483"><ele>807.0</ele><time>2026-04-12T08:12:08.857Z</time></trkpt><trkpt lat="43.6924413" lon="6.7143897"><ele>806.8</ele><time>2026-04-12T08:12:10.871Z</time></trkpt><trkpt lat="43.6924709" lon="6.714279"><ele>806.6</ele><time>2026-04-12T08:12:12.849Z</time></trkpt><trkpt lat="43.6925102" lon="6.7141393"><ele>806.4</ele><time>2026-04-12T08:12:14.876Z</time></trkpt><trkpt lat="43.6925433" lon="6.7139915"><ele>806.1999999999999</ele><time>2026-04-12T08:12:16.892Z</time></trkpt><trkpt lat="43.6925823" lon="6.7138261"><ele>806.0</ele><time>2026-04-12T08:12:18.852Z</time></trkpt><trkpt lat="43.6925858" lon="6.7137303"><ele>806.0</ele><time>2026-04-12T08:12:19.878Z</time></trkpt><trkpt lat="43.6925677" lon="6.7136335"><ele>806.0</ele><time>2026-04-12T08:12:20.864Z</time></trkpt><trkpt lat="43.6925252" lon="6.7135555"><ele>806.0</ele><time>2026-04-12T08:12:21.856Z</time></trkpt><trkpt lat="43.6924785" lon="6.7134765"><ele>806.0</ele><time>2026-04-12T08:12:22.851Z</time></trkpt><trkpt lat="43.6924198" lon="6.7134045"><ele>806.0</ele><time>2026-04-12T08:12:23.851Z</time></trkpt><trkpt lat="43.6923603" lon="6.7133418"><ele>806.0</ele><time>2026-04-12T08:12:24.889Z</time></trkpt><trkpt lat="43.6923034" lon="6.7132766"><ele>806.0</ele><time>2026-04-12T08:12:25.849Z</time></trkpt><trkpt lat="43.6922437" lon="6.7132044"><ele>805.5000000000001</ele><time>2026-04-12T08:12:26.866Z</time></trkpt><trkpt lat="43.6921825" lon="6.7131292"><ele>805.0</ele><time>2026-04-12T08:12:27.852Z</time></trkpt><trkpt lat="43.6921208" lon="6.713059"><ele>804.5</ele><time>2026-04-12T08:12:28.874Z</time></trkpt><trkpt lat="43.6920639" lon="6.7129866"><ele>804.0</ele><time>2026-04-12T08:12:29.858Z</time></trkpt><trkpt lat="43.6920044" lon="6.7129132"><ele>803.5000000000001</ele><time>2026-04-12T08:12:30.871Z</time></trkpt><trkpt lat="43.691942" lon="6.7128339"><ele>803.0</ele><time>2026-04-12T08:12:31.885Z</time></trkpt><trkpt lat="43.6918743" lon="6.712758"><ele>801.8</ele><time>2026-04-12T08:12:32.861Z</time></trkpt><trkpt lat="43.6918058" lon="6.7126803"><ele>800.5999999999999</ele><time>2026-04-12T08:12:33.863Z</time></trkpt><trkpt lat="43.6917345" lon="6.7125995"><ele>799.4000000000001</ele><time>2026-04-12T08:12:34.867Z</time></trkpt><trkpt lat="43.691665" lon="6.7125151"><ele>798.2</ele><time>2026-04-12T08:12:35.887Z</time></trkpt><trkpt lat="43.6915912" lon="6.7124345"><ele>797.0</ele><time>2026-04-12T08:12:36.865Z</time></trkpt><trkpt lat="43.6915105" lon="6.7123539"><ele>797.0</ele><time>2026-04-12T08:12:37.901Z</time></trkpt><trkpt lat="43.6914369" lon="6.7122712"><ele>797.0</ele><time>2026-04-12T08:12:38.847Z</time></trkpt><trkpt lat="43.69137" lon="6.7121925"><ele>797.0</ele><time>2026-04-12T08:12:39.849Z</time></trkpt><trkpt lat="43.6912985" lon="6.7121171"><ele>797.0</ele><time>2026-04-12T08:12:40.833Z</time></trkpt><trkpt lat="43.6912252" lon="6.7120308"><ele>797.0</ele><time>2026-04-12T08:12:41.872Z</time></trkpt><trkpt lat="43.6911543" lon="6.711948"><ele>796.5000000000001</ele><time>2026-04-12T08:12:42.864Z</time></trkpt><trkpt lat="43.6910862" lon="6.7118694"><ele>796.0</ele><time>2026-04-12T08:12:43.882Z</time></trkpt><trkpt lat="43.6910164" lon="6.7117938"><ele>795.5</ele><time>2026-04-12T08:12:44.82Z</time></trkpt><trkpt lat="43.6909424" lon="6.7117128"><ele>795.0</ele><time>2026-04-12T08:12:45.901Z</time></trkpt><trkpt lat="43.6908767" lon="6.7116351"><ele>794.5000000000001</ele><time>2026-04-12T08:12:46.896Z</time></trkpt><trkpt lat="43.6908125" lon="6.7115598"><ele>794.0</ele><time>2026-04-12T08:12:47.86Z</time></trkpt><trkpt lat="43.6907475" lon="6.7114817"><ele>794.0000000000001</ele><time>2026-04-12T08:12:48.864Z</time></trkpt><trkpt lat="43.6906853" lon="6.7114071"><ele>794.0</ele><time>2026-04-12T08:12:49.856Z</time></trkpt><trkpt lat="43.6906242" lon="6.7113258"><ele>794.0</ele><time>2026-04-12T08:12:50.868Z</time></trkpt><trkpt lat="43.6905572" lon="6.7112432"><ele>794.0</ele><time>2026-04-12T08:12:51.885Z</time></trkpt><trkpt lat="43.6904947" lon="6.7111587"><ele>794.0000000000001</ele><time>2026-04-12T08:12:52.828Z</time></trkpt><trkpt lat="43.6904301" lon="6.7110783"><ele>794.0</ele><time>2026-04-12T08:12:53.873Z</time></trkpt><trkpt lat="43.6903682" lon="6.7109975"><ele>793.6666666666667</ele><time>2026-04-12T08:12:54.865Z</time></trkpt><trkpt lat="43.6903042" lon="6.7109217"><ele>793.3333333333334</ele><time>2026-04-12T08:12:55.856Z</time></trkpt><trkpt lat="43.6902402" lon="6.7108477"><ele>793.0</ele><time>2026-04-12T08:12:56.861Z</time></trkpt><trkpt lat="43.6901753" lon="6.7107766"><ele>792.6666666666667</ele><time>2026-04-12T08:12:57.878Z</time></trkpt><trkpt lat="43.6901092" lon="6.7107036"><ele>792.3333333333334</ele><time>2026-04-12T08:12:58.858Z</time></trkpt><trkpt lat="43.6900465" lon="6.7106323"><ele>792.0</ele><time>2026-04-12T08:12:59.873Z</time></trkpt><trkpt lat="43.6899826" lon="6.710557"><ele>792.0</ele><time>2026-04-12T08:13:00.877Z</time></trkpt><trkpt lat="43.6899209" lon="6.7104806"><ele>792.0</ele><time>2026-04-12T08:13:01.849Z</time></trkpt><trkpt lat="43.6898568" lon="6.7104044"><ele>792.0</ele><time>2026-04-12T08:13:02.874Z</time></trkpt><trkpt lat="43.6897932" lon="6.7103268"><ele>792.0</ele><time>2026-04-12T08:13:03.861Z</time></trkpt><trkpt lat="43.689727" lon="6.7102531"><ele>792.0</ele><time>2026-04-12T08:13:04.855Z</time></trkpt><trkpt lat="43.6896691" lon="6.7101863"><ele>792.0</ele><time>2026-04-12T08:13:05.869Z</time></trkpt><trkpt lat="43.6896098" lon="6.7101161"><ele>792.1666666666666</ele><time>2026-04-12T08:13:06.857Z</time></trkpt><trkpt lat="43.689549" lon="6.7100437"><ele>792.3333333333333</ele><time>2026-04-12T08:13:07.877Z</time></trkpt><trkpt lat="43.6894909" lon="6.7099772"><ele>792.5</ele><time>2026-04-12T08:13:08.894Z</time></trkpt><trkpt lat="43.6894342" lon="6.7099092"><ele>792.6666666666666</ele><time>2026-04-12T08:13:09.856Z</time></trkpt><trkpt lat="43.6893752" lon="6.7098437"><ele>792.8333333333333</ele><time>2026-04-12T08:13:10.911Z</time></trkpt><trkpt lat="43.6893173" lon="6.7097833"><ele>793.0</ele><time>2026-04-12T08:13:11.849Z</time></trkpt><trkpt lat="43.68926" lon="6.7097163"><ele>793.0000000000001</ele><time>2026-04-12T08:13:12.876Z</time></trkpt><trkpt lat="43.6892002" lon="6.7096488"><ele>793.0</ele><time>2026-04-12T08:13:13.867Z</time></trkpt><trkpt lat="43.6891408" lon="6.709579"><ele>793.0</ele><time>2026-04-12T08:13:14.836Z</time></trkpt><trkpt lat="43.6890862" lon="6.7095087"><ele>793.0</ele><time>2026-04-12T08:13:15.885Z</time></trkpt><trkpt lat="43.6890274" lon="6.7094457"><ele>793.0</ele><time>2026-04-12T08:13:16.857Z</time></trkpt><trkpt lat="43.6889701" lon="6.7093837"><ele>793.0000000000001</ele><time>2026-04-12T08:13:17.856Z</time></trkpt><trkpt lat="43.6889148" lon="6.7093231"><ele>793.0</ele><time>2026-04-12T08:13:18.847Z</time></trkpt><trkpt lat="43.6888615" lon="6.7092687"><ele>794.6666666666666</ele><time>2026-04-12T08:13:19.898Z</time></trkpt><trkpt lat="43.6888038" lon="6.7092232"><ele>796.3333333333333</ele><time>2026-04-12T08:13:20.828Z</time></trkpt><trkpt lat="43.688738" lon="6.7091804"><ele>798.0</ele><time>2026-04-12T08:13:21.873Z</time></trkpt><trkpt lat="43.6886732" lon="6.709142"><ele>799.6666666666667</ele><time>2026-04-12T08:13:22.846Z</time></trkpt><trkpt lat="43.6886104" lon="6.709105"><ele>801.3333333333334</ele><time>2026-04-12T08:13:23.853Z</time></trkpt><trkpt lat="43.6884918" lon="6.7090341"><ele>803.0</ele><time>2026-04-12T08:13:25.882Z</time></trkpt><trkpt lat="43.688434" lon="6.7089936"><ele>803.0</ele><time>2026-04-12T08:13:26.879Z</time></trkpt><trkpt lat="43.688382" lon="6.7089382"><ele>803.0</ele><time>2026-04-12T08:13:27.862Z</time></trkpt><trkpt lat="43.6882964" lon="6.7088313"><ele>803.0</ele><time>2026-04-12T08:13:29.86Z</time></trkpt><trkpt lat="43.6882159" lon="6.7087184"><ele>803.0</ele><time>2026-04-12T08:13:31.878Z</time></trkpt><trkpt lat="43.6881442" lon="6.7086144"><ele>803.0</ele><time>2026-04-12T08:13:33.863Z</time></trkpt><trkpt lat="43.6880693" lon="6.7085153"><ele>803.4</ele><time>2026-04-12T08:13:35.888Z</time></trkpt><trkpt lat="43.6879964" lon="6.7084221"><ele>803.8</ele><time>2026-04-12T08:13:37.879Z</time></trkpt><trkpt lat="43.6879248" lon="6.7083399"><ele>804.2</ele><time>2026-04-12T08:13:39.901Z</time></trkpt><trkpt lat="43.6878533" lon="6.7082447"><ele>804.6</ele><time>2026-04-12T08:13:41.873Z</time></trkpt><trkpt lat="43.6877898" lon="6.7081515"><ele>805.0</ele><time>2026-04-12T08:13:43.873Z</time></trkpt><trkpt lat="43.6877226" lon="6.7080622"><ele>805.0</ele><time>2026-04-12T08:13:45.874Z</time></trkpt><trkpt lat="43.6876561" lon="6.7079569"><ele>805.0</ele><time>2026-04-12T08:13:47.892Z</time></trkpt><trkpt lat="43.6875844" lon="6.7078671"><ele>805.0</ele><time>2026-04-12T08:13:49.865Z</time></trkpt><trkpt lat="43.6875093" lon="6.7077746"><ele>805.0</ele><time>2026-04-12T08:13:51.856Z</time></trkpt><trkpt lat="43.6874344" lon="6.7076744"><ele>805.0</ele><time>2026-04-12T08:13:53.897Z</time></trkpt><trkpt lat="43.687352" lon="6.7075668"><ele>805.9999999999999</ele><time>2026-04-12T08:13:55.858Z</time></trkpt><trkpt lat="43.6872729" lon="6.7074387"><ele>807.0</ele><time>2026-04-12T08:13:57.861Z</time></trkpt><trkpt lat="43.6872254" lon="6.7073752"><ele>808.0</ele><time>2026-04-12T08:13:58.887Z</time></trkpt><trkpt lat="43.6871788" lon="6.7073116"><ele>809.0</ele><time>2026-04-12T08:13:59.871Z</time></trkpt><trkpt lat="43.687126" lon="6.7072462"><ele>809.9999999999999</ele><time>2026-04-12T08:14:00.884Z</time></trkpt><trkpt lat="43.6870661" lon="6.7071869"><ele>811.0</ele><time>2026-04-12T08:14:01.852Z</time></trkpt><trkpt lat="43.6870098" lon="6.7071287"><ele>811.0</ele><time>2026-04-12T08:14:02.88Z</time></trkpt><trkpt lat="43.6869594" lon="6.7070641"><ele>811.0</ele><time>2026-04-12T08:14:03.878Z</time></trkpt><trkpt lat="43.6869109" lon="6.7069874"><ele>811.0</ele><time>2026-04-12T08:14:04.85Z</time></trkpt><trkpt lat="43.6868726" lon="6.7068964"><ele>811.0</ele><time>2026-04-12T08:14:05.903Z</time></trkpt><trkpt lat="43.6868387" lon="6.7068092"><ele>811.0</ele><time>2026-04-12T08:14:06.852Z</time></trkpt><trkpt lat="43.6868137" lon="6.7067243"><ele>811.0</ele><time>2026-04-12T08:14:07.897Z</time></trkpt><trkpt lat="43.6867942" lon="6.7066304"><ele>811.0</ele><time>2026-04-12T08:14:08.853Z</time></trkpt><trkpt lat="43.6867756" lon="6.7065366"><ele>810.6666666666666</ele><time>2026-04-12T08:14:09.835Z</time></trkpt><trkpt lat="43.6867439" lon="6.7064487"><ele>810.3333333333333</ele><time>2026-04-12T08:14:10.869Z</time></trkpt><trkpt lat="43.6867008" lon="6.706364"><ele>810.0</ele><time>2026-04-12T08:14:11.9Z</time></trkpt><trkpt lat="43.686653" lon="6.7062747"><ele>809.6666666666667</ele><time>2026-04-12T08:14:12.861Z</time></trkpt><trkpt lat="43.6866035" lon="6.7061809"><ele>809.3333333333334</ele><time>2026-04-12T08:14:13.899Z</time></trkpt><trkpt lat="43.6865525" lon="6.7060787"><ele>809.0</ele><time>2026-04-12T08:14:14.866Z</time></trkpt><trkpt lat="43.6864972" lon="6.7059821"><ele>809.0</ele><time>2026-04-12T08:14:15.86Z</time></trkpt><trkpt lat="43.6864408" lon="6.7058802"><ele>809.0</ele><time>2026-04-12T08:14:16.86Z</time></trkpt><trkpt lat="43.6863762" lon="6.7057777"><ele>809.0</ele><time>2026-04-12T08:14:17.87Z</time></trkpt><trkpt lat="43.6863077" lon="6.7056933"><ele>809.0</ele><time>2026-04-12T08:14:18.869Z</time></trkpt><trkpt lat="43.6862328" lon="6.7056022"><ele>809.0</ele><time>2026-04-12T08:14:19.855Z</time></trkpt><trkpt lat="43.6861687" lon="6.7055145"><ele>809.0</ele><time>2026-04-12T08:14:20.857Z</time></trkpt><trkpt lat="43.6861049" lon="6.7054144"><ele>809.0</ele><time>2026-04-12T08:14:21.895Z</time></trkpt><trkpt lat="43.6860551" lon="6.7053013"><ele>809.0</ele><time>2026-04-12T08:14:22.839Z</time></trkpt><trkpt lat="43.6860094" lon="6.7051749"><ele>809.0</ele><time>2026-04-12T08:14:23.837Z</time></trkpt><trkpt lat="43.6859613" lon="6.7050553"><ele>809.0</ele><time>2026-04-12T08:14:24.823Z</time></trkpt><trkpt lat="43.6859173" lon="6.7049332"><ele>807.6</ele><time>2026-04-12T08:14:25.84Z</time></trkpt><trkpt lat="43.6858695" lon="6.7048155"><ele>806.2</ele><time>2026-04-12T08:14:26.827Z</time></trkpt><trkpt lat="43.6858182" lon="6.704675"><ele>804.8000000000001</ele><time>2026-04-12T08:14:27.832Z</time></trkpt><trkpt lat="43.685776" lon="6.7045298"><ele>803.4000000000001</ele><time>2026-04-12T08:14:28.83Z</time></trkpt><trkpt lat="43.6857372" lon="6.7043986"><ele>802.0</ele><time>2026-04-12T08:14:29.841Z</time></trkpt><trkpt lat="43.6856906" lon="6.7042699"><ele>802.0</ele><time>2026-04-12T08:14:30.843Z</time></trkpt><trkpt lat="43.6856301" lon="6.7041447"><ele>802.0</ele><time>2026-04-12T08:14:31.845Z</time></trkpt><trkpt lat="43.6855761" lon="6.7040159"><ele>802.0</ele><time>2026-04-12T08:14:32.822Z</time></trkpt><trkpt lat="43.6855345" lon="6.7038674"><ele>802.0</ele><time>2026-04-12T08:14:33.885Z</time></trkpt><trkpt lat="43.6854774" lon="6.7037279"><ele>802.0</ele><time>2026-04-12T08:14:34.866Z</time></trkpt><trkpt lat="43.6854218" lon="6.7036046"><ele>803.8</ele><time>2026-04-12T08:14:35.872Z</time></trkpt><trkpt lat="43.685365" lon="6.7034931"><ele>805.6</ele><time>2026-04-12T08:14:36.864Z</time></trkpt><trkpt lat="43.6853106" lon="6.7033826"><ele>807.4</ele><time>2026-04-12T08:14:37.865Z</time></trkpt><trkpt lat="43.6852377" lon="6.7032767"><ele>809.1999999999999</ele><time>2026-04-12T08:14:38.878Z</time></trkpt><trkpt lat="43.6851479" lon="6.7031905"><ele>811.0</ele><time>2026-04-12T08:14:39.821Z</time></trkpt><trkpt lat="43.6850526" lon="6.703114"><ele>804.8</ele><time>2026-04-12T08:14:40.877Z</time></trkpt><trkpt lat="43.6849555" lon="6.7030542"><ele>798.5999999999999</ele><time>2026-04-12T08:14:41.864Z</time></trkpt><trkpt lat="43.6848557" lon="6.7029998"><ele>792.4</ele><time>2026-04-12T08:14:42.879Z</time></trkpt><trkpt lat="43.6847651" lon="6.7029189"><ele>786.2</ele><time>2026-04-12T08:14:43.899Z</time></trkpt><trkpt lat="43.6846709" lon="6.7028594"><ele>780.0</ele><time>2026-04-12T08:14:44.851Z</time></trkpt><trkpt lat="43.684588" lon="6.7027847"><ele>778.2</ele><time>2026-04-12T08:14:45.858Z</time></trkpt><trkpt lat="43.6845012" lon="6.7026953"><ele>776.4</ele><time>2026-04-12T08:14:46.856Z</time></trkpt><trkpt lat="43.684422" lon="6.7025923"><ele>774.5999999999999</ele><time>2026-04-12T08:14:47.847Z</time></trkpt><trkpt lat="43.6843547" lon="6.7024812"><ele>772.8</ele><time>2026-04-12T08:14:48.848Z</time></trkpt><trkpt lat="43.6842906" lon="6.7023606"><ele>771.0</ele><time>2026-04-12T08:14:49.843Z</time></trkpt><trkpt lat="43.6842236" lon="6.7022373"><ele>771.0</ele><time>2026-04-12T08:14:50.836Z</time></trkpt><trkpt lat="43.6841455" lon="6.7021105"><ele>771.0</ele><time>2026-04-12T08:14:51.883Z</time></trkpt><trkpt lat="43.684064" lon="6.7019941"><ele>771.0</ele><time>2026-04-12T08:14:52.874Z</time></trkpt><trkpt lat="43.6839764" lon="6.7018771"><ele>771.0</ele><time>2026-04-12T08:14:53.874Z</time></trkpt><trkpt lat="43.6838806" lon="6.7017686"><ele>768.0</ele><time>2026-04-12T08:14:54.833Z</time></trkpt><trkpt lat="43.6837864" lon="6.7016602"><ele>765.0</ele><time>2026-04-12T08:14:55.883Z</time></trkpt><trkpt lat="43.6837014" lon="6.7015518"><ele>762.0</ele><time>2026-04-12T08:14:56.883Z</time></trkpt><trkpt lat="43.6836201" lon="6.7014516"><ele>759.0</ele><time>2026-04-12T08:14:57.862Z</time></trkpt><trkpt lat="43.6835447" lon="6.701346"><ele>759.0</ele><time>2026-04-12T08:14:58.849Z</time></trkpt><trkpt lat="43.6834707" lon="6.7012319"><ele>759.0</ele><time>2026-04-12T08:14:59.845Z</time></trkpt><trkpt lat="43.6834083" lon="6.7010998"><ele>759.0</ele><time>2026-04-12T08:15:00.88Z</time></trkpt><trkpt lat="43.6833599" lon="6.7009562"><ele>759.0</ele><time>2026-04-12T08:15:01.876Z</time></trkpt><trkpt lat="43.6833333" lon="6.7007936"><ele>760.5</ele><time>2026-04-12T08:15:02.857Z</time></trkpt><trkpt lat="43.6833161" lon="6.7006325"><ele>762.0</ele><time>2026-04-12T08:15:03.837Z</time></trkpt><trkpt lat="43.6833065" lon="6.7004629"><ele>763.5</ele><time>2026-04-12T08:15:04.855Z</time></trkpt><trkpt lat="43.6832925" lon="6.7002934"><ele>765.0</ele><time>2026-04-12T08:15:05.881Z</time></trkpt><trkpt lat="43.6832706" lon="6.7001286"><ele>765.0</ele><time>2026-04-12T08:15:06.87Z</time></trkpt><trkpt lat="43.6832579" lon="6.6999683"><ele>765.0</ele><time>2026-04-12T08:15:07.868Z</time></trkpt><trkpt lat="43.6832509" lon="6.6998157"><ele>765.0</ele><time>2026-04-12T08:15:08.892Z</time></trkpt><trkpt lat="43.6832385" lon="6.6996764"><ele>765.0</ele><time>2026-04-12T08:15:09.873Z</time></trkpt><trkpt lat="43.68322" lon="6.699537"><ele>765.0</ele><time>2026-04-12T08:15:10.861Z</time></trkpt><trkpt lat="43.6831903" lon="6.6993899"><ele>764.75</ele><time>2026-04-12T08:15:11.883Z</time></trkpt><trkpt lat="43.6831479" lon="6.6992495"><ele>764.5</ele><time>2026-04-12T08:15:12.871Z</time></trkpt><trkpt lat="43.6830823" lon="6.6991108"><ele>764.25</ele><time>2026-04-12T08:15:13.867Z</time></trkpt><trkpt lat="43.6830018" lon="6.6989934"><ele>764.0</ele><time>2026-04-12T08:15:14.869Z</time></trkpt><trkpt lat="43.6829255" lon="6.698871"><ele>764.0</ele><time>2026-04-12T08:15:15.839Z</time></trkpt><trkpt lat="43.6828517" lon="6.6987548"><ele>764.0</ele><time>2026-04-12T08:15:16.871Z</time></trkpt><trkpt lat="43.6827793" lon="6.6986419"><ele>764.0</ele><time>2026-04-12T08:15:17.888Z</time></trkpt><trkpt lat="43.6827097" lon="6.6985216"><ele>764.0</ele><time>2026-04-12T08:15:18.854Z</time></trkpt><trkpt lat="43.6826394" lon="6.6984003"><ele>764.0</ele><time>2026-04-12T08:15:19.89Z</time></trkpt><trkpt lat="43.6825679" lon="6.6982774"><ele>761.25</ele><time>2026-04-12T08:15:20.875Z</time></trkpt><trkpt lat="43.6824936" lon="6.6981596"><ele>758.5</ele><time>2026-04-12T08:15:21.856Z</time></trkpt><trkpt lat="43.6824122" lon="6.6980482"><ele>755.75</ele><time>2026-04-12T08:15:22.869Z</time></trkpt><trkpt lat="43.6823255" lon="6.6979435"><ele>753.0</ele><time>2026-04-12T08:15:23.867Z</time></trkpt><trkpt lat="43.6822298" lon="6.6978575"><ele>753.0</ele><time>2026-04-12T08:15:24.872Z</time></trkpt><trkpt lat="43.6821261" lon="6.697774"><ele>753.0</ele><time>2026-04-12T08:15:25.893Z</time></trkpt><trkpt lat="43.6820229" lon="6.6976885"><ele>753.0</ele><time>2026-04-12T08:15:26.87Z</time></trkpt><trkpt lat="43.6819169" lon="6.6975972"><ele>753.0</ele><time>2026-04-12T08:15:27.849Z</time></trkpt><trkpt lat="43.6818055" lon="6.6975109"><ele>751.0</ele><time>2026-04-12T08:15:28.838Z</time></trkpt><trkpt lat="43.6816948" lon="6.6974228"><ele>749.0</ele><time>2026-04-12T08:15:29.877Z</time></trkpt><trkpt lat="43.6815855" lon="6.6973331"><ele>747.0</ele><time>2026-04-12T08:15:30.838Z</time></trkpt><trkpt lat="43.6814763" lon="6.6972494"><ele>745.0</ele><time>2026-04-12T08:15:31.829Z</time></trkpt><trkpt lat="43.6813696" lon="6.6971645"><ele>745.0</ele><time>2026-04-12T08:15:32.89Z</time></trkpt><trkpt lat="43.6812649" lon="6.6970837"><ele>745.0</ele><time>2026-04-12T08:15:33.894Z</time></trkpt><trkpt lat="43.6811623" lon="6.6969895"><ele>745.0</ele><time>2026-04-12T08:15:34.867Z</time></trkpt><trkpt lat="43.6810669" lon="6.6969093"><ele>745.0</ele><time>2026-04-12T08:15:35.866Z</time></trkpt><trkpt lat="43.680977" lon="6.6968301"><ele>742.8</ele><time>2026-04-12T08:15:36.854Z</time></trkpt><trkpt lat="43.6808806" lon="6.6967607"><ele>740.6</ele><time>2026-04-12T08:15:37.874Z</time></trkpt><trkpt lat="43.68079" lon="6.6966914"><ele>738.4000000000001</ele><time>2026-04-12T08:15:38.858Z</time></trkpt><trkpt lat="43.6807011" lon="6.6966303"><ele>736.2</ele><time>2026-04-12T08:15:39.865Z</time></trkpt><trkpt lat="43.6806104" lon="6.6965754"><ele>734.0</ele><time>2026-04-12T08:15:40.841Z</time></trkpt><trkpt lat="43.6805115" lon="6.6965609"><ele>734.0</ele><time>2026-04-12T08:15:41.889Z</time></trkpt><trkpt lat="43.6804055" lon="6.6965554"><ele>734.0</ele><time>2026-04-12T08:15:42.888Z</time></trkpt><trkpt lat="43.680304" lon="6.6965738"><ele>734.0</ele><time>2026-04-12T08:15:43.855Z</time></trkpt><trkpt lat="43.680209" lon="6.6966039"><ele>734.0</ele><time>2026-04-12T08:15:44.863Z</time></trkpt><trkpt lat="43.680128" lon="6.6966295"><ele>734.0</ele><time>2026-04-12T08:15:45.828Z</time></trkpt><trkpt lat="43.6800564" lon="6.6966585"><ele>733.0</ele><time>2026-04-12T08:15:46.88Z</time></trkpt><trkpt lat="43.6799866" lon="6.6966801"><ele>732.0</ele><time>2026-04-12T08:15:47.898Z</time></trkpt><trkpt lat="43.6799105" lon="6.6966698"><ele>731.0</ele><time>2026-04-12T08:15:48.856Z</time></trkpt><trkpt lat="43.6798381" lon="6.6966406"><ele>730.0</ele><time>2026-04-12T08:15:49.856Z</time></trkpt><trkpt lat="43.679796" lon="6.6965693"><ele>729.0</ele><time>2026-04-12T08:15:50.867Z</time></trkpt><trkpt lat="43.6797756" lon="6.6964613"><ele>728.0</ele><time>2026-04-12T08:15:51.876Z</time></trkpt><trkpt lat="43.6797819" lon="6.6963589"><ele>727.0</ele><time>2026-04-12T08:15:52.87Z</time></trkpt><trkpt lat="43.6798114" lon="6.6962516"><ele>727.0</ele><time>2026-04-12T08:15:53.868Z</time></trkpt><trkpt lat="43.679871" lon="6.6961676"><ele>727.0</ele><time>2026-04-12T08:15:54.844Z</time></trkpt><trkpt lat="43.6799285" lon="6.6960818"><ele>727.0</ele><time>2026-04-12T08:15:55.874Z</time></trkpt><trkpt lat="43.6799927" lon="6.6960046"><ele>727.0</ele><time>2026-04-12T08:15:56.889Z</time></trkpt><trkpt lat="43.6800656" lon="6.6959263"><ele>727.0</ele><time>2026-04-12T08:15:57.848Z</time></trkpt><trkpt lat="43.6801354" lon="6.6958432"><ele>727.0</ele><time>2026-04-12T08:15:58.883Z</time></trkpt><trkpt lat="43.6802161" lon="6.6957683"><ele>727.0</ele><time>2026-04-12T08:15:59.849Z</time></trkpt><trkpt lat="43.6802974" lon="6.6956926"><ele>727.0</ele><time>2026-04-12T08:16:00.884Z</time></trkpt><trkpt lat="43.6803865" lon="6.6956414"><ele>727.0</ele><time>2026-04-12T08:16:01.884Z</time></trkpt><trkpt lat="43.6804833" lon="6.6956005"><ele>727.0</ele><time>2026-04-12T08:16:02.852Z</time></trkpt><trkpt lat="43.6805812" lon="6.6955548"><ele>727.0</ele><time>2026-04-12T08:16:03.89Z</time></trkpt><trkpt lat="43.68068" lon="6.6954893"><ele>727.0</ele><time>2026-04-12T08:16:04.857Z</time></trkpt><trkpt lat="43.6807682" lon="6.695405"><ele>727.0</ele><time>2026-04-12T08:16:05.869Z</time></trkpt><trkpt lat="43.6808459" lon="6.6953093"><ele>727.0</ele><time>2026-04-12T08:16:06.889Z</time></trkpt><trkpt lat="43.6809193" lon="6.6952131"><ele>727.0</ele><time>2026-04-12T08:16:07.857Z</time></trkpt><trkpt lat="43.6809844" lon="6.6951266"><ele>727.0</ele><time>2026-04-12T08:16:08.871Z</time></trkpt><trkpt lat="43.6810488" lon="6.6950442"><ele>724.8</ele><time>2026-04-12T08:16:09.896Z</time></trkpt><trkpt lat="43.6811169" lon="6.6949754"><ele>722.6</ele><time>2026-04-12T08:16:10.85Z</time></trkpt><trkpt lat="43.6811976" lon="6.6949322"><ele>720.4</ele><time>2026-04-12T08:16:11.87Z</time></trkpt><trkpt lat="43.6812929" lon="6.694924"><ele>718.1999999999999</ele><time>2026-04-12T08:16:12.841Z</time></trkpt><trkpt lat="43.6813866" lon="6.6949496"><ele>716.0</ele><time>2026-04-12T08:16:13.863Z</time></trkpt><trkpt lat="43.6814826" lon="6.6949838"><ele>716.0</ele><time>2026-04-12T08:16:14.88Z</time></trkpt><trkpt lat="43.681564" lon="6.6950374"><ele>716.0</ele><time>2026-04-12T08:16:15.865Z</time></trkpt><trkpt lat="43.681648" lon="6.6950733"><ele>716.0</ele><time>2026-04-12T08:16:16.87Z</time></trkpt><trkpt lat="43.6817248" lon="6.6951102"><ele>716.0</ele><time>2026-04-12T08:16:17.856Z</time></trkpt><trkpt lat="43.6817987" lon="6.69513"><ele>716.0</ele><time>2026-04-12T08:16:18.864Z</time></trkpt><trkpt lat="43.6818723" lon="6.6951348"><ele>716.0</ele><time>2026-04-12T08:16:19.863Z</time></trkpt><trkpt lat="43.6819435" lon="6.6950795"><ele>715.5</ele><time>2026-04-12T08:16:20.869Z</time></trkpt><trkpt lat="43.6820019" lon="6.6949963"><ele>715.0</ele><time>2026-04-12T08:16:21.889Z</time></trkpt><trkpt lat="43.6820435" lon="6.69488"><ele>714.5</ele><time>2026-04-12T08:16:22.87Z</time></trkpt><trkpt lat="43.6820615" lon="6.6947732"><ele>714.0</ele><time>2026-04-12T08:16:23.865Z</time></trkpt><trkpt lat="43.6820841" lon="6.6946554"><ele>713.5</ele><time>2026-04-12T08:16:24.852Z</time></trkpt><trkpt lat="43.682112" lon="6.694526"><ele>713.0</ele><time>2026-04-12T08:16:25.868Z</time></trkpt><trkpt lat="43.6821471" lon="6.6944069"><ele>713.0</ele><time>2026-04-12T08:16:26.884Z</time></trkpt><trkpt lat="43.6821817" lon="6.6942798"><ele>713.0</ele><time>2026-04-12T08:16:27.851Z</time></trkpt><trkpt lat="43.6822244" lon="6.6941438"><ele>713.0</ele><time>2026-04-12T08:16:28.865Z</time></trkpt><trkpt lat="43.6822715" lon="6.6940154"><ele>713.0</ele><time>2026-04-12T08:16:29.858Z</time></trkpt><trkpt lat="43.6823196" lon="6.6938826"><ele>713.0</ele><time>2026-04-12T08:16:30.862Z</time></trkpt><trkpt lat="43.6823777" lon="6.6937658"><ele>713.0</ele><time>2026-04-12T08:16:31.857Z</time></trkpt><trkpt lat="43.6824351" lon="6.6936511"><ele>713.0</ele><time>2026-04-12T08:16:32.821Z</time></trkpt><trkpt lat="43.6825002" lon="6.6935447"><ele>713.0</ele><time>2026-04-12T08:16:33.867Z</time></trkpt><trkpt lat="43.6825787" lon="6.6934576"><ele>713.0</ele><time>2026-04-12T08:16:34.88Z</time></trkpt><trkpt lat="43.68267" lon="6.6933912"><ele>713.0</ele><time>2026-04-12T08:16:35.876Z</time></trkpt><trkpt lat="43.6827732" lon="6.6933383"><ele>712.4</ele><time>2026-04-12T08:16:36.86Z</time></trkpt><trkpt lat="43.6828771" lon="6.6932866"><ele>711.8</ele><time>2026-04-12T08:16:37.839Z</time></trkpt><trkpt lat="43.6829787" lon="6.6932338"><ele>711.2</ele><time>2026-04-12T08:16:38.85Z</time></trkpt><trkpt lat="43.683074" lon="6.6931698"><ele>710.6</ele><time>2026-04-12T08:16:39.873Z</time></trkpt><trkpt lat="43.6831609" lon="6.6930841"><ele>710.0</ele><time>2026-04-12T08:16:40.86Z</time></trkpt><trkpt lat="43.6832399" lon="6.6929794"><ele>710.0</ele><time>2026-04-12T08:16:41.866Z</time></trkpt><trkpt lat="43.6833173" lon="6.6928618"><ele>710.0</ele><time>2026-04-12T08:16:42.828Z</time></trkpt><trkpt lat="43.6833811" lon="6.6927401"><ele>710.0</ele><time>2026-04-12T08:16:43.876Z</time></trkpt><trkpt lat="43.6834405" lon="6.6926311"><ele>710.0</ele><time>2026-04-12T08:16:44.864Z</time></trkpt><trkpt lat="43.6834976" lon="6.6925275"><ele>710.0</ele><time>2026-04-12T08:16:45.873Z</time></trkpt><trkpt lat="43.6835574" lon="6.6924248"><ele>709.1666666666666</ele><time>2026-04-12T08:16:46.864Z</time></trkpt><trkpt lat="43.6836293" lon="6.6923311"><ele>708.3333333333333</ele><time>2026-04-12T08:16:47.86Z</time></trkpt><trkpt lat="43.6836973" lon="6.6922587"><ele>707.5</ele><time>2026-04-12T08:16:48.875Z</time></trkpt><trkpt lat="43.6837713" lon="6.6921961"><ele>706.6666666666666</ele><time>2026-04-12T08:16:49.874Z</time></trkpt><trkpt lat="43.6838387" lon="6.6921345"><ele>705.8333333333334</ele><time>2026-04-12T08:16:50.848Z</time></trkpt><trkpt lat="43.6838956" lon="6.6920608"><ele>705.0</ele><time>2026-04-12T08:16:51.848Z</time></trkpt><trkpt lat="43.6839276" lon="6.6919613"><ele>703.2857142857142</ele><time>2026-04-12T08:16:52.837Z</time></trkpt><trkpt lat="43.6839224" lon="6.6918671"><ele>701.5714285714286</ele><time>2026-04-12T08:16:53.866Z</time></trkpt><trkpt lat="43.683888" lon="6.6917911"><ele>699.8571428571429</ele><time>2026-04-12T08:16:54.849Z</time></trkpt><trkpt lat="43.6838375" lon="6.6917194"><ele>698.1428571428571</ele><time>2026-04-12T08:16:55.837Z</time></trkpt><trkpt lat="43.6837907" lon="6.6916497"><ele>696.4285714285714</ele><time>2026-04-12T08:16:56.862Z</time></trkpt><trkpt lat="43.6837411" lon="6.6915784"><ele>694.7142857142857</ele><time>2026-04-12T08:16:57.866Z</time></trkpt><trkpt lat="43.6836789" lon="6.6915192"><ele>693.0</ele><time>2026-04-12T08:16:58.861Z</time></trkpt><trkpt lat="43.6836142" lon="6.6914971"><ele>692.8333333333334</ele><time>2026-04-12T08:16:59.851Z</time></trkpt><trkpt lat="43.6835455" lon="6.6914898"><ele>692.6666666666666</ele><time>2026-04-12T08:17:00.87Z</time></trkpt><trkpt lat="43.6834802" lon="6.6914885"><ele>692.5</ele><time>2026-04-12T08:17:01.857Z</time></trkpt><trkpt lat="43.6834157" lon="6.6914932"><ele>692.3333333333333</ele><time>2026-04-12T08:17:02.88Z</time></trkpt><trkpt lat="43.683308" lon="6.6915225"><ele>692.1666666666666</ele><time>2026-04-12T08:17:04.864Z</time></trkpt><trkpt lat="43.6832055" lon="6.6915551"><ele>692.0</ele><time>2026-04-12T08:17:06.874Z</time></trkpt><trkpt lat="43.6831204" lon="6.6915756"><ele>692.0</ele><time>2026-04-12T08:17:08.867Z</time></trkpt><trkpt lat="43.6830487" lon="6.6915951"><ele>692.0</ele><time>2026-04-12T08:17:10.865Z</time></trkpt><trkpt lat="43.6829804" lon="6.6916113"><ele>692.0</ele><time>2026-04-12T08:17:12.866Z</time></trkpt><trkpt lat="43.6829106" lon="6.6915959"><ele>692.0</ele><time>2026-04-12T08:17:14.874Z</time></trkpt><trkpt lat="43.6828493" lon="6.691566"><ele>692.0</ele><time>2026-04-12T08:17:16.86Z</time></trkpt><trkpt lat="43.6827876" lon="6.691526"><ele>692.0</ele><time>2026-04-12T08:17:18.867Z</time></trkpt><trkpt lat="43.6827357" lon="6.6914513"><ele>692.0</ele><time>2026-04-12T08:17:20.864Z</time></trkpt><trkpt lat="43.6826963" lon="6.6913834"><ele>691.0</ele><time>2026-04-12T08:17:22.855Z</time></trkpt><trkpt lat="43.6826527" lon="6.6913201"><ele>690.0</ele><time>2026-04-12T08:17:24.86Z</time></trkpt><trkpt lat="43.682573" lon="6.6912512"><ele>689.0</ele><time>2026-04-12T08:17:27.869Z</time></trkpt><trkpt lat="43.6825272" lon="6.6911845"><ele>688.0</ele><time>2026-04-12T08:17:29.862Z</time></trkpt><trkpt lat="43.6824779" lon="6.6911246"><ele>687.0</ele><time>2026-04-12T08:17:31.854Z</time></trkpt><trkpt lat="43.6824072" lon="6.6910521"><ele>686.0</ele><time>2026-04-12T08:17:34.853Z</time></trkpt><trkpt lat="43.6823272" lon="6.6910044"><ele>690.5</ele><time>2026-04-12T08:17:37.843Z</time></trkpt><trkpt lat="43.682247" lon="6.6909525"><ele>695.0</ele><time>2026-04-12T08:17:40.875Z</time></trkpt><trkpt lat="43.6821734" lon="6.6908985"><ele>699.5</ele><time>2026-04-12T08:17:43.876Z</time></trkpt><trkpt lat="43.6820858" lon="6.6908742"><ele>704.0</ele><time>2026-04-12T08:17:46.868Z</time></trkpt><trkpt lat="43.6820027" lon="6.69086"><ele>708.5</ele><time>2026-04-12T08:17:49.857Z</time></trkpt><trkpt lat="43.6819247" lon="6.6908462"><ele>713.0</ele><time>2026-04-12T08:17:52.86Z</time></trkpt><trkpt lat="43.6818537" lon="6.6908389"><ele>713.0</ele><time>2026-04-12T08:17:54.868Z</time></trkpt><trkpt lat="43.6817703" lon="6.690827"><ele>713.0</ele><time>2026-04-12T08:17:57.846Z</time></trkpt><trkpt lat="43.6816863" lon="6.6908284"><ele>713.0</ele><time>2026-04-12T08:18:00.846Z</time></trkpt><trkpt lat="43.6816095" lon="6.6908218"><ele>713.0</ele><time>2026-04-12T08:18:03.854Z</time></trkpt><trkpt lat="43.6815206" lon="6.6908325"><ele>713.0</ele><time>2026-04-12T08:18:06.874Z</time></trkpt><trkpt lat="43.681443" lon="6.6908409"><ele>713.0</ele><time>2026-04-12T08:18:09.865Z</time></trkpt><trkpt lat="43.6813589" lon="6.6908729"><ele>713.0</ele><time>2026-04-12T08:18:12.87Z</time></trkpt><trkpt lat="43.681289" lon="6.690884"><ele>713.0</ele><time>2026-04-12T08:18:15.87Z</time></trkpt><trkpt lat="43.6812037" lon="6.690909"><ele>713.0</ele><time>2026-04-12T08:18:18.866Z</time></trkpt><trkpt lat="43.6811383" lon="6.6909405"><ele>713.0</ele><time>2026-04-12T08:18:21.868Z</time></trkpt><trkpt lat="43.6810676" lon="6.6909799"><ele>713.0</ele><time>2026-04-12T08:18:24.85Z</time></trkpt><trkpt lat="43.6810038" lon="6.6910387"><ele>713.0</ele><time>2026-04-12T08:18:27.862Z</time></trkpt><trkpt lat="43.680942" lon="6.6911106"><ele>711.1666666666666</ele><time>2026-04-12T08:18:30.835Z</time></trkpt><trkpt lat="43.6808868" lon="6.6911948"><ele>709.3333333333333</ele><time>2026-04-12T08:18:34.854Z</time></trkpt><trkpt lat="43.6808342" lon="6.6912693"><ele>707.5</ele><time>2026-04-12T08:18:37.848Z</time></trkpt><trkpt lat="43.6807598" lon="6.691317"><ele>705.6666666666666</ele><time>2026-04-12T08:18:40.857Z</time></trkpt><trkpt lat="43.6806931" lon="6.6913601"><ele>703.8333333333334</ele><time>2026-04-12T08:18:43.855Z</time></trkpt><trkpt lat="43.680631" lon="6.691384"><ele>702.0</ele><time>2026-04-12T08:18:46.846Z</time></trkpt><trkpt lat="43.6805545" lon="6.6914192"><ele>702.0</ele><time>2026-04-12T08:18:50.839Z</time></trkpt><trkpt lat="43.6804776" lon="6.6914274"><ele>702.0</ele><time>2026-04-12T08:18:54.868Z</time></trkpt><trkpt lat="43.6804056" lon="6.6914396"><ele>702.0</ele><time>2026-04-12T08:18:57.847Z</time></trkpt><trkpt lat="43.6803423" lon="6.6914465"><ele>702.0</ele><time>2026-04-12T08:19:00.862Z</time></trkpt><trkpt lat="43.680265" lon="6.6914559"><ele>702.0</ele><time>2026-04-12T08:19:03.873Z</time></trkpt><trkpt lat="43.6801796" lon="6.6914505"><ele>702.0</ele><time>2026-04-12T08:19:06.869Z</time></trkpt><trkpt lat="43.680101" lon="6.6914504"><ele>704.6666666666666</ele><time>2026-04-12T08:19:09.826Z</time></trkpt><trkpt lat="43.6800228" lon="6.6914511"><ele>707.3333333333334</ele><time>2026-04-12T08:19:12.853Z</time></trkpt><trkpt lat="43.679936" lon="6.6914404"><ele>710.0</ele><time>2026-04-12T08:19:15.874Z</time></trkpt><trkpt lat="43.6798631" lon="6.6914366"><ele>712.6666666666667</ele><time>2026-04-12T08:19:18.859Z</time></trkpt><trkpt lat="43.6797837" lon="6.6914202"><ele>715.3333333333334</ele><time>2026-04-12T08:19:22.852Z</time></trkpt><trkpt lat="43.6797045" lon="6.6914067"><ele>718.0</ele><time>2026-04-12T08:19:25.856Z</time></trkpt><trkpt lat="43.679616" lon="6.6913906"><ele>718.0</ele><time>2026-04-12T08:19:28.865Z</time></trkpt><trkpt lat="43.6795317" lon="6.6913645"><ele>718.0</ele><time>2026-04-12T08:19:31.87Z</time></trkpt><trkpt lat="43.6794507" lon="6.6913351"><ele>718.0</ele><time>2026-04-12T08:19:34.864Z</time></trkpt><trkpt lat="43.6793675" lon="6.691288"><ele>718.0</ele><time>2026-04-12T08:19:37.864Z</time></trkpt><trkpt lat="43.6792894" lon="6.6912358"><ele>718.0</ele><time>2026-04-12T08:19:40.862Z</time></trkpt><trkpt lat="43.6792209" lon="6.69117"><ele>718.0</ele><time>2026-04-12T08:19:43.849Z</time></trkpt><trkpt lat="43.6791568" lon="6.6910822"><ele>720.0</ele><time>2026-04-12T08:19:46.855Z</time></trkpt><trkpt lat="43.6791082" lon="6.6909793"><ele>722.0</ele><time>2026-04-12T08:19:49.852Z</time></trkpt><trkpt lat="43.6790746" lon="6.6908601"><ele>724.0</ele><time>2026-04-12T08:19:52.862Z</time></trkpt><trkpt lat="43.6790608" lon="6.6907731"><ele>726.0</ele><time>2026-04-12T08:19:54.868Z</time></trkpt><trkpt lat="43.6790289" lon="6.6906842"><ele>728.0</ele><time>2026-04-12T08:19:57.826Z</time></trkpt><trkpt lat="43.6790233" lon="6.6905809"><ele>730.0</ele><time>2026-04-12T08:20:00.836Z</time></trkpt><trkpt lat="43.6790464" lon="6.6904608"><ele>730.0</ele><time>2026-04-12T08:20:03.867Z</time></trkpt><trkpt lat="43.6790797" lon="6.6903481"><ele>730.0</ele><time>2026-04-12T08:20:06.854Z</time></trkpt><trkpt lat="43.6791185" lon="6.6902318"><ele>730.0</ele><time>2026-04-12T08:20:09.875Z</time></trkpt><trkpt lat="43.6791385" lon="6.6901465"><ele>730.0</ele><time>2026-04-12T08:20:11.854Z</time></trkpt><trkpt lat="43.6791422" lon="6.6900315"><ele>730.0</ele><time>2026-04-12T08:20:14.857Z</time></trkpt><trkpt lat="43.6791182" lon="6.6899271"><ele>730.0</ele><time>2026-04-12T08:20:17.857Z</time></trkpt><trkpt lat="43.6790945" lon="6.6898424"><ele>730.3333333333334</ele><time>2026-04-12T08:20:19.879Z</time></trkpt><trkpt lat="43.6790406" lon="6.6897464"><ele>730.6666666666667</ele><time>2026-04-12T08:20:22.878Z</time></trkpt><trkpt lat="43.6789808" lon="6.6896541"><ele>731.0</ele><time>2026-04-12T08:20:25.826Z</time></trkpt><trkpt lat="43.6789101" lon="6.6895588"><ele>731.3333333333334</ele><time>2026-04-12T08:20:28.863Z</time></trkpt><trkpt lat="43.6788625" lon="6.6894899"><ele>731.6666666666666</ele><time>2026-04-12T08:20:30.833Z</time></trkpt><trkpt lat="43.6788166" lon="6.6894181"><ele>732.0</ele><time>2026-04-12T08:20:32.853Z</time></trkpt><trkpt lat="43.6787692" lon="6.6893459"><ele>733.1666666666666</ele><time>2026-04-12T08:20:34.866Z</time></trkpt><trkpt lat="43.6787237" lon="6.689279"><ele>734.3333333333334</ele><time>2026-04-12T08:20:36.884Z</time></trkpt><trkpt lat="43.6786699" lon="6.6891921"><ele>735.5</ele><time>2026-04-12T08:20:38.857Z</time></trkpt><trkpt lat="43.6786169" lon="6.6891097"><ele>736.6666666666667</ele><time>2026-04-12T08:20:40.874Z</time></trkpt><trkpt lat="43.6785566" lon="6.6890155"><ele>737.8333333333334</ele><time>2026-04-12T08:20:42.855Z</time></trkpt><trkpt lat="43.6784977" lon="6.6889306"><ele>739.0</ele><time>2026-04-12T08:20:44.839Z</time></trkpt><trkpt lat="43.6784352" lon="6.6888441"><ele>737.5</ele><time>2026-04-12T08:20:46.852Z</time></trkpt><trkpt lat="43.6783847" lon="6.6887518"><ele>736.0</ele><time>2026-04-12T08:20:48.852Z</time></trkpt><trkpt lat="43.6783299" lon="6.6886756"><ele>734.5</ele><time>2026-04-12T08:20:50.829Z</time></trkpt><trkpt lat="43.6782922" lon="6.6885686"><ele>733.0</ele><time>2026-04-12T08:20:52.853Z</time></trkpt><trkpt lat="43.6782654" lon="6.6884347"><ele>731.5</ele><time>2026-04-12T08:20:54.859Z</time></trkpt><trkpt lat="43.6782629" lon="6.6883122"><ele>730.0</ele><time>2026-04-12T08:20:56.846Z</time></trkpt><trkpt lat="43.6782649" lon="6.6881882"><ele>730.0</ele><time>2026-04-12T08:20:58.852Z</time></trkpt><trkpt lat="43.6782737" lon="6.6880718"><ele>730.0</ele><time>2026-04-12T08:21:00.851Z</time></trkpt><trkpt lat="43.6782807" lon="6.6879398"><ele>730.0</ele><time>2026-04-12T08:21:02.852Z</time></trkpt><trkpt lat="43.6782873" lon="6.6878138"><ele>730.0</ele><time>2026-04-12T08:21:04.897Z</time></trkpt><trkpt lat="43.6783022" lon="6.687678"><ele>730.0</ele><time>2026-04-12T08:21:06.868Z</time></trkpt><trkpt lat="43.6783122" lon="6.6875318"><ele>729.8</ele><time>2026-04-12T08:21:08.871Z</time></trkpt><trkpt lat="43.6783276" lon="6.6873797"><ele>729.6</ele><time>2026-04-12T08:21:10.865Z</time></trkpt><trkpt lat="43.6783383" lon="6.6872298"><ele>729.4000000000001</ele><time>2026-04-12T08:21:12.866Z</time></trkpt><trkpt lat="43.6783521" lon="6.6870906"><ele>729.2</ele><time>2026-04-12T08:21:14.851Z</time></trkpt><trkpt lat="43.6783709" lon="6.6869444"><ele>729.0</ele><time>2026-04-12T08:21:16.911Z</time></trkpt><trkpt lat="43.6784205" lon="6.6868128"><ele>729.0</ele><time>2026-04-12T08:21:18.849Z</time></trkpt><trkpt lat="43.6784774" lon="6.6866799"><ele>729.0</ele><time>2026-04-12T08:21:20.869Z</time></trkpt><trkpt lat="43.6785476" lon="6.686555"><ele>729.0</ele><time>2026-04-12T08:21:22.847Z</time></trkpt><trkpt lat="43.6786141" lon="6.6864328"><ele>729.0</ele><time>2026-04-12T08:21:24.856Z</time></trkpt><trkpt lat="43.6786806" lon="6.6862945"><ele>731.0</ele><time>2026-04-12T08:21:26.842Z</time></trkpt><trkpt lat="43.6787301" lon="6.6861439"><ele>733.0</ele><time>2026-04-12T08:21:28.895Z</time></trkpt><trkpt lat="43.6787483" lon="6.6860591"><ele>735.0</ele><time>2026-04-12T08:21:29.857Z</time></trkpt><trkpt lat="43.6787554" lon="6.6858898"><ele>737.0</ele><time>2026-04-12T08:21:31.864Z</time></trkpt><trkpt lat="43.6787415" lon="6.6857425"><ele>739.0</ele><time>2026-04-12T08:21:33.849Z</time></trkpt><trkpt lat="43.6787268" lon="6.6856053"><ele>739.0</ele><time>2026-04-12T08:21:35.846Z</time></trkpt><trkpt lat="43.6787146" lon="6.6854739"><ele>739.0</ele><time>2026-04-12T08:21:37.848Z</time></trkpt><trkpt lat="43.6786974" lon="6.6853443"><ele>739.0</ele><time>2026-04-12T08:21:39.879Z</time></trkpt><trkpt lat="43.6786792" lon="6.6851995"><ele>739.0</ele><time>2026-04-12T08:21:41.878Z</time></trkpt><trkpt lat="43.6786558" lon="6.6850395"><ele>739.0</ele><time>2026-04-12T08:21:43.857Z</time></trkpt><trkpt lat="43.6786426" lon="6.684895"><ele>739.0</ele><time>2026-04-12T08:21:45.854Z</time></trkpt><trkpt lat="43.6786234" lon="6.6847603"><ele>739.0</ele><time>2026-04-12T08:21:47.861Z</time></trkpt><trkpt lat="43.6785999" lon="6.6846241"><ele>739.0</ele><time>2026-04-12T08:21:49.856Z</time></trkpt><trkpt lat="43.6785796" lon="6.6844829"><ele>739.0</ele><time>2026-04-12T08:21:51.891Z</time></trkpt><trkpt lat="43.6785639" lon="6.6843452"><ele>739.0</ele><time>2026-04-12T08:21:53.849Z</time></trkpt><trkpt lat="43.6785448" lon="6.684207"><ele>737.2</ele><time>2026-04-12T08:21:55.888Z</time></trkpt><trkpt lat="43.6785322" lon="6.6840707"><ele>735.4000000000001</ele><time>2026-04-12T08:21:57.89Z</time></trkpt><trkpt lat="43.6785238" lon="6.683947"><ele>733.6</ele><time>2026-04-12T08:21:59.896Z</time></trkpt><trkpt lat="43.67851" lon="6.6838157"><ele>731.8</ele><time>2026-04-12T08:22:01.834Z</time></trkpt><trkpt lat="43.6784968" lon="6.6836861"><ele>730.0</ele><time>2026-04-12T08:22:03.861Z</time></trkpt><trkpt lat="43.6784803" lon="6.6835523"><ele>730.0</ele><time>2026-04-12T08:22:05.875Z</time></trkpt><trkpt lat="43.6784633" lon="6.6834079"><ele>730.0</ele><time>2026-04-12T08:22:07.873Z</time></trkpt><trkpt lat="43.6784525" lon="6.6832644"><ele>730.0</ele><time>2026-04-12T08:22:09.841Z</time></trkpt><trkpt lat="43.6784281" lon="6.6831306"><ele>730.0</ele><time>2026-04-12T08:22:11.873Z</time></trkpt><trkpt lat="43.6784074" lon="6.6829935"><ele>730.0</ele><time>2026-04-12T08:22:13.825Z</time></trkpt><trkpt lat="43.678386" lon="6.6828642"><ele>730.1666666666667</ele><time>2026-04-12T08:22:15.853Z</time></trkpt><trkpt lat="43.6783729" lon="6.6827485"><ele>730.3333333333334</ele><time>2026-04-12T08:22:17.883Z</time></trkpt><trkpt lat="43.6783563" lon="6.6826336"><ele>730.5</ele><time>2026-04-12T08:22:19.844Z</time></trkpt><trkpt lat="43.678317" lon="6.6825133"><ele>730.6666666666666</ele><time>2026-04-12T08:22:21.831Z</time></trkpt><trkpt lat="43.6782769" lon="6.6824042"><ele>730.8333333333333</ele><time>2026-04-12T08:22:23.852Z</time></trkpt><trkpt lat="43.6782303" lon="6.6823055"><ele>731.0</ele><time>2026-04-12T08:22:25.882Z</time></trkpt><trkpt lat="43.6781686" lon="6.6822167"><ele>731.0</ele><time>2026-04-12T08:22:27.866Z</time></trkpt><trkpt lat="43.678107" lon="6.6821241"><ele>731.0</ele><time>2026-04-12T08:22:29.851Z</time></trkpt><trkpt lat="43.678054" lon="6.6820562"><ele>731.0</ele><time>2026-04-12T08:22:31.864Z</time></trkpt><trkpt lat="43.6780074" lon="6.6819961"><ele>731.0</ele><time>2026-04-12T08:22:36.849Z</time></trkpt><trkpt lat="43.6780331" lon="6.6819024"><ele>731.0</ele><time>2026-04-12T08:22:54.855Z</time></trkpt><trkpt lat="43.6780679" lon="6.6818177"><ele>731.0</ele><time>2026-04-12T08:23:03.864Z</time></trkpt><trkpt lat="43.6780087" lon="6.6818483"><ele>731.0</ele><time>2026-04-12T08:23:28.846Z</time></trkpt><trkpt lat="43.6780641" lon="6.6818057"><ele>731.5999999999999</ele><time>2026-04-12T08:26:02.867Z</time></trkpt><trkpt lat="43.6779779" lon="6.6818287"><ele>732.2</ele><time>2026-04-12T08:28:01.839Z</time></trkpt><trkpt lat="43.6779113" lon="6.6818425"><ele>732.8</ele><time>2026-04-12T08:28:07.845Z</time></trkpt><trkpt lat="43.6780064" lon="6.6818987"><ele>733.4000000000001</ele><time>2026-04-12T08:28:17.879Z</time></trkpt><trkpt lat="43.6778622" lon="6.6818073"><ele>734.0</ele><time>2026-04-12T08:28:21.879Z</time></trkpt><trkpt lat="43.6778008" lon="6.6817677"><ele>733.4000000000001</ele><time>2026-04-12T08:28:24.835Z</time></trkpt><trkpt lat="43.6777462" lon="6.6817119"><ele>732.8</ele><time>2026-04-12T08:28:26.88Z</time></trkpt><trkpt lat="43.6776534" lon="6.6815439"><ele>732.2</ele><time>2026-04-12T08:28:28.877Z</time></trkpt><trkpt lat="43.6775869" lon="6.6814595"><ele>731.5999999999999</ele><time>2026-04-12T08:28:30.863Z</time></trkpt><trkpt lat="43.6775135" lon="6.68138"><ele>731.0</ele><time>2026-04-12T08:28:32.874Z</time></trkpt><trkpt lat="43.677441" lon="6.6812775"><ele>731.0</ele><time>2026-04-12T08:28:34.827Z</time></trkpt><trkpt lat="43.6773621" lon="6.681175"><ele>731.0</ele><time>2026-04-12T08:28:36.881Z</time></trkpt><trkpt lat="43.6772895" lon="6.6810656"><ele>731.0</ele><time>2026-04-12T08:28:38.889Z</time></trkpt><trkpt lat="43.6772127" lon="6.6809671"><ele>731.0</ele><time>2026-04-12T08:28:40.881Z</time></trkpt><trkpt lat="43.6771438" lon="6.6808772"><ele>731.0</ele><time>2026-04-12T08:28:42.864Z</time></trkpt><trkpt lat="43.6770715" lon="6.6807791"><ele>731.0</ele><time>2026-04-12T08:28:44.887Z</time></trkpt><trkpt lat="43.6769907" lon="6.68069"><ele>731.0</ele><time>2026-04-12T08:28:46.888Z</time></trkpt><trkpt lat="43.6769068" lon="6.6805849"><ele>731.0</ele><time>2026-04-12T08:28:48.889Z</time></trkpt><trkpt lat="43.6768128" lon="6.680486"><ele>731.0</ele><time>2026-04-12T08:28:50.887Z</time></trkpt><trkpt lat="43.6767605" lon="6.6804337"><ele>731.0</ele><time>2026-04-12T08:28:51.887Z</time></trkpt><trkpt lat="43.6766468" lon="6.6803504"><ele>731.0</ele><time>2026-04-12T08:28:53.889Z</time></trkpt><trkpt lat="43.6765864" lon="6.6803074"><ele>731.0</ele><time>2026-04-12T08:28:54.848Z</time></trkpt><trkpt lat="43.6765287" lon="6.6802663"><ele>731.0</ele><time>2026-04-12T08:28:55.881Z</time></trkpt><trkpt lat="43.6764678" lon="6.680223"><ele>731.0</ele><time>2026-04-12T08:28:56.874Z</time></trkpt><trkpt lat="43.6764095" lon="6.6801825"><ele>731.0</ele><time>2026-04-12T08:28:57.9Z</time></trkpt><trkpt lat="43.6763513" lon="6.6801433"><ele>731.0</ele><time>2026-04-12T08:28:58.868Z</time></trkpt><trkpt lat="43.6762393" lon="6.6800672"><ele>731.6666666666666</ele><time>2026-04-12T08:29:00.859Z</time></trkpt><trkpt lat="43.6761801" lon="6.6800217"><ele>732.3333333333333</ele><time>2026-04-12T08:29:01.898Z</time></trkpt><trkpt lat="43.6761173" lon="6.6799825"><ele>733.0</ele><time>2026-04-12T08:29:02.865Z</time></trkpt><trkpt lat="43.676053" lon="6.6799478"><ele>733.6666666666666</ele><time>2026-04-12T08:29:03.888Z</time></trkpt><trkpt lat="43.6759334" lon="6.6798981"><ele>734.3333333333334</ele><time>2026-04-12T08:29:05.9Z</time></trkpt><trkpt lat="43.6758704" lon="6.6798825"><ele>735.0</ele><time>2026-04-12T08:29:06.855Z</time></trkpt><trkpt lat="43.6758013" lon="6.679882"><ele>735.0</ele><time>2026-04-12T08:29:07.828Z</time></trkpt><trkpt lat="43.6757377" lon="6.6798805"><ele>735.0</ele><time>2026-04-12T08:29:08.871Z</time></trkpt><trkpt lat="43.6756195" lon="6.6798727"><ele>735.0</ele><time>2026-04-12T08:29:10.871Z</time></trkpt><trkpt lat="43.6755233" lon="6.6798665"><ele>735.0</ele><time>2026-04-12T08:29:12.869Z</time></trkpt><trkpt lat="43.6754465" lon="6.6798471"><ele>735.0</ele><time>2026-04-12T08:29:14.861Z</time></trkpt><trkpt lat="43.67536" lon="6.6798433"><ele>735.0</ele><time>2026-04-12T08:29:16.871Z</time></trkpt><trkpt lat="43.6752715" lon="6.6798384"><ele>735.8333333333334</ele><time>2026-04-12T08:29:18.879Z</time></trkpt><trkpt lat="43.6751876" lon="6.6798295"><ele>736.6666666666666</ele><time>2026-04-12T08:29:20.84Z</time></trkpt><trkpt lat="43.6751057" lon="6.6797976"><ele>737.5</ele><time>2026-04-12T08:29:22.875Z</time></trkpt><trkpt lat="43.6750316" lon="6.6797476"><ele>738.3333333333333</ele><time>2026-04-12T08:29:24.857Z</time></trkpt><trkpt lat="43.6749674" lon="6.6796797"><ele>739.1666666666666</ele><time>2026-04-12T08:29:26.864Z</time></trkpt><trkpt lat="43.6749129" lon="6.6796168"><ele>740.0</ele><time>2026-04-12T08:29:28.86Z</time></trkpt><trkpt lat="43.6748636" lon="6.6795557"><ele>740.0</ele><time>2026-04-12T08:29:30.87Z</time></trkpt><trkpt lat="43.6747875" lon="6.6794799"><ele>740.0</ele><time>2026-04-12T08:29:33.866Z</time></trkpt><trkpt lat="43.6747339" lon="6.6794228"><ele>740.0</ele><time>2026-04-12T08:29:35.851Z</time></trkpt><trkpt lat="43.6746709" lon="6.6793495"><ele>740.0</ele><time>2026-04-12T08:29:37.897Z</time></trkpt><trkpt lat="43.6746097" lon="6.6792788"><ele>740.0</ele><time>2026-04-12T08:29:39.892Z</time></trkpt><trkpt lat="43.6745575" lon="6.6792248"><ele>740.0</ele><time>2026-04-12T08:29:41.874Z</time></trkpt><trkpt lat="43.6745001" lon="6.6791593"><ele>740.1428571428571</ele><time>2026-04-12T08:29:43.859Z</time></trkpt><trkpt lat="43.67445" lon="6.6791039"><ele>740.2857142857142</ele><time>2026-04-12T08:29:45.867Z</time></trkpt><trkpt lat="43.6743961" lon="6.6790397"><ele>740.4285714285713</ele><time>2026-04-12T08:29:47.872Z</time></trkpt><trkpt lat="43.6743435" lon="6.6789679"><ele>740.5714285714286</ele><time>2026-04-12T08:29:49.871Z</time></trkpt><trkpt lat="43.6742917" lon="6.6789035"><ele>740.7142857142858</ele><time>2026-04-12T08:29:51.857Z</time></trkpt><trkpt lat="43.6742419" lon="6.6788462"><ele>740.8571428571428</ele><time>2026-04-12T08:29:53.877Z</time></trkpt><trkpt lat="43.6741882" lon="6.6787856"><ele>741.0</ele><time>2026-04-12T08:29:55.883Z</time></trkpt><trkpt lat="43.6741328" lon="6.6787304"><ele>741.7142857142857</ele><time>2026-04-12T08:29:57.889Z</time></trkpt><trkpt lat="43.6740823" lon="6.6786709"><ele>742.4285714285714</ele><time>2026-04-12T08:29:59.888Z</time></trkpt><trkpt lat="43.6740344" lon="6.6786109"><ele>743.1428571428571</ele><time>2026-04-12T08:30:01.876Z</time></trkpt><trkpt lat="43.6739838" lon="6.6785504"><ele>743.8571428571429</ele><time>2026-04-12T08:30:03.871Z</time></trkpt><trkpt lat="43.6739308" lon="6.6784849"><ele>744.5714285714287</ele><time>2026-04-12T08:30:05.886Z</time></trkpt><trkpt lat="43.6738622" lon="6.678407"><ele>745.2857142857143</ele><time>2026-04-12T08:30:08.871Z</time></trkpt><trkpt lat="43.6738006" lon="6.678339"><ele>746.0</ele><time>2026-04-12T08:30:11.879Z</time></trkpt><trkpt lat="43.673741" lon="6.6782571"><ele>746.3333333333333</ele><time>2026-04-12T08:30:14.865Z</time></trkpt><trkpt lat="43.6736659" lon="6.6781695"><ele>746.6666666666666</ele><time>2026-04-12T08:30:17.873Z</time></trkpt><trkpt lat="43.6735966" lon="6.678089"><ele>747.0</ele><time>2026-04-12T08:30:20.885Z</time></trkpt><trkpt lat="43.6735445" lon="6.6780368"><ele>747.3333333333334</ele><time>2026-04-12T08:30:22.877Z</time></trkpt><trkpt lat="43.6734777" lon="6.6779555"><ele>747.6666666666667</ele><time>2026-04-12T08:30:25.868Z</time></trkpt><trkpt lat="43.6734071" lon="6.6778747"><ele>748.0</ele><time>2026-04-12T08:30:28.864Z</time></trkpt><trkpt lat="43.6733396" lon="6.6778032"><ele>749.1666666666667</ele><time>2026-04-12T08:30:31.865Z</time></trkpt><trkpt lat="43.6732734" lon="6.6777293"><ele>750.3333333333334</ele><time>2026-04-12T08:30:34.858Z</time></trkpt><trkpt lat="43.6732121" lon="6.677656"><ele>751.5</ele><time>2026-04-12T08:30:37.889Z</time></trkpt><trkpt lat="43.6731518" lon="6.6775829"><ele>752.6666666666666</ele><time>2026-04-12T08:30:40.848Z</time></trkpt><trkpt lat="43.6730868" lon="6.6775112"><ele>753.8333333333333</ele><time>2026-04-12T08:30:43.905Z</time></trkpt><trkpt lat="43.6730317" lon="6.6774426"><ele>755.0</ele><time>2026-04-12T08:30:46.874Z</time></trkpt><trkpt lat="43.6729664" lon="6.6773578"><ele>755.0</ele><time>2026-04-12T08:30:49.887Z</time></trkpt><trkpt lat="43.6728989" lon="6.6772702"><ele>755.0</ele><time>2026-04-12T08:30:52.89Z</time></trkpt><trkpt lat="43.6728255" lon="6.677193"><ele>755.0</ele><time>2026-04-12T08:30:55.854Z</time></trkpt><trkpt lat="43.6727522" lon="6.6771358"><ele>755.0</ele><time>2026-04-12T08:30:58.866Z</time></trkpt><trkpt lat="43.6726706" lon="6.6771007"><ele>755.0</ele><time>2026-04-12T08:31:01.864Z</time></trkpt><trkpt lat="43.6726084" lon="6.6770856"><ele>755.0</ele><time>2026-04-12T08:31:03.855Z</time></trkpt><trkpt lat="43.6725203" lon="6.6770774"><ele>756.1666666666666</ele><time>2026-04-12T08:31:06.873Z</time></trkpt><trkpt lat="43.6724394" lon="6.6770878"><ele>757.3333333333333</ele><time>2026-04-12T08:31:09.897Z</time></trkpt><trkpt lat="43.6723513" lon="6.6771248"><ele>758.5</ele><time>2026-04-12T08:31:12.868Z</time></trkpt><trkpt lat="43.6722791" lon="6.6771752"><ele>759.6666666666666</ele><time>2026-04-12T08:31:15.867Z</time></trkpt><trkpt lat="43.6722158" lon="6.6772314"><ele>760.8333333333334</ele><time>2026-04-12T08:31:18.882Z</time></trkpt><trkpt lat="43.6721535" lon="6.6772764"><ele>762.0</ele><time>2026-04-12T08:31:20.859Z</time></trkpt><trkpt lat="43.6720718" lon="6.6773387"><ele>762.0</ele><time>2026-04-12T08:31:23.875Z</time></trkpt><trkpt lat="43.6719959" lon="6.6774121"><ele>762.0</ele><time>2026-04-12T08:31:26.862Z</time></trkpt><trkpt lat="43.671929" lon="6.6774869"><ele>762.0</ele><time>2026-04-12T08:31:29.859Z</time></trkpt><trkpt lat="43.6718773" lon="6.6775468"><ele>762.0</ele><time>2026-04-12T08:31:31.874Z</time></trkpt><trkpt lat="43.6718384" lon="6.6776248"><ele>762.0</ele><time>2026-04-12T08:31:33.89Z</time></trkpt><trkpt lat="43.6718006" lon="6.6777378"><ele>762.0</ele><time>2026-04-12T08:31:36.873Z</time></trkpt><trkpt lat="43.671779" lon="6.677854"><ele>763.5</ele><time>2026-04-12T08:31:39.84Z</time></trkpt><trkpt lat="43.6717618" lon="6.6779675"><ele>765.0</ele><time>2026-04-12T08:31:42.878Z</time></trkpt><trkpt lat="43.6717452" lon="6.6780773"><ele>766.5</ele><time>2026-04-12T08:31:45.883Z</time></trkpt><trkpt lat="43.6717312" lon="6.6782047"><ele>768.0</ele><time>2026-04-12T08:31:48.858Z</time></trkpt><trkpt lat="43.6717135" lon="6.6783266"><ele>769.5</ele><time>2026-04-12T08:31:51.862Z</time></trkpt><trkpt lat="43.6717001" lon="6.6784467"><ele>771.0</ele><time>2026-04-12T08:31:54.88Z</time></trkpt><trkpt lat="43.6716866" lon="6.6785336"><ele>771.1666666666666</ele><time>2026-04-12T08:31:56.864Z</time></trkpt><trkpt lat="43.6716717" lon="6.678652"><ele>771.3333333333333</ele><time>2026-04-12T08:31:59.88Z</time></trkpt><trkpt lat="43.6716539" lon="6.6787792"><ele>771.5</ele><time>2026-04-12T08:32:02.868Z</time></trkpt><trkpt lat="43.6716371" lon="6.6788671"><ele>771.6666666666666</ele><time>2026-04-12T08:32:04.883Z</time></trkpt><trkpt lat="43.6716034" lon="6.6789437"><ele>771.8333333333333</ele><time>2026-04-12T08:32:06.886Z</time></trkpt><trkpt lat="43.6715501" lon="6.6790269"><ele>772.0</ele><time>2026-04-12T08:32:09.885Z</time></trkpt><trkpt lat="43.6714735" lon="6.6790836"><ele>771.9999999999999</ele><time>2026-04-12T08:32:12.866Z</time></trkpt><trkpt lat="43.6713963" lon="6.6791135"><ele>772.0</ele><time>2026-04-12T08:32:15.864Z</time></trkpt><trkpt lat="43.6713156" lon="6.6791521"><ele>772.0</ele><time>2026-04-12T08:32:18.883Z</time></trkpt><trkpt lat="43.6712401" lon="6.6791869"><ele>772.0</ele><time>2026-04-12T08:32:21.859Z</time></trkpt><trkpt lat="43.6711545" lon="6.6792186"><ele>771.9999999999999</ele><time>2026-04-12T08:32:24.884Z</time></trkpt><trkpt lat="43.6710707" lon="6.6792614"><ele>772.0</ele><time>2026-04-12T08:32:27.864Z</time></trkpt><trkpt lat="43.6710071" lon="6.6792889"><ele>773.1666666666666</ele><time>2026-04-12T08:32:29.868Z</time></trkpt><trkpt lat="43.6709421" lon="6.6793187"><ele>774.3333333333333</ele><time>2026-04-12T08:32:31.853Z</time></trkpt><trkpt lat="43.6708778" lon="6.679349"><ele>775.5</ele><time>2026-04-12T08:32:33.86Z</time></trkpt><trkpt lat="43.6707939" lon="6.6793934"><ele>776.6666666666667</ele><time>2026-04-12T08:32:36.856Z</time></trkpt><trkpt lat="43.6707271" lon="6.6794217"><ele>777.8333333333334</ele><time>2026-04-12T08:32:38.852Z</time></trkpt><trkpt lat="43.6706508" lon="6.6794397"><ele>779.0</ele><time>2026-04-12T08:32:40.843Z</time></trkpt><trkpt lat="43.670563" lon="6.6794826"><ele>779.0000000000001</ele><time>2026-04-12T08:32:42.857Z</time></trkpt><trkpt lat="43.6704998" lon="6.6794992"><ele>779.0</ele><time>2026-04-12T08:32:44.847Z</time></trkpt><trkpt lat="43.6704251" lon="6.6794999"><ele>779.0</ele><time>2026-04-12T08:32:46.838Z</time></trkpt><trkpt lat="43.6703421" lon="6.679474"><ele>779.0</ele><time>2026-04-12T08:32:48.872Z</time></trkpt><trkpt lat="43.6702574" lon="6.6794448"><ele>779.0000000000001</ele><time>2026-04-12T08:32:50.865Z</time></trkpt><trkpt lat="43.6701867" lon="6.679396"><ele>779.0</ele><time>2026-04-12T08:32:52.863Z</time></trkpt><trkpt lat="43.6701197" lon="6.6793296"><ele>779.0</ele><time>2026-04-12T08:32:54.876Z</time></trkpt><trkpt lat="43.6700521" lon="6.6792537"><ele>779.0</ele><time>2026-04-12T08:32:56.879Z</time></trkpt><trkpt lat="43.6699625" lon="6.6791812"><ele>779.0</ele><time>2026-04-12T08:32:58.879Z</time></trkpt><trkpt lat="43.6698669" lon="6.6790982"><ele>779.0</ele><time>2026-04-12T08:33:00.832Z</time></trkpt><trkpt lat="43.6697638" lon="6.6790086"><ele>779.0</ele><time>2026-04-12T08:33:02.883Z</time></trkpt><trkpt lat="43.6697049" lon="6.6789534"><ele>779.0000000000001</ele><time>2026-04-12T08:33:03.904Z</time></trkpt><trkpt lat="43.6696405" lon="6.6788993"><ele>779.0</ele><time>2026-04-12T08:33:04.885Z</time></trkpt><trkpt lat="43.6695771" lon="6.6788336"><ele>779.0</ele><time>2026-04-12T08:33:05.85Z</time></trkpt><trkpt lat="43.6695145" lon="6.6787438"><ele>779.0</ele><time>2026-04-12T08:33:06.885Z</time></trkpt><trkpt lat="43.6694595" lon="6.6786317"><ele>779.0000000000001</ele><time>2026-04-12T08:33:07.856Z</time></trkpt><trkpt lat="43.6694088" lon="6.6785129"><ele>779.0</ele><time>2026-04-12T08:33:08.87Z</time></trkpt><trkpt lat="43.6693622" lon="6.678388"><ele>779.2</ele><time>2026-04-12T08:33:09.886Z</time></trkpt><trkpt lat="43.6693174" lon="6.6782535"><ele>779.4000000000001</ele><time>2026-04-12T08:33:10.894Z</time></trkpt><trkpt lat="43.669267" lon="6.6781228"><ele>779.6</ele><time>2026-04-12T08:33:11.877Z</time></trkpt><trkpt lat="43.6692206" lon="6.6779945"><ele>779.8</ele><time>2026-04-12T08:33:12.888Z</time></trkpt><trkpt lat="43.6691721" lon="6.6778736"><ele>780.0</ele><time>2026-04-12T08:33:13.901Z</time></trkpt><trkpt lat="43.6691173" lon="6.677764"><ele>780.0</ele><time>2026-04-12T08:33:14.9Z</time></trkpt><trkpt lat="43.6690574" lon="6.6776748"><ele>780.0</ele><time>2026-04-12T08:33:15.864Z</time></trkpt><trkpt lat="43.6689944" lon="6.6776002"><ele>780.0</ele><time>2026-04-12T08:33:16.883Z</time></trkpt><trkpt lat="43.6689288" lon="6.6775278"><ele>780.0</ele><time>2026-04-12T08:33:17.891Z</time></trkpt><trkpt lat="43.6688609" lon="6.6774705"><ele>780.0</ele><time>2026-04-12T08:33:18.869Z</time></trkpt><trkpt lat="43.6687873" lon="6.6774457"><ele>780.0</ele><time>2026-04-12T08:33:19.905Z</time></trkpt><trkpt lat="43.6687159" lon="6.6774691"><ele>780.0</ele><time>2026-04-12T08:33:20.85Z</time></trkpt><trkpt lat="43.6686503" lon="6.6775418"><ele>780.0</ele><time>2026-04-12T08:33:21.878Z</time></trkpt><trkpt lat="43.6686066" lon="6.6776499"><ele>780.0</ele><time>2026-04-12T08:33:22.846Z</time></trkpt><trkpt lat="43.6685825" lon="6.6777801"><ele>780.0</ele><time>2026-04-12T08:33:23.855Z</time></trkpt><trkpt lat="43.6685889" lon="6.6779334"><ele>780.0</ele><time>2026-04-12T08:33:24.852Z</time></trkpt><trkpt lat="43.668604" lon="6.6780897"><ele>778.5</ele><time>2026-04-12T08:33:25.897Z</time></trkpt><trkpt lat="43.6686104" lon="6.6782442"><ele>777.0</ele><time>2026-04-12T08:33:26.864Z</time></trkpt><trkpt lat="43.6686166" lon="6.678398"><ele>775.5</ele><time>2026-04-12T08:33:27.864Z</time></trkpt><trkpt lat="43.6686259" lon="6.6785606"><ele>774.0</ele><time>2026-04-12T08:33:28.855Z</time></trkpt><trkpt lat="43.668634" lon="6.6787114"><ele>773.8000000000001</ele><time>2026-04-12T08:33:29.846Z</time></trkpt><trkpt lat="43.6686361" lon="6.6788615"><ele>773.6</ele><time>2026-04-12T08:33:30.884Z</time></trkpt><trkpt lat="43.6686208" lon="6.6790054"><ele>773.4</ele><time>2026-04-12T08:33:31.886Z</time></trkpt><trkpt lat="43.6685885" lon="6.6791509"><ele>773.2</ele><time>2026-04-12T08:33:32.825Z</time></trkpt><trkpt lat="43.6685244" lon="6.6792929"><ele>773.0</ele><time>2026-04-12T08:33:33.88Z</time></trkpt><trkpt lat="43.668443" lon="6.6794224"><ele>769.0</ele><time>2026-04-12T08:33:34.876Z</time></trkpt><trkpt lat="43.6683618" lon="6.6795462"><ele>765.0</ele><time>2026-04-12T08:33:35.871Z</time></trkpt><trkpt lat="43.6682733" lon="6.6796707"><ele>761.0</ele><time>2026-04-12T08:33:36.886Z</time></trkpt><trkpt lat="43.6681937" lon="6.6797859"><ele>757.0</ele><time>2026-04-12T08:33:37.859Z</time></trkpt><trkpt lat="43.6681215" lon="6.6798898"><ele>757.0</ele><time>2026-04-12T08:33:38.872Z</time></trkpt><trkpt lat="43.6680625" lon="6.6800116"><ele>757.0</ele><time>2026-04-12T08:33:39.89Z</time></trkpt><trkpt lat="43.6680033" lon="6.6801311"><ele>757.0</ele><time>2026-04-12T08:33:40.871Z</time></trkpt><trkpt lat="43.6679538" lon="6.6802352"><ele>757.0</ele><time>2026-04-12T08:33:41.843Z</time></trkpt><trkpt lat="43.6678984" lon="6.6803005"><ele>757.0</ele><time>2026-04-12T08:33:42.853Z</time></trkpt><trkpt lat="43.6678334" lon="6.6803178"><ele>757.0</ele><time>2026-04-12T08:33:43.84Z</time></trkpt><trkpt lat="43.6677709" lon="6.6802985"><ele>757.1428571428572</ele><time>2026-04-12T08:33:44.863Z</time></trkpt><trkpt lat="43.6677192" lon="6.6802456"><ele>757.2857142857142</ele><time>2026-04-12T08:33:45.842Z</time></trkpt><trkpt lat="43.667672" lon="6.680175"><ele>757.4285714285714</ele><time>2026-04-12T08:33:46.866Z</time></trkpt><trkpt lat="43.6676318" lon="6.6801012"><ele>757.5714285714287</ele><time>2026-04-12T08:33:47.861Z</time></trkpt><trkpt lat="43.6675854" lon="6.6800333"><ele>757.7142857142858</ele><time>2026-04-12T08:33:48.862Z</time></trkpt><trkpt lat="43.6675364" lon="6.6799687"><ele>757.8571428571429</ele><time>2026-04-12T08:33:49.892Z</time></trkpt><trkpt lat="43.6674907" lon="6.6798943"><ele>758.0</ele><time>2026-04-12T08:33:50.863Z</time></trkpt><trkpt lat="43.667446" lon="6.6798197"><ele>758.0000000000001</ele><time>2026-04-12T08:33:51.881Z</time></trkpt><trkpt lat="43.6674038" lon="6.6797427"><ele>758.0</ele><time>2026-04-12T08:33:52.872Z</time></trkpt><trkpt lat="43.6673639" lon="6.6796644"><ele>758.0</ele><time>2026-04-12T08:33:53.894Z</time></trkpt><trkpt lat="43.667324" lon="6.6795867"><ele>758.0</ele><time>2026-04-12T08:33:54.868Z</time></trkpt><trkpt lat="43.6672766" lon="6.6795076"><ele>758.0</ele><time>2026-04-12T08:33:55.891Z</time></trkpt><trkpt lat="43.6672372" lon="6.6794278"><ele>758.0000000000001</ele><time>2026-04-12T08:33:56.852Z</time></trkpt><trkpt lat="43.6671872" lon="6.6793439"><ele>758.0</ele><time>2026-04-12T08:33:57.88Z</time></trkpt><trkpt lat="43.6671409" lon="6.679255"><ele>758.5999999999999</ele><time>2026-04-12T08:33:58.863Z</time></trkpt><trkpt lat="43.6670876" lon="6.6791641"><ele>759.1999999999999</ele><time>2026-04-12T08:33:59.891Z</time></trkpt><trkpt lat="43.6670315" lon="6.6790636"><ele>759.8</ele><time>2026-04-12T08:34:00.863Z</time></trkpt><trkpt lat="43.6669724" lon="6.6789667"><ele>760.4</ele><time>2026-04-12T08:34:01.899Z</time></trkpt><trkpt lat="43.6669125" lon="6.6788668"><ele>761.0</ele><time>2026-04-12T08:34:02.868Z</time></trkpt><trkpt lat="43.6668413" lon="6.6787733"><ele>761.0</ele><time>2026-04-12T08:34:03.853Z</time></trkpt><trkpt lat="43.6667623" lon="6.6786823"><ele>761.0</ele><time>2026-04-12T08:34:04.859Z</time></trkpt><trkpt lat="43.6666772" lon="6.6785936"><ele>761.0</ele><time>2026-04-12T08:34:05.906Z</time></trkpt><trkpt lat="43.666591" lon="6.6785011"><ele>761.0</ele><time>2026-04-12T08:34:06.866Z</time></trkpt><trkpt lat="43.6664988" lon="6.6784062"><ele>761.0</ele><time>2026-04-12T08:34:07.906Z</time></trkpt><trkpt lat="43.6664045" lon="6.6783192"><ele>759.5</ele><time>2026-04-12T08:34:08.853Z</time></trkpt><trkpt lat="43.6663138" lon="6.6782241"><ele>758.0</ele><time>2026-04-12T08:34:09.876Z</time></trkpt><trkpt lat="43.6662196" lon="6.6781306"><ele>756.5</ele><time>2026-04-12T08:34:10.855Z</time></trkpt><trkpt lat="43.6661207" lon="6.6780438"><ele>755.0</ele><time>2026-04-12T08:34:11.827Z</time></trkpt><trkpt lat="43.6660225" lon="6.6779579"><ele>755.0</ele><time>2026-04-12T08:34:12.877Z</time></trkpt><trkpt lat="43.6659241" lon="6.6778732"><ele>755.0</ele><time>2026-04-12T08:34:13.872Z</time></trkpt><trkpt lat="43.66583" lon="6.6777824"><ele>755.0</ele><time>2026-04-12T08:34:14.883Z</time></trkpt><trkpt lat="43.6657394" lon="6.6776873"><ele>755.0</ele><time>2026-04-12T08:34:15.885Z</time></trkpt><trkpt lat="43.6656541" lon="6.6775899"><ele>754.6</ele><time>2026-04-12T08:34:16.88Z</time></trkpt><trkpt lat="43.6655707" lon="6.6774982"><ele>754.2</ele><time>2026-04-12T08:34:17.833Z</time></trkpt><trkpt lat="43.6654892" lon="6.6774013"><ele>753.8</ele><time>2026-04-12T08:34:18.863Z</time></trkpt><trkpt lat="43.665405" lon="6.677312"><ele>753.4</ele><time>2026-04-12T08:34:19.905Z</time></trkpt><trkpt lat="43.6653233" lon="6.6772054"><ele>753.0</ele><time>2026-04-12T08:34:20.872Z</time></trkpt><trkpt lat="43.6652499" lon="6.6771117"><ele>753.0</ele><time>2026-04-12T08:34:21.882Z</time></trkpt><trkpt lat="43.6651875" lon="6.6770174"><ele>753.0</ele><time>2026-04-12T08:34:22.873Z</time></trkpt><trkpt lat="43.6651273" lon="6.676923"><ele>753.0</ele><time>2026-04-12T08:34:23.852Z</time></trkpt><trkpt lat="43.6650678" lon="6.6768278"><ele>753.0</ele><time>2026-04-12T08:34:24.838Z</time></trkpt><trkpt lat="43.6650114" lon="6.6767387"><ele>753.0</ele><time>2026-04-12T08:34:25.877Z</time></trkpt><trkpt lat="43.6649582" lon="6.6766435"><ele>753.0</ele><time>2026-04-12T08:34:26.884Z</time></trkpt><trkpt lat="43.6649024" lon="6.6765528"><ele>751.3333333333334</ele><time>2026-04-12T08:34:27.888Z</time></trkpt><trkpt lat="43.6648483" lon="6.6764626"><ele>749.6666666666666</ele><time>2026-04-12T08:34:28.88Z</time></trkpt><trkpt lat="43.6647912" lon="6.6763773"><ele>748.0</ele><time>2026-04-12T08:34:29.835Z</time></trkpt><trkpt lat="43.6647391" lon="6.6762847"><ele>746.3333333333333</ele><time>2026-04-12T08:34:30.866Z</time></trkpt><trkpt lat="43.6646856" lon="6.6761909"><ele>744.6666666666666</ele><time>2026-04-12T08:34:31.877Z</time></trkpt><trkpt lat="43.6646315" lon="6.6761026"><ele>743.0</ele><time>2026-04-12T08:34:32.889Z</time></trkpt><trkpt lat="43.6645749" lon="6.676013"><ele>743.8333333333333</ele><time>2026-04-12T08:34:33.862Z</time></trkpt><trkpt lat="43.6645213" lon="6.6759176"><ele>744.6666666666666</ele><time>2026-04-12T08:34:34.869Z</time></trkpt><trkpt lat="43.6644687" lon="6.6758287"><ele>745.5</ele><time>2026-04-12T08:34:35.879Z</time></trkpt><trkpt lat="43.6644255" lon="6.6757271"><ele>746.3333333333334</ele><time>2026-04-12T08:34:36.839Z</time></trkpt><trkpt lat="43.6643878" lon="6.6756136"><ele>747.1666666666667</ele><time>2026-04-12T08:34:37.888Z</time></trkpt><trkpt lat="43.6643473" lon="6.675502"><ele>748.0</ele><time>2026-04-12T08:34:38.861Z</time></trkpt><trkpt lat="43.6643003" lon="6.675392"><ele>748.0</ele><time>2026-04-12T08:34:39.876Z</time></trkpt><trkpt lat="43.6642519" lon="6.6752839"><ele>748.0</ele><time>2026-04-12T08:34:40.82Z</time></trkpt><trkpt lat="43.6641965" lon="6.6751829"><ele>748.0</ele><time>2026-04-12T08:34:41.859Z</time></trkpt><trkpt lat="43.664161" lon="6.6750872"><ele>748.0</ele><time>2026-04-12T08:34:42.875Z</time></trkpt><trkpt lat="43.6641252" lon="6.6749968"><ele>748.0</ele><time>2026-04-12T08:34:43.837Z</time></trkpt><trkpt lat="43.6640863" lon="6.6748894"><ele>748.0</ele><time>2026-04-12T08:34:44.835Z</time></trkpt><trkpt lat="43.6640376" lon="6.6747622"><ele>746.5999999999999</ele><time>2026-04-12T08:34:45.871Z</time></trkpt><trkpt lat="43.6639836" lon="6.6746373"><ele>745.1999999999999</ele><time>2026-04-12T08:34:46.866Z</time></trkpt><trkpt lat="43.6639228" lon="6.6745249"><ele>743.8</ele><time>2026-04-12T08:34:47.859Z</time></trkpt><trkpt lat="43.6638542" lon="6.6744221"><ele>742.4</ele><time>2026-04-12T08:34:48.869Z</time></trkpt><trkpt lat="43.6637858" lon="6.6743169"><ele>741.0</ele><time>2026-04-12T08:34:49.886Z</time></trkpt><trkpt lat="43.6637186" lon="6.6742108"><ele>742.0</ele><time>2026-04-12T08:34:50.87Z</time></trkpt><trkpt lat="43.6636518" lon="6.6741012"><ele>743.0</ele><time>2026-04-12T08:34:51.852Z</time></trkpt><trkpt lat="43.6635841" lon="6.6739971"><ele>744.0</ele><time>2026-04-12T08:34:52.873Z</time></trkpt><trkpt lat="43.6635089" lon="6.6739123"><ele>745.0</ele><time>2026-04-12T08:34:53.888Z</time></trkpt><trkpt lat="43.6634319" lon="6.6738247"><ele>746.0</ele><time>2026-04-12T08:34:54.849Z</time></trkpt><trkpt lat="43.6633594" lon="6.6737365"><ele>746.0</ele><time>2026-04-12T08:34:55.874Z</time></trkpt><trkpt lat="43.6632839" lon="6.673647"><ele>746.0</ele><time>2026-04-12T08:34:56.884Z</time></trkpt><trkpt lat="43.6632162" lon="6.6735396"><ele>746.0</ele><time>2026-04-12T08:34:57.844Z</time></trkpt><trkpt lat="43.6631545" lon="6.6734209"><ele>746.0</ele><time>2026-04-12T08:34:58.871Z</time></trkpt><trkpt lat="43.6630917" lon="6.673301"><ele>746.0</ele><time>2026-04-12T08:34:59.887Z</time></trkpt><trkpt lat="43.6630357" lon="6.6731852"><ele>743.1999999999999</ele><time>2026-04-12T08:35:00.869Z</time></trkpt><trkpt lat="43.6629789" lon="6.6730718"><ele>740.4</ele><time>2026-04-12T08:35:01.855Z</time></trkpt><trkpt lat="43.6629259" lon="6.6729556"><ele>737.6</ele><time>2026-04-12T08:35:02.853Z</time></trkpt><trkpt lat="43.6628735" lon="6.6728436"><ele>734.8</ele><time>2026-04-12T08:35:03.856Z</time></trkpt><trkpt lat="43.6628283" lon="6.67273"><ele>732.0</ele><time>2026-04-12T08:35:04.842Z</time></trkpt><trkpt lat="43.6627871" lon="6.6726107"><ele>733.0</ele><time>2026-04-12T08:35:05.855Z</time></trkpt><trkpt lat="43.662743" lon="6.6724847"><ele>734.0</ele><time>2026-04-12T08:35:06.832Z</time></trkpt><trkpt lat="43.6627051" lon="6.6723652"><ele>735.0</ele><time>2026-04-12T08:35:07.866Z</time></trkpt><trkpt lat="43.6626665" lon="6.6722372"><ele>736.0</ele><time>2026-04-12T08:35:08.887Z</time></trkpt><trkpt lat="43.6626264" lon="6.6721073"><ele>737.0</ele><time>2026-04-12T08:35:09.893Z</time></trkpt><trkpt lat="43.6625825" lon="6.6719747"><ele>735.8</ele><time>2026-04-12T08:35:10.885Z</time></trkpt><trkpt lat="43.6625344" lon="6.671854"><ele>734.6</ele><time>2026-04-12T08:35:11.861Z</time></trkpt><trkpt lat="43.6624743" lon="6.6717307"><ele>733.4</ele><time>2026-04-12T08:35:12.843Z</time></trkpt><trkpt lat="43.6624003" lon="6.6716331"><ele>732.1999999999999</ele><time>2026-04-12T08:35:13.884Z</time></trkpt><trkpt lat="43.662327" lon="6.6715542"><ele>731.0</ele><time>2026-04-12T08:35:14.875Z</time></trkpt><trkpt lat="43.6622457" lon="6.6714804"><ele>731.0</ele><time>2026-04-12T08:35:15.874Z</time></trkpt><trkpt lat="43.6621563" lon="6.6714062"><ele>731.0</ele><time>2026-04-12T08:35:16.882Z</time></trkpt><trkpt lat="43.6620694" lon="6.6713437"><ele>731.0</ele><time>2026-04-12T08:35:17.872Z</time></trkpt><trkpt lat="43.6619734" lon="6.6712898"><ele>731.0</ele><time>2026-04-12T08:35:18.876Z</time></trkpt><trkpt lat="43.661876" lon="6.6712722"><ele>731.0</ele><time>2026-04-12T08:35:19.878Z</time></trkpt><trkpt lat="43.6617796" lon="6.6712665"><ele>730.5999999999999</ele><time>2026-04-12T08:35:20.879Z</time></trkpt><trkpt lat="43.6616799" lon="6.6712922"><ele>730.2</ele><time>2026-04-12T08:35:21.873Z</time></trkpt><trkpt lat="43.6615777" lon="6.6713223"><ele>729.8</ele><time>2026-04-12T08:35:22.887Z</time></trkpt><trkpt lat="43.6614776" lon="6.6713536"><ele>729.4000000000001</ele><time>2026-04-12T08:35:23.874Z</time></trkpt><trkpt lat="43.6613726" lon="6.6713949"><ele>729.0</ele><time>2026-04-12T08:35:24.869Z</time></trkpt><trkpt lat="43.6612643" lon="6.6714416"><ele>729.0</ele><time>2026-04-12T08:35:25.879Z</time></trkpt><trkpt lat="43.6611561" lon="6.6714902"><ele>729.0</ele><time>2026-04-12T08:35:26.888Z</time></trkpt><trkpt lat="43.6610465" lon="6.6715336"><ele>729.0</ele><time>2026-04-12T08:35:27.861Z</time></trkpt><trkpt lat="43.6609367" lon="6.6715856"><ele>729.0</ele><time>2026-04-12T08:35:28.885Z</time></trkpt><trkpt lat="43.6608258" lon="6.6716306"><ele>727.75</ele><time>2026-04-12T08:35:29.892Z</time></trkpt><trkpt lat="43.6607105" lon="6.6716835"><ele>726.5</ele><time>2026-04-12T08:35:30.873Z</time></trkpt><trkpt lat="43.6605976" lon="6.6717337"><ele>725.25</ele><time>2026-04-12T08:35:31.86Z</time></trkpt><trkpt lat="43.6604829" lon="6.6717812"><ele>724.0</ele><time>2026-04-12T08:35:32.874Z</time></trkpt><trkpt lat="43.6603669" lon="6.6718183"><ele>723.0</ele><time>2026-04-12T08:35:33.902Z</time></trkpt><trkpt lat="43.6602488" lon="6.6718408"><ele>722.0</ele><time>2026-04-12T08:35:34.872Z</time></trkpt><trkpt lat="43.6601258" lon="6.6718441"><ele>721.0</ele><time>2026-04-12T08:35:35.871Z</time></trkpt><trkpt lat="43.6600081" lon="6.6718348"><ele>720.0</ele><time>2026-04-12T08:35:36.871Z</time></trkpt><trkpt lat="43.6598925" lon="6.6718231"><ele>720.0</ele><time>2026-04-12T08:35:37.869Z</time></trkpt><trkpt lat="43.6597741" lon="6.6718065"><ele>720.0</ele><time>2026-04-12T08:35:38.89Z</time></trkpt><trkpt lat="43.6596629" lon="6.6717891"><ele>720.0</ele><time>2026-04-12T08:35:39.838Z</time></trkpt><trkpt lat="43.6595554" lon="6.6717741"><ele>720.0</ele><time>2026-04-12T08:35:40.871Z</time></trkpt><trkpt lat="43.6594472" lon="6.6717511"><ele>720.0</ele><time>2026-04-12T08:35:41.858Z</time></trkpt><trkpt lat="43.6593459" lon="6.6717179"><ele>719.8</ele><time>2026-04-12T08:35:42.88Z</time></trkpt><trkpt lat="43.659241" lon="6.6716783"><ele>719.6</ele><time>2026-04-12T08:35:43.878Z</time></trkpt><trkpt lat="43.6591376" lon="6.6716134"><ele>719.4000000000001</ele><time>2026-04-12T08:35:44.869Z</time></trkpt><trkpt lat="43.6590438" lon="6.6715433"><ele>719.2</ele><time>2026-04-12T08:35:45.871Z</time></trkpt><trkpt lat="43.6589483" lon="6.6714711"><ele>719.0</ele><time>2026-04-12T08:35:46.867Z</time></trkpt><trkpt lat="43.6588611" lon="6.6713875"><ele>719.0</ele><time>2026-04-12T08:35:47.879Z</time></trkpt><trkpt lat="43.6587849" lon="6.6712919"><ele>719.0</ele><time>2026-04-12T08:35:48.848Z</time></trkpt><trkpt lat="43.6587154" lon="6.6711923"><ele>719.0</ele><time>2026-04-12T08:35:49.842Z</time></trkpt><trkpt lat="43.6586533" lon="6.6710914"><ele>719.0</ele><time>2026-04-12T08:35:50.878Z</time></trkpt><trkpt lat="43.6585937" lon="6.6709799"><ele>719.0</ele><time>2026-04-12T08:35:51.865Z</time></trkpt><trkpt lat="43.6585355" lon="6.6708664"><ele>720.2</ele><time>2026-04-12T08:35:52.884Z</time></trkpt><trkpt lat="43.6584804" lon="6.670754"><ele>721.4000000000001</ele><time>2026-04-12T08:35:53.885Z</time></trkpt><trkpt lat="43.6584261" lon="6.6706531"><ele>722.6</ele><time>2026-04-12T08:35:54.875Z</time></trkpt><trkpt lat="43.6583681" lon="6.67055"><ele>723.8</ele><time>2026-04-12T08:35:55.879Z</time></trkpt><trkpt lat="43.6583091" lon="6.670447"><ele>725.0</ele><time>2026-04-12T08:35:56.868Z</time></trkpt><trkpt lat="43.6582516" lon="6.670343"><ele>724.0</ele><time>2026-04-12T08:35:57.897Z</time></trkpt><trkpt lat="43.658192" lon="6.6702418"><ele>723.0</ele><time>2026-04-12T08:35:58.833Z</time></trkpt><trkpt lat="43.6581274" lon="6.6701406"><ele>722.0</ele><time>2026-04-12T08:35:59.881Z</time></trkpt><trkpt lat="43.6580677" lon="6.6700421"><ele>721.0</ele><time>2026-04-12T08:36:00.892Z</time></trkpt><trkpt lat="43.6580086" lon="6.6699388"><ele>720.0</ele><time>2026-04-12T08:36:01.883Z</time></trkpt><trkpt lat="43.6579554" lon="6.669833"><ele>720.0</ele><time>2026-04-12T08:36:02.872Z</time></trkpt><trkpt lat="43.6579019" lon="6.6697326"><ele>720.0</ele><time>2026-04-12T08:36:03.854Z</time></trkpt><trkpt lat="43.6578527" lon="6.6696332"><ele>720.0</ele><time>2026-04-12T08:36:04.876Z</time></trkpt><trkpt lat="43.6578039" lon="6.6695331"><ele>720.0</ele><time>2026-04-12T08:36:05.885Z</time></trkpt><trkpt lat="43.6577587" lon="6.6694406"><ele>720.0</ele><time>2026-04-12T08:36:06.888Z</time></trkpt><trkpt lat="43.6577069" lon="6.6693504"><ele>720.0</ele><time>2026-04-12T08:36:07.881Z</time></trkpt><trkpt lat="43.6576551" lon="6.6692535"><ele>720.5</ele><time>2026-04-12T08:36:08.893Z</time></trkpt><trkpt lat="43.657604" lon="6.6691627"><ele>721.0</ele><time>2026-04-12T08:36:09.89Z</time></trkpt><trkpt lat="43.657551" lon="6.6690699"><ele>721.5</ele><time>2026-04-12T08:36:10.867Z</time></trkpt><trkpt lat="43.6575033" lon="6.6689685"><ele>722.0</ele><time>2026-04-12T08:36:11.878Z</time></trkpt><trkpt lat="43.6574559" lon="6.6688841"><ele>722.5</ele><time>2026-04-12T08:36:12.879Z</time></trkpt><trkpt lat="43.6574097" lon="6.668798"><ele>723.0</ele><time>2026-04-12T08:36:13.848Z</time></trkpt><trkpt lat="43.6573593" lon="6.66871"><ele>723.0</ele><time>2026-04-12T08:36:14.87Z</time></trkpt><trkpt lat="43.6573031" lon="6.6686185"><ele>723.0</ele><time>2026-04-12T08:36:15.906Z</time></trkpt><trkpt lat="43.657246" lon="6.6685273"><ele>723.0</ele><time>2026-04-12T08:36:16.875Z</time></trkpt><trkpt lat="43.6571907" lon="6.6684439"><ele>723.0</ele><time>2026-04-12T08:36:17.864Z</time></trkpt><trkpt lat="43.6571354" lon="6.6683558"><ele>723.0</ele><time>2026-04-12T08:36:18.876Z</time></trkpt><trkpt lat="43.6570841" lon="6.6682628"><ele>723.0</ele><time>2026-04-12T08:36:19.891Z</time></trkpt><trkpt lat="43.6570307" lon="6.6681739"><ele>723.5999999999999</ele><time>2026-04-12T08:36:20.84Z</time></trkpt><trkpt lat="43.6569754" lon="6.6680766"><ele>724.1999999999999</ele><time>2026-04-12T08:36:21.883Z</time></trkpt><trkpt lat="43.656917" lon="6.6679786"><ele>724.8</ele><time>2026-04-12T08:36:22.848Z</time></trkpt><trkpt lat="43.6568562" lon="6.6678799"><ele>725.4</ele><time>2026-04-12T08:36:23.875Z</time></trkpt><trkpt lat="43.6567964" lon="6.6677854"><ele>726.0</ele><time>2026-04-12T08:36:24.893Z</time></trkpt><trkpt lat="43.6567361" lon="6.6676896"><ele>724.4</ele><time>2026-04-12T08:36:25.854Z</time></trkpt><trkpt lat="43.6566701" lon="6.667595"><ele>722.8</ele><time>2026-04-12T08:36:26.891Z</time></trkpt><trkpt lat="43.6565955" lon="6.6674916"><ele>721.1999999999999</ele><time>2026-04-12T08:36:27.843Z</time></trkpt><trkpt lat="43.6565209" lon="6.6674032"><ele>719.5999999999999</ele><time>2026-04-12T08:36:28.886Z</time></trkpt><trkpt lat="43.6564487" lon="6.6673249"><ele>718.0</ele><time>2026-04-12T08:36:29.873Z</time></trkpt><trkpt lat="43.6563629" lon="6.6672393"><ele>718.0</ele><time>2026-04-12T08:36:30.87Z</time></trkpt><trkpt lat="43.6562815" lon="6.6671525"><ele>718.0</ele><time>2026-04-12T08:36:31.883Z</time></trkpt><trkpt lat="43.6562011" lon="6.6670637"><ele>718.0</ele><time>2026-04-12T08:36:32.869Z</time></trkpt><trkpt lat="43.6561218" lon="6.6669727"><ele>718.0</ele><time>2026-04-12T08:36:33.897Z</time></trkpt><trkpt lat="43.656046" lon="6.6668768"><ele>718.0</ele><time>2026-04-12T08:36:34.826Z</time></trkpt><trkpt lat="43.6559675" lon="6.6667753"><ele>718.0</ele><time>2026-04-12T08:36:35.882Z</time></trkpt><trkpt lat="43.6558856" lon="6.6666897"><ele>718.0</ele><time>2026-04-12T08:36:36.892Z</time></trkpt><trkpt lat="43.6558023" lon="6.6666013"><ele>718.0</ele><time>2026-04-12T08:36:37.88Z</time></trkpt><trkpt lat="43.6557184" lon="6.6665181"><ele>718.0</ele><time>2026-04-12T08:36:38.876Z</time></trkpt><trkpt lat="43.6556433" lon="6.6664381"><ele>718.0</ele><time>2026-04-12T08:36:39.879Z</time></trkpt><trkpt lat="43.6555723" lon="6.6663581"><ele>718.0</ele><time>2026-04-12T08:36:40.892Z</time></trkpt><trkpt lat="43.6555034" lon="6.6662801"><ele>718.0</ele><time>2026-04-12T08:36:41.88Z</time></trkpt><trkpt lat="43.6554381" lon="6.6662003"><ele>718.0</ele><time>2026-04-12T08:36:42.875Z</time></trkpt><trkpt lat="43.6553662" lon="6.6661195"><ele>718.0</ele><time>2026-04-12T08:36:43.895Z</time></trkpt><trkpt lat="43.655302" lon="6.6660403"><ele>718.0</ele><time>2026-04-12T08:36:44.855Z</time></trkpt><trkpt lat="43.6552289" lon="6.6659586"><ele>718.0</ele><time>2026-04-12T08:36:45.899Z</time></trkpt><trkpt lat="43.655158" lon="6.665893"><ele>717.0</ele><time>2026-04-12T08:36:46.896Z</time></trkpt><trkpt lat="43.6550832" lon="6.6658237"><ele>716.0</ele><time>2026-04-12T08:36:47.847Z</time></trkpt><trkpt lat="43.6550111" lon="6.665757"><ele>715.0</ele><time>2026-04-12T08:36:48.848Z</time></trkpt><trkpt lat="43.6549371" lon="6.6656918"><ele>714.0</ele><time>2026-04-12T08:36:49.879Z</time></trkpt><trkpt lat="43.6548597" lon="6.6656235"><ele>713.0</ele><time>2026-04-12T08:36:50.842Z</time></trkpt><trkpt lat="43.6547753" lon="6.6655545"><ele>713.0</ele><time>2026-04-12T08:36:51.884Z</time></trkpt><trkpt lat="43.6546876" lon="6.6654796"><ele>713.0</ele><time>2026-04-12T08:36:52.875Z</time></trkpt><trkpt lat="43.6545973" lon="6.6654039"><ele>713.0</ele><time>2026-04-12T08:36:53.882Z</time></trkpt><trkpt lat="43.654501" lon="6.6653233"><ele>713.0</ele><time>2026-04-12T08:36:54.861Z</time></trkpt><trkpt lat="43.6544154" lon="6.6652439"><ele>713.0</ele><time>2026-04-12T08:36:55.893Z</time></trkpt><trkpt lat="43.6543289" lon="6.6651563"><ele>712.2</ele><time>2026-04-12T08:36:56.867Z</time></trkpt><trkpt lat="43.6542397" lon="6.6650701"><ele>711.4</ele><time>2026-04-12T08:36:57.866Z</time></trkpt><trkpt lat="43.6541611" lon="6.664968"><ele>710.6</ele><time>2026-04-12T08:36:58.864Z</time></trkpt><trkpt lat="43.6540918" lon="6.6648439"><ele>709.8000000000001</ele><time>2026-04-12T08:36:59.869Z</time></trkpt><trkpt lat="43.6540405" lon="6.6646971"><ele>709.0</ele><time>2026-04-12T08:37:00.881Z</time></trkpt><trkpt lat="43.6540075" lon="6.6645477"><ele>707.75</ele><time>2026-04-12T08:37:01.908Z</time></trkpt><trkpt lat="43.6539769" lon="6.6643837"><ele>706.5</ele><time>2026-04-12T08:37:02.858Z</time></trkpt><trkpt lat="43.653969" lon="6.6642178"><ele>705.25</ele><time>2026-04-12T08:37:03.902Z</time></trkpt><trkpt lat="43.65396" lon="6.6640496"><ele>704.0</ele><time>2026-04-12T08:37:04.844Z</time></trkpt><trkpt lat="43.6539881" lon="6.6638853"><ele>704.0</ele><time>2026-04-12T08:37:05.901Z</time></trkpt><trkpt lat="43.6540147" lon="6.6637289"><ele>704.0</ele><time>2026-04-12T08:37:06.872Z</time></trkpt><trkpt lat="43.6540403" lon="6.66358"><ele>704.0</ele><time>2026-04-12T08:37:07.85Z</time></trkpt><trkpt lat="43.6540622" lon="6.6634301"><ele>704.0</ele><time>2026-04-12T08:37:08.882Z</time></trkpt><trkpt lat="43.6540848" lon="6.663283"><ele>704.0</ele><time>2026-04-12T08:37:09.882Z</time></trkpt><trkpt lat="43.6541113" lon="6.6631275"><ele>702.75</ele><time>2026-04-12T08:37:10.877Z</time></trkpt><trkpt lat="43.6541261" lon="6.6629752"><ele>701.5</ele><time>2026-04-12T08:37:11.879Z</time></trkpt><trkpt lat="43.6541358" lon="6.6628086"><ele>700.25</ele><time>2026-04-12T08:37:12.877Z</time></trkpt><trkpt lat="43.6541352" lon="6.662646"><ele>699.0</ele><time>2026-04-12T08:37:13.883Z</time></trkpt><trkpt lat="43.6541057" lon="6.6624845"><ele>698.5</ele><time>2026-04-12T08:37:14.883Z</time></trkpt><trkpt lat="43.6540519" lon="6.6623175"><ele>698.0</ele><time>2026-04-12T08:37:15.887Z</time></trkpt><trkpt lat="43.6540004" lon="6.6621562"><ele>697.5</ele><time>2026-04-12T08:37:16.878Z</time></trkpt><trkpt lat="43.6539514" lon="6.6619946"><ele>697.0</ele><time>2026-04-12T08:37:17.871Z</time></trkpt><trkpt lat="43.6539063" lon="6.661827"><ele>697.0</ele><time>2026-04-12T08:37:18.879Z</time></trkpt><trkpt lat="43.653856" lon="6.6616616"><ele>697.0</ele><time>2026-04-12T08:37:19.872Z</time></trkpt><trkpt lat="43.6538138" lon="6.661503"><ele>697.0</ele><time>2026-04-12T08:37:20.883Z</time></trkpt><trkpt lat="43.6537812" lon="6.6613507"><ele>697.0</ele><time>2026-04-12T08:37:21.898Z</time></trkpt><trkpt lat="43.6537525" lon="6.6611984"><ele>696.8</ele><time>2026-04-12T08:37:22.867Z</time></trkpt><trkpt lat="43.6537513" lon="6.6610526"><ele>696.6</ele><time>2026-04-12T08:37:23.87Z</time></trkpt><trkpt lat="43.6537858" lon="6.6609159"><ele>696.4</ele><time>2026-04-12T08:37:24.885Z</time></trkpt><trkpt lat="43.6538324" lon="6.6607805"><ele>696.1999999999999</ele><time>2026-04-12T08:37:25.877Z</time></trkpt><trkpt lat="43.6538915" lon="6.6606525"><ele>696.0</ele><time>2026-04-12T08:37:26.866Z</time></trkpt><trkpt lat="43.6539523" lon="6.6605108"><ele>696.0</ele><time>2026-04-12T08:37:27.867Z</time></trkpt><trkpt lat="43.6540154" lon="6.6603607"><ele>696.0</ele><time>2026-04-12T08:37:28.906Z</time></trkpt><trkpt lat="43.6540745" lon="6.6602175"><ele>696.0</ele><time>2026-04-12T08:37:29.837Z</time></trkpt><trkpt lat="43.6541312" lon="6.6600816"><ele>696.0</ele><time>2026-04-12T08:37:30.869Z</time></trkpt><trkpt lat="43.6541896" lon="6.6599507"><ele>695.1666666666666</ele><time>2026-04-12T08:37:31.878Z</time></trkpt><trkpt lat="43.6542332" lon="6.6598276"><ele>694.3333333333334</ele><time>2026-04-12T08:37:32.888Z</time></trkpt><trkpt lat="43.654277" lon="6.6597108"><ele>693.5</ele><time>2026-04-12T08:37:33.889Z</time></trkpt><trkpt lat="43.6543131" lon="6.6596067"><ele>692.6666666666667</ele><time>2026-04-12T08:37:34.877Z</time></trkpt><trkpt lat="43.6543511" lon="6.6595133"><ele>691.8333333333334</ele><time>2026-04-12T08:37:35.857Z</time></trkpt><trkpt lat="43.6543845" lon="6.6594341"><ele>691.0</ele><time>2026-04-12T08:37:36.842Z</time></trkpt><trkpt lat="43.6544001" lon="6.659272"><ele>691.0</ele><time>2026-04-12T08:37:38.87Z</time></trkpt><trkpt lat="43.6543538" lon="6.6592037"><ele>691.0</ele><time>2026-04-12T08:37:39.858Z</time></trkpt><trkpt lat="43.6542809" lon="6.6591887"><ele>691.0</ele><time>2026-04-12T08:37:40.865Z</time></trkpt><trkpt lat="43.6542109" lon="6.6592367"><ele>691.0</ele><time>2026-04-12T08:37:41.875Z</time></trkpt><trkpt lat="43.6541554" lon="6.6593137"><ele>691.0</ele><time>2026-04-12T08:37:42.876Z</time></trkpt><trkpt lat="43.6540973" lon="6.6593937"><ele>691.0</ele><time>2026-04-12T08:37:43.866Z</time></trkpt><trkpt lat="43.6540347" lon="6.6594737"><ele>690.5999999999999</ele><time>2026-04-12T08:37:44.86Z</time></trkpt><trkpt lat="43.6539638" lon="6.6595556"><ele>690.2</ele><time>2026-04-12T08:37:45.877Z</time></trkpt><trkpt lat="43.6538947" lon="6.6596392"><ele>689.8</ele><time>2026-04-12T08:37:46.867Z</time></trkpt><trkpt lat="43.6538158" lon="6.6597212"><ele>689.4000000000001</ele><time>2026-04-12T08:37:47.869Z</time></trkpt><trkpt lat="43.6537198" lon="6.6597843"><ele>689.0</ele><time>2026-04-12T08:37:48.88Z</time></trkpt><trkpt lat="43.6536099" lon="6.6597852"><ele>686.6</ele><time>2026-04-12T08:37:49.851Z</time></trkpt><trkpt lat="43.6535195" lon="6.6597781"><ele>684.2</ele><time>2026-04-12T08:37:50.883Z</time></trkpt><trkpt lat="43.6534167" lon="6.6597524"><ele>681.8000000000001</ele><time>2026-04-12T08:37:51.892Z</time></trkpt><trkpt lat="43.6533221" lon="6.6597294"><ele>679.4000000000001</ele><time>2026-04-12T08:37:52.882Z</time></trkpt><trkpt lat="43.6532262" lon="6.6597048"><ele>677.0</ele><time>2026-04-12T08:37:53.874Z</time></trkpt><trkpt lat="43.6531378" lon="6.6596841"><ele>677.0</ele><time>2026-04-12T08:37:54.864Z</time></trkpt><trkpt lat="43.6530509" lon="6.6596677"><ele>677.0</ele><time>2026-04-12T08:37:55.835Z</time></trkpt><trkpt lat="43.6529655" lon="6.6596808"><ele>677.0</ele><time>2026-04-12T08:37:56.875Z</time></trkpt><trkpt lat="43.6528969" lon="6.6597432"><ele>677.0</ele><time>2026-04-12T08:37:57.899Z</time></trkpt><trkpt lat="43.6528313" lon="6.6598359"><ele>677.0</ele><time>2026-04-12T08:37:58.842Z</time></trkpt><trkpt lat="43.6527645" lon="6.6599246"><ele>677.0</ele><time>2026-04-12T08:37:59.862Z</time></trkpt><trkpt lat="43.6526967" lon="6.6600189"><ele>677.6</ele><time>2026-04-12T08:38:00.873Z</time></trkpt><trkpt lat="43.6526265" lon="6.6601162"><ele>678.2</ele><time>2026-04-12T08:38:01.872Z</time></trkpt><trkpt lat="43.6525531" lon="6.6602108"><ele>678.8</ele><time>2026-04-12T08:38:02.869Z</time></trkpt><trkpt lat="43.6524794" lon="6.6603063"><ele>679.4</ele><time>2026-04-12T08:38:03.87Z</time></trkpt><trkpt lat="43.6524063" lon="6.6603985"><ele>680.0</ele><time>2026-04-12T08:38:04.889Z</time></trkpt><trkpt lat="43.652332" lon="6.6604946"><ele>677.8</ele><time>2026-04-12T08:38:05.879Z</time></trkpt><trkpt lat="43.6522481" lon="6.6605928"><ele>675.6</ele><time>2026-04-12T08:38:06.852Z</time></trkpt><trkpt lat="43.6521618" lon="6.6606974"><ele>673.4000000000001</ele><time>2026-04-12T08:38:07.864Z</time></trkpt><trkpt lat="43.6520845" lon="6.6607988"><ele>671.2</ele><time>2026-04-12T08:38:08.878Z</time></trkpt><trkpt lat="43.6520077" lon="6.6608915"><ele>669.0</ele><time>2026-04-12T08:38:09.894Z</time></trkpt><trkpt lat="43.6519326" lon="6.6609851"><ele>668.8333333333334</ele><time>2026-04-12T08:38:10.854Z</time></trkpt><trkpt lat="43.6518639" lon="6.6610704"><ele>668.6666666666666</ele><time>2026-04-12T08:38:11.871Z</time></trkpt><trkpt lat="43.6517901" lon="6.6611361"><ele>668.5</ele><time>2026-04-12T08:38:12.871Z</time></trkpt><trkpt lat="43.6517018" lon="6.6611533"><ele>668.3333333333333</ele><time>2026-04-12T08:38:13.837Z</time></trkpt><trkpt lat="43.6516221" lon="6.6611134"><ele>668.1666666666666</ele><time>2026-04-12T08:38:14.897Z</time></trkpt><trkpt lat="43.6515563" lon="6.6610451"><ele>668.0</ele><time>2026-04-12T08:38:15.864Z</time></trkpt><trkpt lat="43.6514989" lon="6.6609501"><ele>668.0</ele><time>2026-04-12T08:38:16.871Z</time></trkpt><trkpt lat="43.6514449" lon="6.6608379"><ele>668.0</ele><time>2026-04-12T08:38:17.872Z</time></trkpt><trkpt lat="43.6513895" lon="6.6607357"><ele>668.0</ele><time>2026-04-12T08:38:18.878Z</time></trkpt><trkpt lat="43.6513332" lon="6.6606302"><ele>668.0</ele><time>2026-04-12T08:38:19.861Z</time></trkpt><trkpt lat="43.6512669" lon="6.6605376"><ele>668.0</ele><time>2026-04-12T08:38:20.872Z</time></trkpt><trkpt lat="43.6511819" lon="6.6604628"><ele>665.4</ele><time>2026-04-12T08:38:21.875Z</time></trkpt><trkpt lat="43.6510841" lon="6.660402"><ele>662.8</ele><time>2026-04-12T08:38:22.839Z</time></trkpt><trkpt lat="43.6509851" lon="6.6603657"><ele>660.2</ele><time>2026-04-12T08:38:23.86Z</time></trkpt><trkpt lat="43.6508842" lon="6.6603354"><ele>657.6</ele><time>2026-04-12T08:38:24.856Z</time></trkpt><trkpt lat="43.6507793" lon="6.6603177"><ele>655.0</ele><time>2026-04-12T08:38:25.834Z</time></trkpt><trkpt lat="43.6506656" lon="6.6603243"><ele>655.0</ele><time>2026-04-12T08:38:26.829Z</time></trkpt><trkpt lat="43.6505672" lon="6.6603437"><ele>655.0</ele><time>2026-04-12T08:38:27.86Z</time></trkpt><trkpt lat="43.6504654" lon="6.6603683"><ele>655.0</ele><time>2026-04-12T08:38:28.872Z</time></trkpt><trkpt lat="43.6503589" lon="6.6603831"><ele>655.0</ele><time>2026-04-12T08:38:29.869Z</time></trkpt><trkpt lat="43.6502496" lon="6.6603782"><ele>655.0</ele><time>2026-04-12T08:38:30.842Z</time></trkpt><trkpt lat="43.6501353" lon="6.6603623"><ele>652.25</ele><time>2026-04-12T08:38:31.876Z</time></trkpt><trkpt lat="43.6500225" lon="6.6603307"><ele>649.5</ele><time>2026-04-12T08:38:32.876Z</time></trkpt><trkpt lat="43.649908" lon="6.6602849"><ele>646.75</ele><time>2026-04-12T08:38:33.855Z</time></trkpt><trkpt lat="43.6497852" lon="6.6602386"><ele>644.0</ele><time>2026-04-12T08:38:34.881Z</time></trkpt><trkpt lat="43.649669" lon="6.6602034"><ele>647.0</ele><time>2026-04-12T08:38:35.857Z</time></trkpt><trkpt lat="43.6495579" lon="6.6601697"><ele>650.0</ele><time>2026-04-12T08:38:36.883Z</time></trkpt><trkpt lat="43.6494436" lon="6.6601245"><ele>653.0</ele><time>2026-04-12T08:38:37.864Z</time></trkpt><trkpt lat="43.6493294" lon="6.6600747"><ele>656.0</ele><time>2026-04-12T08:38:38.875Z</time></trkpt><trkpt lat="43.6492062" lon="6.6600284"><ele>656.0</ele><time>2026-04-12T08:38:39.87Z</time></trkpt><trkpt lat="43.6490911" lon="6.6599801"><ele>656.0</ele><time>2026-04-12T08:38:40.877Z</time></trkpt><trkpt lat="43.6489773" lon="6.6599459"><ele>656.0</ele><time>2026-04-12T08:38:41.854Z</time></trkpt><trkpt lat="43.6488596" lon="6.6599319"><ele>656.0</ele><time>2026-04-12T08:38:42.866Z</time></trkpt><trkpt lat="43.6487386" lon="6.6599308"><ele>654.0</ele><time>2026-04-12T08:38:43.871Z</time></trkpt><trkpt lat="43.6486131" lon="6.6599391"><ele>652.0</ele><time>2026-04-12T08:38:44.877Z</time></trkpt><trkpt lat="43.6484843" lon="6.6599654"><ele>650.0</ele><time>2026-04-12T08:38:45.858Z</time></trkpt><trkpt lat="43.6483523" lon="6.6599869"><ele>648.0</ele><time>2026-04-12T08:38:46.876Z</time></trkpt><trkpt lat="43.6482291" lon="6.6600075"><ele>648.0</ele><time>2026-04-12T08:38:47.858Z</time></trkpt><trkpt lat="43.6481061" lon="6.6600228"><ele>648.0</ele><time>2026-04-12T08:38:48.877Z</time></trkpt><trkpt lat="43.6479827" lon="6.6600421"><ele>648.0</ele><time>2026-04-12T08:38:49.877Z</time></trkpt><trkpt lat="43.6478618" lon="6.6600623"><ele>648.0</ele><time>2026-04-12T08:38:50.892Z</time></trkpt><trkpt lat="43.647733" lon="6.66008"><ele>646.25</ele><time>2026-04-12T08:38:51.838Z</time></trkpt><trkpt lat="43.6476045" lon="6.6600883"><ele>644.5</ele><time>2026-04-12T08:38:52.886Z</time></trkpt><trkpt lat="43.6474813" lon="6.6600968"><ele>642.75</ele><time>2026-04-12T08:38:53.829Z</time></trkpt><trkpt lat="43.6473587" lon="6.6600868"><ele>641.0</ele><time>2026-04-12T08:38:54.834Z</time></trkpt><trkpt lat="43.6472384" lon="6.6600634"><ele>641.0</ele><time>2026-04-12T08:38:55.832Z</time></trkpt><trkpt lat="43.6471255" lon="6.6600408"><ele>641.0</ele><time>2026-04-12T08:38:56.82Z</time></trkpt><trkpt lat="43.6470198" lon="6.6599994"><ele>641.0</ele><time>2026-04-12T08:38:57.823Z</time></trkpt><trkpt lat="43.6469021" lon="6.6599884"><ele>641.0</ele><time>2026-04-12T08:38:58.831Z</time></trkpt><trkpt lat="43.6467927" lon="6.6599946"><ele>638.6666666666666</ele><time>2026-04-12T08:38:59.833Z</time></trkpt><trkpt lat="43.6467078" lon="6.660005"><ele>636.3333333333333</ele><time>2026-04-12T08:39:00.84Z</time></trkpt><trkpt lat="43.6465852" lon="6.6599689"><ele>634.0</ele><time>2026-04-12T08:39:02.845Z</time></trkpt><trkpt lat="43.646512" lon="6.6599124"><ele>631.6666666666666</ele><time>2026-04-12T08:39:03.876Z</time></trkpt><trkpt lat="43.6464752" lon="6.6598195"><ele>629.3333333333334</ele><time>2026-04-12T08:39:04.868Z</time></trkpt><trkpt lat="43.6464624" lon="6.659713"><ele>627.0</ele><time>2026-04-12T08:39:05.888Z</time></trkpt><trkpt lat="43.6464679" lon="6.6595829"><ele>627.0</ele><time>2026-04-12T08:39:06.85Z</time></trkpt><trkpt lat="43.64648" lon="6.6594527"><ele>627.0</ele><time>2026-04-12T08:39:07.892Z</time></trkpt><trkpt lat="43.6464937" lon="6.6593194"><ele>627.0</ele><time>2026-04-12T08:39:08.865Z</time></trkpt><trkpt lat="43.646504" lon="6.6591626"><ele>627.0</ele><time>2026-04-12T08:39:09.865Z</time></trkpt><trkpt lat="43.6465194" lon="6.6590234"><ele>627.0</ele><time>2026-04-12T08:39:10.884Z</time></trkpt><trkpt lat="43.6465467" lon="6.6588871"><ele>626.2</ele><time>2026-04-12T08:39:11.876Z</time></trkpt><trkpt lat="43.6465985" lon="6.6587538"><ele>625.4000000000001</ele><time>2026-04-12T08:39:12.842Z</time></trkpt><trkpt lat="43.6466501" lon="6.6586231"><ele>624.5999999999999</ele><time>2026-04-12T08:39:13.869Z</time></trkpt><trkpt lat="43.6467006" lon="6.6585105"><ele>623.8</ele><time>2026-04-12T08:39:14.864Z</time></trkpt><trkpt lat="43.6467449" lon="6.6584093"><ele>623.0</ele><time>2026-04-12T08:39:15.876Z</time></trkpt><trkpt lat="43.6467775" lon="6.658313"><ele>623.0</ele><time>2026-04-12T08:39:16.833Z</time></trkpt><trkpt lat="43.6468203" lon="6.6582225"><ele>623.0</ele><time>2026-04-12T08:39:17.855Z</time></trkpt><trkpt lat="43.6468301" lon="6.6581309"><ele>623.0</ele><time>2026-04-12T08:39:18.854Z</time></trkpt><trkpt lat="43.6468082" lon="6.6580176"><ele>623.0</ele><time>2026-04-12T08:39:19.846Z</time></trkpt><trkpt lat="43.6467517" lon="6.6579322"><ele>623.0</ele><time>2026-04-12T08:39:20.846Z</time></trkpt><trkpt lat="43.6466742" lon="6.6578584"><ele>623.0</ele><time>2026-04-12T08:39:21.881Z</time></trkpt><trkpt lat="43.6465882" lon="6.6578019"><ele>624.6</ele><time>2026-04-12T08:39:22.853Z</time></trkpt><trkpt lat="43.6465016" lon="6.65774"><ele>626.1999999999999</ele><time>2026-04-12T08:39:23.867Z</time></trkpt><trkpt lat="43.6464039" lon="6.6577005"><ele>627.8</ele><time>2026-04-12T08:39:24.867Z</time></trkpt><trkpt lat="43.6463144" lon="6.6576583"><ele>629.4</ele><time>2026-04-12T08:39:25.872Z</time></trkpt><trkpt lat="43.6462159" lon="6.6576092"><ele>631.0</ele><time>2026-04-12T08:39:26.868Z</time></trkpt><trkpt lat="43.6461276" lon="6.6575736"><ele>625.4</ele><time>2026-04-12T08:39:27.893Z</time></trkpt><trkpt lat="43.6460468" lon="6.6575181"><ele>619.8</ele><time>2026-04-12T08:39:28.877Z</time></trkpt><trkpt lat="43.6459737" lon="6.6574369"><ele>614.1999999999999</ele><time>2026-04-12T08:39:29.873Z</time></trkpt><trkpt lat="43.645916" lon="6.6573327"><ele>608.6</ele><time>2026-04-12T08:39:30.884Z</time></trkpt><trkpt lat="43.6458727" lon="6.6572215"><ele>603.0</ele><time>2026-04-12T08:39:31.856Z</time></trkpt><trkpt lat="43.645861" lon="6.6570927"><ele>603.0</ele><time>2026-04-12T08:39:32.877Z</time></trkpt><trkpt lat="43.6458574" lon="6.656957"><ele>603.0</ele><time>2026-04-12T08:39:33.875Z</time></trkpt><trkpt lat="43.6458561" lon="6.6568133"><ele>603.0</ele><time>2026-04-12T08:39:34.851Z</time></trkpt><trkpt lat="43.6458434" lon="6.6566638"><ele>603.0</ele><time>2026-04-12T08:39:35.882Z</time></trkpt><trkpt lat="43.6458231" lon="6.656514"><ele>603.0</ele><time>2026-04-12T08:39:36.876Z</time></trkpt><trkpt lat="43.6457908" lon="6.6563653"><ele>604.0</ele><time>2026-04-12T08:39:37.874Z</time></trkpt><trkpt lat="43.6457426" lon="6.6562329"><ele>605.0</ele><time>2026-04-12T08:39:38.844Z</time></trkpt><trkpt lat="43.6456903" lon="6.6561192"><ele>606.0</ele><time>2026-04-12T08:39:39.84Z</time></trkpt><trkpt lat="43.6456386" lon="6.6560059"><ele>607.0</ele><time>2026-04-12T08:39:40.884Z</time></trkpt><trkpt lat="43.64558" lon="6.6559058"><ele>608.0</ele><time>2026-04-12T08:39:41.865Z</time></trkpt><trkpt lat="43.6454981" lon="6.6558242"><ele>609.0</ele><time>2026-04-12T08:39:42.869Z</time></trkpt><trkpt lat="43.6454041" lon="6.6557646"><ele>610.0</ele><time>2026-04-12T08:39:43.89Z</time></trkpt><trkpt lat="43.6453195" lon="6.6556897"><ele>611.0</ele><time>2026-04-12T08:39:44.875Z</time></trkpt><trkpt lat="43.6452507" lon="6.6555918"><ele>612.0</ele><time>2026-04-12T08:39:45.875Z</time></trkpt><trkpt lat="43.6451797" lon="6.6554741"><ele>613.0</ele><time>2026-04-12T08:39:46.865Z</time></trkpt><trkpt lat="43.6451133" lon="6.6553444"><ele>609.0</ele><time>2026-04-12T08:39:47.842Z</time></trkpt><trkpt lat="43.6450503" lon="6.6552133"><ele>605.0</ele><time>2026-04-12T08:39:48.863Z</time></trkpt><trkpt lat="43.6449821" lon="6.6550772"><ele>601.0</ele><time>2026-04-12T08:39:49.889Z</time></trkpt><trkpt lat="43.6449154" lon="6.6549416"><ele>597.0</ele><time>2026-04-12T08:39:50.876Z</time></trkpt><trkpt lat="43.6448495" lon="6.654805"><ele>597.0</ele><time>2026-04-12T08:39:51.872Z</time></trkpt><trkpt lat="43.6447884" lon="6.6546593"><ele>597.0</ele><time>2026-04-12T08:39:52.893Z</time></trkpt><trkpt lat="43.6447415" lon="6.6545265"><ele>597.0</ele><time>2026-04-12T08:39:53.872Z</time></trkpt><trkpt lat="43.6446967" lon="6.6543928"><ele>597.0</ele><time>2026-04-12T08:39:54.905Z</time></trkpt><trkpt lat="43.6446531" lon="6.6542566"><ele>597.0</ele><time>2026-04-12T08:39:55.885Z</time></trkpt><trkpt lat="43.6446147" lon="6.6541291"><ele>597.4</ele><time>2026-04-12T08:39:56.854Z</time></trkpt><trkpt lat="43.6445808" lon="6.6540064"><ele>597.8000000000001</ele><time>2026-04-12T08:39:57.887Z</time></trkpt><trkpt lat="43.6445492" lon="6.6538789"><ele>598.2</ele><time>2026-04-12T08:39:58.856Z</time></trkpt><trkpt lat="43.6445273" lon="6.6537609"><ele>598.6</ele><time>2026-04-12T08:39:59.896Z</time></trkpt><trkpt lat="43.644516" lon="6.6536414"><ele>599.0</ele><time>2026-04-12T08:40:00.82Z</time></trkpt><trkpt lat="43.6445251" lon="6.6535226"><ele>597.8</ele><time>2026-04-12T08:40:01.878Z</time></trkpt><trkpt lat="43.6445433" lon="6.6533962"><ele>596.5999999999999</ele><time>2026-04-12T08:40:02.884Z</time></trkpt><trkpt lat="43.6445967" lon="6.653283"><ele>595.4</ele><time>2026-04-12T08:40:03.856Z</time></trkpt><trkpt lat="43.6446708" lon="6.6531901"><ele>594.1999999999999</ele><time>2026-04-12T08:40:04.892Z</time></trkpt><trkpt lat="43.6447403" lon="6.6531023"><ele>593.0</ele><time>2026-04-12T08:40:05.851Z</time></trkpt><trkpt lat="43.6448174" lon="6.6530033"><ele>593.0</ele><time>2026-04-12T08:40:06.879Z</time></trkpt><trkpt lat="43.6448971" lon="6.6528984"><ele>593.0</ele><time>2026-04-12T08:40:07.864Z</time></trkpt><trkpt lat="43.6449725" lon="6.652801"><ele>593.0</ele><time>2026-04-12T08:40:08.882Z</time></trkpt><trkpt lat="43.64504" lon="6.6527015"><ele>593.0</ele><time>2026-04-12T08:40:09.859Z</time></trkpt><trkpt lat="43.6451063" lon="6.6526126"><ele>593.0</ele><time>2026-04-12T08:40:10.841Z</time></trkpt><trkpt lat="43.6451759" lon="6.6525366"><ele>593.1666666666666</ele><time>2026-04-12T08:40:11.882Z</time></trkpt><trkpt lat="43.6452402" lon="6.6524814"><ele>593.3333333333333</ele><time>2026-04-12T08:40:12.867Z</time></trkpt><trkpt lat="43.6452924" lon="6.6524274"><ele>593.5</ele><time>2026-04-12T08:40:13.873Z</time></trkpt><trkpt lat="43.6453358" lon="6.652364"><ele>593.6666666666666</ele><time>2026-04-12T08:40:14.878Z</time></trkpt><trkpt lat="43.6453401" lon="6.6522009"><ele>593.8333333333334</ele><time>2026-04-12T08:40:16.865Z</time></trkpt><trkpt lat="43.6452778" lon="6.6521441"><ele>594.0</ele><time>2026-04-12T08:40:17.899Z</time></trkpt><trkpt lat="43.6451428" lon="6.6521979"><ele>591.2</ele><time>2026-04-12T08:40:19.878Z</time></trkpt><trkpt lat="43.6450808" lon="6.6522664"><ele>588.4</ele><time>2026-04-12T08:40:20.876Z</time></trkpt><trkpt lat="43.6450079" lon="6.6523378"><ele>585.6</ele><time>2026-04-12T08:40:21.886Z</time></trkpt><trkpt lat="43.6449207" lon="6.6524125"><ele>582.8</ele><time>2026-04-12T08:40:22.865Z</time></trkpt><trkpt lat="43.6448232" lon="6.6524775"><ele>580.0</ele><time>2026-04-12T08:40:23.88Z</time></trkpt><trkpt lat="43.6447168" lon="6.6525317"><ele>580.0</ele><time>2026-04-12T08:40:24.867Z</time></trkpt><trkpt lat="43.644611" lon="6.6525866"><ele>580.0</ele><time>2026-04-12T08:40:25.881Z</time></trkpt><trkpt lat="43.6445057" lon="6.6526601"><ele>580.0</ele><time>2026-04-12T08:40:26.874Z</time></trkpt><trkpt lat="43.6444046" lon="6.6527495"><ele>580.0</ele><time>2026-04-12T08:40:27.905Z</time></trkpt><trkpt lat="43.6443164" lon="6.6528585"><ele>577.75</ele><time>2026-04-12T08:40:28.888Z</time></trkpt><trkpt lat="43.6442265" lon="6.6529649"><ele>575.5</ele><time>2026-04-12T08:40:29.859Z</time></trkpt><trkpt lat="43.6441504" lon="6.6530915"><ele>573.25</ele><time>2026-04-12T08:40:30.841Z</time></trkpt><trkpt lat="43.6440851" lon="6.6532268"><ele>571.0</ele><time>2026-04-12T08:40:31.856Z</time></trkpt><trkpt lat="43.6440182" lon="6.6533743"><ele>571.0</ele><time>2026-04-12T08:40:32.882Z</time></trkpt><trkpt lat="43.6439622" lon="6.6535303"><ele>571.0</ele><time>2026-04-12T08:40:33.888Z</time></trkpt><trkpt lat="43.6439074" lon="6.6536791"><ele>571.0</ele><time>2026-04-12T08:40:34.846Z</time></trkpt><trkpt lat="43.6438545" lon="6.6538411"><ele>571.0</ele><time>2026-04-12T08:40:35.841Z</time></trkpt><trkpt lat="43.6438174" lon="6.6540079"><ele>571.5</ele><time>2026-04-12T08:40:36.845Z</time></trkpt><trkpt lat="43.6437911" lon="6.6541803"><ele>572.0</ele><time>2026-04-12T08:40:37.845Z</time></trkpt><trkpt lat="43.6437735" lon="6.6543587"><ele>572.5</ele><time>2026-04-12T08:40:38.886Z</time></trkpt><trkpt lat="43.6437501" lon="6.6545296"><ele>573.0</ele><time>2026-04-12T08:40:39.845Z</time></trkpt><trkpt lat="43.6437258" lon="6.6546826"><ele>573.0</ele><time>2026-04-12T08:40:40.864Z</time></trkpt><trkpt lat="43.6437031" lon="6.654822"><ele>573.0</ele><time>2026-04-12T08:40:41.85Z</time></trkpt><trkpt lat="43.6436809" lon="6.6549719"><ele>573.0</ele><time>2026-04-12T08:40:42.85Z</time></trkpt><trkpt lat="43.6436705" lon="6.6551367"><ele>573.0</ele><time>2026-04-12T08:40:43.875Z</time></trkpt><trkpt lat="43.6436919" lon="6.6552763"><ele>573.0</ele><time>2026-04-12T08:40:44.876Z</time></trkpt><trkpt lat="43.6437185" lon="6.6554103"><ele>572.0</ele><time>2026-04-12T08:40:45.837Z</time></trkpt><trkpt lat="43.6437392" lon="6.6555459"><ele>571.0</ele><time>2026-04-12T08:40:46.877Z</time></trkpt><trkpt lat="43.6437464" lon="6.655665"><ele>570.0</ele><time>2026-04-12T08:40:47.874Z</time></trkpt><trkpt lat="43.6437319" lon="6.6558048"><ele>569.0</ele><time>2026-04-12T08:40:48.9Z</time></trkpt><trkpt lat="43.6437015" lon="6.6559334"><ele>568.0</ele><time>2026-04-12T08:40:49.872Z</time></trkpt><trkpt lat="43.6436551" lon="6.656057"><ele>562.1999999999999</ele><time>2026-04-12T08:40:50.864Z</time></trkpt><trkpt lat="43.6436018" lon="6.6561867"><ele>556.4</ele><time>2026-04-12T08:40:51.87Z</time></trkpt><trkpt lat="43.6435631" lon="6.656324"><ele>550.5999999999999</ele><time>2026-04-12T08:40:52.874Z</time></trkpt><trkpt lat="43.6435303" lon="6.6564661"><ele>544.8</ele><time>2026-04-12T08:40:53.858Z</time></trkpt><trkpt lat="43.6435197" lon="6.6566051"><ele>539.0</ele><time>2026-04-12T08:40:54.87Z</time></trkpt><trkpt lat="43.6435314" lon="6.6567314"><ele>539.0</ele><time>2026-04-12T08:40:55.876Z</time></trkpt><trkpt lat="43.643575" lon="6.6568466"><ele>539.0</ele><time>2026-04-12T08:40:56.88Z</time></trkpt><trkpt lat="43.6436426" lon="6.6569482"><ele>539.0</ele><time>2026-04-12T08:40:57.865Z</time></trkpt><trkpt lat="43.6437078" lon="6.6570446"><ele>539.0</ele><time>2026-04-12T08:40:58.838Z</time></trkpt><trkpt lat="43.6437449" lon="6.6571766"><ele>539.0</ele><time>2026-04-12T08:40:59.861Z</time></trkpt><trkpt lat="43.6437627" lon="6.6573201"><ele>540.2</ele><time>2026-04-12T08:41:00.865Z</time></trkpt><trkpt lat="43.6437691" lon="6.6574714"><ele>541.4</ele><time>2026-04-12T08:41:01.871Z</time></trkpt><trkpt lat="43.6437714" lon="6.6576272"><ele>542.6</ele><time>2026-04-12T08:41:02.851Z</time></trkpt><trkpt lat="43.6437777" lon="6.657777"><ele>543.8</ele><time>2026-04-12T08:41:03.88Z</time></trkpt><trkpt lat="43.6438027" lon="6.6579149"><ele>545.0</ele><time>2026-04-12T08:41:04.886Z</time></trkpt><trkpt lat="43.6438533" lon="6.65802"><ele>545.0</ele><time>2026-04-12T08:41:05.889Z</time></trkpt><trkpt lat="43.6439207" lon="6.6580966"><ele>545.0</ele><time>2026-04-12T08:41:06.867Z</time></trkpt><trkpt lat="43.6439929" lon="6.6581519"><ele>545.0</ele><time>2026-04-12T08:41:07.872Z</time></trkpt><trkpt lat="43.6440567" lon="6.6582058"><ele>545.0</ele><time>2026-04-12T08:41:08.878Z</time></trkpt><trkpt lat="43.6441251" lon="6.6583516"><ele>545.0</ele><time>2026-04-12T08:41:10.839Z</time></trkpt><trkpt lat="43.6440494" lon="6.6584666"><ele>545.0</ele><time>2026-04-12T08:41:12.875Z</time></trkpt><trkpt lat="43.6439686" lon="6.6584514"><ele>545.0</ele><time>2026-04-12T08:41:13.875Z</time></trkpt><trkpt lat="43.6438913" lon="6.6584089"><ele>545.0</ele><time>2026-04-12T08:41:14.889Z</time></trkpt><trkpt lat="43.6438162" lon="6.6583584"><ele>545.0</ele><time>2026-04-12T08:41:15.859Z</time></trkpt><trkpt lat="43.6437385" lon="6.6582832"><ele>545.0</ele><time>2026-04-12T08:41:16.881Z</time></trkpt><trkpt lat="43.6436755" lon="6.6581894"><ele>545.0</ele><time>2026-04-12T08:41:17.881Z</time></trkpt><trkpt lat="43.6436102" lon="6.6580821"><ele>542.8</ele><time>2026-04-12T08:41:18.879Z</time></trkpt><trkpt lat="43.6435564" lon="6.6579651"><ele>540.6</ele><time>2026-04-12T08:41:19.879Z</time></trkpt><trkpt lat="43.6435022" lon="6.6578428"><ele>538.4</ele><time>2026-04-12T08:41:20.85Z</time></trkpt><trkpt lat="43.6434395" lon="6.6577196"><ele>536.2</ele><time>2026-04-12T08:41:21.883Z</time></trkpt><trkpt lat="43.643362" lon="6.6576211"><ele>534.0</ele><time>2026-04-12T08:41:22.896Z</time></trkpt><trkpt lat="43.6432733" lon="6.6575519"><ele>534.0</ele><time>2026-04-12T08:41:23.891Z</time></trkpt><trkpt lat="43.6431917" lon="6.6575009"><ele>534.0</ele><time>2026-04-12T08:41:24.869Z</time></trkpt><trkpt lat="43.6431266" lon="6.6574154"><ele>534.0</ele><time>2026-04-12T08:41:25.859Z</time></trkpt><trkpt lat="43.6430815" lon="6.6573149"><ele>534.0</ele><time>2026-04-12T08:41:26.876Z</time></trkpt><trkpt lat="43.6430491" lon="6.6571871"><ele>534.0</ele><time>2026-04-12T08:41:27.884Z</time></trkpt><trkpt lat="43.6430309" lon="6.6570431"><ele>535.0</ele><time>2026-04-12T08:41:28.872Z</time></trkpt><trkpt lat="43.6430109" lon="6.6569098"><ele>536.0</ele><time>2026-04-12T08:41:29.89Z</time></trkpt><trkpt lat="43.6429779" lon="6.65677"><ele>537.0</ele><time>2026-04-12T08:41:30.832Z</time></trkpt><trkpt lat="43.6429262" lon="6.656629"><ele>538.0</ele><time>2026-04-12T08:41:31.866Z</time></trkpt><trkpt lat="43.6428662" lon="6.6564852"><ele>539.0</ele><time>2026-04-12T08:41:32.888Z</time></trkpt><trkpt lat="43.6428082" lon="6.6563421"><ele>534.6</ele><time>2026-04-12T08:41:33.862Z</time></trkpt><trkpt lat="43.642764" lon="6.6562088"><ele>530.2</ele><time>2026-04-12T08:41:34.853Z</time></trkpt><trkpt lat="43.6427366" lon="6.6560751"><ele>525.8000000000001</ele><time>2026-04-12T08:41:35.865Z</time></trkpt><trkpt lat="43.6427062" lon="6.6559387"><ele>521.4</ele><time>2026-04-12T08:41:36.883Z</time></trkpt><trkpt lat="43.6426665" lon="6.6558069"><ele>517.0</ele><time>2026-04-12T08:41:37.865Z</time></trkpt><trkpt lat="43.642589" lon="6.6556916"><ele>517.0</ele><time>2026-04-12T08:41:38.853Z</time></trkpt><trkpt lat="43.6425031" lon="6.6555774"><ele>517.0</ele><time>2026-04-12T08:41:39.863Z</time></trkpt><trkpt lat="43.6424189" lon="6.655467"><ele>517.0</ele><time>2026-04-12T08:41:40.867Z</time></trkpt><trkpt lat="43.6423561" lon="6.6553615"><ele>517.0</ele><time>2026-04-12T08:41:41.898Z</time></trkpt><trkpt lat="43.6423137" lon="6.6552356"><ele>517.0</ele><time>2026-04-12T08:41:42.882Z</time></trkpt><trkpt lat="43.6422931" lon="6.6550884"><ele>518.25</ele><time>2026-04-12T08:41:43.887Z</time></trkpt><trkpt lat="43.6422838" lon="6.6549343"><ele>519.5</ele><time>2026-04-12T08:41:44.858Z</time></trkpt><trkpt lat="43.6422805" lon="6.6547765"><ele>520.75</ele><time>2026-04-12T08:41:45.874Z</time></trkpt><trkpt lat="43.642284" lon="6.6546124"><ele>522.0</ele><time>2026-04-12T08:41:46.886Z</time></trkpt><trkpt lat="43.6422814" lon="6.6544422"><ele>522.0</ele><time>2026-04-12T08:41:47.892Z</time></trkpt><trkpt lat="43.642276" lon="6.6542742"><ele>522.0</ele><time>2026-04-12T08:41:48.904Z</time></trkpt><trkpt lat="43.6422727" lon="6.6541033"><ele>522.0</ele><time>2026-04-12T08:41:49.851Z</time></trkpt><trkpt lat="43.6422696" lon="6.6539287"><ele>522.0</ele><time>2026-04-12T08:41:50.879Z</time></trkpt><trkpt lat="43.6422679" lon="6.6537489"><ele>520.25</ele><time>2026-04-12T08:41:51.883Z</time></trkpt><trkpt lat="43.6422677" lon="6.6535754"><ele>518.5</ele><time>2026-04-12T08:41:52.868Z</time></trkpt><trkpt lat="43.6422734" lon="6.6534046"><ele>516.75</ele><time>2026-04-12T08:41:53.875Z</time></trkpt><trkpt lat="43.6422893" lon="6.653232"><ele>515.0</ele><time>2026-04-12T08:41:54.855Z</time></trkpt><trkpt lat="43.6423218" lon="6.6530614"><ele>515.0</ele><time>2026-04-12T08:41:55.867Z</time></trkpt><trkpt lat="43.6423623" lon="6.6528887"><ele>515.0</ele><time>2026-04-12T08:41:56.86Z</time></trkpt><trkpt lat="43.6424018" lon="6.6527184"><ele>515.0</ele><time>2026-04-12T08:41:57.864Z</time></trkpt><trkpt lat="43.6424347" lon="6.6525391"><ele>515.0</ele><time>2026-04-12T08:41:58.87Z</time></trkpt><trkpt lat="43.6424665" lon="6.6523686"><ele>513.0</ele><time>2026-04-12T08:41:59.867Z</time></trkpt><trkpt lat="43.6424862" lon="6.6522044"><ele>511.0</ele><time>2026-04-12T08:42:00.883Z</time></trkpt><trkpt lat="43.6425112" lon="6.6520418"><ele>509.0</ele><time>2026-04-12T08:42:01.852Z</time></trkpt><trkpt lat="43.6425388" lon="6.6518878"><ele>507.0</ele><time>2026-04-12T08:42:02.896Z</time></trkpt><trkpt lat="43.6425794" lon="6.6517561"><ele>504.6</ele><time>2026-04-12T08:42:03.86Z</time></trkpt><trkpt lat="43.6426336" lon="6.6516231"><ele>502.20000000000005</ele><time>2026-04-12T08:42:04.869Z</time></trkpt><trkpt lat="43.6426903" lon="6.6514945"><ele>499.8</ele><time>2026-04-12T08:42:05.903Z</time></trkpt><trkpt lat="43.6427626" lon="6.6513803"><ele>497.4</ele><time>2026-04-12T08:42:06.85Z</time></trkpt><trkpt lat="43.6428486" lon="6.6512844"><ele>495.0</ele><time>2026-04-12T08:42:07.885Z</time></trkpt><trkpt lat="43.6429492" lon="6.6511996"><ele>496.5</ele><time>2026-04-12T08:42:08.844Z</time></trkpt><trkpt lat="43.6430396" lon="6.6511086"><ele>498.0</ele><time>2026-04-12T08:42:09.881Z</time></trkpt><trkpt lat="43.6431242" lon="6.6509936"><ele>499.5</ele><time>2026-04-12T08:42:10.856Z</time></trkpt><trkpt lat="43.6432092" lon="6.650866"><ele>501.0</ele><time>2026-04-12T08:42:11.849Z</time></trkpt><trkpt lat="43.6432879" lon="6.6507395"><ele>501.0</ele><time>2026-04-12T08:42:12.84Z</time></trkpt><trkpt lat="43.6433483" lon="6.6505965"><ele>501.0</ele><time>2026-04-12T08:42:13.867Z</time></trkpt><trkpt lat="43.6434024" lon="6.6504762"><ele>501.0</ele><time>2026-04-12T08:42:14.876Z</time></trkpt><trkpt lat="43.643466" lon="6.6503717"><ele>501.0</ele><time>2026-04-12T08:42:15.868Z</time></trkpt><trkpt lat="43.6435388" lon="6.6502995"><ele>501.0</ele><time>2026-04-12T08:42:16.865Z</time></trkpt><trkpt lat="43.6436395" lon="6.650255"><ele>500.6</ele><time>2026-04-12T08:42:17.866Z</time></trkpt><trkpt lat="43.6437548" lon="6.6501998"><ele>500.20000000000005</ele><time>2026-04-12T08:42:18.881Z</time></trkpt><trkpt lat="43.6438373" lon="6.6501122"><ele>499.79999999999995</ele><time>2026-04-12T08:42:19.882Z</time></trkpt><trkpt lat="43.6439006" lon="6.6499969"><ele>499.4</ele><time>2026-04-12T08:42:20.828Z</time></trkpt><trkpt lat="43.6439738" lon="6.6498867"><ele>499.0</ele><time>2026-04-12T08:42:21.878Z</time></trkpt><trkpt lat="43.6440505" lon="6.6498168"><ele>499.00000000000006</ele><time>2026-04-12T08:42:22.868Z</time></trkpt><trkpt lat="43.6441308" lon="6.6497722"><ele>499.0</ele><time>2026-04-12T08:42:23.874Z</time></trkpt><trkpt lat="43.6442135" lon="6.6497388"><ele>499.0</ele><time>2026-04-12T08:42:24.85Z</time></trkpt><trkpt lat="43.6442902" lon="6.6497121"><ele>499.0</ele><time>2026-04-12T08:42:25.844Z</time></trkpt><trkpt lat="43.6443602" lon="6.6496813"><ele>499.00000000000006</ele><time>2026-04-12T08:42:26.872Z</time></trkpt><trkpt lat="43.6444542" lon="6.6495996"><ele>499.0</ele><time>2026-04-12T08:42:28.857Z</time></trkpt><trkpt lat="43.6444148" lon="6.6494755"><ele>499.0</ele><time>2026-04-12T08:42:30.822Z</time></trkpt><trkpt lat="43.644285" lon="6.6494825"><ele>499.0</ele><time>2026-04-12T08:42:32.885Z</time></trkpt><trkpt lat="43.6442259" lon="6.6495326"><ele>499.0</ele><time>2026-04-12T08:42:33.835Z</time></trkpt><trkpt lat="43.6441566" lon="6.6495944"><ele>499.0</ele><time>2026-04-12T08:42:34.855Z</time></trkpt><trkpt lat="43.6440749" lon="6.6496322"><ele>499.0</ele><time>2026-04-12T08:42:35.866Z</time></trkpt><trkpt lat="43.6439915" lon="6.649653"><ele>499.0</ele><time>2026-04-12T08:42:36.856Z</time></trkpt><trkpt lat="43.643904" lon="6.6496818"><ele>499.0</ele><time>2026-04-12T08:42:37.865Z</time></trkpt><trkpt lat="43.6438127" lon="6.6497201"><ele>499.0</ele><time>2026-04-12T08:42:38.853Z</time></trkpt><trkpt lat="43.6437151" lon="6.6497701"><ele>499.0</ele><time>2026-04-12T08:42:39.869Z</time></trkpt><trkpt lat="43.6436199" lon="6.649853"><ele>499.0</ele><time>2026-04-12T08:42:40.855Z</time></trkpt><trkpt lat="43.6435299" lon="6.6499418"><ele>495.0</ele><time>2026-04-12T08:42:41.88Z</time></trkpt><trkpt lat="43.6434307" lon="6.6500087"><ele>491.0</ele><time>2026-04-12T08:42:42.821Z</time></trkpt><trkpt lat="43.6433205" lon="6.6500367"><ele>487.0</ele><time>2026-04-12T08:42:43.858Z</time></trkpt><trkpt lat="43.6432158" lon="6.6500552"><ele>483.0</ele><time>2026-04-12T08:42:44.866Z</time></trkpt><trkpt lat="43.6431186" lon="6.6500868"><ele>479.0</ele><time>2026-04-12T08:42:45.864Z</time></trkpt><trkpt lat="43.6430205" lon="6.650155"><ele>479.0</ele><time>2026-04-12T08:42:46.868Z</time></trkpt><trkpt lat="43.6429279" lon="6.6502208"><ele>479.0</ele><time>2026-04-12T08:42:47.857Z</time></trkpt><trkpt lat="43.6428286" lon="6.6502898"><ele>479.0</ele><time>2026-04-12T08:42:48.856Z</time></trkpt><trkpt lat="43.6427182" lon="6.6503435"><ele>479.0</ele><time>2026-04-12T08:42:49.854Z</time></trkpt><trkpt lat="43.6426027" lon="6.6503689"><ele>479.0</ele><time>2026-04-12T08:42:50.851Z</time></trkpt><trkpt lat="43.6424795" lon="6.6503793"><ele>479.5</ele><time>2026-04-12T08:42:51.892Z</time></trkpt><trkpt lat="43.6423565" lon="6.6503841"><ele>480.0</ele><time>2026-04-12T08:42:52.872Z</time></trkpt><trkpt lat="43.6422318" lon="6.6503973"><ele>480.5</ele><time>2026-04-12T08:42:53.846Z</time></trkpt><trkpt lat="43.6421053" lon="6.650418"><ele>481.0</ele><time>2026-04-12T08:42:54.884Z</time></trkpt><trkpt lat="43.6419848" lon="6.6504601"><ele>478.4</ele><time>2026-04-12T08:42:55.859Z</time></trkpt><trkpt lat="43.6418737" lon="6.6504984"><ele>475.8</ele><time>2026-04-12T08:42:56.893Z</time></trkpt><trkpt lat="43.6417719" lon="6.6505413"><ele>473.19999999999993</ele><time>2026-04-12T08:42:57.844Z</time></trkpt><trkpt lat="43.6416709" lon="6.6505738"><ele>470.59999999999997</ele><time>2026-04-12T08:42:58.901Z</time></trkpt><trkpt lat="43.6415732" lon="6.65061"><ele>468.0</ele><time>2026-04-12T08:42:59.843Z</time></trkpt><trkpt lat="43.6414737" lon="6.6506352"><ele>468.0</ele><time>2026-04-12T08:43:00.877Z</time></trkpt><trkpt lat="43.6413789" lon="6.6506341"><ele>468.0</ele><time>2026-04-12T08:43:01.878Z</time></trkpt><trkpt lat="43.6412869" lon="6.6506227"><ele>468.0</ele><time>2026-04-12T08:43:02.873Z</time></trkpt><trkpt lat="43.6412058" lon="6.6506088"><ele>468.0</ele><time>2026-04-12T08:43:03.875Z</time></trkpt><trkpt lat="43.6411227" lon="6.650612"><ele>468.0</ele><time>2026-04-12T08:43:04.861Z</time></trkpt><trkpt lat="43.6410451" lon="6.6506658"><ele>468.0</ele><time>2026-04-12T08:43:05.876Z</time></trkpt><trkpt lat="43.6409748" lon="6.6507601"><ele>464.2</ele><time>2026-04-12T08:43:06.831Z</time></trkpt><trkpt lat="43.6409472" lon="6.650891"><ele>460.4</ele><time>2026-04-12T08:43:07.867Z</time></trkpt><trkpt lat="43.6409493" lon="6.651021"><ele>456.59999999999997</ele><time>2026-04-12T08:43:08.872Z</time></trkpt><trkpt lat="43.6409583" lon="6.6511637"><ele>452.79999999999995</ele><time>2026-04-12T08:43:09.868Z</time></trkpt><trkpt lat="43.6409624" lon="6.6513044"><ele>449.0</ele><time>2026-04-12T08:43:10.875Z</time></trkpt><trkpt lat="43.640954" lon="6.6514433"><ele>449.0</ele><time>2026-04-12T08:43:11.893Z</time></trkpt><trkpt lat="43.6409383" lon="6.6516002"><ele>449.0</ele><time>2026-04-12T08:43:12.855Z</time></trkpt><trkpt lat="43.6409166" lon="6.6517539"><ele>449.0</ele><time>2026-04-12T08:43:13.864Z</time></trkpt><trkpt lat="43.6408936" lon="6.6518871"><ele>449.0</ele><time>2026-04-12T08:43:14.831Z</time></trkpt><trkpt lat="43.6408705" lon="6.6520221"><ele>449.0</ele><time>2026-04-12T08:43:15.896Z</time></trkpt><trkpt lat="43.6408441" lon="6.6521459"><ele>450.16666666666663</ele><time>2026-04-12T08:43:16.858Z</time></trkpt><trkpt lat="43.6408124" lon="6.6522643"><ele>451.3333333333333</ele><time>2026-04-12T08:43:17.887Z</time></trkpt><trkpt lat="43.6407555" lon="6.6523606"><ele>452.5</ele><time>2026-04-12T08:43:18.88Z</time></trkpt><trkpt lat="43.6406785" lon="6.6524263"><ele>453.66666666666663</ele><time>2026-04-12T08:43:19.877Z</time></trkpt><trkpt lat="43.6405948" lon="6.6524674"><ele>454.8333333333333</ele><time>2026-04-12T08:43:20.883Z</time></trkpt><trkpt lat="43.6405105" lon="6.6525004"><ele>456.0</ele><time>2026-04-12T08:43:21.881Z</time></trkpt><trkpt lat="43.6404174" lon="6.6525369"><ele>456.0</ele><time>2026-04-12T08:43:22.892Z</time></trkpt><trkpt lat="43.6403217" lon="6.652577"><ele>456.0</ele><time>2026-04-12T08:43:23.873Z</time></trkpt><trkpt lat="43.640223" lon="6.652614"><ele>456.0</ele><time>2026-04-12T08:43:24.89Z</time></trkpt><trkpt lat="43.6401259" lon="6.6526462"><ele>456.0</ele><time>2026-04-12T08:43:25.846Z</time></trkpt><trkpt lat="43.6400238" lon="6.6526949"><ele>456.0</ele><time>2026-04-12T08:43:26.853Z</time></trkpt><trkpt lat="43.6399195" lon="6.6527496"><ele>454.25</ele><time>2026-04-12T08:43:27.86Z</time></trkpt><trkpt lat="43.6398157" lon="6.6528099"><ele>452.5</ele><time>2026-04-12T08:43:28.883Z</time></trkpt><trkpt lat="43.639709" lon="6.6528676"><ele>450.75</ele><time>2026-04-12T08:43:29.878Z</time></trkpt><trkpt lat="43.6396068" lon="6.6529354"><ele>449.0</ele><time>2026-04-12T08:43:30.894Z</time></trkpt><trkpt lat="43.6395114" lon="6.6530134"><ele>445.0</ele><time>2026-04-12T08:43:31.892Z</time></trkpt><trkpt lat="43.6394209" lon="6.6531032"><ele>441.0</ele><time>2026-04-12T08:43:32.857Z</time></trkpt><trkpt lat="43.6393487" lon="6.653205"><ele>437.0</ele><time>2026-04-12T08:43:33.865Z</time></trkpt><trkpt lat="43.6392918" lon="6.6533221"><ele>433.0</ele><time>2026-04-12T08:43:34.864Z</time></trkpt><trkpt lat="43.6392571" lon="6.6534298"><ele>429.0</ele><time>2026-04-12T08:43:35.878Z</time></trkpt><trkpt lat="43.6392472" lon="6.6535417"><ele>428.0</ele><time>2026-04-12T08:43:36.841Z</time></trkpt><trkpt lat="43.6392684" lon="6.6536457"><ele>427.0</ele><time>2026-04-12T08:43:37.849Z</time></trkpt><trkpt lat="43.6393063" lon="6.6537344"><ele>426.0</ele><time>2026-04-12T08:43:38.847Z</time></trkpt><trkpt lat="43.6393579" lon="6.6538065"><ele>425.0</ele><time>2026-04-12T08:43:39.881Z</time></trkpt><trkpt lat="43.6394137" lon="6.6538789"><ele>424.0</ele><time>2026-04-12T08:43:40.878Z</time></trkpt><trkpt lat="43.6394626" lon="6.6539569"><ele>423.0</ele><time>2026-04-12T08:43:41.867Z</time></trkpt><trkpt lat="43.6394829" lon="6.6540457"><ele>422.0</ele><time>2026-04-12T08:43:42.86Z</time></trkpt><trkpt lat="43.6394701" lon="6.6541475"><ele>421.99999999999994</ele><time>2026-04-12T08:43:43.866Z</time></trkpt><trkpt lat="43.6394219" lon="6.6542263"><ele>422.0</ele><time>2026-04-12T08:43:44.878Z</time></trkpt><trkpt lat="43.6393109" lon="6.6542466"><ele>422.0</ele><time>2026-04-12T08:43:46.861Z</time></trkpt><trkpt lat="43.6392596" lon="6.6541844"><ele>422.0</ele><time>2026-04-12T08:43:47.829Z</time></trkpt><trkpt lat="43.6392135" lon="6.6541031"><ele>421.99999999999994</ele><time>2026-04-12T08:43:48.879Z</time></trkpt><trkpt lat="43.6391633" lon="6.6540121"><ele>422.0</ele><time>2026-04-12T08:43:49.871Z</time></trkpt><trkpt lat="43.6391176" lon="6.6539216"><ele>421.99999999999994</ele><time>2026-04-12T08:43:50.853Z</time></trkpt><trkpt lat="43.6390691" lon="6.6538341"><ele>422.0</ele><time>2026-04-12T08:43:51.874Z</time></trkpt><trkpt lat="43.6390192" lon="6.6537349"><ele>422.0</ele><time>2026-04-12T08:43:52.883Z</time></trkpt><trkpt lat="43.6389726" lon="6.6536361"><ele>422.0</ele><time>2026-04-12T08:43:53.898Z</time></trkpt><trkpt lat="43.6389178" lon="6.6535421"><ele>421.99999999999994</ele><time>2026-04-12T08:43:54.887Z</time></trkpt><trkpt lat="43.638865" lon="6.6534383"><ele>422.0</ele><time>2026-04-12T08:43:55.883Z</time></trkpt><trkpt lat="43.6388212" lon="6.6533387"><ele>421.99999999999994</ele><time>2026-04-12T08:43:56.864Z</time></trkpt><trkpt lat="43.6387834" lon="6.6532237"><ele>422.0</ele><time>2026-04-12T08:43:57.888Z</time></trkpt><trkpt lat="43.6387426" lon="6.6531216"><ele>422.0</ele><time>2026-04-12T08:43:58.877Z</time></trkpt><trkpt lat="43.6387072" lon="6.6530265"><ele>422.0</ele><time>2026-04-12T08:43:59.881Z</time></trkpt><trkpt lat="43.6386884" lon="6.6529284"><ele>421.99999999999994</ele><time>2026-04-12T08:44:00.876Z</time></trkpt><trkpt lat="43.6386944" lon="6.6528376"><ele>422.0</ele><time>2026-04-12T08:44:01.881Z</time></trkpt><trkpt lat="43.6387446" lon="6.6527516"><ele>422.0</ele><time>2026-04-12T08:44:02.857Z</time></trkpt><trkpt lat="43.6388103" lon="6.652678"><ele>422.0</ele><time>2026-04-12T08:44:03.854Z</time></trkpt><trkpt lat="43.638877" lon="6.6526046"><ele>422.0</ele><time>2026-04-12T08:44:04.882Z</time></trkpt><trkpt lat="43.6389528" lon="6.6525264"><ele>422.0</ele><time>2026-04-12T08:44:05.851Z</time></trkpt><trkpt lat="43.6390252" lon="6.6524522"><ele>422.0</ele><time>2026-04-12T08:44:06.879Z</time></trkpt><trkpt lat="43.6390981" lon="6.6523618"><ele>421.99999999999994</ele><time>2026-04-12T08:44:07.868Z</time></trkpt><trkpt lat="43.6391697" lon="6.6522789"><ele>422.0</ele><time>2026-04-12T08:44:08.885Z</time></trkpt><trkpt lat="43.6392423" lon="6.6521963"><ele>422.0</ele><time>2026-04-12T08:44:09.875Z</time></trkpt><trkpt lat="43.6393041" lon="6.6521082"><ele>422.0</ele><time>2026-04-12T08:44:10.867Z</time></trkpt><trkpt lat="43.639347" lon="6.6520133"><ele>421.99999999999994</ele><time>2026-04-12T08:44:11.886Z</time></trkpt><trkpt lat="43.6393768" lon="6.6519099"><ele>422.0</ele><time>2026-04-12T08:44:12.867Z</time></trkpt><trkpt lat="43.6393899" lon="6.6517839"><ele>419.40000000000003</ele><time>2026-04-12T08:44:13.898Z</time></trkpt><trkpt lat="43.639379" lon="6.6516472"><ele>416.8</ele><time>2026-04-12T08:44:14.858Z</time></trkpt><trkpt lat="43.6393641" lon="6.6515191"><ele>414.2</ele><time>2026-04-12T08:44:15.878Z</time></trkpt><trkpt lat="43.6393525" lon="6.6513904"><ele>411.6</ele><time>2026-04-12T08:44:16.837Z</time></trkpt><trkpt lat="43.6393402" lon="6.6512642"><ele>409.0</ele><time>2026-04-12T08:44:17.878Z</time></trkpt><trkpt lat="43.6393235" lon="6.6511365"><ele>408.00000000000006</ele><time>2026-04-12T08:44:18.867Z</time></trkpt><trkpt lat="43.639303" lon="6.6510012"><ele>407.0</ele><time>2026-04-12T08:44:19.876Z</time></trkpt><trkpt lat="43.639289" lon="6.6508842"><ele>406.0</ele><time>2026-04-12T08:44:20.876Z</time></trkpt><trkpt lat="43.6392764" lon="6.6507714"><ele>405.0</ele><time>2026-04-12T08:44:21.867Z</time></trkpt><trkpt lat="43.6392679" lon="6.6506572"><ele>404.00000000000006</ele><time>2026-04-12T08:44:22.867Z</time></trkpt><trkpt lat="43.6392621" lon="6.6505374"><ele>403.0</ele><time>2026-04-12T08:44:23.877Z</time></trkpt><trkpt lat="43.6392715" lon="6.6504111"><ele>402.1666666666667</ele><time>2026-04-12T08:44:24.88Z</time></trkpt><trkpt lat="43.6392761" lon="6.6502881"><ele>401.33333333333337</ele><time>2026-04-12T08:44:25.876Z</time></trkpt><trkpt lat="43.6392839" lon="6.6501643"><ele>400.5</ele><time>2026-04-12T08:44:26.856Z</time></trkpt><trkpt lat="43.6393009" lon="6.6500415"><ele>399.66666666666663</ele><time>2026-04-12T08:44:27.872Z</time></trkpt><trkpt lat="43.6393189" lon="6.6499236"><ele>398.8333333333333</ele><time>2026-04-12T08:44:28.879Z</time></trkpt><trkpt lat="43.6393381" lon="6.6498159"><ele>398.0</ele><time>2026-04-12T08:44:29.877Z</time></trkpt><trkpt lat="43.6393567" lon="6.6497059"><ele>397.99999999999994</ele><time>2026-04-12T08:44:30.868Z</time></trkpt><trkpt lat="43.6393779" lon="6.6495958"><ele>398.0</ele><time>2026-04-12T08:44:31.885Z</time></trkpt><trkpt lat="43.6394014" lon="6.6494928"><ele>398.0</ele><time>2026-04-12T08:44:32.877Z</time></trkpt><trkpt lat="43.6394188" lon="6.6493901"><ele>398.0</ele><time>2026-04-12T08:44:33.868Z</time></trkpt><trkpt lat="43.6394106" lon="6.6492892"><ele>397.99999999999994</ele><time>2026-04-12T08:44:34.873Z</time></trkpt><trkpt lat="43.6393735" lon="6.6492024"><ele>398.0</ele><time>2026-04-12T08:44:35.885Z</time></trkpt><trkpt lat="43.6393219" lon="6.649119"><ele>397.99999999999994</ele><time>2026-04-12T08:44:36.852Z</time></trkpt><trkpt lat="43.6392701" lon="6.6490401"><ele>398.0</ele><time>2026-04-12T08:44:37.882Z</time></trkpt><trkpt lat="43.6392134" lon="6.64896"><ele>398.0</ele><time>2026-04-12T08:44:38.863Z</time></trkpt><trkpt lat="43.6391563" lon="6.6488967"><ele>398.0</ele><time>2026-04-12T08:44:39.888Z</time></trkpt><trkpt lat="43.6390882" lon="6.6488396"><ele>397.99999999999994</ele><time>2026-04-12T08:44:40.887Z</time></trkpt><trkpt lat="43.6390124" lon="6.6487962"><ele>398.0</ele><time>2026-04-12T08:44:41.884Z</time></trkpt><trkpt lat="43.6389382" lon="6.6487641"><ele>397.99999999999994</ele><time>2026-04-12T08:44:42.857Z</time></trkpt><trkpt lat="43.6388619" lon="6.6487242"><ele>398.0</ele><time>2026-04-12T08:44:43.884Z</time></trkpt><trkpt lat="43.6387977" lon="6.6486559"><ele>398.0</ele><time>2026-04-12T08:44:44.858Z</time></trkpt><trkpt lat="43.6387486" lon="6.6485661"><ele>398.0</ele><time>2026-04-12T08:44:45.859Z</time></trkpt><trkpt lat="43.6387037" lon="6.6484731"><ele>397.99999999999994</ele><time>2026-04-12T08:44:46.851Z</time></trkpt><trkpt lat="43.638665" lon="6.6483782"><ele>398.0</ele><time>2026-04-12T08:44:47.859Z</time></trkpt><trkpt lat="43.6386187" lon="6.6482803"><ele>397.49999999999994</ele><time>2026-04-12T08:44:48.867Z</time></trkpt><trkpt lat="43.6385607" lon="6.6481839"><ele>397.0</ele><time>2026-04-12T08:44:49.85Z</time></trkpt><trkpt lat="43.638509" lon="6.6480959"><ele>396.5</ele><time>2026-04-12T08:44:50.843Z</time></trkpt><trkpt lat="43.6384647" lon="6.6479985"><ele>396.0</ele><time>2026-04-12T08:44:51.868Z</time></trkpt><trkpt lat="43.6384203" lon="6.6478996"><ele>395.49999999999994</ele><time>2026-04-12T08:44:52.889Z</time></trkpt><trkpt lat="43.6383794" lon="6.6478016"><ele>395.0</ele><time>2026-04-12T08:44:53.865Z</time></trkpt><trkpt lat="43.6383395" lon="6.6477063"><ele>394.49999999999994</ele><time>2026-04-12T08:44:54.864Z</time></trkpt><trkpt lat="43.6383017" lon="6.6476163"><ele>394.0</ele><time>2026-04-12T08:44:55.854Z</time></trkpt><trkpt lat="43.6382577" lon="6.6475371"><ele>393.5</ele><time>2026-04-12T08:44:56.866Z</time></trkpt><trkpt lat="43.6382222" lon="6.6474598"><ele>393.0</ele><time>2026-04-12T08:44:57.891Z</time></trkpt><trkpt lat="43.6381551" lon="6.6473424"><ele>392.49999999999994</ele><time>2026-04-12T08:44:59.885Z</time></trkpt><trkpt lat="43.6380995" lon="6.6472618"><ele>392.0</ele><time>2026-04-12T08:45:01.878Z</time></trkpt><trkpt lat="43.6380003" lon="6.6473146"><ele>391.99999999999994</ele><time>2026-04-12T08:45:03.884Z</time></trkpt><trkpt lat="43.6379434" lon="6.6473678"><ele>392.0</ele><time>2026-04-12T08:45:04.879Z</time></trkpt><trkpt lat="43.6378631" lon="6.6474256"><ele>392.0</ele><time>2026-04-12T08:45:05.869Z</time></trkpt><trkpt lat="43.637779" lon="6.6474641"><ele>392.0</ele><time>2026-04-12T08:45:06.894Z</time></trkpt><trkpt lat="43.6376899" lon="6.6474965"><ele>391.99999999999994</ele><time>2026-04-12T08:45:07.846Z</time></trkpt><trkpt lat="43.6376053" lon="6.6475271"><ele>392.0</ele><time>2026-04-12T08:45:08.878Z</time></trkpt><trkpt lat="43.6375219" lon="6.647549"><ele>390.16666666666663</ele><time>2026-04-12T08:45:09.894Z</time></trkpt><trkpt lat="43.6374397" lon="6.6475672"><ele>388.3333333333333</ele><time>2026-04-12T08:45:10.857Z</time></trkpt><trkpt lat="43.6373575" lon="6.6475784"><ele>386.5</ele><time>2026-04-12T08:45:11.887Z</time></trkpt><trkpt lat="43.6372751" lon="6.6475826"><ele>384.66666666666663</ele><time>2026-04-12T08:45:12.871Z</time></trkpt><trkpt lat="43.6371931" lon="6.647576"><ele>382.8333333333333</ele><time>2026-04-12T08:45:13.871Z</time></trkpt><trkpt lat="43.6371007" lon="6.6475646"><ele>381.0</ele><time>2026-04-12T08:45:14.886Z</time></trkpt><trkpt lat="43.6370069" lon="6.6475577"><ele>379.8</ele><time>2026-04-12T08:45:15.871Z</time></trkpt><trkpt lat="43.6369125" lon="6.6475596"><ele>378.6</ele><time>2026-04-12T08:45:16.869Z</time></trkpt><trkpt lat="43.6368181" lon="6.6475597"><ele>377.4</ele><time>2026-04-12T08:45:17.872Z</time></trkpt><trkpt lat="43.6367241" lon="6.6475577"><ele>376.2</ele><time>2026-04-12T08:45:18.857Z</time></trkpt><trkpt lat="43.6366309" lon="6.6475506"><ele>375.0</ele><time>2026-04-12T08:45:19.87Z</time></trkpt><trkpt lat="43.6365351" lon="6.6475467"><ele>375.0</ele><time>2026-04-12T08:45:20.881Z</time></trkpt><trkpt lat="43.6364375" lon="6.6475463"><ele>375.0</ele><time>2026-04-12T08:45:21.886Z</time></trkpt><trkpt lat="43.6363504" lon="6.6475348"><ele>375.0</ele><time>2026-04-12T08:45:22.849Z</time></trkpt><trkpt lat="43.6362648" lon="6.6475147"><ele>375.0</ele><time>2026-04-12T08:45:23.907Z</time></trkpt><trkpt lat="43.6361841" lon="6.6475188"><ele>375.0</ele><time>2026-04-12T08:45:24.878Z</time></trkpt><trkpt lat="43.6361131" lon="6.6475655"><ele>375.0</ele><time>2026-04-12T08:45:25.888Z</time></trkpt><trkpt lat="43.6360487" lon="6.6476374"><ele>374.1666666666667</ele><time>2026-04-12T08:45:26.852Z</time></trkpt><trkpt lat="43.6360061" lon="6.6477422"><ele>373.3333333333333</ele><time>2026-04-12T08:45:27.859Z</time></trkpt><trkpt lat="43.6359743" lon="6.6478524"><ele>372.5</ele><time>2026-04-12T08:45:28.855Z</time></trkpt><trkpt lat="43.6359506" lon="6.6479678"><ele>371.66666666666663</ele><time>2026-04-12T08:45:29.886Z</time></trkpt><trkpt lat="43.635922" lon="6.6480826"><ele>370.8333333333333</ele><time>2026-04-12T08:45:30.863Z</time></trkpt><trkpt lat="43.6358873" lon="6.6481926"><ele>370.0</ele><time>2026-04-12T08:45:31.882Z</time></trkpt><trkpt lat="43.6358391" lon="6.6482901"><ele>369.6</ele><time>2026-04-12T08:45:32.877Z</time></trkpt><trkpt lat="43.6357667" lon="6.6483741"><ele>369.2</ele><time>2026-04-12T08:45:33.873Z</time></trkpt><trkpt lat="43.6356826" lon="6.648441"><ele>368.79999999999995</ele><time>2026-04-12T08:45:34.866Z</time></trkpt><trkpt lat="43.6356013" lon="6.6485032"><ele>368.4</ele><time>2026-04-12T08:45:35.866Z</time></trkpt><trkpt lat="43.635517" lon="6.6485684"><ele>368.0</ele><time>2026-04-12T08:45:36.883Z</time></trkpt><trkpt lat="43.6354353" lon="6.6486346"><ele>367.79999999999995</ele><time>2026-04-12T08:45:37.857Z</time></trkpt><trkpt lat="43.6353518" lon="6.6486931"><ele>367.6</ele><time>2026-04-12T08:45:38.886Z</time></trkpt><trkpt lat="43.6352703" lon="6.6487552"><ele>367.4</ele><time>2026-04-12T08:45:39.895Z</time></trkpt><trkpt lat="43.6351805" lon="6.6488298"><ele>367.20000000000005</ele><time>2026-04-12T08:45:40.884Z</time></trkpt><trkpt lat="43.6350969" lon="6.6489001"><ele>367.0</ele><time>2026-04-12T08:45:41.83Z</time></trkpt><trkpt lat="43.6350152" lon="6.6489822"><ele>365.6</ele><time>2026-04-12T08:45:42.886Z</time></trkpt><trkpt lat="43.6349417" lon="6.6490811"><ele>364.20000000000005</ele><time>2026-04-12T08:45:43.888Z</time></trkpt><trkpt lat="43.6348701" lon="6.6491833"><ele>362.8</ele><time>2026-04-12T08:45:44.865Z</time></trkpt><trkpt lat="43.6347895" lon="6.649293"><ele>361.4</ele><time>2026-04-12T08:45:45.871Z</time></trkpt><trkpt lat="43.6347147" lon="6.6494121"><ele>360.0</ele><time>2026-04-12T08:45:46.844Z</time></trkpt><trkpt lat="43.6346429" lon="6.6495261"><ele>359.8</ele><time>2026-04-12T08:45:47.881Z</time></trkpt><trkpt lat="43.6345773" lon="6.6496336"><ele>359.6</ele><time>2026-04-12T08:45:48.869Z</time></trkpt><trkpt lat="43.6345097" lon="6.6497372"><ele>359.4</ele><time>2026-04-12T08:45:49.872Z</time></trkpt><trkpt lat="43.6344431" lon="6.6498458"><ele>359.2</ele><time>2026-04-12T08:45:50.878Z</time></trkpt><trkpt lat="43.634384" lon="6.649953"><ele>359.0</ele><time>2026-04-12T08:45:51.846Z</time></trkpt><trkpt lat="43.6343335" lon="6.6500492"><ele>358.33333333333337</ele><time>2026-04-12T08:45:52.876Z</time></trkpt><trkpt lat="43.6342961" lon="6.6501453"><ele>357.6666666666667</ele><time>2026-04-12T08:45:53.881Z</time></trkpt><trkpt lat="43.6342662" lon="6.6502461"><ele>357.0</ele><time>2026-04-12T08:45:54.865Z</time></trkpt><trkpt lat="43.6342398" lon="6.6503534"><ele>356.3333333333333</ele><time>2026-04-12T08:45:55.865Z</time></trkpt><trkpt lat="43.6342126" lon="6.6504468"><ele>355.66666666666663</ele><time>2026-04-12T08:45:56.848Z</time></trkpt><trkpt lat="43.6341578" lon="6.6505932"><ele>355.0</ele><time>2026-04-12T08:45:58.891Z</time></trkpt><trkpt lat="43.6340486" lon="6.6506274"><ele>354.66666666666663</ele><time>2026-04-12T08:46:00.87Z</time></trkpt><trkpt lat="43.6339779" lon="6.6505993"><ele>354.3333333333333</ele><time>2026-04-12T08:46:01.886Z</time></trkpt><trkpt lat="43.6339173" lon="6.6505647"><ele>354.0</ele><time>2026-04-12T08:46:02.849Z</time></trkpt><trkpt lat="43.6337965" lon="6.6504835"><ele>353.6666666666667</ele><time>2026-04-12T08:46:04.82Z</time></trkpt><trkpt lat="43.6337183" lon="6.6504418"><ele>353.33333333333337</ele><time>2026-04-12T08:46:05.873Z</time></trkpt><trkpt lat="43.6336383" lon="6.6503788"><ele>353.0</ele><time>2026-04-12T08:46:06.854Z</time></trkpt><trkpt lat="43.6335637" lon="6.6503192"><ele>352.0</ele><time>2026-04-12T08:46:07.871Z</time></trkpt><trkpt lat="43.6334847" lon="6.6502575"><ele>351.0</ele><time>2026-04-12T08:46:08.843Z</time></trkpt><trkpt lat="43.6333971" lon="6.6501881"><ele>350.0</ele><time>2026-04-12T08:46:09.849Z</time></trkpt><trkpt lat="43.6333181" lon="6.6501279"><ele>349.0</ele><time>2026-04-12T08:46:10.83Z</time></trkpt><trkpt lat="43.6332327" lon="6.6500705"><ele>348.0</ele><time>2026-04-12T08:46:11.855Z</time></trkpt><trkpt lat="43.6331351" lon="6.6500248"><ele>348.0</ele><time>2026-04-12T08:46:12.875Z</time></trkpt><trkpt lat="43.6330403" lon="6.649954"><ele>348.0</ele><time>2026-04-12T08:46:13.868Z</time></trkpt><trkpt lat="43.6329481" lon="6.6498721"><ele>348.0</ele><time>2026-04-12T08:46:14.84Z</time></trkpt><trkpt lat="43.6328649" lon="6.6498057"><ele>348.0</ele><time>2026-04-12T08:46:15.885Z</time></trkpt><trkpt lat="43.632766" lon="6.6497289"><ele>348.0</ele><time>2026-04-12T08:46:16.848Z</time></trkpt><trkpt lat="43.6326676" lon="6.6496674"><ele>347.2</ele><time>2026-04-12T08:46:17.892Z</time></trkpt><trkpt lat="43.6325704" lon="6.649595"><ele>346.4</ele><time>2026-04-12T08:46:18.9Z</time></trkpt><trkpt lat="43.6324769" lon="6.6495253"><ele>345.59999999999997</ele><time>2026-04-12T08:46:19.846Z</time></trkpt><trkpt lat="43.6323747" lon="6.6494469"><ele>344.79999999999995</ele><time>2026-04-12T08:46:20.875Z</time></trkpt><trkpt lat="43.6322741" lon="6.6493761"><ele>344.0</ele><time>2026-04-12T08:46:21.833Z</time></trkpt><trkpt lat="43.6321812" lon="6.6493129"><ele>344.0</ele><time>2026-04-12T08:46:22.909Z</time></trkpt><trkpt lat="43.6320921" lon="6.6492526"><ele>344.0</ele><time>2026-04-12T08:46:23.879Z</time></trkpt><trkpt lat="43.6320058" lon="6.6491903"><ele>344.0</ele><time>2026-04-12T08:46:24.891Z</time></trkpt><trkpt lat="43.6319226" lon="6.6491208"><ele>344.0</ele><time>2026-04-12T08:46:25.866Z</time></trkpt><trkpt lat="43.6318423" lon="6.649059"><ele>344.0</ele><time>2026-04-12T08:46:26.891Z</time></trkpt><trkpt lat="43.6317579" lon="6.6490112"><ele>343.2</ele><time>2026-04-12T08:46:27.85Z</time></trkpt><trkpt lat="43.63166" lon="6.6489969"><ele>342.4</ele><time>2026-04-12T08:46:28.884Z</time></trkpt><trkpt lat="43.6315676" lon="6.6489959"><ele>341.6</ele><time>2026-04-12T08:46:29.864Z</time></trkpt><trkpt lat="43.6314743" lon="6.6490024"><ele>340.8</ele><time>2026-04-12T08:46:30.885Z</time></trkpt><trkpt lat="43.6313893" lon="6.6490223"><ele>340.0</ele><time>2026-04-12T08:46:31.878Z</time></trkpt><trkpt lat="43.6313103" lon="6.6490687"><ele>340.0</ele><time>2026-04-12T08:46:32.867Z</time></trkpt><trkpt lat="43.6312551" lon="6.6491452"><ele>340.0</ele><time>2026-04-12T08:46:33.86Z</time></trkpt><trkpt lat="43.6312187" lon="6.6492351"><ele>340.0</ele><time>2026-04-12T08:46:34.835Z</time></trkpt><trkpt lat="43.6311974" lon="6.6493357"><ele>340.0</ele><time>2026-04-12T08:46:35.854Z</time></trkpt><trkpt lat="43.6311622" lon="6.6494453"><ele>340.0</ele><time>2026-04-12T08:46:36.86Z</time></trkpt><trkpt lat="43.6311361" lon="6.6495361"><ele>340.0</ele><time>2026-04-12T08:46:37.832Z</time></trkpt><trkpt lat="43.6311034" lon="6.6496158"><ele>340.16666666666663</ele><time>2026-04-12T08:46:38.848Z</time></trkpt><trkpt lat="43.6310666" lon="6.6496875"><ele>340.3333333333333</ele><time>2026-04-12T08:46:39.878Z</time></trkpt><trkpt lat="43.6310116" lon="6.6497588"><ele>340.5</ele><time>2026-04-12T08:46:40.85Z</time></trkpt><trkpt lat="43.6309539" lon="6.6498283"><ele>340.6666666666667</ele><time>2026-04-12T08:46:41.89Z</time></trkpt><trkpt lat="43.630842" lon="6.6499026"><ele>340.83333333333337</ele><time>2026-04-12T08:46:43.865Z</time></trkpt><trkpt lat="43.6307753" lon="6.6499307"><ele>341.0</ele><time>2026-04-12T08:46:44.868Z</time></trkpt><trkpt lat="43.6307076" lon="6.6499607"><ele>341.0</ele><time>2026-04-12T08:46:45.87Z</time></trkpt><trkpt lat="43.6306357" lon="6.6499778"><ele>341.0</ele><time>2026-04-12T08:46:46.85Z</time></trkpt><trkpt lat="43.6305698" lon="6.6499763"><ele>341.0</ele><time>2026-04-12T08:46:47.891Z</time></trkpt><trkpt lat="43.630499" lon="6.6499777"><ele>341.0</ele><time>2026-04-12T08:46:48.853Z</time></trkpt><trkpt lat="43.6304295" lon="6.6499719"><ele>341.0</ele><time>2026-04-12T08:46:49.901Z</time></trkpt><trkpt lat="43.6303601" lon="6.649957"><ele>341.0</ele><time>2026-04-12T08:46:50.865Z</time></trkpt><trkpt lat="43.6302817" lon="6.6499325"><ele>341.0</ele><time>2026-04-12T08:46:51.87Z</time></trkpt><trkpt lat="43.6302102" lon="6.6499004"><ele>341.0</ele><time>2026-04-12T08:46:52.861Z</time></trkpt><trkpt lat="43.6301334" lon="6.6498618"><ele>341.0</ele><time>2026-04-12T08:46:53.871Z</time></trkpt><trkpt lat="43.6300493" lon="6.6498333"><ele>341.0</ele><time>2026-04-12T08:46:54.855Z</time></trkpt><trkpt lat="43.6299685" lon="6.6498135"><ele>341.0</ele><time>2026-04-12T08:46:55.858Z</time></trkpt><trkpt lat="43.6298868" lon="6.6497929"><ele>341.0</ele><time>2026-04-12T08:46:56.878Z</time></trkpt><trkpt lat="43.6298056" lon="6.6497688"><ele>341.0</ele><time>2026-04-12T08:46:57.822Z</time></trkpt><trkpt lat="43.6297369" lon="6.6497439"><ele>341.0</ele><time>2026-04-12T08:46:58.884Z</time></trkpt><trkpt lat="43.6296634" lon="6.6497271"><ele>341.0</ele><time>2026-04-12T08:46:59.863Z</time></trkpt><trkpt lat="43.629577" lon="6.6497405"><ele>341.0</ele><time>2026-04-12T08:47:00.906Z</time></trkpt><trkpt lat="43.6294828" lon="6.6497786"><ele>341.0</ele><time>2026-04-12T08:47:01.864Z</time></trkpt><trkpt lat="43.6293911" lon="6.6498305"><ele>341.0</ele><time>2026-04-12T08:47:02.866Z</time></trkpt><trkpt lat="43.6293057" lon="6.6498822"><ele>341.0</ele><time>2026-04-12T08:47:03.874Z</time></trkpt><trkpt lat="43.629225" lon="6.6499286"><ele>341.0</ele><time>2026-04-12T08:47:04.85Z</time></trkpt><trkpt lat="43.6291459" lon="6.6499886"><ele>341.0</ele><time>2026-04-12T08:47:05.852Z</time></trkpt><trkpt lat="43.6290794" lon="6.6500459"><ele>341.0</ele><time>2026-04-12T08:47:06.879Z</time></trkpt><trkpt lat="43.6290214" lon="6.6501253"><ele>341.0</ele><time>2026-04-12T08:47:07.905Z</time></trkpt><trkpt lat="43.6289711" lon="6.6502153"><ele>341.0</ele><time>2026-04-12T08:47:08.86Z</time></trkpt><trkpt lat="43.6289189" lon="6.6503099"><ele>340.85714285714283</ele><time>2026-04-12T08:47:09.873Z</time></trkpt><trkpt lat="43.6288715" lon="6.6504015"><ele>340.7142857142857</ele><time>2026-04-12T08:47:10.861Z</time></trkpt><trkpt lat="43.6288282" lon="6.6504834"><ele>340.57142857142856</ele><time>2026-04-12T08:47:11.829Z</time></trkpt><trkpt lat="43.6287883" lon="6.6505664"><ele>340.42857142857144</ele><time>2026-04-12T08:47:12.879Z</time></trkpt><trkpt lat="43.6287483" lon="6.6506445"><ele>340.2857142857143</ele><time>2026-04-12T08:47:13.876Z</time></trkpt><trkpt lat="43.6287008" lon="6.6507187"><ele>340.14285714285717</ele><time>2026-04-12T08:47:14.863Z</time></trkpt><trkpt lat="43.6286482" lon="6.6507803"><ele>340.0</ele><time>2026-04-12T08:47:15.88Z</time></trkpt><trkpt lat="43.6285833" lon="6.6508297"><ele>340.3333333333333</ele><time>2026-04-12T08:47:16.891Z</time></trkpt><trkpt lat="43.6284994" lon="6.6508415"><ele>340.66666666666663</ele><time>2026-04-12T08:47:17.884Z</time></trkpt><trkpt lat="43.6284118" lon="6.6508201"><ele>341.0</ele><time>2026-04-12T08:47:18.88Z</time></trkpt><trkpt lat="43.6283248" lon="6.6508094"><ele>341.3333333333333</ele><time>2026-04-12T08:47:19.83Z</time></trkpt><trkpt lat="43.6282327" lon="6.6508002"><ele>341.6666666666667</ele><time>2026-04-12T08:47:20.88Z</time></trkpt><trkpt lat="43.6281414" lon="6.6508003"><ele>342.0</ele><time>2026-04-12T08:47:21.861Z</time></trkpt><trkpt lat="43.6280436" lon="6.6507935"><ele>342.0</ele><time>2026-04-12T08:47:22.862Z</time></trkpt><trkpt lat="43.6279432" lon="6.6507807"><ele>342.0</ele><time>2026-04-12T08:47:23.863Z</time></trkpt><trkpt lat="43.6278409" lon="6.6507569"><ele>342.0</ele><time>2026-04-12T08:47:24.853Z</time></trkpt><trkpt lat="43.627741" lon="6.6507357"><ele>342.0</ele><time>2026-04-12T08:47:25.893Z</time></trkpt><trkpt lat="43.627638" lon="6.6507089"><ele>342.0</ele><time>2026-04-12T08:47:26.882Z</time></trkpt><trkpt lat="43.6275272" lon="6.6506791"><ele>340.40000000000003</ele><time>2026-04-12T08:47:27.873Z</time></trkpt><trkpt lat="43.6274199" lon="6.6506386"><ele>338.8</ele><time>2026-04-12T08:47:28.882Z</time></trkpt><trkpt lat="43.6273101" lon="6.650605"><ele>337.2</ele><time>2026-04-12T08:47:29.882Z</time></trkpt><trkpt lat="43.6272013" lon="6.6506036"><ele>335.6</ele><time>2026-04-12T08:47:30.879Z</time></trkpt><trkpt lat="43.6270915" lon="6.6506325"><ele>334.0</ele><time>2026-04-12T08:47:31.884Z</time></trkpt><trkpt lat="43.6269834" lon="6.6506784"><ele>332.5</ele><time>2026-04-12T08:47:32.877Z</time></trkpt><trkpt lat="43.6268733" lon="6.6507125"><ele>331.0</ele><time>2026-04-12T08:47:33.882Z</time></trkpt><trkpt lat="43.6267637" lon="6.6507491"><ele>329.5</ele><time>2026-04-12T08:47:34.886Z</time></trkpt><trkpt lat="43.6266538" lon="6.6507914"><ele>328.0</ele><time>2026-04-12T08:47:35.89Z</time></trkpt><trkpt lat="43.6265442" lon="6.6508327"><ele>328.0</ele><time>2026-04-12T08:47:36.879Z</time></trkpt><trkpt lat="43.6264398" lon="6.650874"><ele>328.0</ele><time>2026-04-12T08:47:37.892Z</time></trkpt><trkpt lat="43.6263343" lon="6.6509148"><ele>328.0</ele><time>2026-04-12T08:47:38.869Z</time></trkpt><trkpt lat="43.6262306" lon="6.6509572"><ele>328.0</ele><time>2026-04-12T08:47:39.889Z</time></trkpt><trkpt lat="43.6261194" lon="6.6510003"><ele>328.0</ele><time>2026-04-12T08:47:40.861Z</time></trkpt><trkpt lat="43.626018" lon="6.6510431"><ele>328.0</ele><time>2026-04-12T08:47:41.893Z</time></trkpt><trkpt lat="43.625916" lon="6.6510918"><ele>328.0</ele><time>2026-04-12T08:47:42.903Z</time></trkpt><trkpt lat="43.625822" lon="6.6511499"><ele>328.0</ele><time>2026-04-12T08:47:43.865Z</time></trkpt><trkpt lat="43.625736" lon="6.6512078"><ele>328.0</ele><time>2026-04-12T08:47:44.889Z</time></trkpt><trkpt lat="43.6256558" lon="6.6512684"><ele>328.0</ele><time>2026-04-12T08:47:45.889Z</time></trkpt><trkpt lat="43.625579" lon="6.6513315"><ele>327.99999999999994</ele><time>2026-04-12T08:47:46.884Z</time></trkpt><trkpt lat="43.6255066" lon="6.6513907"><ele>328.0</ele><time>2026-04-12T08:47:47.893Z</time></trkpt><trkpt lat="43.6254372" lon="6.6514467"><ele>328.0</ele><time>2026-04-12T08:47:48.87Z</time></trkpt><trkpt lat="43.6253744" lon="6.6514993"><ele>328.0</ele><time>2026-04-12T08:47:49.889Z</time></trkpt><trkpt lat="43.6253123" lon="6.651546"><ele>328.0</ele><time>2026-04-12T08:47:50.881Z</time></trkpt><trkpt lat="43.6252523" lon="6.651594"><ele>327.99999999999994</ele><time>2026-04-12T08:47:51.875Z</time></trkpt><trkpt lat="43.6251932" lon="6.6516452"><ele>328.0</ele><time>2026-04-12T08:47:52.89Z</time></trkpt><trkpt lat="43.6251368" lon="6.6517005"><ele>329.0</ele><time>2026-04-12T08:47:53.863Z</time></trkpt><trkpt lat="43.6250879" lon="6.6517556"><ele>330.0</ele><time>2026-04-12T08:47:54.868Z</time></trkpt><trkpt lat="43.6250377" lon="6.6518157"><ele>331.0</ele><time>2026-04-12T08:47:55.886Z</time></trkpt><trkpt lat="43.6249565" lon="6.6519228"><ele>332.0</ele><time>2026-04-12T08:47:57.892Z</time></trkpt><trkpt lat="43.6248731" lon="6.6520177"><ele>333.0</ele><time>2026-04-12T08:47:59.88Z</time></trkpt><trkpt lat="43.6247968" lon="6.6521174"><ele>333.0</ele><time>2026-04-12T08:48:01.855Z</time></trkpt><trkpt lat="43.6247294" lon="6.6522148"><ele>333.0</ele><time>2026-04-12T08:48:03.873Z</time></trkpt><trkpt lat="43.6246597" lon="6.6523086"><ele>333.0</ele><time>2026-04-12T08:48:05.898Z</time></trkpt><trkpt lat="43.6245904" lon="6.6524069"><ele>333.0</ele><time>2026-04-12T08:48:07.849Z</time></trkpt><trkpt lat="43.6245202" lon="6.6524974"><ele>333.0</ele><time>2026-04-12T08:48:09.855Z</time></trkpt><trkpt lat="43.6244563" lon="6.6525962"><ele>334.6666666666667</ele><time>2026-04-12T08:48:11.875Z</time></trkpt><trkpt lat="43.624396" lon="6.6526837"><ele>336.3333333333333</ele><time>2026-04-12T08:48:13.851Z</time></trkpt><trkpt lat="43.6243328" lon="6.6527686"><ele>338.0</ele><time>2026-04-12T08:48:15.906Z</time></trkpt><trkpt lat="43.6242786" lon="6.6528497"><ele>339.66666666666663</ele><time>2026-04-12T08:48:17.866Z</time></trkpt><trkpt lat="43.6242292" lon="6.6529445"><ele>341.3333333333333</ele><time>2026-04-12T08:48:19.861Z</time></trkpt><trkpt lat="43.6241831" lon="6.6530269"><ele>343.0</ele><time>2026-04-12T08:48:21.866Z</time></trkpt><trkpt lat="43.6241409" lon="6.6531198"><ele>343.0</ele><time>2026-04-12T08:48:23.856Z</time></trkpt><trkpt lat="43.6240984" lon="6.6532301"><ele>343.0</ele><time>2026-04-12T08:48:25.869Z</time></trkpt><trkpt lat="43.6240483" lon="6.653353"><ele>343.0</ele><time>2026-04-12T08:48:27.873Z</time></trkpt><trkpt lat="43.6239882" lon="6.6534573"><ele>343.0</ele><time>2026-04-12T08:48:29.878Z</time></trkpt><trkpt lat="43.6239238" lon="6.6535606"><ele>343.0</ele><time>2026-04-12T08:48:31.878Z</time></trkpt><trkpt lat="43.6238445" lon="6.6536536"><ele>342.8333333333333</ele><time>2026-04-12T08:48:33.869Z</time></trkpt><trkpt lat="43.6237461" lon="6.6537254"><ele>342.66666666666663</ele><time>2026-04-12T08:48:35.89Z</time></trkpt><trkpt lat="43.6236827" lon="6.6537384"><ele>342.5</ele><time>2026-04-12T08:48:36.879Z</time></trkpt><trkpt lat="43.6236114" lon="6.6537413"><ele>342.3333333333333</ele><time>2026-04-12T08:48:37.888Z</time></trkpt><trkpt lat="43.6235369" lon="6.653731"><ele>342.1666666666667</ele><time>2026-04-12T08:48:38.857Z</time></trkpt><trkpt lat="43.6234628" lon="6.6537138"><ele>342.0</ele><time>2026-04-12T08:48:39.881Z</time></trkpt><trkpt lat="43.6233773" lon="6.6536853"><ele>341.8</ele><time>2026-04-12T08:48:40.883Z</time></trkpt><trkpt lat="43.6232828" lon="6.6536634"><ele>341.6</ele><time>2026-04-12T08:48:41.886Z</time></trkpt><trkpt lat="43.6231845" lon="6.6536521"><ele>341.40000000000003</ele><time>2026-04-12T08:48:42.876Z</time></trkpt><trkpt lat="43.6230828" lon="6.6536532"><ele>341.20000000000005</ele><time>2026-04-12T08:48:43.875Z</time></trkpt><trkpt lat="43.6229853" lon="6.6536744"><ele>341.0</ele><time>2026-04-12T08:48:44.866Z</time></trkpt><trkpt lat="43.6228893" lon="6.6536847"><ele>341.33333333333337</ele><time>2026-04-12T08:48:45.888Z</time></trkpt><trkpt lat="43.6228003" lon="6.6536971"><ele>341.6666666666667</ele><time>2026-04-12T08:48:46.857Z</time></trkpt><trkpt lat="43.6227156" lon="6.6537127"><ele>342.0</ele><time>2026-04-12T08:48:47.861Z</time></trkpt><trkpt lat="43.6226371" lon="6.653718"><ele>342.3333333333333</ele><time>2026-04-12T08:48:48.877Z</time></trkpt><trkpt lat="43.6225584" lon="6.6537216"><ele>342.66666666666663</ele><time>2026-04-12T08:48:49.874Z</time></trkpt><trkpt lat="43.6224754" lon="6.6537355"><ele>343.0</ele><time>2026-04-12T08:48:50.857Z</time></trkpt><trkpt lat="43.6223874" lon="6.6537453"><ele>343.0</ele><time>2026-04-12T08:48:51.894Z</time></trkpt><trkpt lat="43.6223024" lon="6.6537479"><ele>343.0</ele><time>2026-04-12T08:48:52.899Z</time></trkpt><trkpt lat="43.6222208" lon="6.6537588"><ele>343.0</ele><time>2026-04-12T08:48:53.89Z</time></trkpt><trkpt lat="43.6221427" lon="6.6537689"><ele>343.0</ele><time>2026-04-12T08:48:54.85Z</time></trkpt><trkpt lat="43.6220635" lon="6.6537821"><ele>343.0</ele><time>2026-04-12T08:48:55.846Z</time></trkpt><trkpt lat="43.6219875" lon="6.6537995"><ele>343.0</ele><time>2026-04-12T08:48:56.87Z</time></trkpt><trkpt lat="43.6219138" lon="6.6538139"><ele>343.14285714285717</ele><time>2026-04-12T08:48:57.866Z</time></trkpt><trkpt lat="43.6218362" lon="6.6538282"><ele>343.2857142857143</ele><time>2026-04-12T08:48:58.89Z</time></trkpt><trkpt lat="43.6217612" lon="6.6538402"><ele>343.42857142857144</ele><time>2026-04-12T08:48:59.86Z</time></trkpt><trkpt lat="43.6216875" lon="6.6538471"><ele>343.57142857142856</ele><time>2026-04-12T08:49:00.887Z</time></trkpt><trkpt lat="43.6216108" lon="6.6538514"><ele>343.7142857142857</ele><time>2026-04-12T08:49:01.882Z</time></trkpt><trkpt lat="43.6215405" lon="6.6538572"><ele>343.8571428571429</ele><time>2026-04-12T08:49:02.884Z</time></trkpt><trkpt lat="43.6214674" lon="6.6538541"><ele>344.0</ele><time>2026-04-12T08:49:03.849Z</time></trkpt><trkpt lat="43.6213969" lon="6.6538589"><ele>344.00000000000006</ele><time>2026-04-12T08:49:04.844Z</time></trkpt><trkpt lat="43.6213311" lon="6.6538613"><ele>344.0</ele><time>2026-04-12T08:49:05.83Z</time></trkpt><trkpt lat="43.6212642" lon="6.6538528"><ele>344.0</ele><time>2026-04-12T08:49:06.894Z</time></trkpt><trkpt lat="43.6212001" lon="6.6538558"><ele>344.0</ele><time>2026-04-12T08:49:07.85Z</time></trkpt><trkpt lat="43.6211313" lon="6.6538547"><ele>344.0</ele><time>2026-04-12T08:49:08.845Z</time></trkpt><trkpt lat="43.6210624" lon="6.6538535"><ele>344.00000000000006</ele><time>2026-04-12T08:49:09.878Z</time></trkpt><trkpt lat="43.6209979" lon="6.6538375"><ele>344.0</ele><time>2026-04-12T08:49:10.852Z</time></trkpt><trkpt lat="43.6209331" lon="6.6538157"><ele>344.0</ele><time>2026-04-12T08:49:11.841Z</time></trkpt><trkpt lat="43.6208624" lon="6.6538013"><ele>344.0</ele><time>2026-04-12T08:49:12.872Z</time></trkpt><trkpt lat="43.6207956" lon="6.6537818"><ele>344.0</ele><time>2026-04-12T08:49:13.872Z</time></trkpt><trkpt lat="43.6206714" lon="6.6537309"><ele>344.0</ele><time>2026-04-12T08:49:15.884Z</time></trkpt><trkpt lat="43.6206066" lon="6.6537027"><ele>344.0</ele><time>2026-04-12T08:49:16.886Z</time></trkpt><trkpt lat="43.620539" lon="6.6536795"><ele>344.0</ele><time>2026-04-12T08:49:17.875Z</time></trkpt><trkpt lat="43.6204156" lon="6.6536329"><ele>344.42857142857144</ele><time>2026-04-12T08:49:19.9Z</time></trkpt><trkpt lat="43.6203496" lon="6.6536109"><ele>344.8571428571429</ele><time>2026-04-12T08:49:20.868Z</time></trkpt><trkpt lat="43.6202846" lon="6.6535872"><ele>345.28571428571433</ele><time>2026-04-12T08:49:21.88Z</time></trkpt><trkpt lat="43.6202147" lon="6.6535653"><ele>345.7142857142857</ele><time>2026-04-12T08:49:22.865Z</time></trkpt><trkpt lat="43.6201437" lon="6.6535402"><ele>346.1428571428571</ele><time>2026-04-12T08:49:23.906Z</time></trkpt><trkpt lat="43.6200791" lon="6.6535154"><ele>346.5714285714286</ele><time>2026-04-12T08:49:24.838Z</time></trkpt><trkpt lat="43.6200096" lon="6.653491"><ele>347.0</ele><time>2026-04-12T08:49:25.839Z</time></trkpt><trkpt lat="43.6199416" lon="6.6534643"><ele>347.0</ele><time>2026-04-12T08:49:26.851Z</time></trkpt><trkpt lat="43.6198759" lon="6.6534336"><ele>347.0</ele><time>2026-04-12T08:49:27.892Z</time></trkpt><trkpt lat="43.6198157" lon="6.6533991"><ele>347.0</ele><time>2026-04-12T08:49:28.869Z</time></trkpt><trkpt lat="43.6197593" lon="6.6533547"><ele>347.0</ele><time>2026-04-12T08:49:29.873Z</time></trkpt><trkpt lat="43.6197015" lon="6.6533105"><ele>347.0</ele><time>2026-04-12T08:49:30.866Z</time></trkpt><trkpt lat="43.6196408" lon="6.6532587"><ele>347.0</ele><time>2026-04-12T08:49:31.883Z</time></trkpt><trkpt lat="43.6195816" lon="6.6531983"><ele>347.0</ele><time>2026-04-12T08:49:32.866Z</time></trkpt><trkpt lat="43.6195186" lon="6.6531382"><ele>346.83333333333337</ele><time>2026-04-12T08:49:33.866Z</time></trkpt><trkpt lat="43.619456" lon="6.6530812"><ele>346.6666666666667</ele><time>2026-04-12T08:49:34.864Z</time></trkpt><trkpt lat="43.6193909" lon="6.6530215"><ele>346.5</ele><time>2026-04-12T08:49:35.842Z</time></trkpt><trkpt lat="43.6193209" lon="6.6529608"><ele>346.3333333333333</ele><time>2026-04-12T08:49:36.89Z</time></trkpt><trkpt lat="43.6192503" lon="6.6528939"><ele>346.16666666666663</ele><time>2026-04-12T08:49:37.878Z</time></trkpt><trkpt lat="43.6191757" lon="6.6528276"><ele>346.0</ele><time>2026-04-12T08:49:38.844Z</time></trkpt><trkpt lat="43.6191102" lon="6.6527687"><ele>346.0</ele><time>2026-04-12T08:49:39.876Z</time></trkpt><trkpt lat="43.6190417" lon="6.6527078"><ele>346.0</ele><time>2026-04-12T08:49:40.877Z</time></trkpt><trkpt lat="43.6189705" lon="6.6526422"><ele>346.0</ele><time>2026-04-12T08:49:41.89Z</time></trkpt><trkpt lat="43.6189084" lon="6.6525808"><ele>346.0</ele><time>2026-04-12T08:49:42.879Z</time></trkpt><trkpt lat="43.6188489" lon="6.6525181"><ele>346.0</ele><time>2026-04-12T08:49:43.871Z</time></trkpt><trkpt lat="43.618787" lon="6.6524592"><ele>346.0</ele><time>2026-04-12T08:49:44.859Z</time></trkpt><trkpt lat="43.6187229" lon="6.6524026"><ele>346.0</ele><time>2026-04-12T08:49:45.879Z</time></trkpt><trkpt lat="43.6186583" lon="6.6523492"><ele>346.0</ele><time>2026-04-12T08:49:46.864Z</time></trkpt><trkpt lat="43.6185826" lon="6.6522957"><ele>346.0</ele><time>2026-04-12T08:49:47.892Z</time></trkpt><trkpt lat="43.6185127" lon="6.6522455"><ele>346.0</ele><time>2026-04-12T08:49:48.865Z</time></trkpt><trkpt lat="43.6184426" lon="6.6521967"><ele>346.0</ele><time>2026-04-12T08:49:49.869Z</time></trkpt><trkpt lat="43.618368" lon="6.6521577"><ele>346.0</ele><time>2026-04-12T08:49:50.89Z</time></trkpt><trkpt lat="43.6182893" lon="6.6521208"><ele>345.3333333333333</ele><time>2026-04-12T08:49:51.871Z</time></trkpt><trkpt lat="43.6182076" lon="6.6520814"><ele>344.66666666666663</ele><time>2026-04-12T08:49:52.862Z</time></trkpt><trkpt lat="43.6181278" lon="6.6520578"><ele>344.0</ele><time>2026-04-12T08:49:53.873Z</time></trkpt><trkpt lat="43.6180485" lon="6.6520402"><ele>343.3333333333333</ele><time>2026-04-12T08:49:54.874Z</time></trkpt><trkpt lat="43.6179643" lon="6.6520289"><ele>342.6666666666667</ele><time>2026-04-12T08:49:55.875Z</time></trkpt><trkpt lat="43.6178729" lon="6.6520151"><ele>342.0</ele><time>2026-04-12T08:49:56.858Z</time></trkpt><trkpt lat="43.6177774" lon="6.6520095"><ele>341.40000000000003</ele><time>2026-04-12T08:49:57.887Z</time></trkpt><trkpt lat="43.6176777" lon="6.652002"><ele>340.8</ele><time>2026-04-12T08:49:58.878Z</time></trkpt><trkpt lat="43.6175751" lon="6.6520017"><ele>340.2</ele><time>2026-04-12T08:49:59.861Z</time></trkpt><trkpt lat="43.6174694" lon="6.6520068"><ele>339.6</ele><time>2026-04-12T08:50:00.87Z</time></trkpt><trkpt lat="43.6173677" lon="6.6520094"><ele>339.0</ele><time>2026-04-12T08:50:01.884Z</time></trkpt><trkpt lat="43.617262" lon="6.6520077"><ele>339.0</ele><time>2026-04-12T08:50:02.859Z</time></trkpt><trkpt lat="43.617153" lon="6.6520134"><ele>339.0</ele><time>2026-04-12T08:50:03.877Z</time></trkpt><trkpt lat="43.6170482" lon="6.6520276"><ele>339.0</ele><time>2026-04-12T08:50:04.861Z</time></trkpt><trkpt lat="43.6169398" lon="6.6520345"><ele>339.0</ele><time>2026-04-12T08:50:05.874Z</time></trkpt><trkpt lat="43.6168314" lon="6.652032"><ele>339.0</ele><time>2026-04-12T08:50:06.877Z</time></trkpt><trkpt lat="43.616717" lon="6.6520167"><ele>337.75</ele><time>2026-04-12T08:50:07.884Z</time></trkpt><trkpt lat="43.616599" lon="6.6519951"><ele>336.5</ele><time>2026-04-12T08:50:08.853Z</time></trkpt><trkpt lat="43.6164764" lon="6.651964"><ele>335.25</ele><time>2026-04-12T08:50:09.899Z</time></trkpt><trkpt lat="43.6163496" lon="6.6519357"><ele>334.0</ele><time>2026-04-12T08:50:10.861Z</time></trkpt><trkpt lat="43.6162166" lon="6.6519156"><ele>332.25</ele><time>2026-04-12T08:50:11.889Z</time></trkpt><trkpt lat="43.6160786" lon="6.6519288"><ele>330.5</ele><time>2026-04-12T08:50:12.864Z</time></trkpt><trkpt lat="43.6159396" lon="6.6519748"><ele>328.75</ele><time>2026-04-12T08:50:13.907Z</time></trkpt><trkpt lat="43.6157926" lon="6.652016"><ele>327.0</ele><time>2026-04-12T08:50:14.846Z</time></trkpt><trkpt lat="43.6156487" lon="6.6520541"><ele>327.0</ele><time>2026-04-12T08:50:15.889Z</time></trkpt><trkpt lat="43.6155127" lon="6.6520799"><ele>327.0</ele><time>2026-04-12T08:50:16.887Z</time></trkpt><trkpt lat="43.6153776" lon="6.6521095"><ele>327.0</ele><time>2026-04-12T08:50:17.895Z</time></trkpt><trkpt lat="43.6152448" lon="6.6521301"><ele>327.0</ele><time>2026-04-12T08:50:18.858Z</time></trkpt><trkpt lat="43.6151157" lon="6.6521509"><ele>325.5</ele><time>2026-04-12T08:50:19.872Z</time></trkpt><trkpt lat="43.6149892" lon="6.652169"><ele>324.0</ele><time>2026-04-12T08:50:20.864Z</time></trkpt><trkpt lat="43.6148685" lon="6.6521898"><ele>322.5</ele><time>2026-04-12T08:50:21.895Z</time></trkpt><trkpt lat="43.6147567" lon="6.6522148"><ele>321.0</ele><time>2026-04-12T08:50:22.865Z</time></trkpt><trkpt lat="43.614652" lon="6.6522301"><ele>321.0</ele><time>2026-04-12T08:50:23.897Z</time></trkpt><trkpt lat="43.614544" lon="6.6522454"><ele>321.0</ele><time>2026-04-12T08:50:24.863Z</time></trkpt><trkpt lat="43.6144406" lon="6.6522576"><ele>321.0</ele><time>2026-04-12T08:50:25.875Z</time></trkpt><trkpt lat="43.6143416" lon="6.6522694"><ele>321.0</ele><time>2026-04-12T08:50:26.866Z</time></trkpt><trkpt lat="43.6142368" lon="6.6522754"><ele>321.0</ele><time>2026-04-12T08:50:27.869Z</time></trkpt><trkpt lat="43.6141355" lon="6.6522764"><ele>321.0</ele><time>2026-04-12T08:50:28.882Z</time></trkpt><trkpt lat="43.6140386" lon="6.6522652"><ele>321.0</ele><time>2026-04-12T08:50:29.879Z</time></trkpt><trkpt lat="43.6139412" lon="6.6522337"><ele>321.0</ele><time>2026-04-12T08:50:30.862Z</time></trkpt><trkpt lat="43.613849" lon="6.6521785"><ele>321.0</ele><time>2026-04-12T08:50:31.893Z</time></trkpt><trkpt lat="43.6137688" lon="6.6521089"><ele>321.0</ele><time>2026-04-12T08:50:32.865Z</time></trkpt><trkpt lat="43.6136956" lon="6.6520217"><ele>322.20000000000005</ele><time>2026-04-12T08:50:33.841Z</time></trkpt><trkpt lat="43.6136255" lon="6.6519302"><ele>323.40000000000003</ele><time>2026-04-12T08:50:34.848Z</time></trkpt><trkpt lat="43.6135517" lon="6.6518462"><ele>324.6</ele><time>2026-04-12T08:50:35.869Z</time></trkpt><trkpt lat="43.6134737" lon="6.6517717"><ele>325.8</ele><time>2026-04-12T08:50:36.873Z</time></trkpt><trkpt lat="43.6133973" lon="6.6517033"><ele>327.0</ele><time>2026-04-12T08:50:37.853Z</time></trkpt><trkpt lat="43.6133121" lon="6.6516678"><ele>327.0</ele><time>2026-04-12T08:50:38.867Z</time></trkpt><trkpt lat="43.6132277" lon="6.6516567"><ele>327.0</ele><time>2026-04-12T08:50:39.87Z</time></trkpt><trkpt lat="43.6131502" lon="6.6516779"><ele>327.0</ele><time>2026-04-12T08:50:40.878Z</time></trkpt><trkpt lat="43.6130784" lon="6.651723"><ele>327.0</ele><time>2026-04-12T08:50:41.876Z</time></trkpt><trkpt lat="43.6130174" lon="6.6517826"><ele>327.0</ele><time>2026-04-12T08:50:42.892Z</time></trkpt><trkpt lat="43.6129599" lon="6.6518474"><ele>327.0</ele><time>2026-04-12T08:50:43.873Z</time></trkpt><trkpt lat="43.612906" lon="6.6519157"><ele>327.1666666666667</ele><time>2026-04-12T08:50:44.865Z</time></trkpt><trkpt lat="43.6128596" lon="6.6519784"><ele>327.3333333333333</ele><time>2026-04-12T08:50:45.888Z</time></trkpt><trkpt lat="43.6127661" lon="6.6520928"><ele>327.5</ele><time>2026-04-12T08:50:47.887Z</time></trkpt><trkpt lat="43.6127165" lon="6.6521498"><ele>327.66666666666663</ele><time>2026-04-12T08:50:48.868Z</time></trkpt><trkpt lat="43.6126652" lon="6.6522044"><ele>327.8333333333333</ele><time>2026-04-12T08:50:49.897Z</time></trkpt><trkpt lat="43.6126123" lon="6.652256"><ele>328.0</ele><time>2026-04-12T08:50:50.876Z</time></trkpt><trkpt lat="43.612506" lon="6.6523428"><ele>328.4</ele><time>2026-04-12T08:50:52.866Z</time></trkpt><trkpt lat="43.6123957" lon="6.6524023"><ele>328.79999999999995</ele><time>2026-04-12T08:50:54.897Z</time></trkpt><trkpt lat="43.6122898" lon="6.6524574"><ele>329.2</ele><time>2026-04-12T08:50:56.875Z</time></trkpt><trkpt lat="43.6121844" lon="6.6525098"><ele>329.6</ele><time>2026-04-12T08:50:58.882Z</time></trkpt><trkpt lat="43.6120863" lon="6.6525562"><ele>330.0</ele><time>2026-04-12T08:51:00.867Z</time></trkpt><trkpt lat="43.6120023" lon="6.6525989"><ele>330.0</ele><time>2026-04-12T08:51:02.89Z</time></trkpt><trkpt lat="43.611922" lon="6.6526474"><ele>330.0</ele><time>2026-04-12T08:51:04.863Z</time></trkpt><trkpt lat="43.6118387" lon="6.6526896"><ele>330.0</ele><time>2026-04-12T08:51:06.859Z</time></trkpt><trkpt lat="43.6117568" lon="6.6527278"><ele>330.0</ele><time>2026-04-12T08:51:08.861Z</time></trkpt><trkpt lat="43.6116794" lon="6.6527688"><ele>330.0</ele><time>2026-04-12T08:51:10.875Z</time></trkpt><trkpt lat="43.6115983" lon="6.6528122"><ele>330.0</ele><time>2026-04-12T08:51:12.882Z</time></trkpt><trkpt lat="43.6115156" lon="6.6528569"><ele>330.0</ele><time>2026-04-12T08:51:14.858Z</time></trkpt><trkpt lat="43.6114402" lon="6.6529029"><ele>330.0</ele><time>2026-04-12T08:51:16.876Z</time></trkpt><trkpt lat="43.6113601" lon="6.652937"><ele>330.0</ele><time>2026-04-12T08:51:18.859Z</time></trkpt><trkpt lat="43.6112861" lon="6.6529678"><ele>330.0</ele><time>2026-04-12T08:51:20.855Z</time></trkpt><trkpt lat="43.6112115" lon="6.653002"><ele>330.0</ele><time>2026-04-12T08:51:22.864Z</time></trkpt><trkpt lat="43.6111279" lon="6.6530329"><ele>330.0</ele><time>2026-04-12T08:51:24.883Z</time></trkpt><trkpt lat="43.6110445" lon="6.6530641"><ele>330.6666666666667</ele><time>2026-04-12T08:51:26.86Z</time></trkpt><trkpt lat="43.6109597" lon="6.653087"><ele>331.3333333333333</ele><time>2026-04-12T08:51:28.882Z</time></trkpt><trkpt lat="43.6108735" lon="6.6531"><ele>332.0</ele><time>2026-04-12T08:51:30.868Z</time></trkpt><trkpt lat="43.6107917" lon="6.6531113"><ele>332.66666666666663</ele><time>2026-04-12T08:51:32.867Z</time></trkpt><trkpt lat="43.6107086" lon="6.6531379"><ele>333.3333333333333</ele><time>2026-04-12T08:51:34.86Z</time></trkpt><trkpt lat="43.6106277" lon="6.6531728"><ele>334.0</ele><time>2026-04-12T08:51:36.86Z</time></trkpt><trkpt lat="43.6105444" lon="6.6531848"><ele>334.0</ele><time>2026-04-12T08:51:38.856Z</time></trkpt><trkpt lat="43.6104535" lon="6.653195"><ele>334.0</ele><time>2026-04-12T08:51:40.875Z</time></trkpt><trkpt lat="43.6103704" lon="6.6531915"><ele>334.0</ele><time>2026-04-12T08:51:42.872Z</time></trkpt><trkpt lat="43.610289" lon="6.6531992"><ele>334.0</ele><time>2026-04-12T08:51:44.869Z</time></trkpt><trkpt lat="43.6101946" lon="6.6531921"><ele>334.0</ele><time>2026-04-12T08:51:46.883Z</time></trkpt><trkpt lat="43.6101036" lon="6.6531843"><ele>334.0</ele><time>2026-04-12T08:51:48.877Z</time></trkpt><trkpt lat="43.6100052" lon="6.6531656"><ele>335.2</ele><time>2026-04-12T08:51:50.869Z</time></trkpt><trkpt lat="43.6099028" lon="6.6531494"><ele>336.4</ele><time>2026-04-12T08:51:52.865Z</time></trkpt><trkpt lat="43.6098034" lon="6.6531228"><ele>337.6</ele><time>2026-04-12T08:51:54.894Z</time></trkpt><trkpt lat="43.6097011" lon="6.6530944"><ele>338.8</ele><time>2026-04-12T08:51:56.885Z</time></trkpt><trkpt lat="43.6095992" lon="6.6530682"><ele>340.0</ele><time>2026-04-12T08:51:58.871Z</time></trkpt><trkpt lat="43.6094983" lon="6.6530529"><ele>339.8</ele><time>2026-04-12T08:52:00.884Z</time></trkpt><trkpt lat="43.6093905" lon="6.6530422"><ele>339.6</ele><time>2026-04-12T08:52:02.899Z</time></trkpt><trkpt lat="43.6092895" lon="6.6530398"><ele>339.4</ele><time>2026-04-12T08:52:04.861Z</time></trkpt><trkpt lat="43.6091865" lon="6.6530447"><ele>339.2</ele><time>2026-04-12T08:52:06.864Z</time></trkpt><trkpt lat="43.609084" lon="6.6530626"><ele>339.0</ele><time>2026-04-12T08:52:08.856Z</time></trkpt><trkpt lat="43.6089858" lon="6.6531128"><ele>339.0</ele><time>2026-04-12T08:52:10.866Z</time></trkpt><trkpt lat="43.6088828" lon="6.6531601"><ele>339.0</ele><time>2026-04-12T08:52:12.862Z</time></trkpt><trkpt lat="43.6087825" lon="6.6532121"><ele>339.0</ele><time>2026-04-12T08:52:14.886Z</time></trkpt><trkpt lat="43.6086772" lon="6.6532661"><ele>339.0</ele><time>2026-04-12T08:52:16.885Z</time></trkpt><trkpt lat="43.6085692" lon="6.6533247"><ele>339.0</ele><time>2026-04-12T08:52:18.878Z</time></trkpt><trkpt lat="43.608462" lon="6.6533811"><ele>339.8333333333333</ele><time>2026-04-12T08:52:20.891Z</time></trkpt><trkpt lat="43.608349" lon="6.6534425"><ele>340.6666666666667</ele><time>2026-04-12T08:52:22.89Z</time></trkpt><trkpt lat="43.6082895" lon="6.6534782"><ele>341.5</ele><time>2026-04-12T08:52:23.884Z</time></trkpt><trkpt lat="43.6082273" lon="6.6534979"><ele>342.33333333333337</ele><time>2026-04-12T08:52:24.868Z</time></trkpt><trkpt lat="43.608166" lon="6.6535231"><ele>343.1666666666667</ele><time>2026-04-12T08:52:25.85Z</time></trkpt><trkpt lat="43.6080452" lon="6.6535679"><ele>344.0</ele><time>2026-04-12T08:52:27.888Z</time></trkpt><trkpt lat="43.6079307" lon="6.6536049"><ele>342.6</ele><time>2026-04-12T08:52:29.874Z</time></trkpt><trkpt lat="43.6078133" lon="6.6536459"><ele>341.2</ele><time>2026-04-12T08:52:31.871Z</time></trkpt><trkpt lat="43.6077506" lon="6.653666"><ele>339.8</ele><time>2026-04-12T08:52:32.881Z</time></trkpt><trkpt lat="43.6076349" lon="6.6537106"><ele>338.40000000000003</ele><time>2026-04-12T08:52:34.875Z</time></trkpt><trkpt lat="43.6075192" lon="6.6537525"><ele>337.0</ele><time>2026-04-12T08:52:36.886Z</time></trkpt><trkpt lat="43.6074068" lon="6.6537851"><ele>337.0</ele><time>2026-04-12T08:52:38.891Z</time></trkpt><trkpt lat="43.6072908" lon="6.6538232"><ele>337.0</ele><time>2026-04-12T08:52:40.901Z</time></trkpt><trkpt lat="43.6072297" lon="6.6538453"><ele>337.0</ele><time>2026-04-12T08:52:41.867Z</time></trkpt><trkpt lat="43.6071089" lon="6.6538789"><ele>337.0</ele><time>2026-04-12T08:52:43.876Z</time></trkpt><trkpt lat="43.6069931" lon="6.6539154"><ele>337.0</ele><time>2026-04-12T08:52:45.87Z</time></trkpt><trkpt lat="43.6068794" lon="6.653955"><ele>337.6</ele><time>2026-04-12T08:52:47.866Z</time></trkpt><trkpt lat="43.6067623" lon="6.6540048"><ele>338.20000000000005</ele><time>2026-04-12T08:52:49.908Z</time></trkpt><trkpt lat="43.6066999" lon="6.6540278"><ele>338.8</ele><time>2026-04-12T08:52:50.832Z</time></trkpt><trkpt lat="43.6066381" lon="6.6540504"><ele>339.4</ele><time>2026-04-12T08:52:51.885Z</time></trkpt><trkpt lat="43.6065219" lon="6.6540849"><ele>340.0</ele><time>2026-04-12T08:52:53.863Z</time></trkpt><trkpt lat="43.6064" lon="6.6541113"><ele>340.0</ele><time>2026-04-12T08:52:55.888Z</time></trkpt><trkpt lat="43.6063363" lon="6.6541105"><ele>340.0</ele><time>2026-04-12T08:52:56.892Z</time></trkpt><trkpt lat="43.6062206" lon="6.6540747"><ele>340.0</ele><time>2026-04-12T08:52:58.857Z</time></trkpt><trkpt lat="43.6061248" lon="6.6539737"><ele>340.0</ele><time>2026-04-12T08:53:00.874Z</time></trkpt><trkpt lat="43.6060892" lon="6.6538982"><ele>340.0</ele><time>2026-04-12T08:53:01.908Z</time></trkpt><trkpt lat="43.6060525" lon="6.6537391"><ele>340.2</ele><time>2026-04-12T08:53:03.883Z</time></trkpt><trkpt lat="43.6060352" lon="6.6535644"><ele>340.4</ele><time>2026-04-12T08:53:05.87Z</time></trkpt><trkpt lat="43.6060282" lon="6.6534705"><ele>340.6</ele><time>2026-04-12T08:53:06.875Z</time></trkpt><trkpt lat="43.606008" lon="6.6532941"><ele>340.8</ele><time>2026-04-12T08:53:08.873Z</time></trkpt><trkpt lat="43.6059948" lon="6.653208"><ele>341.0</ele><time>2026-04-12T08:53:09.884Z</time></trkpt><trkpt lat="43.6059734" lon="6.6531099"><ele>341.0</ele><time>2026-04-12T08:53:10.894Z</time></trkpt><trkpt lat="43.6059451" lon="6.6530144"><ele>341.0</ele><time>2026-04-12T08:53:11.867Z</time></trkpt><trkpt lat="43.6058971" lon="6.6529314"><ele>341.0</ele><time>2026-04-12T08:53:12.889Z</time></trkpt><trkpt lat="43.6058326" lon="6.6528579"><ele>341.0</ele><time>2026-04-12T08:53:13.848Z</time></trkpt><trkpt lat="43.6057559" lon="6.6527874"><ele>341.0</ele><time>2026-04-12T08:53:14.888Z</time></trkpt><trkpt lat="43.6056684" lon="6.6527343"><ele>341.0</ele><time>2026-04-12T08:53:15.871Z</time></trkpt><trkpt lat="43.605579" lon="6.652689"><ele>340.6</ele><time>2026-04-12T08:53:16.871Z</time></trkpt><trkpt lat="43.6054837" lon="6.6526537"><ele>340.20000000000005</ele><time>2026-04-12T08:53:17.868Z</time></trkpt><trkpt lat="43.6053888" lon="6.6526067"><ele>339.79999999999995</ele><time>2026-04-12T08:53:18.854Z</time></trkpt><trkpt lat="43.605295" lon="6.6525447"><ele>339.4</ele><time>2026-04-12T08:53:19.866Z</time></trkpt><trkpt lat="43.6052159" lon="6.6524579"><ele>339.0</ele><time>2026-04-12T08:53:20.863Z</time></trkpt><trkpt lat="43.6051369" lon="6.6523483"><ele>338.6</ele><time>2026-04-12T08:53:21.88Z</time></trkpt><trkpt lat="43.6050525" lon="6.6522528"><ele>338.2</ele><time>2026-04-12T08:53:22.849Z</time></trkpt><trkpt lat="43.6049647" lon="6.6521573"><ele>337.8</ele><time>2026-04-12T08:53:23.888Z</time></trkpt><trkpt lat="43.60487" lon="6.6520762"><ele>337.40000000000003</ele><time>2026-04-12T08:53:24.867Z</time></trkpt><trkpt lat="43.6047694" lon="6.6520067"><ele>337.0</ele><time>2026-04-12T08:53:25.861Z</time></trkpt><trkpt lat="43.6046627" lon="6.6519531"><ele>335.25</ele><time>2026-04-12T08:53:26.866Z</time></trkpt><trkpt lat="43.6045538" lon="6.6519098"><ele>333.5</ele><time>2026-04-12T08:53:27.83Z</time></trkpt><trkpt lat="43.6044413" lon="6.6518825"><ele>331.75</ele><time>2026-04-12T08:53:28.879Z</time></trkpt><trkpt lat="43.6043288" lon="6.6518721"><ele>330.0</ele><time>2026-04-12T08:53:29.875Z</time></trkpt><trkpt lat="43.6042126" lon="6.6518803"><ele>329.75</ele><time>2026-04-12T08:53:30.88Z</time></trkpt><trkpt lat="43.6040972" lon="6.6519007"><ele>329.5</ele><time>2026-04-12T08:53:31.892Z</time></trkpt><trkpt lat="43.6039813" lon="6.6519193"><ele>329.25</ele><time>2026-04-12T08:53:32.879Z</time></trkpt><trkpt lat="43.6038621" lon="6.6519282"><ele>329.0</ele><time>2026-04-12T08:53:33.892Z</time></trkpt><trkpt lat="43.6037469" lon="6.6519334"><ele>328.5</ele><time>2026-04-12T08:53:34.885Z</time></trkpt><trkpt lat="43.6036302" lon="6.6519445"><ele>328.0</ele><time>2026-04-12T08:53:35.888Z</time></trkpt><trkpt lat="43.6035076" lon="6.6519707"><ele>327.5</ele><time>2026-04-12T08:53:36.859Z</time></trkpt><trkpt lat="43.603393" lon="6.6520426"><ele>327.0</ele><time>2026-04-12T08:53:37.891Z</time></trkpt><trkpt lat="43.6032813" lon="6.652127"><ele>326.25</ele><time>2026-04-12T08:53:38.885Z</time></trkpt><trkpt lat="43.6031722" lon="6.6522078"><ele>325.5</ele><time>2026-04-12T08:53:39.872Z</time></trkpt><trkpt lat="43.6030588" lon="6.6522642"><ele>324.75</ele><time>2026-04-12T08:53:40.871Z</time></trkpt><trkpt lat="43.60293" lon="6.6522995"><ele>324.0</ele><time>2026-04-12T08:53:41.876Z</time></trkpt><trkpt lat="43.6028018" lon="6.6523151"><ele>324.0</ele><time>2026-04-12T08:53:42.881Z</time></trkpt><trkpt lat="43.6026682" lon="6.6523232"><ele>324.0</ele><time>2026-04-12T08:53:43.87Z</time></trkpt><trkpt lat="43.6025367" lon="6.6523363"><ele>324.0</ele><time>2026-04-12T08:53:44.874Z</time></trkpt><trkpt lat="43.6024036" lon="6.6523536"><ele>324.0</ele><time>2026-04-12T08:53:45.867Z</time></trkpt><trkpt lat="43.6022739" lon="6.6523891"><ele>324.0</ele><time>2026-04-12T08:53:46.869Z</time></trkpt><trkpt lat="43.60215" lon="6.6524378"><ele>324.0</ele><time>2026-04-12T08:53:47.9Z</time></trkpt><trkpt lat="43.6020208" lon="6.6524928"><ele>324.0</ele><time>2026-04-12T08:53:48.88Z</time></trkpt><trkpt lat="43.6018946" lon="6.652555"><ele>324.0</ele><time>2026-04-12T08:53:49.86Z</time></trkpt><trkpt lat="43.6017719" lon="6.6526169"><ele>324.25</ele><time>2026-04-12T08:53:50.876Z</time></trkpt><trkpt lat="43.6016504" lon="6.6526772"><ele>324.5</ele><time>2026-04-12T08:53:51.888Z</time></trkpt><trkpt lat="43.6015362" lon="6.6527381"><ele>324.75</ele><time>2026-04-12T08:53:52.83Z</time></trkpt><trkpt lat="43.6014277" lon="6.6527994"><ele>325.0</ele><time>2026-04-12T08:53:53.847Z</time></trkpt><trkpt lat="43.6013284" lon="6.6528591"><ele>325.0</ele><time>2026-04-12T08:53:54.843Z</time></trkpt><trkpt lat="43.6012263" lon="6.6529239"><ele>325.0</ele><time>2026-04-12T08:53:55.856Z</time></trkpt><trkpt lat="43.6011255" lon="6.652946"><ele>325.0</ele><time>2026-04-12T08:53:56.836Z</time></trkpt><trkpt lat="43.6010196" lon="6.6529206"><ele>325.0</ele><time>2026-04-12T08:53:57.85Z</time></trkpt><trkpt lat="43.6009401" lon="6.6528384"><ele>325.0</ele><time>2026-04-12T08:53:58.855Z</time></trkpt><trkpt lat="43.6008837" lon="6.6527009"><ele>319.75</ele><time>2026-04-12T08:53:59.85Z</time></trkpt><trkpt lat="43.6008537" lon="6.6525476"><ele>314.5</ele><time>2026-04-12T08:54:00.857Z</time></trkpt><trkpt lat="43.6008636" lon="6.6523901"><ele>309.25</ele><time>2026-04-12T08:54:01.838Z</time></trkpt><trkpt lat="43.6009034" lon="6.652241"><ele>304.0</ele><time>2026-04-12T08:54:02.824Z</time></trkpt><trkpt lat="43.6009466" lon="6.6520986"><ele>303.59999999999997</ele><time>2026-04-12T08:54:03.89Z</time></trkpt><trkpt lat="43.6009693" lon="6.6519448"><ele>303.2</ele><time>2026-04-12T08:54:04.877Z</time></trkpt><trkpt lat="43.6010053" lon="6.6517908"><ele>302.79999999999995</ele><time>2026-04-12T08:54:05.885Z</time></trkpt><trkpt lat="43.6010182" lon="6.6516441"><ele>302.4</ele><time>2026-04-12T08:54:06.892Z</time></trkpt><trkpt lat="43.6010201" lon="6.6514988"><ele>302.0</ele><time>2026-04-12T08:54:07.874Z</time></trkpt><trkpt lat="43.6009841" lon="6.6513688"><ele>302.0</ele><time>2026-04-12T08:54:08.843Z</time></trkpt><trkpt lat="43.6008952" lon="6.6512522"><ele>302.0</ele><time>2026-04-12T08:54:09.825Z</time></trkpt><trkpt lat="43.6007989" lon="6.6511746"><ele>302.0</ele><time>2026-04-12T08:54:10.877Z</time></trkpt><trkpt lat="43.6006885" lon="6.6511405"><ele>302.0</ele><time>2026-04-12T08:54:11.89Z</time></trkpt><trkpt lat="43.6005808" lon="6.6511215"><ele>302.4</ele><time>2026-04-12T08:54:12.842Z</time></trkpt><trkpt lat="43.6004797" lon="6.6511108"><ele>302.79999999999995</ele><time>2026-04-12T08:54:13.885Z</time></trkpt><trkpt lat="43.6003776" lon="6.6510854"><ele>303.2</ele><time>2026-04-12T08:54:14.852Z</time></trkpt><trkpt lat="43.6002706" lon="6.6510503"><ele>303.59999999999997</ele><time>2026-04-12T08:54:15.867Z</time></trkpt><trkpt lat="43.6001643" lon="6.651024"><ele>304.0</ele><time>2026-04-12T08:54:16.885Z</time></trkpt><trkpt lat="43.6000628" lon="6.6509945"><ele>304.16666666666663</ele><time>2026-04-12T08:54:17.881Z</time></trkpt><trkpt lat="43.5999676" lon="6.6509657"><ele>304.3333333333333</ele><time>2026-04-12T08:54:18.862Z</time></trkpt><trkpt lat="43.5998781" lon="6.6509437"><ele>304.5</ele><time>2026-04-12T08:54:19.884Z</time></trkpt><trkpt lat="43.5997898" lon="6.6509235"><ele>304.6666666666667</ele><time>2026-04-12T08:54:20.829Z</time></trkpt><trkpt lat="43.5997063" lon="6.6509041"><ele>304.83333333333337</ele><time>2026-04-12T08:54:21.839Z</time></trkpt><trkpt lat="43.599629" lon="6.6508891"><ele>305.0</ele><time>2026-04-12T08:54:22.878Z</time></trkpt><trkpt lat="43.5995593" lon="6.6508717"><ele>305.7142857142857</ele><time>2026-04-12T08:54:23.83Z</time></trkpt><trkpt lat="43.5994944" lon="6.6508494"><ele>306.4285714285714</ele><time>2026-04-12T08:54:24.829Z</time></trkpt><trkpt lat="43.5994328" lon="6.6508264"><ele>307.1428571428571</ele><time>2026-04-12T08:54:25.874Z</time></trkpt><trkpt lat="43.5993691" lon="6.6508137"><ele>307.8571428571429</ele><time>2026-04-12T08:54:26.866Z</time></trkpt><trkpt lat="43.5993023" lon="6.650802"><ele>308.57142857142856</ele><time>2026-04-12T08:54:27.864Z</time></trkpt><trkpt lat="43.5992338" lon="6.6507938"><ele>309.2857142857143</ele><time>2026-04-12T08:54:28.902Z</time></trkpt><trkpt lat="43.5991695" lon="6.6507854"><ele>310.0</ele><time>2026-04-12T08:54:29.857Z</time></trkpt><trkpt lat="43.5990466" lon="6.6507779"><ele>310.0</ele><time>2026-04-12T08:54:31.833Z</time></trkpt><trkpt lat="43.5989438" lon="6.6507607"><ele>310.0</ele><time>2026-04-12T08:54:33.865Z</time></trkpt><trkpt lat="43.5988438" lon="6.6507377"><ele>310.0</ele><time>2026-04-12T08:54:35.868Z</time></trkpt><trkpt lat="43.5987513" lon="6.650713"><ele>310.0</ele><time>2026-04-12T08:54:37.855Z</time></trkpt><trkpt lat="43.5986581" lon="6.6506872"><ele>310.0</ele><time>2026-04-12T08:54:39.857Z</time></trkpt><trkpt lat="43.5985634" lon="6.6506625"><ele>310.8</ele><time>2026-04-12T08:54:41.905Z</time></trkpt><trkpt lat="43.5984676" lon="6.6506424"><ele>311.6</ele><time>2026-04-12T08:54:43.871Z</time></trkpt><trkpt lat="43.5983802" lon="6.6506346"><ele>312.4</ele><time>2026-04-12T08:54:45.863Z</time></trkpt><trkpt lat="43.5982825" lon="6.6506129"><ele>313.2</ele><time>2026-04-12T08:54:47.858Z</time></trkpt><trkpt lat="43.5981853" lon="6.6505879"><ele>314.0</ele><time>2026-04-12T08:54:49.856Z</time></trkpt><trkpt lat="43.5980942" lon="6.6505683"><ele>314.0</ele><time>2026-04-12T08:54:51.892Z</time></trkpt><trkpt lat="43.5979897" lon="6.6505202"><ele>314.0</ele><time>2026-04-12T08:54:53.886Z</time></trkpt><trkpt lat="43.5978832" lon="6.6504626"><ele>314.0</ele><time>2026-04-12T08:54:55.864Z</time></trkpt><trkpt lat="43.5977744" lon="6.6504079"><ele>314.0</ele><time>2026-04-12T08:54:57.868Z</time></trkpt><trkpt lat="43.5976567" lon="6.6503531"><ele>314.1428571428571</ele><time>2026-04-12T08:54:59.882Z</time></trkpt><trkpt lat="43.5975936" lon="6.6503302"><ele>314.2857142857143</ele><time>2026-04-12T08:55:00.88Z</time></trkpt><trkpt lat="43.5975318" lon="6.6502978"><ele>314.42857142857144</ele><time>2026-04-12T08:55:01.861Z</time></trkpt><trkpt lat="43.5974702" lon="6.6502611"><ele>314.57142857142856</ele><time>2026-04-12T08:55:02.886Z</time></trkpt><trkpt lat="43.5974092" lon="6.6502282"><ele>314.7142857142857</ele><time>2026-04-12T08:55:03.876Z</time></trkpt><trkpt lat="43.5973442" lon="6.650202"><ele>314.85714285714283</ele><time>2026-04-12T08:55:04.883Z</time></trkpt><trkpt lat="43.5972798" lon="6.6501703"><ele>315.0</ele><time>2026-04-12T08:55:05.876Z</time></trkpt><trkpt lat="43.5972182" lon="6.6501359"><ele>315.0</ele><time>2026-04-12T08:55:06.862Z</time></trkpt><trkpt lat="43.5971571" lon="6.6501051"><ele>315.0</ele><time>2026-04-12T08:55:07.852Z</time></trkpt><trkpt lat="43.5970934" lon="6.6500787"><ele>315.0</ele><time>2026-04-12T08:55:08.909Z</time></trkpt><trkpt lat="43.5969821" lon="6.6500234"><ele>315.0</ele><time>2026-04-12T08:55:10.85Z</time></trkpt><trkpt lat="43.5968756" lon="6.6499666"><ele>315.0</ele><time>2026-04-12T08:55:12.902Z</time></trkpt><trkpt lat="43.596773" lon="6.6498939"><ele>314.0</ele><time>2026-04-12T08:55:14.881Z</time></trkpt><trkpt lat="43.5967192" lon="6.6498467"><ele>313.0</ele><time>2026-04-12T08:55:15.855Z</time></trkpt><trkpt lat="43.5966586" lon="6.6497916"><ele>312.0</ele><time>2026-04-12T08:55:16.868Z</time></trkpt><trkpt lat="43.5965934" lon="6.6497359"><ele>311.0</ele><time>2026-04-12T08:55:17.863Z</time></trkpt><trkpt lat="43.5965229" lon="6.6496755"><ele>310.0</ele><time>2026-04-12T08:55:18.899Z</time></trkpt><trkpt lat="43.5964543" lon="6.6496086"><ele>309.0</ele><time>2026-04-12T08:55:19.87Z</time></trkpt><trkpt lat="43.5963834" lon="6.6495293"><ele>309.4</ele><time>2026-04-12T08:55:20.871Z</time></trkpt><trkpt lat="43.5963214" lon="6.6494216"><ele>309.79999999999995</ele><time>2026-04-12T08:55:21.865Z</time></trkpt><trkpt lat="43.5962733" lon="6.6492997"><ele>310.20000000000005</ele><time>2026-04-12T08:55:22.872Z</time></trkpt><trkpt lat="43.5962241" lon="6.6491789"><ele>310.6</ele><time>2026-04-12T08:55:23.836Z</time></trkpt><trkpt lat="43.596174" lon="6.6490491"><ele>311.0</ele><time>2026-04-12T08:55:24.875Z</time></trkpt><trkpt lat="43.5961316" lon="6.6489277"><ele>309.6</ele><time>2026-04-12T08:55:25.891Z</time></trkpt><trkpt lat="43.5960805" lon="6.6487977"><ele>308.20000000000005</ele><time>2026-04-12T08:55:26.861Z</time></trkpt><trkpt lat="43.5960304" lon="6.6486663"><ele>306.79999999999995</ele><time>2026-04-12T08:55:27.87Z</time></trkpt><trkpt lat="43.5959786" lon="6.6485378"><ele>305.4</ele><time>2026-04-12T08:55:28.853Z</time></trkpt><trkpt lat="43.5959115" lon="6.6484126"><ele>304.0</ele><time>2026-04-12T08:55:29.849Z</time></trkpt><trkpt lat="43.5958238" lon="6.648309"><ele>304.0</ele><time>2026-04-12T08:55:30.876Z</time></trkpt><trkpt lat="43.5957346" lon="6.6482069"><ele>304.0</ele><time>2026-04-12T08:55:31.886Z</time></trkpt><trkpt lat="43.595648" lon="6.6481103"><ele>304.0</ele><time>2026-04-12T08:55:32.876Z</time></trkpt><trkpt lat="43.5955576" lon="6.6480109"><ele>304.0</ele><time>2026-04-12T08:55:33.904Z</time></trkpt><trkpt lat="43.595467" lon="6.6479141"><ele>304.0</ele><time>2026-04-12T08:55:34.891Z</time></trkpt><trkpt lat="43.5953795" lon="6.6478209"><ele>304.0</ele><time>2026-04-12T08:55:35.873Z</time></trkpt><trkpt lat="43.5952958" lon="6.6477249"><ele>304.0</ele><time>2026-04-12T08:55:36.866Z</time></trkpt><trkpt lat="43.5952085" lon="6.6476315"><ele>304.0</ele><time>2026-04-12T08:55:37.897Z</time></trkpt><trkpt lat="43.5951194" lon="6.6475321"><ele>304.0</ele><time>2026-04-12T08:55:38.88Z</time></trkpt><trkpt lat="43.5950312" lon="6.6474381"><ele>303.5</ele><time>2026-04-12T08:55:39.908Z</time></trkpt><trkpt lat="43.5949471" lon="6.6473364"><ele>303.0</ele><time>2026-04-12T08:55:40.864Z</time></trkpt><trkpt lat="43.5948627" lon="6.6472346"><ele>302.5</ele><time>2026-04-12T08:55:41.898Z</time></trkpt><trkpt lat="43.5947768" lon="6.647134"><ele>302.0</ele><time>2026-04-12T08:55:42.866Z</time></trkpt><trkpt lat="43.5946837" lon="6.6470158"><ele>301.75</ele><time>2026-04-12T08:55:43.883Z</time></trkpt><trkpt lat="43.5945938" lon="6.6468947"><ele>301.5</ele><time>2026-04-12T08:55:44.864Z</time></trkpt><trkpt lat="43.5944975" lon="6.6467727"><ele>301.25</ele><time>2026-04-12T08:55:45.867Z</time></trkpt><trkpt lat="43.5944069" lon="6.6466455"><ele>301.0</ele><time>2026-04-12T08:55:46.867Z</time></trkpt><trkpt lat="43.5943205" lon="6.6465158"><ele>300.25</ele><time>2026-04-12T08:55:47.897Z</time></trkpt><trkpt lat="43.5942304" lon="6.6463906"><ele>299.5</ele><time>2026-04-12T08:55:48.888Z</time></trkpt><trkpt lat="43.5941433" lon="6.6462575"><ele>298.75</ele><time>2026-04-12T08:55:49.853Z</time></trkpt><trkpt lat="43.5940552" lon="6.6461239"><ele>298.0</ele><time>2026-04-12T08:55:50.869Z</time></trkpt><trkpt lat="43.5939742" lon="6.64599"><ele>297.75</ele><time>2026-04-12T08:55:51.881Z</time></trkpt><trkpt lat="43.5938903" lon="6.6458571"><ele>297.5</ele><time>2026-04-12T08:55:52.885Z</time></trkpt><trkpt lat="43.5938037" lon="6.6457196"><ele>297.25</ele><time>2026-04-12T08:55:53.883Z</time></trkpt><trkpt lat="43.593723" lon="6.6455833"><ele>297.0</ele><time>2026-04-12T08:55:54.859Z</time></trkpt><trkpt lat="43.5936381" lon="6.6454509"><ele>295.5</ele><time>2026-04-12T08:55:55.883Z</time></trkpt><trkpt lat="43.5935562" lon="6.6453183"><ele>294.0</ele><time>2026-04-12T08:55:56.895Z</time></trkpt><trkpt lat="43.5934729" lon="6.6451867"><ele>292.5</ele><time>2026-04-12T08:55:57.899Z</time></trkpt><trkpt lat="43.5933888" lon="6.6450612"><ele>291.0</ele><time>2026-04-12T08:55:58.876Z</time></trkpt><trkpt lat="43.5933112" lon="6.6449293"><ele>290.75</ele><time>2026-04-12T08:55:59.862Z</time></trkpt><trkpt lat="43.5932352" lon="6.6448008"><ele>290.5</ele><time>2026-04-12T08:56:00.879Z</time></trkpt><trkpt lat="43.5931592" lon="6.6446665"><ele>290.25</ele><time>2026-04-12T08:56:01.87Z</time></trkpt><trkpt lat="43.5930851" lon="6.6445364"><ele>290.0</ele><time>2026-04-12T08:56:02.89Z</time></trkpt><trkpt lat="43.5930059" lon="6.6444087"><ele>290.0</ele><time>2026-04-12T08:56:03.879Z</time></trkpt><trkpt lat="43.5929285" lon="6.6442844"><ele>290.0</ele><time>2026-04-12T08:56:04.885Z</time></trkpt><trkpt lat="43.5928526" lon="6.6441591"><ele>290.0</ele><time>2026-04-12T08:56:05.891Z</time></trkpt><trkpt lat="43.5927804" lon="6.6440397"><ele>290.0</ele><time>2026-04-12T08:56:06.886Z</time></trkpt><trkpt lat="43.5927082" lon="6.643919"><ele>289.0</ele><time>2026-04-12T08:56:07.861Z</time></trkpt><trkpt lat="43.5926394" lon="6.6437936"><ele>288.0</ele><time>2026-04-12T08:56:08.853Z</time></trkpt><trkpt lat="43.5925742" lon="6.6436594"><ele>287.0</ele><time>2026-04-12T08:56:09.868Z</time></trkpt><trkpt lat="43.5925183" lon="6.6435173"><ele>286.0</ele><time>2026-04-12T08:56:10.907Z</time></trkpt><trkpt lat="43.5924611" lon="6.6433747"><ele>285.5</ele><time>2026-04-12T08:56:11.88Z</time></trkpt><trkpt lat="43.5924024" lon="6.643224"><ele>285.0</ele><time>2026-04-12T08:56:12.871Z</time></trkpt><trkpt lat="43.5923423" lon="6.6430646"><ele>284.5</ele><time>2026-04-12T08:56:13.885Z</time></trkpt><trkpt lat="43.5922786" lon="6.6429019"><ele>284.0</ele><time>2026-04-12T08:56:14.897Z</time></trkpt><trkpt lat="43.5922133" lon="6.642744"><ele>284.0</ele><time>2026-04-12T08:56:15.883Z</time></trkpt><trkpt lat="43.592138" lon="6.6425878"><ele>284.0</ele><time>2026-04-12T08:56:16.884Z</time></trkpt><trkpt lat="43.5920587" lon="6.6424278"><ele>284.0</ele><time>2026-04-12T08:56:17.881Z</time></trkpt><trkpt lat="43.5919847" lon="6.6422768"><ele>284.0</ele><time>2026-04-12T08:56:18.854Z</time></trkpt><trkpt lat="43.5919194" lon="6.6421249"><ele>283.0</ele><time>2026-04-12T08:56:19.862Z</time></trkpt><trkpt lat="43.5918515" lon="6.6419837"><ele>282.0</ele><time>2026-04-12T08:56:20.885Z</time></trkpt><trkpt lat="43.5917804" lon="6.6418555"><ele>281.0</ele><time>2026-04-12T08:56:21.872Z</time></trkpt><trkpt lat="43.5917072" lon="6.641743"><ele>280.0</ele><time>2026-04-12T08:56:22.885Z</time></trkpt><trkpt lat="43.5916294" lon="6.641642"><ele>280.0</ele><time>2026-04-12T08:56:23.878Z</time></trkpt><trkpt lat="43.5915506" lon="6.6415472"><ele>280.0</ele><time>2026-04-12T08:56:24.872Z</time></trkpt><trkpt lat="43.5914706" lon="6.6414555"><ele>280.0</ele><time>2026-04-12T08:56:25.862Z</time></trkpt><trkpt lat="43.591397" lon="6.6413678"><ele>280.0</ele><time>2026-04-12T08:56:26.891Z</time></trkpt><trkpt lat="43.5913172" lon="6.6412811"><ele>280.0</ele><time>2026-04-12T08:56:27.895Z</time></trkpt><trkpt lat="43.5912377" lon="6.6411925"><ele>280.0</ele><time>2026-04-12T08:56:28.865Z</time></trkpt><trkpt lat="43.5911644" lon="6.6411083"><ele>280.0</ele><time>2026-04-12T08:56:29.885Z</time></trkpt><trkpt lat="43.5910871" lon="6.6410187"><ele>280.0</ele><time>2026-04-12T08:56:30.884Z</time></trkpt><trkpt lat="43.5910095" lon="6.6409396"><ele>280.0</ele><time>2026-04-12T08:56:31.846Z</time></trkpt><trkpt lat="43.5909243" lon="6.6408751"><ele>280.0</ele><time>2026-04-12T08:56:32.886Z</time></trkpt><trkpt lat="43.5908225" lon="6.6408446"><ele>280.0</ele><time>2026-04-12T08:56:33.892Z</time></trkpt><trkpt lat="43.5907318" lon="6.6408488"><ele>280.0</ele><time>2026-04-12T08:56:34.863Z</time></trkpt><trkpt lat="43.5906351" lon="6.6408715"><ele>280.0</ele><time>2026-04-12T08:56:35.862Z</time></trkpt><trkpt lat="43.5905429" lon="6.6409075"><ele>280.0</ele><time>2026-04-12T08:56:36.894Z</time></trkpt><trkpt lat="43.5904451" lon="6.6409376"><ele>280.0</ele><time>2026-04-12T08:56:37.862Z</time></trkpt><trkpt lat="43.5903434" lon="6.6409677"><ele>279.4</ele><time>2026-04-12T08:56:38.884Z</time></trkpt><trkpt lat="43.590235" lon="6.6409984"><ele>278.8</ele><time>2026-04-12T08:56:39.828Z</time></trkpt><trkpt lat="43.5901296" lon="6.6410261"><ele>278.2</ele><time>2026-04-12T08:56:40.883Z</time></trkpt><trkpt lat="43.590019" lon="6.641061"><ele>277.6</ele><time>2026-04-12T08:56:41.89Z</time></trkpt><trkpt lat="43.5899052" lon="6.6410978"><ele>277.0</ele><time>2026-04-12T08:56:42.872Z</time></trkpt><trkpt lat="43.5897935" lon="6.6411431"><ele>276.6</ele><time>2026-04-12T08:56:43.877Z</time></trkpt><trkpt lat="43.5896866" lon="6.6411943"><ele>276.2</ele><time>2026-04-12T08:56:44.892Z</time></trkpt><trkpt lat="43.5895824" lon="6.64124"><ele>275.8</ele><time>2026-04-12T08:56:45.864Z</time></trkpt><trkpt lat="43.589484" lon="6.6412872"><ele>275.4</ele><time>2026-04-12T08:56:46.868Z</time></trkpt><trkpt lat="43.5893913" lon="6.6413342"><ele>275.0</ele><time>2026-04-12T08:56:47.884Z</time></trkpt><trkpt lat="43.5893009" lon="6.6413937"><ele>274.8</ele><time>2026-04-12T08:56:48.858Z</time></trkpt><trkpt lat="43.5891991" lon="6.6414559"><ele>274.6</ele><time>2026-04-12T08:56:49.892Z</time></trkpt><trkpt lat="43.5891082" lon="6.641526"><ele>274.4</ele><time>2026-04-12T08:56:50.863Z</time></trkpt><trkpt lat="43.5890231" lon="6.6416042"><ele>274.2</ele><time>2026-04-12T08:56:51.88Z</time></trkpt><trkpt lat="43.5889441" lon="6.6416897"><ele>274.0</ele><time>2026-04-12T08:56:52.865Z</time></trkpt><trkpt lat="43.5888651" lon="6.6417827"><ele>274.0</ele><time>2026-04-12T08:56:53.857Z</time></trkpt><trkpt lat="43.5887964" lon="6.6418783"><ele>274.0</ele><time>2026-04-12T08:56:54.886Z</time></trkpt><trkpt lat="43.5887248" lon="6.6419732"><ele>274.0</ele><time>2026-04-12T08:56:55.855Z</time></trkpt><trkpt lat="43.5886529" lon="6.6420741"><ele>274.0</ele><time>2026-04-12T08:56:56.879Z</time></trkpt><trkpt lat="43.5885725" lon="6.6421593"><ele>274.0</ele><time>2026-04-12T08:56:57.892Z</time></trkpt><trkpt lat="43.5884888" lon="6.6422321"><ele>273.0</ele><time>2026-04-12T08:56:58.878Z</time></trkpt><trkpt lat="43.5884096" lon="6.6423044"><ele>272.0</ele><time>2026-04-12T08:56:59.865Z</time></trkpt><trkpt lat="43.5883273" lon="6.6423639"><ele>271.0</ele><time>2026-04-12T08:57:00.875Z</time></trkpt><trkpt lat="43.5882379" lon="6.6424135"><ele>270.0</ele><time>2026-04-12T08:57:01.886Z</time></trkpt><trkpt lat="43.5881458" lon="6.6424523"><ele>269.0</ele><time>2026-04-12T08:57:02.894Z</time></trkpt><trkpt lat="43.5880508" lon="6.642494"><ele>269.0</ele><time>2026-04-12T08:57:03.849Z</time></trkpt><trkpt lat="43.587953" lon="6.6425349"><ele>269.0</ele><time>2026-04-12T08:57:04.877Z</time></trkpt><trkpt lat="43.5878548" lon="6.6425754"><ele>269.0</ele><time>2026-04-12T08:57:05.888Z</time></trkpt><trkpt lat="43.5877605" lon="6.6426108"><ele>269.0</ele><time>2026-04-12T08:57:06.882Z</time></trkpt><trkpt lat="43.5876636" lon="6.6426565"><ele>269.0</ele><time>2026-04-12T08:57:07.885Z</time></trkpt><trkpt lat="43.5875615" lon="6.6426867"><ele>269.4</ele><time>2026-04-12T08:57:08.892Z</time></trkpt><trkpt lat="43.5874629" lon="6.6427231"><ele>269.79999999999995</ele><time>2026-04-12T08:57:09.863Z</time></trkpt><trkpt lat="43.5873611" lon="6.6427475"><ele>270.20000000000005</ele><time>2026-04-12T08:57:10.884Z</time></trkpt><trkpt lat="43.5872663" lon="6.6427743"><ele>270.6</ele><time>2026-04-12T08:57:11.875Z</time></trkpt><trkpt lat="43.587173" lon="6.6428025"><ele>271.0</ele><time>2026-04-12T08:57:12.845Z</time></trkpt><trkpt lat="43.5870831" lon="6.6428305"><ele>270.16666666666663</ele><time>2026-04-12T08:57:13.853Z</time></trkpt><trkpt lat="43.5869889" lon="6.6428593"><ele>269.3333333333333</ele><time>2026-04-12T08:57:14.826Z</time></trkpt><trkpt lat="43.5868998" lon="6.6428842"><ele>268.5</ele><time>2026-04-12T08:57:15.871Z</time></trkpt><trkpt lat="43.5868089" lon="6.6428888"><ele>267.6666666666667</ele><time>2026-04-12T08:57:16.86Z</time></trkpt><trkpt lat="43.5867258" lon="6.6428739"><ele>266.83333333333337</ele><time>2026-04-12T08:57:17.853Z</time></trkpt><trkpt lat="43.5866573" lon="6.6428288"><ele>266.0</ele><time>2026-04-12T08:57:18.868Z</time></trkpt><trkpt lat="43.5865906" lon="6.6427591"><ele>266.0</ele><time>2026-04-12T08:57:19.87Z</time></trkpt><trkpt lat="43.5865256" lon="6.6426971"><ele>266.0</ele><time>2026-04-12T08:57:20.875Z</time></trkpt><trkpt lat="43.5864614" lon="6.6426761"><ele>266.0</ele><time>2026-04-12T08:57:21.88Z</time></trkpt><trkpt lat="43.5863876" lon="6.6426866"><ele>266.0</ele><time>2026-04-12T08:57:22.87Z</time></trkpt><trkpt lat="43.5863175" lon="6.6427118"><ele>266.0</ele><time>2026-04-12T08:57:23.897Z</time></trkpt><trkpt lat="43.5862513" lon="6.6427617"><ele>266.0</ele><time>2026-04-12T08:57:24.855Z</time></trkpt><trkpt lat="43.58619" lon="6.6428262"><ele>266.0</ele><time>2026-04-12T08:57:25.866Z</time></trkpt><trkpt lat="43.5861442" lon="6.6429062"><ele>265.83333333333337</ele><time>2026-04-12T08:57:26.846Z</time></trkpt><trkpt lat="43.5860951" lon="6.6429976"><ele>265.6666666666667</ele><time>2026-04-12T08:57:27.859Z</time></trkpt><trkpt lat="43.5860509" lon="6.6430955"><ele>265.5</ele><time>2026-04-12T08:57:28.892Z</time></trkpt><trkpt lat="43.5860073" lon="6.6431986"><ele>265.3333333333333</ele><time>2026-04-12T08:57:29.856Z</time></trkpt><trkpt lat="43.5859604" lon="6.6433051"><ele>265.16666666666663</ele><time>2026-04-12T08:57:30.88Z</time></trkpt><trkpt lat="43.5859076" lon="6.6434048"><ele>265.0</ele><time>2026-04-12T08:57:31.868Z</time></trkpt><trkpt lat="43.5858686" lon="6.6435026"><ele>265.0</ele><time>2026-04-12T08:57:32.857Z</time></trkpt><trkpt lat="43.5858219" lon="6.6436016"><ele>265.0</ele><time>2026-04-12T08:57:33.881Z</time></trkpt><trkpt lat="43.585767" lon="6.6437052"><ele>265.0</ele><time>2026-04-12T08:57:34.88Z</time></trkpt><trkpt lat="43.5857154" lon="6.6438074"><ele>265.0</ele><time>2026-04-12T08:57:35.857Z</time></trkpt><trkpt lat="43.5856655" lon="6.6439098"><ele>265.0</ele><time>2026-04-12T08:57:36.887Z</time></trkpt><trkpt lat="43.5856172" lon="6.6440119"><ele>265.0</ele><time>2026-04-12T08:57:37.859Z</time></trkpt><trkpt lat="43.5855644" lon="6.6441133"><ele>264.4</ele><time>2026-04-12T08:57:38.873Z</time></trkpt><trkpt lat="43.5855131" lon="6.6442205"><ele>263.8</ele><time>2026-04-12T08:57:39.902Z</time></trkpt><trkpt lat="43.5854621" lon="6.6443251"><ele>263.2</ele><time>2026-04-12T08:57:40.872Z</time></trkpt><trkpt lat="43.5854134" lon="6.6444244"><ele>262.6</ele><time>2026-04-12T08:57:41.883Z</time></trkpt><trkpt lat="43.5853669" lon="6.6445283"><ele>262.0</ele><time>2026-04-12T08:57:42.888Z</time></trkpt><trkpt lat="43.5853173" lon="6.6446354"><ele>262.0</ele><time>2026-04-12T08:57:43.863Z</time></trkpt><trkpt lat="43.5852681" lon="6.6447422"><ele>262.0</ele><time>2026-04-12T08:57:44.883Z</time></trkpt><trkpt lat="43.5852182" lon="6.6448449"><ele>262.0</ele><time>2026-04-12T08:57:45.887Z</time></trkpt><trkpt lat="43.5851635" lon="6.6449565"><ele>262.0</ele><time>2026-04-12T08:57:46.845Z</time></trkpt><trkpt lat="43.5851159" lon="6.6450738"><ele>262.0</ele><time>2026-04-12T08:57:47.874Z</time></trkpt><trkpt lat="43.5850676" lon="6.6451923"><ele>261.4</ele><time>2026-04-12T08:57:48.877Z</time></trkpt><trkpt lat="43.5850182" lon="6.645317"><ele>260.79999999999995</ele><time>2026-04-12T08:57:49.868Z</time></trkpt><trkpt lat="43.5849762" lon="6.6454429"><ele>260.2</ele><time>2026-04-12T08:57:50.892Z</time></trkpt><trkpt lat="43.5849388" lon="6.6455702"><ele>259.59999999999997</ele><time>2026-04-12T08:57:51.88Z</time></trkpt><trkpt lat="43.5849057" lon="6.645698"><ele>259.0</ele><time>2026-04-12T08:57:52.873Z</time></trkpt><trkpt lat="43.5848787" lon="6.6458289"><ele>259.0</ele><time>2026-04-12T08:57:53.875Z</time></trkpt><trkpt lat="43.5848652" lon="6.6459715"><ele>259.0</ele><time>2026-04-12T08:57:54.873Z</time></trkpt><trkpt lat="43.5848533" lon="6.6461099"><ele>259.0</ele><time>2026-04-12T08:57:55.853Z</time></trkpt><trkpt lat="43.5848405" lon="6.6462511"><ele>259.0</ele><time>2026-04-12T08:57:56.902Z</time></trkpt><trkpt lat="43.5848317" lon="6.6463949"><ele>259.0</ele><time>2026-04-12T08:57:57.866Z</time></trkpt><trkpt lat="43.5848215" lon="6.6465318"><ele>258.0</ele><time>2026-04-12T08:57:58.858Z</time></trkpt><trkpt lat="43.5848129" lon="6.6466704"><ele>257.0</ele><time>2026-04-12T08:57:59.887Z</time></trkpt><trkpt lat="43.5848045" lon="6.6468136"><ele>255.99999999999997</ele><time>2026-04-12T08:58:00.877Z</time></trkpt><trkpt lat="43.5847945" lon="6.6469654"><ele>255.0</ele><time>2026-04-12T08:58:01.892Z</time></trkpt><trkpt lat="43.5847856" lon="6.6471177"><ele>254.0</ele><time>2026-04-12T08:58:02.865Z</time></trkpt><trkpt lat="43.5847756" lon="6.6472712"><ele>253.6</ele><time>2026-04-12T08:58:03.85Z</time></trkpt><trkpt lat="43.5847716" lon="6.6474195"><ele>253.2</ele><time>2026-04-12T08:58:04.828Z</time></trkpt><trkpt lat="43.5847775" lon="6.6475618"><ele>252.79999999999998</ele><time>2026-04-12T08:58:05.865Z</time></trkpt><trkpt lat="43.5848054" lon="6.6476937"><ele>252.39999999999998</ele><time>2026-04-12T08:58:06.897Z</time></trkpt><trkpt lat="43.5848514" lon="6.6478272"><ele>252.0</ele><time>2026-04-12T08:58:07.877Z</time></trkpt><trkpt lat="43.5849052" lon="6.647952"><ele>251.6</ele><time>2026-04-12T08:58:08.875Z</time></trkpt><trkpt lat="43.5849535" lon="6.6480789"><ele>251.2</ele><time>2026-04-12T08:58:09.885Z</time></trkpt><trkpt lat="43.5849975" lon="6.6482062"><ele>250.8</ele><time>2026-04-12T08:58:10.88Z</time></trkpt><trkpt lat="43.5850327" lon="6.6483452"><ele>250.4</ele><time>2026-04-12T08:58:11.861Z</time></trkpt><trkpt lat="43.5850491" lon="6.648503"><ele>250.0</ele><time>2026-04-12T08:58:12.887Z</time></trkpt><trkpt lat="43.5850512" lon="6.6486587"><ele>249.75</ele><time>2026-04-12T08:58:13.894Z</time></trkpt><trkpt lat="43.5850538" lon="6.6488219"><ele>249.5</ele><time>2026-04-12T08:58:14.887Z</time></trkpt><trkpt lat="43.5850413" lon="6.6489739"><ele>249.25</ele><time>2026-04-12T08:58:15.881Z</time></trkpt><trkpt lat="43.5850184" lon="6.64913"><ele>249.0</ele><time>2026-04-12T08:58:16.871Z</time></trkpt><trkpt lat="43.584995" lon="6.6492816"><ele>249.0</ele><time>2026-04-12T08:58:17.883Z</time></trkpt><trkpt lat="43.5849697" lon="6.6494454"><ele>249.0</ele><time>2026-04-12T08:58:18.899Z</time></trkpt><trkpt lat="43.5849399" lon="6.6496106"><ele>249.0</ele><time>2026-04-12T08:58:19.871Z</time></trkpt><trkpt lat="43.5849121" lon="6.6497809"><ele>249.0</ele><time>2026-04-12T08:58:20.87Z</time></trkpt><trkpt lat="43.5848843" lon="6.649951"><ele>247.25</ele><time>2026-04-12T08:58:21.879Z</time></trkpt><trkpt lat="43.5848595" lon="6.6501181"><ele>245.5</ele><time>2026-04-12T08:58:22.859Z</time></trkpt><trkpt lat="43.584842" lon="6.650291"><ele>243.75</ele><time>2026-04-12T08:58:23.894Z</time></trkpt><trkpt lat="43.5848349" lon="6.6504658"><ele>242.0</ele><time>2026-04-12T08:58:24.885Z</time></trkpt><trkpt lat="43.5848385" lon="6.6506422"><ele>241.0</ele><time>2026-04-12T08:58:25.891Z</time></trkpt><trkpt lat="43.5848574" lon="6.6508189"><ele>240.0</ele><time>2026-04-12T08:58:26.879Z</time></trkpt><trkpt lat="43.5848918" lon="6.6509821"><ele>239.0</ele><time>2026-04-12T08:58:27.876Z</time></trkpt><trkpt lat="43.5849361" lon="6.6511399"><ele>238.0</ele><time>2026-04-12T08:58:28.885Z</time></trkpt><trkpt lat="43.5849919" lon="6.6512875"><ele>237.75</ele><time>2026-04-12T08:58:29.881Z</time></trkpt><trkpt lat="43.5850542" lon="6.6514275"><ele>237.5</ele><time>2026-04-12T08:58:30.904Z</time></trkpt><trkpt lat="43.5851158" lon="6.6515611"><ele>237.25</ele><time>2026-04-12T08:58:31.881Z</time></trkpt><trkpt lat="43.5851794" lon="6.6516878"><ele>237.0</ele><time>2026-04-12T08:58:32.879Z</time></trkpt><trkpt lat="43.5852365" lon="6.6518098"><ele>237.0</ele><time>2026-04-12T08:58:33.885Z</time></trkpt><trkpt lat="43.5852868" lon="6.6519312"><ele>237.0</ele><time>2026-04-12T08:58:34.875Z</time></trkpt><trkpt lat="43.5853303" lon="6.6520629"><ele>237.0</ele><time>2026-04-12T08:58:35.86Z</time></trkpt><trkpt lat="43.5853582" lon="6.6522017"><ele>237.0</ele><time>2026-04-12T08:58:36.889Z</time></trkpt><trkpt lat="43.5853727" lon="6.6523379"><ele>237.0</ele><time>2026-04-12T08:58:37.875Z</time></trkpt><trkpt lat="43.5853796" lon="6.6524792"><ele>237.39999999999998</ele><time>2026-04-12T08:58:38.889Z</time></trkpt><trkpt lat="43.5853766" lon="6.6526131"><ele>237.79999999999998</ele><time>2026-04-12T08:58:39.879Z</time></trkpt><trkpt lat="43.5853756" lon="6.652753"><ele>238.2</ele><time>2026-04-12T08:58:40.872Z</time></trkpt><trkpt lat="43.585373" lon="6.6528843"><ele>238.6</ele><time>2026-04-12T08:58:41.89Z</time></trkpt><trkpt lat="43.5853725" lon="6.6530123"><ele>239.0</ele><time>2026-04-12T08:58:42.926Z</time></trkpt><trkpt lat="43.5853735" lon="6.6531386"><ele>239.00000000000003</ele><time>2026-04-12T08:58:43.876Z</time></trkpt><trkpt lat="43.5853749" lon="6.6532573"><ele>239.0</ele><time>2026-04-12T08:58:44.867Z</time></trkpt><trkpt lat="43.5853761" lon="6.653372"><ele>239.0</ele><time>2026-04-12T08:58:45.904Z</time></trkpt><trkpt lat="43.5853717" lon="6.6534862"><ele>239.0</ele><time>2026-04-12T08:58:46.894Z</time></trkpt><trkpt lat="43.5853704" lon="6.653602"><ele>239.00000000000003</ele><time>2026-04-12T08:58:47.878Z</time></trkpt><trkpt lat="43.5853681" lon="6.6537193"><ele>239.0</ele><time>2026-04-12T08:58:48.877Z</time></trkpt><trkpt lat="43.5853658" lon="6.6538331"><ele>239.33333333333334</ele><time>2026-04-12T08:58:49.871Z</time></trkpt><trkpt lat="43.5853695" lon="6.6539411"><ele>239.66666666666669</ele><time>2026-04-12T08:58:50.895Z</time></trkpt><trkpt lat="43.5853683" lon="6.6540547"><ele>240.0</ele><time>2026-04-12T08:58:51.891Z</time></trkpt><trkpt lat="43.5853676" lon="6.654157"><ele>240.33333333333331</ele><time>2026-04-12T08:58:52.894Z</time></trkpt><trkpt lat="43.585364" lon="6.6542649"><ele>240.66666666666666</ele><time>2026-04-12T08:58:53.862Z</time></trkpt><trkpt lat="43.5853628" lon="6.6543706"><ele>241.0</ele><time>2026-04-12T08:58:54.882Z</time></trkpt><trkpt lat="43.5853638" lon="6.6544882"><ele>241.49999999999997</ele><time>2026-04-12T08:58:55.878Z</time></trkpt><trkpt lat="43.5853605" lon="6.6546047"><ele>242.0</ele><time>2026-04-12T08:58:56.829Z</time></trkpt><trkpt lat="43.5853606" lon="6.6547181"><ele>242.5</ele><time>2026-04-12T08:58:57.878Z</time></trkpt><trkpt lat="43.5853597" lon="6.6548375"><ele>243.0</ele><time>2026-04-12T08:58:58.863Z</time></trkpt><trkpt lat="43.5853595" lon="6.6549515"><ele>243.49999999999997</ele><time>2026-04-12T08:58:59.849Z</time></trkpt><trkpt lat="43.5853551" lon="6.6550733"><ele>244.0</ele><time>2026-04-12T08:59:00.883Z</time></trkpt><trkpt lat="43.5853536" lon="6.6551919"><ele>244.16666666666666</ele><time>2026-04-12T08:59:01.853Z</time></trkpt><trkpt lat="43.5853531" lon="6.6553085"><ele>244.33333333333331</ele><time>2026-04-12T08:59:02.868Z</time></trkpt><trkpt lat="43.5853508" lon="6.6554252"><ele>244.5</ele><time>2026-04-12T08:59:03.883Z</time></trkpt><trkpt lat="43.5853474" lon="6.6555368"><ele>244.66666666666669</ele><time>2026-04-12T08:59:04.904Z</time></trkpt><trkpt lat="43.5853435" lon="6.6556527"><ele>244.83333333333334</ele><time>2026-04-12T08:59:05.849Z</time></trkpt><trkpt lat="43.5853391" lon="6.6557622"><ele>245.0</ele><time>2026-04-12T08:59:06.873Z</time></trkpt><trkpt lat="43.5853364" lon="6.6558659"><ele>244.16666666666669</ele><time>2026-04-12T08:59:07.87Z</time></trkpt><trkpt lat="43.5853382" lon="6.6559738"><ele>243.33333333333334</ele><time>2026-04-12T08:59:08.888Z</time></trkpt><trkpt lat="43.5853376" lon="6.6560815"><ele>242.5</ele><time>2026-04-12T08:59:09.862Z</time></trkpt><trkpt lat="43.5853402" lon="6.6561923"><ele>241.66666666666669</ele><time>2026-04-12T08:59:10.901Z</time></trkpt><trkpt lat="43.58534" lon="6.6562979"><ele>240.83333333333334</ele><time>2026-04-12T08:59:11.865Z</time></trkpt><trkpt lat="43.5853403" lon="6.656406"><ele>240.0</ele><time>2026-04-12T08:59:12.881Z</time></trkpt><trkpt lat="43.5853384" lon="6.6565114"><ele>240.0</ele><time>2026-04-12T08:59:13.852Z</time></trkpt><trkpt lat="43.5853403" lon="6.6566249"><ele>240.0</ele><time>2026-04-12T08:59:14.877Z</time></trkpt><trkpt lat="43.5853382" lon="6.6567391"><ele>240.0</ele><time>2026-04-12T08:59:15.892Z</time></trkpt><trkpt lat="43.5853343" lon="6.6568477"><ele>240.0</ele><time>2026-04-12T08:59:16.876Z</time></trkpt><trkpt lat="43.5853318" lon="6.656962"><ele>240.0</ele><time>2026-04-12T08:59:17.871Z</time></trkpt><trkpt lat="43.58533" lon="6.6570731"><ele>240.0</ele><time>2026-04-12T08:59:18.874Z</time></trkpt><trkpt lat="43.5853265" lon="6.6571823"><ele>240.16666666666666</ele><time>2026-04-12T08:59:19.873Z</time></trkpt><trkpt lat="43.5853189" lon="6.6572944"><ele>240.33333333333331</ele><time>2026-04-12T08:59:20.852Z</time></trkpt><trkpt lat="43.5853068" lon="6.6574087"><ele>240.5</ele><time>2026-04-12T08:59:21.888Z</time></trkpt><trkpt lat="43.5852898" lon="6.6575211"><ele>240.66666666666666</ele><time>2026-04-12T08:59:22.884Z</time></trkpt><trkpt lat="43.5852676" lon="6.6576273"><ele>240.83333333333331</ele><time>2026-04-12T08:59:23.856Z</time></trkpt><trkpt lat="43.5852459" lon="6.6577237"><ele>241.0</ele><time>2026-04-12T08:59:24.825Z</time></trkpt><trkpt lat="43.585223" lon="6.6578079"><ele>242.20000000000002</ele><time>2026-04-12T08:59:25.901Z</time></trkpt><trkpt lat="43.5851688" lon="6.657957"><ele>243.40000000000003</ele><time>2026-04-12T08:59:27.889Z</time></trkpt><trkpt lat="43.5851102" lon="6.6580821"><ele>244.6</ele><time>2026-04-12T08:59:29.854Z</time></trkpt><trkpt lat="43.5850493" lon="6.6581956"><ele>245.8</ele><time>2026-04-12T08:59:31.88Z</time></trkpt><trkpt lat="43.5849868" lon="6.6582919"><ele>247.0</ele><time>2026-04-12T08:59:33.878Z</time></trkpt><trkpt lat="43.5849285" lon="6.6583772"><ele>246.99999999999997</ele><time>2026-04-12T08:59:35.886Z</time></trkpt><trkpt lat="43.5848653" lon="6.6584566"><ele>247.0</ele><time>2026-04-12T08:59:37.876Z</time></trkpt><trkpt lat="43.5847946" lon="6.6585362"><ele>247.0</ele><time>2026-04-12T08:59:39.877Z</time></trkpt><trkpt lat="43.5847353" lon="6.6586156"><ele>247.0</ele><time>2026-04-12T08:59:41.862Z</time></trkpt><trkpt lat="43.5846851" lon="6.6586918"><ele>246.99999999999997</ele><time>2026-04-12T08:59:43.844Z</time></trkpt><trkpt lat="43.5846267" lon="6.6588004"><ele>247.0</ele><time>2026-04-12T08:59:45.849Z</time></trkpt><trkpt lat="43.584576" lon="6.658913"><ele>246.39999999999998</ele><time>2026-04-12T08:59:47.855Z</time></trkpt><trkpt lat="43.5845433" lon="6.6590306"><ele>245.79999999999998</ele><time>2026-04-12T08:59:49.844Z</time></trkpt><trkpt lat="43.5845183" lon="6.6591599"><ele>245.2</ele><time>2026-04-12T08:59:51.869Z</time></trkpt><trkpt lat="43.5845062" lon="6.6592963"><ele>244.6</ele><time>2026-04-12T08:59:53.867Z</time></trkpt><trkpt lat="43.5845076" lon="6.659434"><ele>244.0</ele><time>2026-04-12T08:59:55.868Z</time></trkpt><trkpt lat="43.5845268" lon="6.6595672"><ele>246.39999999999998</ele><time>2026-04-12T08:59:57.875Z</time></trkpt><trkpt lat="43.5845664" lon="6.659694"><ele>248.79999999999998</ele><time>2026-04-12T08:59:59.876Z</time></trkpt><trkpt lat="43.5846145" lon="6.6598107"><ele>251.20000000000002</ele><time>2026-04-12T09:00:01.878Z</time></trkpt><trkpt lat="43.5846774" lon="6.6599091"><ele>253.60000000000002</ele><time>2026-04-12T09:00:03.897Z</time></trkpt><trkpt lat="43.5847441" lon="6.6599782"><ele>256.0</ele><time>2026-04-12T09:00:05.855Z</time></trkpt><trkpt lat="43.584812" lon="6.6600265"><ele>256.0</ele><time>2026-04-12T09:00:07.891Z</time></trkpt><trkpt lat="43.5848959" lon="6.6600775"><ele>256.0</ele><time>2026-04-12T09:00:09.898Z</time></trkpt><trkpt lat="43.5849702" lon="6.6601287"><ele>256.0</ele><time>2026-04-12T09:00:11.881Z</time></trkpt><trkpt lat="43.5850469" lon="6.6601773"><ele>256.0</ele><time>2026-04-12T09:00:13.854Z</time></trkpt><trkpt lat="43.5851391" lon="6.6602313"><ele>256.0</ele><time>2026-04-12T09:00:15.879Z</time></trkpt><trkpt lat="43.5852295" lon="6.6602919"><ele>256.3333333333333</ele><time>2026-04-12T09:00:17.872Z</time></trkpt><trkpt lat="43.5852974" lon="6.6603719"><ele>256.66666666666663</ele><time>2026-04-12T09:00:19.848Z</time></trkpt><trkpt lat="43.5853371" lon="6.6604872"><ele>257.0</ele><time>2026-04-12T09:00:21.864Z</time></trkpt><trkpt lat="43.5853399" lon="6.660616"><ele>257.3333333333333</ele><time>2026-04-12T09:00:23.868Z</time></trkpt><trkpt lat="43.5853204" lon="6.6607253"><ele>257.6666666666667</ele><time>2026-04-12T09:00:25.865Z</time></trkpt><trkpt lat="43.5852805" lon="6.6608317"><ele>258.0</ele><time>2026-04-12T09:00:27.869Z</time></trkpt><trkpt lat="43.5852151" lon="6.6609192"><ele>258.0</ele><time>2026-04-12T09:00:29.843Z</time></trkpt><trkpt lat="43.5851471" lon="6.6609783"><ele>258.0</ele><time>2026-04-12T09:00:31.873Z</time></trkpt><trkpt lat="43.5850855" lon="6.6610491"><ele>258.0</ele><time>2026-04-12T09:00:33.874Z</time></trkpt><trkpt lat="43.5850282" lon="6.6611054"><ele>258.0</ele><time>2026-04-12T09:00:35.879Z</time></trkpt><trkpt lat="43.5849665" lon="6.6611757"><ele>258.0</ele><time>2026-04-12T09:00:37.868Z</time></trkpt><trkpt lat="43.584906" lon="6.6612523"><ele>258.0</ele><time>2026-04-12T09:00:39.852Z</time></trkpt><trkpt lat="43.5848535" lon="6.6613299"><ele>259.5</ele><time>2026-04-12T09:00:41.847Z</time></trkpt><trkpt lat="43.5847961" lon="6.6614135"><ele>261.0</ele><time>2026-04-12T09:00:43.88Z</time></trkpt><trkpt lat="43.5847455" lon="6.6614926"><ele>262.5</ele><time>2026-04-12T09:00:45.864Z</time></trkpt><trkpt lat="43.5847057" lon="6.6615833"><ele>264.0</ele><time>2026-04-12T09:00:47.857Z</time></trkpt><trkpt lat="43.5846708" lon="6.6616738"><ele>265.5</ele><time>2026-04-12T09:00:49.866Z</time></trkpt><trkpt lat="43.5846388" lon="6.6617682"><ele>267.0</ele><time>2026-04-12T09:00:51.857Z</time></trkpt><trkpt lat="43.5846194" lon="6.6618734"><ele>268.0</ele><time>2026-04-12T09:00:53.858Z</time></trkpt><trkpt lat="43.584607" lon="6.6619806"><ele>269.0</ele><time>2026-04-12T09:00:55.885Z</time></trkpt><trkpt lat="43.5845944" lon="6.6620832"><ele>270.0</ele><time>2026-04-12T09:00:57.901Z</time></trkpt><trkpt lat="43.5845943" lon="6.6621909"><ele>271.0</ele><time>2026-04-12T09:00:59.867Z</time></trkpt><trkpt lat="43.5845855" lon="6.662297"><ele>272.0</ele><time>2026-04-12T09:01:01.872Z</time></trkpt><trkpt lat="43.5845727" lon="6.6623932"><ele>273.0</ele><time>2026-04-12T09:01:03.856Z</time></trkpt><trkpt lat="43.5845652" lon="6.6624891"><ele>273.0</ele><time>2026-04-12T09:01:05.87Z</time></trkpt><trkpt lat="43.5845571" lon="6.6625911"><ele>273.0</ele><time>2026-04-12T09:01:07.859Z</time></trkpt><trkpt lat="43.5845426" lon="6.6626858"><ele>273.0</ele><time>2026-04-12T09:01:09.872Z</time></trkpt><trkpt lat="43.5845435" lon="6.6627996"><ele>273.0</ele><time>2026-04-12T09:01:11.832Z</time></trkpt><trkpt lat="43.584582" lon="6.6629279"><ele>273.0</ele><time>2026-04-12T09:01:13.833Z</time></trkpt><trkpt lat="43.5845488" lon="6.66304"><ele>273.0</ele><time>2026-04-12T09:01:15.817Z</time></trkpt><trkpt lat="43.5845347" lon="6.6631334"><ele>273.0</ele><time>2026-04-12T09:01:17.844Z</time></trkpt><trkpt lat="43.5845391" lon="6.6632243"><ele>273.0</ele><time>2026-04-12T09:01:19.889Z</time></trkpt><trkpt lat="43.584532" lon="6.6633119"><ele>273.0</ele><time>2026-04-12T09:01:21.873Z</time></trkpt><trkpt lat="43.5845232" lon="6.6634193"><ele>273.0</ele><time>2026-04-12T09:01:23.872Z</time></trkpt><trkpt lat="43.584501" lon="6.663544"><ele>273.0</ele><time>2026-04-12T09:01:25.867Z</time></trkpt><trkpt lat="43.5844776" lon="6.6636414"><ele>273.0</ele><time>2026-04-12T09:01:27.892Z</time></trkpt><trkpt lat="43.5844685" lon="6.6637472"><ele>273.0</ele><time>2026-04-12T09:01:29.881Z</time></trkpt><trkpt lat="43.5844495" lon="6.6638622"><ele>273.0</ele><time>2026-04-12T09:01:31.865Z</time></trkpt><trkpt lat="43.5844161" lon="6.6639695"><ele>273.0</ele><time>2026-04-12T09:01:33.87Z</time></trkpt><trkpt lat="43.5843836" lon="6.664081"><ele>273.0</ele><time>2026-04-12T09:01:35.872Z</time></trkpt><trkpt lat="43.5843367" lon="6.6641896"><ele>273.0</ele><time>2026-04-12T09:01:37.859Z</time></trkpt><trkpt lat="43.5842845" lon="6.6642878"><ele>273.0</ele><time>2026-04-12T09:01:39.887Z</time></trkpt><trkpt lat="43.5842242" lon="6.6643835"><ele>275.0</ele><time>2026-04-12T09:01:41.88Z</time></trkpt><trkpt lat="43.5841634" lon="6.6644769"><ele>277.0</ele><time>2026-04-12T09:01:43.86Z</time></trkpt><trkpt lat="43.5840804" lon="6.6645593"><ele>279.0</ele><time>2026-04-12T09:01:45.878Z</time></trkpt><trkpt lat="43.5839919" lon="6.6646461"><ele>281.0</ele><time>2026-04-12T09:01:47.895Z</time></trkpt><trkpt lat="43.5839091" lon="6.664727"><ele>283.0</ele><time>2026-04-12T09:01:49.866Z</time></trkpt><trkpt lat="43.5838267" lon="6.6647928"><ele>283.0</ele><time>2026-04-12T09:01:51.887Z</time></trkpt><trkpt lat="43.5837436" lon="6.6648686"><ele>283.0</ele><time>2026-04-12T09:01:53.881Z</time></trkpt><trkpt lat="43.5836585" lon="6.6649551"><ele>283.0</ele><time>2026-04-12T09:01:55.861Z</time></trkpt><trkpt lat="43.583578" lon="6.6650566"><ele>283.0</ele><time>2026-04-12T09:01:57.862Z</time></trkpt><trkpt lat="43.5834906" lon="6.6651673"><ele>283.0</ele><time>2026-04-12T09:01:59.87Z</time></trkpt><trkpt lat="43.5834468" lon="6.6652301"><ele>282.0</ele><time>2026-04-12T09:02:00.88Z</time></trkpt><trkpt lat="43.5833717" lon="6.6653552"><ele>281.0</ele><time>2026-04-12T09:02:02.88Z</time></trkpt><trkpt lat="43.5833057" lon="6.6654955"><ele>280.0</ele><time>2026-04-12T09:02:04.849Z</time></trkpt><trkpt lat="43.5832556" lon="6.6656435"><ele>279.0</ele><time>2026-04-12T09:02:06.862Z</time></trkpt><trkpt lat="43.5832129" lon="6.6657944"><ele>278.99999999999994</ele><time>2026-04-12T09:02:08.868Z</time></trkpt><trkpt lat="43.5831968" lon="6.6658853"><ele>279.0</ele><time>2026-04-12T09:02:09.876Z</time></trkpt><trkpt lat="43.5831821" lon="6.6659747"><ele>279.0</ele><time>2026-04-12T09:02:10.865Z</time></trkpt><trkpt lat="43.5831695" lon="6.6660638"><ele>279.0</ele><time>2026-04-12T09:02:11.884Z</time></trkpt><trkpt lat="43.5831644" lon="6.6661564"><ele>279.0</ele><time>2026-04-12T09:02:12.882Z</time></trkpt><trkpt lat="43.5831603" lon="6.6662488"><ele>278.99999999999994</ele><time>2026-04-12T09:02:13.89Z</time></trkpt><trkpt lat="43.5831615" lon="6.6663407"><ele>279.0</ele><time>2026-04-12T09:02:14.878Z</time></trkpt><trkpt lat="43.5831775" lon="6.6665197"><ele>279.0</ele><time>2026-04-12T09:02:16.864Z</time></trkpt><trkpt lat="43.5831995" lon="6.6666769"><ele>279.0</ele><time>2026-04-12T09:02:18.852Z</time></trkpt><trkpt lat="43.5832127" lon="6.6667644"><ele>279.0</ele><time>2026-04-12T09:02:19.881Z</time></trkpt><trkpt lat="43.5832314" lon="6.6668561"><ele>279.0</ele><time>2026-04-12T09:02:20.874Z</time></trkpt><trkpt lat="43.583253" lon="6.6669529"><ele>279.0</ele><time>2026-04-12T09:02:21.88Z</time></trkpt><trkpt lat="43.5832696" lon="6.6670436"><ele>279.0</ele><time>2026-04-12T09:02:22.88Z</time></trkpt><trkpt lat="43.5832875" lon="6.6671416"><ele>278.85714285714283</ele><time>2026-04-12T09:02:23.894Z</time></trkpt><trkpt lat="43.5833027" lon="6.6672377"><ele>278.7142857142857</ele><time>2026-04-12T09:02:24.889Z</time></trkpt><trkpt lat="43.5833176" lon="6.6673329"><ele>278.57142857142856</ele><time>2026-04-12T09:02:25.866Z</time></trkpt><trkpt lat="43.5833385" lon="6.6674303"><ele>278.42857142857144</ele><time>2026-04-12T09:02:26.868Z</time></trkpt><trkpt lat="43.5833609" lon="6.667527"><ele>278.2857142857143</ele><time>2026-04-12T09:02:27.876Z</time></trkpt><trkpt lat="43.5833748" lon="6.6676186"><ele>278.1428571428571</ele><time>2026-04-12T09:02:28.882Z</time></trkpt><trkpt lat="43.5833901" lon="6.6677233"><ele>278.0</ele><time>2026-04-12T09:02:29.893Z</time></trkpt><trkpt lat="43.5834072" lon="6.667829"><ele>278.0</ele><time>2026-04-12T09:02:30.832Z</time></trkpt><trkpt lat="43.5834284" lon="6.6679269"><ele>278.0</ele><time>2026-04-12T09:02:31.877Z</time></trkpt><trkpt lat="43.583449" lon="6.6680277"><ele>278.0</ele><time>2026-04-12T09:02:32.872Z</time></trkpt><trkpt lat="43.5834704" lon="6.6681351"><ele>278.0</ele><time>2026-04-12T09:02:33.886Z</time></trkpt><trkpt lat="43.5834869" lon="6.6682415"><ele>278.0</ele><time>2026-04-12T09:02:34.888Z</time></trkpt><trkpt lat="43.5835095" lon="6.6683545"><ele>278.0</ele><time>2026-04-12T09:02:35.893Z</time></trkpt><trkpt lat="43.5835324" lon="6.6684582"><ele>278.0</ele><time>2026-04-12T09:02:36.88Z</time></trkpt><trkpt lat="43.5835552" lon="6.6685687"><ele>278.0</ele><time>2026-04-12T09:02:37.891Z</time></trkpt><trkpt lat="43.5835781" lon="6.6686659"><ele>278.0</ele><time>2026-04-12T09:02:38.864Z</time></trkpt><trkpt lat="43.5836061" lon="6.6687635"><ele>278.0</ele><time>2026-04-12T09:02:39.88Z</time></trkpt><trkpt lat="43.5836485" lon="6.6688549"><ele>278.0</ele><time>2026-04-12T09:02:40.897Z</time></trkpt><trkpt lat="43.5836982" lon="6.6689407"><ele>278.0</ele><time>2026-04-12T09:02:41.888Z</time></trkpt><trkpt lat="43.5837526" lon="6.669025"><ele>278.83333333333337</ele><time>2026-04-12T09:02:42.834Z</time></trkpt><trkpt lat="43.5838206" lon="6.6690943"><ele>279.6666666666667</ele><time>2026-04-12T09:02:43.892Z</time></trkpt><trkpt lat="43.5838929" lon="6.6691558"><ele>280.5</ele><time>2026-04-12T09:02:44.896Z</time></trkpt><trkpt lat="43.5839639" lon="6.66921"><ele>281.3333333333333</ele><time>2026-04-12T09:02:45.845Z</time></trkpt><trkpt lat="43.5840355" lon="6.6692545"><ele>282.16666666666663</ele><time>2026-04-12T09:02:46.888Z</time></trkpt><trkpt lat="43.5841065" lon="6.6692989"><ele>283.0</ele><time>2026-04-12T09:02:47.879Z</time></trkpt><trkpt lat="43.5841858" lon="6.6693348"><ele>283.0</ele><time>2026-04-12T09:02:48.853Z</time></trkpt><trkpt lat="43.5842656" lon="6.6693684"><ele>283.0</ele><time>2026-04-12T09:02:49.852Z</time></trkpt><trkpt lat="43.5843426" lon="6.6694009"><ele>283.0</ele><time>2026-04-12T09:02:50.867Z</time></trkpt><trkpt lat="43.5844237" lon="6.6694349"><ele>283.0</ele><time>2026-04-12T09:02:51.894Z</time></trkpt><trkpt lat="43.584504" lon="6.6694645"><ele>283.0</ele><time>2026-04-12T09:02:52.87Z</time></trkpt><trkpt lat="43.5845825" lon="6.6695009"><ele>283.0</ele><time>2026-04-12T09:02:53.848Z</time></trkpt><trkpt lat="43.5846643" lon="6.6695311"><ele>281.8333333333333</ele><time>2026-04-12T09:02:54.89Z</time></trkpt><trkpt lat="43.5847521" lon="6.669556"><ele>280.66666666666663</ele><time>2026-04-12T09:02:55.883Z</time></trkpt><trkpt lat="43.5848323" lon="6.6695872"><ele>279.5</ele><time>2026-04-12T09:02:56.833Z</time></trkpt><trkpt lat="43.5849159" lon="6.6696243"><ele>278.3333333333333</ele><time>2026-04-12T09:02:57.904Z</time></trkpt><trkpt lat="43.5850016" lon="6.6696623"><ele>277.1666666666667</ele><time>2026-04-12T09:02:58.891Z</time></trkpt><trkpt lat="43.5850846" lon="6.6697139"><ele>276.0</ele><time>2026-04-12T09:02:59.856Z</time></trkpt><trkpt lat="43.5851618" lon="6.6697743"><ele>276.0</ele><time>2026-04-12T09:03:00.888Z</time></trkpt><trkpt lat="43.5852396" lon="6.6698284"><ele>276.0</ele><time>2026-04-12T09:03:01.846Z</time></trkpt><trkpt lat="43.5853178" lon="6.6698918"><ele>276.0</ele><time>2026-04-12T09:03:02.904Z</time></trkpt><trkpt lat="43.5853973" lon="6.6699637"><ele>276.0</ele><time>2026-04-12T09:03:03.861Z</time></trkpt><trkpt lat="43.5854791" lon="6.6700241"><ele>276.0</ele><time>2026-04-12T09:03:04.844Z</time></trkpt><trkpt lat="43.585559" lon="6.6700833"><ele>275.40000000000003</ele><time>2026-04-12T09:03:05.91Z</time></trkpt><trkpt lat="43.5856391" lon="6.6701423"><ele>274.8</ele><time>2026-04-12T09:03:06.861Z</time></trkpt><trkpt lat="43.5857224" lon="6.6702031"><ele>274.20000000000005</ele><time>2026-04-12T09:03:07.869Z</time></trkpt><trkpt lat="43.5858054" lon="6.6702503"><ele>273.6</ele><time>2026-04-12T09:03:08.87Z</time></trkpt><trkpt lat="43.5858944" lon="6.6702927"><ele>273.0</ele><time>2026-04-12T09:03:09.901Z</time></trkpt><trkpt lat="43.5859838" lon="6.6703252"><ele>273.0</ele><time>2026-04-12T09:03:10.88Z</time></trkpt><trkpt lat="43.5860743" lon="6.6703412"><ele>273.0</ele><time>2026-04-12T09:03:11.982Z</time></trkpt><trkpt lat="43.5862547" lon="6.6703178"><ele>273.0</ele><time>2026-04-12T09:03:13.908Z</time></trkpt><trkpt lat="43.5863416" lon="6.6702849"><ele>273.0</ele><time>2026-04-12T09:03:14.846Z</time></trkpt><trkpt lat="43.5864274" lon="6.6702377"><ele>275.0</ele><time>2026-04-12T09:03:15.859Z</time></trkpt><trkpt lat="43.5865045" lon="6.6701718"><ele>277.0</ele><time>2026-04-12T09:03:16.883Z</time></trkpt><trkpt lat="43.5865809" lon="6.6701007"><ele>279.0</ele><time>2026-04-12T09:03:17.857Z</time></trkpt><trkpt lat="43.5866546" lon="6.6700295"><ele>281.0</ele><time>2026-04-12T09:03:18.861Z</time></trkpt><trkpt lat="43.5867242" lon="6.6699463"><ele>283.0</ele><time>2026-04-12T09:03:19.825Z</time></trkpt><trkpt lat="43.586794" lon="6.6698596"><ele>283.0</ele><time>2026-04-12T09:03:20.882Z</time></trkpt><trkpt lat="43.5868635" lon="6.6697893"><ele>283.0</ele><time>2026-04-12T09:03:21.869Z</time></trkpt><trkpt lat="43.5869368" lon="6.6697192"><ele>283.0</ele><time>2026-04-12T09:03:22.876Z</time></trkpt><trkpt lat="43.5870089" lon="6.6696476"><ele>283.0</ele><time>2026-04-12T09:03:23.852Z</time></trkpt><trkpt lat="43.5870795" lon="6.6695814"><ele>283.0</ele><time>2026-04-12T09:03:24.872Z</time></trkpt><trkpt lat="43.5871565" lon="6.6695278"><ele>283.0</ele><time>2026-04-12T09:03:25.879Z</time></trkpt><trkpt lat="43.587235" lon="6.6694824"><ele>282.16666666666663</ele><time>2026-04-12T09:03:26.891Z</time></trkpt><trkpt lat="43.5873214" lon="6.669458"><ele>281.3333333333333</ele><time>2026-04-12T09:03:27.872Z</time></trkpt><trkpt lat="43.587414" lon="6.6694648"><ele>280.5</ele><time>2026-04-12T09:03:28.853Z</time></trkpt><trkpt lat="43.5874976" lon="6.6695003"><ele>279.6666666666667</ele><time>2026-04-12T09:03:29.879Z</time></trkpt><trkpt lat="43.5875675" lon="6.6695557"><ele>278.83333333333337</ele><time>2026-04-12T09:03:30.889Z</time></trkpt><trkpt lat="43.5876275" lon="6.6696427"><ele>278.0</ele><time>2026-04-12T09:03:31.834Z</time></trkpt><trkpt lat="43.58766" lon="6.6697259"><ele>278.0</ele><time>2026-04-12T09:03:32.882Z</time></trkpt><trkpt lat="43.5876905" lon="6.669828"><ele>278.0</ele><time>2026-04-12T09:03:33.885Z</time></trkpt><trkpt lat="43.5877031" lon="6.6699415"><ele>278.0</ele><time>2026-04-12T09:03:34.844Z</time></trkpt><trkpt lat="43.5877041" lon="6.6700532"><ele>278.0</ele><time>2026-04-12T09:03:35.891Z</time></trkpt><trkpt lat="43.5876996" lon="6.6701566"><ele>278.0</ele><time>2026-04-12T09:03:36.888Z</time></trkpt><trkpt lat="43.5876922" lon="6.6702607"><ele>278.0</ele><time>2026-04-12T09:03:37.884Z</time></trkpt><trkpt lat="43.5876771" lon="6.6703563"><ele>278.6666666666667</ele><time>2026-04-12T09:03:38.901Z</time></trkpt><trkpt lat="43.5876512" lon="6.670451"><ele>279.33333333333337</ele><time>2026-04-12T09:03:39.889Z</time></trkpt><trkpt lat="43.5876259" lon="6.6705449"><ele>280.0</ele><time>2026-04-12T09:03:40.881Z</time></trkpt><trkpt lat="43.5875916" lon="6.6706323"><ele>280.6666666666667</ele><time>2026-04-12T09:03:41.866Z</time></trkpt><trkpt lat="43.5875556" lon="6.6707136"><ele>281.3333333333333</ele><time>2026-04-12T09:03:42.873Z</time></trkpt><trkpt lat="43.5875161" lon="6.6707908"><ele>282.0</ele><time>2026-04-12T09:03:43.879Z</time></trkpt><trkpt lat="43.5874404" lon="6.6709319"><ele>282.0</ele><time>2026-04-12T09:03:45.881Z</time></trkpt><trkpt lat="43.5874024" lon="6.6710054"><ele>282.0</ele><time>2026-04-12T09:03:46.841Z</time></trkpt><trkpt lat="43.5873347" lon="6.6711534"><ele>282.0</ele><time>2026-04-12T09:03:48.878Z</time></trkpt><trkpt lat="43.587305" lon="6.6712325"><ele>282.0</ele><time>2026-04-12T09:03:49.852Z</time></trkpt><trkpt lat="43.5872381" lon="6.6713795"><ele>282.0</ele><time>2026-04-12T09:03:51.892Z</time></trkpt><trkpt lat="43.5872034" lon="6.6714592"><ele>283.2</ele><time>2026-04-12T09:03:52.865Z</time></trkpt><trkpt lat="43.5871708" lon="6.6715348"><ele>284.4</ele><time>2026-04-12T09:03:53.885Z</time></trkpt><trkpt lat="43.5871048" lon="6.6716767"><ele>285.6</ele><time>2026-04-12T09:03:55.885Z</time></trkpt><trkpt lat="43.5870425" lon="6.6718267"><ele>286.8</ele><time>2026-04-12T09:03:57.857Z</time></trkpt><trkpt lat="43.5869716" lon="6.6719611"><ele>288.0</ele><time>2026-04-12T09:03:59.863Z</time></trkpt><trkpt lat="43.5869066" lon="6.6721125"><ele>288.0</ele><time>2026-04-12T09:04:01.869Z</time></trkpt><trkpt lat="43.5868738" lon="6.6721959"><ele>288.0</ele><time>2026-04-12T09:04:02.886Z</time></trkpt><trkpt lat="43.5868193" lon="6.672346"><ele>288.0</ele><time>2026-04-12T09:04:04.866Z</time></trkpt><trkpt lat="43.5867934" lon="6.6724308"><ele>288.0</ele><time>2026-04-12T09:04:05.891Z</time></trkpt><trkpt lat="43.5867721" lon="6.6725149"><ele>288.0</ele><time>2026-04-12T09:04:06.878Z</time></trkpt><trkpt lat="43.5867576" lon="6.6726014"><ele>288.0</ele><time>2026-04-12T09:04:07.893Z</time></trkpt><trkpt lat="43.5867436" lon="6.6726877"><ele>287.8333333333333</ele><time>2026-04-12T09:04:08.897Z</time></trkpt><trkpt lat="43.5867336" lon="6.6727759"><ele>287.6666666666667</ele><time>2026-04-12T09:04:09.85Z</time></trkpt><trkpt lat="43.5867268" lon="6.6729484"><ele>287.5</ele><time>2026-04-12T09:04:11.91Z</time></trkpt><trkpt lat="43.5867315" lon="6.67304"><ele>287.33333333333337</ele><time>2026-04-12T09:04:12.877Z</time></trkpt><trkpt lat="43.5867389" lon="6.6731294"><ele>287.1666666666667</ele><time>2026-04-12T09:04:13.83Z</time></trkpt><trkpt lat="43.586752" lon="6.6732216"><ele>287.0</ele><time>2026-04-12T09:04:14.881Z</time></trkpt><trkpt lat="43.5867708" lon="6.6733105"><ele>287.0</ele><time>2026-04-12T09:04:15.875Z</time></trkpt><trkpt lat="43.5867936" lon="6.6733945"><ele>287.0</ele><time>2026-04-12T09:04:16.882Z</time></trkpt><trkpt lat="43.5868176" lon="6.6734765"><ele>287.0</ele><time>2026-04-12T09:04:17.873Z</time></trkpt><trkpt lat="43.5868627" lon="6.6736386"><ele>287.0</ele><time>2026-04-12T09:04:19.886Z</time></trkpt><trkpt lat="43.5868839" lon="6.6737232"><ele>287.0</ele><time>2026-04-12T09:04:20.867Z</time></trkpt><trkpt lat="43.5869198" lon="6.6738801"><ele>287.0</ele><time>2026-04-12T09:04:22.883Z</time></trkpt><trkpt lat="43.58694" lon="6.6739645"><ele>286.7142857142857</ele><time>2026-04-12T09:04:23.9Z</time></trkpt><trkpt lat="43.5869628" lon="6.674053"><ele>286.42857142857144</ele><time>2026-04-12T09:04:24.865Z</time></trkpt><trkpt lat="43.5869854" lon="6.6741445"><ele>286.1428571428571</ele><time>2026-04-12T09:04:25.881Z</time></trkpt><trkpt lat="43.5870077" lon="6.6742359"><ele>285.8571428571429</ele><time>2026-04-12T09:04:26.862Z</time></trkpt><trkpt lat="43.5870283" lon="6.674326"><ele>285.57142857142856</ele><time>2026-04-12T09:04:27.913Z</time></trkpt><trkpt lat="43.5870504" lon="6.6744165"><ele>285.2857142857143</ele><time>2026-04-12T09:04:28.828Z</time></trkpt><trkpt lat="43.5870726" lon="6.6745023"><ele>285.0</ele><time>2026-04-12T09:04:29.88Z</time></trkpt><trkpt lat="43.587114" lon="6.6746636"><ele>286.25</ele><time>2026-04-12T09:04:31.872Z</time></trkpt><trkpt lat="43.587159" lon="6.6748245"><ele>287.5</ele><time>2026-04-12T09:04:33.911Z</time></trkpt><trkpt lat="43.587198" lon="6.6749858"><ele>288.75</ele><time>2026-04-12T09:04:35.892Z</time></trkpt><trkpt lat="43.5872346" lon="6.6751357"><ele>290.0</ele><time>2026-04-12T09:04:37.891Z</time></trkpt><trkpt lat="43.5872719" lon="6.6752805"><ele>290.0</ele><time>2026-04-12T09:04:39.872Z</time></trkpt><trkpt lat="43.5873038" lon="6.6754272"><ele>290.0</ele><time>2026-04-12T09:04:41.869Z</time></trkpt><trkpt lat="43.5873471" lon="6.6755689"><ele>290.0</ele><time>2026-04-12T09:04:43.874Z</time></trkpt><trkpt lat="43.5873792" lon="6.6756451"><ele>290.0</ele><time>2026-04-12T09:04:44.886Z</time></trkpt><trkpt lat="43.5874518" lon="6.6757778"><ele>290.0</ele><time>2026-04-12T09:04:46.877Z</time></trkpt><trkpt lat="43.5875399" lon="6.6758859"><ele>290.0</ele><time>2026-04-12T09:04:48.883Z</time></trkpt><trkpt lat="43.587648" lon="6.6759731"><ele>290.0</ele><time>2026-04-12T09:04:50.876Z</time></trkpt><trkpt lat="43.5877592" lon="6.6760269"><ele>290.0</ele><time>2026-04-12T09:04:52.878Z</time></trkpt><trkpt lat="43.5878213" lon="6.6760443"><ele>290.0</ele><time>2026-04-12T09:04:53.878Z</time></trkpt><trkpt lat="43.5878845" lon="6.6760634"><ele>290.0</ele><time>2026-04-12T09:04:54.868Z</time></trkpt><trkpt lat="43.5879471" lon="6.6760809"><ele>290.0</ele><time>2026-04-12T09:04:55.859Z</time></trkpt><trkpt lat="43.5880116" lon="6.6760958"><ele>289.8571428571429</ele><time>2026-04-12T09:04:56.871Z</time></trkpt><trkpt lat="43.5880751" lon="6.6761077"><ele>289.7142857142857</ele><time>2026-04-12T09:04:57.87Z</time></trkpt><trkpt lat="43.5881415" lon="6.6761228"><ele>289.57142857142856</ele><time>2026-04-12T09:04:58.88Z</time></trkpt><trkpt lat="43.5882042" lon="6.6761384"><ele>289.42857142857144</ele><time>2026-04-12T09:04:59.884Z</time></trkpt><trkpt lat="43.5882689" lon="6.6761542"><ele>289.2857142857143</ele><time>2026-04-12T09:05:00.902Z</time></trkpt><trkpt lat="43.5883335" lon="6.6761723"><ele>289.14285714285717</ele><time>2026-04-12T09:05:01.875Z</time></trkpt><trkpt lat="43.5883972" lon="6.676188"><ele>289.0</ele><time>2026-04-12T09:05:02.88Z</time></trkpt><trkpt lat="43.5884622" lon="6.6762038"><ele>289.0</ele><time>2026-04-12T09:05:03.871Z</time></trkpt><trkpt lat="43.5885291" lon="6.6762181"><ele>289.0</ele><time>2026-04-12T09:05:04.884Z</time></trkpt><trkpt lat="43.5885924" lon="6.6762357"><ele>289.0</ele><time>2026-04-12T09:05:05.882Z</time></trkpt><trkpt lat="43.5887189" lon="6.6762685"><ele>289.0</ele><time>2026-04-12T09:05:07.887Z</time></trkpt><trkpt lat="43.5887833" lon="6.6762865"><ele>289.0</ele><time>2026-04-12T09:05:08.856Z</time></trkpt><trkpt lat="43.5888492" lon="6.6763066"><ele>289.0</ele><time>2026-04-12T09:05:09.883Z</time></trkpt><trkpt lat="43.5889182" lon="6.6763243"><ele>289.42857142857144</ele><time>2026-04-12T09:05:10.874Z</time></trkpt><trkpt lat="43.5889892" lon="6.6763457"><ele>289.85714285714283</ele><time>2026-04-12T09:05:11.909Z</time></trkpt><trkpt lat="43.5890533" lon="6.6763664"><ele>290.2857142857143</ele><time>2026-04-12T09:05:12.879Z</time></trkpt><trkpt lat="43.5891183" lon="6.6763829"><ele>290.7142857142857</ele><time>2026-04-12T09:05:13.859Z</time></trkpt><trkpt lat="43.589187" lon="6.6763953"><ele>291.14285714285717</ele><time>2026-04-12T09:05:14.867Z</time></trkpt><trkpt lat="43.5892543" lon="6.6764108"><ele>291.57142857142856</ele><time>2026-04-12T09:05:15.87Z</time></trkpt><trkpt lat="43.5893261" lon="6.6764295"><ele>292.0</ele><time>2026-04-12T09:05:16.888Z</time></trkpt><trkpt lat="43.5893963" lon="6.6764445"><ele>292.0</ele><time>2026-04-12T09:05:17.868Z</time></trkpt><trkpt lat="43.5894652" lon="6.6764606"><ele>292.0</ele><time>2026-04-12T09:05:18.904Z</time></trkpt><trkpt lat="43.5895364" lon="6.6764813"><ele>292.0</ele><time>2026-04-12T09:05:19.856Z</time></trkpt><trkpt lat="43.5896109" lon="6.6764947"><ele>292.0</ele><time>2026-04-12T09:05:20.876Z</time></trkpt><trkpt lat="43.5896861" lon="6.676511"><ele>292.0</ele><time>2026-04-12T09:05:21.889Z</time></trkpt><trkpt lat="43.5897585" lon="6.6765317"><ele>292.0</ele><time>2026-04-12T09:05:22.878Z</time></trkpt><trkpt lat="43.5898321" lon="6.6765568"><ele>292.0</ele><time>2026-04-12T09:05:23.896Z</time></trkpt><trkpt lat="43.5899053" lon="6.6765894"><ele>292.3333333333333</ele><time>2026-04-12T09:05:24.866Z</time></trkpt><trkpt lat="43.5899687" lon="6.676633"><ele>292.66666666666663</ele><time>2026-04-12T09:05:25.884Z</time></trkpt><trkpt lat="43.5900332" lon="6.6766931"><ele>293.0</ele><time>2026-04-12T09:05:26.862Z</time></trkpt><trkpt lat="43.5900904" lon="6.676764"><ele>293.3333333333333</ele><time>2026-04-12T09:05:27.894Z</time></trkpt><trkpt lat="43.5901395" lon="6.6768491"><ele>293.6666666666667</ele><time>2026-04-12T09:05:28.857Z</time></trkpt><trkpt lat="43.5901818" lon="6.6769444"><ele>294.0</ele><time>2026-04-12T09:05:29.885Z</time></trkpt><trkpt lat="43.5902116" lon="6.6770481"><ele>294.0</ele><time>2026-04-12T09:05:30.903Z</time></trkpt><trkpt lat="43.5902332" lon="6.6771494"><ele>294.0</ele><time>2026-04-12T09:05:31.903Z</time></trkpt><trkpt lat="43.5902497" lon="6.6772542"><ele>294.0</ele><time>2026-04-12T09:05:32.872Z</time></trkpt><trkpt lat="43.590253" lon="6.6773569"><ele>294.0</ele><time>2026-04-12T09:05:33.857Z</time></trkpt><trkpt lat="43.5902529" lon="6.6774546"><ele>294.0</ele><time>2026-04-12T09:05:34.883Z</time></trkpt><trkpt lat="43.5902488" lon="6.6775447"><ele>294.0</ele><time>2026-04-12T09:05:35.827Z</time></trkpt><trkpt lat="43.5902271" lon="6.6777182"><ele>295.0</ele><time>2026-04-12T09:05:37.873Z</time></trkpt><trkpt lat="43.5902096" lon="6.6778017"><ele>296.0</ele><time>2026-04-12T09:05:38.879Z</time></trkpt><trkpt lat="43.5901636" lon="6.6779544"><ele>297.0</ele><time>2026-04-12T09:05:40.896Z</time></trkpt><trkpt lat="43.5901107" lon="6.6780824"><ele>298.0</ele><time>2026-04-12T09:05:42.877Z</time></trkpt><trkpt lat="43.5900454" lon="6.6782088"><ele>299.0</ele><time>2026-04-12T09:05:44.868Z</time></trkpt><trkpt lat="43.5899629" lon="6.6783372"><ele>299.0</ele><time>2026-04-12T09:05:46.902Z</time></trkpt><trkpt lat="43.5898839" lon="6.6784544"><ele>299.0</ele><time>2026-04-12T09:05:48.891Z</time></trkpt><trkpt lat="43.5898091" lon="6.6785654"><ele>299.0</ele><time>2026-04-12T09:05:50.883Z</time></trkpt><trkpt lat="43.5897354" lon="6.6786858"><ele>299.0</ele><time>2026-04-12T09:05:52.875Z</time></trkpt><trkpt lat="43.5896681" lon="6.6788041"><ele>299.0</ele><time>2026-04-12T09:05:54.872Z</time></trkpt><trkpt lat="43.5896013" lon="6.6789184"><ele>299.2</ele><time>2026-04-12T09:05:56.893Z</time></trkpt><trkpt lat="43.589537" lon="6.6790224"><ele>299.4</ele><time>2026-04-12T09:05:58.875Z</time></trkpt><trkpt lat="43.5894675" lon="6.6791269"><ele>299.6</ele><time>2026-04-12T09:06:00.906Z</time></trkpt><trkpt lat="43.5893961" lon="6.679234"><ele>299.8</ele><time>2026-04-12T09:06:02.888Z</time></trkpt><trkpt lat="43.5893218" lon="6.6793426"><ele>300.0</ele><time>2026-04-12T09:06:04.88Z</time></trkpt><trkpt lat="43.589246" lon="6.6794629"><ele>300.8</ele><time>2026-04-12T09:06:06.876Z</time></trkpt><trkpt lat="43.5891793" lon="6.6795779"><ele>301.6</ele><time>2026-04-12T09:06:08.903Z</time></trkpt><trkpt lat="43.5891189" lon="6.6796914"><ele>302.4</ele><time>2026-04-12T09:06:10.873Z</time></trkpt><trkpt lat="43.5890596" lon="6.6798148"><ele>303.2</ele><time>2026-04-12T09:06:12.839Z</time></trkpt><trkpt lat="43.5890086" lon="6.6799364"><ele>304.0</ele><time>2026-04-12T09:06:14.884Z</time></trkpt><trkpt lat="43.5889617" lon="6.6800732"><ele>304.0</ele><time>2026-04-12T09:06:16.881Z</time></trkpt><trkpt lat="43.5889436" lon="6.6802232"><ele>304.0</ele><time>2026-04-12T09:06:18.87Z</time></trkpt><trkpt lat="43.5889297" lon="6.6803765"><ele>304.0</ele><time>2026-04-12T09:06:20.868Z</time></trkpt><trkpt lat="43.5889459" lon="6.680543"><ele>304.0</ele><time>2026-04-12T09:06:22.882Z</time></trkpt><trkpt lat="43.5889626" lon="6.6806305"><ele>304.0</ele><time>2026-04-12T09:06:23.874Z</time></trkpt><trkpt lat="43.5889889" lon="6.6807232"><ele>304.0</ele><time>2026-04-12T09:06:24.897Z</time></trkpt><trkpt lat="43.5890251" lon="6.6808078"><ele>304.0</ele><time>2026-04-12T09:06:25.855Z</time></trkpt><trkpt lat="43.5890693" lon="6.6808866"><ele>304.0</ele><time>2026-04-12T09:06:26.866Z</time></trkpt><trkpt lat="43.5891142" lon="6.6809639"><ele>304.0</ele><time>2026-04-12T09:06:27.899Z</time></trkpt><trkpt lat="43.5891638" lon="6.6810346"><ele>304.0</ele><time>2026-04-12T09:06:28.86Z</time></trkpt><trkpt lat="43.5892177" lon="6.6810978"><ele>304.0</ele><time>2026-04-12T09:06:29.884Z</time></trkpt><trkpt lat="43.589276" lon="6.6811471"><ele>304.0</ele><time>2026-04-12T09:06:30.884Z</time></trkpt><trkpt lat="43.5893411" lon="6.6811941"><ele>304.0</ele><time>2026-04-12T09:06:31.841Z</time></trkpt><trkpt lat="43.5894086" lon="6.6812305"><ele>304.0</ele><time>2026-04-12T09:06:32.869Z</time></trkpt><trkpt lat="43.5894746" lon="6.681268"><ele>304.0</ele><time>2026-04-12T09:06:33.893Z</time></trkpt><trkpt lat="43.5895402" lon="6.6813044"><ele>304.0</ele><time>2026-04-12T09:06:34.903Z</time></trkpt><trkpt lat="43.5896125" lon="6.6813419"><ele>304.0</ele><time>2026-04-12T09:06:35.888Z</time></trkpt><trkpt lat="43.5896897" lon="6.6813768"><ele>304.0</ele><time>2026-04-12T09:06:36.865Z</time></trkpt><trkpt lat="43.5897626" lon="6.6814122"><ele>304.0</ele><time>2026-04-12T09:06:37.854Z</time></trkpt><trkpt lat="43.5898369" lon="6.6814429"><ele>304.0</ele><time>2026-04-12T09:06:38.891Z</time></trkpt><trkpt lat="43.5899147" lon="6.6814726"><ele>304.0</ele><time>2026-04-12T09:06:39.865Z</time></trkpt><trkpt lat="43.5899903" lon="6.6815091"><ele>304.0</ele><time>2026-04-12T09:06:40.884Z</time></trkpt><trkpt lat="43.5900666" lon="6.6815408"><ele>304.0</ele><time>2026-04-12T09:06:41.881Z</time></trkpt><trkpt lat="43.5901467" lon="6.681581"><ele>304.0</ele><time>2026-04-12T09:06:42.88Z</time></trkpt><trkpt lat="43.5902345" lon="6.6816234"><ele>304.0</ele><time>2026-04-12T09:06:43.877Z</time></trkpt><trkpt lat="43.5903212" lon="6.681665"><ele>304.0</ele><time>2026-04-12T09:06:44.872Z</time></trkpt><trkpt lat="43.5904096" lon="6.6817096"><ele>304.0</ele><time>2026-04-12T09:06:45.885Z</time></trkpt><trkpt lat="43.5905028" lon="6.6817488"><ele>304.0</ele><time>2026-04-12T09:06:46.857Z</time></trkpt><trkpt lat="43.5906013" lon="6.6817857"><ele>304.0</ele><time>2026-04-12T09:06:47.896Z</time></trkpt><trkpt lat="43.5906982" lon="6.6818231"><ele>303.8</ele><time>2026-04-12T09:06:48.867Z</time></trkpt><trkpt lat="43.5907944" lon="6.6818565"><ele>303.59999999999997</ele><time>2026-04-12T09:06:49.854Z</time></trkpt><trkpt lat="43.5908923" lon="6.681897"><ele>303.4</ele><time>2026-04-12T09:06:50.868Z</time></trkpt><trkpt lat="43.5909945" lon="6.6819346"><ele>303.2</ele><time>2026-04-12T09:06:51.884Z</time></trkpt><trkpt lat="43.5910948" lon="6.6819748"><ele>303.0</ele><time>2026-04-12T09:06:52.86Z</time></trkpt><trkpt lat="43.591196" lon="6.6820101"><ele>300.8</ele><time>2026-04-12T09:06:53.876Z</time></trkpt><trkpt lat="43.5912949" lon="6.6820384"><ele>298.6</ele><time>2026-04-12T09:06:54.884Z</time></trkpt><trkpt lat="43.5913913" lon="6.6820774"><ele>296.4</ele><time>2026-04-12T09:06:55.876Z</time></trkpt><trkpt lat="43.5914906" lon="6.6821206"><ele>294.2</ele><time>2026-04-12T09:06:56.877Z</time></trkpt><trkpt lat="43.5915844" lon="6.6821574"><ele>292.0</ele><time>2026-04-12T09:06:57.886Z</time></trkpt><trkpt lat="43.5916798" lon="6.6821984"><ele>292.0</ele><time>2026-04-12T09:06:58.878Z</time></trkpt><trkpt lat="43.5917741" lon="6.6822394"><ele>292.0</ele><time>2026-04-12T09:06:59.889Z</time></trkpt><trkpt lat="43.5918616" lon="6.6822822"><ele>292.0</ele><time>2026-04-12T09:07:00.839Z</time></trkpt><trkpt lat="43.5919502" lon="6.6823239"><ele>292.0</ele><time>2026-04-12T09:07:01.873Z</time></trkpt><trkpt lat="43.5920426" lon="6.6823692"><ele>292.0</ele><time>2026-04-12T09:07:02.899Z</time></trkpt><trkpt lat="43.5921315" lon="6.68241"><ele>292.2</ele><time>2026-04-12T09:07:03.886Z</time></trkpt><trkpt lat="43.5922318" lon="6.682449"><ele>292.4</ele><time>2026-04-12T09:07:04.893Z</time></trkpt><trkpt lat="43.5923322" lon="6.6824958"><ele>292.6</ele><time>2026-04-12T09:07:05.885Z</time></trkpt><trkpt lat="43.5924369" lon="6.6825389"><ele>292.8</ele><time>2026-04-12T09:07:06.89Z</time></trkpt><trkpt lat="43.5925458" lon="6.6825746"><ele>293.0</ele><time>2026-04-12T09:07:07.887Z</time></trkpt><trkpt lat="43.5926485" lon="6.6826183"><ele>293.0</ele><time>2026-04-12T09:07:08.866Z</time></trkpt><trkpt lat="43.5927548" lon="6.68266"><ele>293.0</ele><time>2026-04-12T09:07:09.875Z</time></trkpt><trkpt lat="43.5928619" lon="6.6827008"><ele>293.0</ele><time>2026-04-12T09:07:10.878Z</time></trkpt><trkpt lat="43.592973" lon="6.682741"><ele>293.0</ele><time>2026-04-12T09:07:11.891Z</time></trkpt><trkpt lat="43.5930788" lon="6.6827708"><ele>293.0</ele><time>2026-04-12T09:07:12.87Z</time></trkpt><trkpt lat="43.5931893" lon="6.6827948"><ele>292.75</ele><time>2026-04-12T09:07:13.877Z</time></trkpt><trkpt lat="43.5933001" lon="6.6828154"><ele>292.5</ele><time>2026-04-12T09:07:14.891Z</time></trkpt><trkpt lat="43.5934154" lon="6.6828347"><ele>292.25</ele><time>2026-04-12T09:07:15.882Z</time></trkpt><trkpt lat="43.5935282" lon="6.6828593"><ele>292.0</ele><time>2026-04-12T09:07:16.852Z</time></trkpt><trkpt lat="43.593648" lon="6.6828836"><ele>291.25</ele><time>2026-04-12T09:07:17.861Z</time></trkpt><trkpt lat="43.5937677" lon="6.6829058"><ele>290.5</ele><time>2026-04-12T09:07:18.881Z</time></trkpt><trkpt lat="43.5938883" lon="6.6829279"><ele>289.75</ele><time>2026-04-12T09:07:19.874Z</time></trkpt><trkpt lat="43.5940067" lon="6.682947"><ele>289.0</ele><time>2026-04-12T09:07:20.857Z</time></trkpt><trkpt lat="43.5941226" lon="6.6829656"><ele>289.0</ele><time>2026-04-12T09:07:21.868Z</time></trkpt><trkpt lat="43.5942368" lon="6.6829871"><ele>289.0</ele><time>2026-04-12T09:07:22.877Z</time></trkpt><trkpt lat="43.5943529" lon="6.6830134"><ele>289.0</ele><time>2026-04-12T09:07:23.85Z</time></trkpt><trkpt lat="43.5944608" lon="6.6830575"><ele>289.0</ele><time>2026-04-12T09:07:24.828Z</time></trkpt><trkpt lat="43.5945536" lon="6.6831373"><ele>286.5</ele><time>2026-04-12T09:07:25.881Z</time></trkpt><trkpt lat="43.59463" lon="6.6832487"><ele>284.0</ele><time>2026-04-12T09:07:26.873Z</time></trkpt><trkpt lat="43.5946736" lon="6.6834072"><ele>281.5</ele><time>2026-04-12T09:07:27.87Z</time></trkpt><trkpt lat="43.5946972" lon="6.6835791"><ele>279.0</ele><time>2026-04-12T09:07:28.891Z</time></trkpt><trkpt lat="43.5947008" lon="6.6837574"><ele>278.25</ele><time>2026-04-12T09:07:29.88Z</time></trkpt><trkpt lat="43.5946967" lon="6.6839307"><ele>277.5</ele><time>2026-04-12T09:07:30.874Z</time></trkpt><trkpt lat="43.5946797" lon="6.6840986"><ele>276.75</ele><time>2026-04-12T09:07:31.886Z</time></trkpt><trkpt lat="43.5946493" lon="6.6842601"><ele>276.0</ele><time>2026-04-12T09:07:32.87Z</time></trkpt><trkpt lat="43.5946121" lon="6.6844104"><ele>276.5</ele><time>2026-04-12T09:07:33.897Z</time></trkpt><trkpt lat="43.5945696" lon="6.6845562"><ele>277.0</ele><time>2026-04-12T09:07:34.87Z</time></trkpt><trkpt lat="43.5945234" lon="6.6847078"><ele>277.5</ele><time>2026-04-12T09:07:35.881Z</time></trkpt><trkpt lat="43.594472" lon="6.6848651"><ele>278.0</ele><time>2026-04-12T09:07:36.88Z</time></trkpt><trkpt lat="43.5944158" lon="6.6850245"><ele>278.0</ele><time>2026-04-12T09:07:37.892Z</time></trkpt><trkpt lat="43.5943504" lon="6.6851994"><ele>278.0</ele><time>2026-04-12T09:07:38.887Z</time></trkpt><trkpt lat="43.5942869" lon="6.6853723"><ele>278.0</ele><time>2026-04-12T09:07:39.868Z</time></trkpt><trkpt lat="43.5942209" lon="6.6855511"><ele>278.0</ele><time>2026-04-12T09:07:40.877Z</time></trkpt><trkpt lat="43.5941582" lon="6.6857367"><ele>276.25</ele><time>2026-04-12T09:07:41.847Z</time></trkpt><trkpt lat="43.5940983" lon="6.6859192"><ele>274.5</ele><time>2026-04-12T09:07:42.873Z</time></trkpt><trkpt lat="43.5940508" lon="6.6861008"><ele>272.75</ele><time>2026-04-12T09:07:43.89Z</time></trkpt><trkpt lat="43.5939998" lon="6.6862805"><ele>271.0</ele><time>2026-04-12T09:07:44.872Z</time></trkpt><trkpt lat="43.5939436" lon="6.686458"><ele>271.0</ele><time>2026-04-12T09:07:45.824Z</time></trkpt><trkpt lat="43.5938915" lon="6.6866372"><ele>271.0</ele><time>2026-04-12T09:07:46.882Z</time></trkpt><trkpt lat="43.5938348" lon="6.6868154"><ele>271.0</ele><time>2026-04-12T09:07:47.856Z</time></trkpt><trkpt lat="43.5937782" lon="6.6869882"><ele>271.0</ele><time>2026-04-12T09:07:48.883Z</time></trkpt><trkpt lat="43.593721" lon="6.6871602"><ele>268.5</ele><time>2026-04-12T09:07:49.843Z</time></trkpt><trkpt lat="43.5936673" lon="6.6873378"><ele>266.0</ele><time>2026-04-12T09:07:50.852Z</time></trkpt><trkpt lat="43.5936247" lon="6.6875276"><ele>263.5</ele><time>2026-04-12T09:07:51.863Z</time></trkpt><trkpt lat="43.5935999" lon="6.6877261"><ele>261.0</ele><time>2026-04-12T09:07:52.88Z</time></trkpt><trkpt lat="43.5935985" lon="6.6879205"><ele>260.75</ele><time>2026-04-12T09:07:53.859Z</time></trkpt><trkpt lat="43.5936231" lon="6.688108"><ele>260.5</ele><time>2026-04-12T09:07:54.888Z</time></trkpt><trkpt lat="43.5936749" lon="6.6882857"><ele>260.25</ele><time>2026-04-12T09:07:55.895Z</time></trkpt><trkpt lat="43.5937439" lon="6.68844"><ele>260.0</ele><time>2026-04-12T09:07:56.868Z</time></trkpt><trkpt lat="43.5938337" lon="6.688583"><ele>259.5</ele><time>2026-04-12T09:07:57.875Z</time></trkpt><trkpt lat="43.5939336" lon="6.6887079"><ele>259.0</ele><time>2026-04-12T09:07:58.885Z</time></trkpt><trkpt lat="43.5940469" lon="6.6888255"><ele>258.5</ele><time>2026-04-12T09:07:59.884Z</time></trkpt><trkpt lat="43.5941582" lon="6.688927"><ele>258.0</ele><time>2026-04-12T09:08:00.878Z</time></trkpt><trkpt lat="43.5942611" lon="6.6890253"><ele>258.0</ele><time>2026-04-12T09:08:01.887Z</time></trkpt><trkpt lat="43.5943685" lon="6.6891326"><ele>258.0</ele><time>2026-04-12T09:08:02.877Z</time></trkpt><trkpt lat="43.594472" lon="6.6892322"><ele>258.0</ele><time>2026-04-12T09:08:03.879Z</time></trkpt><trkpt lat="43.5945901" lon="6.6893123"><ele>258.0</ele><time>2026-04-12T09:08:04.898Z</time></trkpt><trkpt lat="43.5947237" lon="6.6893471"><ele>257.5</ele><time>2026-04-12T09:08:05.884Z</time></trkpt><trkpt lat="43.5948568" lon="6.6893669"><ele>257.0</ele><time>2026-04-12T09:08:06.882Z</time></trkpt><trkpt lat="43.5949933" lon="6.6893794"><ele>256.5</ele><time>2026-04-12T09:08:07.874Z</time></trkpt><trkpt lat="43.595127" lon="6.6893807"><ele>256.0</ele><time>2026-04-12T09:08:08.844Z</time></trkpt><trkpt lat="43.5952526" lon="6.6893748"><ele>255.0</ele><time>2026-04-12T09:08:09.891Z</time></trkpt><trkpt lat="43.5953791" lon="6.6893604"><ele>254.0</ele><time>2026-04-12T09:08:10.874Z</time></trkpt><trkpt lat="43.5955061" lon="6.6893533"><ele>253.0</ele><time>2026-04-12T09:08:11.883Z</time></trkpt><trkpt lat="43.5956343" lon="6.6893457"><ele>252.0</ele><time>2026-04-12T09:08:12.878Z</time></trkpt><trkpt lat="43.5957627" lon="6.6893425"><ele>252.0</ele><time>2026-04-12T09:08:13.898Z</time></trkpt><trkpt lat="43.5958885" lon="6.6893454"><ele>252.0</ele><time>2026-04-12T09:08:14.884Z</time></trkpt><trkpt lat="43.5960178" lon="6.6893548"><ele>252.0</ele><time>2026-04-12T09:08:15.888Z</time></trkpt><trkpt lat="43.5961474" lon="6.6893885"><ele>252.0</ele><time>2026-04-12T09:08:16.872Z</time></trkpt><trkpt lat="43.596275" lon="6.6894349"><ele>250.5</ele><time>2026-04-12T09:08:17.878Z</time></trkpt><trkpt lat="43.5963957" lon="6.689503"><ele>249.0</ele><time>2026-04-12T09:08:18.872Z</time></trkpt><trkpt lat="43.596501" lon="6.6895819"><ele>247.5</ele><time>2026-04-12T09:08:19.872Z</time></trkpt><trkpt lat="43.596598" lon="6.6896716"><ele>246.0</ele><time>2026-04-12T09:08:20.888Z</time></trkpt><trkpt lat="43.5966902" lon="6.6897639"><ele>246.0</ele><time>2026-04-12T09:08:21.829Z</time></trkpt><trkpt lat="43.5967773" lon="6.68986"><ele>246.00000000000003</ele><time>2026-04-12T09:08:22.897Z</time></trkpt><trkpt lat="43.5968512" lon="6.6899754"><ele>246.00000000000003</ele><time>2026-04-12T09:08:23.899Z</time></trkpt><trkpt lat="43.5969069" lon="6.6900832"><ele>246.0</ele><time>2026-04-12T09:08:24.881Z</time></trkpt><trkpt lat="43.5969498" lon="6.6902026"><ele>246.0</ele><time>2026-04-12T09:08:25.892Z</time></trkpt><trkpt lat="43.5969654" lon="6.6903219"><ele>245.83333333333334</ele><time>2026-04-12T09:08:26.842Z</time></trkpt><trkpt lat="43.5969611" lon="6.6904409"><ele>245.66666666666669</ele><time>2026-04-12T09:08:27.881Z</time></trkpt><trkpt lat="43.596961" lon="6.6905619"><ele>245.5</ele><time>2026-04-12T09:08:28.855Z</time></trkpt><trkpt lat="43.5969973" lon="6.6906664"><ele>245.33333333333334</ele><time>2026-04-12T09:08:29.895Z</time></trkpt><trkpt lat="43.5970626" lon="6.6907525"><ele>245.16666666666669</ele><time>2026-04-12T09:08:30.882Z</time></trkpt><trkpt lat="43.5971228" lon="6.6908294"><ele>245.0</ele><time>2026-04-12T09:08:31.865Z</time></trkpt><trkpt lat="43.5971602" lon="6.6909231"><ele>245.00000000000003</ele><time>2026-04-12T09:08:32.878Z</time></trkpt><trkpt lat="43.5971845" lon="6.6910311"><ele>245.0</ele><time>2026-04-12T09:08:33.876Z</time></trkpt><trkpt lat="43.5971913" lon="6.6911489"><ele>245.0</ele><time>2026-04-12T09:08:34.888Z</time></trkpt><trkpt lat="43.5971989" lon="6.6912697"><ele>245.0</ele><time>2026-04-12T09:08:35.865Z</time></trkpt><trkpt lat="43.5971972" lon="6.6913969"><ele>245.00000000000003</ele><time>2026-04-12T09:08:36.869Z</time></trkpt><trkpt lat="43.5971825" lon="6.6915306"><ele>245.0</ele><time>2026-04-12T09:08:37.902Z</time></trkpt><trkpt lat="43.5971652" lon="6.6916666"><ele>245.0</ele><time>2026-04-12T09:08:38.852Z</time></trkpt><trkpt lat="43.5971443" lon="6.6917977"><ele>245.0</ele><time>2026-04-12T09:08:39.889Z</time></trkpt><trkpt lat="43.5971188" lon="6.6919301"><ele>245.0</ele><time>2026-04-12T09:08:40.887Z</time></trkpt><trkpt lat="43.5970909" lon="6.6920567"><ele>245.0</ele><time>2026-04-12T09:08:41.89Z</time></trkpt><trkpt lat="43.5970593" lon="6.6921838"><ele>245.0</ele><time>2026-04-12T09:08:42.872Z</time></trkpt><trkpt lat="43.5970274" lon="6.6923133"><ele>244.8</ele><time>2026-04-12T09:08:43.888Z</time></trkpt><trkpt lat="43.596993" lon="6.6924426"><ele>244.6</ele><time>2026-04-12T09:08:44.855Z</time></trkpt><trkpt lat="43.5969495" lon="6.692569"><ele>244.39999999999998</ele><time>2026-04-12T09:08:45.908Z</time></trkpt><trkpt lat="43.5968968" lon="6.692702"><ele>244.2</ele><time>2026-04-12T09:08:46.866Z</time></trkpt><trkpt lat="43.5968405" lon="6.692825"><ele>244.0</ele><time>2026-04-12T09:08:47.862Z</time></trkpt><trkpt lat="43.5967876" lon="6.6929475"><ele>244.0</ele><time>2026-04-12T09:08:48.873Z</time></trkpt><trkpt lat="43.5967332" lon="6.6930671"><ele>243.99999999999997</ele><time>2026-04-12T09:08:49.864Z</time></trkpt><trkpt lat="43.596676" lon="6.6931899"><ele>243.99999999999997</ele><time>2026-04-12T09:08:50.831Z</time></trkpt><trkpt lat="43.5966167" lon="6.6933151"><ele>244.0</ele><time>2026-04-12T09:08:51.873Z</time></trkpt><trkpt lat="43.5965609" lon="6.6934374"><ele>244.0</ele><time>2026-04-12T09:08:52.883Z</time></trkpt><trkpt lat="43.5965074" lon="6.6935616"><ele>245.0</ele><time>2026-04-12T09:08:53.886Z</time></trkpt><trkpt lat="43.5964503" lon="6.6936789"><ele>245.99999999999997</ele><time>2026-04-12T09:08:54.843Z</time></trkpt><trkpt lat="43.5963942" lon="6.6937936"><ele>246.99999999999997</ele><time>2026-04-12T09:08:55.892Z</time></trkpt><trkpt lat="43.5963362" lon="6.6939188"><ele>248.0</ele><time>2026-04-12T09:08:56.875Z</time></trkpt><trkpt lat="43.5962859" lon="6.6940403"><ele>249.0</ele><time>2026-04-12T09:08:57.892Z</time></trkpt><trkpt lat="43.5962398" lon="6.6941661"><ele>249.0</ele><time>2026-04-12T09:08:58.882Z</time></trkpt><trkpt lat="43.5962028" lon="6.6943004"><ele>248.99999999999997</ele><time>2026-04-12T09:08:59.875Z</time></trkpt><trkpt lat="43.5961691" lon="6.6944381"><ele>248.99999999999997</ele><time>2026-04-12T09:09:00.877Z</time></trkpt><trkpt lat="43.5961303" lon="6.694574"><ele>249.0</ele><time>2026-04-12T09:09:01.888Z</time></trkpt><trkpt lat="43.5960985" lon="6.6947089"><ele>249.0</ele><time>2026-04-12T09:09:02.856Z</time></trkpt><trkpt lat="43.5960746" lon="6.6948426"><ele>248.39999999999998</ele><time>2026-04-12T09:09:03.879Z</time></trkpt><trkpt lat="43.5960606" lon="6.6949851"><ele>247.79999999999998</ele><time>2026-04-12T09:09:04.829Z</time></trkpt><trkpt lat="43.5960502" lon="6.6951246"><ele>247.20000000000002</ele><time>2026-04-12T09:09:05.884Z</time></trkpt><trkpt lat="43.5960513" lon="6.6952572"><ele>246.60000000000002</ele><time>2026-04-12T09:09:06.889Z</time></trkpt><trkpt lat="43.5960542" lon="6.6953915"><ele>246.0</ele><time>2026-04-12T09:09:07.882Z</time></trkpt><trkpt lat="43.596071" lon="6.6955305"><ele>245.8</ele><time>2026-04-12T09:09:08.886Z</time></trkpt><trkpt lat="43.5960911" lon="6.6956684"><ele>245.60000000000002</ele><time>2026-04-12T09:09:09.881Z</time></trkpt><trkpt lat="43.596114" lon="6.6957861"><ele>245.4</ele><time>2026-04-12T09:09:10.898Z</time></trkpt><trkpt lat="43.5961435" lon="6.695907"><ele>245.2</ele><time>2026-04-12T09:09:11.873Z</time></trkpt><trkpt lat="43.5961752" lon="6.6960165"><ele>245.0</ele><time>2026-04-12T09:09:12.862Z</time></trkpt><trkpt lat="43.5962064" lon="6.6961284"><ele>245.33333333333334</ele><time>2026-04-12T09:09:13.848Z</time></trkpt><trkpt lat="43.5962409" lon="6.6962382"><ele>245.66666666666669</ele><time>2026-04-12T09:09:14.88Z</time></trkpt><trkpt lat="43.596279" lon="6.6963449"><ele>246.0</ele><time>2026-04-12T09:09:15.865Z</time></trkpt><trkpt lat="43.5963181" lon="6.6964427"><ele>246.33333333333331</ele><time>2026-04-12T09:09:16.884Z</time></trkpt><trkpt lat="43.5963561" lon="6.6965453"><ele>246.66666666666666</ele><time>2026-04-12T09:09:17.872Z</time></trkpt><trkpt lat="43.5963957" lon="6.6966386"><ele>247.0</ele><time>2026-04-12T09:09:18.878Z</time></trkpt><trkpt lat="43.596432" lon="6.6967355"><ele>246.99999999999997</ele><time>2026-04-12T09:09:19.882Z</time></trkpt><trkpt lat="43.5964698" lon="6.6968342"><ele>247.0</ele><time>2026-04-12T09:09:20.873Z</time></trkpt><trkpt lat="43.5965061" lon="6.6969264"><ele>247.0</ele><time>2026-04-12T09:09:21.886Z</time></trkpt><trkpt lat="43.596541" lon="6.69702"><ele>247.0</ele><time>2026-04-12T09:09:22.876Z</time></trkpt><trkpt lat="43.5965755" lon="6.6971131"><ele>246.99999999999997</ele><time>2026-04-12T09:09:23.884Z</time></trkpt><trkpt lat="43.5966071" lon="6.6972061"><ele>247.0</ele><time>2026-04-12T09:09:24.898Z</time></trkpt><trkpt lat="43.5966419" lon="6.6973053"><ele>246.83333333333331</ele><time>2026-04-12T09:09:25.892Z</time></trkpt><trkpt lat="43.5966745" lon="6.6973959"><ele>246.66666666666666</ele><time>2026-04-12T09:09:26.869Z</time></trkpt><trkpt lat="43.5967204" lon="6.6974918"><ele>246.5</ele><time>2026-04-12T09:09:27.908Z</time></trkpt><trkpt lat="43.5967684" lon="6.6975802"><ele>246.33333333333331</ele><time>2026-04-12T09:09:28.869Z</time></trkpt><trkpt lat="43.5968176" lon="6.697659"><ele>246.16666666666666</ele><time>2026-04-12T09:09:29.877Z</time></trkpt><trkpt lat="43.5968684" lon="6.6977369"><ele>246.0</ele><time>2026-04-12T09:09:30.856Z</time></trkpt><trkpt lat="43.5969246" lon="6.6978163"><ele>246.0</ele><time>2026-04-12T09:09:31.863Z</time></trkpt><trkpt lat="43.59698" lon="6.6978979"><ele>246.00000000000003</ele><time>2026-04-12T09:09:32.871Z</time></trkpt><trkpt lat="43.5970422" lon="6.6979817"><ele>246.00000000000003</ele><time>2026-04-12T09:09:33.861Z</time></trkpt><trkpt lat="43.5971171" lon="6.698066"><ele>246.0</ele><time>2026-04-12T09:09:34.833Z</time></trkpt><trkpt lat="43.5972043" lon="6.6981355"><ele>246.0</ele><time>2026-04-12T09:09:35.873Z</time></trkpt><trkpt lat="43.597296" lon="6.6982024"><ele>245.83333333333334</ele><time>2026-04-12T09:09:36.847Z</time></trkpt><trkpt lat="43.5973791" lon="6.698264"><ele>245.66666666666669</ele><time>2026-04-12T09:09:37.859Z</time></trkpt><trkpt lat="43.5974613" lon="6.6983257"><ele>245.5</ele><time>2026-04-12T09:09:38.829Z</time></trkpt><trkpt lat="43.5975301" lon="6.6983838"><ele>245.33333333333334</ele><time>2026-04-12T09:09:39.852Z</time></trkpt><trkpt lat="43.5976105" lon="6.6984526"><ele>245.16666666666669</ele><time>2026-04-12T09:09:40.84Z</time></trkpt><trkpt lat="43.5976803" lon="6.6985049"><ele>245.0</ele><time>2026-04-12T09:09:41.884Z</time></trkpt><trkpt lat="43.5977599" lon="6.698549"><ele>245.16666666666669</ele><time>2026-04-12T09:09:42.866Z</time></trkpt><trkpt lat="43.5978432" lon="6.6985764"><ele>245.33333333333334</ele><time>2026-04-12T09:09:43.886Z</time></trkpt><trkpt lat="43.5979196" lon="6.6986069"><ele>245.5</ele><time>2026-04-12T09:09:44.871Z</time></trkpt><trkpt lat="43.5979994" lon="6.6986458"><ele>245.66666666666669</ele><time>2026-04-12T09:09:45.883Z</time></trkpt><trkpt lat="43.5980816" lon="6.6986699"><ele>245.83333333333334</ele><time>2026-04-12T09:09:46.873Z</time></trkpt><trkpt lat="43.5981634" lon="6.6986953"><ele>246.0</ele><time>2026-04-12T09:09:47.901Z</time></trkpt><trkpt lat="43.5982484" lon="6.6987139"><ele>245.60000000000002</ele><time>2026-04-12T09:09:48.884Z</time></trkpt><trkpt lat="43.598335" lon="6.6987433"><ele>245.20000000000002</ele><time>2026-04-12T09:09:49.851Z</time></trkpt><trkpt lat="43.5984226" lon="6.6987641"><ele>244.79999999999998</ele><time>2026-04-12T09:09:50.881Z</time></trkpt><trkpt lat="43.5985192" lon="6.6987841"><ele>244.39999999999998</ele><time>2026-04-12T09:09:51.866Z</time></trkpt><trkpt lat="43.5986156" lon="6.6988084"><ele>244.0</ele><time>2026-04-12T09:09:52.861Z</time></trkpt><trkpt lat="43.5987066" lon="6.6988302"><ele>243.0</ele><time>2026-04-12T09:09:53.878Z</time></trkpt><trkpt lat="43.5988014" lon="6.6988523"><ele>241.99999999999997</ele><time>2026-04-12T09:09:54.867Z</time></trkpt><trkpt lat="43.598901" lon="6.6988711"><ele>240.99999999999997</ele><time>2026-04-12T09:09:55.891Z</time></trkpt><trkpt lat="43.5990041" lon="6.6989018"><ele>240.0</ele><time>2026-04-12T09:09:56.86Z</time></trkpt><trkpt lat="43.5991096" lon="6.6989312"><ele>239.0</ele><time>2026-04-12T09:09:57.875Z</time></trkpt><trkpt lat="43.5992102" lon="6.6989632"><ele>239.0</ele><time>2026-04-12T09:09:58.877Z</time></trkpt><trkpt lat="43.5993063" lon="6.6989985"><ele>238.99999999999997</ele><time>2026-04-12T09:09:59.866Z</time></trkpt><trkpt lat="43.5994114" lon="6.6990221"><ele>238.99999999999997</ele><time>2026-04-12T09:10:00.857Z</time></trkpt><trkpt lat="43.5995186" lon="6.6990494"><ele>239.0</ele><time>2026-04-12T09:10:01.884Z</time></trkpt><trkpt lat="43.5996211" lon="6.6990721"><ele>239.0</ele><time>2026-04-12T09:10:02.879Z</time></trkpt><trkpt lat="43.5997238" lon="6.6990959"><ele>238.25</ele><time>2026-04-12T09:10:03.848Z</time></trkpt><trkpt lat="43.599836" lon="6.6991203"><ele>237.5</ele><time>2026-04-12T09:10:04.878Z</time></trkpt><trkpt lat="43.5999529" lon="6.6991463"><ele>236.75</ele><time>2026-04-12T09:10:05.857Z</time></trkpt><trkpt lat="43.6000715" lon="6.699162"><ele>236.0</ele><time>2026-04-12T09:10:06.852Z</time></trkpt><trkpt lat="43.6001814" lon="6.699182"><ele>236.0</ele><time>2026-04-12T09:10:07.876Z</time></trkpt><trkpt lat="43.6002947" lon="6.6992117"><ele>236.0</ele><time>2026-04-12T09:10:08.88Z</time></trkpt><trkpt lat="43.600406" lon="6.6992358"><ele>236.0</ele><time>2026-04-12T09:10:09.87Z</time></trkpt><trkpt lat="43.6005229" lon="6.6992661"><ele>236.0</ele><time>2026-04-12T09:10:10.88Z</time></trkpt><trkpt lat="43.600642" lon="6.6992942"><ele>235.75</ele><time>2026-04-12T09:10:11.89Z</time></trkpt><trkpt lat="43.6007619" lon="6.6993308"><ele>235.5</ele><time>2026-04-12T09:10:12.884Z</time></trkpt><trkpt lat="43.6008822" lon="6.6993607"><ele>235.25</ele><time>2026-04-12T09:10:13.866Z</time></trkpt><trkpt lat="43.6010042" lon="6.6993923"><ele>235.0</ele><time>2026-04-12T09:10:14.892Z</time></trkpt><trkpt lat="43.6011214" lon="6.699426"><ele>234.0</ele><time>2026-04-12T09:10:15.861Z</time></trkpt><trkpt lat="43.6012411" lon="6.6994527"><ele>233.0</ele><time>2026-04-12T09:10:16.881Z</time></trkpt><trkpt lat="43.6013667" lon="6.6994851"><ele>232.0</ele><time>2026-04-12T09:10:17.864Z</time></trkpt><trkpt lat="43.6014963" lon="6.6995126"><ele>231.0</ele><time>2026-04-12T09:10:18.845Z</time></trkpt><trkpt lat="43.6016229" lon="6.6995387"><ele>231.0</ele><time>2026-04-12T09:10:19.887Z</time></trkpt><trkpt lat="43.6017515" lon="6.6995661"><ele>231.0</ele><time>2026-04-12T09:10:20.892Z</time></trkpt><trkpt lat="43.6018802" lon="6.6995983"><ele>231.0</ele><time>2026-04-12T09:10:21.893Z</time></trkpt><trkpt lat="43.6020161" lon="6.6996289"><ele>231.0</ele><time>2026-04-12T09:10:22.881Z</time></trkpt><trkpt lat="43.6021452" lon="6.6996593"><ele>229.0</ele><time>2026-04-12T09:10:23.887Z</time></trkpt><trkpt lat="43.6022759" lon="6.699693"><ele>227.0</ele><time>2026-04-12T09:10:24.878Z</time></trkpt><trkpt lat="43.6024049" lon="6.6997309"><ele>225.0</ele><time>2026-04-12T09:10:25.876Z</time></trkpt><trkpt lat="43.6025335" lon="6.6997658"><ele>223.0</ele><time>2026-04-12T09:10:26.861Z</time></trkpt><trkpt lat="43.6026601" lon="6.6997987"><ele>223.0</ele><time>2026-04-12T09:10:27.865Z</time></trkpt><trkpt lat="43.6027835" lon="6.6998255"><ele>223.0</ele><time>2026-04-12T09:10:28.888Z</time></trkpt><trkpt lat="43.6029087" lon="6.6998539"><ele>223.0</ele><time>2026-04-12T09:10:29.896Z</time></trkpt><trkpt lat="43.6030247" lon="6.6998883"><ele>223.0</ele><time>2026-04-12T09:10:30.88Z</time></trkpt><trkpt lat="43.603137" lon="6.6999285"><ele>222.4</ele><time>2026-04-12T09:10:31.868Z</time></trkpt><trkpt lat="43.6032495" lon="6.6999647"><ele>221.8</ele><time>2026-04-12T09:10:32.898Z</time></trkpt><trkpt lat="43.6033597" lon="6.6999981"><ele>221.2</ele><time>2026-04-12T09:10:33.865Z</time></trkpt><trkpt lat="43.6034684" lon="6.7000383"><ele>220.6</ele><time>2026-04-12T09:10:34.869Z</time></trkpt><trkpt lat="43.6035714" lon="6.7000768"><ele>220.0</ele><time>2026-04-12T09:10:35.877Z</time></trkpt><trkpt lat="43.603672" lon="6.7001202"><ele>220.0</ele><time>2026-04-12T09:10:36.897Z</time></trkpt><trkpt lat="43.6037719" lon="6.7001686"><ele>220.0</ele><time>2026-04-12T09:10:37.864Z</time></trkpt><trkpt lat="43.6038693" lon="6.7002106"><ele>220.0</ele><time>2026-04-12T09:10:38.835Z</time></trkpt><trkpt lat="43.6039616" lon="6.7002507"><ele>220.0</ele><time>2026-04-12T09:10:39.859Z</time></trkpt><trkpt lat="43.6040544" lon="6.700304"><ele>220.0</ele><time>2026-04-12T09:10:40.885Z</time></trkpt><trkpt lat="43.604152" lon="6.7003523"><ele>219.4</ele><time>2026-04-12T09:10:41.875Z</time></trkpt><trkpt lat="43.6042514" lon="6.7004028"><ele>218.8</ele><time>2026-04-12T09:10:42.904Z</time></trkpt><trkpt lat="43.604352" lon="6.7004506"><ele>218.2</ele><time>2026-04-12T09:10:43.903Z</time></trkpt><trkpt lat="43.6044492" lon="6.7005053"><ele>217.6</ele><time>2026-04-12T09:10:44.876Z</time></trkpt><trkpt lat="43.6045465" lon="6.700552"><ele>217.0</ele><time>2026-04-12T09:10:45.894Z</time></trkpt><trkpt lat="43.6046463" lon="6.7006006"><ele>217.0</ele><time>2026-04-12T09:10:46.876Z</time></trkpt><trkpt lat="43.6047464" lon="6.7006455"><ele>217.0</ele><time>2026-04-12T09:10:47.879Z</time></trkpt><trkpt lat="43.6048462" lon="6.7006945"><ele>217.0</ele><time>2026-04-12T09:10:48.892Z</time></trkpt><trkpt lat="43.60495" lon="6.7007399"><ele>217.0</ele><time>2026-04-12T09:10:49.852Z</time></trkpt><trkpt lat="43.6050528" lon="6.7007854"><ele>217.0</ele><time>2026-04-12T09:10:50.898Z</time></trkpt><trkpt lat="43.605154" lon="6.7008385"><ele>217.0</ele><time>2026-04-12T09:10:51.861Z</time></trkpt><trkpt lat="43.6052618" lon="6.7008932"><ele>217.0</ele><time>2026-04-12T09:10:52.891Z</time></trkpt><trkpt lat="43.6053669" lon="6.7009447"><ele>217.0</ele><time>2026-04-12T09:10:53.885Z</time></trkpt><trkpt lat="43.6054723" lon="6.7009969"><ele>217.0</ele><time>2026-04-12T09:10:54.873Z</time></trkpt><trkpt lat="43.6055766" lon="6.7010445"><ele>217.0</ele><time>2026-04-12T09:10:55.873Z</time></trkpt><trkpt lat="43.6056771" lon="6.7010904"><ele>217.0</ele><time>2026-04-12T09:10:56.877Z</time></trkpt><trkpt lat="43.6057753" lon="6.7011366"><ele>217.0</ele><time>2026-04-12T09:10:57.894Z</time></trkpt><trkpt lat="43.6058681" lon="6.7011893"><ele>217.0</ele><time>2026-04-12T09:10:58.878Z</time></trkpt><trkpt lat="43.6059605" lon="6.7012357"><ele>217.0</ele><time>2026-04-12T09:10:59.867Z</time></trkpt><trkpt lat="43.606053" lon="6.7012844"><ele>217.0</ele><time>2026-04-12T09:11:00.873Z</time></trkpt><trkpt lat="43.6061452" lon="6.7013324"><ele>217.0</ele><time>2026-04-12T09:11:01.887Z</time></trkpt><trkpt lat="43.6062403" lon="6.7013962"><ele>217.0</ele><time>2026-04-12T09:11:02.835Z</time></trkpt><trkpt lat="43.6063283" lon="6.7014641"><ele>217.0</ele><time>2026-04-12T09:11:03.904Z</time></trkpt><trkpt lat="43.606412" lon="6.7015428"><ele>217.0</ele><time>2026-04-12T09:11:04.883Z</time></trkpt><trkpt lat="43.6064952" lon="6.7016307"><ele>217.0</ele><time>2026-04-12T09:11:05.875Z</time></trkpt><trkpt lat="43.6065683" lon="6.7017335"><ele>217.0</ele><time>2026-04-12T09:11:06.867Z</time></trkpt><trkpt lat="43.6066365" lon="6.7018454"><ele>217.0</ele><time>2026-04-12T09:11:07.873Z</time></trkpt><trkpt lat="43.6066946" lon="6.7019596"><ele>217.0</ele><time>2026-04-12T09:11:08.879Z</time></trkpt><trkpt lat="43.6067436" lon="6.7020771"><ele>217.0</ele><time>2026-04-12T09:11:09.875Z</time></trkpt><trkpt lat="43.6067877" lon="6.7022046"><ele>217.0</ele><time>2026-04-12T09:11:10.896Z</time></trkpt><trkpt lat="43.6068223" lon="6.7023366"><ele>216.8</ele><time>2026-04-12T09:11:11.874Z</time></trkpt><trkpt lat="43.6068498" lon="6.7024718"><ele>216.6</ele><time>2026-04-12T09:11:12.864Z</time></trkpt><trkpt lat="43.6068773" lon="6.7026104"><ele>216.40000000000003</ele><time>2026-04-12T09:11:13.878Z</time></trkpt><trkpt lat="43.6069039" lon="6.7027497"><ele>216.20000000000002</ele><time>2026-04-12T09:11:14.86Z</time></trkpt><trkpt lat="43.606926" lon="6.7028896"><ele>216.0</ele><time>2026-04-12T09:11:15.836Z</time></trkpt><trkpt lat="43.6069465" lon="6.7030334"><ele>215.8</ele><time>2026-04-12T09:11:16.886Z</time></trkpt><trkpt lat="43.6069647" lon="6.7031752"><ele>215.60000000000002</ele><time>2026-04-12T09:11:17.847Z</time></trkpt><trkpt lat="43.6069847" lon="6.7033222"><ele>215.4</ele><time>2026-04-12T09:11:18.873Z</time></trkpt><trkpt lat="43.6070043" lon="6.7034675"><ele>215.2</ele><time>2026-04-12T09:11:19.884Z</time></trkpt><trkpt lat="43.6070212" lon="6.7036077"><ele>215.0</ele><time>2026-04-12T09:11:20.88Z</time></trkpt><trkpt lat="43.6070437" lon="6.7037576"><ele>214.6</ele><time>2026-04-12T09:11:21.873Z</time></trkpt><trkpt lat="43.6070606" lon="6.7039018"><ele>214.2</ele><time>2026-04-12T09:11:22.901Z</time></trkpt><trkpt lat="43.6070786" lon="6.7040449"><ele>213.8</ele><time>2026-04-12T09:11:23.893Z</time></trkpt><trkpt lat="43.6071" lon="6.7041917"><ele>213.4</ele><time>2026-04-12T09:11:24.891Z</time></trkpt><trkpt lat="43.6071247" lon="6.7043387"><ele>213.0</ele><time>2026-04-12T09:11:25.892Z</time></trkpt><trkpt lat="43.6071442" lon="6.704488"><ele>212.8</ele><time>2026-04-12T09:11:26.86Z</time></trkpt><trkpt lat="43.6071621" lon="6.7046348"><ele>212.60000000000002</ele><time>2026-04-12T09:11:27.888Z</time></trkpt><trkpt lat="43.6071779" lon="6.7047854"><ele>212.39999999999998</ele><time>2026-04-12T09:11:28.889Z</time></trkpt><trkpt lat="43.6071931" lon="6.7049299"><ele>212.2</ele><time>2026-04-12T09:11:29.879Z</time></trkpt><trkpt lat="43.6072125" lon="6.7050711"><ele>212.0</ele><time>2026-04-12T09:11:30.853Z</time></trkpt><trkpt lat="43.6072315" lon="6.7052125"><ele>212.39999999999998</ele><time>2026-04-12T09:11:31.871Z</time></trkpt><trkpt lat="43.6072533" lon="6.7053474"><ele>212.79999999999998</ele><time>2026-04-12T09:11:32.896Z</time></trkpt><trkpt lat="43.6072726" lon="6.7054819"><ele>213.2</ele><time>2026-04-12T09:11:33.888Z</time></trkpt><trkpt lat="43.6072956" lon="6.7056198"><ele>213.6</ele><time>2026-04-12T09:11:34.879Z</time></trkpt><trkpt lat="43.6073174" lon="6.7057536"><ele>214.0</ele><time>2026-04-12T09:11:35.874Z</time></trkpt><trkpt lat="43.607339" lon="6.7058854"><ele>214.0</ele><time>2026-04-12T09:11:36.889Z</time></trkpt><trkpt lat="43.6073612" lon="6.7060163"><ele>213.99999999999997</ele><time>2026-04-12T09:11:37.896Z</time></trkpt><trkpt lat="43.6073831" lon="6.706138"><ele>213.99999999999997</ele><time>2026-04-12T09:11:38.877Z</time></trkpt><trkpt lat="43.6074016" lon="6.7062657"><ele>214.0</ele><time>2026-04-12T09:11:39.863Z</time></trkpt><trkpt lat="43.6074274" lon="6.7063923"><ele>214.0</ele><time>2026-04-12T09:11:40.876Z</time></trkpt><trkpt lat="43.6074536" lon="6.7065204"><ele>213.79999999999998</ele><time>2026-04-12T09:11:41.888Z</time></trkpt><trkpt lat="43.6074772" lon="6.7066511"><ele>213.59999999999997</ele><time>2026-04-12T09:11:42.891Z</time></trkpt><trkpt lat="43.6074986" lon="6.706783"><ele>213.4</ele><time>2026-04-12T09:11:43.87Z</time></trkpt><trkpt lat="43.6075141" lon="6.706902"><ele>213.2</ele><time>2026-04-12T09:11:44.875Z</time></trkpt><trkpt lat="43.6075279" lon="6.707019"><ele>213.0</ele><time>2026-04-12T09:11:45.875Z</time></trkpt><trkpt lat="43.6075441" lon="6.7071284"><ele>212.99999999999997</ele><time>2026-04-12T09:11:46.894Z</time></trkpt><trkpt lat="43.6075617" lon="6.7072352"><ele>213.0</ele><time>2026-04-12T09:11:47.857Z</time></trkpt><trkpt lat="43.6075744" lon="6.7073351"><ele>213.0</ele><time>2026-04-12T09:11:48.861Z</time></trkpt><trkpt lat="43.607582" lon="6.7074359"><ele>213.0</ele><time>2026-04-12T09:11:49.858Z</time></trkpt><trkpt lat="43.6075911" lon="6.7075278"><ele>213.0</ele><time>2026-04-12T09:11:50.864Z</time></trkpt><trkpt lat="43.6076049" lon="6.7076313"><ele>212.99999999999997</ele><time>2026-04-12T09:11:51.886Z</time></trkpt><trkpt lat="43.6076175" lon="6.7077327"><ele>213.0</ele><time>2026-04-12T09:11:52.876Z</time></trkpt><trkpt lat="43.6076269" lon="6.7078437"><ele>213.0</ele><time>2026-04-12T09:11:53.83Z</time></trkpt><trkpt lat="43.6076382" lon="6.7079524"><ele>213.0</ele><time>2026-04-12T09:11:54.898Z</time></trkpt><trkpt lat="43.6076451" lon="6.7080659"><ele>213.0</ele><time>2026-04-12T09:11:55.874Z</time></trkpt><trkpt lat="43.6076595" lon="6.7081779"><ele>213.0</ele><time>2026-04-12T09:11:56.891Z</time></trkpt><trkpt lat="43.6076682" lon="6.7082922"><ele>213.0</ele><time>2026-04-12T09:11:57.888Z</time></trkpt><trkpt lat="43.6076772" lon="6.7084073"><ele>213.0</ele><time>2026-04-12T09:11:58.862Z</time></trkpt><trkpt lat="43.6076914" lon="6.7085231"><ele>213.16666666666666</ele><time>2026-04-12T09:11:59.873Z</time></trkpt><trkpt lat="43.6077021" lon="6.7086415"><ele>213.33333333333331</ele><time>2026-04-12T09:12:00.874Z</time></trkpt><trkpt lat="43.6077145" lon="6.7087616"><ele>213.5</ele><time>2026-04-12T09:12:01.879Z</time></trkpt><trkpt lat="43.607729" lon="6.7088802"><ele>213.66666666666666</ele><time>2026-04-12T09:12:02.898Z</time></trkpt><trkpt lat="43.6077445" lon="6.708995"><ele>213.83333333333331</ele><time>2026-04-12T09:12:03.86Z</time></trkpt><trkpt lat="43.607757" lon="6.7091079"><ele>214.0</ele><time>2026-04-12T09:12:04.862Z</time></trkpt><trkpt lat="43.6077743" lon="6.7092216"><ele>213.99999999999997</ele><time>2026-04-12T09:12:05.857Z</time></trkpt><trkpt lat="43.6077907" lon="6.7093353"><ele>214.0</ele><time>2026-04-12T09:12:06.857Z</time></trkpt><trkpt lat="43.6078052" lon="6.7094557"><ele>214.0</ele><time>2026-04-12T09:12:07.859Z</time></trkpt><trkpt lat="43.6078227" lon="6.7095717"><ele>214.0</ele><time>2026-04-12T09:12:08.86Z</time></trkpt><trkpt lat="43.6078356" lon="6.7096889"><ele>213.99999999999997</ele><time>2026-04-12T09:12:09.856Z</time></trkpt><trkpt lat="43.6078527" lon="6.7097983"><ele>214.0</ele><time>2026-04-12T09:12:10.853Z</time></trkpt><trkpt lat="43.6078653" lon="6.7099058"><ele>213.99999999999997</ele><time>2026-04-12T09:12:11.857Z</time></trkpt><trkpt lat="43.607879" lon="6.710018"><ele>214.0</ele><time>2026-04-12T09:12:12.86Z</time></trkpt><trkpt lat="43.6078915" lon="6.7101286"><ele>214.0</ele><time>2026-04-12T09:12:13.846Z</time></trkpt><trkpt lat="43.6079119" lon="6.7102401"><ele>214.0</ele><time>2026-04-12T09:12:14.884Z</time></trkpt><trkpt lat="43.6079272" lon="6.710354"><ele>213.99999999999997</ele><time>2026-04-12T09:12:15.877Z</time></trkpt><trkpt lat="43.6079411" lon="6.7104646"><ele>214.0</ele><time>2026-04-12T09:12:16.857Z</time></trkpt><trkpt lat="43.6079576" lon="6.710571"><ele>213.83333333333331</ele><time>2026-04-12T09:12:17.855Z</time></trkpt><trkpt lat="43.607975" lon="6.7106746"><ele>213.66666666666666</ele><time>2026-04-12T09:12:18.891Z</time></trkpt><trkpt lat="43.6079935" lon="6.7107753"><ele>213.5</ele><time>2026-04-12T09:12:19.862Z</time></trkpt><trkpt lat="43.6080072" lon="6.7108765"><ele>213.33333333333331</ele><time>2026-04-12T09:12:20.874Z</time></trkpt><trkpt lat="43.6080146" lon="6.7109783"><ele>213.16666666666666</ele><time>2026-04-12T09:12:21.856Z</time></trkpt><trkpt lat="43.6080128" lon="6.7110823"><ele>213.0</ele><time>2026-04-12T09:12:22.874Z</time></trkpt><trkpt lat="43.6080036" lon="6.7111829"><ele>213.33333333333334</ele><time>2026-04-12T09:12:23.862Z</time></trkpt><trkpt lat="43.6079835" lon="6.7112814"><ele>213.66666666666669</ele><time>2026-04-12T09:12:24.892Z</time></trkpt><trkpt lat="43.6079719" lon="6.7113874"><ele>214.0</ele><time>2026-04-12T09:12:25.864Z</time></trkpt><trkpt lat="43.607983" lon="6.7115024"><ele>214.33333333333334</ele><time>2026-04-12T09:12:26.856Z</time></trkpt><trkpt lat="43.6080225" lon="6.7116042"><ele>214.66666666666669</ele><time>2026-04-12T09:12:27.857Z</time></trkpt><trkpt lat="43.6080787" lon="6.711697"><ele>215.0</ele><time>2026-04-12T09:12:28.826Z</time></trkpt><trkpt lat="43.6081146" lon="6.7118039"><ele>214.6</ele><time>2026-04-12T09:12:29.88Z</time></trkpt><trkpt lat="43.6081417" lon="6.711926"><ele>214.2</ele><time>2026-04-12T09:12:30.875Z</time></trkpt><trkpt lat="43.6081569" lon="6.712038"><ele>213.8</ele><time>2026-04-12T09:12:31.895Z</time></trkpt><trkpt lat="43.6081727" lon="6.7121623"><ele>213.4</ele><time>2026-04-12T09:12:32.864Z</time></trkpt><trkpt lat="43.6081887" lon="6.7122902"><ele>213.0</ele><time>2026-04-12T09:12:33.883Z</time></trkpt><trkpt lat="43.6082074" lon="6.7124226"><ele>213.0</ele><time>2026-04-12T09:12:34.859Z</time></trkpt><trkpt lat="43.6082256" lon="6.7125517"><ele>213.0</ele><time>2026-04-12T09:12:35.898Z</time></trkpt><trkpt lat="43.6082421" lon="6.7126811"><ele>213.0</ele><time>2026-04-12T09:12:36.878Z</time></trkpt><trkpt lat="43.6082586" lon="6.7128147"><ele>213.0</ele><time>2026-04-12T09:12:37.89Z</time></trkpt><trkpt lat="43.6082792" lon="6.7129485"><ele>213.0</ele><time>2026-04-12T09:12:38.894Z</time></trkpt><trkpt lat="43.6082951" lon="6.7130801"><ele>212.8</ele><time>2026-04-12T09:12:39.89Z</time></trkpt><trkpt lat="43.6083129" lon="6.7132131"><ele>212.60000000000002</ele><time>2026-04-12T09:12:40.836Z</time></trkpt><trkpt lat="43.60833" lon="6.7133439"><ele>212.39999999999998</ele><time>2026-04-12T09:12:41.886Z</time></trkpt><trkpt lat="43.6083459" lon="6.7134726"><ele>212.2</ele><time>2026-04-12T09:12:42.881Z</time></trkpt><trkpt lat="43.608366" lon="6.71361"><ele>212.0</ele><time>2026-04-12T09:12:43.902Z</time></trkpt><trkpt lat="43.6083847" lon="6.7137434"><ele>211.8</ele><time>2026-04-12T09:12:44.872Z</time></trkpt><trkpt lat="43.6084037" lon="6.713878"><ele>211.6</ele><time>2026-04-12T09:12:45.851Z</time></trkpt><trkpt lat="43.6084192" lon="6.71401"><ele>211.4</ele><time>2026-04-12T09:12:46.859Z</time></trkpt><trkpt lat="43.6084387" lon="6.7141405"><ele>211.20000000000002</ele><time>2026-04-12T09:12:47.898Z</time></trkpt><trkpt lat="43.6084656" lon="6.7142779"><ele>211.0</ele><time>2026-04-12T09:12:48.883Z</time></trkpt><trkpt lat="43.6084915" lon="6.7144121"><ele>210.8</ele><time>2026-04-12T09:12:49.872Z</time></trkpt><trkpt lat="43.6085212" lon="6.7145483"><ele>210.60000000000002</ele><time>2026-04-12T09:12:50.883Z</time></trkpt><trkpt lat="43.6085582" lon="6.7146836"><ele>210.4</ele><time>2026-04-12T09:12:51.864Z</time></trkpt><trkpt lat="43.6086036" lon="6.7148185"><ele>210.2</ele><time>2026-04-12T09:12:52.891Z</time></trkpt><trkpt lat="43.608651" lon="6.7149512"><ele>210.0</ele><time>2026-04-12T09:12:53.882Z</time></trkpt><trkpt lat="43.6087003" lon="6.7150854"><ele>210.2</ele><time>2026-04-12T09:12:54.899Z</time></trkpt><trkpt lat="43.6087499" lon="6.7152192"><ele>210.4</ele><time>2026-04-12T09:12:55.866Z</time></trkpt><trkpt lat="43.6087937" lon="6.7153507"><ele>210.60000000000002</ele><time>2026-04-12T09:12:56.882Z</time></trkpt><trkpt lat="43.6088407" lon="6.7154735"><ele>210.8</ele><time>2026-04-12T09:12:57.887Z</time></trkpt><trkpt lat="43.6088909" lon="6.7155983"><ele>211.0</ele><time>2026-04-12T09:12:58.863Z</time></trkpt><trkpt lat="43.6089387" lon="6.7157228"><ele>211.0</ele><time>2026-04-12T09:12:59.878Z</time></trkpt><trkpt lat="43.6089814" lon="6.7158429"><ele>211.0</ele><time>2026-04-12T09:13:00.871Z</time></trkpt><trkpt lat="43.609022" lon="6.7159593"><ele>211.0</ele><time>2026-04-12T09:13:01.857Z</time></trkpt><trkpt lat="43.6090599" lon="6.7160702"><ele>211.0</ele><time>2026-04-12T09:13:02.871Z</time></trkpt><trkpt lat="43.6091019" lon="6.7161809"><ele>211.0</ele><time>2026-04-12T09:13:03.894Z</time></trkpt><trkpt lat="43.6091401" lon="6.7162909"><ele>211.16666666666666</ele><time>2026-04-12T09:13:04.892Z</time></trkpt><trkpt lat="43.6091819" lon="6.7163947"><ele>211.33333333333331</ele><time>2026-04-12T09:13:05.878Z</time></trkpt><trkpt lat="43.6092263" lon="6.716497"><ele>211.5</ele><time>2026-04-12T09:13:06.898Z</time></trkpt><trkpt lat="43.6092681" lon="6.716599"><ele>211.66666666666669</ele><time>2026-04-12T09:13:07.867Z</time></trkpt><trkpt lat="43.6093066" lon="6.7167057"><ele>211.83333333333334</ele><time>2026-04-12T09:13:08.889Z</time></trkpt><trkpt lat="43.6093456" lon="6.7168086"><ele>212.0</ele><time>2026-04-12T09:13:09.869Z</time></trkpt><trkpt lat="43.6093851" lon="6.7169084"><ele>212.00000000000003</ele><time>2026-04-12T09:13:10.885Z</time></trkpt><trkpt lat="43.609423" lon="6.7170089"><ele>212.0</ele><time>2026-04-12T09:13:11.89Z</time></trkpt><trkpt lat="43.6094611" lon="6.7171065"><ele>212.0</ele><time>2026-04-12T09:13:12.89Z</time></trkpt><trkpt lat="43.6094958" lon="6.7172038"><ele>212.0</ele><time>2026-04-12T09:13:13.848Z</time></trkpt><trkpt lat="43.6095236" lon="6.7172963"><ele>212.00000000000003</ele><time>2026-04-12T09:13:14.912Z</time></trkpt><trkpt lat="43.6095516" lon="6.7173834"><ele>212.0</ele><time>2026-04-12T09:13:15.854Z</time></trkpt><trkpt lat="43.6095791" lon="6.7174739"><ele>212.00000000000003</ele><time>2026-04-12T09:13:16.867Z</time></trkpt><trkpt lat="43.6096093" lon="6.717577"><ele>212.0</ele><time>2026-04-12T09:13:17.871Z</time></trkpt><trkpt lat="43.6096375" lon="6.7176735"><ele>212.0</ele><time>2026-04-12T09:13:18.872Z</time></trkpt><trkpt lat="43.609664" lon="6.7177735"><ele>212.0</ele><time>2026-04-12T09:13:19.86Z</time></trkpt><trkpt lat="43.6096918" lon="6.7178747"><ele>212.00000000000003</ele><time>2026-04-12T09:13:20.893Z</time></trkpt><trkpt lat="43.6097148" lon="6.7179802"><ele>212.0</ele><time>2026-04-12T09:13:21.86Z</time></trkpt><trkpt lat="43.6097336" lon="6.7180815"><ele>212.00000000000003</ele><time>2026-04-12T09:13:22.866Z</time></trkpt><trkpt lat="43.6097506" lon="6.7181893"><ele>212.0</ele><time>2026-04-12T09:13:23.909Z</time></trkpt><trkpt lat="43.6097659" lon="6.7182992"><ele>212.0</ele><time>2026-04-12T09:13:24.876Z</time></trkpt><trkpt lat="43.6097783" lon="6.7184169"><ele>212.0</ele><time>2026-04-12T09:13:25.884Z</time></trkpt><trkpt lat="43.6097899" lon="6.7185251"><ele>212.00000000000003</ele><time>2026-04-12T09:13:26.857Z</time></trkpt><trkpt lat="43.6098024" lon="6.7186338"><ele>212.0</ele><time>2026-04-12T09:13:27.902Z</time></trkpt><trkpt lat="43.609813" lon="6.7187478"><ele>212.00000000000003</ele><time>2026-04-12T09:13:28.858Z</time></trkpt><trkpt lat="43.6098278" lon="6.7188631"><ele>212.0</ele><time>2026-04-12T09:13:29.888Z</time></trkpt><trkpt lat="43.6098399" lon="6.7189853"><ele>212.0</ele><time>2026-04-12T09:13:30.869Z</time></trkpt><trkpt lat="43.6098529" lon="6.7191083"><ele>212.0</ele><time>2026-04-12T09:13:31.853Z</time></trkpt><trkpt lat="43.609864" lon="6.7192264"><ele>212.00000000000003</ele><time>2026-04-12T09:13:32.888Z</time></trkpt><trkpt lat="43.609875" lon="6.7193469"><ele>212.0</ele><time>2026-04-12T09:13:33.863Z</time></trkpt><trkpt lat="43.6098869" lon="6.7194678"><ele>211.83333333333334</ele><time>2026-04-12T09:13:34.894Z</time></trkpt><trkpt lat="43.6099039" lon="6.7195946"><ele>211.66666666666669</ele><time>2026-04-12T09:13:35.875Z</time></trkpt><trkpt lat="43.6099169" lon="6.7197149"><ele>211.5</ele><time>2026-04-12T09:13:36.889Z</time></trkpt><trkpt lat="43.6099301" lon="6.7198374"><ele>211.33333333333331</ele><time>2026-04-12T09:13:37.83Z</time></trkpt><trkpt lat="43.6099435" lon="6.7199569"><ele>211.16666666666666</ele><time>2026-04-12T09:13:38.881Z</time></trkpt><trkpt lat="43.6099545" lon="6.7200766"><ele>211.0</ele><time>2026-04-12T09:13:39.905Z</time></trkpt><trkpt lat="43.6099702" lon="6.7201942"><ele>211.33333333333331</ele><time>2026-04-12T09:13:40.883Z</time></trkpt><trkpt lat="43.6099844" lon="6.7203019"><ele>211.66666666666666</ele><time>2026-04-12T09:13:41.892Z</time></trkpt><trkpt lat="43.6099931" lon="6.7204099"><ele>212.0</ele><time>2026-04-12T09:13:42.876Z</time></trkpt><trkpt lat="43.6100035" lon="6.7205143"><ele>212.33333333333331</ele><time>2026-04-12T09:13:43.87Z</time></trkpt><trkpt lat="43.6100135" lon="6.7206225"><ele>212.66666666666666</ele><time>2026-04-12T09:13:44.886Z</time></trkpt><trkpt lat="43.6100257" lon="6.7207275"><ele>213.0</ele><time>2026-04-12T09:13:45.875Z</time></trkpt><trkpt lat="43.6100378" lon="6.7208273"><ele>213.0</ele><time>2026-04-12T09:13:46.874Z</time></trkpt><trkpt lat="43.6100482" lon="6.7209238"><ele>213.0</ele><time>2026-04-12T09:13:47.898Z</time></trkpt><trkpt lat="43.6100571" lon="6.7210168"><ele>213.0</ele><time>2026-04-12T09:13:48.871Z</time></trkpt><trkpt lat="43.6100669" lon="6.7211055"><ele>213.0</ele><time>2026-04-12T09:13:49.86Z</time></trkpt><trkpt lat="43.6100761" lon="6.7211933"><ele>213.0</ele><time>2026-04-12T09:13:50.866Z</time></trkpt><trkpt lat="43.6100968" lon="6.7213544"><ele>213.0</ele><time>2026-04-12T09:13:52.867Z</time></trkpt><trkpt lat="43.6101145" lon="6.7215053"><ele>213.4</ele><time>2026-04-12T09:13:54.891Z</time></trkpt><trkpt lat="43.6101302" lon="6.721659"><ele>213.8</ele><time>2026-04-12T09:13:56.899Z</time></trkpt><trkpt lat="43.610148" lon="6.7218148"><ele>214.2</ele><time>2026-04-12T09:13:58.897Z</time></trkpt><trkpt lat="43.6101723" lon="6.7219837"><ele>214.6</ele><time>2026-04-12T09:14:00.915Z</time></trkpt><trkpt lat="43.6101885" lon="6.7220782"><ele>215.0</ele><time>2026-04-12T09:14:01.862Z</time></trkpt><trkpt lat="43.6102059" lon="6.7221754"><ele>215.00000000000003</ele><time>2026-04-12T09:14:02.873Z</time></trkpt><trkpt lat="43.6102234" lon="6.7222782"><ele>215.0</ele><time>2026-04-12T09:14:03.881Z</time></trkpt><trkpt lat="43.6102396" lon="6.7223822"><ele>215.0</ele><time>2026-04-12T09:14:04.864Z</time></trkpt><trkpt lat="43.6102563" lon="6.7224856"><ele>215.0</ele><time>2026-04-12T09:14:05.889Z</time></trkpt><trkpt lat="43.6102749" lon="6.7225925"><ele>215.00000000000003</ele><time>2026-04-12T09:14:06.882Z</time></trkpt><trkpt lat="43.6102881" lon="6.7227036"><ele>215.0</ele><time>2026-04-12T09:14:07.876Z</time></trkpt><trkpt lat="43.6102963" lon="6.7228181"><ele>215.00000000000003</ele><time>2026-04-12T09:14:08.892Z</time></trkpt><trkpt lat="43.6103021" lon="6.7229278"><ele>215.0</ele><time>2026-04-12T09:14:09.854Z</time></trkpt><trkpt lat="43.6103098" lon="6.7230421"><ele>215.0</ele><time>2026-04-12T09:14:10.911Z</time></trkpt><trkpt lat="43.6103151" lon="6.7231548"><ele>215.0</ele><time>2026-04-12T09:14:11.863Z</time></trkpt><trkpt lat="43.6103188" lon="6.7232694"><ele>215.00000000000003</ele><time>2026-04-12T09:14:12.889Z</time></trkpt><trkpt lat="43.610326" lon="6.7233873"><ele>215.0</ele><time>2026-04-12T09:14:13.896Z</time></trkpt><trkpt lat="43.6103341" lon="6.7235042"><ele>215.50000000000003</ele><time>2026-04-12T09:14:14.881Z</time></trkpt><trkpt lat="43.6103404" lon="6.7236169"><ele>216.0</ele><time>2026-04-12T09:14:15.905Z</time></trkpt><trkpt lat="43.6103452" lon="6.7237283"><ele>216.5</ele><time>2026-04-12T09:14:16.864Z</time></trkpt><trkpt lat="43.6103476" lon="6.7238309"><ele>217.0</ele><time>2026-04-12T09:14:17.902Z</time></trkpt><trkpt lat="43.6103523" lon="6.7239372"><ele>217.50000000000003</ele><time>2026-04-12T09:14:18.84Z</time></trkpt><trkpt lat="43.6103562" lon="6.7240413"><ele>218.0</ele><time>2026-04-12T09:14:19.894Z</time></trkpt><trkpt lat="43.6103626" lon="6.7241464"><ele>218.0</ele><time>2026-04-12T09:14:20.871Z</time></trkpt><trkpt lat="43.6103712" lon="6.7242528"><ele>218.0</ele><time>2026-04-12T09:14:21.858Z</time></trkpt><trkpt lat="43.6103805" lon="6.7243602"><ele>218.0</ele><time>2026-04-12T09:14:22.9Z</time></trkpt><trkpt lat="43.6103929" lon="6.7244606"><ele>218.0</ele><time>2026-04-12T09:14:23.869Z</time></trkpt><trkpt lat="43.6104025" lon="6.7245595"><ele>218.0</ele><time>2026-04-12T09:14:24.874Z</time></trkpt><trkpt lat="43.6104129" lon="6.724651"><ele>218.0</ele><time>2026-04-12T09:14:25.878Z</time></trkpt><trkpt lat="43.6104259" lon="6.7247396"><ele>218.0</ele><time>2026-04-12T09:14:26.873Z</time></trkpt><trkpt lat="43.6104425" lon="6.7248343"><ele>218.28571428571428</ele><time>2026-04-12T09:14:27.873Z</time></trkpt><trkpt lat="43.6104577" lon="6.7249265"><ele>218.57142857142858</ele><time>2026-04-12T09:14:28.858Z</time></trkpt><trkpt lat="43.6104773" lon="6.7250194"><ele>218.85714285714283</ele><time>2026-04-12T09:14:29.869Z</time></trkpt><trkpt lat="43.6104959" lon="6.7251149"><ele>219.14285714285714</ele><time>2026-04-12T09:14:30.865Z</time></trkpt><trkpt lat="43.6105172" lon="6.7252108"><ele>219.42857142857142</ele><time>2026-04-12T09:14:31.89Z</time></trkpt><trkpt lat="43.6105398" lon="6.7253037"><ele>219.7142857142857</ele><time>2026-04-12T09:14:32.874Z</time></trkpt><trkpt lat="43.6105579" lon="6.7253983"><ele>220.0</ele><time>2026-04-12T09:14:33.877Z</time></trkpt><trkpt lat="43.6105731" lon="6.7254892"><ele>220.28571428571428</ele><time>2026-04-12T09:14:34.842Z</time></trkpt><trkpt lat="43.61059" lon="6.7255859"><ele>220.57142857142856</ele><time>2026-04-12T09:14:35.888Z</time></trkpt><trkpt lat="43.6106039" lon="6.7256829"><ele>220.85714285714283</ele><time>2026-04-12T09:14:36.869Z</time></trkpt><trkpt lat="43.6106146" lon="6.7257849"><ele>221.14285714285714</ele><time>2026-04-12T09:14:37.87Z</time></trkpt><trkpt lat="43.6106206" lon="6.7258819"><ele>221.42857142857144</ele><time>2026-04-12T09:14:38.863Z</time></trkpt><trkpt lat="43.6106233" lon="6.7259825"><ele>221.7142857142857</ele><time>2026-04-12T09:14:39.878Z</time></trkpt><trkpt lat="43.6106249" lon="6.7260844"><ele>222.0</ele><time>2026-04-12T09:14:40.876Z</time></trkpt><trkpt lat="43.6106245" lon="6.7261846"><ele>222.71428571428572</ele><time>2026-04-12T09:14:41.881Z</time></trkpt><trkpt lat="43.6106224" lon="6.7262895"><ele>223.42857142857144</ele><time>2026-04-12T09:14:42.88Z</time></trkpt><trkpt lat="43.6106222" lon="6.7263883"><ele>224.14285714285717</ele><time>2026-04-12T09:14:43.863Z</time></trkpt><trkpt lat="43.6106203" lon="6.7264827"><ele>224.85714285714286</ele><time>2026-04-12T09:14:44.872Z</time></trkpt><trkpt lat="43.6106165" lon="6.7265763"><ele>225.5714285714286</ele><time>2026-04-12T09:14:45.87Z</time></trkpt><trkpt lat="43.6106127" lon="6.7266696"><ele>226.2857142857143</ele><time>2026-04-12T09:14:46.874Z</time></trkpt><trkpt lat="43.6106061" lon="6.7267633"><ele>227.0</ele><time>2026-04-12T09:14:47.85Z</time></trkpt><trkpt lat="43.6105956" lon="6.7268576"><ele>227.71428571428572</ele><time>2026-04-12T09:14:48.831Z</time></trkpt><trkpt lat="43.6105856" lon="6.726952"><ele>228.42857142857144</ele><time>2026-04-12T09:14:49.857Z</time></trkpt><trkpt lat="43.6105727" lon="6.7270448"><ele>229.14285714285717</ele><time>2026-04-12T09:14:50.881Z</time></trkpt><trkpt lat="43.6105595" lon="6.72714"><ele>229.8571428571429</ele><time>2026-04-12T09:14:51.873Z</time></trkpt><trkpt lat="43.6105491" lon="6.7272311"><ele>230.57142857142858</ele><time>2026-04-12T09:14:52.905Z</time></trkpt><trkpt lat="43.6105374" lon="6.7273229"><ele>231.28571428571433</ele><time>2026-04-12T09:14:53.892Z</time></trkpt><trkpt lat="43.6105257" lon="6.7274172"><ele>232.00000000000003</ele><time>2026-04-12T09:14:54.881Z</time></trkpt><trkpt lat="43.6105145" lon="6.7275125"><ele>232.00000000000003</ele><time>2026-04-12T09:14:55.896Z</time></trkpt><trkpt lat="43.6105023" lon="6.7276103"><ele>232.0</ele><time>2026-04-12T09:14:56.885Z</time></trkpt><trkpt lat="43.6104905" lon="6.7277101"><ele>232.00000000000003</ele><time>2026-04-12T09:14:57.887Z</time></trkpt><trkpt lat="43.6104806" lon="6.7278111"><ele>232.00000000000003</ele><time>2026-04-12T09:14:58.878Z</time></trkpt><trkpt lat="43.610469" lon="6.7279114"><ele>232.0</ele><time>2026-04-12T09:14:59.881Z</time></trkpt><trkpt lat="43.6104642" lon="6.7280096"><ele>232.00000000000003</ele><time>2026-04-12T09:15:00.872Z</time></trkpt><trkpt lat="43.6104581" lon="6.7281065"><ele>232.00000000000003</ele><time>2026-04-12T09:15:01.867Z</time></trkpt><trkpt lat="43.6104485" lon="6.7282015"><ele>231.28571428571433</ele><time>2026-04-12T09:15:02.868Z</time></trkpt><trkpt lat="43.6104388" lon="6.7282999"><ele>230.57142857142858</ele><time>2026-04-12T09:15:03.869Z</time></trkpt><trkpt lat="43.6104326" lon="6.728396"><ele>229.8571428571429</ele><time>2026-04-12T09:15:04.871Z</time></trkpt><trkpt lat="43.610423" lon="6.7284903"><ele>229.14285714285717</ele><time>2026-04-12T09:15:05.87Z</time></trkpt><trkpt lat="43.6104178" lon="6.7285858"><ele>228.42857142857144</ele><time>2026-04-12T09:15:06.854Z</time></trkpt><trkpt lat="43.6104085" lon="6.7286883"><ele>227.71428571428572</ele><time>2026-04-12T09:15:07.879Z</time></trkpt><trkpt lat="43.6103973" lon="6.7287895"><ele>227.0</ele><time>2026-04-12T09:15:08.874Z</time></trkpt><trkpt lat="43.6103851" lon="6.728899"><ele>226.50000000000003</ele><time>2026-04-12T09:15:09.895Z</time></trkpt><trkpt lat="43.6103762" lon="6.729012"><ele>226.0</ele><time>2026-04-12T09:15:10.886Z</time></trkpt><trkpt lat="43.610365" lon="6.7291272"><ele>225.5</ele><time>2026-04-12T09:15:11.886Z</time></trkpt><trkpt lat="43.6103509" lon="6.7292432"><ele>225.0</ele><time>2026-04-12T09:15:12.867Z</time></trkpt><trkpt lat="43.61034" lon="6.7293581"><ele>224.50000000000003</ele><time>2026-04-12T09:15:13.88Z</time></trkpt><trkpt lat="43.6103271" lon="6.7294773"><ele>224.0</ele><time>2026-04-12T09:15:14.832Z</time></trkpt><trkpt lat="43.6103167" lon="6.7295937"><ele>222.39999999999998</ele><time>2026-04-12T09:15:15.856Z</time></trkpt><trkpt lat="43.6103032" lon="6.7297274"><ele>220.79999999999998</ele><time>2026-04-12T09:15:16.901Z</time></trkpt><trkpt lat="43.6102889" lon="6.729855"><ele>219.20000000000002</ele><time>2026-04-12T09:15:17.892Z</time></trkpt><trkpt lat="43.6102724" lon="6.7299828"><ele>217.60000000000002</ele><time>2026-04-12T09:15:18.86Z</time></trkpt><trkpt lat="43.6102569" lon="6.730113"><ele>216.0</ele><time>2026-04-12T09:15:19.893Z</time></trkpt><trkpt lat="43.6102459" lon="6.7302403"><ele>215.8</ele><time>2026-04-12T09:15:20.88Z</time></trkpt><trkpt lat="43.6102308" lon="6.7303703"><ele>215.60000000000002</ele><time>2026-04-12T09:15:21.908Z</time></trkpt><trkpt lat="43.6102121" lon="6.7305003"><ele>215.4</ele><time>2026-04-12T09:15:22.864Z</time></trkpt><trkpt lat="43.6101888" lon="6.7306302"><ele>215.2</ele><time>2026-04-12T09:15:23.899Z</time></trkpt><trkpt lat="43.6101643" lon="6.7307613"><ele>215.0</ele><time>2026-04-12T09:15:24.892Z</time></trkpt><trkpt lat="43.6101405" lon="6.7308891"><ele>215.0</ele><time>2026-04-12T09:15:25.875Z</time></trkpt><trkpt lat="43.61012" lon="6.7310216"><ele>215.0</ele><time>2026-04-12T09:15:26.899Z</time></trkpt><trkpt lat="43.6100974" lon="6.7311497"><ele>215.0</ele><time>2026-04-12T09:15:27.883Z</time></trkpt><trkpt lat="43.6100811" lon="6.7312722"><ele>215.0</ele><time>2026-04-12T09:15:28.878Z</time></trkpt><trkpt lat="43.6100802" lon="6.7314083"><ele>215.0</ele><time>2026-04-12T09:15:29.9Z</time></trkpt><trkpt lat="43.6100823" lon="6.7315386"><ele>215.16666666666669</ele><time>2026-04-12T09:15:30.908Z</time></trkpt><trkpt lat="43.6100861" lon="6.7316666"><ele>215.33333333333334</ele><time>2026-04-12T09:15:31.881Z</time></trkpt><trkpt lat="43.6100746" lon="6.7317902"><ele>215.5</ele><time>2026-04-12T09:15:32.832Z</time></trkpt><trkpt lat="43.6100602" lon="6.7319097"><ele>215.66666666666669</ele><time>2026-04-12T09:15:33.896Z</time></trkpt><trkpt lat="43.6100635" lon="6.7320304"><ele>215.83333333333334</ele><time>2026-04-12T09:15:34.899Z</time></trkpt><trkpt lat="43.6100846" lon="6.7321525"><ele>216.0</ele><time>2026-04-12T09:15:35.871Z</time></trkpt><trkpt lat="43.6101114" lon="6.7322738"><ele>216.0</ele><time>2026-04-12T09:15:36.886Z</time></trkpt><trkpt lat="43.6101269" lon="6.7323982"><ele>216.00000000000003</ele><time>2026-04-12T09:15:37.87Z</time></trkpt><trkpt lat="43.6101299" lon="6.7325267"><ele>216.00000000000003</ele><time>2026-04-12T09:15:38.857Z</time></trkpt><trkpt lat="43.6101236" lon="6.7326584"><ele>216.0</ele><time>2026-04-12T09:15:39.896Z</time></trkpt><trkpt lat="43.6101094" lon="6.732799"><ele>216.0</ele><time>2026-04-12T09:15:40.86Z</time></trkpt><trkpt lat="43.6100965" lon="6.7329326"><ele>216.20000000000002</ele><time>2026-04-12T09:15:41.863Z</time></trkpt><trkpt lat="43.6100762" lon="6.7330728"><ele>216.40000000000003</ele><time>2026-04-12T09:15:42.851Z</time></trkpt><trkpt lat="43.6100499" lon="6.7332144"><ele>216.6</ele><time>2026-04-12T09:15:43.882Z</time></trkpt><trkpt lat="43.610029" lon="6.73335"><ele>216.8</ele><time>2026-04-12T09:15:44.857Z</time></trkpt><trkpt lat="43.6100056" lon="6.7334942"><ele>217.0</ele><time>2026-04-12T09:15:45.873Z</time></trkpt><trkpt lat="43.6099747" lon="6.7336382"><ele>216.0</ele><time>2026-04-12T09:15:46.857Z</time></trkpt><trkpt lat="43.6099435" lon="6.7337829"><ele>215.0</ele><time>2026-04-12T09:15:47.87Z</time></trkpt><trkpt lat="43.6099122" lon="6.7339275"><ele>214.0</ele><time>2026-04-12T09:15:48.867Z</time></trkpt><trkpt lat="43.6098793" lon="6.7340762"><ele>213.0</ele><time>2026-04-12T09:15:49.843Z</time></trkpt><trkpt lat="43.6098436" lon="6.7342244"><ele>212.0</ele><time>2026-04-12T09:15:50.867Z</time></trkpt><trkpt lat="43.609806" lon="6.7343807"><ele>211.25</ele><time>2026-04-12T09:15:51.886Z</time></trkpt><trkpt lat="43.6097657" lon="6.7345417"><ele>210.5</ele><time>2026-04-12T09:15:52.873Z</time></trkpt><trkpt lat="43.6097279" lon="6.734702"><ele>209.75</ele><time>2026-04-12T09:15:53.877Z</time></trkpt><trkpt lat="43.6096932" lon="6.734862"><ele>209.0</ele><time>2026-04-12T09:15:54.892Z</time></trkpt><trkpt lat="43.6096571" lon="6.7350303"><ele>209.0</ele><time>2026-04-12T09:15:55.86Z</time></trkpt><trkpt lat="43.6096168" lon="6.7352036"><ele>209.0</ele><time>2026-04-12T09:15:56.888Z</time></trkpt><trkpt lat="43.6095712" lon="6.7353766"><ele>209.0</ele><time>2026-04-12T09:15:57.869Z</time></trkpt><trkpt lat="43.6095324" lon="6.7355487"><ele>209.0</ele><time>2026-04-12T09:15:58.884Z</time></trkpt><trkpt lat="43.6094959" lon="6.7357176"><ele>208.25</ele><time>2026-04-12T09:15:59.905Z</time></trkpt><trkpt lat="43.6094548" lon="6.7358877"><ele>207.5</ele><time>2026-04-12T09:16:00.891Z</time></trkpt><trkpt lat="43.6094171" lon="6.7360555"><ele>206.75</ele><time>2026-04-12T09:16:01.899Z</time></trkpt><trkpt lat="43.6093786" lon="6.7362234"><ele>206.0</ele><time>2026-04-12T09:16:02.871Z</time></trkpt><trkpt lat="43.6093421" lon="6.7363904"><ele>205.25</ele><time>2026-04-12T09:16:03.894Z</time></trkpt><trkpt lat="43.6093048" lon="6.7365611"><ele>204.5</ele><time>2026-04-12T09:16:04.857Z</time></trkpt><trkpt lat="43.6092665" lon="6.7367387"><ele>203.75</ele><time>2026-04-12T09:16:05.857Z</time></trkpt><trkpt lat="43.6092294" lon="6.7369072"><ele>203.0</ele><time>2026-04-12T09:16:06.842Z</time></trkpt><trkpt lat="43.6091842" lon="6.7370768"><ele>203.0</ele><time>2026-04-12T09:16:07.89Z</time></trkpt><trkpt lat="43.609141" lon="6.7372444"><ele>203.0</ele><time>2026-04-12T09:16:08.886Z</time></trkpt><trkpt lat="43.6090989" lon="6.7374148"><ele>203.0</ele><time>2026-04-12T09:16:09.871Z</time></trkpt><trkpt lat="43.6090557" lon="6.7375834"><ele>203.0</ele><time>2026-04-12T09:16:10.859Z</time></trkpt><trkpt lat="43.609018" lon="6.7377527"><ele>202.75</ele><time>2026-04-12T09:16:11.882Z</time></trkpt><trkpt lat="43.6089795" lon="6.7379223"><ele>202.5</ele><time>2026-04-12T09:16:12.87Z</time></trkpt><trkpt lat="43.6089393" lon="6.7380922"><ele>202.25</ele><time>2026-04-12T09:16:13.875Z</time></trkpt><trkpt lat="43.6088987" lon="6.7382627"><ele>202.0</ele><time>2026-04-12T09:16:14.881Z</time></trkpt><trkpt lat="43.6088621" lon="6.7384302"><ele>201.75</ele><time>2026-04-12T09:16:15.868Z</time></trkpt><trkpt lat="43.6088236" lon="6.7385989"><ele>201.5</ele><time>2026-04-12T09:16:16.889Z</time></trkpt><trkpt lat="43.6087885" lon="6.7387673"><ele>201.25</ele><time>2026-04-12T09:16:17.87Z</time></trkpt><trkpt lat="43.608749" lon="6.738937"><ele>201.0</ele><time>2026-04-12T09:16:18.848Z</time></trkpt><trkpt lat="43.6087091" lon="6.7391041"><ele>201.0</ele><time>2026-04-12T09:16:19.887Z</time></trkpt><trkpt lat="43.608672" lon="6.739275"><ele>201.0</ele><time>2026-04-12T09:16:20.878Z</time></trkpt><trkpt lat="43.6086327" lon="6.7394434"><ele>201.0</ele><time>2026-04-12T09:16:21.824Z</time></trkpt><trkpt lat="43.6085928" lon="6.7395972"><ele>201.0</ele><time>2026-04-12T09:16:22.828Z</time></trkpt><trkpt lat="43.6085596" lon="6.7397609"><ele>200.25</ele><time>2026-04-12T09:16:23.848Z</time></trkpt><trkpt lat="43.6085224" lon="6.7399239"><ele>199.5</ele><time>2026-04-12T09:16:24.826Z</time></trkpt><trkpt lat="43.6084809" lon="6.7400895"><ele>198.75</ele><time>2026-04-12T09:16:25.821Z</time></trkpt><trkpt lat="43.6084463" lon="6.740263"><ele>198.0</ele><time>2026-04-12T09:16:26.83Z</time></trkpt><trkpt lat="43.6084531" lon="6.7404156"><ele>198.0</ele><time>2026-04-12T09:16:27.835Z</time></trkpt><trkpt lat="43.608434" lon="6.7405634"><ele>198.0</ele><time>2026-04-12T09:16:28.828Z</time></trkpt><trkpt lat="43.6083837" lon="6.7407041"><ele>198.0</ele><time>2026-04-12T09:16:29.86Z</time></trkpt><trkpt lat="43.6083255" lon="6.7408418"><ele>198.0</ele><time>2026-04-12T09:16:30.855Z</time></trkpt><trkpt lat="43.6082819" lon="6.7409776"><ele>198.0</ele><time>2026-04-12T09:16:31.859Z</time></trkpt><trkpt lat="43.6082343" lon="6.7411031"><ele>197.8</ele><time>2026-04-12T09:16:32.841Z</time></trkpt><trkpt lat="43.6081964" lon="6.7412424"><ele>197.60000000000002</ele><time>2026-04-12T09:16:33.834Z</time></trkpt><trkpt lat="43.6081518" lon="6.741391"><ele>197.39999999999998</ele><time>2026-04-12T09:16:34.827Z</time></trkpt><trkpt lat="43.6081243" lon="6.7415272"><ele>197.2</ele><time>2026-04-12T09:16:35.911Z</time></trkpt><trkpt lat="43.6080926" lon="6.7416626"><ele>197.0</ele><time>2026-04-12T09:16:36.872Z</time></trkpt><trkpt lat="43.6080609" lon="6.7417916"><ele>196.39999999999998</ele><time>2026-04-12T09:16:37.869Z</time></trkpt><trkpt lat="43.6080306" lon="6.7419261"><ele>195.79999999999998</ele><time>2026-04-12T09:16:38.885Z</time></trkpt><trkpt lat="43.6079968" lon="6.7420652"><ele>195.2</ele><time>2026-04-12T09:16:39.887Z</time></trkpt><trkpt lat="43.6079733" lon="6.7421922"><ele>194.6</ele><time>2026-04-12T09:16:40.857Z</time></trkpt><trkpt lat="43.6079461" lon="6.7423129"><ele>194.0</ele><time>2026-04-12T09:16:41.843Z</time></trkpt><trkpt lat="43.6079" lon="6.74242"><ele>194.0</ele><time>2026-04-12T09:16:42.872Z</time></trkpt><trkpt lat="43.6078553" lon="6.7425264"><ele>194.0</ele><time>2026-04-12T09:16:43.896Z</time></trkpt><trkpt lat="43.6078408" lon="6.7426437"><ele>194.0</ele><time>2026-04-12T09:16:44.878Z</time></trkpt><trkpt lat="43.6078593" lon="6.7427806"><ele>194.0</ele><time>2026-04-12T09:16:45.888Z</time></trkpt><trkpt lat="43.6078881" lon="6.7428987"><ele>194.0</ele><time>2026-04-12T09:16:46.865Z</time></trkpt><trkpt lat="43.6079074" lon="6.7430184"><ele>194.0</ele><time>2026-04-12T09:16:47.873Z</time></trkpt><trkpt lat="43.6079095" lon="6.7431338"><ele>194.0</ele><time>2026-04-12T09:16:48.865Z</time></trkpt><trkpt lat="43.6079012" lon="6.7432558"><ele>194.0</ele><time>2026-04-12T09:16:49.868Z</time></trkpt><trkpt lat="43.6078837" lon="6.7433807"><ele>194.0</ele><time>2026-04-12T09:16:50.854Z</time></trkpt><trkpt lat="43.6078649" lon="6.7435107"><ele>194.0</ele><time>2026-04-12T09:16:51.868Z</time></trkpt><trkpt lat="43.6078507" lon="6.7436449"><ele>194.0</ele><time>2026-04-12T09:16:52.871Z</time></trkpt><trkpt lat="43.6078365" lon="6.7437837"><ele>194.0</ele><time>2026-04-12T09:16:53.882Z</time></trkpt><trkpt lat="43.60782" lon="6.7439221"><ele>194.0</ele><time>2026-04-12T09:16:54.875Z</time></trkpt><trkpt lat="43.6078056" lon="6.7440632"><ele>194.0</ele><time>2026-04-12T09:16:55.899Z</time></trkpt><trkpt lat="43.6077869" lon="6.7442061"><ele>194.0</ele><time>2026-04-12T09:16:56.841Z</time></trkpt><trkpt lat="43.6077753" lon="6.744351"><ele>193.39999999999998</ele><time>2026-04-12T09:16:57.903Z</time></trkpt><trkpt lat="43.6077674" lon="6.7445006"><ele>192.8</ele><time>2026-04-12T09:16:58.887Z</time></trkpt><trkpt lat="43.6077588" lon="6.7446485"><ele>192.2</ele><time>2026-04-12T09:16:59.891Z</time></trkpt><trkpt lat="43.6077491" lon="6.7448002"><ele>191.60000000000002</ele><time>2026-04-12T09:17:00.886Z</time></trkpt><trkpt lat="43.6077467" lon="6.744952"><ele>191.0</ele><time>2026-04-12T09:17:01.87Z</time></trkpt><trkpt lat="43.607737" lon="6.7451066"><ele>190.8</ele><time>2026-04-12T09:17:02.873Z</time></trkpt><trkpt lat="43.6077251" lon="6.7452525"><ele>190.60000000000002</ele><time>2026-04-12T09:17:03.884Z</time></trkpt><trkpt lat="43.6077154" lon="6.7454066"><ele>190.4</ele><time>2026-04-12T09:17:04.887Z</time></trkpt><trkpt lat="43.607704" lon="6.7455614"><ele>190.2</ele><time>2026-04-12T09:17:05.86Z</time></trkpt><trkpt lat="43.6076884" lon="6.7457126"><ele>190.0</ele><time>2026-04-12T09:17:06.864Z</time></trkpt><trkpt lat="43.6076787" lon="6.7458594"><ele>190.0</ele><time>2026-04-12T09:17:07.901Z</time></trkpt><trkpt lat="43.6076639" lon="6.7460039"><ele>190.0</ele><time>2026-04-12T09:17:08.889Z</time></trkpt><trkpt lat="43.607647" lon="6.7461461"><ele>190.0</ele><time>2026-04-12T09:17:09.875Z</time></trkpt><trkpt lat="43.6076246" lon="6.7462898"><ele>190.0</ele><time>2026-04-12T09:17:10.872Z</time></trkpt><trkpt lat="43.6075958" lon="6.746432"><ele>190.0</ele><time>2026-04-12T09:17:11.858Z</time></trkpt><trkpt lat="43.6075657" lon="6.7465764"><ele>190.4</ele><time>2026-04-12T09:17:12.889Z</time></trkpt><trkpt lat="43.6075334" lon="6.74672"><ele>190.8</ele><time>2026-04-12T09:17:13.863Z</time></trkpt><trkpt lat="43.6075001" lon="6.7468555"><ele>191.2</ele><time>2026-04-12T09:17:14.895Z</time></trkpt><trkpt lat="43.6074611" lon="6.7469925"><ele>191.6</ele><time>2026-04-12T09:17:15.865Z</time></trkpt><trkpt lat="43.6074236" lon="6.7471301"><ele>192.0</ele><time>2026-04-12T09:17:16.886Z</time></trkpt><trkpt lat="43.6073921" lon="6.7472585"><ele>192.0</ele><time>2026-04-12T09:17:17.875Z</time></trkpt><trkpt lat="43.6073574" lon="6.7473945"><ele>192.0</ele><time>2026-04-12T09:17:18.891Z</time></trkpt><trkpt lat="43.607321" lon="6.747523"><ele>192.0</ele><time>2026-04-12T09:17:19.895Z</time></trkpt><trkpt lat="43.6072848" lon="6.74765"><ele>192.0</ele><time>2026-04-12T09:17:20.876Z</time></trkpt><trkpt lat="43.6072508" lon="6.7477778"><ele>192.0</ele><time>2026-04-12T09:17:21.918Z</time></trkpt><trkpt lat="43.6072149" lon="6.747905"><ele>192.0</ele><time>2026-04-12T09:17:22.891Z</time></trkpt><trkpt lat="43.6071812" lon="6.7480353"><ele>192.0</ele><time>2026-04-12T09:17:23.877Z</time></trkpt><trkpt lat="43.6071464" lon="6.7481609"><ele>192.0</ele><time>2026-04-12T09:17:24.875Z</time></trkpt><trkpt lat="43.6071045" lon="6.7482898"><ele>192.0</ele><time>2026-04-12T09:17:25.898Z</time></trkpt><trkpt lat="43.6070721" lon="6.7484217"><ele>192.0</ele><time>2026-04-12T09:17:26.905Z</time></trkpt><trkpt lat="43.6070383" lon="6.7485515"><ele>191.6</ele><time>2026-04-12T09:17:27.885Z</time></trkpt><trkpt lat="43.6070025" lon="6.7486845"><ele>191.2</ele><time>2026-04-12T09:17:28.868Z</time></trkpt><trkpt lat="43.6069705" lon="6.7488122"><ele>190.8</ele><time>2026-04-12T09:17:29.897Z</time></trkpt><trkpt lat="43.6069334" lon="6.7489289"><ele>190.4</ele><time>2026-04-12T09:17:30.896Z</time></trkpt><trkpt lat="43.6068987" lon="6.7490461"><ele>190.0</ele><time>2026-04-12T09:17:31.873Z</time></trkpt><trkpt lat="43.6068607" lon="6.7491668"><ele>189.8</ele><time>2026-04-12T09:17:32.869Z</time></trkpt><trkpt lat="43.6068211" lon="6.7492891"><ele>189.6</ele><time>2026-04-12T09:17:33.867Z</time></trkpt><trkpt lat="43.6067822" lon="6.7494155"><ele>189.39999999999998</ele><time>2026-04-12T09:17:34.891Z</time></trkpt><trkpt lat="43.6067455" lon="6.7495465"><ele>189.2</ele><time>2026-04-12T09:17:35.892Z</time></trkpt><trkpt lat="43.6067087" lon="6.7496747"><ele>189.0</ele><time>2026-04-12T09:17:36.869Z</time></trkpt><trkpt lat="43.6066731" lon="6.7498132"><ele>189.0</ele><time>2026-04-12T09:17:37.872Z</time></trkpt><trkpt lat="43.6066378" lon="6.7499574"><ele>189.0</ele><time>2026-04-12T09:17:38.85Z</time></trkpt><trkpt lat="43.6066064" lon="6.7501022"><ele>189.0</ele><time>2026-04-12T09:17:39.875Z</time></trkpt><trkpt lat="43.6065742" lon="6.7502486"><ele>189.0</ele><time>2026-04-12T09:17:40.869Z</time></trkpt><trkpt lat="43.6065437" lon="6.7503975"><ele>189.0</ele><time>2026-04-12T09:17:41.869Z</time></trkpt><trkpt lat="43.6065179" lon="6.7505486"><ele>189.0</ele><time>2026-04-12T09:17:42.88Z</time></trkpt><trkpt lat="43.606491" lon="6.7506976"><ele>189.0</ele><time>2026-04-12T09:17:43.86Z</time></trkpt><trkpt lat="43.6064611" lon="6.7508466"><ele>189.0</ele><time>2026-04-12T09:17:44.883Z</time></trkpt><trkpt lat="43.6064343" lon="6.7509956"><ele>189.0</ele><time>2026-04-12T09:17:45.861Z</time></trkpt><trkpt lat="43.6064086" lon="6.7511424"><ele>189.0</ele><time>2026-04-12T09:17:46.9Z</time></trkpt><trkpt lat="43.6063797" lon="6.7512923"><ele>188.6</ele><time>2026-04-12T09:17:47.874Z</time></trkpt><trkpt lat="43.6063508" lon="6.7514368"><ele>188.2</ele><time>2026-04-12T09:17:48.864Z</time></trkpt><trkpt lat="43.6063211" lon="6.7515864"><ele>187.79999999999998</ele><time>2026-04-12T09:17:49.854Z</time></trkpt><trkpt lat="43.6062901" lon="6.7517308"><ele>187.39999999999998</ele><time>2026-04-12T09:17:50.88Z</time></trkpt><trkpt lat="43.6062607" lon="6.7518797"><ele>187.0</ele><time>2026-04-12T09:17:51.899Z</time></trkpt><trkpt lat="43.6062299" lon="6.7520281"><ele>187.0</ele><time>2026-04-12T09:17:52.894Z</time></trkpt><trkpt lat="43.6062009" lon="6.7521723"><ele>187.0</ele><time>2026-04-12T09:17:53.866Z</time></trkpt><trkpt lat="43.6061711" lon="6.7523242"><ele>187.0</ele><time>2026-04-12T09:17:54.881Z</time></trkpt><trkpt lat="43.6061387" lon="6.752478"><ele>187.0</ele><time>2026-04-12T09:17:55.864Z</time></trkpt><trkpt lat="43.6061043" lon="6.7526303"><ele>186.5</ele><time>2026-04-12T09:17:56.891Z</time></trkpt><trkpt lat="43.6060737" lon="6.7527782"><ele>186.0</ele><time>2026-04-12T09:17:57.895Z</time></trkpt><trkpt lat="43.6060415" lon="6.7529359"><ele>185.5</ele><time>2026-04-12T09:17:58.869Z</time></trkpt><trkpt lat="43.6060151" lon="6.753091"><ele>185.0</ele><time>2026-04-12T09:17:59.903Z</time></trkpt><trkpt lat="43.6059869" lon="6.7532501"><ele>185.0</ele><time>2026-04-12T09:18:00.884Z</time></trkpt><trkpt lat="43.605969" lon="6.7534076"><ele>185.0</ele><time>2026-04-12T09:18:01.867Z</time></trkpt><trkpt lat="43.6059534" lon="6.753569"><ele>185.0</ele><time>2026-04-12T09:18:02.874Z</time></trkpt><trkpt lat="43.6059403" lon="6.7537288"><ele>185.0</ele><time>2026-04-12T09:18:03.862Z</time></trkpt><trkpt lat="43.6059246" lon="6.7538885"><ele>184.8</ele><time>2026-04-12T09:18:04.881Z</time></trkpt><trkpt lat="43.6059071" lon="6.7540427"><ele>184.6</ele><time>2026-04-12T09:18:05.954Z</time></trkpt><trkpt lat="43.6058859" lon="6.7541945"><ele>184.39999999999998</ele><time>2026-04-12T09:18:06.871Z</time></trkpt><trkpt lat="43.6058635" lon="6.7543471"><ele>184.2</ele><time>2026-04-12T09:18:07.903Z</time></trkpt><trkpt lat="43.6058423" lon="6.7544959"><ele>184.0</ele><time>2026-04-12T09:18:08.835Z</time></trkpt><trkpt lat="43.6058161" lon="6.7546384"><ele>184.0</ele><time>2026-04-12T09:18:09.886Z</time></trkpt><trkpt lat="43.6057776" lon="6.7547759"><ele>184.0</ele><time>2026-04-12T09:18:10.883Z</time></trkpt><trkpt lat="43.6057326" lon="6.7549039"><ele>184.0</ele><time>2026-04-12T09:18:11.871Z</time></trkpt><trkpt lat="43.6056784" lon="6.7550225"><ele>184.0</ele><time>2026-04-12T09:18:12.89Z</time></trkpt><trkpt lat="43.6056259" lon="6.7551388"><ele>184.0</ele><time>2026-04-12T09:18:13.869Z</time></trkpt><trkpt lat="43.6056046" lon="6.7552684"><ele>183.79999999999998</ele><time>2026-04-12T09:18:14.89Z</time></trkpt><trkpt lat="43.6056227" lon="6.755399"><ele>183.6</ele><time>2026-04-12T09:18:15.902Z</time></trkpt><trkpt lat="43.6056643" lon="6.7555167"><ele>183.4</ele><time>2026-04-12T09:18:16.87Z</time></trkpt><trkpt lat="43.6056944" lon="6.7556303"><ele>183.2</ele><time>2026-04-12T09:18:17.878Z</time></trkpt><trkpt lat="43.6057012" lon="6.7557493"><ele>183.0</ele><time>2026-04-12T09:18:18.878Z</time></trkpt><trkpt lat="43.6056999" lon="6.7558697"><ele>183.0</ele><time>2026-04-12T09:18:19.905Z</time></trkpt><trkpt lat="43.6056999" lon="6.7559937"><ele>183.0</ele><time>2026-04-12T09:18:20.859Z</time></trkpt><trkpt lat="43.6056998" lon="6.7561262"><ele>183.0</ele><time>2026-04-12T09:18:21.877Z</time></trkpt><trkpt lat="43.6056955" lon="6.7562567"><ele>183.0</ele><time>2026-04-12T09:18:22.867Z</time></trkpt><trkpt lat="43.6056939" lon="6.7563899"><ele>183.0</ele><time>2026-04-12T09:18:23.85Z</time></trkpt><trkpt lat="43.6056836" lon="6.7565259"><ele>183.0</ele><time>2026-04-12T09:18:24.886Z</time></trkpt><trkpt lat="43.6056735" lon="6.7566654"><ele>183.0</ele><time>2026-04-12T09:18:25.874Z</time></trkpt><trkpt lat="43.6056582" lon="6.7568096"><ele>183.0</ele><time>2026-04-12T09:18:26.903Z</time></trkpt><trkpt lat="43.6056443" lon="6.7569515"><ele>183.0</ele><time>2026-04-12T09:18:27.873Z</time></trkpt><trkpt lat="43.6056218" lon="6.7570976"><ele>183.0</ele><time>2026-04-12T09:18:28.893Z</time></trkpt><trkpt lat="43.6055912" lon="6.7572431"><ele>183.0</ele><time>2026-04-12T09:18:29.885Z</time></trkpt><trkpt lat="43.6055673" lon="6.7573862"><ele>183.0</ele><time>2026-04-12T09:18:30.87Z</time></trkpt><trkpt lat="43.6055386" lon="6.7575378"><ele>183.0</ele><time>2026-04-12T09:18:31.869Z</time></trkpt><trkpt lat="43.6055123" lon="6.7576856"><ele>183.0</ele><time>2026-04-12T09:18:32.913Z</time></trkpt><trkpt lat="43.6054956" lon="6.7578337"><ele>183.0</ele><time>2026-04-12T09:18:33.875Z</time></trkpt><trkpt lat="43.6054853" lon="6.757983"><ele>182.8</ele><time>2026-04-12T09:18:34.877Z</time></trkpt><trkpt lat="43.6054771" lon="6.7581307"><ele>182.60000000000002</ele><time>2026-04-12T09:18:35.866Z</time></trkpt><trkpt lat="43.6054789" lon="6.7582796"><ele>182.39999999999998</ele><time>2026-04-12T09:18:36.872Z</time></trkpt><trkpt lat="43.6054787" lon="6.7584336"><ele>182.2</ele><time>2026-04-12T09:18:37.889Z</time></trkpt><trkpt lat="43.6054803" lon="6.7585908"><ele>182.0</ele><time>2026-04-12T09:18:38.915Z</time></trkpt><trkpt lat="43.6054829" lon="6.7587448"><ele>182.0</ele><time>2026-04-12T09:18:39.846Z</time></trkpt><trkpt lat="43.6054853" lon="6.7588925"><ele>182.0</ele><time>2026-04-12T09:18:40.902Z</time></trkpt><trkpt lat="43.6054884" lon="6.7590407"><ele>182.0</ele><time>2026-04-12T09:18:41.861Z</time></trkpt><trkpt lat="43.6054945" lon="6.7591924"><ele>182.0</ele><time>2026-04-12T09:18:42.868Z</time></trkpt><trkpt lat="43.6055001" lon="6.7593375"><ele>182.0</ele><time>2026-04-12T09:18:43.884Z</time></trkpt><trkpt lat="43.6055114" lon="6.759483"><ele>182.0</ele><time>2026-04-12T09:18:44.875Z</time></trkpt><trkpt lat="43.6055179" lon="6.759625"><ele>182.0</ele><time>2026-04-12T09:18:45.884Z</time></trkpt><trkpt lat="43.6055295" lon="6.75977"><ele>182.0</ele><time>2026-04-12T09:18:46.836Z</time></trkpt><trkpt lat="43.6055433" lon="6.7599085"><ele>182.0</ele><time>2026-04-12T09:18:47.913Z</time></trkpt><trkpt lat="43.6055508" lon="6.7600457"><ele>182.0</ele><time>2026-04-12T09:18:48.873Z</time></trkpt><trkpt lat="43.6055592" lon="6.7601782"><ele>181.8</ele><time>2026-04-12T09:18:49.868Z</time></trkpt><trkpt lat="43.6055666" lon="6.7603232"><ele>181.6</ele><time>2026-04-12T09:18:50.867Z</time></trkpt><trkpt lat="43.6055743" lon="6.7604663"><ele>181.4</ele><time>2026-04-12T09:18:51.879Z</time></trkpt><trkpt lat="43.6055865" lon="6.7606017"><ele>181.20000000000002</ele><time>2026-04-12T09:18:52.84Z</time></trkpt><trkpt lat="43.6056008" lon="6.7607414"><ele>181.0</ele><time>2026-04-12T09:18:53.876Z</time></trkpt><trkpt lat="43.6056125" lon="6.7608832"><ele>181.0</ele><time>2026-04-12T09:18:54.886Z</time></trkpt><trkpt lat="43.6056268" lon="6.7610156"><ele>181.0</ele><time>2026-04-12T09:18:55.877Z</time></trkpt><trkpt lat="43.6056454" lon="6.7611468"><ele>181.0</ele><time>2026-04-12T09:18:56.849Z</time></trkpt><trkpt lat="43.6056595" lon="6.7612743"><ele>181.0</ele><time>2026-04-12T09:18:57.831Z</time></trkpt><trkpt lat="43.6056728" lon="6.7613984"><ele>181.0</ele><time>2026-04-12T09:18:58.891Z</time></trkpt><trkpt lat="43.6056883" lon="6.7615194"><ele>181.0</ele><time>2026-04-12T09:18:59.881Z</time></trkpt><trkpt lat="43.6057066" lon="6.7616307"><ele>181.0</ele><time>2026-04-12T09:19:00.881Z</time></trkpt><trkpt lat="43.6057184" lon="6.7617385"><ele>181.0</ele><time>2026-04-12T09:19:01.866Z</time></trkpt><trkpt lat="43.6057223" lon="6.7618409"><ele>181.0</ele><time>2026-04-12T09:19:02.868Z</time></trkpt><trkpt lat="43.6057157" lon="6.7619485"><ele>181.0</ele><time>2026-04-12T09:19:03.875Z</time></trkpt><trkpt lat="43.6057033" lon="6.7620563"><ele>181.0</ele><time>2026-04-12T09:19:04.855Z</time></trkpt><trkpt lat="43.605695" lon="6.7621653"><ele>181.0</ele><time>2026-04-12T09:19:05.857Z</time></trkpt><trkpt lat="43.6056995" lon="6.7622789"><ele>181.0</ele><time>2026-04-12T09:19:06.875Z</time></trkpt><trkpt lat="43.6057067" lon="6.7623951"><ele>181.0</ele><time>2026-04-12T09:19:07.865Z</time></trkpt><trkpt lat="43.6057044" lon="6.7625131"><ele>181.0</ele><time>2026-04-12T09:19:08.875Z</time></trkpt><trkpt lat="43.6056984" lon="6.7626329"><ele>181.0</ele><time>2026-04-12T09:19:09.89Z</time></trkpt><trkpt lat="43.6056969" lon="6.7627522"><ele>181.0</ele><time>2026-04-12T09:19:10.873Z</time></trkpt><trkpt lat="43.6056989" lon="6.7628756"><ele>181.0</ele><time>2026-04-12T09:19:11.879Z</time></trkpt><trkpt lat="43.6056985" lon="6.7630021"><ele>181.0</ele><time>2026-04-12T09:19:12.906Z</time></trkpt><trkpt lat="43.6056986" lon="6.763129"><ele>181.0</ele><time>2026-04-12T09:19:13.865Z</time></trkpt><trkpt lat="43.6056945" lon="6.7632519"><ele>181.0</ele><time>2026-04-12T09:19:14.874Z</time></trkpt><trkpt lat="43.6056938" lon="6.7633742"><ele>181.0</ele><time>2026-04-12T09:19:15.895Z</time></trkpt><trkpt lat="43.6056921" lon="6.7634981"><ele>181.0</ele><time>2026-04-12T09:19:16.867Z</time></trkpt><trkpt lat="43.6056961" lon="6.7636226"><ele>181.0</ele><time>2026-04-12T09:19:17.902Z</time></trkpt><trkpt lat="43.6056981" lon="6.7637479"><ele>181.0</ele><time>2026-04-12T09:19:18.867Z</time></trkpt><trkpt lat="43.6057001" lon="6.7638718"><ele>181.0</ele><time>2026-04-12T09:19:19.854Z</time></trkpt><trkpt lat="43.605703" lon="6.7639981"><ele>181.0</ele><time>2026-04-12T09:19:20.868Z</time></trkpt><trkpt lat="43.6057123" lon="6.7641248"><ele>181.0</ele><time>2026-04-12T09:19:21.857Z</time></trkpt><trkpt lat="43.6057173" lon="6.7642497"><ele>181.0</ele><time>2026-04-12T09:19:22.869Z</time></trkpt><trkpt lat="43.6057243" lon="6.7643774"><ele>181.0</ele><time>2026-04-12T09:19:23.86Z</time></trkpt><trkpt lat="43.6057299" lon="6.7645083"><ele>181.0</ele><time>2026-04-12T09:19:24.909Z</time></trkpt><trkpt lat="43.6057373" lon="6.7646388"><ele>181.0</ele><time>2026-04-12T09:19:25.902Z</time></trkpt><trkpt lat="43.6057416" lon="6.7647641"><ele>181.0</ele><time>2026-04-12T09:19:26.865Z</time></trkpt><trkpt lat="43.6057483" lon="6.764878"><ele>181.0</ele><time>2026-04-12T09:19:27.869Z</time></trkpt><trkpt lat="43.6057544" lon="6.7649962"><ele>181.0</ele><time>2026-04-12T09:19:28.913Z</time></trkpt><trkpt lat="43.6057564" lon="6.7651095"><ele>181.0</ele><time>2026-04-12T09:19:29.859Z</time></trkpt><trkpt lat="43.6057588" lon="6.7652169"><ele>181.0</ele><time>2026-04-12T09:19:30.88Z</time></trkpt><trkpt lat="43.6057564" lon="6.7653242"><ele>181.0</ele><time>2026-04-12T09:19:31.856Z</time></trkpt><trkpt lat="43.6057579" lon="6.7654296"><ele>181.0</ele><time>2026-04-12T09:19:32.85Z</time></trkpt><trkpt lat="43.6057577" lon="6.7655454"><ele>181.0</ele><time>2026-04-12T09:19:33.877Z</time></trkpt><trkpt lat="43.6057574" lon="6.765654"><ele>181.0</ele><time>2026-04-12T09:19:34.885Z</time></trkpt><trkpt lat="43.6057619" lon="6.7657636"><ele>181.0</ele><time>2026-04-12T09:19:35.875Z</time></trkpt><trkpt lat="43.6057646" lon="6.7658735"><ele>181.0</ele><time>2026-04-12T09:19:36.912Z</time></trkpt><trkpt lat="43.6057652" lon="6.7659853"><ele>181.0</ele><time>2026-04-12T09:19:37.846Z</time></trkpt><trkpt lat="43.6057687" lon="6.7661075"><ele>180.66666666666669</ele><time>2026-04-12T09:19:38.89Z</time></trkpt><trkpt lat="43.6057718" lon="6.766224"><ele>180.33333333333334</ele><time>2026-04-12T09:19:39.894Z</time></trkpt><trkpt lat="43.6057711" lon="6.7663405"><ele>180.0</ele><time>2026-04-12T09:19:40.891Z</time></trkpt><trkpt lat="43.6057672" lon="6.7664529"><ele>179.66666666666666</ele><time>2026-04-12T09:19:41.891Z</time></trkpt><trkpt lat="43.6057625" lon="6.7665698"><ele>179.33333333333331</ele><time>2026-04-12T09:19:42.876Z</time></trkpt><trkpt lat="43.6057549" lon="6.7666947"><ele>179.0</ele><time>2026-04-12T09:19:43.877Z</time></trkpt><trkpt lat="43.6057469" lon="6.7668257"><ele>179.0</ele><time>2026-04-12T09:19:44.868Z</time></trkpt><trkpt lat="43.6057406" lon="6.7669516"><ele>179.0</ele><time>2026-04-12T09:19:45.874Z</time></trkpt><trkpt lat="43.6057291" lon="6.7670828"><ele>179.0</ele><time>2026-04-12T09:19:46.881Z</time></trkpt><trkpt lat="43.6057189" lon="6.7672203"><ele>179.0</ele><time>2026-04-12T09:19:47.867Z</time></trkpt><trkpt lat="43.6057048" lon="6.7673566"><ele>179.0</ele><time>2026-04-12T09:19:48.897Z</time></trkpt><trkpt lat="43.6056805" lon="6.7674894"><ele>179.0</ele><time>2026-04-12T09:19:49.904Z</time></trkpt><trkpt lat="43.6056542" lon="6.7676216"><ele>179.0</ele><time>2026-04-12T09:19:50.871Z</time></trkpt><trkpt lat="43.6056278" lon="6.7677489"><ele>179.0</ele><time>2026-04-12T09:19:51.867Z</time></trkpt><trkpt lat="43.6055976" lon="6.7678764"><ele>179.0</ele><time>2026-04-12T09:19:52.863Z</time></trkpt><trkpt lat="43.6055637" lon="6.7680064"><ele>179.0</ele><time>2026-04-12T09:19:53.877Z</time></trkpt><trkpt lat="43.6055292" lon="6.7681353"><ele>179.39999999999998</ele><time>2026-04-12T09:19:54.852Z</time></trkpt><trkpt lat="43.6054901" lon="6.7682614"><ele>179.8</ele><time>2026-04-12T09:19:55.832Z</time></trkpt><trkpt lat="43.6054474" lon="6.7683805"><ele>180.2</ele><time>2026-04-12T09:19:56.86Z</time></trkpt><trkpt lat="43.6054099" lon="6.7685045"><ele>180.60000000000002</ele><time>2026-04-12T09:19:57.853Z</time></trkpt><trkpt lat="43.6053736" lon="6.7686289"><ele>181.0</ele><time>2026-04-12T09:19:58.867Z</time></trkpt><trkpt lat="43.6053368" lon="6.7687502"><ele>180.0</ele><time>2026-04-12T09:19:59.855Z</time></trkpt><trkpt lat="43.605298" lon="6.7688699"><ele>179.0</ele><time>2026-04-12T09:20:00.873Z</time></trkpt><trkpt lat="43.6052597" lon="6.7689885"><ele>178.0</ele><time>2026-04-12T09:20:01.878Z</time></trkpt><trkpt lat="43.605227" lon="6.7691005"><ele>177.0</ele><time>2026-04-12T09:20:02.875Z</time></trkpt><trkpt lat="43.6051995" lon="6.7692118"><ele>176.0</ele><time>2026-04-12T09:20:03.901Z</time></trkpt><trkpt lat="43.6051636" lon="6.7693229"><ele>176.16666666666666</ele><time>2026-04-12T09:20:04.889Z</time></trkpt><trkpt lat="43.6051268" lon="6.7694273"><ele>176.33333333333331</ele><time>2026-04-12T09:20:05.875Z</time></trkpt><trkpt lat="43.605086" lon="6.7695303"><ele>176.5</ele><time>2026-04-12T09:20:06.871Z</time></trkpt><trkpt lat="43.6050453" lon="6.7696329"><ele>176.66666666666666</ele><time>2026-04-12T09:20:07.875Z</time></trkpt><trkpt lat="43.6050051" lon="6.7697401"><ele>176.83333333333334</ele><time>2026-04-12T09:20:08.882Z</time></trkpt><trkpt lat="43.6049813" lon="6.7698598"><ele>177.0</ele><time>2026-04-12T09:20:09.844Z</time></trkpt><trkpt lat="43.6049797" lon="6.7699848"><ele>177.0</ele><time>2026-04-12T09:20:10.878Z</time></trkpt><trkpt lat="43.6049859" lon="6.7701028"><ele>177.0</ele><time>2026-04-12T09:20:11.896Z</time></trkpt><trkpt lat="43.6049663" lon="6.7702246"><ele>177.0</ele><time>2026-04-12T09:20:12.905Z</time></trkpt><trkpt lat="43.6049247" lon="6.7703428"><ele>177.0</ele><time>2026-04-12T09:20:13.873Z</time></trkpt><trkpt lat="43.6048773" lon="6.7704502"><ele>177.0</ele><time>2026-04-12T09:20:14.906Z</time></trkpt><trkpt lat="43.6048247" lon="6.770545"><ele>177.0</ele><time>2026-04-12T09:20:15.856Z</time></trkpt><trkpt lat="43.6047703" lon="6.7706477"><ele>177.39999999999998</ele><time>2026-04-12T09:20:16.849Z</time></trkpt><trkpt lat="43.6047208" lon="6.770755"><ele>177.79999999999998</ele><time>2026-04-12T09:20:17.891Z</time></trkpt><trkpt lat="43.6046666" lon="6.7708617"><ele>178.2</ele><time>2026-04-12T09:20:18.861Z</time></trkpt><trkpt lat="43.6046124" lon="6.7709697"><ele>178.6</ele><time>2026-04-12T09:20:19.904Z</time></trkpt><trkpt lat="43.6045634" lon="6.7710848"><ele>179.0</ele><time>2026-04-12T09:20:20.879Z</time></trkpt><trkpt lat="43.6045174" lon="6.7711975"><ele>179.0</ele><time>2026-04-12T09:20:21.901Z</time></trkpt><trkpt lat="43.6044771" lon="6.7713113"><ele>179.0</ele><time>2026-04-12T09:20:22.903Z</time></trkpt><trkpt lat="43.6044373" lon="6.7714246"><ele>179.0</ele><time>2026-04-12T09:20:23.886Z</time></trkpt><trkpt lat="43.6043951" lon="6.7715343"><ele>179.0</ele><time>2026-04-12T09:20:24.884Z</time></trkpt><trkpt lat="43.6043567" lon="6.7716384"><ele>179.0</ele><time>2026-04-12T09:20:25.887Z</time></trkpt><trkpt lat="43.6043213" lon="6.771739"><ele>179.0</ele><time>2026-04-12T09:20:26.901Z</time></trkpt><trkpt lat="43.6042905" lon="6.7718371"><ele>179.2857142857143</ele><time>2026-04-12T09:20:27.869Z</time></trkpt><trkpt lat="43.6042567" lon="6.771927"><ele>179.57142857142858</ele><time>2026-04-12T09:20:28.873Z</time></trkpt><trkpt lat="43.6042229" lon="6.7720151"><ele>179.85714285714286</ele><time>2026-04-12T09:20:29.904Z</time></trkpt><trkpt lat="43.6041921" lon="6.7721006"><ele>180.14285714285717</ele><time>2026-04-12T09:20:30.896Z</time></trkpt><trkpt lat="43.6041672" lon="6.7721807"><ele>180.42857142857142</ele><time>2026-04-12T09:20:31.888Z</time></trkpt><trkpt lat="43.6041392" lon="6.7722704"><ele>180.71428571428572</ele><time>2026-04-12T09:20:32.903Z</time></trkpt><trkpt lat="43.6041073" lon="6.7723566"><ele>181.0</ele><time>2026-04-12T09:20:33.885Z</time></trkpt><trkpt lat="43.6040753" lon="6.7724488"><ele>181.0</ele><time>2026-04-12T09:20:34.913Z</time></trkpt><trkpt lat="43.6040403" lon="6.772537"><ele>181.0</ele><time>2026-04-12T09:20:35.87Z</time></trkpt><trkpt lat="43.6040113" lon="6.7726227"><ele>181.0</ele><time>2026-04-12T09:20:36.901Z</time></trkpt><trkpt lat="43.603978" lon="6.7727074"><ele>181.0</ele><time>2026-04-12T09:20:37.875Z</time></trkpt><trkpt lat="43.6039463" lon="6.772801"><ele>181.0</ele><time>2026-04-12T09:20:38.891Z</time></trkpt><trkpt lat="43.6039165" lon="6.7728906"><ele>181.0</ele><time>2026-04-12T09:20:39.887Z</time></trkpt><trkpt lat="43.6038807" lon="6.7729849"><ele>181.0</ele><time>2026-04-12T09:20:40.855Z</time></trkpt><trkpt lat="43.6038426" lon="6.7730751"><ele>181.14285714285714</ele><time>2026-04-12T09:20:41.891Z</time></trkpt><trkpt lat="43.6038094" lon="6.7731639"><ele>181.28571428571428</ele><time>2026-04-12T09:20:42.894Z</time></trkpt><trkpt lat="43.6037802" lon="6.7732519"><ele>181.42857142857144</ele><time>2026-04-12T09:20:43.897Z</time></trkpt><trkpt lat="43.6037488" lon="6.7733484"><ele>181.57142857142856</ele><time>2026-04-12T09:20:44.897Z</time></trkpt><trkpt lat="43.603718" lon="6.7734414"><ele>181.71428571428572</ele><time>2026-04-12T09:20:45.874Z</time></trkpt><trkpt lat="43.6036852" lon="6.7735391"><ele>181.85714285714286</ele><time>2026-04-12T09:20:46.9Z</time></trkpt><trkpt lat="43.6036539" lon="6.773628"><ele>182.0</ele><time>2026-04-12T09:20:47.887Z</time></trkpt><trkpt lat="43.6036198" lon="6.7737222"><ele>182.14285714285714</ele><time>2026-04-12T09:20:48.876Z</time></trkpt><trkpt lat="43.6035881" lon="6.7738175"><ele>182.28571428571428</ele><time>2026-04-12T09:20:49.892Z</time></trkpt><trkpt lat="43.6035574" lon="6.7739086"><ele>182.42857142857144</ele><time>2026-04-12T09:20:50.888Z</time></trkpt><trkpt lat="43.6035272" lon="6.7739986"><ele>182.57142857142856</ele><time>2026-04-12T09:20:51.907Z</time></trkpt><trkpt lat="43.6034959" lon="6.7740885"><ele>182.71428571428572</ele><time>2026-04-12T09:20:52.866Z</time></trkpt><trkpt lat="43.603466" lon="6.7741769"><ele>182.85714285714286</ele><time>2026-04-12T09:20:53.886Z</time></trkpt><trkpt lat="43.603435" lon="6.7742672"><ele>183.0</ele><time>2026-04-12T09:20:54.886Z</time></trkpt><trkpt lat="43.6034027" lon="6.7743575"><ele>183.14285714285714</ele><time>2026-04-12T09:20:55.893Z</time></trkpt><trkpt lat="43.6033704" lon="6.77445"><ele>183.28571428571428</ele><time>2026-04-12T09:20:56.862Z</time></trkpt><trkpt lat="43.6033388" lon="6.774542"><ele>183.42857142857144</ele><time>2026-04-12T09:20:57.866Z</time></trkpt><trkpt lat="43.6033101" lon="6.7746231"><ele>183.57142857142856</ele><time>2026-04-12T09:20:58.893Z</time></trkpt><trkpt lat="43.6032766" lon="6.7747057"><ele>183.7142857142857</ele><time>2026-04-12T09:20:59.892Z</time></trkpt><trkpt lat="43.603245" lon="6.7747946"><ele>183.85714285714286</ele><time>2026-04-12T09:21:00.86Z</time></trkpt><trkpt lat="43.603217" lon="6.7748866"><ele>184.0</ele><time>2026-04-12T09:21:01.857Z</time></trkpt><trkpt lat="43.603186" lon="6.7749674"><ele>184.0</ele><time>2026-04-12T09:21:02.882Z</time></trkpt><trkpt lat="43.6031555" lon="6.7750529"><ele>184.0</ele><time>2026-04-12T09:21:03.892Z</time></trkpt><trkpt lat="43.6031252" lon="6.7751404"><ele>184.0</ele><time>2026-04-12T09:21:04.883Z</time></trkpt><trkpt lat="43.6030956" lon="6.7752228"><ele>184.0</ele><time>2026-04-12T09:21:05.883Z</time></trkpt><trkpt lat="43.6030649" lon="6.7753005"><ele>184.0</ele><time>2026-04-12T09:21:06.882Z</time></trkpt><trkpt lat="43.6030341" lon="6.7753806"><ele>184.0</ele><time>2026-04-12T09:21:07.879Z</time></trkpt><trkpt lat="43.6029714" lon="6.7755329"><ele>183.83333333333334</ele><time>2026-04-12T09:21:09.864Z</time></trkpt><trkpt lat="43.6029437" lon="6.7756196"><ele>183.66666666666669</ele><time>2026-04-12T09:21:10.882Z</time></trkpt><trkpt lat="43.6029131" lon="6.7757065"><ele>183.5</ele><time>2026-04-12T09:21:11.884Z</time></trkpt><trkpt lat="43.602883" lon="6.7757947"><ele>183.33333333333334</ele><time>2026-04-12T09:21:12.875Z</time></trkpt><trkpt lat="43.602848" lon="6.7758937"><ele>183.16666666666666</ele><time>2026-04-12T09:21:13.893Z</time></trkpt><trkpt lat="43.6028139" lon="6.7759937"><ele>183.0</ele><time>2026-04-12T09:21:14.879Z</time></trkpt><trkpt lat="43.6027771" lon="6.7760976"><ele>183.0</ele><time>2026-04-12T09:21:15.896Z</time></trkpt><trkpt lat="43.6027425" lon="6.7761985"><ele>183.0</ele><time>2026-04-12T09:21:16.844Z</time></trkpt><trkpt lat="43.6027081" lon="6.7762994"><ele>183.0</ele><time>2026-04-12T09:21:17.842Z</time></trkpt><trkpt lat="43.6026745" lon="6.776396"><ele>183.0</ele><time>2026-04-12T09:21:18.858Z</time></trkpt><trkpt lat="43.6026432" lon="6.7765137"><ele>183.0</ele><time>2026-04-12T09:21:19.838Z</time></trkpt><trkpt lat="43.6026074" lon="6.776626"><ele>183.0</ele><time>2026-04-12T09:21:20.899Z</time></trkpt><trkpt lat="43.6025756" lon="6.7767343"><ele>183.0</ele><time>2026-04-12T09:21:21.883Z</time></trkpt><trkpt lat="43.602541" lon="6.7768417"><ele>183.0</ele><time>2026-04-12T09:21:22.884Z</time></trkpt><trkpt lat="43.6025033" lon="6.7769302"><ele>183.0</ele><time>2026-04-12T09:21:23.842Z</time></trkpt><trkpt lat="43.6024742" lon="6.7770307"><ele>183.0</ele><time>2026-04-12T09:21:24.897Z</time></trkpt><trkpt lat="43.6024373" lon="6.7771245"><ele>183.0</ele><time>2026-04-12T09:21:25.901Z</time></trkpt><trkpt lat="43.6023985" lon="6.7772281"><ele>183.0</ele><time>2026-04-12T09:21:26.835Z</time></trkpt><trkpt lat="43.602357" lon="6.7773244"><ele>183.0</ele><time>2026-04-12T09:21:27.837Z</time></trkpt><trkpt lat="43.6023158" lon="6.7774228"><ele>183.0</ele><time>2026-04-12T09:21:28.903Z</time></trkpt><trkpt lat="43.6022715" lon="6.7775315"><ele>183.0</ele><time>2026-04-12T09:21:29.885Z</time></trkpt><trkpt lat="43.6022314" lon="6.7776328"><ele>183.0</ele><time>2026-04-12T09:21:30.886Z</time></trkpt><trkpt lat="43.6021948" lon="6.7777317"><ele>183.0</ele><time>2026-04-12T09:21:31.905Z</time></trkpt><trkpt lat="43.6021564" lon="6.7778361"><ele>183.0</ele><time>2026-04-12T09:21:32.868Z</time></trkpt><trkpt lat="43.6021239" lon="6.7779357"><ele>182.83333333333334</ele><time>2026-04-12T09:21:33.864Z</time></trkpt><trkpt lat="43.6020884" lon="6.7780404"><ele>182.66666666666666</ele><time>2026-04-12T09:21:34.887Z</time></trkpt><trkpt lat="43.6020478" lon="6.7781369"><ele>182.5</ele><time>2026-04-12T09:21:35.839Z</time></trkpt><trkpt lat="43.6019959" lon="6.7782185"><ele>182.33333333333331</ele><time>2026-04-12T09:21:36.885Z</time></trkpt><trkpt lat="43.6019364" lon="6.7782877"><ele>182.16666666666666</ele><time>2026-04-12T09:21:37.893Z</time></trkpt><trkpt lat="43.6018697" lon="6.7783549"><ele>182.0</ele><time>2026-04-12T09:21:38.836Z</time></trkpt><trkpt lat="43.6018184" lon="6.7784289"><ele>182.5</ele><time>2026-04-12T09:21:39.889Z</time></trkpt><trkpt lat="43.6017991" lon="6.7785236"><ele>183.0</ele><time>2026-04-12T09:21:40.88Z</time></trkpt><trkpt lat="43.6018025" lon="6.7786437"><ele>183.5</ele><time>2026-04-12T09:21:41.897Z</time></trkpt><trkpt lat="43.6018067" lon="6.7787479"><ele>184.0</ele><time>2026-04-12T09:21:42.884Z</time></trkpt><trkpt lat="43.6017945" lon="6.7788512"><ele>184.5</ele><time>2026-04-12T09:21:43.874Z</time></trkpt><trkpt lat="43.6017685" lon="6.7789453"><ele>185.0</ele><time>2026-04-12T09:21:44.902Z</time></trkpt><trkpt lat="43.601735" lon="6.7790452"><ele>185.0</ele><time>2026-04-12T09:21:45.853Z</time></trkpt><trkpt lat="43.6017046" lon="6.779151"><ele>185.0</ele><time>2026-04-12T09:21:46.906Z</time></trkpt><trkpt lat="43.6016656" lon="6.7792571"><ele>185.0</ele><time>2026-04-12T09:21:47.858Z</time></trkpt><trkpt lat="43.6016298" lon="6.7793615"><ele>185.0</ele><time>2026-04-12T09:21:48.896Z</time></trkpt><trkpt lat="43.601595" lon="6.7794667"><ele>185.0</ele><time>2026-04-12T09:21:49.88Z</time></trkpt><trkpt lat="43.601551" lon="6.7795642"><ele>185.0</ele><time>2026-04-12T09:21:50.89Z</time></trkpt><trkpt lat="43.6015115" lon="6.7796569"><ele>185.42857142857142</ele><time>2026-04-12T09:21:51.885Z</time></trkpt><trkpt lat="43.6014766" lon="6.7797519"><ele>185.85714285714286</ele><time>2026-04-12T09:21:52.891Z</time></trkpt><trkpt lat="43.601438" lon="6.7798442"><ele>186.28571428571428</ele><time>2026-04-12T09:21:53.89Z</time></trkpt><trkpt lat="43.6014046" lon="6.7799319"><ele>186.71428571428572</ele><time>2026-04-12T09:21:54.897Z</time></trkpt><trkpt lat="43.6013692" lon="6.7800226"><ele>187.14285714285714</ele><time>2026-04-12T09:21:55.895Z</time></trkpt><trkpt lat="43.6013364" lon="6.7801078"><ele>187.57142857142856</ele><time>2026-04-12T09:21:56.879Z</time></trkpt><trkpt lat="43.601303" lon="6.780198"><ele>188.0</ele><time>2026-04-12T09:21:57.853Z</time></trkpt><trkpt lat="43.6012659" lon="6.7802883"><ele>188.16666666666666</ele><time>2026-04-12T09:21:58.864Z</time></trkpt><trkpt lat="43.6012281" lon="6.78038"><ele>188.33333333333331</ele><time>2026-04-12T09:21:59.86Z</time></trkpt><trkpt lat="43.6011979" lon="6.7804645"><ele>188.5</ele><time>2026-04-12T09:22:00.845Z</time></trkpt><trkpt lat="43.6011687" lon="6.7805515"><ele>188.66666666666666</ele><time>2026-04-12T09:22:01.883Z</time></trkpt><trkpt lat="43.601139" lon="6.7806296"><ele>188.83333333333334</ele><time>2026-04-12T09:22:02.895Z</time></trkpt><trkpt lat="43.6011087" lon="6.7807065"><ele>189.0</ele><time>2026-04-12T09:22:03.873Z</time></trkpt><trkpt lat="43.601048" lon="6.7808577"><ele>188.6</ele><time>2026-04-12T09:22:05.855Z</time></trkpt><trkpt lat="43.6010181" lon="6.780936"><ele>188.2</ele><time>2026-04-12T09:22:06.901Z</time></trkpt><trkpt lat="43.6009626" lon="6.7810803"><ele>187.79999999999998</ele><time>2026-04-12T09:22:08.868Z</time></trkpt><trkpt lat="43.6009122" lon="6.7812383"><ele>187.39999999999998</ele><time>2026-04-12T09:22:10.853Z</time></trkpt><trkpt lat="43.6008632" lon="6.781384"><ele>187.0</ele><time>2026-04-12T09:22:12.862Z</time></trkpt><trkpt lat="43.6008111" lon="6.7815113"><ele>187.8</ele><time>2026-04-12T09:22:14.873Z</time></trkpt><trkpt lat="43.6007559" lon="6.7816388"><ele>188.6</ele><time>2026-04-12T09:22:16.87Z</time></trkpt><trkpt lat="43.6007036" lon="6.7817694"><ele>189.4</ele><time>2026-04-12T09:22:18.837Z</time></trkpt><trkpt lat="43.6006562" lon="6.7818937"><ele>190.20000000000002</ele><time>2026-04-12T09:22:20.891Z</time></trkpt><trkpt lat="43.6006097" lon="6.7820334"><ele>191.0</ele><time>2026-04-12T09:22:22.906Z</time></trkpt><trkpt lat="43.600552" lon="6.7821755"><ele>191.25</ele><time>2026-04-12T09:22:24.899Z</time></trkpt><trkpt lat="43.6004953" lon="6.7823183"><ele>191.5</ele><time>2026-04-12T09:22:26.876Z</time></trkpt><trkpt lat="43.6004421" lon="6.7824641"><ele>191.75</ele><time>2026-04-12T09:22:28.912Z</time></trkpt><trkpt lat="43.6003821" lon="6.7826053"><ele>192.0</ele><time>2026-04-12T09:22:30.902Z</time></trkpt><trkpt lat="43.6003255" lon="6.7827452"><ele>192.2</ele><time>2026-04-12T09:22:32.865Z</time></trkpt><trkpt lat="43.6002774" lon="6.7828721"><ele>192.39999999999998</ele><time>2026-04-12T09:22:34.853Z</time></trkpt><trkpt lat="43.6002279" lon="6.7830007"><ele>192.60000000000002</ele><time>2026-04-12T09:22:36.876Z</time></trkpt><trkpt lat="43.6001873" lon="6.783129"><ele>192.8</ele><time>2026-04-12T09:22:38.883Z</time></trkpt><trkpt lat="43.6001416" lon="6.7832506"><ele>193.0</ele><time>2026-04-12T09:22:40.903Z</time></trkpt><trkpt lat="43.6001" lon="6.7833644"><ele>192.99999999999997</ele><time>2026-04-12T09:22:42.864Z</time></trkpt><trkpt lat="43.6000532" lon="6.7834731"><ele>193.0</ele><time>2026-04-12T09:22:44.897Z</time></trkpt><trkpt lat="43.6000153" lon="6.7835691"><ele>193.0</ele><time>2026-04-12T09:22:46.861Z</time></trkpt><trkpt lat="43.5999771" lon="6.7836769"><ele>193.0</ele><time>2026-04-12T09:22:48.834Z</time></trkpt><trkpt lat="43.5999292" lon="6.7837853"><ele>192.99999999999997</ele><time>2026-04-12T09:22:50.868Z</time></trkpt><trkpt lat="43.5998888" lon="6.7838846"><ele>193.0</ele><time>2026-04-12T09:22:52.877Z</time></trkpt><trkpt lat="43.5998579" lon="6.7839871"><ele>193.49999999999997</ele><time>2026-04-12T09:22:54.887Z</time></trkpt><trkpt lat="43.599824" lon="6.7840856"><ele>194.0</ele><time>2026-04-12T09:22:56.888Z</time></trkpt><trkpt lat="43.5997866" lon="6.7841913"><ele>194.5</ele><time>2026-04-12T09:22:58.857Z</time></trkpt><trkpt lat="43.5997501" lon="6.7842869"><ele>195.0</ele><time>2026-04-12T09:23:00.85Z</time></trkpt><trkpt lat="43.5997191" lon="6.7843791"><ele>195.49999999999997</ele><time>2026-04-12T09:23:02.861Z</time></trkpt><trkpt lat="43.5996814" lon="6.7844737"><ele>196.0</ele><time>2026-04-12T09:23:04.887Z</time></trkpt><trkpt lat="43.5996401" lon="6.784572"><ele>196.16666666666666</ele><time>2026-04-12T09:23:06.882Z</time></trkpt><trkpt lat="43.5995959" lon="6.7846783"><ele>196.33333333333331</ele><time>2026-04-12T09:23:08.858Z</time></trkpt><trkpt lat="43.5995509" lon="6.7847658"><ele>196.5</ele><time>2026-04-12T09:23:10.897Z</time></trkpt><trkpt lat="43.5995091" lon="6.7848482"><ele>196.66666666666669</ele><time>2026-04-12T09:23:12.87Z</time></trkpt><trkpt lat="43.5994685" lon="6.7849441"><ele>196.83333333333334</ele><time>2026-04-12T09:23:14.896Z</time></trkpt><trkpt lat="43.5994344" lon="6.7850384"><ele>197.0</ele><time>2026-04-12T09:23:16.9Z</time></trkpt><trkpt lat="43.5994074" lon="6.7851411"><ele>197.42857142857144</ele><time>2026-04-12T09:23:18.868Z</time></trkpt><trkpt lat="43.5993733" lon="6.785225"><ele>197.85714285714286</ele><time>2026-04-12T09:23:20.882Z</time></trkpt><trkpt lat="43.5993326" lon="6.7853057"><ele>198.28571428571428</ele><time>2026-04-12T09:23:22.913Z</time></trkpt><trkpt lat="43.5992916" lon="6.7853869"><ele>198.71428571428572</ele><time>2026-04-12T09:23:24.85Z</time></trkpt><trkpt lat="43.5992518" lon="6.785476"><ele>199.14285714285714</ele><time>2026-04-12T09:23:26.884Z</time></trkpt><trkpt lat="43.5992049" lon="6.7855574"><ele>199.57142857142858</ele><time>2026-04-12T09:23:28.887Z</time></trkpt><trkpt lat="43.5991432" lon="6.7856158"><ele>200.0</ele><time>2026-04-12T09:23:30.865Z</time></trkpt><trkpt lat="43.5990497" lon="6.7856363"><ele>200.0</ele><time>2026-04-12T09:23:32.868Z</time></trkpt><trkpt lat="43.5989722" lon="6.7857095"><ele>200.0</ele><time>2026-04-12T09:23:34.87Z</time></trkpt><trkpt lat="43.598901" lon="6.7858075"><ele>200.0</ele><time>2026-04-12T09:23:36.892Z</time></trkpt><trkpt lat="43.5988356" lon="6.7858912"><ele>200.0</ele><time>2026-04-12T09:23:38.874Z</time></trkpt><trkpt lat="43.5987455" lon="6.7859314"><ele>200.0</ele><time>2026-04-12T09:23:40.865Z</time></trkpt><trkpt lat="43.5986385" lon="6.7859531"><ele>200.00000000000003</ele><time>2026-04-12T09:23:42.865Z</time></trkpt><trkpt lat="43.598528" lon="6.7859471"><ele>200.0</ele><time>2026-04-12T09:23:44.887Z</time></trkpt><trkpt lat="43.5984044" lon="6.7859496"><ele>200.0</ele><time>2026-04-12T09:23:46.885Z</time></trkpt><trkpt lat="43.5983386" lon="6.7859601"><ele>200.0</ele><time>2026-04-12T09:23:47.882Z</time></trkpt><trkpt lat="43.5982689" lon="6.7859702"><ele>200.00000000000003</ele><time>2026-04-12T09:23:48.847Z</time></trkpt><trkpt lat="43.5981926" lon="6.7859884"><ele>200.0</ele><time>2026-04-12T09:23:49.894Z</time></trkpt><trkpt lat="43.5981131" lon="6.7860124"><ele>201.16666666666669</ele><time>2026-04-12T09:23:50.84Z</time></trkpt><trkpt lat="43.598036" lon="6.7860412"><ele>202.33333333333334</ele><time>2026-04-12T09:23:51.879Z</time></trkpt><trkpt lat="43.5979555" lon="6.7860757"><ele>203.5</ele><time>2026-04-12T09:23:52.892Z</time></trkpt><trkpt lat="43.5978756" lon="6.7861171"><ele>204.66666666666669</ele><time>2026-04-12T09:23:53.871Z</time></trkpt><trkpt lat="43.597797" lon="6.7861644"><ele>205.83333333333334</ele><time>2026-04-12T09:23:54.883Z</time></trkpt><trkpt lat="43.5977213" lon="6.7862186"><ele>207.0</ele><time>2026-04-12T09:23:55.896Z</time></trkpt><trkpt lat="43.5976513" lon="6.7862696"><ele>207.00000000000003</ele><time>2026-04-12T09:23:56.854Z</time></trkpt><trkpt lat="43.5975874" lon="6.7863261"><ele>207.0</ele><time>2026-04-12T09:23:57.922Z</time></trkpt><trkpt lat="43.5975206" lon="6.7863854"><ele>207.0</ele><time>2026-04-12T09:23:58.871Z</time></trkpt><trkpt lat="43.5974576" lon="6.7864545"><ele>207.0</ele><time>2026-04-12T09:23:59.911Z</time></trkpt><trkpt lat="43.5974051" lon="6.7865175"><ele>207.0</ele><time>2026-04-12T09:24:00.893Z</time></trkpt><trkpt lat="43.5973509" lon="6.7865786"><ele>207.00000000000003</ele><time>2026-04-12T09:24:01.887Z</time></trkpt><trkpt lat="43.5972948" lon="6.7866392"><ele>207.0</ele><time>2026-04-12T09:24:02.874Z</time></trkpt><trkpt lat="43.5972422" lon="6.7866946"><ele>207.0</ele><time>2026-04-12T09:24:03.86Z</time></trkpt><trkpt lat="43.5971917" lon="6.7867502"><ele>207.0</ele><time>2026-04-12T09:24:04.888Z</time></trkpt><trkpt lat="43.5970984" lon="6.7868653"><ele>207.0</ele><time>2026-04-12T09:24:06.897Z</time></trkpt><trkpt lat="43.5970478" lon="6.7869244"><ele>207.0</ele><time>2026-04-12T09:24:07.867Z</time></trkpt><trkpt lat="43.5969964" lon="6.7869819"><ele>207.0</ele><time>2026-04-12T09:24:08.89Z</time></trkpt><trkpt lat="43.5969438" lon="6.7870435"><ele>207.0</ele><time>2026-04-12T09:24:09.898Z</time></trkpt><trkpt lat="43.5968928" lon="6.787104"><ele>207.16666666666666</ele><time>2026-04-12T09:24:10.883Z</time></trkpt><trkpt lat="43.596838" lon="6.7871609"><ele>207.33333333333331</ele><time>2026-04-12T09:24:11.873Z</time></trkpt><trkpt lat="43.5967861" lon="6.7872143"><ele>207.5</ele><time>2026-04-12T09:24:12.869Z</time></trkpt><trkpt lat="43.5967361" lon="6.7872696"><ele>207.66666666666666</ele><time>2026-04-12T09:24:13.87Z</time></trkpt><trkpt lat="43.5966882" lon="6.7873289"><ele>207.83333333333331</ele><time>2026-04-12T09:24:14.884Z</time></trkpt><trkpt lat="43.5965936" lon="6.7874369"><ele>208.0</ele><time>2026-04-12T09:24:16.873Z</time></trkpt><trkpt lat="43.5965028" lon="6.7875483"><ele>208.0</ele><time>2026-04-12T09:24:18.88Z</time></trkpt><trkpt lat="43.596455" lon="6.7876049"><ele>208.0</ele><time>2026-04-12T09:24:19.869Z</time></trkpt><trkpt lat="43.5963683" lon="6.7877158"><ele>208.0</ele><time>2026-04-12T09:24:21.869Z</time></trkpt><trkpt lat="43.596269" lon="6.787813"><ele>208.0</ele><time>2026-04-12T09:24:23.888Z</time></trkpt><trkpt lat="43.5962178" lon="6.7878643"><ele>208.0</ele><time>2026-04-12T09:24:24.868Z</time></trkpt><trkpt lat="43.5961205" lon="6.7879644"><ele>208.60000000000002</ele><time>2026-04-12T09:24:26.865Z</time></trkpt><trkpt lat="43.5960126" lon="6.7880542"><ele>209.20000000000002</ele><time>2026-04-12T09:24:28.91Z</time></trkpt><trkpt lat="43.59596" lon="6.7881079"><ele>209.8</ele><time>2026-04-12T09:24:29.862Z</time></trkpt><trkpt lat="43.5958707" lon="6.788227"><ele>210.4</ele><time>2026-04-12T09:24:31.847Z</time></trkpt><trkpt lat="43.5958366" lon="6.7883047"><ele>211.0</ele><time>2026-04-12T09:24:32.865Z</time></trkpt><trkpt lat="43.5958029" lon="6.788457"><ele>211.20000000000002</ele><time>2026-04-12T09:24:34.871Z</time></trkpt><trkpt lat="43.5957731" lon="6.7886154"><ele>211.4</ele><time>2026-04-12T09:24:36.889Z</time></trkpt><trkpt lat="43.5956919" lon="6.7887532"><ele>211.6</ele><time>2026-04-12T09:24:38.892Z</time></trkpt><trkpt lat="43.5956166" lon="6.7887895"><ele>211.8</ele><time>2026-04-12T09:24:39.873Z</time></trkpt><trkpt lat="43.5955288" lon="6.7888024"><ele>212.0</ele><time>2026-04-12T09:24:40.884Z</time></trkpt><trkpt lat="43.5954368" lon="6.7888176"><ele>212.0</ele><time>2026-04-12T09:24:41.83Z</time></trkpt><trkpt lat="43.5953453" lon="6.7888382"><ele>212.0</ele><time>2026-04-12T09:24:42.902Z</time></trkpt><trkpt lat="43.5952491" lon="6.7888602"><ele>212.0</ele><time>2026-04-12T09:24:43.877Z</time></trkpt><trkpt lat="43.595152" lon="6.7888873"><ele>212.0</ele><time>2026-04-12T09:24:44.884Z</time></trkpt><trkpt lat="43.5950549" lon="6.7889163"><ele>212.0</ele><time>2026-04-12T09:24:45.885Z</time></trkpt><trkpt lat="43.5949552" lon="6.7889547"><ele>209.75</ele><time>2026-04-12T09:24:46.899Z</time></trkpt><trkpt lat="43.5948485" lon="6.7890041"><ele>207.5</ele><time>2026-04-12T09:24:47.866Z</time></trkpt><trkpt lat="43.5947381" lon="6.789055"><ele>205.25</ele><time>2026-04-12T09:24:48.899Z</time></trkpt><trkpt lat="43.5946295" lon="6.7891029"><ele>203.0</ele><time>2026-04-12T09:24:49.878Z</time></trkpt><trkpt lat="43.5945164" lon="6.7891443"><ele>202.5</ele><time>2026-04-12T09:24:50.908Z</time></trkpt><trkpt lat="43.5944004" lon="6.7891977"><ele>202.0</ele><time>2026-04-12T09:24:51.867Z</time></trkpt><trkpt lat="43.5942835" lon="6.7892504"><ele>201.5</ele><time>2026-04-12T09:24:52.896Z</time></trkpt><trkpt lat="43.594168" lon="6.7893206"><ele>201.0</ele><time>2026-04-12T09:24:53.872Z</time></trkpt><trkpt lat="43.5940573" lon="6.7893973"><ele>198.75</ele><time>2026-04-12T09:24:54.874Z</time></trkpt><trkpt lat="43.5939457" lon="6.7894665"><ele>196.5</ele><time>2026-04-12T09:24:55.881Z</time></trkpt><trkpt lat="43.5938246" lon="6.7895129"><ele>194.25</ele><time>2026-04-12T09:24:56.882Z</time></trkpt><trkpt lat="43.5936953" lon="6.7895326"><ele>192.0</ele><time>2026-04-12T09:24:57.877Z</time></trkpt><trkpt lat="43.5935649" lon="6.7895344"><ele>191.25</ele><time>2026-04-12T09:24:58.886Z</time></trkpt><trkpt lat="43.5934326" lon="6.7895328"><ele>190.5</ele><time>2026-04-12T09:24:59.874Z</time></trkpt><trkpt lat="43.5933004" lon="6.7895432"><ele>189.75</ele><time>2026-04-12T09:25:00.903Z</time></trkpt><trkpt lat="43.5931732" lon="6.7895531"><ele>189.0</ele><time>2026-04-12T09:25:01.87Z</time></trkpt><trkpt lat="43.59305" lon="6.7895562"><ele>189.0</ele><time>2026-04-12T09:25:02.889Z</time></trkpt><trkpt lat="43.5929239" lon="6.7895609"><ele>189.0</ele><time>2026-04-12T09:25:03.852Z</time></trkpt><trkpt lat="43.5927979" lon="6.7895631"><ele>189.0</ele><time>2026-04-12T09:25:04.862Z</time></trkpt><trkpt lat="43.5926718" lon="6.7895494"><ele>189.0</ele><time>2026-04-12T09:25:05.909Z</time></trkpt><trkpt lat="43.5925504" lon="6.7894997"><ele>189.5</ele><time>2026-04-12T09:25:06.883Z</time></trkpt><trkpt lat="43.5924394" lon="6.7894197"><ele>190.0</ele><time>2026-04-12T09:25:07.873Z</time></trkpt><trkpt lat="43.592326" lon="6.7893375"><ele>190.5</ele><time>2026-04-12T09:25:08.899Z</time></trkpt><trkpt lat="43.5922143" lon="6.7892494"><ele>191.0</ele><time>2026-04-12T09:25:09.876Z</time></trkpt><trkpt lat="43.5920939" lon="6.7891857"><ele>190.0</ele><time>2026-04-12T09:25:10.882Z</time></trkpt><trkpt lat="43.5919688" lon="6.7891497"><ele>189.0</ele><time>2026-04-12T09:25:11.871Z</time></trkpt><trkpt lat="43.5918322" lon="6.7891323"><ele>188.0</ele><time>2026-04-12T09:25:12.898Z</time></trkpt><trkpt lat="43.5916985" lon="6.789127"><ele>187.0</ele><time>2026-04-12T09:25:13.832Z</time></trkpt><trkpt lat="43.5915726" lon="6.7891443"><ele>187.0</ele><time>2026-04-12T09:25:14.857Z</time></trkpt><trkpt lat="43.5914437" lon="6.7891799"><ele>187.0</ele><time>2026-04-12T09:25:15.887Z</time></trkpt><trkpt lat="43.5913108" lon="6.789236"><ele>187.0</ele><time>2026-04-12T09:25:16.869Z</time></trkpt><trkpt lat="43.5911767" lon="6.7893089"><ele>187.0</ele><time>2026-04-12T09:25:17.874Z</time></trkpt><trkpt lat="43.5910429" lon="6.7893831"><ele>185.5</ele><time>2026-04-12T09:25:18.874Z</time></trkpt><trkpt lat="43.5909074" lon="6.7894453"><ele>184.0</ele><time>2026-04-12T09:25:19.89Z</time></trkpt><trkpt lat="43.5907662" lon="6.7894788"><ele>182.5</ele><time>2026-04-12T09:25:20.862Z</time></trkpt><trkpt lat="43.5906203" lon="6.7894866"><ele>181.0</ele><time>2026-04-12T09:25:21.877Z</time></trkpt><trkpt lat="43.5904722" lon="6.7894938"><ele>180.0</ele><time>2026-04-12T09:25:22.878Z</time></trkpt><trkpt lat="43.5903255" lon="6.789495"><ele>179.0</ele><time>2026-04-12T09:25:23.883Z</time></trkpt><trkpt lat="43.5901781" lon="6.7894923"><ele>178.0</ele><time>2026-04-12T09:25:24.881Z</time></trkpt><trkpt lat="43.5900343" lon="6.7895015"><ele>177.0</ele><time>2026-04-12T09:25:25.867Z</time></trkpt><trkpt lat="43.5898924" lon="6.789535"><ele>177.0</ele><time>2026-04-12T09:25:26.839Z</time></trkpt><trkpt lat="43.5897516" lon="6.7895831"><ele>177.0</ele><time>2026-04-12T09:25:27.888Z</time></trkpt><trkpt lat="43.5896158" lon="6.7896479"><ele>177.0</ele><time>2026-04-12T09:25:28.877Z</time></trkpt><trkpt lat="43.5894782" lon="6.7897209"><ele>177.0</ele><time>2026-04-12T09:25:29.857Z</time></trkpt><trkpt lat="43.589347" lon="6.7898188"><ele>178.0</ele><time>2026-04-12T09:25:30.864Z</time></trkpt><trkpt lat="43.5892221" lon="6.7899218"><ele>179.0</ele><time>2026-04-12T09:25:31.88Z</time></trkpt><trkpt lat="43.5891066" lon="6.7900291"><ele>180.0</ele><time>2026-04-12T09:25:32.887Z</time></trkpt><trkpt lat="43.5889954" lon="6.7901426"><ele>181.0</ele><time>2026-04-12T09:25:33.884Z</time></trkpt><trkpt lat="43.5888907" lon="6.7902491"><ele>181.0</ele><time>2026-04-12T09:25:34.88Z</time></trkpt><trkpt lat="43.5887835" lon="6.7903483"><ele>181.0</ele><time>2026-04-12T09:25:35.872Z</time></trkpt><trkpt lat="43.5886857" lon="6.7904264"><ele>181.0</ele><time>2026-04-12T09:25:36.88Z</time></trkpt><trkpt lat="43.5885833" lon="6.7904844"><ele>181.0</ele><time>2026-04-12T09:25:37.887Z</time></trkpt><trkpt lat="43.5884824" lon="6.7905301"><ele>179.20000000000002</ele><time>2026-04-12T09:25:38.88Z</time></trkpt><trkpt lat="43.5883794" lon="6.7905609"><ele>177.4</ele><time>2026-04-12T09:25:39.842Z</time></trkpt><trkpt lat="43.5882777" lon="6.7905787"><ele>175.6</ele><time>2026-04-12T09:25:40.865Z</time></trkpt><trkpt lat="43.5881807" lon="6.7906015"><ele>173.8</ele><time>2026-04-12T09:25:41.873Z</time></trkpt><trkpt lat="43.588098" lon="6.7906438"><ele>172.0</ele><time>2026-04-12T09:25:42.872Z</time></trkpt><trkpt lat="43.5880241" lon="6.7906999"><ele>172.00000000000003</ele><time>2026-04-12T09:25:43.903Z</time></trkpt><trkpt lat="43.587961" lon="6.7907583"><ele>172.0</ele><time>2026-04-12T09:25:44.86Z</time></trkpt><trkpt lat="43.5879139" lon="6.7908308"><ele>172.0</ele><time>2026-04-12T09:25:45.91Z</time></trkpt><trkpt lat="43.5878765" lon="6.7909213"><ele>172.0</ele><time>2026-04-12T09:25:46.865Z</time></trkpt><trkpt lat="43.5878575" lon="6.7910198"><ele>172.0</ele><time>2026-04-12T09:25:47.83Z</time></trkpt><trkpt lat="43.5878468" lon="6.7911174"><ele>172.00000000000003</ele><time>2026-04-12T09:25:48.863Z</time></trkpt><trkpt lat="43.5878396" lon="6.7912073"><ele>172.0</ele><time>2026-04-12T09:25:49.836Z</time></trkpt><trkpt lat="43.587846" lon="6.7913019"><ele>173.39999999999998</ele><time>2026-04-12T09:25:50.882Z</time></trkpt><trkpt lat="43.5878747" lon="6.7914709"><ele>174.79999999999998</ele><time>2026-04-12T09:25:52.877Z</time></trkpt><trkpt lat="43.5878924" lon="6.7915641"><ele>176.2</ele><time>2026-04-12T09:25:53.87Z</time></trkpt><trkpt lat="43.5879125" lon="6.7917261"><ele>177.6</ele><time>2026-04-12T09:25:55.848Z</time></trkpt><trkpt lat="43.5879154" lon="6.791881"><ele>179.0</ele><time>2026-04-12T09:25:57.864Z</time></trkpt><trkpt lat="43.5878886" lon="6.7920338"><ele>179.39999999999998</ele><time>2026-04-12T09:25:59.871Z</time></trkpt><trkpt lat="43.5878422" lon="6.7921781"><ele>179.8</ele><time>2026-04-12T09:26:01.89Z</time></trkpt><trkpt lat="43.5877721" lon="6.7922899"><ele>180.2</ele><time>2026-04-12T09:26:03.878Z</time></trkpt><trkpt lat="43.5876778" lon="6.7923732"><ele>180.60000000000002</ele><time>2026-04-12T09:26:05.867Z</time></trkpt><trkpt lat="43.5875808" lon="6.7924155"><ele>181.0</ele><time>2026-04-12T09:26:07.877Z</time></trkpt><trkpt lat="43.5874801" lon="6.7924221"><ele>181.0</ele><time>2026-04-12T09:26:09.872Z</time></trkpt><trkpt lat="43.5873907" lon="6.7924072"><ele>181.0</ele><time>2026-04-12T09:26:11.908Z</time></trkpt><trkpt lat="43.5872995" lon="6.7923938"><ele>181.0</ele><time>2026-04-12T09:26:13.867Z</time></trkpt><trkpt lat="43.5872138" lon="6.7923881"><ele>181.0</ele><time>2026-04-12T09:26:15.895Z</time></trkpt><trkpt lat="43.5871113" lon="6.7923782"><ele>181.0</ele><time>2026-04-12T09:26:17.87Z</time></trkpt><trkpt lat="43.5870125" lon="6.7923718"><ele>181.4</ele><time>2026-04-12T09:26:19.832Z</time></trkpt><trkpt lat="43.5869221" lon="6.7924008"><ele>181.8</ele><time>2026-04-12T09:26:21.892Z</time></trkpt><trkpt lat="43.5868159" lon="6.7924514"><ele>182.20000000000002</ele><time>2026-04-12T09:26:23.85Z</time></trkpt><trkpt lat="43.5867239" lon="6.7925292"><ele>182.60000000000002</ele><time>2026-04-12T09:26:25.856Z</time></trkpt><trkpt lat="43.5866608" lon="6.7926398"><ele>183.0</ele><time>2026-04-12T09:26:27.881Z</time></trkpt><trkpt lat="43.5866111" lon="6.7927714"><ele>183.0</ele><time>2026-04-12T09:26:29.862Z</time></trkpt><trkpt lat="43.5865752" lon="6.7929192"><ele>183.0</ele><time>2026-04-12T09:26:31.888Z</time></trkpt><trkpt lat="43.5865682" lon="6.7930773"><ele>183.0</ele><time>2026-04-12T09:26:33.875Z</time></trkpt><trkpt lat="43.586576" lon="6.7931675"><ele>183.0</ele><time>2026-04-12T09:26:34.891Z</time></trkpt><trkpt lat="43.5865937" lon="6.7933311"><ele>183.0</ele><time>2026-04-12T09:26:36.891Z</time></trkpt><trkpt lat="43.5866076" lon="6.793496"><ele>184.60000000000002</ele><time>2026-04-12T09:26:38.888Z</time></trkpt><trkpt lat="43.5866026" lon="6.7936635"><ele>186.20000000000002</ele><time>2026-04-12T09:26:40.867Z</time></trkpt><trkpt lat="43.5865884" lon="6.7938376"><ele>187.8</ele><time>2026-04-12T09:26:42.864Z</time></trkpt><trkpt lat="43.5865725" lon="6.7939244"><ele>189.4</ele><time>2026-04-12T09:26:43.9Z</time></trkpt><trkpt lat="43.5865179" lon="6.7940731"><ele>191.0</ele><time>2026-04-12T09:26:45.904Z</time></trkpt><trkpt lat="43.5864344" lon="6.7942123"><ele>191.0</ele><time>2026-04-12T09:26:47.9Z</time></trkpt><trkpt lat="43.5863902" lon="6.7942775"><ele>191.0</ele><time>2026-04-12T09:26:48.864Z</time></trkpt><trkpt lat="43.5863396" lon="6.7943306"><ele>191.0</ele><time>2026-04-12T09:26:49.904Z</time></trkpt><trkpt lat="43.5862777" lon="6.7943735"><ele>191.0</ele><time>2026-04-12T09:26:50.877Z</time></trkpt><trkpt lat="43.5862087" lon="6.7944114"><ele>191.0</ele><time>2026-04-12T09:26:51.869Z</time></trkpt><trkpt lat="43.5861429" lon="6.7944461"><ele>191.0</ele><time>2026-04-12T09:26:52.89Z</time></trkpt><trkpt lat="43.5860773" lon="6.7944886"><ele>191.0</ele><time>2026-04-12T09:26:53.887Z</time></trkpt><trkpt lat="43.5860078" lon="6.794532"><ele>190.33333333333331</ele><time>2026-04-12T09:26:54.879Z</time></trkpt><trkpt lat="43.5859423" lon="6.7945823"><ele>189.66666666666666</ele><time>2026-04-12T09:26:55.84Z</time></trkpt><trkpt lat="43.5858813" lon="6.7946419"><ele>189.0</ele><time>2026-04-12T09:26:56.848Z</time></trkpt><trkpt lat="43.585824" lon="6.7947159"><ele>188.33333333333334</ele><time>2026-04-12T09:26:57.882Z</time></trkpt><trkpt lat="43.5857642" lon="6.7947931"><ele>187.66666666666669</ele><time>2026-04-12T09:26:58.888Z</time></trkpt><trkpt lat="43.5857058" lon="6.7948779"><ele>187.0</ele><time>2026-04-12T09:26:59.879Z</time></trkpt><trkpt lat="43.5856482" lon="6.7949697"><ele>187.0</ele><time>2026-04-12T09:27:00.888Z</time></trkpt><trkpt lat="43.5855895" lon="6.7950749"><ele>187.0</ele><time>2026-04-12T09:27:01.904Z</time></trkpt><trkpt lat="43.5855373" lon="6.7951872"><ele>187.0</ele><time>2026-04-12T09:27:02.874Z</time></trkpt><trkpt lat="43.5854814" lon="6.7953025"><ele>187.0</ele><time>2026-04-12T09:27:03.836Z</time></trkpt><trkpt lat="43.5854238" lon="6.7954243"><ele>187.0</ele><time>2026-04-12T09:27:04.835Z</time></trkpt><trkpt lat="43.5853659" lon="6.795543"><ele>183.8</ele><time>2026-04-12T09:27:05.839Z</time></trkpt><trkpt lat="43.585309" lon="6.7956523"><ele>180.6</ele><time>2026-04-12T09:27:06.834Z</time></trkpt><trkpt lat="43.5852497" lon="6.7957854"><ele>177.4</ele><time>2026-04-12T09:27:07.892Z</time></trkpt><trkpt lat="43.5851877" lon="6.7959149"><ele>174.20000000000002</ele><time>2026-04-12T09:27:08.877Z</time></trkpt><trkpt lat="43.5851315" lon="6.7960636"><ele>171.0</ele><time>2026-04-12T09:27:09.879Z</time></trkpt><trkpt lat="43.5850698" lon="6.7961974"><ele>171.0</ele><time>2026-04-12T09:27:10.844Z</time></trkpt><trkpt lat="43.5850097" lon="6.7963315"><ele>171.0</ele><time>2026-04-12T09:27:11.835Z</time></trkpt><trkpt lat="43.5849565" lon="6.7964727"><ele>171.0</ele><time>2026-04-12T09:27:12.875Z</time></trkpt><trkpt lat="43.5849221" lon="6.7966187"><ele>171.0</ele><time>2026-04-12T09:27:13.88Z</time></trkpt><trkpt lat="43.5848964" lon="6.7967781"><ele>170.5</ele><time>2026-04-12T09:27:14.849Z</time></trkpt><trkpt lat="43.5848825" lon="6.7969422"><ele>170.0</ele><time>2026-04-12T09:27:15.832Z</time></trkpt><trkpt lat="43.5848784" lon="6.7971003"><ele>169.5</ele><time>2026-04-12T09:27:16.888Z</time></trkpt><trkpt lat="43.5848804" lon="6.7972664"><ele>169.0</ele><time>2026-04-12T09:27:17.871Z</time></trkpt><trkpt lat="43.584892" lon="6.7974349"><ele>169.0</ele><time>2026-04-12T09:27:18.898Z</time></trkpt><trkpt lat="43.5849054" lon="6.7975999"><ele>169.0</ele><time>2026-04-12T09:27:19.866Z</time></trkpt><trkpt lat="43.5849267" lon="6.7977626"><ele>169.0</ele><time>2026-04-12T09:27:20.88Z</time></trkpt><trkpt lat="43.5849616" lon="6.7979304"><ele>169.0</ele><time>2026-04-12T09:27:21.879Z</time></trkpt><trkpt lat="43.5849949" lon="6.798093"><ele>168.25</ele><time>2026-04-12T09:27:22.896Z</time></trkpt><trkpt lat="43.5850213" lon="6.7982451"><ele>167.5</ele><time>2026-04-12T09:27:23.878Z</time></trkpt><trkpt lat="43.5850451" lon="6.7984034"><ele>166.75</ele><time>2026-04-12T09:27:24.828Z</time></trkpt><trkpt lat="43.5850646" lon="6.7985551"><ele>166.0</ele><time>2026-04-12T09:27:25.894Z</time></trkpt><trkpt lat="43.5850688" lon="6.7987188"><ele>165.75</ele><time>2026-04-12T09:27:26.892Z</time></trkpt><trkpt lat="43.5850407" lon="6.7988814"><ele>165.5</ele><time>2026-04-12T09:27:27.884Z</time></trkpt><trkpt lat="43.5849876" lon="6.7990276"><ele>165.25</ele><time>2026-04-12T09:27:28.891Z</time></trkpt><trkpt lat="43.5849212" lon="6.7991697"><ele>165.0</ele><time>2026-04-12T09:27:29.853Z</time></trkpt><trkpt lat="43.5848483" lon="6.7993099"><ele>165.5</ele><time>2026-04-12T09:27:30.873Z</time></trkpt><trkpt lat="43.5847702" lon="6.7994481"><ele>166.0</ele><time>2026-04-12T09:27:31.873Z</time></trkpt><trkpt lat="43.5846967" lon="6.7995864"><ele>166.5</ele><time>2026-04-12T09:27:32.885Z</time></trkpt><trkpt lat="43.584623" lon="6.7997302"><ele>167.0</ele><time>2026-04-12T09:27:33.881Z</time></trkpt><trkpt lat="43.5845509" lon="6.7998775"><ele>163.5</ele><time>2026-04-12T09:27:34.846Z</time></trkpt><trkpt lat="43.5844742" lon="6.8000197"><ele>160.0</ele><time>2026-04-12T09:27:35.882Z</time></trkpt><trkpt lat="43.5843967" lon="6.8001593"><ele>156.5</ele><time>2026-04-12T09:27:36.869Z</time></trkpt><trkpt lat="43.5843181" lon="6.8002986"><ele>153.0</ele><time>2026-04-12T09:27:37.897Z</time></trkpt><trkpt lat="43.5842458" lon="6.8004369"><ele>152.5</ele><time>2026-04-12T09:27:38.879Z</time></trkpt><trkpt lat="43.5841754" lon="6.8005799"><ele>152.0</ele><time>2026-04-12T09:27:39.853Z</time></trkpt><trkpt lat="43.5841085" lon="6.8007156"><ele>151.5</ele><time>2026-04-12T09:27:40.858Z</time></trkpt><trkpt lat="43.5840373" lon="6.8008447"><ele>151.0</ele><time>2026-04-12T09:27:41.887Z</time></trkpt><trkpt lat="43.5839663" lon="6.8009663"><ele>150.0</ele><time>2026-04-12T09:27:42.866Z</time></trkpt><trkpt lat="43.5839011" lon="6.801087"><ele>149.0</ele><time>2026-04-12T09:27:43.877Z</time></trkpt><trkpt lat="43.5838353" lon="6.8012114"><ele>148.0</ele><time>2026-04-12T09:27:44.837Z</time></trkpt><trkpt lat="43.5837689" lon="6.8013313"><ele>147.0</ele><time>2026-04-12T09:27:45.88Z</time></trkpt><trkpt lat="43.5837075" lon="6.8014472"><ele>146.0</ele><time>2026-04-12T09:27:46.901Z</time></trkpt><trkpt lat="43.5836457" lon="6.8015629"><ele>145.83333333333331</ele><time>2026-04-12T09:27:47.909Z</time></trkpt><trkpt lat="43.5835847" lon="6.8016749"><ele>145.66666666666666</ele><time>2026-04-12T09:27:48.882Z</time></trkpt><trkpt lat="43.5835266" lon="6.8017758"><ele>145.5</ele><time>2026-04-12T09:27:49.9Z</time></trkpt><trkpt lat="43.5834731" lon="6.8018773"><ele>145.33333333333334</ele><time>2026-04-12T09:27:50.885Z</time></trkpt><trkpt lat="43.5834228" lon="6.8019684"><ele>145.16666666666669</ele><time>2026-04-12T09:27:51.85Z</time></trkpt><trkpt lat="43.5833792" lon="6.8020619"><ele>145.0</ele><time>2026-04-12T09:27:52.897Z</time></trkpt><trkpt lat="43.5833296" lon="6.8021545"><ele>145.0</ele><time>2026-04-12T09:27:53.867Z</time></trkpt><trkpt lat="43.5832785" lon="6.8022448"><ele>145.0</ele><time>2026-04-12T09:27:54.889Z</time></trkpt><trkpt lat="43.5832282" lon="6.8023401"><ele>145.0</ele><time>2026-04-12T09:27:55.928Z</time></trkpt><trkpt lat="43.5831786" lon="6.8024311"><ele>145.0</ele><time>2026-04-12T09:27:56.865Z</time></trkpt><trkpt lat="43.5831321" lon="6.8025242"><ele>145.0</ele><time>2026-04-12T09:27:57.897Z</time></trkpt><trkpt lat="43.5830859" lon="6.802619"><ele>145.0</ele><time>2026-04-12T09:27:58.845Z</time></trkpt><trkpt lat="43.5830335" lon="6.8027155"><ele>145.0</ele><time>2026-04-12T09:27:59.902Z</time></trkpt><trkpt lat="43.5829799" lon="6.802814"><ele>145.0</ele><time>2026-04-12T09:28:00.88Z</time></trkpt><trkpt lat="43.5829321" lon="6.8029146"><ele>145.0</ele><time>2026-04-12T09:28:01.868Z</time></trkpt><trkpt lat="43.5828747" lon="6.8030144"><ele>145.0</ele><time>2026-04-12T09:28:02.859Z</time></trkpt><trkpt lat="43.5828184" lon="6.8031192"><ele>145.0</ele><time>2026-04-12T09:28:03.917Z</time></trkpt><trkpt lat="43.5827596" lon="6.8032235"><ele>145.0</ele><time>2026-04-12T09:28:04.853Z</time></trkpt><trkpt lat="43.582706" lon="6.8033259"><ele>145.0</ele><time>2026-04-12T09:28:05.904Z</time></trkpt><trkpt lat="43.5826535" lon="6.8034302"><ele>145.0</ele><time>2026-04-12T09:28:06.886Z</time></trkpt><trkpt lat="43.5825991" lon="6.8035425"><ele>145.0</ele><time>2026-04-12T09:28:07.895Z</time></trkpt><trkpt lat="43.5825443" lon="6.8036504"><ele>145.0</ele><time>2026-04-12T09:28:08.894Z</time></trkpt><trkpt lat="43.5824873" lon="6.8037559"><ele>145.2</ele><time>2026-04-12T09:28:09.915Z</time></trkpt><trkpt lat="43.5824352" lon="6.8038636"><ele>145.4</ele><time>2026-04-12T09:28:10.876Z</time></trkpt><trkpt lat="43.5823799" lon="6.8039651"><ele>145.6</ele><time>2026-04-12T09:28:11.88Z</time></trkpt><trkpt lat="43.5823268" lon="6.8040669"><ele>145.8</ele><time>2026-04-12T09:28:12.893Z</time></trkpt><trkpt lat="43.5822745" lon="6.8041684"><ele>146.0</ele><time>2026-04-12T09:28:13.901Z</time></trkpt><trkpt lat="43.5822212" lon="6.8042646"><ele>147.0</ele><time>2026-04-12T09:28:14.888Z</time></trkpt><trkpt lat="43.5821671" lon="6.8043585"><ele>148.0</ele><time>2026-04-12T09:28:15.88Z</time></trkpt><trkpt lat="43.5821152" lon="6.8044563"><ele>149.0</ele><time>2026-04-12T09:28:16.886Z</time></trkpt><trkpt lat="43.5820715" lon="6.8045424"><ele>150.0</ele><time>2026-04-12T09:28:17.867Z</time></trkpt><trkpt lat="43.5820326" lon="6.8046161"><ele>151.0</ele><time>2026-04-12T09:28:18.898Z</time></trkpt><trkpt lat="43.5819671" lon="6.8046944"><ele>152.0</ele><time>2026-04-12T09:28:20.878Z</time></trkpt><trkpt lat="43.581903" lon="6.8047443"><ele>152.0</ele><time>2026-04-12T09:28:29.866Z</time></trkpt><trkpt lat="43.581847" lon="6.8047988"><ele>152.0</ele><time>2026-04-12T09:28:35.865Z</time></trkpt><trkpt lat="43.581791" lon="6.8048399"><ele>152.0</ele><time>2026-04-12T09:28:42.859Z</time></trkpt><trkpt lat="43.5817482" lon="6.8049146"><ele>152.0</ele><time>2026-04-12T09:28:53.459Z</time></trkpt><trkpt lat="43.5817446" lon="6.8050085"><ele>152.0</ele><time>2026-04-12T09:30:24.859Z</time></trkpt><trkpt lat="43.5817551" lon="6.8049123"><ele>152.0</ele><time>2026-04-12T09:30:41.849Z</time></trkpt><trkpt lat="43.5818092" lon="6.8048362"><ele>152.0</ele><time>2026-04-12T09:31:02.828Z</time></trkpt><trkpt lat="43.5818645" lon="6.804773"><ele>152.0</ele><time>2026-04-12T09:31:09.898Z</time></trkpt><trkpt lat="43.5819248" lon="6.8047421"><ele>152.0</ele><time>2026-04-12T09:31:15.897Z</time></trkpt><trkpt lat="43.5819308" lon="6.8048416"><ele>152.0</ele><time>2026-04-12T09:31:51.892Z</time></trkpt><trkpt lat="43.5818737" lon="6.8049304"><ele>152.0</ele><time>2026-04-12T09:31:54.835Z</time></trkpt><trkpt lat="43.5818227" lon="6.8050003"><ele>152.0</ele><time>2026-04-12T09:31:56.856Z</time></trkpt><trkpt lat="43.5817871" lon="6.8050777"><ele>152.0</ele><time>2026-04-12T09:31:58.84Z</time></trkpt><trkpt lat="43.5817492" lon="6.8051799"><ele>152.0</ele><time>2026-04-12T09:32:00.879Z</time></trkpt><trkpt lat="43.5816949" lon="6.8052617"><ele>153.0</ele><time>2026-04-12T09:32:02.829Z</time></trkpt><trkpt lat="43.581669" lon="6.8053752"><ele>154.0</ele><time>2026-04-12T09:32:04.879Z</time></trkpt><trkpt lat="43.5816532" lon="6.8054938"><ele>155.0</ele><time>2026-04-12T09:32:06.91Z</time></trkpt><trkpt lat="43.5816427" lon="6.8056382"><ele>156.0</ele><time>2026-04-12T09:32:08.872Z</time></trkpt><trkpt lat="43.5816615" lon="6.8057794"><ele>157.0</ele><time>2026-04-12T09:32:10.868Z</time></trkpt><trkpt lat="43.5816906" lon="6.8059291"><ele>156.28571428571428</ele><time>2026-04-12T09:32:12.88Z</time></trkpt><trkpt lat="43.5817345" lon="6.8060721"><ele>155.57142857142856</ele><time>2026-04-12T09:32:14.881Z</time></trkpt><trkpt lat="43.581763" lon="6.8061506"><ele>154.85714285714283</ele><time>2026-04-12T09:32:15.878Z</time></trkpt><trkpt lat="43.581801" lon="6.8062256"><ele>154.14285714285714</ele><time>2026-04-12T09:32:16.84Z</time></trkpt><trkpt lat="43.5818395" lon="6.8063013"><ele>153.42857142857144</ele><time>2026-04-12T09:32:17.854Z</time></trkpt><trkpt lat="43.5818795" lon="6.8063785"><ele>152.7142857142857</ele><time>2026-04-12T09:32:18.861Z</time></trkpt><trkpt lat="43.5819161" lon="6.8064563"><ele>152.0</ele><time>2026-04-12T09:32:19.864Z</time></trkpt><trkpt lat="43.5819523" lon="6.8065377"><ele>152.0</ele><time>2026-04-12T09:32:20.864Z</time></trkpt><trkpt lat="43.5819894" lon="6.8066203"><ele>152.0</ele><time>2026-04-12T09:32:21.872Z</time></trkpt><trkpt lat="43.5820179" lon="6.8067101"><ele>152.0</ele><time>2026-04-12T09:32:22.885Z</time></trkpt><trkpt lat="43.5820368" lon="6.8068027"><ele>152.0</ele><time>2026-04-12T09:32:23.873Z</time></trkpt><trkpt lat="43.5820526" lon="6.8068984"><ele>152.0</ele><time>2026-04-12T09:32:24.848Z</time></trkpt><trkpt lat="43.5820658" lon="6.8069976"><ele>152.0</ele><time>2026-04-12T09:32:25.848Z</time></trkpt><trkpt lat="43.5820627" lon="6.8071652"><ele>152.6</ele><time>2026-04-12T09:32:27.872Z</time></trkpt><trkpt lat="43.5820596" lon="6.8072564"><ele>153.2</ele><time>2026-04-12T09:32:28.871Z</time></trkpt><trkpt lat="43.5820529" lon="6.8073459"><ele>153.8</ele><time>2026-04-12T09:32:29.87Z</time></trkpt><trkpt lat="43.5820305" lon="6.8075155"><ele>154.4</ele><time>2026-04-12T09:32:31.891Z</time></trkpt><trkpt lat="43.5820127" lon="6.8076851"><ele>155.0</ele><time>2026-04-12T09:32:33.864Z</time></trkpt><trkpt lat="43.5819937" lon="6.8078521"><ele>155.0</ele><time>2026-04-12T09:32:35.865Z</time></trkpt><trkpt lat="43.5819708" lon="6.8080094"><ele>155.0</ele><time>2026-04-12T09:32:37.894Z</time></trkpt><trkpt lat="43.5819478" lon="6.80818"><ele>155.0</ele><time>2026-04-12T09:32:39.912Z</time></trkpt><trkpt lat="43.5819299" lon="6.808348"><ele>155.0</ele><time>2026-04-12T09:32:41.865Z</time></trkpt><trkpt lat="43.5819237" lon="6.8084453"><ele>155.0</ele><time>2026-04-12T09:32:42.877Z</time></trkpt><trkpt lat="43.5819182" lon="6.8085415"><ele>154.85714285714286</ele><time>2026-04-12T09:32:43.886Z</time></trkpt><trkpt lat="43.5819146" lon="6.8086291"><ele>154.71428571428572</ele><time>2026-04-12T09:32:44.891Z</time></trkpt><trkpt lat="43.5819185" lon="6.8087273"><ele>154.57142857142856</ele><time>2026-04-12T09:32:45.885Z</time></trkpt><trkpt lat="43.5819284" lon="6.8088246"><ele>154.42857142857144</ele><time>2026-04-12T09:32:46.849Z</time></trkpt><trkpt lat="43.5819317" lon="6.808926"><ele>154.28571428571428</ele><time>2026-04-12T09:32:47.867Z</time></trkpt><trkpt lat="43.5819456" lon="6.8090325"><ele>154.14285714285714</ele><time>2026-04-12T09:32:48.895Z</time></trkpt><trkpt lat="43.5819657" lon="6.8091358"><ele>154.0</ele><time>2026-04-12T09:32:49.889Z</time></trkpt><trkpt lat="43.5819918" lon="6.8092387"><ele>155.16666666666669</ele><time>2026-04-12T09:32:50.896Z</time></trkpt><trkpt lat="43.5820192" lon="6.8093431"><ele>156.33333333333334</ele><time>2026-04-12T09:32:51.876Z</time></trkpt><trkpt lat="43.5820475" lon="6.8094442"><ele>157.5</ele><time>2026-04-12T09:32:52.87Z</time></trkpt><trkpt lat="43.5820715" lon="6.80955"><ele>158.66666666666666</ele><time>2026-04-12T09:32:53.874Z</time></trkpt><trkpt lat="43.582103" lon="6.809651"><ele>159.83333333333331</ele><time>2026-04-12T09:32:54.876Z</time></trkpt><trkpt lat="43.5821319" lon="6.8097518"><ele>161.0</ele><time>2026-04-12T09:32:55.907Z</time></trkpt><trkpt lat="43.5821602" lon="6.8098595"><ele>161.0</ele><time>2026-04-12T09:32:56.847Z</time></trkpt><trkpt lat="43.5821924" lon="6.8099665"><ele>161.0</ele><time>2026-04-12T09:32:57.861Z</time></trkpt><trkpt lat="43.5822247" lon="6.810076"><ele>161.0</ele><time>2026-04-12T09:32:58.87Z</time></trkpt><trkpt lat="43.5822525" lon="6.8101912"><ele>161.0</ele><time>2026-04-12T09:32:59.876Z</time></trkpt><trkpt lat="43.5822825" lon="6.8103048"><ele>161.0</ele><time>2026-04-12T09:33:00.877Z</time></trkpt><trkpt lat="43.5823094" lon="6.8104157"><ele>161.0</ele><time>2026-04-12T09:33:01.901Z</time></trkpt><trkpt lat="43.5823348" lon="6.8105257"><ele>160.83333333333331</ele><time>2026-04-12T09:33:02.88Z</time></trkpt><trkpt lat="43.5823544" lon="6.8106346"><ele>160.66666666666666</ele><time>2026-04-12T09:33:03.886Z</time></trkpt><trkpt lat="43.5823678" lon="6.8107394"><ele>160.5</ele><time>2026-04-12T09:33:04.876Z</time></trkpt><trkpt lat="43.5823685" lon="6.8108456"><ele>160.33333333333334</ele><time>2026-04-12T09:33:05.895Z</time></trkpt><trkpt lat="43.5823614" lon="6.8109535"><ele>160.16666666666669</ele><time>2026-04-12T09:33:06.855Z</time></trkpt><trkpt lat="43.5823518" lon="6.8110504"><ele>160.0</ele><time>2026-04-12T09:33:07.887Z</time></trkpt><trkpt lat="43.5823349" lon="6.8111399"><ele>159.85714285714286</ele><time>2026-04-12T09:33:08.878Z</time></trkpt><trkpt lat="43.5823187" lon="6.8112369"><ele>159.71428571428572</ele><time>2026-04-12T09:33:09.872Z</time></trkpt><trkpt lat="43.5823114" lon="6.8113271"><ele>159.57142857142856</ele><time>2026-04-12T09:33:10.866Z</time></trkpt><trkpt lat="43.5823261" lon="6.8114193"><ele>159.42857142857144</ele><time>2026-04-12T09:33:11.853Z</time></trkpt><trkpt lat="43.582355" lon="6.811501"><ele>159.2857142857143</ele><time>2026-04-12T09:33:12.898Z</time></trkpt><trkpt lat="43.582398" lon="6.8115663"><ele>159.14285714285714</ele><time>2026-04-12T09:33:13.875Z</time></trkpt><trkpt lat="43.5824489" lon="6.811635"><ele>159.0</ele><time>2026-04-12T09:33:14.884Z</time></trkpt><trkpt lat="43.5824965" lon="6.8116959"><ele>159.0</ele><time>2026-04-12T09:33:15.885Z</time></trkpt><trkpt lat="43.5825438" lon="6.8117617"><ele>159.0</ele><time>2026-04-12T09:33:16.88Z</time></trkpt><trkpt lat="43.5825918" lon="6.8118264"><ele>159.0</ele><time>2026-04-12T09:33:17.89Z</time></trkpt><trkpt lat="43.582641" lon="6.8118883"><ele>159.0</ele><time>2026-04-12T09:33:18.888Z</time></trkpt><trkpt lat="43.5826908" lon="6.8119441"><ele>159.0</ele><time>2026-04-12T09:33:19.909Z</time></trkpt><trkpt lat="43.5827487" lon="6.8119896"><ele>159.0</ele><time>2026-04-12T09:33:20.88Z</time></trkpt><trkpt lat="43.5828545" lon="6.8120246"><ele>159.0</ele><time>2026-04-12T09:33:22.885Z</time></trkpt><trkpt lat="43.5829573" lon="6.8120294"><ele>159.83333333333334</ele><time>2026-04-12T09:33:24.855Z</time></trkpt><trkpt lat="43.5830467" lon="6.8120409"><ele>160.66666666666666</ele><time>2026-04-12T09:33:26.864Z</time></trkpt><trkpt lat="43.5831174" lon="6.8120486"><ele>161.5</ele><time>2026-04-12T09:33:28.875Z</time></trkpt><trkpt lat="43.5831894" lon="6.812074"><ele>162.33333333333331</ele><time>2026-04-12T09:33:30.888Z</time></trkpt><trkpt lat="43.5832538" lon="6.8121217"><ele>163.16666666666666</ele><time>2026-04-12T09:33:32.87Z</time></trkpt><trkpt lat="43.5833143" lon="6.8121759"><ele>164.0</ele><time>2026-04-12T09:33:34.866Z</time></trkpt><trkpt lat="43.5833919" lon="6.8122543"><ele>163.99999999999997</ele><time>2026-04-12T09:33:37.86Z</time></trkpt><trkpt lat="43.5834475" lon="6.8123104"><ele>164.0</ele><time>2026-04-12T09:33:39.876Z</time></trkpt><trkpt lat="43.5835027" lon="6.8123682"><ele>164.0</ele><time>2026-04-12T09:33:41.892Z</time></trkpt><trkpt lat="43.5835495" lon="6.8124369"><ele>164.0</ele><time>2026-04-12T09:33:43.886Z</time></trkpt><trkpt lat="43.5835956" lon="6.8125037"><ele>164.0</ele><time>2026-04-12T09:33:45.877Z</time></trkpt><trkpt lat="43.5836374" lon="6.8125723"><ele>163.99999999999997</ele><time>2026-04-12T09:33:47.865Z</time></trkpt><trkpt lat="43.5836829" lon="6.8126467"><ele>164.0</ele><time>2026-04-12T09:33:49.896Z</time></trkpt><trkpt lat="43.5837283" lon="6.8127178"><ele>164.42857142857142</ele><time>2026-04-12T09:33:51.865Z</time></trkpt><trkpt lat="43.583752" lon="6.8128107"><ele>164.85714285714286</ele><time>2026-04-12T09:33:53.881Z</time></trkpt><trkpt lat="43.583764" lon="6.812903"><ele>165.28571428571428</ele><time>2026-04-12T09:33:55.875Z</time></trkpt><trkpt lat="43.5837632" lon="6.8129964"><ele>165.71428571428572</ele><time>2026-04-12T09:33:57.839Z</time></trkpt><trkpt lat="43.5837567" lon="6.8130919"><ele>166.14285714285714</ele><time>2026-04-12T09:33:59.832Z</time></trkpt><trkpt lat="43.5837453" lon="6.8131862"><ele>166.57142857142856</ele><time>2026-04-12T09:34:01.885Z</time></trkpt><trkpt lat="43.5837123" lon="6.8132727"><ele>167.0</ele><time>2026-04-12T09:34:03.868Z</time></trkpt><trkpt lat="43.5836643" lon="6.8133473"><ele>167.14285714285714</ele><time>2026-04-12T09:34:05.861Z</time></trkpt><trkpt lat="43.5836173" lon="6.8134205"><ele>167.28571428571428</ele><time>2026-04-12T09:34:07.862Z</time></trkpt><trkpt lat="43.5835662" lon="6.8134896"><ele>167.42857142857144</ele><time>2026-04-12T09:34:09.881Z</time></trkpt><trkpt lat="43.5835211" lon="6.8135623"><ele>167.57142857142856</ele><time>2026-04-12T09:34:11.91Z</time></trkpt><trkpt lat="43.5834758" lon="6.8136353"><ele>167.71428571428572</ele><time>2026-04-12T09:34:13.895Z</time></trkpt><trkpt lat="43.5834356" lon="6.8137061"><ele>167.85714285714286</ele><time>2026-04-12T09:34:15.878Z</time></trkpt><trkpt lat="43.5833846" lon="6.8137772"><ele>168.0</ele><time>2026-04-12T09:34:17.874Z</time></trkpt><trkpt lat="43.5833465" lon="6.8138573"><ele>168.66666666666666</ele><time>2026-04-12T09:34:19.871Z</time></trkpt><trkpt lat="43.5832947" lon="6.8139759"><ele>169.33333333333334</ele><time>2026-04-12T09:34:22.901Z</time></trkpt><trkpt lat="43.5832665" lon="6.8140616"><ele>170.0</ele><time>2026-04-12T09:34:24.888Z</time></trkpt><trkpt lat="43.5832509" lon="6.8141569"><ele>170.66666666666669</ele><time>2026-04-12T09:34:26.876Z</time></trkpt><trkpt lat="43.5832569" lon="6.814268"><ele>171.33333333333334</ele><time>2026-04-12T09:34:28.849Z</time></trkpt><trkpt lat="43.5832964" lon="6.8143887"><ele>172.0</ele><time>2026-04-12T09:34:30.857Z</time></trkpt><trkpt lat="43.5833336" lon="6.8145071"><ele>173.6</ele><time>2026-04-12T09:34:32.863Z</time></trkpt><trkpt lat="43.583365" lon="6.8146358"><ele>175.2</ele><time>2026-04-12T09:34:34.87Z</time></trkpt><trkpt lat="43.5833961" lon="6.8147565"><ele>176.8</ele><time>2026-04-12T09:34:36.855Z</time></trkpt><trkpt lat="43.5834436" lon="6.8148737"><ele>178.4</ele><time>2026-04-12T09:34:38.866Z</time></trkpt><trkpt lat="43.5834988" lon="6.8149727"><ele>180.0</ele><time>2026-04-12T09:34:40.876Z</time></trkpt><trkpt lat="43.5835675" lon="6.8150702"><ele>179.8</ele><time>2026-04-12T09:34:42.882Z</time></trkpt><trkpt lat="43.5836317" lon="6.8151717"><ele>179.6</ele><time>2026-04-12T09:34:44.875Z</time></trkpt><trkpt lat="43.5836944" lon="6.8152842"><ele>179.39999999999998</ele><time>2026-04-12T09:34:46.871Z</time></trkpt><trkpt lat="43.5837305" lon="6.815398"><ele>179.2</ele><time>2026-04-12T09:34:48.868Z</time></trkpt><trkpt lat="43.5837762" lon="6.8155081"><ele>179.0</ele><time>2026-04-12T09:34:50.872Z</time></trkpt><trkpt lat="43.5838527" lon="6.8155939"><ele>179.0</ele><time>2026-04-12T09:34:52.861Z</time></trkpt><trkpt lat="43.5839442" lon="6.8156499"><ele>179.0</ele><time>2026-04-12T09:34:54.873Z</time></trkpt><trkpt lat="43.5840352" lon="6.8157093"><ele>179.0</ele><time>2026-04-12T09:34:56.868Z</time></trkpt><trkpt lat="43.5841095" lon="6.8158053"><ele>179.0</ele><time>2026-04-12T09:34:58.867Z</time></trkpt><trkpt lat="43.5841676" lon="6.8159021"><ele>179.0</ele><time>2026-04-12T09:35:00.87Z</time></trkpt><trkpt lat="43.5842246" lon="6.8159851"><ele>178.79999999999998</ele><time>2026-04-12T09:35:02.969Z</time></trkpt><trkpt lat="43.584319" lon="6.816053"><ele>178.6</ele><time>2026-04-12T09:35:04.841Z</time></trkpt><trkpt lat="43.584404" lon="6.8160747"><ele>178.4</ele><time>2026-04-12T09:35:06.894Z</time></trkpt><trkpt lat="43.5845051" lon="6.816042"><ele>178.2</ele><time>2026-04-12T09:35:08.864Z</time></trkpt><trkpt lat="43.5846116" lon="6.8159888"><ele>178.0</ele><time>2026-04-12T09:35:10.862Z</time></trkpt><trkpt lat="43.5847259" lon="6.8159327"><ele>178.0</ele><time>2026-04-12T09:35:12.852Z</time></trkpt><trkpt lat="43.584828" lon="6.8158844"><ele>178.0</ele><time>2026-04-12T09:35:14.875Z</time></trkpt><trkpt lat="43.584931" lon="6.8158696"><ele>178.0</ele><time>2026-04-12T09:35:16.865Z</time></trkpt><trkpt lat="43.5850248" lon="6.8158928"><ele>178.0</ele><time>2026-04-12T09:35:18.837Z</time></trkpt><trkpt lat="43.5850951" lon="6.8159613"><ele>178.0</ele><time>2026-04-12T09:35:20.863Z</time></trkpt><trkpt lat="43.5851626" lon="6.8160373"><ele>180.4</ele><time>2026-04-12T09:35:22.87Z</time></trkpt><trkpt lat="43.5852303" lon="6.8161167"><ele>182.8</ele><time>2026-04-12T09:35:24.868Z</time></trkpt><trkpt lat="43.5853079" lon="6.8161795"><ele>185.2</ele><time>2026-04-12T09:35:26.878Z</time></trkpt><trkpt lat="43.5853875" lon="6.8162336"><ele>187.6</ele><time>2026-04-12T09:35:28.861Z</time></trkpt><trkpt lat="43.5854715" lon="6.8162904"><ele>190.0</ele><time>2026-04-12T09:35:30.882Z</time></trkpt><trkpt lat="43.5855554" lon="6.8163561"><ele>190.0</ele><time>2026-04-12T09:35:32.838Z</time></trkpt><trkpt lat="43.5856379" lon="6.8164268"><ele>190.0</ele><time>2026-04-12T09:35:34.872Z</time></trkpt><trkpt lat="43.5857246" lon="6.8164881"><ele>190.0</ele><time>2026-04-12T09:35:36.875Z</time></trkpt><trkpt lat="43.5858045" lon="6.8165609"><ele>190.0</ele><time>2026-04-12T09:35:38.875Z</time></trkpt><trkpt lat="43.5858737" lon="6.8166574"><ele>190.0</ele><time>2026-04-12T09:35:40.873Z</time></trkpt><trkpt lat="43.5859288" lon="6.8167672"><ele>193.4</ele><time>2026-04-12T09:35:42.884Z</time></trkpt><trkpt lat="43.5859777" lon="6.8168904"><ele>196.8</ele><time>2026-04-12T09:35:44.857Z</time></trkpt><trkpt lat="43.586016" lon="6.8170127"><ele>200.2</ele><time>2026-04-12T09:35:46.876Z</time></trkpt><trkpt lat="43.5860511" lon="6.8171328"><ele>203.6</ele><time>2026-04-12T09:35:48.839Z</time></trkpt><trkpt lat="43.586103" lon="6.8172372"><ele>207.0</ele><time>2026-04-12T09:35:50.863Z</time></trkpt><trkpt lat="43.5861628" lon="6.8173349"><ele>205.0</ele><time>2026-04-12T09:35:52.863Z</time></trkpt><trkpt lat="43.586237" lon="6.8174263"><ele>203.0</ele><time>2026-04-12T09:35:54.858Z</time></trkpt><trkpt lat="43.5863163" lon="6.8175074"><ele>201.0</ele><time>2026-04-12T09:35:56.88Z</time></trkpt><trkpt lat="43.5863912" lon="6.8175653"><ele>199.0</ele><time>2026-04-12T09:35:58.881Z</time></trkpt><trkpt lat="43.5864632" lon="6.8176243"><ele>197.0</ele><time>2026-04-12T09:36:00.888Z</time></trkpt><trkpt lat="43.586544" lon="6.8177"><ele>197.0</ele><time>2026-04-12T09:36:02.872Z</time></trkpt><trkpt lat="43.5866178" lon="6.8177671"><ele>197.0</ele><time>2026-04-12T09:36:04.857Z</time></trkpt><trkpt lat="43.5867074" lon="6.8178203"><ele>197.0</ele><time>2026-04-12T09:36:06.827Z</time></trkpt><trkpt lat="43.5867909" lon="6.8178779"><ele>197.0</ele><time>2026-04-12T09:36:08.871Z</time></trkpt><trkpt lat="43.5868726" lon="6.8179269"><ele>197.0</ele><time>2026-04-12T09:36:10.847Z</time></trkpt><trkpt lat="43.5869633" lon="6.8179677"><ele>194.83333333333334</ele><time>2026-04-12T09:36:12.873Z</time></trkpt><trkpt lat="43.5870425" lon="6.8180281"><ele>192.66666666666669</ele><time>2026-04-12T09:36:14.901Z</time></trkpt><trkpt lat="43.5871127" lon="6.8180881"><ele>190.5</ele><time>2026-04-12T09:36:16.876Z</time></trkpt><trkpt lat="43.5871831" lon="6.8181561"><ele>188.33333333333334</ele><time>2026-04-12T09:36:18.851Z</time></trkpt><trkpt lat="43.5872435" lon="6.8182341"><ele>186.16666666666669</ele><time>2026-04-12T09:36:20.881Z</time></trkpt><trkpt lat="43.5872446" lon="6.8183342"><ele>184.0</ele><time>2026-04-12T09:36:22.863Z</time></trkpt><trkpt lat="43.587195" lon="6.8184254"><ele>183.6</ele><time>2026-04-12T09:36:24.893Z</time></trkpt><trkpt lat="43.5871288" lon="6.8185017"><ele>183.2</ele><time>2026-04-12T09:36:26.881Z</time></trkpt><trkpt lat="43.5870517" lon="6.8185564"><ele>182.79999999999998</ele><time>2026-04-12T09:36:28.891Z</time></trkpt><trkpt lat="43.5869544" lon="6.8185982"><ele>182.39999999999998</ele><time>2026-04-12T09:36:30.898Z</time></trkpt><trkpt lat="43.5868604" lon="6.81864"><ele>182.0</ele><time>2026-04-12T09:36:32.894Z</time></trkpt><trkpt lat="43.5867631" lon="6.818675"><ele>184.39999999999998</ele><time>2026-04-12T09:36:34.901Z</time></trkpt><trkpt lat="43.5866667" lon="6.818703"><ele>186.79999999999998</ele><time>2026-04-12T09:36:36.886Z</time></trkpt><trkpt lat="43.5865735" lon="6.8187357"><ele>189.2</ele><time>2026-04-12T09:36:38.867Z</time></trkpt><trkpt lat="43.5864924" lon="6.818819"><ele>191.6</ele><time>2026-04-12T09:36:40.878Z</time></trkpt><trkpt lat="43.5864472" lon="6.8189387"><ele>194.0</ele><time>2026-04-12T09:36:42.869Z</time></trkpt><trkpt lat="43.5864603" lon="6.8190736"><ele>194.0</ele><time>2026-04-12T09:36:44.842Z</time></trkpt><trkpt lat="43.5864777" lon="6.8192099"><ele>194.0</ele><time>2026-04-12T09:36:46.896Z</time></trkpt><trkpt lat="43.5864538" lon="6.8193538"><ele>194.0</ele><time>2026-04-12T09:36:48.876Z</time></trkpt><trkpt lat="43.5864124" lon="6.8194686"><ele>194.0</ele><time>2026-04-12T09:36:50.886Z</time></trkpt><trkpt lat="43.586352" lon="6.8195614"><ele>194.0</ele><time>2026-04-12T09:36:52.852Z</time></trkpt><trkpt lat="43.5862807" lon="6.819653"><ele>193.79999999999998</ele><time>2026-04-12T09:36:54.879Z</time></trkpt><trkpt lat="43.5862166" lon="6.8197458"><ele>193.6</ele><time>2026-04-12T09:36:56.845Z</time></trkpt><trkpt lat="43.5861831" lon="6.8198532"><ele>193.4</ele><time>2026-04-12T09:36:58.886Z</time></trkpt><trkpt lat="43.5861786" lon="6.8200057"><ele>193.2</ele><time>2026-04-12T09:37:00.88Z</time></trkpt><trkpt lat="43.5861743" lon="6.8201313"><ele>193.0</ele><time>2026-04-12T09:37:02.888Z</time></trkpt><trkpt lat="43.5861474" lon="6.8202376"><ele>194.16666666666666</ele><time>2026-04-12T09:37:04.841Z</time></trkpt><trkpt lat="43.5861007" lon="6.8203444"><ele>195.33333333333331</ele><time>2026-04-12T09:37:06.858Z</time></trkpt><trkpt lat="43.5860579" lon="6.8204693"><ele>196.5</ele><time>2026-04-12T09:37:08.847Z</time></trkpt><trkpt lat="43.5860114" lon="6.8205757"><ele>197.66666666666669</ele><time>2026-04-12T09:37:10.858Z</time></trkpt><trkpt lat="43.5859543" lon="6.8206619"><ele>198.83333333333334</ele><time>2026-04-12T09:37:12.849Z</time></trkpt><trkpt lat="43.5859006" lon="6.8207416"><ele>200.0</ele><time>2026-04-12T09:37:14.859Z</time></trkpt><trkpt lat="43.5858411" lon="6.820837"><ele>200.00000000000003</ele><time>2026-04-12T09:37:16.859Z</time></trkpt><trkpt lat="43.5857664" lon="6.8208873"><ele>200.0</ele><time>2026-04-12T09:37:18.864Z</time></trkpt><trkpt lat="43.5856791" lon="6.8208902"><ele>200.0</ele><time>2026-04-12T09:37:20.83Z</time></trkpt><trkpt lat="43.5855965" lon="6.8208859"><ele>200.0</ele><time>2026-04-12T09:37:22.861Z</time></trkpt><trkpt lat="43.5855147" lon="6.8208874"><ele>200.00000000000003</ele><time>2026-04-12T09:37:24.888Z</time></trkpt><trkpt lat="43.5854287" lon="6.8208958"><ele>200.0</ele><time>2026-04-12T09:37:26.867Z</time></trkpt><trkpt lat="43.5853525" lon="6.8209418"><ele>203.00000000000003</ele><time>2026-04-12T09:37:28.868Z</time></trkpt><trkpt lat="43.5852823" lon="6.8209983"><ele>206.0</ele><time>2026-04-12T09:37:30.866Z</time></trkpt><trkpt lat="43.585219" lon="6.8210472"><ele>209.0</ele><time>2026-04-12T09:37:32.869Z</time></trkpt><trkpt lat="43.5851657" lon="6.8211439"><ele>212.0</ele><time>2026-04-12T09:37:34.869Z</time></trkpt><trkpt lat="43.585142" lon="6.8212515"><ele>215.00000000000003</ele><time>2026-04-12T09:37:36.893Z</time></trkpt><trkpt lat="43.5851651" lon="6.8213464"><ele>218.0</ele><time>2026-04-12T09:37:38.87Z</time></trkpt><trkpt lat="43.5852111" lon="6.8214494"><ele>218.0</ele><time>2026-04-12T09:37:40.871Z</time></trkpt><trkpt lat="43.585261" lon="6.8215792"><ele>218.0</ele><time>2026-04-12T09:37:42.865Z</time></trkpt><trkpt lat="43.5852935" lon="6.8217003"><ele>218.0</ele><time>2026-04-12T09:37:44.874Z</time></trkpt><trkpt lat="43.585302" lon="6.8218298"><ele>218.0</ele><time>2026-04-12T09:37:46.889Z</time></trkpt><trkpt lat="43.5852857" lon="6.8219365"><ele>218.0</ele><time>2026-04-12T09:37:48.88Z</time></trkpt><trkpt lat="43.5852553" lon="6.8220409"><ele>216.83333333333334</ele><time>2026-04-12T09:37:50.848Z</time></trkpt><trkpt lat="43.5852232" lon="6.8221436"><ele>215.66666666666669</ele><time>2026-04-12T09:37:52.878Z</time></trkpt><trkpt lat="43.5851863" lon="6.8222501"><ele>214.5</ele><time>2026-04-12T09:37:54.877Z</time></trkpt><trkpt lat="43.5851345" lon="6.8223418"><ele>213.33333333333331</ele><time>2026-04-12T09:37:56.867Z</time></trkpt><trkpt lat="43.5850853" lon="6.8224067"><ele>212.16666666666666</ele><time>2026-04-12T09:37:58.866Z</time></trkpt><trkpt lat="43.5850254" lon="6.8224546"><ele>211.0</ele><time>2026-04-12T09:38:00.853Z</time></trkpt><trkpt lat="43.5849604" lon="6.8225133"><ele>211.0</ele><time>2026-04-12T09:38:02.856Z</time></trkpt><trkpt lat="43.5849004" lon="6.8225627"><ele>211.0</ele><time>2026-04-12T09:38:04.861Z</time></trkpt><trkpt lat="43.5848437" lon="6.822619"><ele>211.0</ele><time>2026-04-12T09:38:06.88Z</time></trkpt><trkpt lat="43.5847891" lon="6.822681"><ele>211.0</ele><time>2026-04-12T09:38:08.864Z</time></trkpt><trkpt lat="43.5847418" lon="6.8227479"><ele>211.0</ele><time>2026-04-12T09:38:10.881Z</time></trkpt><trkpt lat="43.5847278" lon="6.8228419"><ele>211.0</ele><time>2026-04-12T09:38:12.881Z</time></trkpt><trkpt lat="43.5847387" lon="6.8229356"><ele>211.0</ele><time>2026-04-12T09:38:14.877Z</time></trkpt><trkpt lat="43.5847508" lon="6.8230353"><ele>210.16666666666666</ele><time>2026-04-12T09:38:16.876Z</time></trkpt><trkpt lat="43.584755" lon="6.8231377"><ele>209.33333333333331</ele><time>2026-04-12T09:38:18.863Z</time></trkpt><trkpt lat="43.5847439" lon="6.8232393"><ele>208.5</ele><time>2026-04-12T09:38:20.879Z</time></trkpt><trkpt lat="43.5847324" lon="6.8233485"><ele>207.66666666666669</ele><time>2026-04-12T09:38:22.879Z</time></trkpt><trkpt lat="43.5847186" lon="6.823474"><ele>206.83333333333334</ele><time>2026-04-12T09:38:24.869Z</time></trkpt><trkpt lat="43.5846947" lon="6.823579"><ele>206.0</ele><time>2026-04-12T09:38:26.869Z</time></trkpt><trkpt lat="43.5846603" lon="6.8236709"><ele>206.00000000000003</ele><time>2026-04-12T09:38:28.873Z</time></trkpt><trkpt lat="43.5846165" lon="6.823755"><ele>206.0</ele><time>2026-04-12T09:38:30.867Z</time></trkpt><trkpt lat="43.5845639" lon="6.8238284"><ele>206.0</ele><time>2026-04-12T09:38:32.891Z</time></trkpt><trkpt lat="43.5844936" lon="6.8238445"><ele>206.0</ele><time>2026-04-12T09:38:34.836Z</time></trkpt><trkpt lat="43.5844276" lon="6.8238107"><ele>206.00000000000003</ele><time>2026-04-12T09:38:36.826Z</time></trkpt><trkpt lat="43.584374" lon="6.8237376"><ele>206.0</ele><time>2026-04-12T09:38:38.86Z</time></trkpt><trkpt lat="43.5843098" lon="6.8236486"><ele>206.0</ele><time>2026-04-12T09:38:40.852Z</time></trkpt><trkpt lat="43.5842387" lon="6.8235836"><ele>206.0</ele><time>2026-04-12T09:38:42.855Z</time></trkpt><trkpt lat="43.5841716" lon="6.8235106"><ele>206.0</ele><time>2026-04-12T09:38:44.861Z</time></trkpt><trkpt lat="43.5840904" lon="6.8234459"><ele>206.0</ele><time>2026-04-12T09:38:46.861Z</time></trkpt><trkpt lat="43.5839897" lon="6.8233806"><ele>206.0</ele><time>2026-04-12T09:38:48.873Z</time></trkpt><trkpt lat="43.5838755" lon="6.8233545"><ele>208.33333333333334</ele><time>2026-04-12T09:38:50.825Z</time></trkpt><trkpt lat="43.5837475" lon="6.823352"><ele>210.66666666666669</ele><time>2026-04-12T09:38:52.916Z</time></trkpt><trkpt lat="43.5836764" lon="6.8233581"><ele>213.0</ele><time>2026-04-12T09:38:53.869Z</time></trkpt><trkpt lat="43.5836048" lon="6.8233616"><ele>215.33333333333331</ele><time>2026-04-12T09:38:54.893Z</time></trkpt><trkpt lat="43.5835268" lon="6.823364"><ele>217.66666666666666</ele><time>2026-04-12T09:38:55.875Z</time></trkpt><trkpt lat="43.5834541" lon="6.8233733"><ele>220.0</ele><time>2026-04-12T09:38:56.877Z</time></trkpt><trkpt lat="43.5833785" lon="6.8233783"><ele>220.33333333333331</ele><time>2026-04-12T09:38:57.872Z</time></trkpt><trkpt lat="43.5832979" lon="6.8233787"><ele>220.66666666666666</ele><time>2026-04-12T09:38:58.867Z</time></trkpt><trkpt lat="43.583219" lon="6.8233863"><ele>221.0</ele><time>2026-04-12T09:38:59.88Z</time></trkpt><trkpt lat="43.5831401" lon="6.8234076"><ele>221.33333333333331</ele><time>2026-04-12T09:39:00.885Z</time></trkpt><trkpt lat="43.58306" lon="6.8234474"><ele>221.66666666666666</ele><time>2026-04-12T09:39:01.894Z</time></trkpt><trkpt lat="43.5829745" lon="6.8234775"><ele>222.0</ele><time>2026-04-12T09:39:02.881Z</time></trkpt><trkpt lat="43.5828882" lon="6.8235003"><ele>218.33333333333334</ele><time>2026-04-12T09:39:03.875Z</time></trkpt><trkpt lat="43.5827984" lon="6.8235132"><ele>214.66666666666669</ele><time>2026-04-12T09:39:04.877Z</time></trkpt><trkpt lat="43.5827209" lon="6.8235459"><ele>211.0</ele><time>2026-04-12T09:39:05.849Z</time></trkpt><trkpt lat="43.5826415" lon="6.8236032"><ele>207.33333333333334</ele><time>2026-04-12T09:39:06.887Z</time></trkpt><trkpt lat="43.5825752" lon="6.8236682"><ele>203.66666666666669</ele><time>2026-04-12T09:39:07.899Z</time></trkpt><trkpt lat="43.5825016" lon="6.8237306"><ele>200.0</ele><time>2026-04-12T09:39:08.883Z</time></trkpt><trkpt lat="43.5824242" lon="6.8237926"><ele>200.00000000000003</ele><time>2026-04-12T09:39:09.856Z</time></trkpt><trkpt lat="43.5823429" lon="6.8238505"><ele>200.0</ele><time>2026-04-12T09:39:10.86Z</time></trkpt><trkpt lat="43.5822634" lon="6.8239013"><ele>200.0</ele><time>2026-04-12T09:39:11.883Z</time></trkpt><trkpt lat="43.5821832" lon="6.8239499"><ele>200.0</ele><time>2026-04-12T09:39:12.864Z</time></trkpt><trkpt lat="43.5821022" lon="6.8240019"><ele>200.00000000000003</ele><time>2026-04-12T09:39:13.862Z</time></trkpt><trkpt lat="43.5820229" lon="6.8240428"><ele>200.0</ele><time>2026-04-12T09:39:14.871Z</time></trkpt><trkpt lat="43.5819381" lon="6.8240854"><ele>200.50000000000003</ele><time>2026-04-12T09:39:15.885Z</time></trkpt><trkpt lat="43.5818492" lon="6.8241224"><ele>201.0</ele><time>2026-04-12T09:39:16.89Z</time></trkpt><trkpt lat="43.5817569" lon="6.824138"><ele>201.5</ele><time>2026-04-12T09:39:17.877Z</time></trkpt><trkpt lat="43.5816718" lon="6.824103"><ele>202.0</ele><time>2026-04-12T09:39:18.89Z</time></trkpt><trkpt lat="43.5816099" lon="6.8240333"><ele>202.50000000000003</ele><time>2026-04-12T09:39:19.897Z</time></trkpt><trkpt lat="43.5815755" lon="6.8239318"><ele>203.0</ele><time>2026-04-12T09:39:20.868Z</time></trkpt><trkpt lat="43.5815576" lon="6.8238141"><ele>203.0</ele><time>2026-04-12T09:39:21.891Z</time></trkpt><trkpt lat="43.5815482" lon="6.8236904"><ele>203.0</ele><time>2026-04-12T09:39:22.868Z</time></trkpt><trkpt lat="43.5815354" lon="6.8235577"><ele>203.0</ele><time>2026-04-12T09:39:23.866Z</time></trkpt><trkpt lat="43.581525" lon="6.8234235"><ele>203.0</ele><time>2026-04-12T09:39:24.879Z</time></trkpt><trkpt lat="43.5815302" lon="6.8232865"><ele>203.0</ele><time>2026-04-12T09:39:25.858Z</time></trkpt><trkpt lat="43.5815544" lon="6.8231504"><ele>204.16666666666669</ele><time>2026-04-12T09:39:26.89Z</time></trkpt><trkpt lat="43.5816007" lon="6.8230252"><ele>205.33333333333334</ele><time>2026-04-12T09:39:27.872Z</time></trkpt><trkpt lat="43.5816552" lon="6.822918"><ele>206.5</ele><time>2026-04-12T09:39:28.862Z</time></trkpt><trkpt lat="43.5817032" lon="6.8228308"><ele>207.66666666666669</ele><time>2026-04-12T09:39:29.866Z</time></trkpt><trkpt lat="43.5817184" lon="6.8227188"><ele>208.83333333333334</ele><time>2026-04-12T09:39:30.871Z</time></trkpt><trkpt lat="43.5816959" lon="6.8226043"><ele>210.0</ele><time>2026-04-12T09:39:31.855Z</time></trkpt><trkpt lat="43.5816285" lon="6.8225451"><ele>210.66666666666666</ele><time>2026-04-12T09:39:32.855Z</time></trkpt><trkpt lat="43.5815483" lon="6.822531"><ele>211.33333333333331</ele><time>2026-04-12T09:39:33.864Z</time></trkpt><trkpt lat="43.5814622" lon="6.8225202"><ele>212.0</ele><time>2026-04-12T09:39:34.844Z</time></trkpt><trkpt lat="43.5813703" lon="6.8225343"><ele>212.66666666666666</ele><time>2026-04-12T09:39:35.83Z</time></trkpt><trkpt lat="43.5812651" lon="6.8225418"><ele>213.33333333333331</ele><time>2026-04-12T09:39:36.85Z</time></trkpt><trkpt lat="43.5811878" lon="6.822572"><ele>214.0</ele><time>2026-04-12T09:39:37.861Z</time></trkpt><trkpt lat="43.5811026" lon="6.8225964"><ele>212.39999999999998</ele><time>2026-04-12T09:39:38.862Z</time></trkpt><trkpt lat="43.5809866" lon="6.8225886"><ele>210.79999999999998</ele><time>2026-04-12T09:39:39.854Z</time></trkpt><trkpt lat="43.5808767" lon="6.822539"><ele>209.2</ele><time>2026-04-12T09:39:40.832Z</time></trkpt><trkpt lat="43.5807839" lon="6.8224996"><ele>207.60000000000002</ele><time>2026-04-12T09:39:41.838Z</time></trkpt><trkpt lat="43.5806891" lon="6.8224585"><ele>206.0</ele><time>2026-04-12T09:39:42.825Z</time></trkpt><trkpt lat="43.5805919" lon="6.8224095"><ele>206.0</ele><time>2026-04-12T09:39:43.827Z</time></trkpt><trkpt lat="43.5805192" lon="6.8223411"><ele>206.0</ele><time>2026-04-12T09:39:44.862Z</time></trkpt><trkpt lat="43.580471" lon="6.8222389"><ele>206.0</ele><time>2026-04-12T09:39:45.881Z</time></trkpt><trkpt lat="43.5803938" lon="6.8221649"><ele>206.0</ele><time>2026-04-12T09:39:46.874Z</time></trkpt><trkpt lat="43.5803007" lon="6.8221167"><ele>206.0</ele><time>2026-04-12T09:39:47.876Z</time></trkpt><trkpt lat="43.5802016" lon="6.822061"><ele>204.8</ele><time>2026-04-12T09:39:48.86Z</time></trkpt><trkpt lat="43.5801041" lon="6.8220182"><ele>203.60000000000002</ele><time>2026-04-12T09:39:49.836Z</time></trkpt><trkpt lat="43.5799988" lon="6.821979"><ele>202.4</ele><time>2026-04-12T09:39:50.865Z</time></trkpt><trkpt lat="43.5799019" lon="6.821941"><ele>201.2</ele><time>2026-04-12T09:39:51.868Z</time></trkpt><trkpt lat="43.5798102" lon="6.8219028"><ele>200.0</ele><time>2026-04-12T09:39:52.87Z</time></trkpt><trkpt lat="43.5797166" lon="6.8218728"><ele>200.00000000000003</ele><time>2026-04-12T09:39:53.825Z</time></trkpt><trkpt lat="43.5796311" lon="6.8218343"><ele>200.0</ele><time>2026-04-12T09:39:54.858Z</time></trkpt><trkpt lat="43.5795636" lon="6.8217983"><ele>200.0</ele><time>2026-04-12T09:39:55.861Z</time></trkpt><trkpt lat="43.5795042" lon="6.8217592"><ele>200.0</ele><time>2026-04-12T09:39:56.882Z</time></trkpt><trkpt lat="43.5794434" lon="6.8217252"><ele>200.00000000000003</ele><time>2026-04-12T09:39:57.864Z</time></trkpt><trkpt lat="43.5793827" lon="6.8216885"><ele>200.0</ele><time>2026-04-12T09:39:58.87Z</time></trkpt><trkpt lat="43.579262" lon="6.8216854"><ele>200.33333333333334</ele><time>2026-04-12T09:40:00.873Z</time></trkpt><trkpt lat="43.5791931" lon="6.8217515"><ele>200.66666666666669</ele><time>2026-04-12T09:40:01.825Z</time></trkpt><trkpt lat="43.5791371" lon="6.8218367"><ele>201.0</ele><time>2026-04-12T09:40:02.882Z</time></trkpt><trkpt lat="43.5790989" lon="6.8219372"><ele>201.33333333333331</ele><time>2026-04-12T09:40:03.886Z</time></trkpt><trkpt lat="43.5790689" lon="6.8220465"><ele>201.66666666666666</ele><time>2026-04-12T09:40:04.866Z</time></trkpt><trkpt lat="43.5790441" lon="6.8221448"><ele>202.0</ele><time>2026-04-12T09:40:05.876Z</time></trkpt><trkpt lat="43.5790251" lon="6.8222452"><ele>201.99999999999997</ele><time>2026-04-12T09:40:06.868Z</time></trkpt><trkpt lat="43.5790228" lon="6.822342"><ele>202.0</ele><time>2026-04-12T09:40:07.88Z</time></trkpt><trkpt lat="43.5790238" lon="6.8224397"><ele>202.0</ele><time>2026-04-12T09:40:08.884Z</time></trkpt><trkpt lat="43.579039" lon="6.8225329"><ele>202.0</ele><time>2026-04-12T09:40:09.891Z</time></trkpt><trkpt lat="43.5790699" lon="6.8226166"><ele>201.99999999999997</ele><time>2026-04-12T09:40:10.888Z</time></trkpt><trkpt lat="43.5791067" lon="6.8226896"><ele>202.0</ele><time>2026-04-12T09:40:11.833Z</time></trkpt><trkpt lat="43.5792004" lon="6.8227792"><ele>202.39999999999998</ele><time>2026-04-12T09:40:13.891Z</time></trkpt><trkpt lat="43.5793075" lon="6.8228347"><ele>202.79999999999998</ele><time>2026-04-12T09:40:15.829Z</time></trkpt><trkpt lat="43.5794125" lon="6.8228701"><ele>203.2</ele><time>2026-04-12T09:40:17.894Z</time></trkpt><trkpt lat="43.5795093" lon="6.8229118"><ele>203.6</ele><time>2026-04-12T09:40:19.883Z</time></trkpt><trkpt lat="43.5796046" lon="6.8229358"><ele>204.0</ele><time>2026-04-12T09:40:21.884Z</time></trkpt><trkpt lat="43.5797032" lon="6.8229546"><ele>204.0</ele><time>2026-04-12T09:40:23.875Z</time></trkpt><trkpt lat="43.5797956" lon="6.8229829"><ele>204.0</ele><time>2026-04-12T09:40:25.869Z</time></trkpt><trkpt lat="43.5798718" lon="6.8230295"><ele>204.0</ele><time>2026-04-12T09:40:27.827Z</time></trkpt><trkpt lat="43.579953" lon="6.8230869"><ele>204.0</ele><time>2026-04-12T09:40:29.884Z</time></trkpt><trkpt lat="43.5799822" lon="6.8231835"><ele>204.0</ele><time>2026-04-12T09:40:31.895Z</time></trkpt><trkpt lat="43.5799513" lon="6.8232672"><ele>204.0</ele><time>2026-04-12T09:40:33.882Z</time></trkpt><trkpt lat="43.5799133" lon="6.8233429"><ele>204.0</ele><time>2026-04-12T09:40:35.889Z</time></trkpt><trkpt lat="43.5798654" lon="6.8234173"><ele>204.0</ele><time>2026-04-12T09:40:37.876Z</time></trkpt><trkpt lat="43.5798169" lon="6.8234888"><ele>204.0</ele><time>2026-04-12T09:40:39.886Z</time></trkpt><trkpt lat="43.5797725" lon="6.8235655"><ele>204.0</ele><time>2026-04-12T09:40:41.88Z</time></trkpt><trkpt lat="43.579733" lon="6.8236446"><ele>204.0</ele><time>2026-04-12T09:40:43.873Z</time></trkpt><trkpt lat="43.5796923" lon="6.8237213"><ele>204.0</ele><time>2026-04-12T09:40:45.858Z</time></trkpt><trkpt lat="43.5796495" lon="6.8238036"><ele>204.0</ele><time>2026-04-12T09:40:47.878Z</time></trkpt><trkpt lat="43.5796178" lon="6.8238833"><ele>205.28571428571428</ele><time>2026-04-12T09:40:49.863Z</time></trkpt><trkpt lat="43.5796138" lon="6.8240079"><ele>206.57142857142858</ele><time>2026-04-12T09:40:52.875Z</time></trkpt><trkpt lat="43.5796484" lon="6.8240881"><ele>207.85714285714283</ele><time>2026-04-12T09:40:54.898Z</time></trkpt><trkpt lat="43.5796855" lon="6.8241659"><ele>209.14285714285714</ele><time>2026-04-12T09:40:56.87Z</time></trkpt><trkpt lat="43.5797246" lon="6.824243"><ele>210.42857142857142</ele><time>2026-04-12T09:40:58.862Z</time></trkpt><trkpt lat="43.5797545" lon="6.8243202"><ele>211.7142857142857</ele><time>2026-04-12T09:41:00.875Z</time></trkpt><trkpt lat="43.5797916" lon="6.8244071"><ele>213.0</ele><time>2026-04-12T09:41:02.884Z</time></trkpt><trkpt lat="43.5798558" lon="6.8244509"><ele>212.99999999999997</ele><time>2026-04-12T09:41:04.866Z</time></trkpt><trkpt lat="43.5799275" lon="6.824469"><ele>213.0</ele><time>2026-04-12T09:41:06.863Z</time></trkpt><trkpt lat="43.5799927" lon="6.824442"><ele>213.0</ele><time>2026-04-12T09:41:08.861Z</time></trkpt><trkpt lat="43.5800542" lon="6.8243996"><ele>213.0</ele><time>2026-04-12T09:41:10.887Z</time></trkpt><trkpt lat="43.5801108" lon="6.8243452"><ele>213.0</ele><time>2026-04-12T09:41:12.875Z</time></trkpt><trkpt lat="43.5801702" lon="6.8243073"><ele>212.99999999999997</ele><time>2026-04-12T09:41:14.885Z</time></trkpt><trkpt lat="43.5802367" lon="6.8242977"><ele>213.0</ele><time>2026-04-12T09:41:16.862Z</time></trkpt><trkpt lat="43.5803025" lon="6.8243052"><ele>214.0</ele><time>2026-04-12T09:41:18.861Z</time></trkpt><trkpt lat="43.580381" lon="6.8243646"><ele>215.0</ele><time>2026-04-12T09:41:21.867Z</time></trkpt><trkpt lat="43.5804451" lon="6.824449"><ele>216.0</ele><time>2026-04-12T09:41:24.864Z</time></trkpt><trkpt lat="43.5804871" lon="6.8245626"><ele>217.0</ele><time>2026-04-12T09:41:27.883Z</time></trkpt><trkpt lat="43.5805255" lon="6.8246599"><ele>218.0</ele><time>2026-04-12T09:41:30.843Z</time></trkpt><trkpt lat="43.5805601" lon="6.8247741"><ele>219.0</ele><time>2026-04-12T09:41:33.89Z</time></trkpt><trkpt lat="43.5805897" lon="6.8248884"><ele>219.0</ele><time>2026-04-12T09:41:36.889Z</time></trkpt><trkpt lat="43.5806122" lon="6.8250077"><ele>219.0</ele><time>2026-04-12T09:41:39.86Z</time></trkpt><trkpt lat="43.5806442" lon="6.8251178"><ele>219.0</ele><time>2026-04-12T09:41:42.844Z</time></trkpt><trkpt lat="43.5806891" lon="6.8252268"><ele>219.0</ele><time>2026-04-12T09:41:45.88Z</time></trkpt><trkpt lat="43.5807533" lon="6.8253246"><ele>219.0</ele><time>2026-04-12T09:41:48.871Z</time></trkpt><trkpt lat="43.5808088" lon="6.8253857"><ele>219.0</ele><time>2026-04-12T09:41:50.88Z</time></trkpt><trkpt lat="43.5808752" lon="6.8254682"><ele>218.33333333333334</ele><time>2026-04-12T09:41:53.874Z</time></trkpt><trkpt lat="43.5809334" lon="6.8255417"><ele>217.66666666666669</ele><time>2026-04-12T09:41:56.864Z</time></trkpt><trkpt lat="43.5810087" lon="6.8256035"><ele>217.0</ele><time>2026-04-12T09:41:59.883Z</time></trkpt><trkpt lat="43.5810797" lon="6.8256752"><ele>216.33333333333334</ele><time>2026-04-12T09:42:02.886Z</time></trkpt><trkpt lat="43.581151" lon="6.8257345"><ele>215.66666666666669</ele><time>2026-04-12T09:42:05.895Z</time></trkpt><trkpt lat="43.5812156" lon="6.8258018"><ele>215.0</ele><time>2026-04-12T09:42:08.853Z</time></trkpt><trkpt lat="43.581266" lon="6.8258654"><ele>215.00000000000003</ele><time>2026-04-12T09:42:10.867Z</time></trkpt><trkpt lat="43.5813118" lon="6.8259724"><ele>215.0</ele><time>2026-04-12T09:42:13.855Z</time></trkpt><trkpt lat="43.5813269" lon="6.8260862"><ele>215.0</ele><time>2026-04-12T09:42:16.868Z</time></trkpt><trkpt lat="43.5813209" lon="6.8261763"><ele>215.0</ele><time>2026-04-12T09:42:19.873Z</time></trkpt><trkpt lat="43.5812708" lon="6.8262845"><ele>215.00000000000003</ele><time>2026-04-12T09:42:22.86Z</time></trkpt><trkpt lat="43.5812223" lon="6.8263939"><ele>215.0</ele><time>2026-04-12T09:42:25.878Z</time></trkpt><trkpt lat="43.5812022" lon="6.8264973"><ele>215.50000000000003</ele><time>2026-04-12T09:42:28.827Z</time></trkpt><trkpt lat="43.5812282" lon="6.826599"><ele>216.0</ele><time>2026-04-12T09:42:31.898Z</time></trkpt><trkpt lat="43.581264" lon="6.8267176"><ele>216.5</ele><time>2026-04-12T09:42:34.854Z</time></trkpt><trkpt lat="43.5812905" lon="6.8268201"><ele>217.0</ele><time>2026-04-12T09:42:37.888Z</time></trkpt><trkpt lat="43.5813108" lon="6.8269385"><ele>217.50000000000003</ele><time>2026-04-12T09:42:40.871Z</time></trkpt><trkpt lat="43.5813049" lon="6.8270451"><ele>218.0</ele><time>2026-04-12T09:42:43.855Z</time></trkpt><trkpt lat="43.5812763" lon="6.8271574"><ele>218.66666666666669</ele><time>2026-04-12T09:42:46.883Z</time></trkpt><trkpt lat="43.5812426" lon="6.8272679"><ele>219.33333333333334</ele><time>2026-04-12T09:42:49.86Z</time></trkpt><trkpt lat="43.5812" lon="6.827374"><ele>220.0</ele><time>2026-04-12T09:42:52.866Z</time></trkpt><trkpt lat="43.581168" lon="6.8274915"><ele>220.66666666666669</ele><time>2026-04-12T09:42:55.847Z</time></trkpt><trkpt lat="43.5811596" lon="6.827609"><ele>221.33333333333334</ele><time>2026-04-12T09:42:58.866Z</time></trkpt><trkpt lat="43.5811794" lon="6.827717"><ele>222.0</ele><time>2026-04-12T09:43:01.861Z</time></trkpt><trkpt lat="43.5811883" lon="6.8278091"><ele>224.5</ele><time>2026-04-12T09:43:03.863Z</time></trkpt><trkpt lat="43.5812001" lon="6.8279031"><ele>227.0</ele><time>2026-04-12T09:43:05.848Z</time></trkpt><trkpt lat="43.5812114" lon="6.8280201"><ele>229.5</ele><time>2026-04-12T09:43:08.87Z</time></trkpt><trkpt lat="43.5812284" lon="6.8281409"><ele>232.0</ele><time>2026-04-12T09:43:11.858Z</time></trkpt><trkpt lat="43.581251" lon="6.8282644"><ele>234.5</ele><time>2026-04-12T09:43:14.832Z</time></trkpt><trkpt lat="43.5812718" lon="6.8283516"><ele>237.0</ele><time>2026-04-12T09:43:16.883Z</time></trkpt><trkpt lat="43.5812948" lon="6.8284387"><ele>240.28571428571425</ele><time>2026-04-12T09:43:18.88Z</time></trkpt><trkpt lat="43.5813253" lon="6.8285186"><ele>243.57142857142856</ele><time>2026-04-12T09:43:20.86Z</time></trkpt><trkpt lat="43.5813599" lon="6.8285942"><ele>246.85714285714286</ele><time>2026-04-12T09:43:22.869Z</time></trkpt><trkpt lat="43.581402" lon="6.8286653"><ele>250.14285714285714</ele><time>2026-04-12T09:43:24.874Z</time></trkpt><trkpt lat="43.5814467" lon="6.8287343"><ele>253.42857142857144</ele><time>2026-04-12T09:43:26.876Z</time></trkpt><trkpt lat="43.5814965" lon="6.8287895"><ele>256.7142857142857</ele><time>2026-04-12T09:43:28.889Z</time></trkpt><trkpt lat="43.5815636" lon="6.8288285"><ele>260.0</ele><time>2026-04-12T09:43:30.893Z</time></trkpt><trkpt lat="43.5816287" lon="6.8288653"><ele>260.00000000000006</ele><time>2026-04-12T09:43:32.873Z</time></trkpt><trkpt lat="43.5816913" lon="6.8288906"><ele>260.0</ele><time>2026-04-12T09:43:34.876Z</time></trkpt><trkpt lat="43.5817602" lon="6.8289166"><ele>260.0</ele><time>2026-04-12T09:43:36.843Z</time></trkpt><trkpt lat="43.5818324" lon="6.8289396"><ele>260.0</ele><time>2026-04-12T09:43:38.877Z</time></trkpt><trkpt lat="43.5819039" lon="6.8289575"><ele>260.0</ele><time>2026-04-12T09:43:40.876Z</time></trkpt><trkpt lat="43.5819789" lon="6.8289781"><ele>260.00000000000006</ele><time>2026-04-12T09:43:42.876Z</time></trkpt><trkpt lat="43.5820476" lon="6.8289942"><ele>260.0</ele><time>2026-04-12T09:43:44.881Z</time></trkpt><trkpt lat="43.5821143" lon="6.8290136"><ele>258.0</ele><time>2026-04-12T09:43:46.88Z</time></trkpt><trkpt lat="43.5821797" lon="6.8290329"><ele>256.0</ele><time>2026-04-12T09:43:48.841Z</time></trkpt><trkpt lat="43.5822486" lon="6.8290502"><ele>254.0</ele><time>2026-04-12T09:43:50.866Z</time></trkpt><trkpt lat="43.5823142" lon="6.8290635"><ele>252.0</ele><time>2026-04-12T09:43:52.875Z</time></trkpt><trkpt lat="43.5824011" lon="6.8291031"><ele>250.00000000000003</ele><time>2026-04-12T09:43:55.853Z</time></trkpt><trkpt lat="43.5824757" lon="6.8291562"><ele>248.0</ele><time>2026-04-12T09:43:58.878Z</time></trkpt><trkpt lat="43.5825542" lon="6.8292029"><ele>248.00000000000003</ele><time>2026-04-12T09:44:01.864Z</time></trkpt><trkpt lat="43.5826267" lon="6.8292526"><ele>248.0</ele><time>2026-04-12T09:44:04.825Z</time></trkpt><trkpt lat="43.5826999" lon="6.8293041"><ele>248.0</ele><time>2026-04-12T09:44:07.875Z</time></trkpt><trkpt lat="43.5827673" lon="6.8293882"><ele>248.0</ele><time>2026-04-12T09:44:10.879Z</time></trkpt><trkpt lat="43.5828115" lon="6.8294823"><ele>248.00000000000003</ele><time>2026-04-12T09:44:13.864Z</time></trkpt><trkpt lat="43.5828329" lon="6.82958"><ele>248.0</ele><time>2026-04-12T09:44:16.867Z</time></trkpt><trkpt lat="43.58285" lon="6.8296761"><ele>247.71428571428572</ele><time>2026-04-12T09:44:19.873Z</time></trkpt><trkpt lat="43.5828521" lon="6.829765"><ele>247.42857142857144</ele><time>2026-04-12T09:44:22.864Z</time></trkpt><trkpt lat="43.5828653" lon="6.8298594"><ele>247.14285714285717</ele><time>2026-04-12T09:44:25.857Z</time></trkpt><trkpt lat="43.5828685" lon="6.8299786"><ele>246.8571428571429</ele><time>2026-04-12T09:44:28.869Z</time></trkpt><trkpt lat="43.5828714" lon="6.8300707"><ele>246.57142857142858</ele><time>2026-04-12T09:44:31.878Z</time></trkpt><trkpt lat="43.5828711" lon="6.8301743"><ele>246.28571428571433</ele><time>2026-04-12T09:44:34.889Z</time></trkpt><trkpt lat="43.5828765" lon="6.8302845"><ele>246.00000000000003</ele><time>2026-04-12T09:44:37.834Z</time></trkpt><trkpt lat="43.582869" lon="6.8304105"><ele>249.0</ele><time>2026-04-12T09:44:40.867Z</time></trkpt><trkpt lat="43.5828444" lon="6.8305193"><ele>252.0</ele><time>2026-04-12T09:44:43.864Z</time></trkpt><trkpt lat="43.5828291" lon="6.8306313"><ele>255.0</ele><time>2026-04-12T09:44:46.834Z</time></trkpt><trkpt lat="43.5827931" lon="6.8307256"><ele>258.0</ele><time>2026-04-12T09:44:49.881Z</time></trkpt><trkpt lat="43.5827406" lon="6.8308148"><ele>261.0</ele><time>2026-04-12T09:44:52.849Z</time></trkpt><trkpt lat="43.5826755" lon="6.830908"><ele>264.0</ele><time>2026-04-12T09:44:55.89Z</time></trkpt><trkpt lat="43.5826102" lon="6.8309871"><ele>264.0</ele><time>2026-04-12T09:44:58.861Z</time></trkpt><trkpt lat="43.5825403" lon="6.831043"><ele>264.0</ele><time>2026-04-12T09:45:01.872Z</time></trkpt><trkpt lat="43.5824731" lon="6.8310925"><ele>264.0</ele><time>2026-04-12T09:45:04.875Z</time></trkpt><trkpt lat="43.5824049" lon="6.8311538"><ele>264.0</ele><time>2026-04-12T09:45:07.872Z</time></trkpt><trkpt lat="43.5823372" lon="6.8312148"><ele>264.0</ele><time>2026-04-12T09:45:10.889Z</time></trkpt><trkpt lat="43.5822706" lon="6.8312664"><ele>264.0</ele><time>2026-04-12T09:45:13.886Z</time></trkpt><trkpt lat="43.5822081" lon="6.8313333"><ele>264.0</ele><time>2026-04-12T09:45:16.86Z</time></trkpt><trkpt lat="43.5821626" lon="6.8313943"><ele>264.0</ele><time>2026-04-12T09:45:18.869Z</time></trkpt><trkpt lat="43.582137" lon="6.8314968"><ele>264.0</ele><time>2026-04-12T09:45:21.849Z</time></trkpt><trkpt lat="43.5821378" lon="6.8316185"><ele>264.0</ele><time>2026-04-12T09:45:24.872Z</time></trkpt><trkpt lat="43.5821438" lon="6.8317353"><ele>264.0</ele><time>2026-04-12T09:45:27.872Z</time></trkpt><trkpt lat="43.5821664" lon="6.8318337"><ele>264.0</ele><time>2026-04-12T09:45:30.859Z</time></trkpt><trkpt lat="43.5821873" lon="6.8319481"><ele>265.1666666666667</ele><time>2026-04-12T09:45:33.878Z</time></trkpt><trkpt lat="43.5822071" lon="6.8320589"><ele>266.3333333333333</ele><time>2026-04-12T09:45:36.868Z</time></trkpt><trkpt lat="43.5822216" lon="6.8321742"><ele>267.5</ele><time>2026-04-12T09:45:39.867Z</time></trkpt><trkpt lat="43.5822421" lon="6.8322943"><ele>268.66666666666663</ele><time>2026-04-12T09:45:42.88Z</time></trkpt><trkpt lat="43.5822504" lon="6.8324209"><ele>269.8333333333333</ele><time>2026-04-12T09:45:45.857Z</time></trkpt><trkpt lat="43.58226" lon="6.8325469"><ele>271.0</ele><time>2026-04-12T09:45:48.835Z</time></trkpt><trkpt lat="43.5822796" lon="6.8326491"><ele>272.5</ele><time>2026-04-12T09:45:51.884Z</time></trkpt><trkpt lat="43.5823366" lon="6.8327489"><ele>274.0</ele><time>2026-04-12T09:45:54.87Z</time></trkpt><trkpt lat="43.5823986" lon="6.8328014"><ele>275.5</ele><time>2026-04-12T09:45:56.873Z</time></trkpt><trkpt lat="43.5824638" lon="6.8328224"><ele>277.0</ele><time>2026-04-12T09:45:58.864Z</time></trkpt><trkpt lat="43.582551" lon="6.8328266"><ele>278.5</ele><time>2026-04-12T09:46:01.867Z</time></trkpt><trkpt lat="43.5826349" lon="6.8328375"><ele>280.0</ele><time>2026-04-12T09:46:04.902Z</time></trkpt><trkpt lat="43.5827185" lon="6.8328661"><ele>280.0</ele><time>2026-04-12T09:46:07.866Z</time></trkpt><trkpt lat="43.5827774" lon="6.8329071"><ele>280.0</ele><time>2026-04-12T09:46:09.857Z</time></trkpt><trkpt lat="43.5828419" lon="6.8329846"><ele>280.0</ele><time>2026-04-12T09:46:12.883Z</time></trkpt><trkpt lat="43.5828932" lon="6.8330849"><ele>280.0</ele><time>2026-04-12T09:46:15.858Z</time></trkpt><trkpt lat="43.5829482" lon="6.8331719"><ele>280.0</ele><time>2026-04-12T09:46:18.864Z</time></trkpt><trkpt lat="43.5830004" lon="6.8332668"><ele>280.0</ele><time>2026-04-12T09:46:21.856Z</time></trkpt><trkpt lat="43.583042" lon="6.8333747"><ele>280.0</ele><time>2026-04-12T09:46:24.845Z</time></trkpt><trkpt lat="43.5830735" lon="6.8334787"><ele>280.0</ele><time>2026-04-12T09:46:27.877Z</time></trkpt><trkpt lat="43.5830887" lon="6.8335872"><ele>280.0</ele><time>2026-04-12T09:46:30.876Z</time></trkpt><trkpt lat="43.5831163" lon="6.8336792"><ele>280.0</ele><time>2026-04-12T09:46:32.866Z</time></trkpt><trkpt lat="43.5831302" lon="6.8337978"><ele>280.0</ele><time>2026-04-12T09:46:35.869Z</time></trkpt><trkpt lat="43.5831391" lon="6.8339238"><ele>280.0</ele><time>2026-04-12T09:46:38.872Z</time></trkpt><trkpt lat="43.5831412" lon="6.834028"><ele>280.0</ele><time>2026-04-12T09:46:41.896Z</time></trkpt><trkpt lat="43.5831463" lon="6.8341402"><ele>280.0</ele><time>2026-04-12T09:46:44.86Z</time></trkpt><trkpt lat="43.5831559" lon="6.8342502"><ele>280.0</ele><time>2026-04-12T09:46:47.869Z</time></trkpt><trkpt lat="43.5831784" lon="6.8343667"><ele>280.0</ele><time>2026-04-12T09:46:50.855Z</time></trkpt><trkpt lat="43.5831956" lon="6.8344603"><ele>280.0</ele><time>2026-04-12T09:46:52.88Z</time></trkpt><trkpt lat="43.5832195" lon="6.8345502"><ele>280.0</ele><time>2026-04-12T09:46:54.876Z</time></trkpt><trkpt lat="43.5832387" lon="6.8346348"><ele>280.7142857142857</ele><time>2026-04-12T09:46:56.877Z</time></trkpt><trkpt lat="43.5832678" lon="6.8347528"><ele>281.42857142857144</ele><time>2026-04-12T09:46:59.852Z</time></trkpt><trkpt lat="43.5832873" lon="6.8348416"><ele>282.1428571428571</ele><time>2026-04-12T09:47:01.867Z</time></trkpt><trkpt lat="43.5833091" lon="6.834924"><ele>282.8571428571429</ele><time>2026-04-12T09:47:03.946Z</time></trkpt><trkpt lat="43.5833332" lon="6.8350076"><ele>283.57142857142856</ele><time>2026-04-12T09:47:05.886Z</time></trkpt><trkpt lat="43.5833611" lon="6.8350857"><ele>284.2857142857143</ele><time>2026-04-12T09:47:07.87Z</time></trkpt><trkpt lat="43.5834011" lon="6.8351569"><ele>285.0</ele><time>2026-04-12T09:47:09.881Z</time></trkpt><trkpt lat="43.5834351" lon="6.8352314"><ele>285.1666666666667</ele><time>2026-04-12T09:47:11.861Z</time></trkpt><trkpt lat="43.5834955" lon="6.8353223"><ele>285.3333333333333</ele><time>2026-04-12T09:47:14.859Z</time></trkpt><trkpt lat="43.5835385" lon="6.8353897"><ele>285.5</ele><time>2026-04-12T09:47:16.899Z</time></trkpt><trkpt lat="43.5835959" lon="6.8354922"><ele>285.66666666666663</ele><time>2026-04-12T09:47:19.839Z</time></trkpt><trkpt lat="43.5836475" lon="6.8355911"><ele>285.8333333333333</ele><time>2026-04-12T09:47:22.831Z</time></trkpt><trkpt lat="43.5836983" lon="6.8357042"><ele>286.0</ele><time>2026-04-12T09:47:25.86Z</time></trkpt><trkpt lat="43.5837192" lon="6.8357924"><ele>286.8333333333333</ele><time>2026-04-12T09:47:27.826Z</time></trkpt><trkpt lat="43.5838041" lon="6.8358676"><ele>287.66666666666663</ele><time>2026-04-12T09:47:29.826Z</time></trkpt><trkpt lat="43.58385" lon="6.8359686"><ele>288.5</ele><time>2026-04-12T09:47:33.837Z</time></trkpt><trkpt lat="43.5838908" lon="6.8360667"><ele>289.3333333333333</ele><time>2026-04-12T09:47:36.852Z</time></trkpt><trkpt lat="43.5839483" lon="6.8361626"><ele>290.1666666666667</ele><time>2026-04-12T09:47:39.852Z</time></trkpt><trkpt lat="43.5840133" lon="6.8362404"><ele>291.0</ele><time>2026-04-12T09:47:42.847Z</time></trkpt><trkpt lat="43.5840691" lon="6.8363008"><ele>291.0</ele><time>2026-04-12T09:47:45.855Z</time></trkpt><trkpt lat="43.5841173" lon="6.8363754"><ele>291.0</ele><time>2026-04-12T09:47:48.866Z</time></trkpt><trkpt lat="43.5841776" lon="6.8364481"><ele>291.0</ele><time>2026-04-12T09:47:51.854Z</time></trkpt><trkpt lat="43.5842326" lon="6.8365204"><ele>291.0</ele><time>2026-04-12T09:47:54.854Z</time></trkpt><trkpt lat="43.5842847" lon="6.8366007"><ele>291.0</ele><time>2026-04-12T09:47:57.861Z</time></trkpt><trkpt lat="43.5843419" lon="6.8366696"><ele>291.0</ele><time>2026-04-12T09:48:00.863Z</time></trkpt><trkpt lat="43.584405" lon="6.836735"><ele>291.0</ele><time>2026-04-12T09:48:03.865Z</time></trkpt><trkpt lat="43.5844641" lon="6.8367748"><ele>291.0</ele><time>2026-04-12T09:48:05.881Z</time></trkpt><trkpt lat="43.5845419" lon="6.8368125"><ele>291.0</ele><time>2026-04-12T09:48:08.866Z</time></trkpt><trkpt lat="43.5846219" lon="6.83684"><ele>291.0</ele><time>2026-04-12T09:48:11.875Z</time></trkpt><trkpt lat="43.5846981" lon="6.8368498"><ele>291.0</ele><time>2026-04-12T09:48:14.844Z</time></trkpt><trkpt lat="43.5847881" lon="6.8368434"><ele>291.0</ele><time>2026-04-12T09:48:17.841Z</time></trkpt><trkpt lat="43.5848738" lon="6.8368517"><ele>291.1428571428571</ele><time>2026-04-12T09:48:20.855Z</time></trkpt><trkpt lat="43.584941" lon="6.8368571"><ele>291.2857142857143</ele><time>2026-04-12T09:48:22.875Z</time></trkpt><trkpt lat="43.5850155" lon="6.8368503"><ele>291.42857142857144</ele><time>2026-04-12T09:48:24.884Z</time></trkpt><trkpt lat="43.5850902" lon="6.8368647"><ele>291.57142857142856</ele><time>2026-04-12T09:48:27.859Z</time></trkpt><trkpt lat="43.5851775" lon="6.836879"><ele>291.7142857142857</ele><time>2026-04-12T09:48:30.873Z</time></trkpt><trkpt lat="43.5852384" lon="6.8369022"><ele>291.85714285714283</ele><time>2026-04-12T09:48:32.887Z</time></trkpt><trkpt lat="43.5852985" lon="6.8369464"><ele>292.0</ele><time>2026-04-12T09:48:34.885Z</time></trkpt><trkpt lat="43.5853572" lon="6.8370048"><ele>293.57142857142856</ele><time>2026-04-12T09:48:36.861Z</time></trkpt><trkpt lat="43.5854119" lon="6.8370591"><ele>295.14285714285717</ele><time>2026-04-12T09:48:38.837Z</time></trkpt><trkpt lat="43.5854535" lon="6.8371245"><ele>296.7142857142857</ele><time>2026-04-12T09:48:40.865Z</time></trkpt><trkpt lat="43.5854951" lon="6.8371954"><ele>298.2857142857143</ele><time>2026-04-12T09:48:42.874Z</time></trkpt><trkpt lat="43.5855493" lon="6.8372947"><ele>299.85714285714283</ele><time>2026-04-12T09:48:45.85Z</time></trkpt><trkpt lat="43.5855975" lon="6.8373975"><ele>301.42857142857144</ele><time>2026-04-12T09:48:48.859Z</time></trkpt><trkpt lat="43.5856296" lon="6.8374789"><ele>303.0</ele><time>2026-04-12T09:48:50.856Z</time></trkpt><trkpt lat="43.5856848" lon="6.8375784"><ele>303.1666666666667</ele><time>2026-04-12T09:48:53.868Z</time></trkpt><trkpt lat="43.5857198" lon="6.8376523"><ele>303.3333333333333</ele><time>2026-04-12T09:48:55.866Z</time></trkpt><trkpt lat="43.5857678" lon="6.8377619"><ele>303.5</ele><time>2026-04-12T09:48:58.89Z</time></trkpt><trkpt lat="43.5858153" lon="6.8378613"><ele>303.66666666666663</ele><time>2026-04-12T09:49:01.893Z</time></trkpt><trkpt lat="43.5858497" lon="6.8379556"><ele>303.8333333333333</ele><time>2026-04-12T09:49:04.881Z</time></trkpt><trkpt lat="43.5858888" lon="6.8380535"><ele>304.0</ele><time>2026-04-12T09:49:07.851Z</time></trkpt><trkpt lat="43.585928" lon="6.8381295"><ele>304.0</ele><time>2026-04-12T09:49:09.885Z</time></trkpt><trkpt lat="43.585963" lon="6.8382021"><ele>304.0</ele><time>2026-04-12T09:49:11.875Z</time></trkpt><trkpt lat="43.5860119" lon="6.8383013"><ele>304.0</ele><time>2026-04-12T09:49:14.88Z</time></trkpt><trkpt lat="43.586059" lon="6.8383986"><ele>304.0</ele><time>2026-04-12T09:49:17.882Z</time></trkpt><trkpt lat="43.5861119" lon="6.8384842"><ele>304.0</ele><time>2026-04-12T09:49:20.879Z</time></trkpt><trkpt lat="43.5861698" lon="6.8385742"><ele>304.0</ele><time>2026-04-12T09:49:23.867Z</time></trkpt><trkpt lat="43.5862192" lon="6.8386347"><ele>304.66666666666663</ele><time>2026-04-12T09:49:25.889Z</time></trkpt><trkpt lat="43.5863017" lon="6.8386876"><ele>305.3333333333333</ele><time>2026-04-12T09:49:28.862Z</time></trkpt><trkpt lat="43.5863645" lon="6.838724"><ele>306.0</ele><time>2026-04-12T09:49:31.863Z</time></trkpt><trkpt lat="43.5864295" lon="6.8387561"><ele>306.6666666666667</ele><time>2026-04-12T09:49:34.868Z</time></trkpt><trkpt lat="43.5865074" lon="6.8388054"><ele>307.33333333333337</ele><time>2026-04-12T09:49:37.883Z</time></trkpt><trkpt lat="43.5865872" lon="6.8388461"><ele>308.0</ele><time>2026-04-12T09:49:40.826Z</time></trkpt><trkpt lat="43.5866588" lon="6.8389061"><ele>308.0</ele><time>2026-04-12T09:49:43.876Z</time></trkpt><trkpt lat="43.5867313" lon="6.8389586"><ele>308.0</ele><time>2026-04-12T09:49:46.936Z</time></trkpt><trkpt lat="43.5868168" lon="6.8389945"><ele>308.0</ele><time>2026-04-12T09:49:49.849Z</time></trkpt><trkpt lat="43.5868783" lon="6.8390158"><ele>308.0</ele><time>2026-04-12T09:49:51.834Z</time></trkpt><trkpt lat="43.5869649" lon="6.8390542"><ele>308.0</ele><time>2026-04-12T09:49:54.883Z</time></trkpt><trkpt lat="43.58705" lon="6.8390849"><ele>308.0</ele><time>2026-04-12T09:49:57.879Z</time></trkpt><trkpt lat="43.5871304" lon="6.8391219"><ele>309.6666666666667</ele><time>2026-04-12T09:50:00.892Z</time></trkpt><trkpt lat="43.5871973" lon="6.839169"><ele>311.33333333333337</ele><time>2026-04-12T09:50:03.862Z</time></trkpt><trkpt lat="43.5872802" lon="6.8392084"><ele>313.0</ele><time>2026-04-12T09:50:06.876Z</time></trkpt><trkpt lat="43.5873463" lon="6.8392177"><ele>314.6666666666667</ele><time>2026-04-12T09:50:08.865Z</time></trkpt><trkpt lat="43.5874388" lon="6.8392252"><ele>316.3333333333333</ele><time>2026-04-12T09:50:11.874Z</time></trkpt><trkpt lat="43.5875256" lon="6.8392325"><ele>318.0</ele><time>2026-04-12T09:50:14.868Z</time></trkpt><trkpt lat="43.5876119" lon="6.8392466"><ele>318.0</ele><time>2026-04-12T09:50:17.843Z</time></trkpt><trkpt lat="43.5876996" lon="6.839267"><ele>318.0</ele><time>2026-04-12T09:50:20.882Z</time></trkpt><trkpt lat="43.5877847" lon="6.8392866"><ele>318.0</ele><time>2026-04-12T09:50:23.869Z</time></trkpt><trkpt lat="43.5878575" lon="6.8393094"><ele>318.0</ele><time>2026-04-12T09:50:26.9Z</time></trkpt><trkpt lat="43.587942" lon="6.8393347"><ele>318.0</ele><time>2026-04-12T09:50:29.873Z</time></trkpt><trkpt lat="43.5880247" lon="6.839357"><ele>318.0</ele><time>2026-04-12T09:50:32.88Z</time></trkpt><trkpt lat="43.5881083" lon="6.8393768"><ele>318.8333333333333</ele><time>2026-04-12T09:50:35.87Z</time></trkpt><trkpt lat="43.5881767" lon="6.8393793"><ele>319.6666666666667</ele><time>2026-04-12T09:50:38.861Z</time></trkpt><trkpt lat="43.5882598" lon="6.8394018"><ele>320.5</ele><time>2026-04-12T09:50:42.884Z</time></trkpt><trkpt lat="43.5883369" lon="6.8394529"><ele>321.33333333333337</ele><time>2026-04-12T09:50:46.88Z</time></trkpt><trkpt lat="43.5883978" lon="6.8394995"><ele>322.1666666666667</ele><time>2026-04-12T09:50:49.877Z</time></trkpt><trkpt lat="43.5884651" lon="6.8395789"><ele>323.0</ele><time>2026-04-12T09:50:52.874Z</time></trkpt><trkpt lat="43.5885059" lon="6.8396632"><ele>323.0</ele><time>2026-04-12T09:50:55.885Z</time></trkpt><trkpt lat="43.5885367" lon="6.8397569"><ele>323.0</ele><time>2026-04-12T09:50:58.834Z</time></trkpt><trkpt lat="43.5885699" lon="6.8398785"><ele>323.0</ele><time>2026-04-12T09:51:01.865Z</time></trkpt><trkpt lat="43.5885698" lon="6.8399709"><ele>323.0</ele><time>2026-04-12T09:51:03.883Z</time></trkpt><trkpt lat="43.588555" lon="6.8400905"><ele>323.0</ele><time>2026-04-12T09:51:06.866Z</time></trkpt><trkpt lat="43.5885201" lon="6.8401822"><ele>323.0</ele><time>2026-04-12T09:51:09.88Z</time></trkpt><trkpt lat="43.5884979" lon="6.8402679"><ele>323.00000000000006</ele><time>2026-04-12T09:51:12.861Z</time></trkpt><trkpt lat="43.5884754" lon="6.8403613"><ele>323.0</ele><time>2026-04-12T09:51:15.865Z</time></trkpt><trkpt lat="43.5884645" lon="6.840447"><ele>323.0</ele><time>2026-04-12T09:51:17.862Z</time></trkpt><trkpt lat="43.5884539" lon="6.8405343"><ele>323.0</ele><time>2026-04-12T09:51:19.866Z</time></trkpt><trkpt lat="43.588447" lon="6.8406228"><ele>323.0</ele><time>2026-04-12T09:51:21.859Z</time></trkpt><trkpt lat="43.5884383" lon="6.8407164"><ele>323.00000000000006</ele><time>2026-04-12T09:51:23.871Z</time></trkpt><trkpt lat="43.5884317" lon="6.8408133"><ele>323.0</ele><time>2026-04-12T09:51:25.89Z</time></trkpt><trkpt lat="43.5884191" lon="6.8409064"><ele>323.6666666666667</ele><time>2026-04-12T09:51:27.878Z</time></trkpt><trkpt lat="43.5884093" lon="6.8410003"><ele>324.33333333333337</ele><time>2026-04-12T09:51:29.861Z</time></trkpt><trkpt lat="43.5884057" lon="6.841095"><ele>325.0</ele><time>2026-04-12T09:51:31.88Z</time></trkpt><trkpt lat="43.5884138" lon="6.8411942"><ele>325.6666666666667</ele><time>2026-04-12T09:51:33.884Z</time></trkpt><trkpt lat="43.5884261" lon="6.8412924"><ele>326.3333333333333</ele><time>2026-04-12T09:51:35.863Z</time></trkpt><trkpt lat="43.5884386" lon="6.8414079"><ele>327.0</ele><time>2026-04-12T09:51:37.879Z</time></trkpt><trkpt lat="43.5884453" lon="6.8415265"><ele>327.0</ele><time>2026-04-12T09:51:39.875Z</time></trkpt><trkpt lat="43.5884342" lon="6.8416441"><ele>327.0</ele><time>2026-04-12T09:51:41.863Z</time></trkpt><trkpt lat="43.5884082" lon="6.8417627"><ele>327.0</ele><time>2026-04-12T09:51:43.874Z</time></trkpt><trkpt lat="43.5883868" lon="6.8418653"><ele>327.0</ele><time>2026-04-12T09:51:45.874Z</time></trkpt><trkpt lat="43.5883749" lon="6.8419691"><ele>327.0</ele><time>2026-04-12T09:51:47.851Z</time></trkpt><trkpt lat="43.5883568" lon="6.8420751"><ele>327.0</ele><time>2026-04-12T09:51:49.875Z</time></trkpt><trkpt lat="43.5883457" lon="6.8421622"><ele>327.0</ele><time>2026-04-12T09:51:51.883Z</time></trkpt><trkpt lat="43.5883201" lon="6.8422911"><ele>327.0</ele><time>2026-04-12T09:51:54.859Z</time></trkpt><trkpt lat="43.5882928" lon="6.8423855"><ele>327.0</ele><time>2026-04-12T09:51:56.868Z</time></trkpt><trkpt lat="43.5882529" lon="6.8424982"><ele>327.0</ele><time>2026-04-12T09:51:58.86Z</time></trkpt><trkpt lat="43.588202" lon="6.8426229"><ele>327.0</ele><time>2026-04-12T09:52:00.87Z</time></trkpt><trkpt lat="43.5881374" lon="6.8427739"><ele>326.6666666666667</ele><time>2026-04-12T09:52:02.859Z</time></trkpt><trkpt lat="43.5881013" lon="6.842944"><ele>326.3333333333333</ele><time>2026-04-12T09:52:04.842Z</time></trkpt><trkpt lat="43.5880938" lon="6.8430435"><ele>326.0</ele><time>2026-04-12T09:52:05.877Z</time></trkpt><trkpt lat="43.5880898" lon="6.8431394"><ele>325.66666666666663</ele><time>2026-04-12T09:52:06.844Z</time></trkpt><trkpt lat="43.5880873" lon="6.8432375"><ele>325.3333333333333</ele><time>2026-04-12T09:52:07.847Z</time></trkpt><trkpt lat="43.5880872" lon="6.843339"><ele>325.0</ele><time>2026-04-12T09:52:08.84Z</time></trkpt><trkpt lat="43.5881287" lon="6.8434434"><ele>327.0</ele><time>2026-04-12T09:52:09.867Z</time></trkpt><trkpt lat="43.5882038" lon="6.843529"><ele>329.0</ele><time>2026-04-12T09:52:10.877Z</time></trkpt><trkpt lat="43.5882907" lon="6.8435673"><ele>331.0</ele><time>2026-04-12T09:52:11.854Z</time></trkpt><trkpt lat="43.5883825" lon="6.8436009"><ele>333.0</ele><time>2026-04-12T09:52:12.859Z</time></trkpt><trkpt lat="43.5884676" lon="6.8436511"><ele>335.0</ele><time>2026-04-12T09:52:13.864Z</time></trkpt><trkpt lat="43.5885605" lon="6.8437244"><ele>335.0</ele><time>2026-04-12T09:52:14.861Z</time></trkpt><trkpt lat="43.5886336" lon="6.8438152"><ele>335.0</ele><time>2026-04-12T09:52:15.852Z</time></trkpt><trkpt lat="43.5887099" lon="6.8439377"><ele>335.0</ele><time>2026-04-12T09:52:16.832Z</time></trkpt><trkpt lat="43.5887821" lon="6.844052"><ele>335.0</ele><time>2026-04-12T09:52:17.846Z</time></trkpt><trkpt lat="43.5888605" lon="6.844161"><ele>335.0</ele><time>2026-04-12T09:52:18.829Z</time></trkpt><trkpt lat="43.5889484" lon="6.8442603"><ele>333.5</ele><time>2026-04-12T09:52:19.889Z</time></trkpt><trkpt lat="43.5890419" lon="6.8443601"><ele>332.0</ele><time>2026-04-12T09:52:20.852Z</time></trkpt><trkpt lat="43.589143" lon="6.8444431"><ele>330.5</ele><time>2026-04-12T09:52:21.836Z</time></trkpt><trkpt lat="43.5892526" lon="6.8445244"><ele>329.0</ele><time>2026-04-12T09:52:22.841Z</time></trkpt><trkpt lat="43.5893598" lon="6.8446077"><ele>329.0</ele><time>2026-04-12T09:52:23.839Z</time></trkpt><trkpt lat="43.5894728" lon="6.8446925"><ele>329.0</ele><time>2026-04-12T09:52:24.882Z</time></trkpt><trkpt lat="43.5895878" lon="6.844786"><ele>329.0</ele><time>2026-04-12T09:52:25.864Z</time></trkpt><trkpt lat="43.5897028" lon="6.8448666"><ele>329.0</ele><time>2026-04-12T09:52:26.869Z</time></trkpt><trkpt lat="43.5898304" lon="6.8449303"><ele>324.25</ele><time>2026-04-12T09:52:27.858Z</time></trkpt><trkpt lat="43.5899698" lon="6.8449717"><ele>319.5</ele><time>2026-04-12T09:52:28.862Z</time></trkpt><trkpt lat="43.5901088" lon="6.8450072"><ele>314.75</ele><time>2026-04-12T09:52:29.861Z</time></trkpt><trkpt lat="43.5902431" lon="6.8450368"><ele>310.0</ele><time>2026-04-12T09:52:30.867Z</time></trkpt><trkpt lat="43.5903713" lon="6.8450774"><ele>312.75</ele><time>2026-04-12T09:52:31.886Z</time></trkpt><trkpt lat="43.5905034" lon="6.8451199"><ele>315.5</ele><time>2026-04-12T09:52:32.881Z</time></trkpt><trkpt lat="43.5906357" lon="6.8451732"><ele>318.25</ele><time>2026-04-12T09:52:33.896Z</time></trkpt><trkpt lat="43.5907719" lon="6.8452133"><ele>321.0</ele><time>2026-04-12T09:52:34.886Z</time></trkpt><trkpt lat="43.5909058" lon="6.8452483"><ele>321.0</ele><time>2026-04-12T09:52:35.88Z</time></trkpt><trkpt lat="43.5910396" lon="6.8452624"><ele>321.0</ele><time>2026-04-12T09:52:36.877Z</time></trkpt><trkpt lat="43.5911744" lon="6.8452686"><ele>321.0</ele><time>2026-04-12T09:52:37.86Z</time></trkpt><trkpt lat="43.5912933" lon="6.8452829"><ele>321.0</ele><time>2026-04-12T09:52:38.868Z</time></trkpt><trkpt lat="43.5914009" lon="6.8453258"><ele>315.0</ele><time>2026-04-12T09:52:39.894Z</time></trkpt><trkpt lat="43.5915015" lon="6.8453992"><ele>309.0</ele><time>2026-04-12T09:52:40.873Z</time></trkpt><trkpt lat="43.5915863" lon="6.8455093"><ele>303.0</ele><time>2026-04-12T09:52:41.84Z</time></trkpt><trkpt lat="43.5916663" lon="6.8456385"><ele>297.0</ele><time>2026-04-12T09:52:42.866Z</time></trkpt><trkpt lat="43.5917499" lon="6.84576"><ele>297.0</ele><time>2026-04-12T09:52:43.823Z</time></trkpt><trkpt lat="43.5918334" lon="6.8458858"><ele>297.0</ele><time>2026-04-12T09:52:44.891Z</time></trkpt><trkpt lat="43.5919217" lon="6.8460114"><ele>297.0</ele><time>2026-04-12T09:52:45.892Z</time></trkpt><trkpt lat="43.5920176" lon="6.8461317"><ele>297.0</ele><time>2026-04-12T09:52:46.849Z</time></trkpt><trkpt lat="43.5921211" lon="6.846248"><ele>294.25</ele><time>2026-04-12T09:52:47.902Z</time></trkpt><trkpt lat="43.5922397" lon="6.8463453"><ele>291.5</ele><time>2026-04-12T09:52:48.859Z</time></trkpt><trkpt lat="43.592354" lon="6.8464429"><ele>288.75</ele><time>2026-04-12T09:52:49.904Z</time></trkpt><trkpt lat="43.5924628" lon="6.8465434"><ele>286.0</ele><time>2026-04-12T09:52:50.857Z</time></trkpt><trkpt lat="43.5925538" lon="6.8466592"><ele>286.0</ele><time>2026-04-12T09:52:51.878Z</time></trkpt><trkpt lat="43.5926324" lon="6.846786"><ele>286.0</ele><time>2026-04-12T09:52:52.88Z</time></trkpt><trkpt lat="43.5926984" lon="6.8469336"><ele>286.0</ele><time>2026-04-12T09:52:53.875Z</time></trkpt><trkpt lat="43.5927597" lon="6.8470869"><ele>286.0</ele><time>2026-04-12T09:52:54.911Z</time></trkpt><trkpt lat="43.592825" lon="6.8472308"><ele>281.75</ele><time>2026-04-12T09:52:55.848Z</time></trkpt><trkpt lat="43.5928873" lon="6.8473712"><ele>277.5</ele><time>2026-04-12T09:52:56.863Z</time></trkpt><trkpt lat="43.5929584" lon="6.8475054"><ele>273.25</ele><time>2026-04-12T09:52:57.889Z</time></trkpt><trkpt lat="43.5930316" lon="6.8476253"><ele>269.0</ele><time>2026-04-12T09:52:58.869Z</time></trkpt><trkpt lat="43.5930962" lon="6.8477369"><ele>269.0</ele><time>2026-04-12T09:52:59.887Z</time></trkpt><trkpt lat="43.5931542" lon="6.847839"><ele>269.0</ele><time>2026-04-12T09:53:00.888Z</time></trkpt><trkpt lat="43.5932" lon="6.8479353"><ele>269.0</ele><time>2026-04-12T09:53:01.87Z</time></trkpt><trkpt lat="43.5932429" lon="6.8480254"><ele>269.0</ele><time>2026-04-12T09:53:02.871Z</time></trkpt><trkpt lat="43.5932769" lon="6.8481082"><ele>269.0</ele><time>2026-04-12T09:53:03.861Z</time></trkpt><trkpt lat="43.5933089" lon="6.8481965"><ele>269.0</ele><time>2026-04-12T09:53:04.906Z</time></trkpt><trkpt lat="43.5933386" lon="6.8482746"><ele>269.0</ele><time>2026-04-12T09:53:05.861Z</time></trkpt><trkpt lat="43.5933633" lon="6.8483549"><ele>269.0</ele><time>2026-04-12T09:53:06.885Z</time></trkpt><trkpt lat="43.5933901" lon="6.8484431"><ele>269.0</ele><time>2026-04-12T09:53:07.885Z</time></trkpt><trkpt lat="43.593404" lon="6.8485979"><ele>269.0</ele><time>2026-04-12T09:53:09.885Z</time></trkpt><trkpt lat="43.5933555" lon="6.8487069"><ele>269.0</ele><time>2026-04-12T09:53:11.853Z</time></trkpt><trkpt lat="43.5932342" lon="6.8487583"><ele>266.5</ele><time>2026-04-12T09:53:13.876Z</time></trkpt><trkpt lat="43.5931586" lon="6.8487611"><ele>264.0</ele><time>2026-04-12T09:53:14.893Z</time></trkpt><trkpt lat="43.5930788" lon="6.8487622"><ele>261.5</ele><time>2026-04-12T09:53:15.864Z</time></trkpt><trkpt lat="43.5929955" lon="6.8487756"><ele>259.0</ele><time>2026-04-12T09:53:16.882Z</time></trkpt><trkpt lat="43.592903" lon="6.8487878"><ele>256.5</ele><time>2026-04-12T09:53:17.864Z</time></trkpt><trkpt lat="43.592802" lon="6.8487945"><ele>254.0</ele><time>2026-04-12T09:53:18.881Z</time></trkpt><trkpt lat="43.5926992" lon="6.848802"><ele>254.0</ele><time>2026-04-12T09:53:19.902Z</time></trkpt><trkpt lat="43.5925957" lon="6.8488149"><ele>253.99999999999997</ele><time>2026-04-12T09:53:20.86Z</time></trkpt><trkpt lat="43.5924952" lon="6.8488407"><ele>253.99999999999997</ele><time>2026-04-12T09:53:21.889Z</time></trkpt><trkpt lat="43.5923904" lon="6.8488848"><ele>254.0</ele><time>2026-04-12T09:53:22.888Z</time></trkpt><trkpt lat="43.5922833" lon="6.8489399"><ele>254.0</ele><time>2026-04-12T09:53:23.889Z</time></trkpt><trkpt lat="43.5921744" lon="6.8490009"><ele>254.0</ele><time>2026-04-12T09:53:24.876Z</time></trkpt><trkpt lat="43.5920704" lon="6.8490657"><ele>254.0</ele><time>2026-04-12T09:53:25.894Z</time></trkpt><trkpt lat="43.5919686" lon="6.8491416"><ele>254.0</ele><time>2026-04-12T09:53:26.867Z</time></trkpt><trkpt lat="43.5918733" lon="6.8492315"><ele>254.0</ele><time>2026-04-12T09:53:27.872Z</time></trkpt><trkpt lat="43.5917884" lon="6.8493308"><ele>249.6</ele><time>2026-04-12T09:53:28.866Z</time></trkpt><trkpt lat="43.5917024" lon="6.8494286"><ele>245.2</ele><time>2026-04-12T09:53:29.872Z</time></trkpt><trkpt lat="43.5916108" lon="6.8495059"><ele>240.79999999999998</ele><time>2026-04-12T09:53:30.856Z</time></trkpt><trkpt lat="43.5915123" lon="6.8495436"><ele>236.39999999999998</ele><time>2026-04-12T09:53:31.873Z</time></trkpt><trkpt lat="43.5913982" lon="6.8495466"><ele>232.0</ele><time>2026-04-12T09:53:32.869Z</time></trkpt><trkpt lat="43.5912809" lon="6.849541"><ele>229.25</ele><time>2026-04-12T09:53:33.864Z</time></trkpt><trkpt lat="43.5911615" lon="6.8495332"><ele>226.5</ele><time>2026-04-12T09:53:34.866Z</time></trkpt><trkpt lat="43.5910458" lon="6.8495189"><ele>223.75</ele><time>2026-04-12T09:53:35.848Z</time></trkpt><trkpt lat="43.5909383" lon="6.8494884"><ele>221.0</ele><time>2026-04-12T09:53:36.862Z</time></trkpt><trkpt lat="43.5908199" lon="6.8494591"><ele>221.0</ele><time>2026-04-12T09:53:37.848Z</time></trkpt><trkpt lat="43.5906999" lon="6.8494216"><ele>221.0</ele><time>2026-04-12T09:53:38.875Z</time></trkpt><trkpt lat="43.5905918" lon="6.8493511"><ele>221.0</ele><time>2026-04-12T09:53:39.863Z</time></trkpt><trkpt lat="43.5904866" lon="6.8492748"><ele>221.0</ele><time>2026-04-12T09:53:40.874Z</time></trkpt><trkpt lat="43.5903812" lon="6.8492419"><ele>227.0</ele><time>2026-04-12T09:53:41.87Z</time></trkpt><trkpt lat="43.590271" lon="6.8492178"><ele>233.00000000000003</ele><time>2026-04-12T09:53:42.86Z</time></trkpt><trkpt lat="43.5901659" lon="6.849201"><ele>239.00000000000003</ele><time>2026-04-12T09:53:43.838Z</time></trkpt><trkpt lat="43.5900595" lon="6.8491963"><ele>245.0</ele><time>2026-04-12T09:53:44.849Z</time></trkpt><trkpt lat="43.5899586" lon="6.849228"><ele>251.0</ele><time>2026-04-12T09:53:45.841Z</time></trkpt><trkpt lat="43.5898579" lon="6.8492734"><ele>252.0</ele><time>2026-04-12T09:53:46.861Z</time></trkpt><trkpt lat="43.5897618" lon="6.8493183"><ele>253.00000000000003</ele><time>2026-04-12T09:53:47.854Z</time></trkpt><trkpt lat="43.5896719" lon="6.8493543"><ele>254.00000000000003</ele><time>2026-04-12T09:53:48.876Z</time></trkpt><trkpt lat="43.5895884" lon="6.8494058"><ele>255.0</ele><time>2026-04-12T09:53:49.877Z</time></trkpt><trkpt lat="43.5895195" lon="6.8494945"><ele>256.0</ele><time>2026-04-12T09:53:50.854Z</time></trkpt><trkpt lat="43.5894784" lon="6.849618"><ele>256.0</ele><time>2026-04-12T09:53:51.864Z</time></trkpt><trkpt lat="43.5894828" lon="6.8497525"><ele>256.0</ele><time>2026-04-12T09:53:52.856Z</time></trkpt><trkpt lat="43.589521" lon="6.8498689"><ele>256.0</ele><time>2026-04-12T09:53:53.877Z</time></trkpt><trkpt lat="43.5895681" lon="6.8499868"><ele>256.0</ele><time>2026-04-12T09:53:54.852Z</time></trkpt><trkpt lat="43.5895955" lon="6.8501142"><ele>256.0</ele><time>2026-04-12T09:53:55.897Z</time></trkpt><trkpt lat="43.5895939" lon="6.8502487"><ele>252.0</ele><time>2026-04-12T09:53:56.863Z</time></trkpt><trkpt lat="43.589567" lon="6.8503812"><ele>248.00000000000003</ele><time>2026-04-12T09:53:57.882Z</time></trkpt><trkpt lat="43.589528" lon="6.8505114"><ele>244.00000000000003</ele><time>2026-04-12T09:53:58.864Z</time></trkpt><trkpt lat="43.5894816" lon="6.8506404"><ele>240.0</ele><time>2026-04-12T09:53:59.852Z</time></trkpt><trkpt lat="43.5894414" lon="6.8507665"><ele>236.0</ele><time>2026-04-12T09:54:00.878Z</time></trkpt><trkpt lat="43.5893915" lon="6.8508989"><ele>230.60000000000002</ele><time>2026-04-12T09:54:01.889Z</time></trkpt><trkpt lat="43.589332" lon="6.8510342"><ele>225.20000000000002</ele><time>2026-04-12T09:54:02.847Z</time></trkpt><trkpt lat="43.5892666" lon="6.8511675"><ele>219.8</ele><time>2026-04-12T09:54:03.857Z</time></trkpt><trkpt lat="43.5891836" lon="6.8512626"><ele>214.39999999999998</ele><time>2026-04-12T09:54:04.871Z</time></trkpt><trkpt lat="43.5890905" lon="6.8513334"><ele>209.0</ele><time>2026-04-12T09:54:05.882Z</time></trkpt><trkpt lat="43.589009" lon="6.8514147"><ele>209.0</ele><time>2026-04-12T09:54:06.848Z</time></trkpt><trkpt lat="43.5889547" lon="6.8515247"><ele>209.0</ele><time>2026-04-12T09:54:07.86Z</time></trkpt><trkpt lat="43.5889034" lon="6.8516539"><ele>209.0</ele><time>2026-04-12T09:54:08.876Z</time></trkpt><trkpt lat="43.5888605" lon="6.851781"><ele>209.0</ele><time>2026-04-12T09:54:09.873Z</time></trkpt><trkpt lat="43.5888124" lon="6.8518997"><ele>209.0</ele><time>2026-04-12T09:54:10.86Z</time></trkpt><trkpt lat="43.5887629" lon="6.8520335"><ele>210.6</ele><time>2026-04-12T09:54:11.864Z</time></trkpt><trkpt lat="43.5887012" lon="6.8521628"><ele>212.2</ele><time>2026-04-12T09:54:12.844Z</time></trkpt><trkpt lat="43.5886422" lon="6.8522904"><ele>213.79999999999998</ele><time>2026-04-12T09:54:13.863Z</time></trkpt><trkpt lat="43.5885707" lon="6.8523929"><ele>215.39999999999998</ele><time>2026-04-12T09:54:14.86Z</time></trkpt><trkpt lat="43.5885041" lon="6.8524866"><ele>217.0</ele><time>2026-04-12T09:54:15.855Z</time></trkpt><trkpt lat="43.5884383" lon="6.8525742"><ele>217.0</ele><time>2026-04-12T09:54:16.883Z</time></trkpt><trkpt lat="43.5883596" lon="6.8526341"><ele>217.0</ele><time>2026-04-12T09:54:17.838Z</time></trkpt><trkpt lat="43.588277" lon="6.8526633"><ele>217.0</ele><time>2026-04-12T09:54:18.852Z</time></trkpt><trkpt lat="43.588184" lon="6.8526555"><ele>217.0</ele><time>2026-04-12T09:54:19.848Z</time></trkpt><trkpt lat="43.5880902" lon="6.8526166"><ele>217.0</ele><time>2026-04-12T09:54:20.882Z</time></trkpt><trkpt lat="43.5880088" lon="6.85257"><ele>217.0</ele><time>2026-04-12T09:54:21.841Z</time></trkpt><trkpt lat="43.5879107" lon="6.8525778"><ele>217.0</ele><time>2026-04-12T09:54:22.862Z</time></trkpt><trkpt lat="43.5878252" lon="6.8526603"><ele>217.0</ele><time>2026-04-12T09:54:23.862Z</time></trkpt><trkpt lat="43.5877459" lon="6.8527376"><ele>217.0</ele><time>2026-04-12T09:54:24.853Z</time></trkpt><trkpt lat="43.5876819" lon="6.8528277"><ele>217.0</ele><time>2026-04-12T09:54:25.857Z</time></trkpt><trkpt lat="43.5876117" lon="6.8529058"><ele>212.0</ele><time>2026-04-12T09:54:26.879Z</time></trkpt><trkpt lat="43.5875391" lon="6.8529748"><ele>207.0</ele><time>2026-04-12T09:54:27.866Z</time></trkpt><trkpt lat="43.5874541" lon="6.8530198"><ele>202.0</ele><time>2026-04-12T09:54:28.857Z</time></trkpt><trkpt lat="43.5873612" lon="6.8530419"><ele>197.0</ele><time>2026-04-12T09:54:29.87Z</time></trkpt><trkpt lat="43.587267" lon="6.8530392"><ele>192.0</ele><time>2026-04-12T09:54:30.833Z</time></trkpt><trkpt lat="43.5871666" lon="6.8530288"><ele>192.0</ele><time>2026-04-12T09:54:31.828Z</time></trkpt><trkpt lat="43.5870651" lon="6.8530378"><ele>192.0</ele><time>2026-04-12T09:54:32.823Z</time></trkpt><trkpt lat="43.586973" lon="6.8530734"><ele>192.0</ele><time>2026-04-12T09:54:33.887Z</time></trkpt><trkpt lat="43.5869019" lon="6.8531455"><ele>192.0</ele><time>2026-04-12T09:54:34.884Z</time></trkpt><trkpt lat="43.5868441" lon="6.8532469"><ele>192.0</ele><time>2026-04-12T09:54:35.868Z</time></trkpt><trkpt lat="43.586811" lon="6.8533853"><ele>193.0</ele><time>2026-04-12T09:54:36.879Z</time></trkpt><trkpt lat="43.5867848" lon="6.8535059"><ele>194.0</ele><time>2026-04-12T09:54:37.866Z</time></trkpt><trkpt lat="43.586764" lon="6.8536231"><ele>195.0</ele><time>2026-04-12T09:54:38.841Z</time></trkpt><trkpt lat="43.5867384" lon="6.8537548"><ele>196.0</ele><time>2026-04-12T09:54:39.84Z</time></trkpt><trkpt lat="43.5866893" lon="6.8538884"><ele>197.0</ele><time>2026-04-12T09:54:40.888Z</time></trkpt><trkpt lat="43.5866265" lon="6.854009"><ele>197.0</ele><time>2026-04-12T09:54:41.869Z</time></trkpt><trkpt lat="43.5865584" lon="6.8541302"><ele>197.0</ele><time>2026-04-12T09:54:42.877Z</time></trkpt><trkpt lat="43.5864984" lon="6.8542598"><ele>197.0</ele><time>2026-04-12T09:54:43.878Z</time></trkpt><trkpt lat="43.5864552" lon="6.8544031"><ele>197.0</ele><time>2026-04-12T09:54:44.869Z</time></trkpt><trkpt lat="43.5864237" lon="6.8545539"><ele>197.0</ele><time>2026-04-12T09:54:45.851Z</time></trkpt><trkpt lat="43.5863997" lon="6.8547052"><ele>193.6</ele><time>2026-04-12T09:54:46.841Z</time></trkpt><trkpt lat="43.5863854" lon="6.8548529"><ele>190.2</ele><time>2026-04-12T09:54:47.837Z</time></trkpt><trkpt lat="43.58636" lon="6.8549991"><ele>186.8</ele><time>2026-04-12T09:54:48.861Z</time></trkpt><trkpt lat="43.5863327" lon="6.8551503"><ele>183.4</ele><time>2026-04-12T09:54:49.822Z</time></trkpt><trkpt lat="43.5863238" lon="6.8553061"><ele>180.0</ele><time>2026-04-12T09:54:50.824Z</time></trkpt><trkpt lat="43.5863282" lon="6.85547"><ele>179.5</ele><time>2026-04-12T09:54:51.852Z</time></trkpt><trkpt lat="43.5863265" lon="6.8556342"><ele>179.0</ele><time>2026-04-12T09:54:52.857Z</time></trkpt><trkpt lat="43.5863566" lon="6.855793"><ele>178.5</ele><time>2026-04-12T09:54:53.859Z</time></trkpt><trkpt lat="43.5864272" lon="6.8559412"><ele>178.0</ele><time>2026-04-12T09:54:54.853Z</time></trkpt><trkpt lat="43.5865255" lon="6.8560722"><ele>179.0</ele><time>2026-04-12T09:54:55.823Z</time></trkpt><trkpt lat="43.586626" lon="6.8561886"><ele>180.0</ele><time>2026-04-12T09:54:56.88Z</time></trkpt><trkpt lat="43.5867224" lon="6.8562952"><ele>181.0</ele><time>2026-04-12T09:54:57.88Z</time></trkpt><trkpt lat="43.5868077" lon="6.856381"><ele>182.0</ele><time>2026-04-12T09:54:58.866Z</time></trkpt><trkpt lat="43.5868954" lon="6.8564538"><ele>182.0</ele><time>2026-04-12T09:54:59.835Z</time></trkpt><trkpt lat="43.5869715" lon="6.8565267"><ele>182.0</ele><time>2026-04-12T09:55:00.868Z</time></trkpt><trkpt lat="43.5870327" lon="6.8566086"><ele>182.0</ele><time>2026-04-12T09:55:01.823Z</time></trkpt><trkpt lat="43.5870749" lon="6.8566872"><ele>182.0</ele><time>2026-04-12T09:55:02.872Z</time></trkpt><trkpt lat="43.5870763" lon="6.8567778"><ele>182.0</ele><time>2026-04-12T09:55:03.826Z</time></trkpt><trkpt lat="43.5870353" lon="6.8568539"><ele>182.0</ele><time>2026-04-12T09:55:04.884Z</time></trkpt><trkpt lat="43.5869542" lon="6.8568966"><ele>178.66666666666666</ele><time>2026-04-12T09:55:05.865Z</time></trkpt><trkpt lat="43.5868769" lon="6.8569197"><ele>175.33333333333331</ele><time>2026-04-12T09:55:06.881Z</time></trkpt><trkpt lat="43.5868063" lon="6.8569739"><ele>172.0</ele><time>2026-04-12T09:55:07.883Z</time></trkpt><trkpt lat="43.5867355" lon="6.8570428"><ele>168.66666666666666</ele><time>2026-04-12T09:55:08.824Z</time></trkpt><trkpt lat="43.5866657" lon="6.8571196"><ele>165.33333333333334</ele><time>2026-04-12T09:55:09.855Z</time></trkpt><trkpt lat="43.5865993" lon="6.8572094"><ele>162.0</ele><time>2026-04-12T09:55:10.87Z</time></trkpt><trkpt lat="43.5865283" lon="6.8573"><ele>162.0</ele><time>2026-04-12T09:55:11.82Z</time></trkpt><trkpt lat="43.586459" lon="6.8574055"><ele>162.0</ele><time>2026-04-12T09:55:12.887Z</time></trkpt><trkpt lat="43.5863867" lon="6.8575125"><ele>162.0</ele><time>2026-04-12T09:55:13.873Z</time></trkpt><trkpt lat="43.5863222" lon="6.857638"><ele>162.0</ele><time>2026-04-12T09:55:14.878Z</time></trkpt><trkpt lat="43.5862761" lon="6.8577633"><ele>162.0</ele><time>2026-04-12T09:55:15.858Z</time></trkpt><trkpt lat="43.5862215" lon="6.8578694"><ele>162.0</ele><time>2026-04-12T09:55:16.88Z</time></trkpt><trkpt lat="43.5861388" lon="6.8579486"><ele>162.0</ele><time>2026-04-12T09:55:17.857Z</time></trkpt><trkpt lat="43.5860424" lon="6.8580087"><ele>162.0</ele><time>2026-04-12T09:55:18.88Z</time></trkpt><trkpt lat="43.5859433" lon="6.858053"><ele>162.0</ele><time>2026-04-12T09:55:19.84Z</time></trkpt><trkpt lat="43.585855" lon="6.858125"><ele>162.0</ele><time>2026-04-12T09:55:20.866Z</time></trkpt><trkpt lat="43.5857857" lon="6.8582334"><ele>162.0</ele><time>2026-04-12T09:55:21.862Z</time></trkpt><trkpt lat="43.5857265" lon="6.8583662"><ele>162.0</ele><time>2026-04-12T09:55:22.864Z</time></trkpt><trkpt lat="43.5856668" lon="6.8584976"><ele>162.0</ele><time>2026-04-12T09:55:23.852Z</time></trkpt><trkpt lat="43.5856077" lon="6.8586416"><ele>162.0</ele><time>2026-04-12T09:55:24.869Z</time></trkpt><trkpt lat="43.5855541" lon="6.8587625"><ele>162.0</ele><time>2026-04-12T09:55:25.863Z</time></trkpt><trkpt lat="43.5855051" lon="6.8588865"><ele>161.83333333333334</ele><time>2026-04-12T09:55:26.872Z</time></trkpt><trkpt lat="43.5854472" lon="6.8589995"><ele>161.66666666666666</ele><time>2026-04-12T09:55:27.842Z</time></trkpt><trkpt lat="43.5854116" lon="6.8590949"><ele>161.5</ele><time>2026-04-12T09:55:28.861Z</time></trkpt><trkpt lat="43.58538" lon="6.859192"><ele>161.33333333333331</ele><time>2026-04-12T09:55:29.868Z</time></trkpt><trkpt lat="43.5853867" lon="6.8592878"><ele>161.16666666666666</ele><time>2026-04-12T09:55:30.871Z</time></trkpt><trkpt lat="43.5854321" lon="6.8593674"><ele>161.0</ele><time>2026-04-12T09:55:31.884Z</time></trkpt><trkpt lat="43.5854836" lon="6.859434"><ele>161.0</ele><time>2026-04-12T09:55:32.873Z</time></trkpt><trkpt lat="43.5855427" lon="6.8595025"><ele>161.0</ele><time>2026-04-12T09:55:33.877Z</time></trkpt><trkpt lat="43.5856076" lon="6.8595827"><ele>161.0</ele><time>2026-04-12T09:55:34.859Z</time></trkpt><trkpt lat="43.5856786" lon="6.8596494"><ele>161.0</ele><time>2026-04-12T09:55:35.833Z</time></trkpt><trkpt lat="43.585753" lon="6.8597294"><ele>161.0</ele><time>2026-04-12T09:55:36.876Z</time></trkpt><trkpt lat="43.5858234" lon="6.8597917"><ele>161.0</ele><time>2026-04-12T09:55:37.872Z</time></trkpt><trkpt lat="43.5858856" lon="6.8598353"><ele>161.0</ele><time>2026-04-12T09:55:38.876Z</time></trkpt><trkpt lat="43.5859569" lon="6.8598154"><ele>161.0</ele><time>2026-04-12T09:55:39.856Z</time></trkpt><trkpt lat="43.58603" lon="6.8597454"><ele>161.0</ele><time>2026-04-12T09:55:40.876Z</time></trkpt><trkpt lat="43.5860806" lon="6.8596737"><ele>161.0</ele><time>2026-04-12T09:55:41.895Z</time></trkpt><trkpt lat="43.5861337" lon="6.8596051"><ele>161.0</ele><time>2026-04-12T09:55:42.861Z</time></trkpt><trkpt lat="43.5861784" lon="6.8595344"><ele>161.0</ele><time>2026-04-12T09:55:43.893Z</time></trkpt><trkpt lat="43.5862207" lon="6.8594698"><ele>161.0</ele><time>2026-04-12T09:55:44.87Z</time></trkpt><trkpt lat="43.5862794" lon="6.8593705"><ele>163.0</ele><time>2026-04-12T09:55:46.877Z</time></trkpt><trkpt lat="43.5863173" lon="6.8592797"><ele>165.0</ele><time>2026-04-12T09:55:48.873Z</time></trkpt><trkpt lat="43.5863674" lon="6.8591989"><ele>167.0</ele><time>2026-04-12T09:55:50.863Z</time></trkpt><trkpt lat="43.5864101" lon="6.8591328"><ele>169.0</ele><time>2026-04-12T09:55:52.854Z</time></trkpt><trkpt lat="43.5864743" lon="6.8590458"><ele>171.0</ele><time>2026-04-12T09:55:55.872Z</time></trkpt><trkpt lat="43.5865306" lon="6.8589783"><ele>173.0</ele><time>2026-04-12T09:55:58.845Z</time></trkpt><trkpt lat="43.5865917" lon="6.8589117"><ele>173.0</ele><time>2026-04-12T09:56:01.845Z</time></trkpt><trkpt lat="43.5866565" lon="6.8588374"><ele>173.0</ele><time>2026-04-12T09:56:04.832Z</time></trkpt><trkpt lat="43.5867202" lon="6.858762"><ele>173.0</ele><time>2026-04-12T09:56:07.868Z</time></trkpt><trkpt lat="43.5867792" lon="6.8586574"><ele>173.0</ele><time>2026-04-12T09:56:10.866Z</time></trkpt><trkpt lat="43.5868269" lon="6.8585534"><ele>173.0</ele><time>2026-04-12T09:56:13.883Z</time></trkpt><trkpt lat="43.5868764" lon="6.8584438"><ele>173.0</ele><time>2026-04-12T09:56:16.869Z</time></trkpt><trkpt lat="43.5869294" lon="6.8583515"><ele>173.5</ele><time>2026-04-12T09:56:19.873Z</time></trkpt><trkpt lat="43.5870023" lon="6.8582919"><ele>174.0</ele><time>2026-04-12T09:56:22.896Z</time></trkpt><trkpt lat="43.5870796" lon="6.8582615"><ele>174.5</ele><time>2026-04-12T09:56:25.886Z</time></trkpt><trkpt lat="43.5871576" lon="6.8582659"><ele>175.0</ele><time>2026-04-12T09:56:28.858Z</time></trkpt><trkpt lat="43.5872282" lon="6.858273"><ele>175.5</ele><time>2026-04-12T09:56:31.876Z</time></trkpt><trkpt lat="43.5872951" lon="6.8582695"><ele>176.0</ele><time>2026-04-12T09:56:34.848Z</time></trkpt><trkpt lat="43.5873667" lon="6.8582731"><ele>176.0</ele><time>2026-04-12T09:56:39.838Z</time></trkpt><trkpt lat="43.5874324" lon="6.8582588"><ele>176.0</ele><time>2026-04-12T09:56:42.833Z</time></trkpt><trkpt lat="43.5875151" lon="6.8582269"><ele>176.0</ele><time>2026-04-12T09:56:45.841Z</time></trkpt><trkpt lat="43.587609" lon="6.8581941"><ele>176.0</ele><time>2026-04-12T09:56:48.836Z</time></trkpt><trkpt lat="43.5876845" lon="6.8581473"><ele>176.0</ele><time>2026-04-12T09:56:51.845Z</time></trkpt><trkpt lat="43.5877709" lon="6.8581007"><ele>176.0</ele><time>2026-04-12T09:56:54.836Z</time></trkpt><trkpt lat="43.5878342" lon="6.858062"><ele>177.33333333333331</ele><time>2026-04-12T09:56:56.841Z</time></trkpt><trkpt lat="43.5879147" lon="6.8579932"><ele>178.66666666666666</ele><time>2026-04-12T09:56:59.853Z</time></trkpt><trkpt lat="43.5879688" lon="6.8578964"><ele>180.0</ele><time>2026-04-12T09:57:02.866Z</time></trkpt><trkpt lat="43.5879825" lon="6.8577858"><ele>181.33333333333334</ele><time>2026-04-12T09:57:05.861Z</time></trkpt><trkpt lat="43.5879988" lon="6.8576729"><ele>182.66666666666669</ele><time>2026-04-12T09:57:08.877Z</time></trkpt><trkpt lat="43.5880232" lon="6.8575527"><ele>184.0</ele><time>2026-04-12T09:57:11.868Z</time></trkpt><trkpt lat="43.5880485" lon="6.8574608"><ele>184.0</ele><time>2026-04-12T09:57:14.833Z</time></trkpt><trkpt lat="43.588094" lon="6.8573875"><ele>184.0</ele><time>2026-04-12T09:57:17.867Z</time></trkpt><trkpt lat="43.5881518" lon="6.8573383"><ele>184.0</ele><time>2026-04-12T09:57:20.864Z</time></trkpt><trkpt lat="43.5882157" lon="6.8573144"><ele>184.0</ele><time>2026-04-12T09:57:23.874Z</time></trkpt><trkpt lat="43.5882874" lon="6.8572924"><ele>184.0</ele><time>2026-04-12T09:57:26.861Z</time></trkpt><trkpt lat="43.5883554" lon="6.8572669"><ele>184.0</ele><time>2026-04-12T09:57:29.878Z</time></trkpt><trkpt lat="43.5884119" lon="6.8572115"><ele>184.0</ele><time>2026-04-12T09:57:32.878Z</time></trkpt><trkpt lat="43.5884537" lon="6.8571119"><ele>184.0</ele><time>2026-04-12T09:57:35.852Z</time></trkpt><trkpt lat="43.5884576" lon="6.8570001"><ele>184.0</ele><time>2026-04-12T09:57:38.88Z</time></trkpt><trkpt lat="43.5884464" lon="6.8568825"><ele>184.0</ele><time>2026-04-12T09:57:41.883Z</time></trkpt><trkpt lat="43.5884122" lon="6.8567723"><ele>184.0</ele><time>2026-04-12T09:57:44.871Z</time></trkpt><trkpt lat="43.5884076" lon="6.8566462"><ele>184.0</ele><time>2026-04-12T09:57:47.841Z</time></trkpt><trkpt lat="43.5884326" lon="6.856539"><ele>184.0</ele><time>2026-04-12T09:57:50.878Z</time></trkpt><trkpt lat="43.5884715" lon="6.8564494"><ele>181.71428571428572</ele><time>2026-04-12T09:57:53.872Z</time></trkpt><trkpt lat="43.5885148" lon="6.856354"><ele>179.42857142857142</ele><time>2026-04-12T09:57:56.888Z</time></trkpt><trkpt lat="43.5885589" lon="6.8562562"><ele>177.14285714285714</ele><time>2026-04-12T09:57:59.863Z</time></trkpt><trkpt lat="43.5886101" lon="6.8562045"><ele>174.85714285714286</ele><time>2026-04-12T09:58:02.88Z</time></trkpt><trkpt lat="43.5886818" lon="6.8561722"><ele>172.57142857142856</ele><time>2026-04-12T09:58:05.874Z</time></trkpt><trkpt lat="43.5887493" lon="6.8561568"><ele>170.28571428571428</ele><time>2026-04-12T09:58:08.849Z</time></trkpt><trkpt lat="43.588823" lon="6.8561554"><ele>168.0</ele><time>2026-04-12T09:58:11.862Z</time></trkpt><trkpt lat="43.5889017" lon="6.856187"><ele>173.66666666666666</ele><time>2026-04-12T09:58:14.822Z</time></trkpt><trkpt lat="43.5889848" lon="6.8561899"><ele>179.33333333333331</ele><time>2026-04-12T09:58:17.86Z</time></trkpt><trkpt lat="43.5890726" lon="6.856196"><ele>185.0</ele><time>2026-04-12T09:58:20.865Z</time></trkpt><trkpt lat="43.5891573" lon="6.8562017"><ele>190.66666666666666</ele><time>2026-04-12T09:58:24.863Z</time></trkpt><trkpt lat="43.5892253" lon="6.8562189"><ele>196.33333333333331</ele><time>2026-04-12T09:58:27.874Z</time></trkpt><trkpt lat="43.5893058" lon="6.8562217"><ele>202.0</ele><time>2026-04-12T09:58:30.864Z</time></trkpt><trkpt lat="43.5893925" lon="6.8562018"><ele>201.99999999999997</ele><time>2026-04-12T09:58:33.839Z</time></trkpt><trkpt lat="43.5894765" lon="6.8561903"><ele>202.0</ele><time>2026-04-12T09:58:36.871Z</time></trkpt><trkpt lat="43.5895683" lon="6.8562019"><ele>202.0</ele><time>2026-04-12T09:58:39.89Z</time></trkpt><trkpt lat="43.5896495" lon="6.8561952"><ele>202.0</ele><time>2026-04-12T09:58:42.863Z</time></trkpt><trkpt lat="43.5897261" lon="6.8562072"><ele>201.99999999999997</ele><time>2026-04-12T09:58:45.866Z</time></trkpt><trkpt lat="43.5898064" lon="6.8562364"><ele>202.0</ele><time>2026-04-12T09:58:48.855Z</time></trkpt><trkpt lat="43.5898862" lon="6.8562648"><ele>202.83333333333331</ele><time>2026-04-12T09:58:51.871Z</time></trkpt><trkpt lat="43.5899616" lon="6.8563059"><ele>203.66666666666666</ele><time>2026-04-12T09:58:54.872Z</time></trkpt><trkpt lat="43.590037" lon="6.8563563"><ele>204.5</ele><time>2026-04-12T09:58:57.867Z</time></trkpt><trkpt lat="43.5901066" lon="6.8564033"><ele>205.33333333333331</ele><time>2026-04-12T09:59:00.867Z</time></trkpt><trkpt lat="43.5901726" lon="6.8564557"><ele>206.16666666666666</ele><time>2026-04-12T09:59:03.853Z</time></trkpt><trkpt lat="43.5902609" lon="6.8564725"><ele>207.0</ele><time>2026-04-12T09:59:06.869Z</time></trkpt><trkpt lat="43.5903348" lon="6.8564422"><ele>207.66666666666666</ele><time>2026-04-12T09:59:09.875Z</time></trkpt><trkpt lat="43.5903905" lon="6.8563489"><ele>208.33333333333331</ele><time>2026-04-12T09:59:12.879Z</time></trkpt><trkpt lat="43.590427" lon="6.8562766"><ele>209.0</ele><time>2026-04-12T09:59:14.857Z</time></trkpt><trkpt lat="43.5904743" lon="6.8561694"><ele>209.66666666666666</ele><time>2026-04-12T09:59:17.866Z</time></trkpt><trkpt lat="43.5905095" lon="6.8560711"><ele>210.33333333333331</ele><time>2026-04-12T09:59:20.882Z</time></trkpt><trkpt lat="43.5905442" lon="6.8559695"><ele>211.0</ele><time>2026-04-12T09:59:23.889Z</time></trkpt><trkpt lat="43.5905853" lon="6.8558807"><ele>211.0</ele><time>2026-04-12T09:59:26.851Z</time></trkpt><trkpt lat="43.590615" lon="6.8557811"><ele>211.0</ele><time>2026-04-12T09:59:29.883Z</time></trkpt><trkpt lat="43.5906467" lon="6.8556811"><ele>211.0</ele><time>2026-04-12T09:59:32.863Z</time></trkpt><trkpt lat="43.5906722" lon="6.855585"><ele>211.0</ele><time>2026-04-12T09:59:35.848Z</time></trkpt><trkpt lat="43.5906964" lon="6.8554925"><ele>211.0</ele><time>2026-04-12T09:59:38.85Z</time></trkpt><trkpt lat="43.5907251" lon="6.855407"><ele>211.0</ele><time>2026-04-12T09:59:41.862Z</time></trkpt><trkpt lat="43.5907682" lon="6.8553293"><ele>211.0</ele><time>2026-04-12T09:59:44.879Z</time></trkpt><trkpt lat="43.5908228" lon="6.8552597"><ele>211.0</ele><time>2026-04-12T09:59:47.836Z</time></trkpt><trkpt lat="43.5908644" lon="6.8551907"><ele>211.0</ele><time>2026-04-12T09:59:50.869Z</time></trkpt><trkpt lat="43.5909226" lon="6.8551201"><ele>211.0</ele><time>2026-04-12T09:59:53.854Z</time></trkpt><trkpt lat="43.5909835" lon="6.855046"><ele>211.0</ele><time>2026-04-12T09:59:56.868Z</time></trkpt><trkpt lat="43.5910174" lon="6.8549688"><ele>211.0</ele><time>2026-04-12T09:59:59.873Z</time></trkpt><trkpt lat="43.5910504" lon="6.8548806"><ele>211.0</ele><time>2026-04-12T10:00:02.875Z</time></trkpt><trkpt lat="43.5910947" lon="6.8547958"><ele>211.0</ele><time>2026-04-12T10:00:05.862Z</time></trkpt><trkpt lat="43.5911393" lon="6.8547176"><ele>211.57142857142858</ele><time>2026-04-12T10:00:08.85Z</time></trkpt><trkpt lat="43.5911922" lon="6.8546413"><ele>212.14285714285717</ele><time>2026-04-12T10:00:11.849Z</time></trkpt><trkpt lat="43.5912651" lon="6.8545883"><ele>212.71428571428572</ele><time>2026-04-12T10:00:14.864Z</time></trkpt><trkpt lat="43.5913345" lon="6.8545498"><ele>213.28571428571428</ele><time>2026-04-12T10:00:17.889Z</time></trkpt><trkpt lat="43.5914012" lon="6.8545249"><ele>213.85714285714286</ele><time>2026-04-12T10:00:20.875Z</time></trkpt><trkpt lat="43.5914688" lon="6.8545147"><ele>214.42857142857142</ele><time>2026-04-12T10:00:23.856Z</time></trkpt><trkpt lat="43.5915416" lon="6.8545218"><ele>215.0</ele><time>2026-04-12T10:00:26.878Z</time></trkpt><trkpt lat="43.5916044" lon="6.8545597"><ele>215.0</ele><time>2026-04-12T10:00:29.898Z</time></trkpt><trkpt lat="43.5916642" lon="6.8546121"><ele>215.0</ele><time>2026-04-12T10:00:32.895Z</time></trkpt><trkpt lat="43.5917091" lon="6.8546925"><ele>215.0</ele><time>2026-04-12T10:00:35.872Z</time></trkpt><trkpt lat="43.5917467" lon="6.8547782"><ele>215.0</ele><time>2026-04-12T10:00:38.865Z</time></trkpt><trkpt lat="43.5917696" lon="6.8548605"><ele>215.0</ele><time>2026-04-12T10:00:41.856Z</time></trkpt><trkpt lat="43.5918081" lon="6.8549616"><ele>215.0</ele><time>2026-04-12T10:00:45.87Z</time></trkpt><trkpt lat="43.5918447" lon="6.8550401"><ele>215.0</ele><time>2026-04-12T10:00:48.896Z</time></trkpt><trkpt lat="43.5918832" lon="6.8551122"><ele>216.57142857142856</ele><time>2026-04-12T10:00:51.855Z</time></trkpt><trkpt lat="43.5919322" lon="6.8551915"><ele>218.14285714285717</ele><time>2026-04-12T10:00:54.874Z</time></trkpt><trkpt lat="43.5919829" lon="6.8552609"><ele>219.71428571428572</ele><time>2026-04-12T10:00:57.847Z</time></trkpt><trkpt lat="43.5920304" lon="6.8553196"><ele>221.28571428571428</ele><time>2026-04-12T10:01:00.869Z</time></trkpt><trkpt lat="43.5920812" lon="6.8553751"><ele>222.85714285714283</ele><time>2026-04-12T10:01:03.916Z</time></trkpt><trkpt lat="43.592134" lon="6.8554269"><ele>224.42857142857144</ele><time>2026-04-12T10:01:06.873Z</time></trkpt><trkpt lat="43.5921952" lon="6.8554762"><ele>226.0</ele><time>2026-04-12T10:01:09.854Z</time></trkpt><trkpt lat="43.5922622" lon="6.8555192"><ele>226.0</ele><time>2026-04-12T10:01:12.867Z</time></trkpt><trkpt lat="43.5923361" lon="6.8555599"><ele>226.0</ele><time>2026-04-12T10:01:15.857Z</time></trkpt><trkpt lat="43.5924044" lon="6.8556092"><ele>226.0</ele><time>2026-04-12T10:01:18.846Z</time></trkpt><trkpt lat="43.5924628" lon="6.8556589"><ele>226.0</ele><time>2026-04-12T10:01:21.87Z</time></trkpt><trkpt lat="43.5925144" lon="6.8557301"><ele>226.0</ele><time>2026-04-12T10:01:24.88Z</time></trkpt><trkpt lat="43.5925622" lon="6.8558099"><ele>226.0</ele><time>2026-04-12T10:01:27.892Z</time></trkpt><trkpt lat="43.5926076" lon="6.8558902"><ele>226.0</ele><time>2026-04-12T10:01:30.875Z</time></trkpt><trkpt lat="43.5926513" lon="6.8559689"><ele>228.14285714285717</ele><time>2026-04-12T10:01:33.855Z</time></trkpt><trkpt lat="43.592721" lon="6.8560273"><ele>230.28571428571428</ele><time>2026-04-12T10:01:37.873Z</time></trkpt><trkpt lat="43.5927823" lon="6.8560479"><ele>232.42857142857144</ele><time>2026-04-12T10:01:40.876Z</time></trkpt><trkpt lat="43.5928651" lon="6.8560669"><ele>234.57142857142858</ele><time>2026-04-12T10:01:43.894Z</time></trkpt><trkpt lat="43.5929421" lon="6.8560861"><ele>236.71428571428572</ele><time>2026-04-12T10:01:46.891Z</time></trkpt><trkpt lat="43.5930116" lon="6.8561196"><ele>238.85714285714286</ele><time>2026-04-12T10:01:49.885Z</time></trkpt><trkpt lat="43.5930686" lon="6.8561682"><ele>241.0</ele><time>2026-04-12T10:01:52.86Z</time></trkpt><trkpt lat="43.5931301" lon="6.8562371"><ele>241.0</ele><time>2026-04-12T10:01:56.853Z</time></trkpt><trkpt lat="43.5931855" lon="6.8563212"><ele>241.00000000000003</ele><time>2026-04-12T10:02:00.881Z</time></trkpt><trkpt lat="43.5932322" lon="6.8563985"><ele>241.0</ele><time>2026-04-12T10:02:04.855Z</time></trkpt><trkpt lat="43.5933043" lon="6.8564564"><ele>241.0</ele><time>2026-04-12T10:02:08.889Z</time></trkpt><trkpt lat="43.5933656" lon="6.8564852"><ele>241.00000000000003</ele><time>2026-04-12T10:02:11.877Z</time></trkpt><trkpt lat="43.5934294" lon="6.8565027"><ele>241.0</ele><time>2026-04-12T10:02:14.882Z</time></trkpt><trkpt lat="43.5934942" lon="6.8565173"><ele>241.0</ele><time>2026-04-12T10:02:17.836Z</time></trkpt><trkpt lat="43.5935671" lon="6.8565383"><ele>240.99999999999997</ele><time>2026-04-12T10:02:20.878Z</time></trkpt><trkpt lat="43.5936355" lon="6.8565745"><ele>241.0</ele><time>2026-04-12T10:02:23.836Z</time></trkpt><trkpt lat="43.593702" lon="6.8566171"><ele>241.0</ele><time>2026-04-12T10:02:26.865Z</time></trkpt><trkpt lat="43.5937709" lon="6.8566609"><ele>241.0</ele><time>2026-04-12T10:02:29.855Z</time></trkpt><trkpt lat="43.5938356" lon="6.8567363"><ele>240.99999999999997</ele><time>2026-04-12T10:02:33.846Z</time></trkpt><trkpt lat="43.5938845" lon="6.8568259"><ele>241.0</ele><time>2026-04-12T10:02:37.835Z</time></trkpt><trkpt lat="43.5939194" lon="6.8569035"><ele>241.57142857142858</ele><time>2026-04-12T10:02:40.861Z</time></trkpt><trkpt lat="43.5939505" lon="6.8569794"><ele>242.14285714285717</ele><time>2026-04-12T10:02:43.868Z</time></trkpt><trkpt lat="43.5939876" lon="6.8570678"><ele>242.71428571428572</ele><time>2026-04-12T10:02:47.877Z</time></trkpt><trkpt lat="43.5940103" lon="6.8571698"><ele>243.28571428571428</ele><time>2026-04-12T10:02:51.868Z</time></trkpt><trkpt lat="43.5940339" lon="6.8572654"><ele>243.85714285714286</ele><time>2026-04-12T10:02:54.879Z</time></trkpt><trkpt lat="43.5940779" lon="6.857339"><ele>244.42857142857144</ele><time>2026-04-12T10:02:57.86Z</time></trkpt><trkpt lat="43.5941198" lon="6.8574124"><ele>245.0</ele><time>2026-04-12T10:03:00.868Z</time></trkpt><trkpt lat="43.594154" lon="6.8575014"><ele>245.00000000000003</ele><time>2026-04-12T10:03:03.863Z</time></trkpt><trkpt lat="43.5941798" lon="6.8575873"><ele>245.0</ele><time>2026-04-12T10:03:06.873Z</time></trkpt><trkpt lat="43.5942011" lon="6.8577003"><ele>245.0</ele><time>2026-04-12T10:03:10.888Z</time></trkpt><trkpt lat="43.5942208" lon="6.8578004"><ele>245.0</ele><time>2026-04-12T10:03:13.872Z</time></trkpt><trkpt lat="43.5942655" lon="6.8578853"><ele>245.00000000000003</ele><time>2026-04-12T10:03:16.864Z</time></trkpt><trkpt lat="43.5943281" lon="6.8579323"><ele>245.0</ele><time>2026-04-12T10:03:19.866Z</time></trkpt><trkpt lat="43.594406" lon="6.85795"><ele>248.83333333333334</ele><time>2026-04-12T10:03:22.869Z</time></trkpt><trkpt lat="43.5944928" lon="6.8579499"><ele>252.66666666666669</ele><time>2026-04-12T10:03:25.867Z</time></trkpt><trkpt lat="43.5945698" lon="6.8579613"><ele>256.5</ele><time>2026-04-12T10:03:28.9Z</time></trkpt><trkpt lat="43.5946396" lon="6.857973"><ele>260.3333333333333</ele><time>2026-04-12T10:03:31.85Z</time></trkpt><trkpt lat="43.5947119" lon="6.8579836"><ele>264.16666666666663</ele><time>2026-04-12T10:03:34.86Z</time></trkpt><trkpt lat="43.5947828" lon="6.8579603"><ele>268.0</ele><time>2026-04-12T10:03:37.847Z</time></trkpt><trkpt lat="43.5948489" lon="6.8579127"><ele>268.0</ele><time>2026-04-12T10:03:40.887Z</time></trkpt><trkpt lat="43.5949116" lon="6.8578654"><ele>268.0</ele><time>2026-04-12T10:03:43.865Z</time></trkpt><trkpt lat="43.594978" lon="6.8578009"><ele>268.0</ele><time>2026-04-12T10:03:46.878Z</time></trkpt><trkpt lat="43.5950433" lon="6.8577493"><ele>268.0</ele><time>2026-04-12T10:03:49.872Z</time></trkpt><trkpt lat="43.5951074" lon="6.8577049"><ele>268.0</ele><time>2026-04-12T10:03:52.861Z</time></trkpt><trkpt lat="43.5951682" lon="6.8576602"><ele>268.0</ele><time>2026-04-12T10:03:55.877Z</time></trkpt><trkpt lat="43.595232" lon="6.8576186"><ele>268.0</ele><time>2026-04-12T10:03:58.853Z</time></trkpt><trkpt lat="43.5952959" lon="6.8575688"><ele>266.57142857142856</ele><time>2026-04-12T10:04:01.855Z</time></trkpt><trkpt lat="43.5953537" lon="6.8575249"><ele>265.1428571428571</ele><time>2026-04-12T10:04:04.875Z</time></trkpt><trkpt lat="43.5954085" lon="6.8574775"><ele>263.71428571428567</ele><time>2026-04-12T10:04:07.856Z</time></trkpt><trkpt lat="43.5954697" lon="6.8574351"><ele>262.2857142857143</ele><time>2026-04-12T10:04:10.883Z</time></trkpt><trkpt lat="43.5955345" lon="6.8574092"><ele>260.85714285714283</ele><time>2026-04-12T10:04:13.841Z</time></trkpt><trkpt lat="43.5956076" lon="6.8574046"><ele>259.4285714285714</ele><time>2026-04-12T10:04:16.84Z</time></trkpt><trkpt lat="43.595698" lon="6.857411"><ele>258.0</ele><time>2026-04-12T10:04:18.816Z</time></trkpt><trkpt lat="43.5957707" lon="6.857421"><ele>258.0</ele><time>2026-04-12T10:04:21.842Z</time></trkpt><trkpt lat="43.5958441" lon="6.8574562"><ele>258.0</ele><time>2026-04-12T10:04:26.849Z</time></trkpt><trkpt lat="43.5959196" lon="6.8574297"><ele>258.0</ele><time>2026-04-12T10:04:30.839Z</time></trkpt><trkpt lat="43.5959813" lon="6.8573678"><ele>258.0</ele><time>2026-04-12T10:04:33.855Z</time></trkpt><trkpt lat="43.596056" lon="6.8573191"><ele>258.0</ele><time>2026-04-12T10:04:36.872Z</time></trkpt><trkpt lat="43.5961264" lon="6.8572754"><ele>258.0</ele><time>2026-04-12T10:04:39.864Z</time></trkpt><trkpt lat="43.5961893" lon="6.8572543"><ele>260.85714285714283</ele><time>2026-04-12T10:04:43.839Z</time></trkpt><trkpt lat="43.5962667" lon="6.8571975"><ele>263.7142857142857</ele><time>2026-04-12T10:04:46.871Z</time></trkpt><trkpt lat="43.5963355" lon="6.8571548"><ele>266.57142857142856</ele><time>2026-04-12T10:04:49.87Z</time></trkpt><trkpt lat="43.5964006" lon="6.8571124"><ele>269.42857142857144</ele><time>2026-04-12T10:04:52.863Z</time></trkpt><trkpt lat="43.5964626" lon="6.8570601"><ele>272.2857142857143</ele><time>2026-04-12T10:04:55.849Z</time></trkpt><trkpt lat="43.5965234" lon="6.8570085"><ele>275.1428571428571</ele><time>2026-04-12T10:04:58.822Z</time></trkpt><trkpt lat="43.5965835" lon="6.8569713"><ele>278.0</ele><time>2026-04-12T10:05:01.826Z</time></trkpt><trkpt lat="43.5966614" lon="6.8569292"><ele>278.0</ele><time>2026-04-12T10:05:04.826Z</time></trkpt><trkpt lat="43.596727" lon="6.8568798"><ele>278.0</ele><time>2026-04-12T10:05:07.868Z</time></trkpt><trkpt lat="43.5967908" lon="6.8568308"><ele>278.0</ele><time>2026-04-12T10:05:10.865Z</time></trkpt><trkpt lat="43.5968537" lon="6.856785"><ele>278.0</ele><time>2026-04-12T10:05:13.865Z</time></trkpt><trkpt lat="43.5969251" lon="6.8567368"><ele>278.0</ele><time>2026-04-12T10:05:16.864Z</time></trkpt><trkpt lat="43.5969917" lon="6.8566983"><ele>278.0</ele><time>2026-04-12T10:05:19.865Z</time></trkpt><trkpt lat="43.5970556" lon="6.856678"><ele>278.0</ele><time>2026-04-12T10:05:22.861Z</time></trkpt><trkpt lat="43.5971264" lon="6.8566755"><ele>279.42857142857144</ele><time>2026-04-12T10:05:25.874Z</time></trkpt><trkpt lat="43.5971958" lon="6.8566937"><ele>280.8571428571429</ele><time>2026-04-12T10:05:28.853Z</time></trkpt><trkpt lat="43.5972685" lon="6.8567108"><ele>282.28571428571433</ele><time>2026-04-12T10:05:31.861Z</time></trkpt><trkpt lat="43.5973435" lon="6.8567317"><ele>283.7142857142857</ele><time>2026-04-12T10:05:34.873Z</time></trkpt><trkpt lat="43.5974042" lon="6.8567565"><ele>285.14285714285717</ele><time>2026-04-12T10:05:37.89Z</time></trkpt><trkpt lat="43.5974737" lon="6.8567789"><ele>286.5714285714286</ele><time>2026-04-12T10:05:40.855Z</time></trkpt><trkpt lat="43.5975368" lon="6.8567987"><ele>288.0</ele><time>2026-04-12T10:05:43.896Z</time></trkpt><trkpt lat="43.5976185" lon="6.8568137"><ele>288.00000000000006</ele><time>2026-04-12T10:05:47.856Z</time></trkpt><trkpt lat="43.5976985" lon="6.8568329"><ele>288.0</ele><time>2026-04-12T10:05:51.884Z</time></trkpt><trkpt lat="43.5977618" lon="6.8568467"><ele>288.0</ele><time>2026-04-12T10:05:54.863Z</time></trkpt><trkpt lat="43.5978368" lon="6.8568642"><ele>288.0</ele><time>2026-04-12T10:05:57.874Z</time></trkpt><trkpt lat="43.5978986" lon="6.8568819"><ele>288.0</ele><time>2026-04-12T10:06:00.857Z</time></trkpt><trkpt lat="43.5979595" lon="6.8569109"><ele>288.00000000000006</ele><time>2026-04-12T10:06:03.863Z</time></trkpt><trkpt lat="43.5980388" lon="6.8569153"><ele>288.0</ele><time>2026-04-12T10:06:06.872Z</time></trkpt><trkpt lat="43.5981189" lon="6.8569071"><ele>287.3333333333333</ele><time>2026-04-12T10:06:09.877Z</time></trkpt><trkpt lat="43.5981851" lon="6.8568887"><ele>286.6666666666667</ele><time>2026-04-12T10:06:12.875Z</time></trkpt><trkpt lat="43.5982546" lon="6.8568416"><ele>286.0</ele><time>2026-04-12T10:06:15.871Z</time></trkpt><trkpt lat="43.5983147" lon="6.8567697"><ele>285.33333333333337</ele><time>2026-04-12T10:06:18.864Z</time></trkpt><trkpt lat="43.5983699" lon="6.8567043"><ele>284.6666666666667</ele><time>2026-04-12T10:06:21.874Z</time></trkpt><trkpt lat="43.5984379" lon="6.8566353"><ele>284.0</ele><time>2026-04-12T10:06:24.872Z</time></trkpt><trkpt lat="43.5985039" lon="6.85657"><ele>281.6666666666667</ele><time>2026-04-12T10:06:27.862Z</time></trkpt><trkpt lat="43.5985736" lon="6.8565227"><ele>279.33333333333337</ele><time>2026-04-12T10:06:30.879Z</time></trkpt><trkpt lat="43.5986502" lon="6.8565141"><ele>277.0</ele><time>2026-04-12T10:06:33.875Z</time></trkpt><trkpt lat="43.5986871" lon="6.8566089"><ele>274.6666666666667</ele><time>2026-04-12T10:06:37.877Z</time></trkpt><trkpt lat="43.5986328" lon="6.8566856"><ele>272.3333333333333</ele><time>2026-04-12T10:06:41.869Z</time></trkpt><trkpt lat="43.5985545" lon="6.8567377"><ele>270.0</ele><time>2026-04-12T10:06:45.858Z</time></trkpt><trkpt lat="43.5984874" lon="6.8567835"><ele>272.3333333333333</ele><time>2026-04-12T10:06:48.854Z</time></trkpt><trkpt lat="43.5984289" lon="6.8568604"><ele>274.6666666666667</ele><time>2026-04-12T10:06:51.874Z</time></trkpt><trkpt lat="43.5983729" lon="6.8569368"><ele>277.0</ele><time>2026-04-12T10:06:54.915Z</time></trkpt><trkpt lat="43.5983122" lon="6.8570176"><ele>279.33333333333337</ele><time>2026-04-12T10:06:57.9Z</time></trkpt><trkpt lat="43.5982457" lon="6.8570712"><ele>281.6666666666667</ele><time>2026-04-12T10:07:00.859Z</time></trkpt><trkpt lat="43.5981803" lon="6.8571185"><ele>284.0</ele><time>2026-04-12T10:07:03.867Z</time></trkpt><trkpt lat="43.5981101" lon="6.8571537"><ele>284.0</ele><time>2026-04-12T10:07:06.859Z</time></trkpt><trkpt lat="43.5980375" lon="6.857186"><ele>284.0</ele><time>2026-04-12T10:07:09.883Z</time></trkpt><trkpt lat="43.5979658" lon="6.8571874"><ele>284.0</ele><time>2026-04-12T10:07:12.857Z</time></trkpt><trkpt lat="43.597887" lon="6.857199"><ele>284.0</ele><time>2026-04-12T10:07:15.879Z</time></trkpt><trkpt lat="43.597819" lon="6.8571927"><ele>284.0</ele><time>2026-04-12T10:07:18.861Z</time></trkpt><trkpt lat="43.5977534" lon="6.8571849"><ele>284.0</ele><time>2026-04-12T10:07:21.851Z</time></trkpt><trkpt lat="43.5976765" lon="6.8571782"><ele>284.0</ele><time>2026-04-12T10:07:24.871Z</time></trkpt><trkpt lat="43.5976011" lon="6.857174"><ele>284.6666666666667</ele><time>2026-04-12T10:07:27.866Z</time></trkpt><trkpt lat="43.5975284" lon="6.8571901"><ele>285.33333333333337</ele><time>2026-04-12T10:07:30.867Z</time></trkpt><trkpt lat="43.5974567" lon="6.857208"><ele>286.0</ele><time>2026-04-12T10:07:33.873Z</time></trkpt><trkpt lat="43.5973839" lon="6.8572596"><ele>286.6666666666667</ele><time>2026-04-12T10:07:36.886Z</time></trkpt><trkpt lat="43.5973227" lon="6.8573175"><ele>287.3333333333333</ele><time>2026-04-12T10:07:39.86Z</time></trkpt><trkpt lat="43.597263" lon="6.8573826"><ele>288.0</ele><time>2026-04-12T10:07:42.887Z</time></trkpt><trkpt lat="43.5972034" lon="6.8574558"><ele>288.0</ele><time>2026-04-12T10:07:45.859Z</time></trkpt><trkpt lat="43.5971383" lon="6.8575118"><ele>288.0</ele><time>2026-04-12T10:07:48.82Z</time></trkpt><trkpt lat="43.5970725" lon="6.8575575"><ele>288.0</ele><time>2026-04-12T10:07:51.877Z</time></trkpt><trkpt lat="43.5970009" lon="6.8576004"><ele>288.0</ele><time>2026-04-12T10:07:54.881Z</time></trkpt><trkpt lat="43.5969269" lon="6.8576324"><ele>288.0</ele><time>2026-04-12T10:07:57.871Z</time></trkpt><trkpt lat="43.5968503" lon="6.8576677"><ele>288.0</ele><time>2026-04-12T10:08:00.883Z</time></trkpt><trkpt lat="43.5967745" lon="6.8577253"><ele>289.8333333333333</ele><time>2026-04-12T10:08:03.842Z</time></trkpt><trkpt lat="43.5967119" lon="6.8577921"><ele>291.6666666666667</ele><time>2026-04-12T10:08:06.857Z</time></trkpt><trkpt lat="43.5966544" lon="6.8578744"><ele>293.5</ele><time>2026-04-12T10:08:09.863Z</time></trkpt><trkpt lat="43.5965934" lon="6.8579531"><ele>295.33333333333337</ele><time>2026-04-12T10:08:12.897Z</time></trkpt><trkpt lat="43.596526" lon="6.8580214"><ele>297.1666666666667</ele><time>2026-04-12T10:08:15.867Z</time></trkpt><trkpt lat="43.596457" lon="6.8580611"><ele>299.0</ele><time>2026-04-12T10:08:18.857Z</time></trkpt><trkpt lat="43.5963887" lon="6.8580847"><ele>299.0</ele><time>2026-04-12T10:08:21.856Z</time></trkpt><trkpt lat="43.5963221" lon="6.8581096"><ele>299.0</ele><time>2026-04-12T10:08:24.865Z</time></trkpt><trkpt lat="43.5962557" lon="6.8581618"><ele>299.0</ele><time>2026-04-12T10:08:27.868Z</time></trkpt><trkpt lat="43.596194" lon="6.8582285"><ele>299.0</ele><time>2026-04-12T10:08:30.886Z</time></trkpt><trkpt lat="43.5961286" lon="6.858279"><ele>299.0</ele><time>2026-04-12T10:08:33.86Z</time></trkpt><trkpt lat="43.5960577" lon="6.8583106"><ele>299.0</ele><time>2026-04-12T10:08:36.876Z</time></trkpt><trkpt lat="43.5959886" lon="6.8583435"><ele>299.0</ele><time>2026-04-12T10:08:39.851Z</time></trkpt><trkpt lat="43.5959127" lon="6.8583931"><ele>298.33333333333337</ele><time>2026-04-12T10:08:42.864Z</time></trkpt><trkpt lat="43.5958368" lon="6.8584555"><ele>297.6666666666667</ele><time>2026-04-12T10:08:45.872Z</time></trkpt><trkpt lat="43.5957924" lon="6.8585199"><ele>297.0</ele><time>2026-04-12T10:08:47.865Z</time></trkpt><trkpt lat="43.5957524" lon="6.858632"><ele>296.3333333333333</ele><time>2026-04-12T10:08:50.876Z</time></trkpt><trkpt lat="43.5957209" lon="6.8587467"><ele>295.66666666666663</ele><time>2026-04-12T10:08:53.876Z</time></trkpt><trkpt lat="43.5956866" lon="6.8588593"><ele>295.0</ele><time>2026-04-12T10:08:56.858Z</time></trkpt><trkpt lat="43.5956558" lon="6.8589384"><ele>295.0</ele><time>2026-04-12T10:08:58.864Z</time></trkpt><trkpt lat="43.5955949" lon="6.8590359"><ele>295.0</ele><time>2026-04-12T10:09:01.877Z</time></trkpt><trkpt lat="43.595543" lon="6.8590936"><ele>295.0</ele><time>2026-04-12T10:09:03.871Z</time></trkpt><trkpt lat="43.5954909" lon="6.8591477"><ele>295.0</ele><time>2026-04-12T10:09:05.843Z</time></trkpt><trkpt lat="43.5954372" lon="6.8591958"><ele>295.0</ele><time>2026-04-12T10:09:07.861Z</time></trkpt><trkpt lat="43.5953637" lon="6.8592568"><ele>295.0</ele><time>2026-04-12T10:09:10.859Z</time></trkpt><trkpt lat="43.5952838" lon="6.8593194"><ele>293.3333333333333</ele><time>2026-04-12T10:09:13.868Z</time></trkpt><trkpt lat="43.5952251" lon="6.8593658"><ele>291.66666666666663</ele><time>2026-04-12T10:09:15.869Z</time></trkpt><trkpt lat="43.5951368" lon="6.8594219"><ele>290.0</ele><time>2026-04-12T10:09:18.87Z</time></trkpt><trkpt lat="43.595076" lon="6.859465"><ele>288.3333333333333</ele><time>2026-04-12T10:09:20.883Z</time></trkpt><trkpt lat="43.5950172" lon="6.8595024"><ele>286.6666666666667</ele><time>2026-04-12T10:09:22.884Z</time></trkpt><trkpt lat="43.5949356" lon="6.8595552"><ele>285.0</ele><time>2026-04-12T10:09:25.896Z</time></trkpt><trkpt lat="43.5948704" lon="6.8596093"><ele>285.0</ele><time>2026-04-12T10:09:28.868Z</time></trkpt><trkpt lat="43.5948034" lon="6.8596646"><ele>285.0</ele><time>2026-04-12T10:09:31.895Z</time></trkpt><trkpt lat="43.5947205" lon="6.8597364"><ele>285.0</ele><time>2026-04-12T10:09:34.865Z</time></trkpt><trkpt lat="43.5946612" lon="6.8597877"><ele>285.0</ele><time>2026-04-12T10:09:36.876Z</time></trkpt><trkpt lat="43.5946035" lon="6.8598307"><ele>285.0</ele><time>2026-04-12T10:09:38.861Z</time></trkpt><trkpt lat="43.5945435" lon="6.859876"><ele>285.0</ele><time>2026-04-12T10:09:40.859Z</time></trkpt><trkpt lat="43.5944853" lon="6.8599303"><ele>285.57142857142856</ele><time>2026-04-12T10:09:42.855Z</time></trkpt><trkpt lat="43.5944301" lon="6.8599864"><ele>286.14285714285717</ele><time>2026-04-12T10:09:44.861Z</time></trkpt><trkpt lat="43.5943716" lon="6.8600448"><ele>286.7142857142857</ele><time>2026-04-12T10:09:46.839Z</time></trkpt><trkpt lat="43.5943169" lon="6.8601065"><ele>287.2857142857143</ele><time>2026-04-12T10:09:48.877Z</time></trkpt><trkpt lat="43.5942644" lon="6.8601718"><ele>287.85714285714283</ele><time>2026-04-12T10:09:50.868Z</time></trkpt><trkpt lat="43.5942219" lon="6.8602412"><ele>288.42857142857144</ele><time>2026-04-12T10:09:52.864Z</time></trkpt><trkpt lat="43.594183" lon="6.8603178"><ele>289.0</ele><time>2026-04-12T10:09:54.857Z</time></trkpt><trkpt lat="43.5941348" lon="6.8603873"><ele>289.0</ele><time>2026-04-12T10:09:56.865Z</time></trkpt><trkpt lat="43.5940761" lon="6.8604512"><ele>289.0</ele><time>2026-04-12T10:09:58.855Z</time></trkpt><trkpt lat="43.5939857" lon="6.8605076"><ele>289.0</ele><time>2026-04-12T10:10:00.822Z</time></trkpt><trkpt lat="43.5939192" lon="6.860556"><ele>289.0</ele><time>2026-04-12T10:10:02.865Z</time></trkpt><trkpt lat="43.593836" lon="6.8606036"><ele>289.0</ele><time>2026-04-12T10:10:04.883Z</time></trkpt><trkpt lat="43.5937706" lon="6.8606676"><ele>289.0</ele><time>2026-04-12T10:10:06.832Z</time></trkpt><trkpt lat="43.5937114" lon="6.8607248"><ele>291.16666666666663</ele><time>2026-04-12T10:10:08.858Z</time></trkpt><trkpt lat="43.5936676" lon="6.860813"><ele>293.3333333333333</ele><time>2026-04-12T10:10:11.842Z</time></trkpt><trkpt lat="43.5936276" lon="6.8608985"><ele>295.5</ele><time>2026-04-12T10:10:13.881Z</time></trkpt><trkpt lat="43.5935954" lon="6.8609919"><ele>297.6666666666667</ele><time>2026-04-12T10:10:15.86Z</time></trkpt><trkpt lat="43.593551" lon="6.8610837"><ele>299.83333333333337</ele><time>2026-04-12T10:10:17.86Z</time></trkpt><trkpt lat="43.5935024" lon="6.8611672"><ele>302.0</ele><time>2026-04-12T10:10:19.841Z</time></trkpt><trkpt lat="43.5934565" lon="6.861254"><ele>302.0</ele><time>2026-04-12T10:10:21.851Z</time></trkpt><trkpt lat="43.5934109" lon="6.8613357"><ele>302.0</ele><time>2026-04-12T10:10:23.837Z</time></trkpt><trkpt lat="43.5933566" lon="6.8614281"><ele>302.0</ele><time>2026-04-12T10:10:25.872Z</time></trkpt><trkpt lat="43.5933018" lon="6.8615173"><ele>302.0</ele><time>2026-04-12T10:10:27.866Z</time></trkpt><trkpt lat="43.5932354" lon="6.8616044"><ele>302.0</ele><time>2026-04-12T10:10:29.87Z</time></trkpt><trkpt lat="43.593159" lon="6.8616768"><ele>302.0</ele><time>2026-04-12T10:10:31.89Z</time></trkpt><trkpt lat="43.5930806" lon="6.8617341"><ele>303.6666666666667</ele><time>2026-04-12T10:10:33.843Z</time></trkpt><trkpt lat="43.5929982" lon="6.86179"><ele>305.33333333333337</ele><time>2026-04-12T10:10:35.876Z</time></trkpt><trkpt lat="43.5929159" lon="6.8618445"><ele>307.0</ele><time>2026-04-12T10:10:37.855Z</time></trkpt><trkpt lat="43.5928473" lon="6.8618838"><ele>308.6666666666667</ele><time>2026-04-12T10:10:39.835Z</time></trkpt><trkpt lat="43.5927849" lon="6.8619366"><ele>310.3333333333333</ele><time>2026-04-12T10:10:41.839Z</time></trkpt><trkpt lat="43.5927197" lon="6.8619947"><ele>312.0</ele><time>2026-04-12T10:10:43.859Z</time></trkpt><trkpt lat="43.5926615" lon="6.8620832"><ele>312.0</ele><time>2026-04-12T10:10:45.82Z</time></trkpt><trkpt lat="43.5926119" lon="6.8621933"><ele>312.0</ele><time>2026-04-12T10:10:47.85Z</time></trkpt><trkpt lat="43.5925696" lon="6.8623012"><ele>312.0</ele><time>2026-04-12T10:10:49.873Z</time></trkpt><trkpt lat="43.5925394" lon="6.8624012"><ele>312.0</ele><time>2026-04-12T10:10:51.886Z</time></trkpt><trkpt lat="43.5924788" lon="6.8624961"><ele>312.0</ele><time>2026-04-12T10:10:53.862Z</time></trkpt><trkpt lat="43.5924107" lon="6.8625896"><ele>312.0</ele><time>2026-04-12T10:10:55.852Z</time></trkpt><trkpt lat="43.5923381" lon="6.862675"><ele>310.8333333333333</ele><time>2026-04-12T10:10:57.871Z</time></trkpt><trkpt lat="43.59228" lon="6.8627707"><ele>309.6666666666667</ele><time>2026-04-12T10:10:59.862Z</time></trkpt><trkpt lat="43.5922342" lon="6.8628832"><ele>308.5</ele><time>2026-04-12T10:11:01.868Z</time></trkpt><trkpt lat="43.5922038" lon="6.8630041"><ele>307.33333333333337</ele><time>2026-04-12T10:11:03.858Z</time></trkpt><trkpt lat="43.5921794" lon="6.8631192"><ele>306.1666666666667</ele><time>2026-04-12T10:11:05.875Z</time></trkpt><trkpt lat="43.5921587" lon="6.8632322"><ele>305.0</ele><time>2026-04-12T10:11:08.88Z</time></trkpt><trkpt lat="43.5921369" lon="6.8633476"><ele>305.0</ele><time>2026-04-12T10:11:11.881Z</time></trkpt><trkpt lat="43.5921173" lon="6.8634356"><ele>305.0</ele><time>2026-04-12T10:11:13.869Z</time></trkpt><trkpt lat="43.5921052" lon="6.8635217"><ele>305.0</ele><time>2026-04-12T10:11:15.897Z</time></trkpt><trkpt lat="43.592109" lon="6.8636322"><ele>305.0</ele><time>2026-04-12T10:11:17.879Z</time></trkpt><trkpt lat="43.5921172" lon="6.8637398"><ele>305.0</ele><time>2026-04-12T10:11:19.863Z</time></trkpt><trkpt lat="43.5921323" lon="6.8638366"><ele>305.0</ele><time>2026-04-12T10:11:21.827Z</time></trkpt><trkpt lat="43.5921504" lon="6.8639218"><ele>305.0</ele><time>2026-04-12T10:11:23.88Z</time></trkpt><trkpt lat="43.5921642" lon="6.8640116"><ele>305.6666666666667</ele><time>2026-04-12T10:11:25.891Z</time></trkpt><trkpt lat="43.592174" lon="6.8641022"><ele>306.33333333333337</ele><time>2026-04-12T10:11:27.867Z</time></trkpt><trkpt lat="43.59219" lon="6.8641932"><ele>307.0</ele><time>2026-04-12T10:11:29.877Z</time></trkpt><trkpt lat="43.5922068" lon="6.8642777"><ele>307.6666666666667</ele><time>2026-04-12T10:11:31.871Z</time></trkpt><trkpt lat="43.5922327" lon="6.8644022"><ele>308.3333333333333</ele><time>2026-04-12T10:11:34.857Z</time></trkpt><trkpt lat="43.5922444" lon="6.8645194"><ele>309.0</ele><time>2026-04-12T10:11:37.866Z</time></trkpt><trkpt lat="43.592254" lon="6.8646443"><ele>310.6666666666667</ele><time>2026-04-12T10:11:40.871Z</time></trkpt><trkpt lat="43.5922608" lon="6.8647317"><ele>312.3333333333333</ele><time>2026-04-12T10:11:42.871Z</time></trkpt><trkpt lat="43.5922796" lon="6.8648622"><ele>314.0</ele><time>2026-04-12T10:11:45.883Z</time></trkpt><trkpt lat="43.5922995" lon="6.8649566"><ele>315.66666666666663</ele><time>2026-04-12T10:11:47.887Z</time></trkpt><trkpt lat="43.5923154" lon="6.8650493"><ele>317.3333333333333</ele><time>2026-04-12T10:11:49.883Z</time></trkpt><trkpt lat="43.5923278" lon="6.8651351"><ele>319.0</ele><time>2026-04-12T10:11:51.879Z</time></trkpt><trkpt lat="43.5923343" lon="6.865255"><ele>321.16666666666663</ele><time>2026-04-12T10:11:54.854Z</time></trkpt><trkpt lat="43.5923674" lon="6.8653735"><ele>323.3333333333333</ele><time>2026-04-12T10:11:57.87Z</time></trkpt><trkpt lat="43.592406" lon="6.8654427"><ele>325.5</ele><time>2026-04-12T10:11:59.84Z</time></trkpt><trkpt lat="43.5924692" lon="6.86554"><ele>327.6666666666667</ele><time>2026-04-12T10:12:02.857Z</time></trkpt><trkpt lat="43.5925171" lon="6.8656487"><ele>329.83333333333337</ele><time>2026-04-12T10:12:05.856Z</time></trkpt><trkpt lat="43.5925667" lon="6.8657122"><ele>332.0</ele><time>2026-04-12T10:12:07.874Z</time></trkpt><trkpt lat="43.5926056" lon="6.8657898"><ele>332.0</ele><time>2026-04-12T10:12:09.881Z</time></trkpt><trkpt lat="43.5926376" lon="6.8658759"><ele>332.0</ele><time>2026-04-12T10:12:11.848Z</time></trkpt><trkpt lat="43.5926727" lon="6.8659848"><ele>332.0</ele><time>2026-04-12T10:12:14.845Z</time></trkpt><trkpt lat="43.5927175" lon="6.8660842"><ele>332.0</ele><time>2026-04-12T10:12:17.873Z</time></trkpt><trkpt lat="43.5927754" lon="6.8661359"><ele>332.0</ele><time>2026-04-12T10:12:19.858Z</time></trkpt><trkpt lat="43.5928445" lon="6.8661759"><ele>332.0</ele><time>2026-04-12T10:12:21.877Z</time></trkpt><trkpt lat="43.5929091" lon="6.8662021"><ele>333.0</ele><time>2026-04-12T10:12:23.829Z</time></trkpt><trkpt lat="43.5929769" lon="6.8662161"><ele>334.0</ele><time>2026-04-12T10:12:25.879Z</time></trkpt><trkpt lat="43.5930432" lon="6.8662297"><ele>335.0</ele><time>2026-04-12T10:12:27.865Z</time></trkpt><trkpt lat="43.5931071" lon="6.866261"><ele>336.0</ele><time>2026-04-12T10:12:29.878Z</time></trkpt><trkpt lat="43.5931644" lon="6.8663028"><ele>337.0</ele><time>2026-04-12T10:12:31.852Z</time></trkpt><trkpt lat="43.5932229" lon="6.8663485"><ele>338.0</ele><time>2026-04-12T10:12:33.868Z</time></trkpt><trkpt lat="43.5933019" lon="6.8664166"><ele>339.0</ele><time>2026-04-12T10:12:36.862Z</time></trkpt><trkpt lat="43.5933614" lon="6.8664684"><ele>339.0</ele><time>2026-04-12T10:12:38.861Z</time></trkpt><trkpt lat="43.5934184" lon="6.8665169"><ele>339.0</ele><time>2026-04-12T10:12:40.843Z</time></trkpt><trkpt lat="43.5934857" lon="6.866568"><ele>339.0</ele><time>2026-04-12T10:12:42.876Z</time></trkpt><trkpt lat="43.593541" lon="6.8666159"><ele>339.0</ele><time>2026-04-12T10:12:44.863Z</time></trkpt><trkpt lat="43.5936056" lon="6.8666614"><ele>339.0</ele><time>2026-04-12T10:12:46.892Z</time></trkpt><trkpt lat="43.5936744" lon="6.8666957"><ele>339.0</ele><time>2026-04-12T10:12:48.868Z</time></trkpt><trkpt lat="43.5937489" lon="6.8667344"><ele>339.0</ele><time>2026-04-12T10:12:50.874Z</time></trkpt><trkpt lat="43.5938244" lon="6.8667663"><ele>336.85714285714283</ele><time>2026-04-12T10:12:52.856Z</time></trkpt><trkpt lat="43.5938789" lon="6.8668194"><ele>334.7142857142857</ele><time>2026-04-12T10:12:54.867Z</time></trkpt><trkpt lat="43.5939172" lon="6.8668991"><ele>332.57142857142856</ele><time>2026-04-12T10:12:56.857Z</time></trkpt><trkpt lat="43.5939322" lon="6.8670004"><ele>330.42857142857144</ele><time>2026-04-12T10:12:58.852Z</time></trkpt><trkpt lat="43.593911" lon="6.8670852"><ele>328.2857142857143</ele><time>2026-04-12T10:13:00.875Z</time></trkpt><trkpt lat="43.5938723" lon="6.8671659"><ele>326.14285714285717</ele><time>2026-04-12T10:13:02.864Z</time></trkpt><trkpt lat="43.5938221" lon="6.867237"><ele>324.0</ele><time>2026-04-12T10:13:04.862Z</time></trkpt><trkpt lat="43.5937735" lon="6.8673005"><ele>324.0</ele><time>2026-04-12T10:13:06.868Z</time></trkpt><trkpt lat="43.5937055" lon="6.8673709"><ele>324.0</ele><time>2026-04-12T10:13:09.886Z</time></trkpt><trkpt lat="43.593638" lon="6.8674261"><ele>324.0</ele><time>2026-04-12T10:13:12.861Z</time></trkpt><trkpt lat="43.5935765" lon="6.8674967"><ele>324.0</ele><time>2026-04-12T10:13:15.844Z</time></trkpt><trkpt lat="43.5935284" lon="6.867579"><ele>324.0</ele><time>2026-04-12T10:13:18.856Z</time></trkpt><trkpt lat="43.5934975" lon="6.867692"><ele>324.0</ele><time>2026-04-12T10:13:21.881Z</time></trkpt><trkpt lat="43.5934713" lon="6.8678231"><ele>330.4</ele><time>2026-04-12T10:13:24.856Z</time></trkpt><trkpt lat="43.5934615" lon="6.8679529"><ele>336.79999999999995</ele><time>2026-04-12T10:13:27.847Z</time></trkpt><trkpt lat="43.5934498" lon="6.8680764"><ele>343.20000000000005</ele><time>2026-04-12T10:13:30.852Z</time></trkpt><trkpt lat="43.5934576" lon="6.8682056"><ele>349.6</ele><time>2026-04-12T10:13:33.852Z</time></trkpt><trkpt lat="43.593461" lon="6.8683413"><ele>356.0</ele><time>2026-04-12T10:13:36.862Z</time></trkpt><trkpt lat="43.5934635" lon="6.868474"><ele>356.71428571428567</ele><time>2026-04-12T10:13:39.879Z</time></trkpt><trkpt lat="43.5934498" lon="6.8685945"><ele>357.42857142857144</ele><time>2026-04-12T10:13:42.88Z</time></trkpt><trkpt lat="43.5934312" lon="6.8686793"><ele>358.1428571428571</ele><time>2026-04-12T10:13:44.831Z</time></trkpt><trkpt lat="43.5934102" lon="6.8687638"><ele>358.85714285714283</ele><time>2026-04-12T10:13:46.831Z</time></trkpt><trkpt lat="43.5933861" lon="6.8688474"><ele>359.57142857142856</ele><time>2026-04-12T10:13:48.856Z</time></trkpt><trkpt lat="43.5934076" lon="6.8689655"><ele>360.2857142857143</ele><time>2026-04-12T10:13:51.827Z</time></trkpt><trkpt lat="43.5934483" lon="6.8690398"><ele>361.0</ele><time>2026-04-12T10:13:53.857Z</time></trkpt><trkpt lat="43.5934955" lon="6.8691111"><ele>361.0</ele><time>2026-04-12T10:13:55.848Z</time></trkpt><trkpt lat="43.5935384" lon="6.8691774"><ele>361.0</ele><time>2026-04-12T10:13:57.882Z</time></trkpt><trkpt lat="43.5935855" lon="6.8692432"><ele>361.0</ele><time>2026-04-12T10:13:59.867Z</time></trkpt><trkpt lat="43.5936341" lon="6.869316"><ele>361.0</ele><time>2026-04-12T10:14:01.861Z</time></trkpt><trkpt lat="43.5936717" lon="6.8694018"><ele>361.0</ele><time>2026-04-12T10:14:03.861Z</time></trkpt><trkpt lat="43.5937002" lon="6.8694949"><ele>361.0</ele><time>2026-04-12T10:14:05.851Z</time></trkpt><trkpt lat="43.5937252" lon="6.8695921"><ele>361.0</ele><time>2026-04-12T10:14:07.873Z</time></trkpt><trkpt lat="43.5937448" lon="6.8696901"><ele>359.14285714285717</ele><time>2026-04-12T10:14:09.865Z</time></trkpt><trkpt lat="43.593766" lon="6.8697878"><ele>357.2857142857143</ele><time>2026-04-12T10:14:11.853Z</time></trkpt><trkpt lat="43.5937706" lon="6.8698914"><ele>355.42857142857144</ele><time>2026-04-12T10:14:13.852Z</time></trkpt><trkpt lat="43.5937506" lon="6.8699951"><ele>353.57142857142856</ele><time>2026-04-12T10:14:15.868Z</time></trkpt><trkpt lat="43.5937095" lon="6.8700839"><ele>351.7142857142857</ele><time>2026-04-12T10:14:17.858Z</time></trkpt><trkpt lat="43.5936467" lon="6.8701369"><ele>349.85714285714283</ele><time>2026-04-12T10:14:19.873Z</time></trkpt><trkpt lat="43.5935829" lon="6.8701795"><ele>348.0</ele><time>2026-04-12T10:14:21.872Z</time></trkpt><trkpt lat="43.5935157" lon="6.8702176"><ele>348.0</ele><time>2026-04-12T10:14:23.865Z</time></trkpt><trkpt lat="43.5934462" lon="6.8702513"><ele>348.0</ele><time>2026-04-12T10:14:25.881Z</time></trkpt><trkpt lat="43.5933787" lon="6.8702848"><ele>348.0</ele><time>2026-04-12T10:14:27.867Z</time></trkpt><trkpt lat="43.5933035" lon="6.8703291"><ele>348.0</ele><time>2026-04-12T10:14:29.856Z</time></trkpt><trkpt lat="43.5932364" lon="6.8703719"><ele>348.0</ele><time>2026-04-12T10:14:31.856Z</time></trkpt><trkpt lat="43.5931636" lon="6.8704192"><ele>348.0</ele><time>2026-04-12T10:14:33.846Z</time></trkpt><trkpt lat="43.5930995" lon="6.8704684"><ele>348.0</ele><time>2026-04-12T10:14:35.827Z</time></trkpt><trkpt lat="43.5930401" lon="6.8705392"><ele>348.0</ele><time>2026-04-12T10:14:37.846Z</time></trkpt><trkpt lat="43.593001" lon="6.8706342"><ele>348.0</ele><time>2026-04-12T10:14:39.888Z</time></trkpt><trkpt lat="43.5929648" lon="6.8707347"><ele>348.0</ele><time>2026-04-12T10:14:41.829Z</time></trkpt><trkpt lat="43.592945" lon="6.8708275"><ele>348.0</ele><time>2026-04-12T10:14:43.873Z</time></trkpt><trkpt lat="43.5929328" lon="6.8709262"><ele>348.0</ele><time>2026-04-12T10:14:45.858Z</time></trkpt><trkpt lat="43.5929243" lon="6.8710154"><ele>348.0</ele><time>2026-04-12T10:14:47.856Z</time></trkpt><trkpt lat="43.5929254" lon="6.8711126"><ele>346.6666666666667</ele><time>2026-04-12T10:14:49.857Z</time></trkpt><trkpt lat="43.5929208" lon="6.8712159"><ele>345.3333333333333</ele><time>2026-04-12T10:14:51.844Z</time></trkpt><trkpt lat="43.5929172" lon="6.8713241"><ele>344.0</ele><time>2026-04-12T10:14:53.859Z</time></trkpt><trkpt lat="43.5929201" lon="6.8714216"><ele>342.66666666666663</ele><time>2026-04-12T10:14:55.865Z</time></trkpt><trkpt lat="43.5929187" lon="6.8715255"><ele>341.3333333333333</ele><time>2026-04-12T10:14:57.858Z</time></trkpt><trkpt lat="43.5929144" lon="6.8716323"><ele>340.0</ele><time>2026-04-12T10:14:59.863Z</time></trkpt><trkpt lat="43.5929129" lon="6.871741"><ele>338.5</ele><time>2026-04-12T10:15:01.865Z</time></trkpt><trkpt lat="43.5928894" lon="6.8718405"><ele>337.0</ele><time>2026-04-12T10:15:03.844Z</time></trkpt><trkpt lat="43.5928578" lon="6.8719394"><ele>335.5</ele><time>2026-04-12T10:15:05.849Z</time></trkpt><trkpt lat="43.5928199" lon="6.8720295"><ele>334.0</ele><time>2026-04-12T10:15:08.869Z</time></trkpt><trkpt lat="43.5927671" lon="6.8721012"><ele>332.5</ele><time>2026-04-12T10:15:11.84Z</time></trkpt><trkpt lat="43.5927157" lon="6.8721517"><ele>331.0</ele><time>2026-04-12T10:15:13.858Z</time></trkpt><trkpt lat="43.5926462" lon="6.872224"><ele>335.5</ele><time>2026-04-12T10:15:16.839Z</time></trkpt><trkpt lat="43.5925793" lon="6.8723013"><ele>340.0</ele><time>2026-04-12T10:15:19.839Z</time></trkpt><trkpt lat="43.5925142" lon="6.8723362"><ele>344.5</ele><time>2026-04-12T10:15:21.83Z</time></trkpt><trkpt lat="43.592444" lon="6.8723791"><ele>349.0</ele><time>2026-04-12T10:15:23.863Z</time></trkpt><trkpt lat="43.5923558" lon="6.87242"><ele>353.5</ele><time>2026-04-12T10:15:26.855Z</time></trkpt><trkpt lat="43.5922628" lon="6.8724521"><ele>358.0</ele><time>2026-04-12T10:15:29.872Z</time></trkpt><trkpt lat="43.5921963" lon="6.8724621"><ele>358.00000000000006</ele><time>2026-04-12T10:15:31.865Z</time></trkpt><trkpt lat="43.5921197" lon="6.8724695"><ele>358.0</ele><time>2026-04-12T10:15:33.888Z</time></trkpt><trkpt lat="43.5920474" lon="6.8724786"><ele>358.0</ele><time>2026-04-12T10:15:35.871Z</time></trkpt><trkpt lat="43.5919859" lon="6.8725077"><ele>358.0</ele><time>2026-04-12T10:15:37.846Z</time></trkpt><trkpt lat="43.5919199" lon="6.8725408"><ele>358.0</ele><time>2026-04-12T10:15:39.868Z</time></trkpt><trkpt lat="43.5918551" lon="6.872578"><ele>358.00000000000006</ele><time>2026-04-12T10:15:41.903Z</time></trkpt><trkpt lat="43.591792" lon="6.8726206"><ele>358.0</ele><time>2026-04-12T10:15:43.858Z</time></trkpt><trkpt lat="43.5917356" lon="6.8726755"><ele>358.42857142857144</ele><time>2026-04-12T10:15:45.85Z</time></trkpt><trkpt lat="43.5916867" lon="6.8727397"><ele>358.8571428571429</ele><time>2026-04-12T10:15:47.835Z</time></trkpt><trkpt lat="43.5916383" lon="6.8728092"><ele>359.28571428571433</ele><time>2026-04-12T10:15:49.85Z</time></trkpt><trkpt lat="43.591594" lon="6.8728785"><ele>359.7142857142857</ele><time>2026-04-12T10:15:51.825Z</time></trkpt><trkpt lat="43.5915519" lon="6.872947"><ele>360.1428571428571</ele><time>2026-04-12T10:15:53.857Z</time></trkpt><trkpt lat="43.5915067" lon="6.873065"><ele>360.5714285714286</ele><time>2026-04-12T10:15:56.861Z</time></trkpt><trkpt lat="43.5914717" lon="6.873153"><ele>361.0</ele><time>2026-04-12T10:15:58.846Z</time></trkpt><trkpt lat="43.5914364" lon="6.8732547"><ele>361.0</ele><time>2026-04-12T10:16:00.865Z</time></trkpt><trkpt lat="43.5914066" lon="6.8733566"><ele>361.0</ele><time>2026-04-12T10:16:02.852Z</time></trkpt><trkpt lat="43.5913731" lon="6.8734519"><ele>361.0</ele><time>2026-04-12T10:16:04.865Z</time></trkpt><trkpt lat="43.5913437" lon="6.8735455"><ele>361.0</ele><time>2026-04-12T10:16:06.842Z</time></trkpt><trkpt lat="43.5913161" lon="6.8736426"><ele>361.0</ele><time>2026-04-12T10:16:08.857Z</time></trkpt><trkpt lat="43.5912852" lon="6.8737361"><ele>361.0</ele><time>2026-04-12T10:16:10.879Z</time></trkpt><trkpt lat="43.5912563" lon="6.8738337"><ele>360.0</ele><time>2026-04-12T10:16:12.866Z</time></trkpt><trkpt lat="43.5912385" lon="6.8739425"><ele>359.0</ele><time>2026-04-12T10:16:14.874Z</time></trkpt><trkpt lat="43.5912275" lon="6.8740524"><ele>358.0</ele><time>2026-04-12T10:16:16.866Z</time></trkpt><trkpt lat="43.5912176" lon="6.8741439"><ele>357.0</ele><time>2026-04-12T10:16:18.844Z</time></trkpt><trkpt lat="43.5912074" lon="6.8742518"><ele>356.0</ele><time>2026-04-12T10:16:20.856Z</time></trkpt><trkpt lat="43.5912001" lon="6.8743564"><ele>355.0</ele><time>2026-04-12T10:16:22.862Z</time></trkpt><trkpt lat="43.5911941" lon="6.8744568"><ele>354.57142857142856</ele><time>2026-04-12T10:16:24.88Z</time></trkpt><trkpt lat="43.5911918" lon="6.8745486"><ele>354.14285714285717</ele><time>2026-04-12T10:16:26.873Z</time></trkpt><trkpt lat="43.5911802" lon="6.8746455"><ele>353.7142857142857</ele><time>2026-04-12T10:16:28.869Z</time></trkpt><trkpt lat="43.5911606" lon="6.8747373"><ele>353.2857142857143</ele><time>2026-04-12T10:16:30.877Z</time></trkpt><trkpt lat="43.5911286" lon="6.8748211"><ele>352.85714285714283</ele><time>2026-04-12T10:16:32.871Z</time></trkpt><trkpt lat="43.5910853" lon="6.8749178"><ele>352.42857142857144</ele><time>2026-04-12T10:16:35.873Z</time></trkpt><trkpt lat="43.5910517" lon="6.874998"><ele>352.0</ele><time>2026-04-12T10:16:38.878Z</time></trkpt><trkpt lat="43.5910035" lon="6.8750739"><ele>354.3333333333333</ele><time>2026-04-12T10:16:41.866Z</time></trkpt><trkpt lat="43.5909496" lon="6.8751571"><ele>356.66666666666663</ele><time>2026-04-12T10:16:44.868Z</time></trkpt><trkpt lat="43.59088" lon="6.8752211"><ele>359.0</ele><time>2026-04-12T10:16:47.871Z</time></trkpt><trkpt lat="43.5908155" lon="6.8752687"><ele>361.3333333333333</ele><time>2026-04-12T10:16:50.863Z</time></trkpt><trkpt lat="43.590761" lon="6.8753256"><ele>363.6666666666667</ele><time>2026-04-12T10:16:53.849Z</time></trkpt><trkpt lat="43.5906957" lon="6.8753754"><ele>366.0</ele><time>2026-04-12T10:16:56.847Z</time></trkpt><trkpt lat="43.5906295" lon="6.875437"><ele>366.0</ele><time>2026-04-12T10:16:59.845Z</time></trkpt><trkpt lat="43.5905577" lon="6.8754974"><ele>366.0</ele><time>2026-04-12T10:17:02.867Z</time></trkpt><trkpt lat="43.5904963" lon="6.8755657"><ele>366.0</ele><time>2026-04-12T10:17:05.888Z</time></trkpt><trkpt lat="43.5904432" lon="6.8756474"><ele>366.0</ele><time>2026-04-12T10:17:08.877Z</time></trkpt><trkpt lat="43.5903956" lon="6.8757261"><ele>366.0</ele><time>2026-04-12T10:17:12.87Z</time></trkpt><trkpt lat="43.5903305" lon="6.8758161"><ele>366.0</ele><time>2026-04-12T10:17:15.856Z</time></trkpt><trkpt lat="43.5902673" lon="6.8758894"><ele>366.8571428571429</ele><time>2026-04-12T10:17:18.861Z</time></trkpt><trkpt lat="43.5901977" lon="6.8759575"><ele>367.7142857142857</ele><time>2026-04-12T10:17:21.849Z</time></trkpt><trkpt lat="43.5901501" lon="6.8760353"><ele>368.57142857142856</ele><time>2026-04-12T10:17:23.876Z</time></trkpt><trkpt lat="43.5900947" lon="6.8761029"><ele>369.42857142857144</ele><time>2026-04-12T10:17:25.854Z</time></trkpt><trkpt lat="43.5900479" lon="6.8761686"><ele>370.2857142857143</ele><time>2026-04-12T10:17:27.868Z</time></trkpt><trkpt lat="43.5900032" lon="6.8762389"><ele>371.14285714285717</ele><time>2026-04-12T10:17:29.85Z</time></trkpt><trkpt lat="43.589948" lon="6.876306"><ele>372.0</ele><time>2026-04-12T10:17:31.874Z</time></trkpt><trkpt lat="43.5898831" lon="6.8763706"><ele>372.0</ele><time>2026-04-12T10:17:33.889Z</time></trkpt><trkpt lat="43.5898188" lon="6.8764451"><ele>372.0</ele><time>2026-04-12T10:17:35.846Z</time></trkpt><trkpt lat="43.5897512" lon="6.8765275"><ele>372.0</ele><time>2026-04-12T10:17:37.988Z</time></trkpt><trkpt lat="43.5896834" lon="6.8766006"><ele>372.0</ele><time>2026-04-12T10:17:39.877Z</time></trkpt><trkpt lat="43.5896137" lon="6.876678"><ele>372.0</ele><time>2026-04-12T10:17:41.841Z</time></trkpt><trkpt lat="43.589556" lon="6.8767656"><ele>372.0</ele><time>2026-04-12T10:17:43.847Z</time></trkpt><trkpt lat="43.5895193" lon="6.8768868"><ele>373.0</ele><time>2026-04-12T10:17:45.855Z</time></trkpt><trkpt lat="43.5894869" lon="6.8770247"><ele>374.0</ele><time>2026-04-12T10:17:47.878Z</time></trkpt><trkpt lat="43.5894663" lon="6.8772004"><ele>375.0</ele><time>2026-04-12T10:17:49.895Z</time></trkpt><trkpt lat="43.5894531" lon="6.8772963"><ele>376.0</ele><time>2026-04-12T10:17:50.833Z</time></trkpt><trkpt lat="43.5894277" lon="6.8773907"><ele>377.0</ele><time>2026-04-12T10:17:51.86Z</time></trkpt><trkpt lat="43.5893933" lon="6.877477"><ele>378.0</ele><time>2026-04-12T10:17:52.862Z</time></trkpt><trkpt lat="43.5893549" lon="6.8775645"><ele>375.1666666666667</ele><time>2026-04-12T10:17:53.845Z</time></trkpt><trkpt lat="43.5893023" lon="6.8776479"><ele>372.3333333333333</ele><time>2026-04-12T10:17:54.825Z</time></trkpt><trkpt lat="43.5892472" lon="6.8777229"><ele>369.5</ele><time>2026-04-12T10:17:55.878Z</time></trkpt><trkpt lat="43.5891881" lon="6.8777988"><ele>366.66666666666663</ele><time>2026-04-12T10:17:56.851Z</time></trkpt><trkpt lat="43.5891205" lon="6.8778727"><ele>363.8333333333333</ele><time>2026-04-12T10:17:57.885Z</time></trkpt><trkpt lat="43.5890495" lon="6.8779444"><ele>361.0</ele><time>2026-04-12T10:17:58.838Z</time></trkpt><trkpt lat="43.5889832" lon="6.8780172"><ele>361.0</ele><time>2026-04-12T10:17:59.846Z</time></trkpt><trkpt lat="43.5889203" lon="6.8780882"><ele>361.0</ele><time>2026-04-12T10:18:00.873Z</time></trkpt><trkpt lat="43.5888616" lon="6.8781585"><ele>361.0</ele><time>2026-04-12T10:18:01.861Z</time></trkpt><trkpt lat="43.5888015" lon="6.8782341"><ele>361.0</ele><time>2026-04-12T10:18:02.865Z</time></trkpt><trkpt lat="43.5887579" lon="6.8783249"><ele>361.0</ele><time>2026-04-12T10:18:03.866Z</time></trkpt><trkpt lat="43.5887229" lon="6.8784274"><ele>361.0</ele><time>2026-04-12T10:18:04.844Z</time></trkpt><trkpt lat="43.5887193" lon="6.8785396"><ele>360.0</ele><time>2026-04-12T10:18:05.836Z</time></trkpt><trkpt lat="43.5887431" lon="6.8786716"><ele>359.0</ele><time>2026-04-12T10:18:06.87Z</time></trkpt><trkpt lat="43.5888035" lon="6.8787814"><ele>358.0</ele><time>2026-04-12T10:18:07.881Z</time></trkpt><trkpt lat="43.5888691" lon="6.8788911"><ele>357.0</ele><time>2026-04-12T10:18:08.84Z</time></trkpt><trkpt lat="43.5889315" lon="6.8789932"><ele>356.0</ele><time>2026-04-12T10:18:09.852Z</time></trkpt><trkpt lat="43.5889853" lon="6.8791028"><ele>356.0</ele><time>2026-04-12T10:18:10.857Z</time></trkpt><trkpt lat="43.5890318" lon="6.8792192"><ele>356.0</ele><time>2026-04-12T10:18:11.857Z</time></trkpt><trkpt lat="43.5890626" lon="6.8793416"><ele>356.0</ele><time>2026-04-12T10:18:12.887Z</time></trkpt><trkpt lat="43.5890752" lon="6.8794552"><ele>356.0</ele><time>2026-04-12T10:18:13.822Z</time></trkpt><trkpt lat="43.5890571" lon="6.879575"><ele>356.0</ele><time>2026-04-12T10:18:14.891Z</time></trkpt><trkpt lat="43.5890166" lon="6.879681"><ele>356.0</ele><time>2026-04-12T10:18:15.876Z</time></trkpt><trkpt lat="43.5889546" lon="6.8797734"><ele>353.6</ele><time>2026-04-12T10:18:16.882Z</time></trkpt><trkpt lat="43.5888819" lon="6.8798545"><ele>351.20000000000005</ele><time>2026-04-12T10:18:17.872Z</time></trkpt><trkpt lat="43.5888066" lon="6.8799471"><ele>348.79999999999995</ele><time>2026-04-12T10:18:18.849Z</time></trkpt><trkpt lat="43.5887341" lon="6.880043"><ele>346.4</ele><time>2026-04-12T10:18:19.867Z</time></trkpt><trkpt lat="43.5886674" lon="6.8801384"><ele>344.0</ele><time>2026-04-12T10:18:20.879Z</time></trkpt><trkpt lat="43.5885949" lon="6.8802189"><ele>342.2</ele><time>2026-04-12T10:18:21.856Z</time></trkpt><trkpt lat="43.5885" lon="6.8802888"><ele>340.4</ele><time>2026-04-12T10:18:22.873Z</time></trkpt><trkpt lat="43.5883989" lon="6.8803396"><ele>338.6</ele><time>2026-04-12T10:18:23.87Z</time></trkpt><trkpt lat="43.5882959" lon="6.880391"><ele>336.8</ele><time>2026-04-12T10:18:24.856Z</time></trkpt><trkpt lat="43.588198" lon="6.8804468"><ele>335.0</ele><time>2026-04-12T10:18:25.868Z</time></trkpt><trkpt lat="43.5880987" lon="6.880519"><ele>335.0</ele><time>2026-04-12T10:18:26.864Z</time></trkpt><trkpt lat="43.5879964" lon="6.8805939"><ele>335.0</ele><time>2026-04-12T10:18:27.864Z</time></trkpt><trkpt lat="43.5878978" lon="6.8806722"><ele>335.0</ele><time>2026-04-12T10:18:28.878Z</time></trkpt><trkpt lat="43.5878017" lon="6.8807431"><ele>335.0</ele><time>2026-04-12T10:18:29.868Z</time></trkpt><trkpt lat="43.5877025" lon="6.8808097"><ele>335.0</ele><time>2026-04-12T10:18:30.852Z</time></trkpt><trkpt lat="43.5876088" lon="6.8808781"><ele>336.4</ele><time>2026-04-12T10:18:31.875Z</time></trkpt><trkpt lat="43.5875223" lon="6.8809367"><ele>337.8</ele><time>2026-04-12T10:18:32.85Z</time></trkpt><trkpt lat="43.5874442" lon="6.8809895"><ele>339.20000000000005</ele><time>2026-04-12T10:18:33.872Z</time></trkpt><trkpt lat="43.5873736" lon="6.8810686"><ele>340.6</ele><time>2026-04-12T10:18:34.851Z</time></trkpt><trkpt lat="43.5873275" lon="6.8811816"><ele>342.0</ele><time>2026-04-12T10:18:35.862Z</time></trkpt><trkpt lat="43.5872971" lon="6.8813242"><ele>342.0</ele><time>2026-04-12T10:18:36.852Z</time></trkpt><trkpt lat="43.5873077" lon="6.8814656"><ele>342.0</ele><time>2026-04-12T10:18:37.868Z</time></trkpt><trkpt lat="43.5873306" lon="6.8816082"><ele>342.0</ele><time>2026-04-12T10:18:38.857Z</time></trkpt><trkpt lat="43.5873615" lon="6.8817536"><ele>342.0</ele><time>2026-04-12T10:18:39.88Z</time></trkpt><trkpt lat="43.5874038" lon="6.8818939"><ele>342.0</ele><time>2026-04-12T10:18:40.841Z</time></trkpt><trkpt lat="43.5874621" lon="6.8820349"><ele>343.75</ele><time>2026-04-12T10:18:41.855Z</time></trkpt><trkpt lat="43.5875253" lon="6.8821606"><ele>345.5</ele><time>2026-04-12T10:18:42.863Z</time></trkpt><trkpt lat="43.5876032" lon="6.882281"><ele>347.25</ele><time>2026-04-12T10:18:43.87Z</time></trkpt><trkpt lat="43.5876862" lon="6.8823825"><ele>349.0</ele><time>2026-04-12T10:18:44.878Z</time></trkpt><trkpt lat="43.5877774" lon="6.8824762"><ele>341.8</ele><time>2026-04-12T10:18:45.851Z</time></trkpt><trkpt lat="43.5878586" lon="6.8825711"><ele>334.59999999999997</ele><time>2026-04-12T10:18:46.88Z</time></trkpt><trkpt lat="43.5879374" lon="6.8826674"><ele>327.4</ele><time>2026-04-12T10:18:47.857Z</time></trkpt><trkpt lat="43.5880076" lon="6.8827644"><ele>320.2</ele><time>2026-04-12T10:18:48.828Z</time></trkpt><trkpt lat="43.5880541" lon="6.8828746"><ele>313.0</ele><time>2026-04-12T10:18:49.884Z</time></trkpt><trkpt lat="43.5880784" lon="6.8830028"><ele>313.0</ele><time>2026-04-12T10:18:50.875Z</time></trkpt><trkpt lat="43.5880839" lon="6.8831309"><ele>313.0</ele><time>2026-04-12T10:18:51.856Z</time></trkpt><trkpt lat="43.5880624" lon="6.8832594"><ele>313.0</ele><time>2026-04-12T10:18:52.872Z</time></trkpt><trkpt lat="43.5880155" lon="6.8833739"><ele>313.0</ele><time>2026-04-12T10:18:53.841Z</time></trkpt><trkpt lat="43.5879498" lon="6.8834709"><ele>313.0</ele><time>2026-04-12T10:18:54.857Z</time></trkpt><trkpt lat="43.5878931" lon="6.8835766"><ele>316.0</ele><time>2026-04-12T10:18:55.848Z</time></trkpt><trkpt lat="43.5878343" lon="6.8836944"><ele>319.0</ele><time>2026-04-12T10:18:56.863Z</time></trkpt><trkpt lat="43.5877938" lon="6.8838199"><ele>322.0</ele><time>2026-04-12T10:18:57.854Z</time></trkpt><trkpt lat="43.5877549" lon="6.8839486"><ele>325.0</ele><time>2026-04-12T10:18:58.852Z</time></trkpt><trkpt lat="43.5877122" lon="6.8840795"><ele>328.0</ele><time>2026-04-12T10:18:59.85Z</time></trkpt><trkpt lat="43.5876542" lon="6.8842012"><ele>322.59999999999997</ele><time>2026-04-12T10:19:00.887Z</time></trkpt><trkpt lat="43.5875798" lon="6.8842999"><ele>317.2</ele><time>2026-04-12T10:19:01.842Z</time></trkpt><trkpt lat="43.5874949" lon="6.8843914"><ele>311.8</ele><time>2026-04-12T10:19:02.867Z</time></trkpt><trkpt lat="43.5873942" lon="6.8844768"><ele>306.4</ele><time>2026-04-12T10:19:03.854Z</time></trkpt><trkpt lat="43.5873031" lon="6.8845481"><ele>301.0</ele><time>2026-04-12T10:19:04.862Z</time></trkpt><trkpt lat="43.58722" lon="6.8846229"><ele>301.0</ele><time>2026-04-12T10:19:05.869Z</time></trkpt><trkpt lat="43.5871335" lon="6.8846968"><ele>301.0</ele><time>2026-04-12T10:19:06.859Z</time></trkpt><trkpt lat="43.5870456" lon="6.8847633"><ele>301.0</ele><time>2026-04-12T10:19:07.848Z</time></trkpt><trkpt lat="43.5869394" lon="6.8848086"><ele>301.0</ele><time>2026-04-12T10:19:08.892Z</time></trkpt><trkpt lat="43.5868252" lon="6.8848255"><ele>301.0</ele><time>2026-04-12T10:19:09.854Z</time></trkpt><trkpt lat="43.5867159" lon="6.8848372"><ele>298.0</ele><time>2026-04-12T10:19:10.875Z</time></trkpt><trkpt lat="43.5866201" lon="6.8848854"><ele>295.0</ele><time>2026-04-12T10:19:11.874Z</time></trkpt><trkpt lat="43.5865424" lon="6.8849712"><ele>292.0</ele><time>2026-04-12T10:19:12.821Z</time></trkpt><trkpt lat="43.586459" lon="6.8850564"><ele>289.0</ele><time>2026-04-12T10:19:13.868Z</time></trkpt><trkpt lat="43.5863801" lon="6.8851378"><ele>286.0</ele><time>2026-04-12T10:19:14.853Z</time></trkpt><trkpt lat="43.5863082" lon="6.8852212"><ele>286.0</ele><time>2026-04-12T10:19:15.849Z</time></trkpt><trkpt lat="43.5862597" lon="6.8853227"><ele>286.0</ele><time>2026-04-12T10:19:16.869Z</time></trkpt><trkpt lat="43.5862258" lon="6.8854414"><ele>286.0</ele><time>2026-04-12T10:19:17.867Z</time></trkpt><trkpt lat="43.586194" lon="6.8855488"><ele>286.0</ele><time>2026-04-12T10:19:18.856Z</time></trkpt><trkpt lat="43.5861477" lon="6.8856533"><ele>286.0</ele><time>2026-04-12T10:19:19.86Z</time></trkpt><trkpt lat="43.5860809" lon="6.8857274"><ele>286.0</ele><time>2026-04-12T10:19:20.863Z</time></trkpt><trkpt lat="43.5860017" lon="6.8857952"><ele>284.40000000000003</ele><time>2026-04-12T10:19:21.871Z</time></trkpt><trkpt lat="43.5859152" lon="6.8858454"><ele>282.8</ele><time>2026-04-12T10:19:22.864Z</time></trkpt><trkpt lat="43.5858253" lon="6.8858957"><ele>281.20000000000005</ele><time>2026-04-12T10:19:23.856Z</time></trkpt><trkpt lat="43.5857426" lon="6.8859536"><ele>279.6</ele><time>2026-04-12T10:19:24.867Z</time></trkpt><trkpt lat="43.5856576" lon="6.8860168"><ele>278.0</ele><time>2026-04-12T10:19:25.871Z</time></trkpt><trkpt lat="43.5855586" lon="6.8860579"><ele>278.0</ele><time>2026-04-12T10:19:26.843Z</time></trkpt><trkpt lat="43.5854631" lon="6.8861008"><ele>278.0</ele><time>2026-04-12T10:19:27.854Z</time></trkpt><trkpt lat="43.585359" lon="6.8861451"><ele>278.0</ele><time>2026-04-12T10:19:28.844Z</time></trkpt><trkpt lat="43.5852478" lon="6.8861807"><ele>278.0</ele><time>2026-04-12T10:19:29.86Z</time></trkpt><trkpt lat="43.5851384" lon="6.8862141"><ele>278.0</ele><time>2026-04-12T10:19:30.827Z</time></trkpt><trkpt lat="43.5850472" lon="6.8862447"><ele>281.33333333333337</ele><time>2026-04-12T10:19:31.887Z</time></trkpt><trkpt lat="43.5849583" lon="6.8862691"><ele>284.6666666666667</ele><time>2026-04-12T10:19:32.887Z</time></trkpt><trkpt lat="43.584874" lon="6.8862958"><ele>288.0</ele><time>2026-04-12T10:19:33.862Z</time></trkpt><trkpt lat="43.5847984" lon="6.8863164"><ele>291.3333333333333</ele><time>2026-04-12T10:19:34.844Z</time></trkpt><trkpt lat="43.5847335" lon="6.8863509"><ele>294.66666666666663</ele><time>2026-04-12T10:19:35.845Z</time></trkpt><trkpt lat="43.5846688" lon="6.8864156"><ele>298.0</ele><time>2026-04-12T10:19:36.832Z</time></trkpt><trkpt lat="43.584627" lon="6.8865155"><ele>298.0</ele><time>2026-04-12T10:19:37.857Z</time></trkpt><trkpt lat="43.5846115" lon="6.886625"><ele>298.0</ele><time>2026-04-12T10:19:38.867Z</time></trkpt><trkpt lat="43.584625" lon="6.8867255"><ele>298.0</ele><time>2026-04-12T10:19:39.821Z</time></trkpt><trkpt lat="43.5846711" lon="6.8868198"><ele>298.0</ele><time>2026-04-12T10:19:40.888Z</time></trkpt><trkpt lat="43.5847302" lon="6.8869044"><ele>298.0</ele><time>2026-04-12T10:19:41.87Z</time></trkpt><trkpt lat="43.5847967" lon="6.8869686"><ele>298.0</ele><time>2026-04-12T10:19:42.847Z</time></trkpt><trkpt lat="43.5848617" lon="6.8870384"><ele>297.16666666666663</ele><time>2026-04-12T10:19:43.899Z</time></trkpt><trkpt lat="43.5849139" lon="6.8871239"><ele>296.3333333333333</ele><time>2026-04-12T10:19:44.819Z</time></trkpt><trkpt lat="43.5849555" lon="6.8872188"><ele>295.5</ele><time>2026-04-12T10:19:45.851Z</time></trkpt><trkpt lat="43.5849643" lon="6.8873459"><ele>294.6666666666667</ele><time>2026-04-12T10:19:46.822Z</time></trkpt><trkpt lat="43.5849542" lon="6.8874686"><ele>293.83333333333337</ele><time>2026-04-12T10:19:47.818Z</time></trkpt><trkpt lat="43.5849374" lon="6.8875826"><ele>293.0</ele><time>2026-04-12T10:19:48.828Z</time></trkpt><trkpt lat="43.5849138" lon="6.8876833"><ele>292.83333333333337</ele><time>2026-04-12T10:19:49.816Z</time></trkpt><trkpt lat="43.5848949" lon="6.8877703"><ele>292.6666666666667</ele><time>2026-04-12T10:19:50.819Z</time></trkpt><trkpt lat="43.5848679" lon="6.887862"><ele>292.5</ele><time>2026-04-12T10:19:51.83Z</time></trkpt><trkpt lat="43.5848204" lon="6.8880107"><ele>292.3333333333333</ele><time>2026-04-12T10:19:53.834Z</time></trkpt><trkpt lat="43.584782" lon="6.8880951"><ele>292.16666666666663</ele><time>2026-04-12T10:19:54.824Z</time></trkpt><trkpt lat="43.5847618" lon="6.8881901"><ele>292.0</ele><time>2026-04-12T10:19:55.851Z</time></trkpt><trkpt lat="43.5847417" lon="6.8882964"><ele>292.0</ele><time>2026-04-12T10:19:56.824Z</time></trkpt><trkpt lat="43.5847222" lon="6.888394"><ele>292.0</ele><time>2026-04-12T10:19:57.834Z</time></trkpt><trkpt lat="43.5847078" lon="6.8884814"><ele>292.0</ele><time>2026-04-12T10:19:58.84Z</time></trkpt><trkpt lat="43.5847002" lon="6.8885738"><ele>292.0</ele><time>2026-04-12T10:19:59.83Z</time></trkpt><trkpt lat="43.5846939" lon="6.8886717"><ele>292.0</ele><time>2026-04-12T10:20:00.85Z</time></trkpt><trkpt lat="43.584697" lon="6.8887787"><ele>292.0</ele><time>2026-04-12T10:20:01.841Z</time></trkpt><trkpt lat="43.5847073" lon="6.8888746"><ele>292.0</ele><time>2026-04-12T10:20:02.854Z</time></trkpt><trkpt lat="43.5847324" lon="6.888964"><ele>293.0</ele><time>2026-04-12T10:20:03.852Z</time></trkpt><trkpt lat="43.5847731" lon="6.8890477"><ele>294.0</ele><time>2026-04-12T10:20:04.83Z</time></trkpt><trkpt lat="43.5848304" lon="6.8891073"><ele>295.0</ele><time>2026-04-12T10:20:05.852Z</time></trkpt><trkpt lat="43.5848792" lon="6.8891637"><ele>296.0</ele><time>2026-04-12T10:20:06.856Z</time></trkpt><trkpt lat="43.5849328" lon="6.8892201"><ele>297.0</ele><time>2026-04-12T10:20:07.851Z</time></trkpt><trkpt lat="43.5849826" lon="6.8892975"><ele>298.0</ele><time>2026-04-12T10:20:08.838Z</time></trkpt><trkpt lat="43.5850221" lon="6.8893839"><ele>299.0</ele><time>2026-04-12T10:20:09.839Z</time></trkpt><trkpt lat="43.5850399" lon="6.8894805"><ele>300.1666666666667</ele><time>2026-04-12T10:20:10.839Z</time></trkpt><trkpt lat="43.5850322" lon="6.8895756"><ele>301.33333333333337</ele><time>2026-04-12T10:20:11.834Z</time></trkpt><trkpt lat="43.5850112" lon="6.8896589"><ele>302.5</ele><time>2026-04-12T10:20:12.853Z</time></trkpt><trkpt lat="43.5849642" lon="6.8898085"><ele>303.6666666666667</ele><time>2026-04-12T10:20:14.856Z</time></trkpt><trkpt lat="43.5849403" lon="6.8898894"><ele>304.8333333333333</ele><time>2026-04-12T10:20:15.856Z</time></trkpt><trkpt lat="43.5849229" lon="6.8899751"><ele>306.0</ele><time>2026-04-12T10:20:16.873Z</time></trkpt><trkpt lat="43.584919" lon="6.8901441"><ele>307.5</ele><time>2026-04-12T10:20:18.869Z</time></trkpt><trkpt lat="43.5849247" lon="6.890232"><ele>309.0</ele><time>2026-04-12T10:20:19.883Z</time></trkpt><trkpt lat="43.5849367" lon="6.8903205"><ele>310.5</ele><time>2026-04-12T10:20:20.82Z</time></trkpt><trkpt lat="43.5849546" lon="6.8904092"><ele>312.0</ele><time>2026-04-12T10:20:21.877Z</time></trkpt><trkpt lat="43.5850582" lon="6.8905391"><ele>313.5</ele><time>2026-04-12T10:20:23.872Z</time></trkpt><trkpt lat="43.585117" lon="6.8906083"><ele>315.0</ele><time>2026-04-12T10:20:24.874Z</time></trkpt><trkpt lat="43.5851702" lon="6.8906901"><ele>315.0</ele><time>2026-04-12T10:20:25.86Z</time></trkpt><trkpt lat="43.5852187" lon="6.8907704"><ele>315.0</ele><time>2026-04-12T10:20:26.871Z</time></trkpt><trkpt lat="43.5852781" lon="6.8908487"><ele>315.0</ele><time>2026-04-12T10:20:27.871Z</time></trkpt><trkpt lat="43.5853394" lon="6.8909203"><ele>315.0</ele><time>2026-04-12T10:20:28.862Z</time></trkpt><trkpt lat="43.585396" lon="6.8909878"><ele>315.0</ele><time>2026-04-12T10:20:29.855Z</time></trkpt><trkpt lat="43.5854607" lon="6.8910601"><ele>315.0</ele><time>2026-04-12T10:20:30.891Z</time></trkpt><trkpt lat="43.5855177" lon="6.8911358"><ele>310.0</ele><time>2026-04-12T10:20:31.852Z</time></trkpt><trkpt lat="43.5855728" lon="6.8912187"><ele>305.0</ele><time>2026-04-12T10:20:32.869Z</time></trkpt><trkpt lat="43.5856247" lon="6.8913068"><ele>300.0</ele><time>2026-04-12T10:20:33.853Z</time></trkpt><trkpt lat="43.5856587" lon="6.8914101"><ele>295.0</ele><time>2026-04-12T10:20:34.85Z</time></trkpt><trkpt lat="43.5856887" lon="6.8915269"><ele>290.0</ele><time>2026-04-12T10:20:35.884Z</time></trkpt><trkpt lat="43.5857028" lon="6.8916407"><ele>285.0</ele><time>2026-04-12T10:20:36.861Z</time></trkpt><trkpt lat="43.5857007" lon="6.8917507"><ele>285.1666666666667</ele><time>2026-04-12T10:20:37.878Z</time></trkpt><trkpt lat="43.5857128" lon="6.8918522"><ele>285.3333333333333</ele><time>2026-04-12T10:20:38.85Z</time></trkpt><trkpt lat="43.585747" lon="6.8919483"><ele>285.5</ele><time>2026-04-12T10:20:39.87Z</time></trkpt><trkpt lat="43.5857871" lon="6.8920387"><ele>285.66666666666663</ele><time>2026-04-12T10:20:40.877Z</time></trkpt><trkpt lat="43.5858271" lon="6.8921416"><ele>285.8333333333333</ele><time>2026-04-12T10:20:41.856Z</time></trkpt><trkpt lat="43.5858616" lon="6.8922485"><ele>286.0</ele><time>2026-04-12T10:20:42.843Z</time></trkpt><trkpt lat="43.5858929" lon="6.8923547"><ele>286.0</ele><time>2026-04-12T10:20:43.83Z</time></trkpt><trkpt lat="43.5859011" lon="6.89246"><ele>286.0</ele><time>2026-04-12T10:20:44.861Z</time></trkpt><trkpt lat="43.5858783" lon="6.8925629"><ele>286.0</ele><time>2026-04-12T10:20:45.873Z</time></trkpt><trkpt lat="43.5858366" lon="6.8926502"><ele>286.0</ele><time>2026-04-12T10:20:46.852Z</time></trkpt><trkpt lat="43.585775" lon="6.8926984"><ele>286.0</ele><time>2026-04-12T10:20:47.858Z</time></trkpt><trkpt lat="43.5856997" lon="6.8927328"><ele>286.0</ele><time>2026-04-12T10:20:48.876Z</time></trkpt><trkpt lat="43.5856281" lon="6.8927752"><ele>284.0</ele><time>2026-04-12T10:20:49.838Z</time></trkpt><trkpt lat="43.5855666" lon="6.8928375"><ele>282.0</ele><time>2026-04-12T10:20:50.877Z</time></trkpt><trkpt lat="43.5855098" lon="6.892892"><ele>280.0</ele><time>2026-04-12T10:20:51.862Z</time></trkpt><trkpt lat="43.5854439" lon="6.8929451"><ele>278.0</ele><time>2026-04-12T10:20:52.855Z</time></trkpt><trkpt lat="43.5853626" lon="6.89299"><ele>276.0</ele><time>2026-04-12T10:20:53.867Z</time></trkpt><trkpt lat="43.5852826" lon="6.8930156"><ele>274.0</ele><time>2026-04-12T10:20:54.837Z</time></trkpt><trkpt lat="43.5852103" lon="6.8930409"><ele>279.4</ele><time>2026-04-12T10:20:55.865Z</time></trkpt><trkpt lat="43.5851497" lon="6.893068"><ele>284.79999999999995</ele><time>2026-04-12T10:20:56.825Z</time></trkpt><trkpt lat="43.5850715" lon="6.8932244"><ele>290.20000000000005</ele><time>2026-04-12T10:20:58.848Z</time></trkpt><trkpt lat="43.5850768" lon="6.8933395"><ele>295.6</ele><time>2026-04-12T10:20:59.854Z</time></trkpt><trkpt lat="43.5851099" lon="6.8934546"><ele>301.0</ele><time>2026-04-12T10:21:00.839Z</time></trkpt><trkpt lat="43.5851695" lon="6.8935453"><ele>302.0</ele><time>2026-04-12T10:21:01.848Z</time></trkpt><trkpt lat="43.5852389" lon="6.8935997"><ele>303.0</ele><time>2026-04-12T10:21:02.865Z</time></trkpt><trkpt lat="43.5853255" lon="6.8936474"><ele>304.0</ele><time>2026-04-12T10:21:03.863Z</time></trkpt><trkpt lat="43.5854056" lon="6.8936886"><ele>305.0</ele><time>2026-04-12T10:21:04.831Z</time></trkpt><trkpt lat="43.5854896" lon="6.8937347"><ele>306.0</ele><time>2026-04-12T10:21:05.853Z</time></trkpt><trkpt lat="43.5855635" lon="6.8937812"><ele>307.0</ele><time>2026-04-12T10:21:06.876Z</time></trkpt><trkpt lat="43.5856382" lon="6.8938377"><ele>302.3333333333333</ele><time>2026-04-12T10:21:07.865Z</time></trkpt><trkpt lat="43.5857069" lon="6.8939006"><ele>297.66666666666663</ele><time>2026-04-12T10:21:08.866Z</time></trkpt><trkpt lat="43.5857689" lon="6.8939772"><ele>293.0</ele><time>2026-04-12T10:21:09.86Z</time></trkpt><trkpt lat="43.5858256" lon="6.8940605"><ele>288.3333333333333</ele><time>2026-04-12T10:21:10.866Z</time></trkpt><trkpt lat="43.5858705" lon="6.894152"><ele>283.6666666666667</ele><time>2026-04-12T10:21:11.838Z</time></trkpt><trkpt lat="43.5859023" lon="6.8942544"><ele>279.0</ele><time>2026-04-12T10:21:12.849Z</time></trkpt><trkpt lat="43.5859152" lon="6.8943592"><ele>279.0</ele><time>2026-04-12T10:21:13.884Z</time></trkpt><trkpt lat="43.585905" lon="6.8944679"><ele>279.0</ele><time>2026-04-12T10:21:14.858Z</time></trkpt><trkpt lat="43.5858792" lon="6.8945664"><ele>279.0</ele><time>2026-04-12T10:21:15.869Z</time></trkpt><trkpt lat="43.5858326" lon="6.8946513"><ele>279.0</ele><time>2026-04-12T10:21:16.844Z</time></trkpt><trkpt lat="43.585785" lon="6.8947325"><ele>279.0</ele><time>2026-04-12T10:21:17.856Z</time></trkpt><trkpt lat="43.5857465" lon="6.8948167"><ele>279.0</ele><time>2026-04-12T10:21:18.839Z</time></trkpt><trkpt lat="43.5857213" lon="6.894921"><ele>279.0</ele><time>2026-04-12T10:21:19.826Z</time></trkpt><trkpt lat="43.5857047" lon="6.8950278"><ele>279.0</ele><time>2026-04-12T10:21:20.863Z</time></trkpt><trkpt lat="43.5856862" lon="6.8951317"><ele>279.0</ele><time>2026-04-12T10:21:21.847Z</time></trkpt><trkpt lat="43.5856512" lon="6.8952302"><ele>279.0</ele><time>2026-04-12T10:21:22.883Z</time></trkpt><trkpt lat="43.5856082" lon="6.8953156"><ele>279.0</ele><time>2026-04-12T10:21:23.84Z</time></trkpt><trkpt lat="43.5855512" lon="6.8953824"><ele>279.0</ele><time>2026-04-12T10:21:24.864Z</time></trkpt><trkpt lat="43.585483" lon="6.89544"><ele>276.6666666666667</ele><time>2026-04-12T10:21:25.857Z</time></trkpt><trkpt lat="43.5854146" lon="6.895497"><ele>274.3333333333333</ele><time>2026-04-12T10:21:26.881Z</time></trkpt><trkpt lat="43.5853481" lon="6.8955513"><ele>272.0</ele><time>2026-04-12T10:21:27.849Z</time></trkpt><trkpt lat="43.585304" lon="6.8956217"><ele>269.66666666666663</ele><time>2026-04-12T10:21:28.851Z</time></trkpt><trkpt lat="43.5852682" lon="6.8957188"><ele>267.3333333333333</ele><time>2026-04-12T10:21:29.858Z</time></trkpt><trkpt lat="43.5852854" lon="6.8958073"><ele>265.0</ele><time>2026-04-12T10:21:30.854Z</time></trkpt><trkpt lat="43.5853275" lon="6.8959039"><ele>264.3333333333333</ele><time>2026-04-12T10:21:31.851Z</time></trkpt><trkpt lat="43.5853818" lon="6.8959898"><ele>263.66666666666663</ele><time>2026-04-12T10:21:32.875Z</time></trkpt><trkpt lat="43.5854316" lon="6.8960719"><ele>263.0</ele><time>2026-04-12T10:21:33.864Z</time></trkpt><trkpt lat="43.5854585" lon="6.8961624"><ele>262.3333333333333</ele><time>2026-04-12T10:21:34.876Z</time></trkpt><trkpt lat="43.5854728" lon="6.8962734"><ele>261.6666666666667</ele><time>2026-04-12T10:21:35.845Z</time></trkpt><trkpt lat="43.5854662" lon="6.8963889"><ele>261.0</ele><time>2026-04-12T10:21:36.861Z</time></trkpt><trkpt lat="43.5854464" lon="6.8964935"><ele>261.0</ele><time>2026-04-12T10:21:37.855Z</time></trkpt><trkpt lat="43.5853992" lon="6.8965854"><ele>261.0</ele><time>2026-04-12T10:21:38.853Z</time></trkpt><trkpt lat="43.5853494" lon="6.8966729"><ele>261.0</ele><time>2026-04-12T10:21:39.869Z</time></trkpt><trkpt lat="43.5853148" lon="6.8967777"><ele>261.0</ele><time>2026-04-12T10:21:40.854Z</time></trkpt><trkpt lat="43.5853111" lon="6.8968953"><ele>261.0</ele><time>2026-04-12T10:21:41.836Z</time></trkpt><trkpt lat="43.5853165" lon="6.8970106"><ele>261.0</ele><time>2026-04-12T10:21:42.869Z</time></trkpt><trkpt lat="43.5853024" lon="6.8971207"><ele>263.5</ele><time>2026-04-12T10:21:43.885Z</time></trkpt><trkpt lat="43.5852549" lon="6.8972315"><ele>266.0</ele><time>2026-04-12T10:21:44.861Z</time></trkpt><trkpt lat="43.5852086" lon="6.8973308"><ele>268.5</ele><time>2026-04-12T10:21:45.845Z</time></trkpt><trkpt lat="43.5851748" lon="6.8974295"><ele>271.0</ele><time>2026-04-12T10:21:46.86Z</time></trkpt><trkpt lat="43.585173" lon="6.8975374"><ele>273.5</ele><time>2026-04-12T10:21:47.894Z</time></trkpt><trkpt lat="43.5851772" lon="6.8976415"><ele>276.0</ele><time>2026-04-12T10:21:48.849Z</time></trkpt><trkpt lat="43.5851738" lon="6.8977343"><ele>276.0</ele><time>2026-04-12T10:21:49.86Z</time></trkpt><trkpt lat="43.5851462" lon="6.8978285"><ele>276.0</ele><time>2026-04-12T10:21:50.842Z</time></trkpt><trkpt lat="43.5851065" lon="6.8979167"><ele>276.0</ele><time>2026-04-12T10:21:51.864Z</time></trkpt><trkpt lat="43.5850682" lon="6.8980072"><ele>276.0</ele><time>2026-04-12T10:21:52.86Z</time></trkpt><trkpt lat="43.5850415" lon="6.8981049"><ele>276.0</ele><time>2026-04-12T10:21:53.87Z</time></trkpt><trkpt lat="43.5850465" lon="6.8981985"><ele>276.0</ele><time>2026-04-12T10:21:54.867Z</time></trkpt><trkpt lat="43.5850728" lon="6.8982997"><ele>276.0</ele><time>2026-04-12T10:21:55.871Z</time></trkpt><trkpt lat="43.5851176" lon="6.8983687"><ele>277.8333333333333</ele><time>2026-04-12T10:21:56.834Z</time></trkpt><trkpt lat="43.5851732" lon="6.8984293"><ele>279.6666666666667</ele><time>2026-04-12T10:21:57.817Z</time></trkpt><trkpt lat="43.5852293" lon="6.8984822"><ele>281.5</ele><time>2026-04-12T10:21:58.855Z</time></trkpt><trkpt lat="43.5852928" lon="6.8985195"><ele>283.33333333333337</ele><time>2026-04-12T10:21:59.863Z</time></trkpt><trkpt lat="43.5853598" lon="6.8985514"><ele>285.1666666666667</ele><time>2026-04-12T10:22:00.834Z</time></trkpt><trkpt lat="43.5854468" lon="6.8985573"><ele>287.0</ele><time>2026-04-12T10:22:02.851Z</time></trkpt><trkpt lat="43.5855284" lon="6.8985164"><ele>287.1666666666667</ele><time>2026-04-12T10:22:04.846Z</time></trkpt><trkpt lat="43.585583" lon="6.8984239"><ele>287.33333333333337</ele><time>2026-04-12T10:22:06.843Z</time></trkpt><trkpt lat="43.5856186" lon="6.8983397"><ele>287.5</ele><time>2026-04-12T10:22:08.867Z</time></trkpt><trkpt lat="43.5856574" lon="6.8982598"><ele>287.6666666666667</ele><time>2026-04-12T10:22:10.863Z</time></trkpt><trkpt lat="43.5857017" lon="6.8981956"><ele>287.8333333333333</ele><time>2026-04-12T10:22:12.852Z</time></trkpt><trkpt lat="43.5857726" lon="6.8981298"><ele>288.0</ele><time>2026-04-12T10:22:15.853Z</time></trkpt><trkpt lat="43.5858568" lon="6.8980877"><ele>288.0</ele><time>2026-04-12T10:22:18.865Z</time></trkpt><trkpt lat="43.585916" lon="6.8980571"><ele>288.0</ele><time>2026-04-12T10:22:20.844Z</time></trkpt><trkpt lat="43.5859797" lon="6.897989"><ele>288.0</ele><time>2026-04-12T10:22:23.86Z</time></trkpt><trkpt lat="43.5860125" lon="6.8979134"><ele>288.0</ele><time>2026-04-12T10:22:25.867Z</time></trkpt><trkpt lat="43.5860319" lon="6.8978155"><ele>288.0</ele><time>2026-04-12T10:22:27.865Z</time></trkpt><trkpt lat="43.5860537" lon="6.8976923"><ele>288.0</ele><time>2026-04-12T10:22:30.878Z</time></trkpt><trkpt lat="43.5861013" lon="6.8975856"><ele>289.1666666666667</ele><time>2026-04-12T10:22:33.867Z</time></trkpt><trkpt lat="43.586154" lon="6.8975001"><ele>290.3333333333333</ele><time>2026-04-12T10:22:36.866Z</time></trkpt><trkpt lat="43.58621" lon="6.897422"><ele>291.5</ele><time>2026-04-12T10:22:39.873Z</time></trkpt><trkpt lat="43.5862687" lon="6.8973592"><ele>292.66666666666663</ele><time>2026-04-12T10:22:42.836Z</time></trkpt><trkpt lat="43.5863384" lon="6.8973012"><ele>293.8333333333333</ele><time>2026-04-12T10:22:45.827Z</time></trkpt><trkpt lat="43.5864075" lon="6.8972469"><ele>295.0</ele><time>2026-04-12T10:22:48.854Z</time></trkpt><trkpt lat="43.5864859" lon="6.897182"><ele>295.0</ele><time>2026-04-12T10:22:51.834Z</time></trkpt><trkpt lat="43.5865487" lon="6.8971168"><ele>295.0</ele><time>2026-04-12T10:22:54.848Z</time></trkpt><trkpt lat="43.5866082" lon="6.8970629"><ele>295.0</ele><time>2026-04-12T10:22:57.847Z</time></trkpt><trkpt lat="43.5866707" lon="6.8970011"><ele>295.0</ele><time>2026-04-12T10:23:00.843Z</time></trkpt><trkpt lat="43.5867227" lon="6.8969194"><ele>295.0</ele><time>2026-04-12T10:23:03.853Z</time></trkpt><trkpt lat="43.5867713" lon="6.8968328"><ele>295.0</ele><time>2026-04-12T10:23:06.871Z</time></trkpt><trkpt lat="43.5868187" lon="6.8967429"><ele>294.0</ele><time>2026-04-12T10:23:09.845Z</time></trkpt><trkpt lat="43.5868715" lon="6.8966583"><ele>293.0</ele><time>2026-04-12T10:23:12.821Z</time></trkpt><trkpt lat="43.5869263" lon="6.896578"><ele>292.0</ele><time>2026-04-12T10:23:15.852Z</time></trkpt><trkpt lat="43.5869952" lon="6.8965019"><ele>291.0</ele><time>2026-04-12T10:23:18.846Z</time></trkpt><trkpt lat="43.5870742" lon="6.8964414"><ele>290.0</ele><time>2026-04-12T10:23:21.851Z</time></trkpt><trkpt lat="43.5871506" lon="6.8963715"><ele>289.0</ele><time>2026-04-12T10:23:24.866Z</time></trkpt><trkpt lat="43.5872394" lon="6.8963393"><ele>289.0</ele><time>2026-04-12T10:23:27.819Z</time></trkpt><trkpt lat="43.5873226" lon="6.8963687"><ele>289.0</ele><time>2026-04-12T10:23:30.87Z</time></trkpt><trkpt lat="43.5873767" lon="6.8964436"><ele>289.0</ele><time>2026-04-12T10:23:33.863Z</time></trkpt><trkpt lat="43.5874341" lon="6.8965281"><ele>289.0</ele><time>2026-04-12T10:23:36.847Z</time></trkpt><trkpt lat="43.587483" lon="6.8965915"><ele>289.0</ele><time>2026-04-12T10:23:39.876Z</time></trkpt><trkpt lat="43.5875341" lon="6.8966613"><ele>289.0</ele><time>2026-04-12T10:23:42.897Z</time></trkpt><trkpt lat="43.5875919" lon="6.8967091"><ele>289.0</ele><time>2026-04-12T10:23:45.86Z</time></trkpt><trkpt lat="43.5876719" lon="6.8967263"><ele>289.0</ele><time>2026-04-12T10:23:48.857Z</time></trkpt><trkpt lat="43.5877621" lon="6.8967057"><ele>289.0</ele><time>2026-04-12T10:23:51.873Z</time></trkpt><trkpt lat="43.5878441" lon="6.8966866"><ele>289.0</ele><time>2026-04-12T10:23:54.851Z</time></trkpt><trkpt lat="43.5879317" lon="6.8966707"><ele>289.0</ele><time>2026-04-12T10:23:57.865Z</time></trkpt><trkpt lat="43.5880058" lon="6.8966605"><ele>289.0</ele><time>2026-04-12T10:24:00.862Z</time></trkpt><trkpt lat="43.5880731" lon="6.8966295"><ele>289.0</ele><time>2026-04-12T10:24:03.891Z</time></trkpt><trkpt lat="43.5881336" lon="6.8965862"><ele>289.0</ele><time>2026-04-12T10:24:06.869Z</time></trkpt><trkpt lat="43.5882125" lon="6.896566"><ele>289.0</ele><time>2026-04-12T10:24:09.878Z</time></trkpt><trkpt lat="43.5883036" lon="6.896572"><ele>289.0</ele><time>2026-04-12T10:24:12.849Z</time></trkpt><trkpt lat="43.5883765" lon="6.8966149"><ele>289.0</ele><time>2026-04-12T10:24:15.85Z</time></trkpt><trkpt lat="43.5884463" lon="6.8966755"><ele>289.0</ele><time>2026-04-12T10:24:18.872Z</time></trkpt><trkpt lat="43.5885191" lon="6.896747"><ele>290.0</ele><time>2026-04-12T10:24:21.876Z</time></trkpt><trkpt lat="43.5885861" lon="6.8968208"><ele>291.0</ele><time>2026-04-12T10:24:24.858Z</time></trkpt><trkpt lat="43.5886334" lon="6.8969002"><ele>292.0</ele><time>2026-04-12T10:24:27.879Z</time></trkpt><trkpt lat="43.5886488" lon="6.8970011"><ele>293.0</ele><time>2026-04-12T10:24:30.842Z</time></trkpt><trkpt lat="43.5886511" lon="6.8971143"><ele>294.0</ele><time>2026-04-12T10:24:33.854Z</time></trkpt><trkpt lat="43.5886232" lon="6.8972183"><ele>295.0</ele><time>2026-04-12T10:24:35.861Z</time></trkpt><trkpt lat="43.5885673" lon="6.8973199"><ele>295.0</ele><time>2026-04-12T10:24:37.881Z</time></trkpt><trkpt lat="43.5885124" lon="6.8974357"><ele>295.0</ele><time>2026-04-12T10:24:39.86Z</time></trkpt><trkpt lat="43.5884558" lon="6.8975826"><ele>295.0</ele><time>2026-04-12T10:24:41.868Z</time></trkpt><trkpt lat="43.5884261" lon="6.8976693"><ele>295.0</ele><time>2026-04-12T10:24:42.871Z</time></trkpt><trkpt lat="43.5884" lon="6.897758"><ele>295.0</ele><time>2026-04-12T10:24:43.887Z</time></trkpt><trkpt lat="43.588373" lon="6.8978471"><ele>295.0</ele><time>2026-04-12T10:24:44.875Z</time></trkpt><trkpt lat="43.5883363" lon="6.8979383"><ele>292.66666666666663</ele><time>2026-04-12T10:24:45.836Z</time></trkpt><trkpt lat="43.5882974" lon="6.8980359"><ele>290.3333333333333</ele><time>2026-04-12T10:24:46.863Z</time></trkpt><trkpt lat="43.5882456" lon="6.8981256"><ele>288.0</ele><time>2026-04-12T10:24:47.878Z</time></trkpt><trkpt lat="43.5881854" lon="6.8982075"><ele>285.6666666666667</ele><time>2026-04-12T10:24:48.869Z</time></trkpt><trkpt lat="43.5881274" lon="6.8982894"><ele>283.33333333333337</ele><time>2026-04-12T10:24:49.884Z</time></trkpt><trkpt lat="43.5880892" lon="6.8983846"><ele>281.0</ele><time>2026-04-12T10:24:50.851Z</time></trkpt><trkpt lat="43.5880547" lon="6.8985046"><ele>277.8</ele><time>2026-04-12T10:24:51.887Z</time></trkpt><trkpt lat="43.588033" lon="6.8986403"><ele>274.6</ele><time>2026-04-12T10:24:52.858Z</time></trkpt><trkpt lat="43.5880184" lon="6.8987654"><ele>271.4</ele><time>2026-04-12T10:24:53.853Z</time></trkpt><trkpt lat="43.5879952" lon="6.8989041"><ele>268.2</ele><time>2026-04-12T10:24:54.875Z</time></trkpt><trkpt lat="43.587968" lon="6.8990424"><ele>265.0</ele><time>2026-04-12T10:24:55.863Z</time></trkpt><trkpt lat="43.5879498" lon="6.899177"><ele>263.5</ele><time>2026-04-12T10:24:56.86Z</time></trkpt><trkpt lat="43.587928" lon="6.8993078"><ele>262.0</ele><time>2026-04-12T10:24:57.86Z</time></trkpt><trkpt lat="43.5879143" lon="6.899427"><ele>260.5</ele><time>2026-04-12T10:24:58.847Z</time></trkpt><trkpt lat="43.5878825" lon="6.8995378"><ele>259.0</ele><time>2026-04-12T10:24:59.871Z</time></trkpt><trkpt lat="43.5878374" lon="6.8996365"><ele>257.5</ele><time>2026-04-12T10:25:00.858Z</time></trkpt><trkpt lat="43.5877923" lon="6.8997328"><ele>256.0</ele><time>2026-04-12T10:25:01.876Z</time></trkpt><trkpt lat="43.5877512" lon="6.8998396"><ele>263.6</ele><time>2026-04-12T10:25:02.891Z</time></trkpt><trkpt lat="43.5877302" lon="6.899956"><ele>271.20000000000005</ele><time>2026-04-12T10:25:03.853Z</time></trkpt><trkpt lat="43.5877329" lon="6.9000767"><ele>278.79999999999995</ele><time>2026-04-12T10:25:04.89Z</time></trkpt><trkpt lat="43.587747" lon="6.9001921"><ele>286.4</ele><time>2026-04-12T10:25:05.853Z</time></trkpt><trkpt lat="43.5877788" lon="6.9003185"><ele>294.0</ele><time>2026-04-12T10:25:06.859Z</time></trkpt><trkpt lat="43.5878269" lon="6.9004438"><ele>287.8</ele><time>2026-04-12T10:25:07.874Z</time></trkpt><trkpt lat="43.5878691" lon="6.9005692"><ele>281.59999999999997</ele><time>2026-04-12T10:25:08.858Z</time></trkpt><trkpt lat="43.5879126" lon="6.9006935"><ele>275.4</ele><time>2026-04-12T10:25:09.889Z</time></trkpt><trkpt lat="43.5879517" lon="6.9008118"><ele>269.2</ele><time>2026-04-12T10:25:10.82Z</time></trkpt><trkpt lat="43.5879851" lon="6.9009241"><ele>263.0</ele><time>2026-04-12T10:25:11.875Z</time></trkpt><trkpt lat="43.5880078" lon="6.9010384"><ele>263.0</ele><time>2026-04-12T10:25:12.871Z</time></trkpt><trkpt lat="43.5880007" lon="6.9011636"><ele>263.0</ele><time>2026-04-12T10:25:13.911Z</time></trkpt><trkpt lat="43.587987" lon="6.9012911"><ele>263.0</ele><time>2026-04-12T10:25:14.842Z</time></trkpt><trkpt lat="43.5879889" lon="6.9014155"><ele>263.0</ele><time>2026-04-12T10:25:15.855Z</time></trkpt><trkpt lat="43.5880039" lon="6.9015445"><ele>263.0</ele><time>2026-04-12T10:25:16.883Z</time></trkpt><trkpt lat="43.5880402" lon="6.9016642"><ele>265.2</ele><time>2026-04-12T10:25:17.858Z</time></trkpt><trkpt lat="43.5881072" lon="6.9017596"><ele>267.4</ele><time>2026-04-12T10:25:18.872Z</time></trkpt><trkpt lat="43.5881934" lon="6.9018427"><ele>269.59999999999997</ele><time>2026-04-12T10:25:19.88Z</time></trkpt><trkpt lat="43.5882878" lon="6.9019092"><ele>271.8</ele><time>2026-04-12T10:25:20.888Z</time></trkpt><trkpt lat="43.5883709" lon="6.9019828"><ele>274.0</ele><time>2026-04-12T10:25:21.848Z</time></trkpt><trkpt lat="43.5884616" lon="6.9020554"><ele>274.0</ele><time>2026-04-12T10:25:22.85Z</time></trkpt><trkpt lat="43.5885506" lon="6.9021321"><ele>274.0</ele><time>2026-04-12T10:25:23.848Z</time></trkpt><trkpt lat="43.588632" lon="6.902202"><ele>274.0</ele><time>2026-04-12T10:25:24.877Z</time></trkpt><trkpt lat="43.5887019" lon="6.902272"><ele>274.0</ele><time>2026-04-12T10:25:25.855Z</time></trkpt><trkpt lat="43.5887722" lon="6.9023305"><ele>274.0</ele><time>2026-04-12T10:25:26.854Z</time></trkpt><trkpt lat="43.5888398" lon="6.9023538"><ele>274.0</ele><time>2026-04-12T10:25:27.882Z</time></trkpt><trkpt lat="43.588908" lon="6.9023518"><ele>272.66666666666663</ele><time>2026-04-12T10:25:28.852Z</time></trkpt><trkpt lat="43.588992" lon="6.9022792"><ele>271.3333333333333</ele><time>2026-04-12T10:25:29.885Z</time></trkpt><trkpt lat="43.5890403" lon="6.9021744"><ele>270.0</ele><time>2026-04-12T10:25:30.863Z</time></trkpt><trkpt lat="43.5890807" lon="6.9020676"><ele>268.6666666666667</ele><time>2026-04-12T10:25:31.828Z</time></trkpt><trkpt lat="43.5891235" lon="6.9019604"><ele>267.33333333333337</ele><time>2026-04-12T10:25:32.875Z</time></trkpt><trkpt lat="43.5891734" lon="6.9018687"><ele>266.0</ele><time>2026-04-12T10:25:33.897Z</time></trkpt><trkpt lat="43.5892331" lon="6.9018006"><ele>266.0</ele><time>2026-04-12T10:25:34.887Z</time></trkpt><trkpt lat="43.5893036" lon="6.9017605"><ele>266.0</ele><time>2026-04-12T10:25:35.887Z</time></trkpt><trkpt lat="43.5893868" lon="6.9017592"><ele>266.0</ele><time>2026-04-12T10:25:36.873Z</time></trkpt><trkpt lat="43.5894713" lon="6.9017941"><ele>266.0</ele><time>2026-04-12T10:25:37.876Z</time></trkpt><trkpt lat="43.5895465" lon="6.9018498"><ele>266.0</ele><time>2026-04-12T10:25:38.882Z</time></trkpt><trkpt lat="43.5896153" lon="6.9019163"><ele>266.0</ele><time>2026-04-12T10:25:39.878Z</time></trkpt><trkpt lat="43.5896795" lon="6.9019896"><ele>263.40000000000003</ele><time>2026-04-12T10:25:40.874Z</time></trkpt><trkpt lat="43.5897601" lon="6.9020543"><ele>260.8</ele><time>2026-04-12T10:25:41.849Z</time></trkpt><trkpt lat="43.5898395" lon="6.9021208"><ele>258.20000000000005</ele><time>2026-04-12T10:25:42.885Z</time></trkpt><trkpt lat="43.5899223" lon="6.9021928"><ele>255.60000000000002</ele><time>2026-04-12T10:25:43.868Z</time></trkpt><trkpt lat="43.5900024" lon="6.9022752"><ele>253.0</ele><time>2026-04-12T10:25:44.863Z</time></trkpt><trkpt lat="43.5900743" lon="6.9023628"><ele>252.99999999999997</ele><time>2026-04-12T10:25:45.849Z</time></trkpt><trkpt lat="43.5901381" lon="6.9024537"><ele>253.0</ele><time>2026-04-12T10:25:46.859Z</time></trkpt><trkpt lat="43.590192" lon="6.9025517"><ele>253.0</ele><time>2026-04-12T10:25:47.877Z</time></trkpt><trkpt lat="43.5902226" lon="6.9026541"><ele>253.0</ele><time>2026-04-12T10:25:48.86Z</time></trkpt><trkpt lat="43.5902327" lon="6.9027653"><ele>252.99999999999997</ele><time>2026-04-12T10:25:49.863Z</time></trkpt><trkpt lat="43.5902419" lon="6.9028643"><ele>253.0</ele><time>2026-04-12T10:25:50.828Z</time></trkpt><trkpt lat="43.5902755" lon="6.9029502"><ele>252.33333333333331</ele><time>2026-04-12T10:25:51.886Z</time></trkpt><trkpt lat="43.590326" lon="6.9030246"><ele>251.66666666666666</ele><time>2026-04-12T10:25:52.843Z</time></trkpt><trkpt lat="43.5903976" lon="6.9030493"><ele>251.0</ele><time>2026-04-12T10:25:53.856Z</time></trkpt><trkpt lat="43.5904797" lon="6.9030505"><ele>250.33333333333331</ele><time>2026-04-12T10:25:54.844Z</time></trkpt><trkpt lat="43.5905591" lon="6.9030495"><ele>249.66666666666666</ele><time>2026-04-12T10:25:55.873Z</time></trkpt><trkpt lat="43.5906347" lon="6.9030438"><ele>249.0</ele><time>2026-04-12T10:25:56.875Z</time></trkpt><trkpt lat="43.5907182" lon="6.9030506"><ele>249.0</ele><time>2026-04-12T10:25:57.856Z</time></trkpt><trkpt lat="43.5908061" lon="6.9030801"><ele>249.0</ele><time>2026-04-12T10:25:58.881Z</time></trkpt><trkpt lat="43.5908912" lon="6.9031221"><ele>249.0</ele><time>2026-04-12T10:25:59.876Z</time></trkpt><trkpt lat="43.5909727" lon="6.9031529"><ele>249.0</ele><time>2026-04-12T10:26:00.88Z</time></trkpt><trkpt lat="43.5910547" lon="6.9031671"><ele>249.0</ele><time>2026-04-12T10:26:01.851Z</time></trkpt><trkpt lat="43.5911312" lon="6.903168"><ele>249.0</ele><time>2026-04-12T10:26:02.884Z</time></trkpt><trkpt lat="43.5912123" lon="6.9031723"><ele>248.16666666666666</ele><time>2026-04-12T10:26:03.855Z</time></trkpt><trkpt lat="43.5912936" lon="6.9031968"><ele>247.33333333333331</ele><time>2026-04-12T10:26:04.892Z</time></trkpt><trkpt lat="43.5913726" lon="6.9032459"><ele>246.5</ele><time>2026-04-12T10:26:05.881Z</time></trkpt><trkpt lat="43.5914504" lon="6.9033096"><ele>245.66666666666666</ele><time>2026-04-12T10:26:06.856Z</time></trkpt><trkpt lat="43.5915067" lon="6.9033822"><ele>244.83333333333331</ele><time>2026-04-12T10:26:07.829Z</time></trkpt><trkpt lat="43.5915565" lon="6.9034715"><ele>244.0</ele><time>2026-04-12T10:26:08.883Z</time></trkpt><trkpt lat="43.5916034" lon="6.9035691"><ele>244.0</ele><time>2026-04-12T10:26:09.86Z</time></trkpt><trkpt lat="43.5916756" lon="6.9036471"><ele>243.99999999999997</ele><time>2026-04-12T10:26:10.876Z</time></trkpt><trkpt lat="43.5917706" lon="6.9036933"><ele>243.99999999999997</ele><time>2026-04-12T10:26:11.857Z</time></trkpt><trkpt lat="43.5918688" lon="6.9037334"><ele>244.0</ele><time>2026-04-12T10:26:12.855Z</time></trkpt><trkpt lat="43.5919612" lon="6.9037873"><ele>244.0</ele><time>2026-04-12T10:26:13.863Z</time></trkpt><trkpt lat="43.5920434" lon="6.9038545"><ele>241.0</ele><time>2026-04-12T10:26:14.882Z</time></trkpt><trkpt lat="43.5921172" lon="6.9039364"><ele>237.99999999999997</ele><time>2026-04-12T10:26:15.853Z</time></trkpt><trkpt lat="43.592188" lon="6.9040295"><ele>234.99999999999997</ele><time>2026-04-12T10:26:16.851Z</time></trkpt><trkpt lat="43.5922571" lon="6.9041238"><ele>232.0</ele><time>2026-04-12T10:26:17.864Z</time></trkpt><trkpt lat="43.5923311" lon="6.9042187"><ele>229.0</ele><time>2026-04-12T10:26:18.865Z</time></trkpt><trkpt lat="43.5923965" lon="6.9043142"><ele>229.0</ele><time>2026-04-12T10:26:19.85Z</time></trkpt><trkpt lat="43.5924654" lon="6.9044074"><ele>228.99999999999997</ele><time>2026-04-12T10:26:20.879Z</time></trkpt><trkpt lat="43.5925299" lon="6.9045003"><ele>228.99999999999997</ele><time>2026-04-12T10:26:21.893Z</time></trkpt><trkpt lat="43.5925982" lon="6.9045867"><ele>229.0</ele><time>2026-04-12T10:26:22.825Z</time></trkpt><trkpt lat="43.5926667" lon="6.9046739"><ele>229.0</ele><time>2026-04-12T10:26:23.82Z</time></trkpt><trkpt lat="43.5927312" lon="6.9047609"><ele>228.99999999999997</ele><time>2026-04-12T10:26:24.822Z</time></trkpt><trkpt lat="43.5927995" lon="6.9048396"><ele>229.0</ele><time>2026-04-12T10:26:25.835Z</time></trkpt><trkpt lat="43.5928531" lon="6.9049019"><ele>229.0</ele><time>2026-04-12T10:26:26.841Z</time></trkpt><trkpt lat="43.5928998" lon="6.9049893"><ele>229.0</ele><time>2026-04-12T10:26:27.842Z</time></trkpt><trkpt lat="43.5929392" lon="6.9050935"><ele>228.99999999999997</ele><time>2026-04-12T10:26:28.852Z</time></trkpt><trkpt lat="43.5929504" lon="6.9051965"><ele>229.0</ele><time>2026-04-12T10:26:29.854Z</time></trkpt><trkpt lat="43.5929214" lon="6.905309"><ele>227.33333333333331</ele><time>2026-04-12T10:26:30.847Z</time></trkpt><trkpt lat="43.5928734" lon="6.9053906"><ele>225.66666666666666</ele><time>2026-04-12T10:26:31.848Z</time></trkpt><trkpt lat="43.5928018" lon="6.9054531"><ele>224.0</ele><time>2026-04-12T10:26:32.836Z</time></trkpt><trkpt lat="43.5927241" lon="6.9054961"><ele>222.33333333333331</ele><time>2026-04-12T10:26:33.876Z</time></trkpt><trkpt lat="43.5926521" lon="6.9055393"><ele>220.66666666666666</ele><time>2026-04-12T10:26:34.881Z</time></trkpt><trkpt lat="43.5925751" lon="6.9055753"><ele>219.0</ele><time>2026-04-12T10:26:35.882Z</time></trkpt><trkpt lat="43.592498" lon="6.9056198"><ele>219.0</ele><time>2026-04-12T10:26:36.884Z</time></trkpt><trkpt lat="43.592414" lon="6.9056591"><ele>218.99999999999997</ele><time>2026-04-12T10:26:37.874Z</time></trkpt><trkpt lat="43.592327" lon="6.9057017"><ele>218.99999999999997</ele><time>2026-04-12T10:26:38.847Z</time></trkpt><trkpt lat="43.5922411" lon="6.905742"><ele>219.0</ele><time>2026-04-12T10:26:39.849Z</time></trkpt><trkpt lat="43.592153" lon="6.9057888"><ele>219.0</ele><time>2026-04-12T10:26:40.878Z</time></trkpt><trkpt lat="43.5920641" lon="6.9058413"><ele>220.2</ele><time>2026-04-12T10:26:41.855Z</time></trkpt><trkpt lat="43.5919699" lon="6.9058967"><ele>221.39999999999998</ele><time>2026-04-12T10:26:42.848Z</time></trkpt><trkpt lat="43.5918737" lon="6.9059547"><ele>222.6</ele><time>2026-04-12T10:26:43.868Z</time></trkpt><trkpt lat="43.5917783" lon="6.9060124"><ele>223.8</ele><time>2026-04-12T10:26:44.876Z</time></trkpt><trkpt lat="43.5916934" lon="6.906064"><ele>225.0</ele><time>2026-04-12T10:26:45.832Z</time></trkpt><trkpt lat="43.5916041" lon="6.9061006"><ele>219.8</ele><time>2026-04-12T10:26:46.88Z</time></trkpt><trkpt lat="43.5915061" lon="6.9061038"><ele>214.6</ele><time>2026-04-12T10:26:47.869Z</time></trkpt><trkpt lat="43.5914063" lon="6.9060983"><ele>209.39999999999998</ele><time>2026-04-12T10:26:48.887Z</time></trkpt><trkpt lat="43.5913118" lon="6.9061099"><ele>204.2</ele><time>2026-04-12T10:26:49.851Z</time></trkpt><trkpt lat="43.5912344" lon="6.9061464"><ele>199.0</ele><time>2026-04-12T10:26:50.868Z</time></trkpt><trkpt lat="43.591149" lon="6.906208"><ele>199.0</ele><time>2026-04-12T10:26:51.867Z</time></trkpt><trkpt lat="43.5910545" lon="6.906258"><ele>199.0</ele><time>2026-04-12T10:26:52.869Z</time></trkpt><trkpt lat="43.590962" lon="6.9062437"><ele>199.0</ele><time>2026-04-12T10:26:53.872Z</time></trkpt><trkpt lat="43.5908589" lon="6.9062094"><ele>199.0</ele><time>2026-04-12T10:26:54.844Z</time></trkpt><trkpt lat="43.5907727" lon="6.9062046"><ele>199.0</ele><time>2026-04-12T10:26:55.846Z</time></trkpt><trkpt lat="43.590684" lon="6.9062591"><ele>199.0</ele><time>2026-04-12T10:26:56.845Z</time></trkpt><trkpt lat="43.5906095" lon="6.9063535"><ele>199.0</ele><time>2026-04-12T10:26:57.88Z</time></trkpt><trkpt lat="43.5905539" lon="6.906462"><ele>199.0</ele><time>2026-04-12T10:26:58.843Z</time></trkpt><trkpt lat="43.5904917" lon="6.9065508"><ele>199.0</ele><time>2026-04-12T10:26:59.896Z</time></trkpt><trkpt lat="43.5904091" lon="6.9066067"><ele>199.0</ele><time>2026-04-12T10:27:00.861Z</time></trkpt><trkpt lat="43.5903154" lon="6.9065964"><ele>198.0</ele><time>2026-04-12T10:27:01.83Z</time></trkpt><trkpt lat="43.5902265" lon="6.9065567"><ele>197.0</ele><time>2026-04-12T10:27:02.865Z</time></trkpt><trkpt lat="43.5901413" lon="6.9065039"><ele>196.0</ele><time>2026-04-12T10:27:03.86Z</time></trkpt><trkpt lat="43.5900646" lon="6.9064368"><ele>195.0</ele><time>2026-04-12T10:27:04.872Z</time></trkpt><trkpt lat="43.590006" lon="6.9063303"><ele>194.0</ele><time>2026-04-12T10:27:05.871Z</time></trkpt><trkpt lat="43.5899589" lon="6.9062153"><ele>194.0</ele><time>2026-04-12T10:27:06.867Z</time></trkpt><trkpt lat="43.5899058" lon="6.9060953"><ele>194.0</ele><time>2026-04-12T10:27:07.879Z</time></trkpt><trkpt lat="43.5898709" lon="6.9059695"><ele>194.0</ele><time>2026-04-12T10:27:08.876Z</time></trkpt><trkpt lat="43.589844" lon="6.9058456"><ele>194.0</ele><time>2026-04-12T10:27:09.866Z</time></trkpt><trkpt lat="43.5898094" lon="6.9057385"><ele>194.0</ele><time>2026-04-12T10:27:10.888Z</time></trkpt><trkpt lat="43.5897577" lon="6.9056523"><ele>195.00000000000003</ele><time>2026-04-12T10:27:11.882Z</time></trkpt><trkpt lat="43.5896834" lon="6.9056023"><ele>196.0</ele><time>2026-04-12T10:27:12.88Z</time></trkpt><trkpt lat="43.5896001" lon="6.9056056"><ele>197.0</ele><time>2026-04-12T10:27:13.896Z</time></trkpt><trkpt lat="43.5895163" lon="6.9056452"><ele>198.0</ele><time>2026-04-12T10:27:14.88Z</time></trkpt><trkpt lat="43.5894373" lon="6.9057132"><ele>199.00000000000003</ele><time>2026-04-12T10:27:15.852Z</time></trkpt><trkpt lat="43.5893756" lon="6.9058022"><ele>200.0</ele><time>2026-04-12T10:27:16.855Z</time></trkpt><trkpt lat="43.5893262" lon="6.9059133"><ele>200.00000000000003</ele><time>2026-04-12T10:27:17.816Z</time></trkpt><trkpt lat="43.5892753" lon="6.9060018"><ele>200.0</ele><time>2026-04-12T10:27:18.896Z</time></trkpt><trkpt lat="43.5892101" lon="6.9060647"><ele>200.0</ele><time>2026-04-12T10:27:19.881Z</time></trkpt><trkpt lat="43.5891338" lon="6.9060742"><ele>200.0</ele><time>2026-04-12T10:27:20.878Z</time></trkpt><trkpt lat="43.5890602" lon="6.9060275"><ele>200.00000000000003</ele><time>2026-04-12T10:27:21.867Z</time></trkpt><trkpt lat="43.5889931" lon="6.9059609"><ele>200.0</ele><time>2026-04-12T10:27:22.869Z</time></trkpt><trkpt lat="43.5889313" lon="6.9059001"><ele>200.00000000000003</ele><time>2026-04-12T10:27:23.877Z</time></trkpt><trkpt lat="43.5888544" lon="6.9058628"><ele>200.0</ele><time>2026-04-12T10:27:24.882Z</time></trkpt><trkpt lat="43.5887783" lon="6.9058674"><ele>200.0</ele><time>2026-04-12T10:27:25.85Z</time></trkpt><trkpt lat="43.5887081" lon="6.9059157"><ele>200.0</ele><time>2026-04-12T10:27:26.88Z</time></trkpt><trkpt lat="43.5886721" lon="6.9060043"><ele>200.00000000000003</ele><time>2026-04-12T10:27:27.89Z</time></trkpt><trkpt lat="43.5886572" lon="6.9061054"><ele>200.0</ele><time>2026-04-12T10:27:28.874Z</time></trkpt><trkpt lat="43.5886566" lon="6.9062151"><ele>200.66666666666669</ele><time>2026-04-12T10:27:29.889Z</time></trkpt><trkpt lat="43.588672" lon="6.9063187"><ele>201.33333333333334</ele><time>2026-04-12T10:27:30.886Z</time></trkpt><trkpt lat="43.5886865" lon="6.9064341"><ele>202.0</ele><time>2026-04-12T10:27:31.847Z</time></trkpt><trkpt lat="43.5887018" lon="6.9065524"><ele>202.66666666666669</ele><time>2026-04-12T10:27:32.887Z</time></trkpt><trkpt lat="43.5887292" lon="6.9066676"><ele>203.33333333333334</ele><time>2026-04-12T10:27:33.882Z</time></trkpt><trkpt lat="43.5887588" lon="6.9067899"><ele>204.0</ele><time>2026-04-12T10:27:34.892Z</time></trkpt><trkpt lat="43.5887852" lon="6.9069177"><ele>199.39999999999998</ele><time>2026-04-12T10:27:35.874Z</time></trkpt><trkpt lat="43.5888025" lon="6.9070499"><ele>194.8</ele><time>2026-04-12T10:27:36.891Z</time></trkpt><trkpt lat="43.5888108" lon="6.9071894"><ele>190.2</ele><time>2026-04-12T10:27:37.888Z</time></trkpt><trkpt lat="43.5888276" lon="6.9073325"><ele>185.60000000000002</ele><time>2026-04-12T10:27:38.867Z</time></trkpt><trkpt lat="43.5888605" lon="6.9074574"><ele>181.0</ele><time>2026-04-12T10:27:39.866Z</time></trkpt><trkpt lat="43.5889015" lon="6.9075895"><ele>181.0</ele><time>2026-04-12T10:27:40.88Z</time></trkpt><trkpt lat="43.5889495" lon="6.9077246"><ele>181.0</ele><time>2026-04-12T10:27:41.875Z</time></trkpt><trkpt lat="43.5889918" lon="6.9078546"><ele>181.0</ele><time>2026-04-12T10:27:42.871Z</time></trkpt><trkpt lat="43.5890281" lon="6.907983"><ele>181.0</ele><time>2026-04-12T10:27:43.859Z</time></trkpt><trkpt lat="43.5890698" lon="6.9081007"><ele>181.0</ele><time>2026-04-12T10:27:44.871Z</time></trkpt><trkpt lat="43.589116" lon="6.9082094"><ele>181.0</ele><time>2026-04-12T10:27:45.881Z</time></trkpt><trkpt lat="43.5891797" lon="6.9082871"><ele>181.0</ele><time>2026-04-12T10:27:46.857Z</time></trkpt><trkpt lat="43.5892627" lon="6.9083395"><ele>181.0</ele><time>2026-04-12T10:27:47.881Z</time></trkpt><trkpt lat="43.5893438" lon="6.9084157"><ele>181.0</ele><time>2026-04-12T10:27:48.86Z</time></trkpt><trkpt lat="43.5894085" lon="6.908518"><ele>181.0</ele><time>2026-04-12T10:27:49.877Z</time></trkpt><trkpt lat="43.5894479" lon="6.9086303"><ele>180.83333333333334</ele><time>2026-04-12T10:27:50.881Z</time></trkpt><trkpt lat="43.5894864" lon="6.9087443"><ele>180.66666666666669</ele><time>2026-04-12T10:27:51.88Z</time></trkpt><trkpt lat="43.5895064" lon="6.9088562"><ele>180.5</ele><time>2026-04-12T10:27:52.875Z</time></trkpt><trkpt lat="43.589514" lon="6.9089748"><ele>180.33333333333334</ele><time>2026-04-12T10:27:53.869Z</time></trkpt><trkpt lat="43.5894923" lon="6.9090897"><ele>180.16666666666666</ele><time>2026-04-12T10:27:54.901Z</time></trkpt><trkpt lat="43.5894523" lon="6.909203"><ele>180.0</ele><time>2026-04-12T10:27:55.825Z</time></trkpt><trkpt lat="43.5893978" lon="6.9093063"><ele>176.8</ele><time>2026-04-12T10:27:56.875Z</time></trkpt><trkpt lat="43.5893647" lon="6.9094272"><ele>173.6</ele><time>2026-04-12T10:27:57.855Z</time></trkpt><trkpt lat="43.5893426" lon="6.9095588"><ele>170.39999999999998</ele><time>2026-04-12T10:27:58.885Z</time></trkpt><trkpt lat="43.5893135" lon="6.9096854"><ele>167.2</ele><time>2026-04-12T10:27:59.872Z</time></trkpt><trkpt lat="43.5892851" lon="6.9098156"><ele>164.0</ele><time>2026-04-12T10:28:00.889Z</time></trkpt><trkpt lat="43.589258" lon="6.9099395"><ele>164.0</ele><time>2026-04-12T10:28:01.876Z</time></trkpt><trkpt lat="43.5892296" lon="6.9100556"><ele>164.0</ele><time>2026-04-12T10:28:02.868Z</time></trkpt><trkpt lat="43.5891873" lon="6.9101483"><ele>164.0</ele><time>2026-04-12T10:28:03.875Z</time></trkpt><trkpt lat="43.5891242" lon="6.9102193"><ele>164.0</ele><time>2026-04-12T10:28:04.868Z</time></trkpt><trkpt lat="43.5890473" lon="6.9102468"><ele>164.0</ele><time>2026-04-12T10:28:05.86Z</time></trkpt><trkpt lat="43.5889705" lon="6.9102208"><ele>164.0</ele><time>2026-04-12T10:28:06.892Z</time></trkpt><trkpt lat="43.5888991" lon="6.9101726"><ele>164.83333333333331</ele><time>2026-04-12T10:28:07.858Z</time></trkpt><trkpt lat="43.58883" lon="6.9101379"><ele>165.66666666666666</ele><time>2026-04-12T10:28:08.873Z</time></trkpt><trkpt lat="43.5887395" lon="6.9101103"><ele>166.5</ele><time>2026-04-12T10:28:09.822Z</time></trkpt><trkpt lat="43.588652" lon="6.9100939"><ele>167.33333333333334</ele><time>2026-04-12T10:28:10.865Z</time></trkpt><trkpt lat="43.5885562" lon="6.9100817"><ele>168.16666666666669</ele><time>2026-04-12T10:28:11.855Z</time></trkpt><trkpt lat="43.5884629" lon="6.9100475"><ele>169.0</ele><time>2026-04-12T10:28:12.874Z</time></trkpt><trkpt lat="43.5883705" lon="6.9099992"><ele>169.0</ele><time>2026-04-12T10:28:13.877Z</time></trkpt><trkpt lat="43.5882749" lon="6.9099631"><ele>169.0</ele><time>2026-04-12T10:28:14.865Z</time></trkpt><trkpt lat="43.5881826" lon="6.9099587"><ele>169.0</ele><time>2026-04-12T10:28:15.872Z</time></trkpt><trkpt lat="43.5881052" lon="6.9099951"><ele>169.0</ele><time>2026-04-12T10:28:16.878Z</time></trkpt><trkpt lat="43.588043" lon="6.9100641"><ele>169.0</ele><time>2026-04-12T10:28:17.889Z</time></trkpt><trkpt lat="43.587995" lon="6.9101683"><ele>169.0</ele><time>2026-04-12T10:28:18.86Z</time></trkpt><trkpt lat="43.5879743" lon="6.9102883"><ele>164.0</ele><time>2026-04-12T10:28:19.887Z</time></trkpt><trkpt lat="43.5879739" lon="6.9104208"><ele>159.0</ele><time>2026-04-12T10:28:20.874Z</time></trkpt><trkpt lat="43.5879819" lon="6.9105487"><ele>154.0</ele><time>2026-04-12T10:28:21.881Z</time></trkpt><trkpt lat="43.5879949" lon="6.9106798"><ele>149.0</ele><time>2026-04-12T10:28:22.866Z</time></trkpt><trkpt lat="43.5879972" lon="6.9108127"><ele>144.0</ele><time>2026-04-12T10:28:23.885Z</time></trkpt><trkpt lat="43.5880061" lon="6.9109535"><ele>142.0</ele><time>2026-04-12T10:28:24.883Z</time></trkpt><trkpt lat="43.588013" lon="6.9110965"><ele>140.0</ele><time>2026-04-12T10:28:25.857Z</time></trkpt><trkpt lat="43.5880119" lon="6.9112408"><ele>138.0</ele><time>2026-04-12T10:28:26.86Z</time></trkpt><trkpt lat="43.5880166" lon="6.9113903"><ele>136.0</ele><time>2026-04-12T10:28:27.873Z</time></trkpt><trkpt lat="43.5880218" lon="6.9115429"><ele>134.0</ele><time>2026-04-12T10:28:28.894Z</time></trkpt><trkpt lat="43.5880262" lon="6.9117045"><ele>133.5</ele><time>2026-04-12T10:28:29.882Z</time></trkpt><trkpt lat="43.5880363" lon="6.9118632"><ele>133.0</ele><time>2026-04-12T10:28:30.879Z</time></trkpt><trkpt lat="43.5880565" lon="6.9120188"><ele>132.5</ele><time>2026-04-12T10:28:31.887Z</time></trkpt><trkpt lat="43.5880841" lon="6.9121703"><ele>132.0</ele><time>2026-04-12T10:28:32.828Z</time></trkpt><trkpt lat="43.588115" lon="6.9123134"><ele>132.0</ele><time>2026-04-12T10:28:33.885Z</time></trkpt><trkpt lat="43.5881435" lon="6.9124577"><ele>132.0</ele><time>2026-04-12T10:28:34.869Z</time></trkpt><trkpt lat="43.5881732" lon="6.9125979"><ele>132.0</ele><time>2026-04-12T10:28:35.874Z</time></trkpt><trkpt lat="43.5882" lon="6.9127313"><ele>132.0</ele><time>2026-04-12T10:28:36.886Z</time></trkpt><trkpt lat="43.588229" lon="6.9128631"><ele>132.0</ele><time>2026-04-12T10:28:37.866Z</time></trkpt><trkpt lat="43.5882495" lon="6.9129893"><ele>132.2</ele><time>2026-04-12T10:28:38.895Z</time></trkpt><trkpt lat="43.5882537" lon="6.9131218"><ele>132.39999999999998</ele><time>2026-04-12T10:28:39.864Z</time></trkpt><trkpt lat="43.5882366" lon="6.9132578"><ele>132.60000000000002</ele><time>2026-04-12T10:28:40.878Z</time></trkpt><trkpt lat="43.5882133" lon="6.9133937"><ele>132.8</ele><time>2026-04-12T10:28:41.846Z</time></trkpt><trkpt lat="43.5881944" lon="6.9135345"><ele>133.0</ele><time>2026-04-12T10:28:42.873Z</time></trkpt><trkpt lat="43.5881866" lon="6.9136788"><ele>131.75</ele><time>2026-04-12T10:28:43.878Z</time></trkpt><trkpt lat="43.5881829" lon="6.9138288"><ele>130.5</ele><time>2026-04-12T10:28:44.885Z</time></trkpt><trkpt lat="43.5881801" lon="6.91399"><ele>129.25</ele><time>2026-04-12T10:28:45.886Z</time></trkpt><trkpt lat="43.5881794" lon="6.9141489"><ele>128.0</ele><time>2026-04-12T10:28:46.87Z</time></trkpt><trkpt lat="43.5881685" lon="6.9143063"><ele>126.66666666666666</ele><time>2026-04-12T10:28:47.885Z</time></trkpt><trkpt lat="43.5881484" lon="6.914453"><ele>125.33333333333333</ele><time>2026-04-12T10:28:48.878Z</time></trkpt><trkpt lat="43.5881166" lon="6.9145837"><ele>124.0</ele><time>2026-04-12T10:28:49.874Z</time></trkpt><trkpt lat="43.5880904" lon="6.9146929"><ele>122.66666666666666</ele><time>2026-04-12T10:28:50.873Z</time></trkpt><trkpt lat="43.5880558" lon="6.9147853"><ele>121.33333333333333</ele><time>2026-04-12T10:28:51.88Z</time></trkpt><trkpt lat="43.5879976" lon="6.9148646"><ele>120.0</ele><time>2026-04-12T10:28:52.845Z</time></trkpt><trkpt lat="43.5879164" lon="6.9149228"><ele>119.33333333333333</ele><time>2026-04-12T10:28:53.881Z</time></trkpt><trkpt lat="43.5878326" lon="6.9149415"><ele>118.66666666666666</ele><time>2026-04-12T10:28:54.858Z</time></trkpt><trkpt lat="43.5877586" lon="6.9149579"><ele>118.0</ele><time>2026-04-12T10:28:55.876Z</time></trkpt><trkpt lat="43.587688" lon="6.9149787"><ele>117.33333333333333</ele><time>2026-04-12T10:28:56.898Z</time></trkpt><trkpt lat="43.5876249" lon="6.9150274"><ele>116.66666666666666</ele><time>2026-04-12T10:28:57.878Z</time></trkpt><trkpt lat="43.5875851" lon="6.9151125"><ele>116.0</ele><time>2026-04-12T10:28:58.858Z</time></trkpt><trkpt lat="43.5875741" lon="6.9152237"><ele>114.66666666666666</ele><time>2026-04-12T10:28:59.866Z</time></trkpt><trkpt lat="43.5875981" lon="6.9153362"><ele>113.33333333333333</ele><time>2026-04-12T10:29:00.883Z</time></trkpt><trkpt lat="43.5876507" lon="6.9154279"><ele>112.0</ele><time>2026-04-12T10:29:01.859Z</time></trkpt><trkpt lat="43.58772" lon="6.9154697"><ele>110.66666666666666</ele><time>2026-04-12T10:29:02.873Z</time></trkpt><trkpt lat="43.5878085" lon="6.9154811"><ele>109.33333333333333</ele><time>2026-04-12T10:29:03.863Z</time></trkpt><trkpt lat="43.587904" lon="6.9154804"><ele>108.0</ele><time>2026-04-12T10:29:04.869Z</time></trkpt><trkpt lat="43.5879879" lon="6.9154757"><ele>108.0</ele><time>2026-04-12T10:29:05.88Z</time></trkpt><trkpt lat="43.5880733" lon="6.9154743"><ele>108.0</ele><time>2026-04-12T10:29:06.873Z</time></trkpt><trkpt lat="43.5881526" lon="6.9154534"><ele>108.0</ele><time>2026-04-12T10:29:07.883Z</time></trkpt><trkpt lat="43.5882339" lon="6.915408"><ele>108.0</ele><time>2026-04-12T10:29:08.881Z</time></trkpt><trkpt lat="43.588299" lon="6.9153248"><ele>108.0</ele><time>2026-04-12T10:29:09.852Z</time></trkpt><trkpt lat="43.5883421" lon="6.915205"><ele>108.0</ele><time>2026-04-12T10:29:10.877Z</time></trkpt><trkpt lat="43.5883571" lon="6.9150959"><ele>110.0</ele><time>2026-04-12T10:29:11.864Z</time></trkpt><trkpt lat="43.5883526" lon="6.9149789"><ele>112.0</ele><time>2026-04-12T10:29:12.881Z</time></trkpt><trkpt lat="43.5883554" lon="6.9148651"><ele>114.0</ele><time>2026-04-12T10:29:13.833Z</time></trkpt><trkpt lat="43.588376" lon="6.9147767"><ele>116.0</ele><time>2026-04-12T10:29:14.863Z</time></trkpt><trkpt lat="43.5884178" lon="6.9147097"><ele>118.0</ele><time>2026-04-12T10:29:15.859Z</time></trkpt><trkpt lat="43.5885279" lon="6.914683"><ele>120.0</ele><time>2026-04-12T10:29:17.845Z</time></trkpt><trkpt lat="43.5885854" lon="6.914862"><ele>120.0</ele><time>2026-04-12T10:29:19.885Z</time></trkpt><trkpt lat="43.5885894" lon="6.9149701"><ele>120.0</ele><time>2026-04-12T10:29:20.868Z</time></trkpt><trkpt lat="43.5886143" lon="6.9150799"><ele>120.0</ele><time>2026-04-12T10:29:21.877Z</time></trkpt><trkpt lat="43.5886574" lon="6.9151855"><ele>120.0</ele><time>2026-04-12T10:29:22.844Z</time></trkpt><trkpt lat="43.5887262" lon="6.9152592"><ele>120.0</ele><time>2026-04-12T10:29:23.855Z</time></trkpt><trkpt lat="43.5887938" lon="6.9153232"><ele>120.0</ele><time>2026-04-12T10:29:24.854Z</time></trkpt><trkpt lat="43.5888633" lon="6.9153949"><ele>116.16666666666667</ele><time>2026-04-12T10:29:25.88Z</time></trkpt><trkpt lat="43.58893" lon="6.9154678"><ele>112.33333333333334</ele><time>2026-04-12T10:29:26.87Z</time></trkpt><trkpt lat="43.5889952" lon="6.9155429"><ele>108.5</ele><time>2026-04-12T10:29:27.892Z</time></trkpt><trkpt lat="43.5890478" lon="6.9156138"><ele>104.66666666666667</ele><time>2026-04-12T10:29:28.891Z</time></trkpt><trkpt lat="43.5891015" lon="6.9156868"><ele>100.83333333333334</ele><time>2026-04-12T10:29:29.864Z</time></trkpt><trkpt lat="43.5891575" lon="6.9157582"><ele>97.0</ele><time>2026-04-12T10:29:30.882Z</time></trkpt><trkpt lat="43.5892047" lon="6.9158988"><ele>94.83333333333334</ele><time>2026-04-12T10:29:32.879Z</time></trkpt><trkpt lat="43.5891484" lon="6.9160288"><ele>92.66666666666667</ele><time>2026-04-12T10:29:34.862Z</time></trkpt><trkpt lat="43.589087" lon="6.9160526"><ele>90.5</ele><time>2026-04-12T10:29:35.876Z</time></trkpt><trkpt lat="43.5890129" lon="6.9160439"><ele>88.33333333333334</ele><time>2026-04-12T10:29:36.82Z</time></trkpt><trkpt lat="43.5889384" lon="6.9160153"><ele>86.16666666666667</ele><time>2026-04-12T10:29:37.901Z</time></trkpt><trkpt lat="43.5888702" lon="6.9159754"><ele>84.0</ele><time>2026-04-12T10:29:38.881Z</time></trkpt><trkpt lat="43.5888024" lon="6.9159283"><ele>84.66666666666667</ele><time>2026-04-12T10:29:39.874Z</time></trkpt><trkpt lat="43.5887303" lon="6.9158689"><ele>85.33333333333333</ele><time>2026-04-12T10:29:40.901Z</time></trkpt><trkpt lat="43.5886619" lon="6.9158102"><ele>86.0</ele><time>2026-04-12T10:29:41.859Z</time></trkpt><trkpt lat="43.5885897" lon="6.9157759"><ele>86.66666666666666</ele><time>2026-04-12T10:29:42.891Z</time></trkpt><trkpt lat="43.5885091" lon="6.9157892"><ele>87.33333333333333</ele><time>2026-04-12T10:29:43.858Z</time></trkpt><trkpt lat="43.588447" lon="6.9158485"><ele>88.0</ele><time>2026-04-12T10:29:44.863Z</time></trkpt><trkpt lat="43.5883932" lon="6.9159335"><ele>88.0</ele><time>2026-04-12T10:29:45.855Z</time></trkpt><trkpt lat="43.5883495" lon="6.9160341"><ele>88.0</ele><time>2026-04-12T10:29:46.842Z</time></trkpt><trkpt lat="43.5883075" lon="6.91613"><ele>88.0</ele><time>2026-04-12T10:29:47.859Z</time></trkpt><trkpt lat="43.5882684" lon="6.9162308"><ele>88.0</ele><time>2026-04-12T10:29:48.891Z</time></trkpt><trkpt lat="43.5882357" lon="6.9163345"><ele>88.0</ele><time>2026-04-12T10:29:49.853Z</time></trkpt><trkpt lat="43.588212" lon="6.9164282"><ele>88.0</ele><time>2026-04-12T10:29:50.884Z</time></trkpt><trkpt lat="43.5881871" lon="6.9165281"><ele>88.0</ele><time>2026-04-12T10:29:51.865Z</time></trkpt><trkpt lat="43.5881371" lon="6.9165973"><ele>88.0</ele><time>2026-04-12T10:29:52.872Z</time></trkpt><trkpt lat="43.588061" lon="6.9166218"><ele>88.0</ele><time>2026-04-12T10:29:53.871Z</time></trkpt><trkpt lat="43.5879869" lon="6.9166135"><ele>88.0</ele><time>2026-04-12T10:29:54.868Z</time></trkpt><trkpt lat="43.5879156" lon="6.9165771"><ele>88.0</ele><time>2026-04-12T10:29:55.853Z</time></trkpt><trkpt lat="43.5878465" lon="6.9165541"><ele>88.0</ele><time>2026-04-12T10:29:56.873Z</time></trkpt><trkpt lat="43.5877373" lon="6.9166328"><ele>87.16666666666666</ele><time>2026-04-12T10:29:58.864Z</time></trkpt><trkpt lat="43.5877067" lon="6.9167207"><ele>86.33333333333333</ele><time>2026-04-12T10:29:59.858Z</time></trkpt><trkpt lat="43.5877114" lon="6.916809"><ele>85.5</ele><time>2026-04-12T10:30:00.88Z</time></trkpt><trkpt lat="43.5878169" lon="6.9169042"><ele>84.66666666666667</ele><time>2026-04-12T10:30:02.834Z</time></trkpt><trkpt lat="43.5878841" lon="6.9169141"><ele>83.83333333333334</ele><time>2026-04-12T10:30:03.888Z</time></trkpt><trkpt lat="43.5879519" lon="6.9169289"><ele>83.0</ele><time>2026-04-12T10:30:04.874Z</time></trkpt><trkpt lat="43.5880161" lon="6.9169419"><ele>83.83333333333334</ele><time>2026-04-12T10:30:05.859Z</time></trkpt><trkpt lat="43.5880823" lon="6.916957"><ele>84.66666666666667</ele><time>2026-04-12T10:30:06.883Z</time></trkpt><trkpt lat="43.5881463" lon="6.9169649"><ele>85.5</ele><time>2026-04-12T10:30:07.887Z</time></trkpt><trkpt lat="43.5882564" lon="6.9168792"><ele>86.33333333333333</ele><time>2026-04-12T10:30:09.875Z</time></trkpt><trkpt lat="43.588301" lon="6.9167928"><ele>87.16666666666666</ele><time>2026-04-12T10:30:10.856Z</time></trkpt><trkpt lat="43.588335" lon="6.9166953"><ele>88.0</ele><time>2026-04-12T10:30:11.888Z</time></trkpt><trkpt lat="43.5883643" lon="6.9165886"><ele>88.0</ele><time>2026-04-12T10:30:12.827Z</time></trkpt><trkpt lat="43.5883935" lon="6.9164994"><ele>88.0</ele><time>2026-04-12T10:30:13.873Z</time></trkpt><trkpt lat="43.5884629" lon="6.9163725"><ele>88.0</ele><time>2026-04-12T10:30:15.866Z</time></trkpt><trkpt lat="43.5885299" lon="6.9163467"><ele>88.0</ele><time>2026-04-12T10:30:16.873Z</time></trkpt><trkpt lat="43.5886006" lon="6.9163588"><ele>88.0</ele><time>2026-04-12T10:30:17.868Z</time></trkpt><trkpt lat="43.5886617" lon="6.9164302"><ele>88.0</ele><time>2026-04-12T10:30:18.86Z</time></trkpt><trkpt lat="43.5887113" lon="6.9165098"><ele>87.33333333333333</ele><time>2026-04-12T10:30:19.884Z</time></trkpt><trkpt lat="43.5887592" lon="6.9165947"><ele>86.66666666666666</ele><time>2026-04-12T10:30:20.863Z</time></trkpt><trkpt lat="43.5888024" lon="6.9166859"><ele>86.0</ele><time>2026-04-12T10:30:21.86Z</time></trkpt><trkpt lat="43.5888535" lon="6.9167655"><ele>85.33333333333333</ele><time>2026-04-12T10:30:22.866Z</time></trkpt><trkpt lat="43.5889157" lon="6.9168317"><ele>84.66666666666667</ele><time>2026-04-12T10:30:23.865Z</time></trkpt><trkpt lat="43.5889919" lon="6.9168651"><ele>84.0</ele><time>2026-04-12T10:30:24.888Z</time></trkpt><trkpt lat="43.5890689" lon="6.9168877"><ele>81.33333333333333</ele><time>2026-04-12T10:30:25.831Z</time></trkpt><trkpt lat="43.5891331" lon="6.9169454"><ele>78.66666666666667</ele><time>2026-04-12T10:30:26.889Z</time></trkpt><trkpt lat="43.5891736" lon="6.9170467"><ele>76.0</ele><time>2026-04-12T10:30:27.891Z</time></trkpt><trkpt lat="43.5892086" lon="6.9171519"><ele>73.33333333333334</ele><time>2026-04-12T10:30:28.883Z</time></trkpt><trkpt lat="43.5892373" lon="6.9172639"><ele>70.66666666666667</ele><time>2026-04-12T10:30:29.879Z</time></trkpt><trkpt lat="43.5892583" lon="6.9173678"><ele>68.0</ele><time>2026-04-12T10:30:30.854Z</time></trkpt><trkpt lat="43.5892746" lon="6.9174612"><ele>68.0</ele><time>2026-04-12T10:30:31.848Z</time></trkpt><trkpt lat="43.5893005" lon="6.9175407"><ele>68.0</ele><time>2026-04-12T10:30:32.888Z</time></trkpt><trkpt lat="43.589343" lon="6.9176143"><ele>68.0</ele><time>2026-04-12T10:30:33.881Z</time></trkpt><trkpt lat="43.5894089" lon="6.9176558"><ele>68.0</ele><time>2026-04-12T10:30:34.825Z</time></trkpt><trkpt lat="43.5894843" lon="6.9176423"><ele>68.0</ele><time>2026-04-12T10:30:35.866Z</time></trkpt><trkpt lat="43.5895546" lon="6.9176174"><ele>68.0</ele><time>2026-04-12T10:30:36.866Z</time></trkpt><trkpt lat="43.5896632" lon="6.9175942"><ele>64.83333333333334</ele><time>2026-04-12T10:30:38.835Z</time></trkpt><trkpt lat="43.589735" lon="6.9177047"><ele>61.66666666666667</ele><time>2026-04-12T10:30:40.879Z</time></trkpt><trkpt lat="43.5897484" lon="6.9178423"><ele>58.5</ele><time>2026-04-12T10:30:42.863Z</time></trkpt><trkpt lat="43.5897042" lon="6.917921"><ele>55.33333333333333</ele><time>2026-04-12T10:30:43.867Z</time></trkpt><trkpt lat="43.5896427" lon="6.9179871"><ele>52.166666666666664</ele><time>2026-04-12T10:30:44.879Z</time></trkpt><trkpt lat="43.5895746" lon="6.9180491"><ele>49.0</ele><time>2026-04-12T10:30:45.871Z</time></trkpt><trkpt lat="43.5894955" lon="6.9180918"><ele>48.99999999999999</ele><time>2026-04-12T10:30:46.871Z</time></trkpt><trkpt lat="43.589411" lon="6.9181099"><ele>49.0</ele><time>2026-04-12T10:30:47.902Z</time></trkpt><trkpt lat="43.5893313" lon="6.918091"><ele>49.0</ele><time>2026-04-12T10:30:48.849Z</time></trkpt><trkpt lat="43.5892542" lon="6.9180252"><ele>49.0</ele><time>2026-04-12T10:30:49.885Z</time></trkpt><trkpt lat="43.5891888" lon="6.9179465"><ele>48.99999999999999</ele><time>2026-04-12T10:30:50.865Z</time></trkpt><trkpt lat="43.589138" lon="6.9178429"><ele>49.0</ele><time>2026-04-12T10:30:51.875Z</time></trkpt><trkpt lat="43.5891172" lon="6.9177253"><ele>48.99999999999999</ele><time>2026-04-12T10:30:52.859Z</time></trkpt><trkpt lat="43.589102" lon="6.9176076"><ele>49.0</ele><time>2026-04-12T10:30:53.866Z</time></trkpt><trkpt lat="43.5890645" lon="6.9175033"><ele>49.0</ele><time>2026-04-12T10:30:54.857Z</time></trkpt><trkpt lat="43.5889985" lon="6.9174262"><ele>49.0</ele><time>2026-04-12T10:30:55.844Z</time></trkpt><trkpt lat="43.5889057" lon="6.9173937"><ele>48.99999999999999</ele><time>2026-04-12T10:30:56.853Z</time></trkpt><trkpt lat="43.5888179" lon="6.9173919"><ele>49.0</ele><time>2026-04-12T10:30:57.892Z</time></trkpt><trkpt lat="43.5887316" lon="6.9174199"><ele>47.6</ele><time>2026-04-12T10:30:58.871Z</time></trkpt><trkpt lat="43.5886471" lon="6.9174968"><ele>46.2</ele><time>2026-04-12T10:30:59.877Z</time></trkpt><trkpt lat="43.5885896" lon="6.9176021"><ele>44.800000000000004</ele><time>2026-04-12T10:31:00.878Z</time></trkpt><trkpt lat="43.5885497" lon="6.9177364"><ele>43.400000000000006</ele><time>2026-04-12T10:31:01.879Z</time></trkpt><trkpt lat="43.5885247" lon="6.9178688"><ele>42.0</ele><time>2026-04-12T10:31:02.895Z</time></trkpt><trkpt lat="43.5884905" lon="6.9179791"><ele>42.0</ele><time>2026-04-12T10:31:03.884Z</time></trkpt><trkpt lat="43.5884462" lon="6.9180775"><ele>42.0</ele><time>2026-04-12T10:31:04.868Z</time></trkpt><trkpt lat="43.5883824" lon="6.9181497"><ele>42.0</ele><time>2026-04-12T10:31:05.873Z</time></trkpt><trkpt lat="43.5883086" lon="6.9181889"><ele>42.0</ele><time>2026-04-12T10:31:06.858Z</time></trkpt><trkpt lat="43.5882231" lon="6.9181867"><ele>42.0</ele><time>2026-04-12T10:31:07.898Z</time></trkpt><trkpt lat="43.5881294" lon="6.9181472"><ele>42.0</ele><time>2026-04-12T10:31:08.853Z</time></trkpt><trkpt lat="43.5880448" lon="6.9180915"><ele>42.0</ele><time>2026-04-12T10:31:09.888Z</time></trkpt><trkpt lat="43.5879649" lon="6.9180464"><ele>42.0</ele><time>2026-04-12T10:31:10.846Z</time></trkpt><trkpt lat="43.5878831" lon="6.9179976"><ele>42.0</ele><time>2026-04-12T10:31:11.854Z</time></trkpt><trkpt lat="43.5877911" lon="6.9179459"><ele>42.0</ele><time>2026-04-12T10:31:12.82Z</time></trkpt><trkpt lat="43.587713" lon="6.9178959"><ele>42.0</ele><time>2026-04-12T10:31:13.876Z</time></trkpt><trkpt lat="43.5876421" lon="6.9178528"><ele>42.0</ele><time>2026-04-12T10:31:14.882Z</time></trkpt><trkpt lat="43.5875225" lon="6.9178454"><ele>44.666666666666664</ele><time>2026-04-12T10:31:16.877Z</time></trkpt><trkpt lat="43.5874698" lon="6.9179015"><ele>47.33333333333333</ele><time>2026-04-12T10:31:17.865Z</time></trkpt><trkpt lat="43.5874373" lon="6.9179954"><ele>50.0</ele><time>2026-04-12T10:31:18.888Z</time></trkpt><trkpt lat="43.5874538" lon="6.9181091"><ele>52.666666666666664</ele><time>2026-04-12T10:31:19.885Z</time></trkpt><trkpt lat="43.5874861" lon="6.918214"><ele>55.33333333333333</ele><time>2026-04-12T10:31:20.874Z</time></trkpt><trkpt lat="43.5875296" lon="6.9183046"><ele>58.0</ele><time>2026-04-12T10:31:21.862Z</time></trkpt><trkpt lat="43.5875762" lon="6.9183847"><ele>58.49999999999999</ele><time>2026-04-12T10:31:22.827Z</time></trkpt><trkpt lat="43.5876203" lon="6.9184662"><ele>59.0</ele><time>2026-04-12T10:31:23.863Z</time></trkpt><trkpt lat="43.5876756" lon="6.9185452"><ele>59.5</ele><time>2026-04-12T10:31:24.884Z</time></trkpt><trkpt lat="43.5877358" lon="6.918613"><ele>60.0</ele><time>2026-04-12T10:31:25.874Z</time></trkpt><trkpt lat="43.5877926" lon="6.9186851"><ele>60.49999999999999</ele><time>2026-04-12T10:31:26.867Z</time></trkpt><trkpt lat="43.5878545" lon="6.9187567"><ele>61.0</ele><time>2026-04-12T10:31:27.891Z</time></trkpt><trkpt lat="43.5879216" lon="6.9188287"><ele>56.33333333333333</ele><time>2026-04-12T10:31:28.869Z</time></trkpt><trkpt lat="43.5879836" lon="6.9189026"><ele>51.666666666666664</ele><time>2026-04-12T10:31:29.833Z</time></trkpt><trkpt lat="43.5880298" lon="6.9189934"><ele>47.0</ele><time>2026-04-12T10:31:30.896Z</time></trkpt><trkpt lat="43.5880596" lon="6.9191089"><ele>42.33333333333333</ele><time>2026-04-12T10:31:31.855Z</time></trkpt><trkpt lat="43.5880921" lon="6.9192348"><ele>37.666666666666664</ele><time>2026-04-12T10:31:32.839Z</time></trkpt><trkpt lat="43.5881394" lon="6.9193386"><ele>33.0</ele><time>2026-04-12T10:31:33.851Z</time></trkpt><trkpt lat="43.5881922" lon="6.9194222"><ele>33.0</ele><time>2026-04-12T10:31:34.872Z</time></trkpt><trkpt lat="43.588245" lon="6.9194954"><ele>33.0</ele><time>2026-04-12T10:31:35.873Z</time></trkpt><trkpt lat="43.5882926" lon="6.9195651"><ele>33.0</ele><time>2026-04-12T10:31:36.853Z</time></trkpt><trkpt lat="43.5883238" lon="6.9196439"><ele>33.0</ele><time>2026-04-12T10:31:37.884Z</time></trkpt><trkpt lat="43.5883338" lon="6.9197304"><ele>33.0</ele><time>2026-04-12T10:31:38.861Z</time></trkpt><trkpt lat="43.5883267" lon="6.9198192"><ele>33.0</ele><time>2026-04-12T10:31:39.865Z</time></trkpt><trkpt lat="43.588304" lon="6.9199058"><ele>33.0</ele><time>2026-04-12T10:31:40.855Z</time></trkpt><trkpt lat="43.5882722" lon="6.9200027"><ele>31.71428571428571</ele><time>2026-04-12T10:31:41.849Z</time></trkpt><trkpt lat="43.5882401" lon="6.92009"><ele>30.42857142857143</ele><time>2026-04-12T10:31:42.871Z</time></trkpt><trkpt lat="43.5882091" lon="6.9201931"><ele>29.142857142857142</ele><time>2026-04-12T10:31:43.854Z</time></trkpt><trkpt lat="43.5881803" lon="6.9203009"><ele>27.857142857142854</ele><time>2026-04-12T10:31:44.866Z</time></trkpt><trkpt lat="43.5881652" lon="6.9204016"><ele>26.57142857142857</ele><time>2026-04-12T10:31:45.873Z</time></trkpt><trkpt lat="43.5881582" lon="6.920495"><ele>25.285714285714285</ele><time>2026-04-12T10:31:46.858Z</time></trkpt><trkpt lat="43.5881493" lon="6.9205892"><ele>24.0</ele><time>2026-04-12T10:31:47.888Z</time></trkpt><trkpt lat="43.5880957" lon="6.9207303"><ele>23.999999999999996</ele><time>2026-04-12T10:31:49.893Z</time></trkpt><trkpt lat="43.588034" lon="6.9207732"><ele>24.0</ele><time>2026-04-12T10:31:50.86Z</time></trkpt><trkpt lat="43.5879594" lon="6.9207637"><ele>24.0</ele><time>2026-04-12T10:31:51.861Z</time></trkpt><trkpt lat="43.5878879" lon="6.9207231"><ele>24.0</ele><time>2026-04-12T10:31:52.855Z</time></trkpt><trkpt lat="43.5878182" lon="6.920698"><ele>24.0</ele><time>2026-04-12T10:31:53.874Z</time></trkpt><trkpt lat="43.5877517" lon="6.9207178"><ele>23.999999999999996</ele><time>2026-04-12T10:31:54.893Z</time></trkpt><trkpt lat="43.5876814" lon="6.9207896"><ele>24.0</ele><time>2026-04-12T10:31:55.869Z</time></trkpt><trkpt lat="43.5876345" lon="6.9208869"><ele>25.5</ele><time>2026-04-12T10:31:56.859Z</time></trkpt><trkpt lat="43.5876278" lon="6.9210013"><ele>27.0</ele><time>2026-04-12T10:31:57.883Z</time></trkpt><trkpt lat="43.5876436" lon="6.9211063"><ele>28.5</ele><time>2026-04-12T10:31:58.828Z</time></trkpt><trkpt lat="43.5876601" lon="6.9212187"><ele>30.0</ele><time>2026-04-12T10:31:59.86Z</time></trkpt><trkpt lat="43.5876712" lon="6.9213418"><ele>31.5</ele><time>2026-04-12T10:32:00.846Z</time></trkpt><trkpt lat="43.5876882" lon="6.9214646"><ele>33.0</ele><time>2026-04-12T10:32:01.859Z</time></trkpt><trkpt lat="43.587704" lon="6.9215895"><ele>33.0</ele><time>2026-04-12T10:32:02.886Z</time></trkpt><trkpt lat="43.5877105" lon="6.9217102"><ele>33.0</ele><time>2026-04-12T10:32:03.866Z</time></trkpt><trkpt lat="43.587711" lon="6.921826"><ele>33.0</ele><time>2026-04-12T10:32:04.842Z</time></trkpt><trkpt lat="43.5876882" lon="6.9219264"><ele>33.0</ele><time>2026-04-12T10:32:05.879Z</time></trkpt><trkpt lat="43.5876525" lon="6.9220305"><ele>33.0</ele><time>2026-04-12T10:32:06.872Z</time></trkpt><trkpt lat="43.5876389" lon="6.9221319"><ele>33.0</ele><time>2026-04-12T10:32:07.86Z</time></trkpt><trkpt lat="43.5876472" lon="6.9222288"><ele>33.0</ele><time>2026-04-12T10:32:08.86Z</time></trkpt><trkpt lat="43.587671" lon="6.9223143"><ele>33.0</ele><time>2026-04-12T10:32:09.879Z</time></trkpt><trkpt lat="43.5876988" lon="6.9223958"><ele>33.0</ele><time>2026-04-12T10:32:10.844Z</time></trkpt><trkpt lat="43.5877309" lon="6.922491"><ele>33.0</ele><time>2026-04-12T10:32:11.829Z</time></trkpt><trkpt lat="43.5877618" lon="6.9225805"><ele>33.0</ele><time>2026-04-12T10:32:12.859Z</time></trkpt><trkpt lat="43.5877926" lon="6.9226792"><ele>33.0</ele><time>2026-04-12T10:32:13.859Z</time></trkpt><trkpt lat="43.5878201" lon="6.9227769"><ele>33.0</ele><time>2026-04-12T10:32:14.863Z</time></trkpt><trkpt lat="43.5878434" lon="6.9228815"><ele>30.428571428571427</ele><time>2026-04-12T10:32:15.873Z</time></trkpt><trkpt lat="43.5878703" lon="6.9229772"><ele>27.857142857142858</ele><time>2026-04-12T10:32:16.885Z</time></trkpt><trkpt lat="43.5878898" lon="6.9230745"><ele>25.285714285714285</ele><time>2026-04-12T10:32:17.844Z</time></trkpt><trkpt lat="43.5879011" lon="6.9231729"><ele>22.714285714285715</ele><time>2026-04-12T10:32:18.897Z</time></trkpt><trkpt lat="43.5879106" lon="6.9232713"><ele>20.142857142857142</ele><time>2026-04-12T10:32:19.852Z</time></trkpt><trkpt lat="43.5879148" lon="6.9233654"><ele>17.571428571428573</ele><time>2026-04-12T10:32:20.868Z</time></trkpt><trkpt lat="43.5879166" lon="6.9234611"><ele>15.0</ele><time>2026-04-12T10:32:21.863Z</time></trkpt><trkpt lat="43.5879152" lon="6.9235534"><ele>15.0</ele><time>2026-04-12T10:32:22.881Z</time></trkpt><trkpt lat="43.5879034" lon="6.923649"><ele>15.0</ele><time>2026-04-12T10:32:23.847Z</time></trkpt><trkpt lat="43.58789" lon="6.9238208"><ele>15.0</ele><time>2026-04-12T10:32:25.822Z</time></trkpt><trkpt lat="43.5878835" lon="6.923911"><ele>15.0</ele><time>2026-04-12T10:32:26.888Z</time></trkpt><trkpt lat="43.587874" lon="6.9239989"><ele>15.0</ele><time>2026-04-12T10:32:27.891Z</time></trkpt><trkpt lat="43.5878673" lon="6.9240892"><ele>15.0</ele><time>2026-04-12T10:32:28.854Z</time></trkpt><trkpt lat="43.5878641" lon="6.9241812"><ele>14.571428571428571</ele><time>2026-04-12T10:32:29.872Z</time></trkpt><trkpt lat="43.5878663" lon="6.9242736"><ele>14.142857142857142</ele><time>2026-04-12T10:32:30.863Z</time></trkpt><trkpt lat="43.5878605" lon="6.9243639"><ele>13.714285714285714</ele><time>2026-04-12T10:32:31.892Z</time></trkpt><trkpt lat="43.5878485" lon="6.9244586"><ele>13.285714285714285</ele><time>2026-04-12T10:32:32.851Z</time></trkpt><trkpt lat="43.5878313" lon="6.9245517"><ele>12.857142857142858</ele><time>2026-04-12T10:32:33.874Z</time></trkpt><trkpt lat="43.5878113" lon="6.9246381"><ele>12.428571428571427</ele><time>2026-04-12T10:32:34.894Z</time></trkpt><trkpt lat="43.587778" lon="6.9247261"><ele>12.0</ele><time>2026-04-12T10:32:35.876Z</time></trkpt><trkpt lat="43.5877395" lon="6.9248085"><ele>12.142857142857142</ele><time>2026-04-12T10:32:36.861Z</time></trkpt><trkpt lat="43.5877011" lon="6.9248966"><ele>12.285714285714285</ele><time>2026-04-12T10:32:37.847Z</time></trkpt><trkpt lat="43.5876647" lon="6.9249748"><ele>12.428571428571427</ele><time>2026-04-12T10:32:38.855Z</time></trkpt><trkpt lat="43.587618" lon="6.9250422"><ele>12.571428571428571</ele><time>2026-04-12T10:32:39.877Z</time></trkpt><trkpt lat="43.5875526" lon="6.9250824"><ele>12.714285714285715</ele><time>2026-04-12T10:32:40.865Z</time></trkpt><trkpt lat="43.5874823" lon="6.9250981"><ele>12.857142857142856</ele><time>2026-04-12T10:32:41.852Z</time></trkpt><trkpt lat="43.5874175" lon="6.9251007"><ele>13.0</ele><time>2026-04-12T10:32:42.868Z</time></trkpt><trkpt lat="43.5873518" lon="6.9250997"><ele>12.999999999999998</ele><time>2026-04-12T10:32:43.88Z</time></trkpt><trkpt lat="43.5872333" lon="6.9251064"><ele>13.0</ele><time>2026-04-12T10:32:45.896Z</time></trkpt><trkpt lat="43.5871694" lon="6.9251183"><ele>13.0</ele><time>2026-04-12T10:32:46.883Z</time></trkpt><trkpt lat="43.5871094" lon="6.9251512"><ele>13.0</ele><time>2026-04-12T10:32:47.837Z</time></trkpt><trkpt lat="43.5870043" lon="6.9252349"><ele>12.999999999999998</ele><time>2026-04-12T10:32:49.911Z</time></trkpt><trkpt lat="43.5869399" lon="6.9252965"><ele>13.0</ele><time>2026-04-12T10:32:51.863Z</time></trkpt><trkpt lat="43.5869074" lon="6.9253759"><ele>13.0</ele><time>2026-04-12T10:32:54.865Z</time></trkpt><trkpt lat="43.5869558" lon="6.9254994"><ele>13.0</ele><time>2026-04-12T10:32:57.841Z</time></trkpt><trkpt lat="43.5870309" lon="6.9255839"><ele>13.0</ele><time>2026-04-12T10:32:59.855Z</time></trkpt><trkpt lat="43.5871109" lon="6.9256629"><ele>13.0</ele><time>2026-04-12T10:33:01.869Z</time></trkpt><trkpt lat="43.5872087" lon="6.925755"><ele>13.0</ele><time>2026-04-12T10:33:03.856Z</time></trkpt><trkpt lat="43.5873173" lon="6.9258471"><ele>13.0</ele><time>2026-04-12T10:33:05.88Z</time></trkpt><trkpt lat="43.587367" lon="6.9259042"><ele>13.0</ele><time>2026-04-12T10:33:06.856Z</time></trkpt><trkpt lat="43.5874239" lon="6.9259571"><ele>13.0</ele><time>2026-04-12T10:33:07.879Z</time></trkpt><trkpt lat="43.5874795" lon="6.9260083"><ele>13.0</ele><time>2026-04-12T10:33:08.853Z</time></trkpt><trkpt lat="43.5875372" lon="6.9260585"><ele>13.0</ele><time>2026-04-12T10:33:09.869Z</time></trkpt><trkpt lat="43.5875968" lon="6.9261159"><ele>13.0</ele><time>2026-04-12T10:33:10.871Z</time></trkpt><trkpt lat="43.5876544" lon="6.9261643"><ele>13.0</ele><time>2026-04-12T10:33:11.824Z</time></trkpt><trkpt lat="43.5877103" lon="6.9262167"><ele>13.0</ele><time>2026-04-12T10:33:12.853Z</time></trkpt><trkpt lat="43.5877672" lon="6.9262608"><ele>13.0</ele><time>2026-04-12T10:33:13.903Z</time></trkpt><trkpt lat="43.5878195" lon="6.9263113"><ele>13.0</ele><time>2026-04-12T10:33:14.863Z</time></trkpt><trkpt lat="43.5879227" lon="6.9264165"><ele>13.0</ele><time>2026-04-12T10:33:16.886Z</time></trkpt><trkpt lat="43.5880181" lon="6.9265252"><ele>13.0</ele><time>2026-04-12T10:33:18.887Z</time></trkpt><trkpt lat="43.588108" lon="6.9266237"><ele>12.75</ele><time>2026-04-12T10:33:20.877Z</time></trkpt><trkpt lat="43.5882017" lon="6.9267278"><ele>12.5</ele><time>2026-04-12T10:33:22.866Z</time></trkpt><trkpt lat="43.5882968" lon="6.9268123"><ele>12.25</ele><time>2026-04-12T10:33:24.869Z</time></trkpt><trkpt lat="43.5883996" lon="6.9268942"><ele>12.0</ele><time>2026-04-12T10:33:26.857Z</time></trkpt><trkpt lat="43.5884909" lon="6.9269881"><ele>12.0</ele><time>2026-04-12T10:33:28.841Z</time></trkpt><trkpt lat="43.5885837" lon="6.9270709"><ele>12.0</ele><time>2026-04-12T10:33:30.841Z</time></trkpt><trkpt lat="43.5886775" lon="6.9271494"><ele>12.0</ele><time>2026-04-12T10:33:32.87Z</time></trkpt><trkpt lat="43.5887543" lon="6.9272344"><ele>12.0</ele><time>2026-04-12T10:33:34.883Z</time></trkpt><trkpt lat="43.5888274" lon="6.9273216"><ele>12.0</ele><time>2026-04-12T10:33:36.859Z</time></trkpt><trkpt lat="43.5888981" lon="6.9274083"><ele>12.2</ele><time>2026-04-12T10:33:38.875Z</time></trkpt><trkpt lat="43.5889677" lon="6.9274953"><ele>12.399999999999999</ele><time>2026-04-12T10:33:40.882Z</time></trkpt><trkpt lat="43.5890468" lon="6.9275939"><ele>12.600000000000001</ele><time>2026-04-12T10:33:42.877Z</time></trkpt><trkpt lat="43.5891194" lon="6.9276897"><ele>12.8</ele><time>2026-04-12T10:33:44.848Z</time></trkpt><trkpt lat="43.5891863" lon="6.9277774"><ele>13.0</ele><time>2026-04-12T10:33:46.848Z</time></trkpt><trkpt lat="43.5892612" lon="6.9278679"><ele>13.0</ele><time>2026-04-12T10:33:48.889Z</time></trkpt><trkpt lat="43.589341" lon="6.9279615"><ele>13.0</ele><time>2026-04-12T10:33:50.884Z</time></trkpt><trkpt lat="43.5894171" lon="6.9280635"><ele>13.0</ele><time>2026-04-12T10:33:52.885Z</time></trkpt><trkpt lat="43.5894946" lon="6.9281717"><ele>13.0</ele><time>2026-04-12T10:33:54.871Z</time></trkpt><trkpt lat="43.5895779" lon="6.9282685"><ele>13.0</ele><time>2026-04-12T10:33:56.862Z</time></trkpt><trkpt lat="43.5896723" lon="6.9283784"><ele>13.166666666666666</ele><time>2026-04-12T10:33:58.877Z</time></trkpt><trkpt lat="43.5897658" lon="6.9284931"><ele>13.333333333333332</ele><time>2026-04-12T10:34:00.85Z</time></trkpt><trkpt lat="43.5898149" lon="6.9285502"><ele>13.5</ele><time>2026-04-12T10:34:01.833Z</time></trkpt><trkpt lat="43.5898701" lon="6.9286119"><ele>13.666666666666668</ele><time>2026-04-12T10:34:02.888Z</time></trkpt><trkpt lat="43.5899288" lon="6.928668"><ele>13.833333333333334</ele><time>2026-04-12T10:34:03.859Z</time></trkpt><trkpt lat="43.5899918" lon="6.9287116"><ele>14.0</ele><time>2026-04-12T10:34:04.892Z</time></trkpt><trkpt lat="43.5900536" lon="6.9287449"><ele>14.0</ele><time>2026-04-12T10:34:05.879Z</time></trkpt><trkpt lat="43.5901249" lon="6.9287685"><ele>14.0</ele><time>2026-04-12T10:34:06.846Z</time></trkpt><trkpt lat="43.5901925" lon="6.9287905"><ele>14.0</ele><time>2026-04-12T10:34:07.877Z</time></trkpt><trkpt lat="43.59026" lon="6.9288184"><ele>14.0</ele><time>2026-04-12T10:34:08.889Z</time></trkpt><trkpt lat="43.5903314" lon="6.9288428"><ele>14.0</ele><time>2026-04-12T10:34:09.905Z</time></trkpt><trkpt lat="43.5903991" lon="6.9288709"><ele>14.0</ele><time>2026-04-12T10:34:10.871Z</time></trkpt><trkpt lat="43.5904617" lon="6.9289006"><ele>14.0</ele><time>2026-04-12T10:34:11.894Z</time></trkpt><trkpt lat="43.5905246" lon="6.9289276"><ele>14.0</ele><time>2026-04-12T10:34:12.887Z</time></trkpt><trkpt lat="43.5906436" lon="6.9289768"><ele>13.999999999999998</ele><time>2026-04-12T10:34:14.891Z</time></trkpt><trkpt lat="43.5907597" lon="6.9290301"><ele>13.999999999999998</ele><time>2026-04-12T10:34:16.826Z</time></trkpt><trkpt lat="43.5908595" lon="6.9290776"><ele>14.0</ele><time>2026-04-12T10:34:18.894Z</time></trkpt><trkpt lat="43.5909164" lon="6.9291601"><ele>14.0</ele><time>2026-04-12T10:34:20.857Z</time></trkpt><trkpt lat="43.5909287" lon="6.9292793"><ele>14.000000000000002</ele><time>2026-04-12T10:34:22.864Z</time></trkpt><trkpt lat="43.5908891" lon="6.9294217"><ele>14.0</ele><time>2026-04-12T10:34:24.859Z</time></trkpt><trkpt lat="43.5908199" lon="6.9295608"><ele>14.0</ele><time>2026-04-12T10:34:26.858Z</time></trkpt><trkpt lat="43.5907741" lon="6.9296281"><ele>14.0</ele><time>2026-04-12T10:34:27.875Z</time></trkpt><trkpt lat="43.5907348" lon="6.9296975"><ele>14.000000000000002</ele><time>2026-04-12T10:34:28.885Z</time></trkpt><trkpt lat="43.5906973" lon="6.9297695"><ele>14.0</ele><time>2026-04-12T10:34:29.872Z</time></trkpt><trkpt lat="43.5906539" lon="6.9298407"><ele>14.0</ele><time>2026-04-12T10:34:30.874Z</time></trkpt><trkpt lat="43.5906114" lon="6.9299064"><ele>14.0</ele><time>2026-04-12T10:34:31.866Z</time></trkpt><trkpt lat="43.5905648" lon="6.9299787"><ele>14.0</ele><time>2026-04-12T10:34:32.876Z</time></trkpt><trkpt lat="43.5905202" lon="6.9300553"><ele>14.0</ele><time>2026-04-12T10:34:33.892Z</time></trkpt><trkpt lat="43.5904751" lon="6.9301376"><ele>14.0</ele><time>2026-04-12T10:34:34.876Z</time></trkpt><trkpt lat="43.5904319" lon="6.930214"><ele>14.0</ele><time>2026-04-12T10:34:35.886Z</time></trkpt><trkpt lat="43.5903936" lon="6.930293"><ele>14.0</ele><time>2026-04-12T10:34:36.888Z</time></trkpt><trkpt lat="43.5903505" lon="6.9303686"><ele>13.857142857142858</ele><time>2026-04-12T10:34:37.878Z</time></trkpt><trkpt lat="43.5903063" lon="6.9304446"><ele>13.714285714285715</ele><time>2026-04-12T10:34:38.872Z</time></trkpt><trkpt lat="43.5902586" lon="6.9305184"><ele>13.571428571428571</ele><time>2026-04-12T10:34:39.89Z</time></trkpt><trkpt lat="43.5902095" lon="6.9305835"><ele>13.428571428571429</ele><time>2026-04-12T10:34:40.879Z</time></trkpt><trkpt lat="43.5901627" lon="6.9306478"><ele>13.285714285714286</ele><time>2026-04-12T10:34:41.895Z</time></trkpt><trkpt lat="43.5901172" lon="6.930719"><ele>13.142857142857142</ele><time>2026-04-12T10:34:42.877Z</time></trkpt><trkpt lat="43.5900686" lon="6.9307817"><ele>13.0</ele><time>2026-04-12T10:34:43.861Z</time></trkpt><trkpt lat="43.5900177" lon="6.9308454"><ele>12.857142857142856</ele><time>2026-04-12T10:34:44.889Z</time></trkpt><trkpt lat="43.5899685" lon="6.9309135"><ele>12.714285714285715</ele><time>2026-04-12T10:34:45.858Z</time></trkpt><trkpt lat="43.5899175" lon="6.9309766"><ele>12.571428571428571</ele><time>2026-04-12T10:34:46.876Z</time></trkpt><trkpt lat="43.5898659" lon="6.9310405"><ele>12.428571428571427</ele><time>2026-04-12T10:34:47.864Z</time></trkpt><trkpt lat="43.5898174" lon="6.9311062"><ele>12.285714285714285</ele><time>2026-04-12T10:34:48.852Z</time></trkpt><trkpt lat="43.5897688" lon="6.9311737"><ele>12.142857142857142</ele><time>2026-04-12T10:34:49.849Z</time></trkpt><trkpt lat="43.5897184" lon="6.9312397"><ele>12.0</ele><time>2026-04-12T10:34:50.866Z</time></trkpt><trkpt lat="43.5896661" lon="6.9313095"><ele>11.999999999999998</ele><time>2026-04-12T10:34:51.867Z</time></trkpt><trkpt lat="43.5896164" lon="6.9313769"><ele>12.0</ele><time>2026-04-12T10:34:52.883Z</time></trkpt><trkpt lat="43.5895634" lon="6.9314448"><ele>12.0</ele><time>2026-04-12T10:34:53.831Z</time></trkpt><trkpt lat="43.5895116" lon="6.9315143"><ele>12.0</ele><time>2026-04-12T10:34:54.842Z</time></trkpt><trkpt lat="43.5894651" lon="6.9315748"><ele>12.0</ele><time>2026-04-12T10:34:55.883Z</time></trkpt><trkpt lat="43.5894157" lon="6.9316393"><ele>11.999999999999998</ele><time>2026-04-12T10:34:56.847Z</time></trkpt><trkpt lat="43.5893635" lon="6.9316999"><ele>12.0</ele><time>2026-04-12T10:34:57.84Z</time></trkpt><trkpt lat="43.5893098" lon="6.9317573"><ele>12.428571428571427</ele><time>2026-04-12T10:34:58.826Z</time></trkpt><trkpt lat="43.5892519" lon="6.9318267"><ele>12.857142857142858</ele><time>2026-04-12T10:34:59.867Z</time></trkpt><trkpt lat="43.5891977" lon="6.9319004"><ele>13.285714285714285</ele><time>2026-04-12T10:35:00.881Z</time></trkpt><trkpt lat="43.5891446" lon="6.9319582"><ele>13.714285714285714</ele><time>2026-04-12T10:35:01.857Z</time></trkpt><trkpt lat="43.5890926" lon="6.9320238"><ele>14.142857142857142</ele><time>2026-04-12T10:35:02.852Z</time></trkpt><trkpt lat="43.5890446" lon="6.9320882"><ele>14.571428571428571</ele><time>2026-04-12T10:35:03.851Z</time></trkpt><trkpt lat="43.5889952" lon="6.9321548"><ele>15.0</ele><time>2026-04-12T10:35:04.851Z</time></trkpt><trkpt lat="43.5889458" lon="6.9322169"><ele>15.0</ele><time>2026-04-12T10:35:05.896Z</time></trkpt><trkpt lat="43.5888953" lon="6.9322847"><ele>15.0</ele><time>2026-04-12T10:35:06.863Z</time></trkpt><trkpt lat="43.5888419" lon="6.9323575"><ele>15.0</ele><time>2026-04-12T10:35:07.88Z</time></trkpt><trkpt lat="43.5887877" lon="6.9324221"><ele>15.0</ele><time>2026-04-12T10:35:08.865Z</time></trkpt><trkpt lat="43.5887345" lon="6.9324927"><ele>15.0</ele><time>2026-04-12T10:35:09.827Z</time></trkpt><trkpt lat="43.5886825" lon="6.9325621"><ele>15.0</ele><time>2026-04-12T10:35:10.876Z</time></trkpt><trkpt lat="43.5886301" lon="6.9326322"><ele>15.0</ele><time>2026-04-12T10:35:11.864Z</time></trkpt><trkpt lat="43.5885807" lon="6.9327041"><ele>14.714285714285715</ele><time>2026-04-12T10:35:12.893Z</time></trkpt><trkpt lat="43.588528" lon="6.9327718"><ele>14.428571428571427</ele><time>2026-04-12T10:35:13.886Z</time></trkpt><trkpt lat="43.5884744" lon="6.9328449"><ele>14.142857142857142</ele><time>2026-04-12T10:35:14.859Z</time></trkpt><trkpt lat="43.5884235" lon="6.9329113"><ele>13.857142857142858</ele><time>2026-04-12T10:35:15.876Z</time></trkpt><trkpt lat="43.5883719" lon="6.9329837"><ele>13.571428571428573</ele><time>2026-04-12T10:35:16.879Z</time></trkpt><trkpt lat="43.5883226" lon="6.9330581"><ele>13.285714285714285</ele><time>2026-04-12T10:35:17.853Z</time></trkpt><trkpt lat="43.5882714" lon="6.9331327"><ele>13.0</ele><time>2026-04-12T10:35:18.885Z</time></trkpt><trkpt lat="43.5882246" lon="6.9332081"><ele>13.0</ele><time>2026-04-12T10:35:19.887Z</time></trkpt><trkpt lat="43.5881773" lon="6.933283"><ele>13.0</ele><time>2026-04-12T10:35:20.866Z</time></trkpt><trkpt lat="43.5881299" lon="6.9333617"><ele>13.0</ele><time>2026-04-12T10:35:21.885Z</time></trkpt><trkpt lat="43.588086" lon="6.9334368"><ele>13.0</ele><time>2026-04-12T10:35:22.874Z</time></trkpt><trkpt lat="43.5880396" lon="6.9335185"><ele>13.0</ele><time>2026-04-12T10:35:23.874Z</time></trkpt><trkpt lat="43.5879947" lon="6.9336015"><ele>13.0</ele><time>2026-04-12T10:35:24.873Z</time></trkpt><trkpt lat="43.5879537" lon="6.9336809"><ele>13.0</ele><time>2026-04-12T10:35:25.875Z</time></trkpt><trkpt lat="43.5879146" lon="6.9337617"><ele>13.0</ele><time>2026-04-12T10:35:26.849Z</time></trkpt><trkpt lat="43.5878741" lon="6.9338431"><ele>13.0</ele><time>2026-04-12T10:35:27.833Z</time></trkpt><trkpt lat="43.5878366" lon="6.9339248"><ele>13.0</ele><time>2026-04-12T10:35:28.86Z</time></trkpt><trkpt lat="43.5877981" lon="6.934004"><ele>13.0</ele><time>2026-04-12T10:35:29.861Z</time></trkpt><trkpt lat="43.5877535" lon="6.934093"><ele>13.0</ele><time>2026-04-12T10:35:30.82Z</time></trkpt><trkpt lat="43.5877126" lon="6.9341824"><ele>13.0</ele><time>2026-04-12T10:35:31.831Z</time></trkpt><trkpt lat="43.587683" lon="6.9342749"><ele>13.0</ele><time>2026-04-12T10:35:32.834Z</time></trkpt><trkpt lat="43.5876416" lon="6.9343555"><ele>12.833333333333332</ele><time>2026-04-12T10:35:33.818Z</time></trkpt><trkpt lat="43.5876085" lon="6.9344358"><ele>12.666666666666666</ele><time>2026-04-12T10:35:34.837Z</time></trkpt><trkpt lat="43.5875693" lon="6.9345203"><ele>12.5</ele><time>2026-04-12T10:35:35.836Z</time></trkpt><trkpt lat="43.5874978" lon="6.9346466"><ele>12.333333333333332</ele><time>2026-04-12T10:35:37.852Z</time></trkpt><trkpt lat="43.58743" lon="6.9347096"><ele>12.166666666666666</ele><time>2026-04-12T10:35:39.846Z</time></trkpt><trkpt lat="43.5873407" lon="6.9347513"><ele>12.0</ele><time>2026-04-12T10:35:41.864Z</time></trkpt><trkpt lat="43.5872534" lon="6.9347914"><ele>12.0</ele><time>2026-04-12T10:35:43.886Z</time></trkpt><trkpt lat="43.5871345" lon="6.9348113"><ele>12.0</ele><time>2026-04-12T10:35:45.869Z</time></trkpt><trkpt lat="43.5870711" lon="6.934805"><ele>12.0</ele><time>2026-04-12T10:35:46.862Z</time></trkpt><trkpt lat="43.5869491" lon="6.9347461"><ele>12.0</ele><time>2026-04-12T10:35:48.884Z</time></trkpt><trkpt lat="43.5868903" lon="6.9347099"><ele>12.0</ele><time>2026-04-12T10:35:49.828Z</time></trkpt><trkpt lat="43.5868241" lon="6.9346702"><ele>12.0</ele><time>2026-04-12T10:35:50.893Z</time></trkpt><trkpt lat="43.5867631" lon="6.9346265"><ele>11.999999999999998</ele><time>2026-04-12T10:35:51.883Z</time></trkpt><trkpt lat="43.5867007" lon="6.9345803"><ele>12.0</ele><time>2026-04-12T10:35:52.846Z</time></trkpt><trkpt lat="43.5866362" lon="6.9345352"><ele>12.0</ele><time>2026-04-12T10:35:53.9Z</time></trkpt><trkpt lat="43.5865689" lon="6.9344917"><ele>12.0</ele><time>2026-04-12T10:35:54.863Z</time></trkpt><trkpt lat="43.5865011" lon="6.934452"><ele>12.0</ele><time>2026-04-12T10:35:55.87Z</time></trkpt><trkpt lat="43.5864348" lon="6.9344083"><ele>11.999999999999998</ele><time>2026-04-12T10:35:56.88Z</time></trkpt><trkpt lat="43.5863657" lon="6.9343665"><ele>12.0</ele><time>2026-04-12T10:35:57.867Z</time></trkpt><trkpt lat="43.5862963" lon="6.9343254"><ele>12.0</ele><time>2026-04-12T10:35:58.832Z</time></trkpt><trkpt lat="43.5862262" lon="6.9342831"><ele>12.0</ele><time>2026-04-12T10:35:59.878Z</time></trkpt><trkpt lat="43.5861517" lon="6.9342392"><ele>12.0</ele><time>2026-04-12T10:36:00.872Z</time></trkpt><trkpt lat="43.5860826" lon="6.9341993"><ele>12.0</ele><time>2026-04-12T10:36:01.88Z</time></trkpt><trkpt lat="43.5860179" lon="6.9341604"><ele>12.0</ele><time>2026-04-12T10:36:02.862Z</time></trkpt><trkpt lat="43.5859513" lon="6.9341172"><ele>12.0</ele><time>2026-04-12T10:36:03.879Z</time></trkpt><trkpt lat="43.5858822" lon="6.9340709"><ele>11.857142857142856</ele><time>2026-04-12T10:36:04.846Z</time></trkpt><trkpt lat="43.5858151" lon="6.9340301"><ele>11.714285714285714</ele><time>2026-04-12T10:36:05.881Z</time></trkpt><trkpt lat="43.5857479" lon="6.9339862"><ele>11.571428571428571</ele><time>2026-04-12T10:36:06.878Z</time></trkpt><trkpt lat="43.5856819" lon="6.9339452"><ele>11.428571428571427</ele><time>2026-04-12T10:36:07.839Z</time></trkpt><trkpt lat="43.5856128" lon="6.9339029"><ele>11.285714285714285</ele><time>2026-04-12T10:36:08.892Z</time></trkpt><trkpt lat="43.5855502" lon="6.9338644"><ele>11.142857142857142</ele><time>2026-04-12T10:36:09.848Z</time></trkpt><trkpt lat="43.5854831" lon="6.9338233"><ele>11.0</ele><time>2026-04-12T10:36:10.904Z</time></trkpt><trkpt lat="43.585416" lon="6.9337893"><ele>11.0</ele><time>2026-04-12T10:36:11.844Z</time></trkpt><trkpt lat="43.5853467" lon="6.9337532"><ele>11.0</ele><time>2026-04-12T10:36:12.881Z</time></trkpt><trkpt lat="43.5852805" lon="6.9337153"><ele>11.0</ele><time>2026-04-12T10:36:13.87Z</time></trkpt><trkpt lat="43.5852098" lon="6.9336808"><ele>11.0</ele><time>2026-04-12T10:36:14.869Z</time></trkpt><trkpt lat="43.5851461" lon="6.9336374"><ele>11.0</ele><time>2026-04-12T10:36:15.874Z</time></trkpt><trkpt lat="43.5850776" lon="6.9336054"><ele>11.0</ele><time>2026-04-12T10:36:16.878Z</time></trkpt><trkpt lat="43.585011" lon="6.9335699"><ele>11.0</ele><time>2026-04-12T10:36:17.864Z</time></trkpt><trkpt lat="43.5849475" lon="6.9335382"><ele>11.0</ele><time>2026-04-12T10:36:18.868Z</time></trkpt><trkpt lat="43.584887" lon="6.9335059"><ele>11.0</ele><time>2026-04-12T10:36:19.877Z</time></trkpt><trkpt lat="43.5848228" lon="6.9334717"><ele>11.0</ele><time>2026-04-12T10:36:20.856Z</time></trkpt><trkpt lat="43.5847574" lon="6.933439"><ele>11.0</ele><time>2026-04-12T10:36:21.883Z</time></trkpt><trkpt lat="43.5846888" lon="6.9334036"><ele>11.0</ele><time>2026-04-12T10:36:22.862Z</time></trkpt><trkpt lat="43.5846197" lon="6.9333749"><ele>11.0</ele><time>2026-04-12T10:36:23.895Z</time></trkpt><trkpt lat="43.5845517" lon="6.9333471"><ele>11.0</ele><time>2026-04-12T10:36:24.866Z</time></trkpt><trkpt lat="43.5844843" lon="6.9333184"><ele>10.714285714285715</ele><time>2026-04-12T10:36:25.867Z</time></trkpt><trkpt lat="43.5844188" lon="6.9332901"><ele>10.428571428571429</ele><time>2026-04-12T10:36:26.892Z</time></trkpt><trkpt lat="43.5843503" lon="6.933264"><ele>10.142857142857142</ele><time>2026-04-12T10:36:27.872Z</time></trkpt><trkpt lat="43.5842827" lon="6.9332406"><ele>9.857142857142858</ele><time>2026-04-12T10:36:28.889Z</time></trkpt><trkpt lat="43.5842166" lon="6.9332205"><ele>9.571428571428571</ele><time>2026-04-12T10:36:29.889Z</time></trkpt><trkpt lat="43.5841466" lon="6.9331987"><ele>9.285714285714286</ele><time>2026-04-12T10:36:30.869Z</time></trkpt><trkpt lat="43.5840759" lon="6.9331775"><ele>9.0</ele><time>2026-04-12T10:36:31.876Z</time></trkpt><trkpt lat="43.5840091" lon="6.9331562"><ele>9.000000000000002</ele><time>2026-04-12T10:36:32.871Z</time></trkpt><trkpt lat="43.583937" lon="6.9331419"><ele>9.0</ele><time>2026-04-12T10:36:33.914Z</time></trkpt><trkpt lat="43.5838687" lon="6.9331282"><ele>9.0</ele><time>2026-04-12T10:36:34.866Z</time></trkpt><trkpt lat="43.5838027" lon="6.9331165"><ele>9.0</ele><time>2026-04-12T10:36:35.883Z</time></trkpt><trkpt lat="43.5837332" lon="6.9330998"><ele>9.0</ele><time>2026-04-12T10:36:36.869Z</time></trkpt><trkpt lat="43.5836604" lon="6.9330882"><ele>9.000000000000002</ele><time>2026-04-12T10:36:37.884Z</time></trkpt><trkpt lat="43.5835938" lon="6.933076"><ele>9.0</ele><time>2026-04-12T10:36:38.884Z</time></trkpt><trkpt lat="43.5835258" lon="6.9330662"><ele>9.142857142857144</ele><time>2026-04-12T10:36:39.874Z</time></trkpt><trkpt lat="43.5834621" lon="6.9330578"><ele>9.285714285714286</ele><time>2026-04-12T10:36:40.828Z</time></trkpt><trkpt lat="43.5833971" lon="6.9330513"><ele>9.428571428571429</ele><time>2026-04-12T10:36:41.899Z</time></trkpt><trkpt lat="43.583334" lon="6.9330436"><ele>9.571428571428573</ele><time>2026-04-12T10:36:42.841Z</time></trkpt><trkpt lat="43.5832674" lon="6.9330382"><ele>9.714285714285715</ele><time>2026-04-12T10:36:43.885Z</time></trkpt><trkpt lat="43.5832007" lon="6.933033"><ele>9.857142857142858</ele><time>2026-04-12T10:36:44.861Z</time></trkpt><trkpt lat="43.5831319" lon="6.9330257"><ele>10.0</ele><time>2026-04-12T10:36:45.853Z</time></trkpt><trkpt lat="43.5830659" lon="6.9330242"><ele>10.0</ele><time>2026-04-12T10:36:46.87Z</time></trkpt><trkpt lat="43.5829983" lon="6.9330246"><ele>10.0</ele><time>2026-04-12T10:36:47.865Z</time></trkpt><trkpt lat="43.5829315" lon="6.9330264"><ele>10.0</ele><time>2026-04-12T10:36:48.877Z</time></trkpt><trkpt lat="43.5828638" lon="6.9330272"><ele>10.0</ele><time>2026-04-12T10:36:49.852Z</time></trkpt><trkpt lat="43.5827968" lon="6.9330341"><ele>10.0</ele><time>2026-04-12T10:36:50.878Z</time></trkpt><trkpt lat="43.5827283" lon="6.9330368"><ele>10.0</ele><time>2026-04-12T10:36:51.882Z</time></trkpt><trkpt lat="43.5826617" lon="6.9330425"><ele>10.0</ele><time>2026-04-12T10:36:52.853Z</time></trkpt><trkpt lat="43.5825955" lon="6.9330477"><ele>10.285714285714285</ele><time>2026-04-12T10:36:53.879Z</time></trkpt><trkpt lat="43.5825286" lon="6.9330511"><ele>10.571428571428571</ele><time>2026-04-12T10:36:54.863Z</time></trkpt><trkpt lat="43.5824605" lon="6.9330568"><ele>10.857142857142858</ele><time>2026-04-12T10:36:55.848Z</time></trkpt><trkpt lat="43.582391" lon="6.9330667"><ele>11.142857142857142</ele><time>2026-04-12T10:36:56.86Z</time></trkpt><trkpt lat="43.5823212" lon="6.9330834"><ele>11.428571428571429</ele><time>2026-04-12T10:36:57.891Z</time></trkpt><trkpt lat="43.5822503" lon="6.9330957"><ele>11.714285714285714</ele><time>2026-04-12T10:36:58.887Z</time></trkpt><trkpt lat="43.5821809" lon="6.9331122"><ele>12.0</ele><time>2026-04-12T10:36:59.872Z</time></trkpt><trkpt lat="43.5821125" lon="6.9331293"><ele>11.999999999999998</ele><time>2026-04-12T10:37:00.872Z</time></trkpt><trkpt lat="43.5820416" lon="6.9331438"><ele>12.0</ele><time>2026-04-12T10:37:01.889Z</time></trkpt><trkpt lat="43.5819673" lon="6.9331601"><ele>12.0</ele><time>2026-04-12T10:37:02.882Z</time></trkpt><trkpt lat="43.581898" lon="6.9331744"><ele>12.0</ele><time>2026-04-12T10:37:03.831Z</time></trkpt><trkpt lat="43.5818271" lon="6.9331918"><ele>12.0</ele><time>2026-04-12T10:37:04.877Z</time></trkpt><trkpt lat="43.5817575" lon="6.9332092"><ele>11.999999999999998</ele><time>2026-04-12T10:37:05.862Z</time></trkpt><trkpt lat="43.581686" lon="6.9332291"><ele>12.0</ele><time>2026-04-12T10:37:06.9Z</time></trkpt><trkpt lat="43.5816165" lon="6.9332542"><ele>11.999999999999998</ele><time>2026-04-12T10:37:07.871Z</time></trkpt><trkpt lat="43.5815478" lon="6.9332784"><ele>12.0</ele><time>2026-04-12T10:37:08.884Z</time></trkpt><trkpt lat="43.5814781" lon="6.9333049"><ele>12.0</ele><time>2026-04-12T10:37:09.844Z</time></trkpt><trkpt lat="43.5814108" lon="6.9333265"><ele>12.0</ele><time>2026-04-12T10:37:10.869Z</time></trkpt><trkpt lat="43.5813417" lon="6.933351"><ele>12.0</ele><time>2026-04-12T10:37:11.881Z</time></trkpt><trkpt lat="43.5812712" lon="6.9333795"><ele>11.999999999999998</ele><time>2026-04-12T10:37:12.876Z</time></trkpt><trkpt lat="43.581203" lon="6.933408"><ele>12.0</ele><time>2026-04-12T10:37:13.877Z</time></trkpt><trkpt lat="43.5811345" lon="6.9334409"><ele>11.857142857142856</ele><time>2026-04-12T10:37:14.876Z</time></trkpt><trkpt lat="43.5810691" lon="6.9334717"><ele>11.714285714285714</ele><time>2026-04-12T10:37:15.853Z</time></trkpt><trkpt lat="43.5810023" lon="6.9335075"><ele>11.571428571428571</ele><time>2026-04-12T10:37:16.874Z</time></trkpt><trkpt lat="43.5809365" lon="6.9335448"><ele>11.428571428571427</ele><time>2026-04-12T10:37:17.872Z</time></trkpt><trkpt lat="43.5808706" lon="6.93358"><ele>11.285714285714285</ele><time>2026-04-12T10:37:18.874Z</time></trkpt><trkpt lat="43.580804" lon="6.9336157"><ele>11.142857142857142</ele><time>2026-04-12T10:37:19.87Z</time></trkpt><trkpt lat="43.5807383" lon="6.9336542"><ele>11.0</ele><time>2026-04-12T10:37:20.883Z</time></trkpt><trkpt lat="43.5806716" lon="6.9336968"><ele>11.0</ele><time>2026-04-12T10:37:21.874Z</time></trkpt><trkpt lat="43.5806074" lon="6.9337375"><ele>11.0</ele><time>2026-04-12T10:37:22.876Z</time></trkpt><trkpt lat="43.5805474" lon="6.9337749"><ele>11.0</ele><time>2026-04-12T10:37:23.85Z</time></trkpt><trkpt lat="43.5804873" lon="6.9338149"><ele>11.0</ele><time>2026-04-12T10:37:24.872Z</time></trkpt><trkpt lat="43.5803762" lon="6.9338897"><ele>11.0</ele><time>2026-04-12T10:37:26.878Z</time></trkpt><trkpt lat="43.5802696" lon="6.9339721"><ele>11.0</ele><time>2026-04-12T10:37:28.878Z</time></trkpt><trkpt lat="43.5802121" lon="6.934011"><ele>10.8</ele><time>2026-04-12T10:37:29.885Z</time></trkpt><trkpt lat="43.5801133" lon="6.9340896"><ele>10.600000000000001</ele><time>2026-04-12T10:37:31.871Z</time></trkpt><trkpt lat="43.5800176" lon="6.934165"><ele>10.4</ele><time>2026-04-12T10:37:33.861Z</time></trkpt><trkpt lat="43.5799142" lon="6.9342632"><ele>10.2</ele><time>2026-04-12T10:37:35.857Z</time></trkpt><trkpt lat="43.5798621" lon="6.934317"><ele>10.0</ele><time>2026-04-12T10:37:36.879Z</time></trkpt><trkpt lat="43.5798047" lon="6.9343685"><ele>10.0</ele><time>2026-04-12T10:37:37.877Z</time></trkpt><trkpt lat="43.57975" lon="6.9344202"><ele>10.0</ele><time>2026-04-12T10:37:38.867Z</time></trkpt><trkpt lat="43.5796962" lon="6.9344749"><ele>10.0</ele><time>2026-04-12T10:37:39.86Z</time></trkpt><trkpt lat="43.5796455" lon="6.9345311"><ele>10.0</ele><time>2026-04-12T10:37:40.843Z</time></trkpt><trkpt lat="43.5795422" lon="6.9346431"><ele>10.0</ele><time>2026-04-12T10:37:42.853Z</time></trkpt><trkpt lat="43.5794879" lon="6.9346974"><ele>10.0</ele><time>2026-04-12T10:37:43.869Z</time></trkpt><trkpt lat="43.5794377" lon="6.9347591"><ele>10.0</ele><time>2026-04-12T10:37:44.882Z</time></trkpt><trkpt lat="43.5793873" lon="6.9348189"><ele>10.0</ele><time>2026-04-12T10:37:45.848Z</time></trkpt><trkpt lat="43.5793375" lon="6.9348776"><ele>10.0</ele><time>2026-04-12T10:37:46.865Z</time></trkpt><trkpt lat="43.579287" lon="6.9349368"><ele>10.0</ele><time>2026-04-12T10:37:47.852Z</time></trkpt><trkpt lat="43.5792376" lon="6.9349999"><ele>10.0</ele><time>2026-04-12T10:37:48.865Z</time></trkpt><trkpt lat="43.579188" lon="6.935067"><ele>10.0</ele><time>2026-04-12T10:37:49.865Z</time></trkpt><trkpt lat="43.5791371" lon="6.9351358"><ele>10.0</ele><time>2026-04-12T10:37:50.869Z</time></trkpt><trkpt lat="43.5790844" lon="6.9352074"><ele>10.0</ele><time>2026-04-12T10:37:51.86Z</time></trkpt><trkpt lat="43.5790344" lon="6.9352705"><ele>10.0</ele><time>2026-04-12T10:37:52.881Z</time></trkpt><trkpt lat="43.5789851" lon="6.9353349"><ele>10.0</ele><time>2026-04-12T10:37:53.873Z</time></trkpt><trkpt lat="43.5789353" lon="6.9354018"><ele>10.0</ele><time>2026-04-12T10:37:54.881Z</time></trkpt><trkpt lat="43.5788869" lon="6.9354732"><ele>10.0</ele><time>2026-04-12T10:37:55.884Z</time></trkpt><trkpt lat="43.5788429" lon="6.9355381"><ele>10.0</ele><time>2026-04-12T10:37:56.856Z</time></trkpt><trkpt lat="43.5788029" lon="6.9356071"><ele>10.0</ele><time>2026-04-12T10:37:57.85Z</time></trkpt><trkpt lat="43.5787588" lon="6.9356822"><ele>10.0</ele><time>2026-04-12T10:37:58.86Z</time></trkpt><trkpt lat="43.5787141" lon="6.9357561"><ele>10.0</ele><time>2026-04-12T10:37:59.869Z</time></trkpt><trkpt lat="43.5786721" lon="6.9358263"><ele>10.0</ele><time>2026-04-12T10:38:00.876Z</time></trkpt><trkpt lat="43.5786287" lon="6.9358986"><ele>10.0</ele><time>2026-04-12T10:38:01.863Z</time></trkpt><trkpt lat="43.57859" lon="6.9359759"><ele>10.0</ele><time>2026-04-12T10:38:02.873Z</time></trkpt><trkpt lat="43.5785498" lon="6.9360474"><ele>10.0</ele><time>2026-04-12T10:38:03.868Z</time></trkpt><trkpt lat="43.5785071" lon="6.9361138"><ele>10.0</ele><time>2026-04-12T10:38:04.864Z</time></trkpt><trkpt lat="43.5784366" lon="6.9362561"><ele>9.5</ele><time>2026-04-12T10:38:06.848Z</time></trkpt><trkpt lat="43.5783671" lon="6.9363891"><ele>9.0</ele><time>2026-04-12T10:38:08.884Z</time></trkpt><trkpt lat="43.5783063" lon="6.9365242"><ele>8.5</ele><time>2026-04-12T10:38:10.854Z</time></trkpt><trkpt lat="43.5782445" lon="6.9366591"><ele>8.0</ele><time>2026-04-12T10:38:12.847Z</time></trkpt><trkpt lat="43.5781868" lon="6.9368004"><ele>7.999999999999999</ele><time>2026-04-12T10:38:14.893Z</time></trkpt><trkpt lat="43.5781275" lon="6.9369414"><ele>8.0</ele><time>2026-04-12T10:38:16.874Z</time></trkpt><trkpt lat="43.5780668" lon="6.9370965"><ele>8.0</ele><time>2026-04-12T10:38:18.872Z</time></trkpt><trkpt lat="43.5780362" lon="6.9371735"><ele>8.0</ele><time>2026-04-12T10:38:19.896Z</time></trkpt><trkpt lat="43.5780053" lon="6.9372502"><ele>7.999999999999999</ele><time>2026-04-12T10:38:20.862Z</time></trkpt><trkpt lat="43.577975" lon="6.9373327"><ele>8.0</ele><time>2026-04-12T10:38:21.876Z</time></trkpt><trkpt lat="43.577949" lon="6.937418"><ele>7.999999999999999</ele><time>2026-04-12T10:38:22.881Z</time></trkpt><trkpt lat="43.5779201" lon="6.9374983"><ele>8.0</ele><time>2026-04-12T10:38:23.847Z</time></trkpt><trkpt lat="43.5778919" lon="6.93758"><ele>8.0</ele><time>2026-04-12T10:38:24.892Z</time></trkpt><trkpt lat="43.5778621" lon="6.937664"><ele>8.0</ele><time>2026-04-12T10:38:25.895Z</time></trkpt><trkpt lat="43.5778178" lon="6.9378274"><ele>7.999999999999999</ele><time>2026-04-12T10:38:27.893Z</time></trkpt><trkpt lat="43.5777939" lon="6.937912"><ele>8.0</ele><time>2026-04-12T10:38:28.893Z</time></trkpt><trkpt lat="43.5777704" lon="6.9379962"><ele>8.166666666666666</ele><time>2026-04-12T10:38:29.858Z</time></trkpt><trkpt lat="43.5777462" lon="6.9380773"><ele>8.333333333333332</ele><time>2026-04-12T10:38:30.872Z</time></trkpt><trkpt lat="43.5777254" lon="6.9381618"><ele>8.5</ele><time>2026-04-12T10:38:31.858Z</time></trkpt><trkpt lat="43.5777057" lon="6.9382473"><ele>8.666666666666666</ele><time>2026-04-12T10:38:32.899Z</time></trkpt><trkpt lat="43.5776869" lon="6.9383346"><ele>8.833333333333334</ele><time>2026-04-12T10:38:33.898Z</time></trkpt><trkpt lat="43.5776495" lon="6.9385015"><ele>9.0</ele><time>2026-04-12T10:38:35.876Z</time></trkpt><trkpt lat="43.5776297" lon="6.9385871"><ele>9.0</ele><time>2026-04-12T10:38:36.851Z</time></trkpt><trkpt lat="43.5776064" lon="6.9386687"><ele>9.0</ele><time>2026-04-12T10:38:37.872Z</time></trkpt><trkpt lat="43.5775849" lon="6.9387518"><ele>9.0</ele><time>2026-04-12T10:38:38.887Z</time></trkpt><trkpt lat="43.5775442" lon="6.9389191"><ele>9.0</ele><time>2026-04-12T10:38:40.85Z</time></trkpt><trkpt lat="43.5775226" lon="6.9390076"><ele>9.0</ele><time>2026-04-12T10:38:41.888Z</time></trkpt><trkpt lat="43.5774834" lon="6.9391753"><ele>9.0</ele><time>2026-04-12T10:38:43.886Z</time></trkpt><trkpt lat="43.5774622" lon="6.93926"><ele>9.0</ele><time>2026-04-12T10:38:44.825Z</time></trkpt><trkpt lat="43.57744" lon="6.9393416"><ele>9.0</ele><time>2026-04-12T10:38:45.9Z</time></trkpt><trkpt lat="43.5774146" lon="6.9394285"><ele>9.0</ele><time>2026-04-12T10:38:46.88Z</time></trkpt><trkpt lat="43.5773643" lon="6.9395811"><ele>9.0</ele><time>2026-04-12T10:38:48.894Z</time></trkpt><trkpt lat="43.5773006" lon="6.939722"><ele>9.0</ele><time>2026-04-12T10:38:50.875Z</time></trkpt><trkpt lat="43.5772305" lon="6.9398458"><ele>9.0</ele><time>2026-04-12T10:38:52.891Z</time></trkpt><trkpt lat="43.5771365" lon="6.9399462"><ele>9.0</ele><time>2026-04-12T10:38:54.879Z</time></trkpt><trkpt lat="43.5770226" lon="6.940024"><ele>9.0</ele><time>2026-04-12T10:38:56.837Z</time></trkpt><trkpt lat="43.5769281" lon="6.9401249"><ele>9.0</ele><time>2026-04-12T10:38:58.87Z</time></trkpt><trkpt lat="43.5768937" lon="6.9402049"><ele>9.0</ele><time>2026-04-12T10:38:59.859Z</time></trkpt><trkpt lat="43.576882" lon="6.9402996"><ele>9.0</ele><time>2026-04-12T10:39:00.854Z</time></trkpt><trkpt lat="43.5768761" lon="6.9403935"><ele>9.0</ele><time>2026-04-12T10:39:01.867Z</time></trkpt><trkpt lat="43.5768699" lon="6.940569"><ele>9.0</ele><time>2026-04-12T10:39:03.899Z</time></trkpt><trkpt lat="43.5768438" lon="6.9406574"><ele>9.0</ele><time>2026-04-12T10:39:04.869Z</time></trkpt><trkpt lat="43.5768057" lon="6.9407329"><ele>9.0</ele><time>2026-04-12T10:39:05.886Z</time></trkpt><trkpt lat="43.5767667" lon="6.9408031"><ele>9.0</ele><time>2026-04-12T10:39:06.876Z</time></trkpt><trkpt lat="43.5767184" lon="6.940867"><ele>9.000000000000002</ele><time>2026-04-12T10:39:07.866Z</time></trkpt><trkpt lat="43.5766681" lon="6.9409351"><ele>9.0</ele><time>2026-04-12T10:39:08.89Z</time></trkpt><trkpt lat="43.5766129" lon="6.941002"><ele>9.0</ele><time>2026-04-12T10:39:09.89Z</time></trkpt><trkpt lat="43.5765643" lon="6.941073"><ele>9.0</ele><time>2026-04-12T10:39:10.866Z</time></trkpt><trkpt lat="43.5765103" lon="6.9411353"><ele>9.0</ele><time>2026-04-12T10:39:11.877Z</time></trkpt><trkpt lat="43.5764534" lon="6.9411964"><ele>9.000000000000002</ele><time>2026-04-12T10:39:12.853Z</time></trkpt><trkpt lat="43.5763979" lon="6.9412532"><ele>9.0</ele><time>2026-04-12T10:39:13.893Z</time></trkpt><trkpt lat="43.5763409" lon="6.9413068"><ele>9.0</ele><time>2026-04-12T10:39:14.879Z</time></trkpt><trkpt lat="43.5762839" lon="6.9413537"><ele>9.0</ele><time>2026-04-12T10:39:15.876Z</time></trkpt><trkpt lat="43.5762259" lon="6.9413969"><ele>9.0</ele><time>2026-04-12T10:39:16.84Z</time></trkpt><trkpt lat="43.5761721" lon="6.9414454"><ele>9.0</ele><time>2026-04-12T10:39:17.886Z</time></trkpt><trkpt lat="43.5760661" lon="6.9415363"><ele>9.0</ele><time>2026-04-12T10:39:19.852Z</time></trkpt><trkpt lat="43.5760071" lon="6.9415865"><ele>9.0</ele><time>2026-04-12T10:39:20.86Z</time></trkpt><trkpt lat="43.5759468" lon="6.9416362"><ele>9.000000000000002</ele><time>2026-04-12T10:39:21.897Z</time></trkpt><trkpt lat="43.5758864" lon="6.9416856"><ele>9.0</ele><time>2026-04-12T10:39:22.859Z</time></trkpt><trkpt lat="43.5758251" lon="6.9417343"><ele>9.0</ele><time>2026-04-12T10:39:23.87Z</time></trkpt><trkpt lat="43.5757666" lon="6.9417858"><ele>9.0</ele><time>2026-04-12T10:39:24.878Z</time></trkpt><trkpt lat="43.5757029" lon="6.9418334"><ele>9.0</ele><time>2026-04-12T10:39:25.891Z</time></trkpt><trkpt lat="43.5756437" lon="6.941881"><ele>9.000000000000002</ele><time>2026-04-12T10:39:26.884Z</time></trkpt><trkpt lat="43.5755832" lon="6.9419238"><ele>9.0</ele><time>2026-04-12T10:39:27.875Z</time></trkpt><trkpt lat="43.5755252" lon="6.9419742"><ele>9.000000000000002</ele><time>2026-04-12T10:39:28.894Z</time></trkpt><trkpt lat="43.5754694" lon="6.942026"><ele>9.0</ele><time>2026-04-12T10:39:29.884Z</time></trkpt><trkpt lat="43.5754119" lon="6.9420758"><ele>9.0</ele><time>2026-04-12T10:39:30.887Z</time></trkpt><trkpt lat="43.5753549" lon="6.9421233"><ele>9.0</ele><time>2026-04-12T10:39:31.855Z</time></trkpt><trkpt lat="43.5753013" lon="6.9421716"><ele>9.0</ele><time>2026-04-12T10:39:32.867Z</time></trkpt><trkpt lat="43.5752455" lon="6.94222"><ele>9.000000000000002</ele><time>2026-04-12T10:39:33.858Z</time></trkpt><trkpt lat="43.5751889" lon="6.9422631"><ele>9.0</ele><time>2026-04-12T10:39:34.872Z</time></trkpt><trkpt lat="43.5751347" lon="6.9423113"><ele>9.000000000000002</ele><time>2026-04-12T10:39:35.86Z</time></trkpt><trkpt lat="43.5750753" lon="6.9423561"><ele>9.0</ele><time>2026-04-12T10:39:36.862Z</time></trkpt><trkpt lat="43.5750162" lon="6.942402"><ele>9.0</ele><time>2026-04-12T10:39:37.862Z</time></trkpt><trkpt lat="43.5749565" lon="6.9424489"><ele>9.0</ele><time>2026-04-12T10:39:38.843Z</time></trkpt><trkpt lat="43.5748996" lon="6.9424992"><ele>9.0</ele><time>2026-04-12T10:39:39.869Z</time></trkpt><trkpt lat="43.5748423" lon="6.9425464"><ele>9.000000000000002</ele><time>2026-04-12T10:39:40.852Z</time></trkpt><trkpt lat="43.5747811" lon="6.942588"><ele>9.0</ele><time>2026-04-12T10:39:41.888Z</time></trkpt><trkpt lat="43.5747225" lon="6.9426404"><ele>8.857142857142858</ele><time>2026-04-12T10:39:42.85Z</time></trkpt><trkpt lat="43.5746632" lon="6.9426938"><ele>8.714285714285715</ele><time>2026-04-12T10:39:43.88Z</time></trkpt><trkpt lat="43.5746043" lon="6.9427402"><ele>8.571428571428571</ele><time>2026-04-12T10:39:44.86Z</time></trkpt><trkpt lat="43.5745414" lon="6.9427888"><ele>8.428571428571429</ele><time>2026-04-12T10:39:45.873Z</time></trkpt><trkpt lat="43.5744828" lon="6.9428348"><ele>8.285714285714285</ele><time>2026-04-12T10:39:46.853Z</time></trkpt><trkpt lat="43.5744253" lon="6.9428828"><ele>8.142857142857142</ele><time>2026-04-12T10:39:47.857Z</time></trkpt><trkpt lat="43.5743667" lon="6.9429306"><ele>8.0</ele><time>2026-04-12T10:39:48.88Z</time></trkpt><trkpt lat="43.5743079" lon="6.9429773"><ele>8.0</ele><time>2026-04-12T10:39:49.851Z</time></trkpt><trkpt lat="43.5742528" lon="6.9430268"><ele>7.999999999999999</ele><time>2026-04-12T10:39:50.869Z</time></trkpt><trkpt lat="43.5741962" lon="6.9430763"><ele>8.0</ele><time>2026-04-12T10:39:51.844Z</time></trkpt><trkpt lat="43.5741402" lon="6.9431172"><ele>8.0</ele><time>2026-04-12T10:39:52.879Z</time></trkpt><trkpt lat="43.5740846" lon="6.9431679"><ele>7.999999999999999</ele><time>2026-04-12T10:39:53.858Z</time></trkpt><trkpt lat="43.5740302" lon="6.9432148"><ele>8.0</ele><time>2026-04-12T10:39:54.888Z</time></trkpt><trkpt lat="43.5739758" lon="6.9432595"><ele>8.0</ele><time>2026-04-12T10:39:55.862Z</time></trkpt><trkpt lat="43.5738669" lon="6.9433466"><ele>7.999999999999999</ele><time>2026-04-12T10:39:57.885Z</time></trkpt><trkpt lat="43.5737716" lon="6.9434377"><ele>8.0</ele><time>2026-04-12T10:39:59.893Z</time></trkpt><trkpt lat="43.5736695" lon="6.9435165"><ele>8.0</ele><time>2026-04-12T10:40:01.847Z</time></trkpt><trkpt lat="43.5736136" lon="6.943561"><ele>8.0</ele><time>2026-04-12T10:40:02.89Z</time></trkpt><trkpt lat="43.5735588" lon="6.9436061"><ele>7.999999999999999</ele><time>2026-04-12T10:40:03.869Z</time></trkpt><trkpt lat="43.5735004" lon="6.9436518"><ele>8.0</ele><time>2026-04-12T10:40:04.88Z</time></trkpt><trkpt lat="43.5734407" lon="6.9436943"><ele>8.285714285714285</ele><time>2026-04-12T10:40:05.861Z</time></trkpt><trkpt lat="43.5733833" lon="6.9437461"><ele>8.571428571428571</ele><time>2026-04-12T10:40:06.867Z</time></trkpt><trkpt lat="43.5733302" lon="6.9437967"><ele>8.857142857142858</ele><time>2026-04-12T10:40:07.854Z</time></trkpt><trkpt lat="43.5732715" lon="6.9438434"><ele>9.142857142857142</ele><time>2026-04-12T10:40:08.878Z</time></trkpt><trkpt lat="43.5732141" lon="6.9438895"><ele>9.428571428571429</ele><time>2026-04-12T10:40:09.865Z</time></trkpt><trkpt lat="43.5731565" lon="6.9439381"><ele>9.714285714285714</ele><time>2026-04-12T10:40:10.868Z</time></trkpt><trkpt lat="43.5731006" lon="6.943986"><ele>10.0</ele><time>2026-04-12T10:40:11.863Z</time></trkpt><trkpt lat="43.5730443" lon="6.9440362"><ele>10.0</ele><time>2026-04-12T10:40:12.874Z</time></trkpt><trkpt lat="43.572987" lon="6.9440889"><ele>10.0</ele><time>2026-04-12T10:40:13.886Z</time></trkpt><trkpt lat="43.5729295" lon="6.9441308"><ele>10.0</ele><time>2026-04-12T10:40:14.849Z</time></trkpt><trkpt lat="43.5728732" lon="6.9441747"><ele>10.0</ele><time>2026-04-12T10:40:15.85Z</time></trkpt><trkpt lat="43.5728131" lon="6.9442116"><ele>10.0</ele><time>2026-04-12T10:40:16.874Z</time></trkpt><trkpt lat="43.5727532" lon="6.9442575"><ele>10.0</ele><time>2026-04-12T10:40:17.825Z</time></trkpt><trkpt lat="43.5726991" lon="6.9443085"><ele>10.0</ele><time>2026-04-12T10:40:18.88Z</time></trkpt><trkpt lat="43.5726428" lon="6.944357"><ele>9.6</ele><time>2026-04-12T10:40:19.887Z</time></trkpt><trkpt lat="43.5725867" lon="6.9444001"><ele>9.2</ele><time>2026-04-12T10:40:20.884Z</time></trkpt><trkpt lat="43.5724764" lon="6.9444736"><ele>8.8</ele><time>2026-04-12T10:40:22.884Z</time></trkpt><trkpt lat="43.5724174" lon="6.9445106"><ele>8.4</ele><time>2026-04-12T10:40:23.898Z</time></trkpt><trkpt lat="43.5723114" lon="6.9445898"><ele>8.0</ele><time>2026-04-12T10:40:25.874Z</time></trkpt><trkpt lat="43.5722023" lon="6.9446523"><ele>8.0</ele><time>2026-04-12T10:40:27.894Z</time></trkpt><trkpt lat="43.5721424" lon="6.9446848"><ele>7.999999999999999</ele><time>2026-04-12T10:40:28.911Z</time></trkpt><trkpt lat="43.5720842" lon="6.9447237"><ele>8.0</ele><time>2026-04-12T10:40:29.85Z</time></trkpt><trkpt lat="43.5720262" lon="6.9447639"><ele>8.0</ele><time>2026-04-12T10:40:30.876Z</time></trkpt><trkpt lat="43.5719657" lon="6.9448034"><ele>7.999999999999999</ele><time>2026-04-12T10:40:31.861Z</time></trkpt><trkpt lat="43.5719075" lon="6.9448384"><ele>8.0</ele><time>2026-04-12T10:40:32.866Z</time></trkpt><trkpt lat="43.5718502" lon="6.9448809"><ele>8.0</ele><time>2026-04-12T10:40:33.884Z</time></trkpt><trkpt lat="43.5717899" lon="6.9449163"><ele>8.166666666666666</ele><time>2026-04-12T10:40:34.861Z</time></trkpt><trkpt lat="43.5717302" lon="6.9449519"><ele>8.333333333333332</ele><time>2026-04-12T10:40:35.865Z</time></trkpt><trkpt lat="43.5716133" lon="6.945003"><ele>8.5</ele><time>2026-04-12T10:40:37.894Z</time></trkpt><trkpt lat="43.5715481" lon="6.9450076"><ele>8.666666666666666</ele><time>2026-04-12T10:40:38.86Z</time></trkpt><trkpt lat="43.5714788" lon="6.9450028"><ele>8.833333333333334</ele><time>2026-04-12T10:40:39.875Z</time></trkpt><trkpt lat="43.5714125" lon="6.9450101"><ele>9.0</ele><time>2026-04-12T10:40:40.869Z</time></trkpt><trkpt lat="43.5713476" lon="6.9450425"><ele>8.857142857142858</ele><time>2026-04-12T10:40:41.888Z</time></trkpt><trkpt lat="43.5712973" lon="6.9451095"><ele>8.714285714285715</ele><time>2026-04-12T10:40:42.881Z</time></trkpt><trkpt lat="43.5712555" lon="6.9451883"><ele>8.571428571428571</ele><time>2026-04-12T10:40:43.881Z</time></trkpt><trkpt lat="43.5712125" lon="6.9452755"><ele>8.428571428571429</ele><time>2026-04-12T10:40:44.872Z</time></trkpt><trkpt lat="43.5711668" lon="6.9453554"><ele>8.285714285714285</ele><time>2026-04-12T10:40:45.826Z</time></trkpt><trkpt lat="43.5711099" lon="6.945418"><ele>8.142857142857142</ele><time>2026-04-12T10:40:46.88Z</time></trkpt><trkpt lat="43.5710479" lon="6.945467"><ele>8.0</ele><time>2026-04-12T10:40:47.895Z</time></trkpt><trkpt lat="43.5709863" lon="6.9455038"><ele>8.285714285714285</ele><time>2026-04-12T10:40:48.896Z</time></trkpt><trkpt lat="43.5709227" lon="6.9455418"><ele>8.571428571428571</ele><time>2026-04-12T10:40:49.873Z</time></trkpt><trkpt lat="43.5708628" lon="6.9455855"><ele>8.857142857142858</ele><time>2026-04-12T10:40:50.879Z</time></trkpt><trkpt lat="43.5708022" lon="6.9456311"><ele>9.142857142857142</ele><time>2026-04-12T10:40:51.879Z</time></trkpt><trkpt lat="43.5707447" lon="6.9456741"><ele>9.428571428571429</ele><time>2026-04-12T10:40:52.878Z</time></trkpt><trkpt lat="43.5706861" lon="6.9457192"><ele>9.714285714285714</ele><time>2026-04-12T10:40:53.874Z</time></trkpt><trkpt lat="43.5706223" lon="6.9457661"><ele>10.0</ele><time>2026-04-12T10:40:54.856Z</time></trkpt><trkpt lat="43.5705624" lon="6.9458152"><ele>10.0</ele><time>2026-04-12T10:40:55.871Z</time></trkpt><trkpt lat="43.5705058" lon="6.945861"><ele>10.0</ele><time>2026-04-12T10:40:56.88Z</time></trkpt><trkpt lat="43.5704471" lon="6.9459055"><ele>10.0</ele><time>2026-04-12T10:40:57.865Z</time></trkpt><trkpt lat="43.5703845" lon="6.9459538"><ele>10.0</ele><time>2026-04-12T10:40:58.858Z</time></trkpt><trkpt lat="43.5703272" lon="6.9459994"><ele>10.0</ele><time>2026-04-12T10:40:59.895Z</time></trkpt><trkpt lat="43.5702138" lon="6.9460834"><ele>10.0</ele><time>2026-04-12T10:41:01.822Z</time></trkpt><trkpt lat="43.5701579" lon="6.9461291"><ele>9.714285714285714</ele><time>2026-04-12T10:41:02.872Z</time></trkpt><trkpt lat="43.5701039" lon="6.9461785"><ele>9.428571428571429</ele><time>2026-04-12T10:41:03.822Z</time></trkpt><trkpt lat="43.5700467" lon="6.9462339"><ele>9.142857142857142</ele><time>2026-04-12T10:41:04.842Z</time></trkpt><trkpt lat="43.5699904" lon="6.9462925"><ele>8.857142857142858</ele><time>2026-04-12T10:41:05.867Z</time></trkpt><trkpt lat="43.5699363" lon="6.9463475"><ele>8.571428571428571</ele><time>2026-04-12T10:41:06.878Z</time></trkpt><trkpt lat="43.5698782" lon="6.9464017"><ele>8.285714285714285</ele><time>2026-04-12T10:41:07.897Z</time></trkpt><trkpt lat="43.5698205" lon="6.9464564"><ele>8.0</ele><time>2026-04-12T10:41:08.868Z</time></trkpt><trkpt lat="43.5697631" lon="6.9465065"><ele>8.0</ele><time>2026-04-12T10:41:09.856Z</time></trkpt><trkpt lat="43.5697055" lon="6.9465629"><ele>7.999999999999999</ele><time>2026-04-12T10:41:10.885Z</time></trkpt><trkpt lat="43.5696462" lon="6.9466142"><ele>8.0</ele><time>2026-04-12T10:41:11.849Z</time></trkpt><trkpt lat="43.5695962" lon="6.9466691"><ele>8.0</ele><time>2026-04-12T10:41:12.862Z</time></trkpt><trkpt lat="43.5695401" lon="6.9467233"><ele>7.999999999999999</ele><time>2026-04-12T10:41:13.871Z</time></trkpt><trkpt lat="43.5694897" lon="6.9467812"><ele>8.0</ele><time>2026-04-12T10:41:14.89Z</time></trkpt><trkpt lat="43.5694336" lon="6.9468382"><ele>8.0</ele><time>2026-04-12T10:41:15.847Z</time></trkpt><trkpt lat="43.5693792" lon="6.9468938"><ele>7.7142857142857135</ele><time>2026-04-12T10:41:16.886Z</time></trkpt><trkpt lat="43.5693263" lon="6.9469534"><ele>7.428571428571428</ele><time>2026-04-12T10:41:17.852Z</time></trkpt><trkpt lat="43.5692731" lon="6.9470099"><ele>7.142857142857142</ele><time>2026-04-12T10:41:18.881Z</time></trkpt><trkpt lat="43.569217" lon="6.9470664"><ele>6.857142857142857</ele><time>2026-04-12T10:41:19.867Z</time></trkpt><trkpt lat="43.569165" lon="6.9471216"><ele>6.571428571428571</ele><time>2026-04-12T10:41:20.859Z</time></trkpt><trkpt lat="43.5691106" lon="6.9471749"><ele>6.285714285714285</ele><time>2026-04-12T10:41:21.877Z</time></trkpt><trkpt lat="43.5690535" lon="6.9472316"><ele>6.0</ele><time>2026-04-12T10:41:22.84Z</time></trkpt><trkpt lat="43.5689978" lon="6.9472873"><ele>6.0</ele><time>2026-04-12T10:41:23.869Z</time></trkpt><trkpt lat="43.5689415" lon="6.9473393"><ele>6.0</ele><time>2026-04-12T10:41:24.877Z</time></trkpt><trkpt lat="43.5688852" lon="6.9473933"><ele>6.0</ele><time>2026-04-12T10:41:25.882Z</time></trkpt><trkpt lat="43.5688322" lon="6.9474414"><ele>6.0</ele><time>2026-04-12T10:41:26.855Z</time></trkpt><trkpt lat="43.5687772" lon="6.9474927"><ele>6.0</ele><time>2026-04-12T10:41:27.846Z</time></trkpt><trkpt lat="43.5687231" lon="6.9475443"><ele>6.0</ele><time>2026-04-12T10:41:28.861Z</time></trkpt><trkpt lat="43.5686186" lon="6.9476426"><ele>6.166666666666667</ele><time>2026-04-12T10:41:30.857Z</time></trkpt><trkpt lat="43.5685148" lon="6.947741"><ele>6.333333333333334</ele><time>2026-04-12T10:41:32.894Z</time></trkpt><trkpt lat="43.5684585" lon="6.9477902"><ele>6.5</ele><time>2026-04-12T10:41:33.856Z</time></trkpt><trkpt lat="43.5683998" lon="6.9478387"><ele>6.666666666666667</ele><time>2026-04-12T10:41:34.88Z</time></trkpt><trkpt lat="43.5683411" lon="6.9478848"><ele>6.833333333333334</ele><time>2026-04-12T10:41:35.858Z</time></trkpt><trkpt lat="43.5682851" lon="6.9479298"><ele>7.0</ele><time>2026-04-12T10:41:36.856Z</time></trkpt><trkpt lat="43.5682277" lon="6.9479701"><ele>7.000000000000001</ele><time>2026-04-12T10:41:37.856Z</time></trkpt><trkpt lat="43.5681695" lon="6.9480085"><ele>7.0</ele><time>2026-04-12T10:41:38.86Z</time></trkpt><trkpt lat="43.5681085" lon="6.9480418"><ele>7.0</ele><time>2026-04-12T10:41:39.843Z</time></trkpt><trkpt lat="43.5680483" lon="6.9480781"><ele>7.0</ele><time>2026-04-12T10:41:40.84Z</time></trkpt><trkpt lat="43.5679355" lon="6.9481509"><ele>7.000000000000001</ele><time>2026-04-12T10:41:42.864Z</time></trkpt><trkpt lat="43.5678226" lon="6.9482232"><ele>7.0</ele><time>2026-04-12T10:41:44.856Z</time></trkpt><trkpt lat="43.567707" lon="6.9482925"><ele>7.5</ele><time>2026-04-12T10:41:46.887Z</time></trkpt><trkpt lat="43.567597" lon="6.9483507"><ele>8.0</ele><time>2026-04-12T10:41:48.888Z</time></trkpt><trkpt lat="43.567484" lon="6.9484046"><ele>8.5</ele><time>2026-04-12T10:41:50.864Z</time></trkpt><trkpt lat="43.5673662" lon="6.9484344"><ele>9.0</ele><time>2026-04-12T10:41:52.866Z</time></trkpt><trkpt lat="43.5672473" lon="6.9484382"><ele>9.000000000000002</ele><time>2026-04-12T10:41:54.867Z</time></trkpt><trkpt lat="43.5671847" lon="6.9484201"><ele>9.0</ele><time>2026-04-12T10:41:55.886Z</time></trkpt><trkpt lat="43.5671245" lon="6.9483852"><ele>9.0</ele><time>2026-04-12T10:41:56.878Z</time></trkpt><trkpt lat="43.5670685" lon="6.948338"><ele>9.0</ele><time>2026-04-12T10:41:57.871Z</time></trkpt><trkpt lat="43.5670099" lon="6.948293"><ele>9.0</ele><time>2026-04-12T10:41:58.887Z</time></trkpt><trkpt lat="43.5669501" lon="6.9482578"><ele>9.000000000000002</ele><time>2026-04-12T10:41:59.865Z</time></trkpt><trkpt lat="43.5668862" lon="6.9482356"><ele>9.0</ele><time>2026-04-12T10:42:00.873Z</time></trkpt><trkpt lat="43.5668225" lon="6.948236"><ele>8.857142857142858</ele><time>2026-04-12T10:42:01.866Z</time></trkpt><trkpt lat="43.5667534" lon="6.9482538"><ele>8.714285714285715</ele><time>2026-04-12T10:42:02.882Z</time></trkpt><trkpt lat="43.5666853" lon="6.9482964"><ele>8.571428571428571</ele><time>2026-04-12T10:42:03.891Z</time></trkpt><trkpt lat="43.5666276" lon="6.9483608"><ele>8.428571428571429</ele><time>2026-04-12T10:42:04.871Z</time></trkpt><trkpt lat="43.5665775" lon="6.9484309"><ele>8.285714285714285</ele><time>2026-04-12T10:42:05.874Z</time></trkpt><trkpt lat="43.5665309" lon="6.9485152"><ele>8.142857142857142</ele><time>2026-04-12T10:42:06.885Z</time></trkpt><trkpt lat="43.5664897" lon="6.9485956"><ele>8.0</ele><time>2026-04-12T10:42:07.857Z</time></trkpt><trkpt lat="43.5664457" lon="6.9486624"><ele>8.285714285714285</ele><time>2026-04-12T10:42:08.865Z</time></trkpt><trkpt lat="43.5663924" lon="6.9487172"><ele>8.571428571428571</ele><time>2026-04-12T10:42:09.89Z</time></trkpt><trkpt lat="43.5663282" lon="6.9487573"><ele>8.857142857142858</ele><time>2026-04-12T10:42:10.851Z</time></trkpt><trkpt lat="43.566257" lon="6.94878"><ele>9.142857142857142</ele><time>2026-04-12T10:42:11.892Z</time></trkpt><trkpt lat="43.5661918" lon="6.9488002"><ele>9.428571428571429</ele><time>2026-04-12T10:42:12.864Z</time></trkpt><trkpt lat="43.5661279" lon="6.9488254"><ele>9.714285714285714</ele><time>2026-04-12T10:42:13.859Z</time></trkpt><trkpt lat="43.5660587" lon="6.9488462"><ele>10.0</ele><time>2026-04-12T10:42:14.848Z</time></trkpt><trkpt lat="43.5659946" lon="6.9488677"><ele>10.0</ele><time>2026-04-12T10:42:15.881Z</time></trkpt><trkpt lat="43.5659309" lon="6.9488965"><ele>10.0</ele><time>2026-04-12T10:42:16.878Z</time></trkpt><trkpt lat="43.5658622" lon="6.9489219"><ele>10.0</ele><time>2026-04-12T10:42:17.878Z</time></trkpt><trkpt lat="43.565792" lon="6.9489509"><ele>10.0</ele><time>2026-04-12T10:42:18.878Z</time></trkpt><trkpt lat="43.565718" lon="6.9489839"><ele>10.0</ele><time>2026-04-12T10:42:19.881Z</time></trkpt><trkpt lat="43.5656465" lon="6.94901"><ele>10.0</ele><time>2026-04-12T10:42:20.882Z</time></trkpt><trkpt lat="43.5655762" lon="6.9490313"><ele>10.0</ele><time>2026-04-12T10:42:21.869Z</time></trkpt><trkpt lat="43.5655069" lon="6.9490618"><ele>10.0</ele><time>2026-04-12T10:42:22.852Z</time></trkpt><trkpt lat="43.5654344" lon="6.9490902"><ele>10.0</ele><time>2026-04-12T10:42:23.868Z</time></trkpt><trkpt lat="43.5653688" lon="6.9491199"><ele>10.0</ele><time>2026-04-12T10:42:24.861Z</time></trkpt><trkpt lat="43.5652999" lon="6.9491446"><ele>10.0</ele><time>2026-04-12T10:42:25.878Z</time></trkpt><trkpt lat="43.5652305" lon="6.9491682"><ele>10.0</ele><time>2026-04-12T10:42:26.855Z</time></trkpt><trkpt lat="43.5651649" lon="6.9491906"><ele>10.0</ele><time>2026-04-12T10:42:27.83Z</time></trkpt><trkpt lat="43.5651003" lon="6.9492102"><ele>10.0</ele><time>2026-04-12T10:42:28.873Z</time></trkpt><trkpt lat="43.5650374" lon="6.949233"><ele>9.333333333333334</ele><time>2026-04-12T10:42:29.892Z</time></trkpt><trkpt lat="43.5649735" lon="6.9492529"><ele>8.666666666666668</ele><time>2026-04-12T10:42:30.858Z</time></trkpt><trkpt lat="43.5649095" lon="6.9492761"><ele>8.0</ele><time>2026-04-12T10:42:31.887Z</time></trkpt><trkpt lat="43.5647818" lon="6.9493192"><ele>7.333333333333334</ele><time>2026-04-12T10:42:33.824Z</time></trkpt><trkpt lat="43.5647141" lon="6.9493465"><ele>6.666666666666667</ele><time>2026-04-12T10:42:34.837Z</time></trkpt><trkpt lat="43.5646424" lon="6.9493789"><ele>6.0</ele><time>2026-04-12T10:42:35.836Z</time></trkpt><trkpt lat="43.5645664" lon="6.9494061"><ele>5.857142857142857</ele><time>2026-04-12T10:42:36.856Z</time></trkpt><trkpt lat="43.5644953" lon="6.949428"><ele>5.714285714285714</ele><time>2026-04-12T10:42:37.879Z</time></trkpt><trkpt lat="43.5644286" lon="6.9494569"><ele>5.571428571428571</ele><time>2026-04-12T10:42:38.832Z</time></trkpt><trkpt lat="43.5643632" lon="6.949481"><ele>5.428571428571429</ele><time>2026-04-12T10:42:39.845Z</time></trkpt><trkpt lat="43.5642931" lon="6.9495076"><ele>5.285714285714286</ele><time>2026-04-12T10:42:40.864Z</time></trkpt><trkpt lat="43.5642261" lon="6.9495274"><ele>5.142857142857142</ele><time>2026-04-12T10:42:41.861Z</time></trkpt><trkpt lat="43.5641577" lon="6.9495516"><ele>5.0</ele><time>2026-04-12T10:42:42.859Z</time></trkpt><trkpt lat="43.5640949" lon="6.9495727"><ele>5.0</ele><time>2026-04-12T10:42:43.859Z</time></trkpt><trkpt lat="43.5640275" lon="6.9495931"><ele>5.0</ele><time>2026-04-12T10:42:44.883Z</time></trkpt><trkpt lat="43.5639603" lon="6.9496192"><ele>5.0</ele><time>2026-04-12T10:42:45.87Z</time></trkpt><trkpt lat="43.5638914" lon="6.9496419"><ele>5.0</ele><time>2026-04-12T10:42:46.871Z</time></trkpt><trkpt lat="43.5638232" lon="6.9496682"><ele>5.0</ele><time>2026-04-12T10:42:47.862Z</time></trkpt><trkpt lat="43.563752" lon="6.9496914"><ele>5.0</ele><time>2026-04-12T10:42:48.867Z</time></trkpt><trkpt lat="43.5636817" lon="6.9497156"><ele>5.0</ele><time>2026-04-12T10:42:49.871Z</time></trkpt><trkpt lat="43.5636135" lon="6.9497449"><ele>5.285714285714286</ele><time>2026-04-12T10:42:50.874Z</time></trkpt><trkpt lat="43.563546" lon="6.9497733"><ele>5.571428571428571</ele><time>2026-04-12T10:42:51.867Z</time></trkpt><trkpt lat="43.5634763" lon="6.9497979"><ele>5.857142857142858</ele><time>2026-04-12T10:42:52.872Z</time></trkpt><trkpt lat="43.5634088" lon="6.9498211"><ele>6.142857142857142</ele><time>2026-04-12T10:42:53.852Z</time></trkpt><trkpt lat="43.5633398" lon="6.9498467"><ele>6.428571428571429</ele><time>2026-04-12T10:42:54.877Z</time></trkpt><trkpt lat="43.5632691" lon="6.9498742"><ele>6.714285714285714</ele><time>2026-04-12T10:42:55.89Z</time></trkpt><trkpt lat="43.5631975" lon="6.9498981"><ele>7.0</ele><time>2026-04-12T10:42:56.879Z</time></trkpt><trkpt lat="43.5631262" lon="6.9499242"><ele>7.0</ele><time>2026-04-12T10:42:57.869Z</time></trkpt><trkpt lat="43.5630548" lon="6.9499484"><ele>7.0</ele><time>2026-04-12T10:42:58.883Z</time></trkpt><trkpt lat="43.5629849" lon="6.9499752"><ele>7.0</ele><time>2026-04-12T10:42:59.889Z</time></trkpt><trkpt lat="43.5629166" lon="6.9500014"><ele>7.0</ele><time>2026-04-12T10:43:00.87Z</time></trkpt><trkpt lat="43.5628432" lon="6.9500281"><ele>7.0</ele><time>2026-04-12T10:43:01.872Z</time></trkpt><trkpt lat="43.5627729" lon="6.950054"><ele>7.0</ele><time>2026-04-12T10:43:02.858Z</time></trkpt><trkpt lat="43.5627031" lon="6.9500819"><ele>7.0</ele><time>2026-04-12T10:43:03.858Z</time></trkpt><trkpt lat="43.5626294" lon="6.9501119"><ele>6.714285714285714</ele><time>2026-04-12T10:43:04.872Z</time></trkpt><trkpt lat="43.5625597" lon="6.9501397"><ele>6.428571428571429</ele><time>2026-04-12T10:43:05.863Z</time></trkpt><trkpt lat="43.5624877" lon="6.9501649"><ele>6.142857142857142</ele><time>2026-04-12T10:43:06.868Z</time></trkpt><trkpt lat="43.5624138" lon="6.950191"><ele>5.857142857142858</ele><time>2026-04-12T10:43:07.875Z</time></trkpt><trkpt lat="43.5623412" lon="6.9502174"><ele>5.571428571428571</ele><time>2026-04-12T10:43:08.871Z</time></trkpt><trkpt lat="43.5622721" lon="6.9502443"><ele>5.285714285714286</ele><time>2026-04-12T10:43:09.857Z</time></trkpt><trkpt lat="43.5622055" lon="6.9502734"><ele>5.0</ele><time>2026-04-12T10:43:10.902Z</time></trkpt><trkpt lat="43.5621315" lon="6.9502978"><ele>5.0</ele><time>2026-04-12T10:43:11.852Z</time></trkpt><trkpt lat="43.5620621" lon="6.9503205"><ele>5.0</ele><time>2026-04-12T10:43:12.871Z</time></trkpt><trkpt lat="43.5619864" lon="6.9503421"><ele>5.0</ele><time>2026-04-12T10:43:13.843Z</time></trkpt><trkpt lat="43.5619176" lon="6.9503649"><ele>5.0</ele><time>2026-04-12T10:43:14.865Z</time></trkpt><trkpt lat="43.5618481" lon="6.9503905"><ele>5.0</ele><time>2026-04-12T10:43:15.863Z</time></trkpt><trkpt lat="43.5617828" lon="6.9504178"><ele>5.0</ele><time>2026-04-12T10:43:16.875Z</time></trkpt><trkpt lat="43.5617206" lon="6.9504422"><ele>5.0</ele><time>2026-04-12T10:43:17.865Z</time></trkpt><trkpt lat="43.5615994" lon="6.9504894"><ele>4.833333333333334</ele><time>2026-04-12T10:43:19.861Z</time></trkpt><trkpt lat="43.5614822" lon="6.9505266"><ele>4.666666666666667</ele><time>2026-04-12T10:43:21.88Z</time></trkpt><trkpt lat="43.5613629" lon="6.9505682"><ele>4.5</ele><time>2026-04-12T10:43:23.833Z</time></trkpt><trkpt lat="43.5612975" lon="6.9505965"><ele>4.333333333333333</ele><time>2026-04-12T10:43:24.878Z</time></trkpt><trkpt lat="43.5612349" lon="6.9506116"><ele>4.166666666666666</ele><time>2026-04-12T10:43:25.871Z</time></trkpt><trkpt lat="43.5611664" lon="6.9506131"><ele>4.0</ele><time>2026-04-12T10:43:26.874Z</time></trkpt><trkpt lat="43.561096" lon="6.9505917"><ele>4.0</ele><time>2026-04-12T10:43:27.877Z</time></trkpt><trkpt lat="43.5610278" lon="6.9505544"><ele>3.9999999999999996</ele><time>2026-04-12T10:43:28.844Z</time></trkpt><trkpt lat="43.5609568" lon="6.9505146"><ele>4.0</ele><time>2026-04-12T10:43:29.883Z</time></trkpt><trkpt lat="43.5608881" lon="6.9504838"><ele>4.0</ele><time>2026-04-12T10:43:30.882Z</time></trkpt><trkpt lat="43.5608139" lon="6.9504889"><ele>3.9999999999999996</ele><time>2026-04-12T10:43:31.845Z</time></trkpt><trkpt lat="43.5607474" lon="6.9505215"><ele>4.0</ele><time>2026-04-12T10:43:32.88Z</time></trkpt><trkpt lat="43.5606889" lon="6.9505727"><ele>4.0</ele><time>2026-04-12T10:43:33.856Z</time></trkpt><trkpt lat="43.5606348" lon="6.950637"><ele>4.0</ele><time>2026-04-12T10:43:34.884Z</time></trkpt><trkpt lat="43.5605843" lon="6.9507058"><ele>3.9999999999999996</ele><time>2026-04-12T10:43:35.866Z</time></trkpt><trkpt lat="43.5605285" lon="6.9507601"><ele>4.0</ele><time>2026-04-12T10:43:36.885Z</time></trkpt><trkpt lat="43.5604739" lon="6.9508128"><ele>4.0</ele><time>2026-04-12T10:43:37.848Z</time></trkpt><trkpt lat="43.5604143" lon="6.9508626"><ele>3.9999999999999996</ele><time>2026-04-12T10:43:38.869Z</time></trkpt><trkpt lat="43.5603544" lon="6.9509018"><ele>4.0</ele><time>2026-04-12T10:43:39.881Z</time></trkpt><trkpt lat="43.5602893" lon="6.9509321"><ele>4.0</ele><time>2026-04-12T10:43:40.854Z</time></trkpt><trkpt lat="43.5602229" lon="6.9509534"><ele>4.428571428571429</ele><time>2026-04-12T10:43:41.903Z</time></trkpt><trkpt lat="43.5601588" lon="6.950978"><ele>4.857142857142857</ele><time>2026-04-12T10:43:42.873Z</time></trkpt><trkpt lat="43.5600942" lon="6.9510007"><ele>5.285714285714286</ele><time>2026-04-12T10:43:43.877Z</time></trkpt><trkpt lat="43.5600271" lon="6.9510241"><ele>5.714285714285714</ele><time>2026-04-12T10:43:44.882Z</time></trkpt><trkpt lat="43.5599573" lon="6.9510438"><ele>6.142857142857142</ele><time>2026-04-12T10:43:45.856Z</time></trkpt><trkpt lat="43.5598937" lon="6.9510612"><ele>6.571428571428571</ele><time>2026-04-12T10:43:46.877Z</time></trkpt><trkpt lat="43.5598191" lon="6.951086"><ele>7.0</ele><time>2026-04-12T10:43:47.876Z</time></trkpt><trkpt lat="43.5597471" lon="6.9511104"><ele>7.0</ele><time>2026-04-12T10:43:48.873Z</time></trkpt><trkpt lat="43.5596708" lon="6.9511366"><ele>7.0</ele><time>2026-04-12T10:43:49.871Z</time></trkpt><trkpt lat="43.5595963" lon="6.9511687"><ele>7.0</ele><time>2026-04-12T10:43:50.869Z</time></trkpt><trkpt lat="43.5595234" lon="6.9511934"><ele>7.0</ele><time>2026-04-12T10:43:51.852Z</time></trkpt><trkpt lat="43.5594534" lon="6.9512172"><ele>7.0</ele><time>2026-04-12T10:43:52.874Z</time></trkpt><trkpt lat="43.5593891" lon="6.9512423"><ele>7.0</ele><time>2026-04-12T10:43:53.847Z</time></trkpt><trkpt lat="43.5593212" lon="6.9512676"><ele>7.0</ele><time>2026-04-12T10:43:54.845Z</time></trkpt><trkpt lat="43.5592505" lon="6.9512928"><ele>7.0</ele><time>2026-04-12T10:43:55.877Z</time></trkpt><trkpt lat="43.5591785" lon="6.951311"><ele>7.0</ele><time>2026-04-12T10:43:56.851Z</time></trkpt><trkpt lat="43.5591026" lon="6.95134"><ele>7.0</ele><time>2026-04-12T10:43:57.869Z</time></trkpt><trkpt lat="43.5590335" lon="6.9513725"><ele>7.0</ele><time>2026-04-12T10:43:58.874Z</time></trkpt><trkpt lat="43.5589611" lon="6.9513998"><ele>7.0</ele><time>2026-04-12T10:43:59.87Z</time></trkpt><trkpt lat="43.5588879" lon="6.9514224"><ele>7.0</ele><time>2026-04-12T10:44:00.89Z</time></trkpt><trkpt lat="43.5588196" lon="6.9514483"><ele>7.0</ele><time>2026-04-12T10:44:01.888Z</time></trkpt><trkpt lat="43.5587491" lon="6.9514709"><ele>6.666666666666667</ele><time>2026-04-12T10:44:02.874Z</time></trkpt><trkpt lat="43.5586782" lon="6.9514959"><ele>6.333333333333334</ele><time>2026-04-12T10:44:03.843Z</time></trkpt><trkpt lat="43.5586069" lon="6.9515201"><ele>6.0</ele><time>2026-04-12T10:44:04.891Z</time></trkpt><trkpt lat="43.5585301" lon="6.951545"><ele>5.666666666666667</ele><time>2026-04-12T10:44:05.857Z</time></trkpt><trkpt lat="43.5584561" lon="6.9515715"><ele>5.333333333333334</ele><time>2026-04-12T10:44:06.882Z</time></trkpt><trkpt lat="43.5583793" lon="6.9515959"><ele>5.0</ele><time>2026-04-12T10:44:07.865Z</time></trkpt><trkpt lat="43.5583034" lon="6.951626"><ele>5.0</ele><time>2026-04-12T10:44:08.864Z</time></trkpt><trkpt lat="43.5582275" lon="6.951659"><ele>5.0</ele><time>2026-04-12T10:44:09.9Z</time></trkpt><trkpt lat="43.5581508" lon="6.9516856"><ele>5.0</ele><time>2026-04-12T10:44:10.882Z</time></trkpt><trkpt lat="43.5575514" lon="6.9519125"><ele>5.0</ele><time>2026-04-12T10:44:17.839Z</time></trkpt><trkpt lat="43.5574372" lon="6.9520196"><ele>5.0</ele><time>2026-04-12T10:44:19.875Z</time></trkpt><trkpt lat="43.5573897" lon="6.9521124"><ele>5.0</ele><time>2026-04-12T10:44:20.868Z</time></trkpt><trkpt lat="43.5573395" lon="6.9522166"><ele>5.0</ele><time>2026-04-12T10:44:21.848Z</time></trkpt><trkpt lat="43.5573145" lon="6.9523128"><ele>5.0</ele><time>2026-04-12T10:44:22.851Z</time></trkpt><trkpt lat="43.557294" lon="6.9524134"><ele>5.0</ele><time>2026-04-12T10:44:23.887Z</time></trkpt><trkpt lat="43.5572876" lon="6.9525147"><ele>5.0</ele><time>2026-04-12T10:44:24.863Z</time></trkpt><trkpt lat="43.5572769" lon="6.9526129"><ele>5.0</ele><time>2026-04-12T10:44:25.879Z</time></trkpt><trkpt lat="43.5572624" lon="6.9527095"><ele>5.0</ele><time>2026-04-12T10:44:26.889Z</time></trkpt><trkpt lat="43.5572495" lon="6.9528043"><ele>5.0</ele><time>2026-04-12T10:44:27.89Z</time></trkpt><trkpt lat="43.557187" lon="6.9529337"><ele>5.0</ele><time>2026-04-12T10:44:29.841Z</time></trkpt><trkpt lat="43.5570916" lon="6.9529586"><ele>5.0</ele><time>2026-04-12T10:44:31.891Z</time></trkpt><trkpt lat="43.5570042" lon="6.9529054"><ele>5.0</ele><time>2026-04-12T10:44:33.861Z</time></trkpt><trkpt lat="43.5569264" lon="6.9528361"><ele>5.0</ele><time>2026-04-12T10:44:35.869Z</time></trkpt><trkpt lat="43.5568452" lon="6.9527791"><ele>5.0</ele><time>2026-04-12T10:44:37.862Z</time></trkpt><trkpt lat="43.5567539" lon="6.9527698"><ele>5.0</ele><time>2026-04-12T10:44:39.88Z</time></trkpt><trkpt lat="43.5566436" lon="6.952819"><ele>5.0</ele><time>2026-04-12T10:44:41.86Z</time></trkpt><trkpt lat="43.5565508" lon="6.9529147"><ele>5.0</ele><time>2026-04-12T10:44:43.865Z</time></trkpt><trkpt lat="43.5564805" lon="6.9530572"><ele>5.0</ele><time>2026-04-12T10:44:45.865Z</time></trkpt><trkpt lat="43.5564354" lon="6.953213"><ele>5.0</ele><time>2026-04-12T10:44:47.89Z</time></trkpt><trkpt lat="43.5563533" lon="6.9533338"><ele>5.0</ele><time>2026-04-12T10:44:49.876Z</time></trkpt><trkpt lat="43.5562556" lon="6.9534403"><ele>5.0</ele><time>2026-04-12T10:44:51.87Z</time></trkpt><trkpt lat="43.5561981" lon="6.9534929"><ele>5.0</ele><time>2026-04-12T10:44:52.881Z</time></trkpt><trkpt lat="43.5561444" lon="6.9535457"><ele>5.0</ele><time>2026-04-12T10:44:53.899Z</time></trkpt><trkpt lat="43.5560892" lon="6.9535994"><ele>5.0</ele><time>2026-04-12T10:44:54.854Z</time></trkpt><trkpt lat="43.5560337" lon="6.9536565"><ele>5.0</ele><time>2026-04-12T10:44:55.885Z</time></trkpt><trkpt lat="43.5559769" lon="6.9537068"><ele>5.428571428571429</ele><time>2026-04-12T10:44:56.852Z</time></trkpt><trkpt lat="43.5559144" lon="6.9537514"><ele>5.857142857142858</ele><time>2026-04-12T10:44:57.89Z</time></trkpt><trkpt lat="43.5558566" lon="6.9538037"><ele>6.285714285714286</ele><time>2026-04-12T10:44:58.856Z</time></trkpt><trkpt lat="43.5557933" lon="6.9538473"><ele>6.7142857142857135</ele><time>2026-04-12T10:44:59.884Z</time></trkpt><trkpt lat="43.555734" lon="6.9538893"><ele>7.142857142857142</ele><time>2026-04-12T10:45:00.868Z</time></trkpt><trkpt lat="43.5556703" lon="6.9539222"><ele>7.571428571428571</ele><time>2026-04-12T10:45:01.885Z</time></trkpt><trkpt lat="43.5556099" lon="6.9539592"><ele>8.0</ele><time>2026-04-12T10:45:02.859Z</time></trkpt><trkpt lat="43.5555481" lon="6.9539906"><ele>8.0</ele><time>2026-04-12T10:45:03.88Z</time></trkpt><trkpt lat="43.5554884" lon="6.9540206"><ele>7.999999999999999</ele><time>2026-04-12T10:45:04.856Z</time></trkpt><trkpt lat="43.555428" lon="6.9540519"><ele>8.0</ele><time>2026-04-12T10:45:05.886Z</time></trkpt><trkpt lat="43.5553633" lon="6.9540719"><ele>8.0</ele><time>2026-04-12T10:45:06.867Z</time></trkpt><trkpt lat="43.5552989" lon="6.9540947"><ele>7.999999999999999</ele><time>2026-04-12T10:45:07.886Z</time></trkpt><trkpt lat="43.5552355" lon="6.954119"><ele>8.0</ele><time>2026-04-12T10:45:08.903Z</time></trkpt><trkpt lat="43.5551715" lon="6.954146"><ele>8.0</ele><time>2026-04-12T10:45:09.874Z</time></trkpt><trkpt lat="43.555108" lon="6.9541808"><ele>7.857142857142857</ele><time>2026-04-12T10:45:10.853Z</time></trkpt><trkpt lat="43.5550447" lon="6.9542051"><ele>7.7142857142857135</ele><time>2026-04-12T10:45:11.848Z</time></trkpt><trkpt lat="43.5549784" lon="6.9542284"><ele>7.571428571428571</ele><time>2026-04-12T10:45:12.874Z</time></trkpt><trkpt lat="43.5549114" lon="6.9542534"><ele>7.428571428571429</ele><time>2026-04-12T10:45:13.863Z</time></trkpt><trkpt lat="43.5548461" lon="6.9542688"><ele>7.285714285714286</ele><time>2026-04-12T10:45:14.878Z</time></trkpt><trkpt lat="43.5547767" lon="6.954282"><ele>7.142857142857142</ele><time>2026-04-12T10:45:15.878Z</time></trkpt><trkpt lat="43.5547089" lon="6.9542998"><ele>7.0</ele><time>2026-04-12T10:45:16.841Z</time></trkpt><trkpt lat="43.554647" lon="6.9543204"><ele>7.0</ele><time>2026-04-12T10:45:17.873Z</time></trkpt><trkpt lat="43.554582" lon="6.9543434"><ele>7.0</ele><time>2026-04-12T10:45:18.854Z</time></trkpt><trkpt lat="43.5545089" lon="6.9543689"><ele>7.0</ele><time>2026-04-12T10:45:19.865Z</time></trkpt><trkpt lat="43.5544426" lon="6.9543928"><ele>7.0</ele><time>2026-04-12T10:45:20.836Z</time></trkpt><trkpt lat="43.5543707" lon="6.954419"><ele>7.0</ele><time>2026-04-12T10:45:21.89Z</time></trkpt><trkpt lat="43.5543014" lon="6.9544548"><ele>7.0</ele><time>2026-04-12T10:45:22.864Z</time></trkpt><trkpt lat="43.5542266" lon="6.9544866"><ele>7.0</ele><time>2026-04-12T10:45:23.876Z</time></trkpt><trkpt lat="43.5541525" lon="6.9545024"><ele>6.857142857142857</ele><time>2026-04-12T10:45:24.851Z</time></trkpt><trkpt lat="43.5540812" lon="6.9545252"><ele>6.714285714285714</ele><time>2026-04-12T10:45:25.887Z</time></trkpt><trkpt lat="43.554011" lon="6.9545394"><ele>6.571428571428571</ele><time>2026-04-12T10:45:26.9Z</time></trkpt><trkpt lat="43.5539441" lon="6.9545604"><ele>6.428571428571429</ele><time>2026-04-12T10:45:27.865Z</time></trkpt><trkpt lat="43.5538775" lon="6.9545708"><ele>6.285714285714286</ele><time>2026-04-12T10:45:28.888Z</time></trkpt><trkpt lat="43.5538123" lon="6.954597"><ele>6.142857142857142</ele><time>2026-04-12T10:45:29.85Z</time></trkpt><trkpt lat="43.5537482" lon="6.9546267"><ele>6.0</ele><time>2026-04-12T10:45:30.886Z</time></trkpt><trkpt lat="43.5536816" lon="6.9546553"><ele>5.857142857142857</ele><time>2026-04-12T10:45:31.852Z</time></trkpt><trkpt lat="43.5536217" lon="6.9546877"><ele>5.714285714285714</ele><time>2026-04-12T10:45:32.887Z</time></trkpt><trkpt lat="43.5535605" lon="6.954712"><ele>5.571428571428571</ele><time>2026-04-12T10:45:33.86Z</time></trkpt><trkpt lat="43.5534981" lon="6.9547406"><ele>5.428571428571429</ele><time>2026-04-12T10:45:34.9Z</time></trkpt><trkpt lat="43.5534313" lon="6.9547668"><ele>5.285714285714286</ele><time>2026-04-12T10:45:35.912Z</time></trkpt><trkpt lat="43.5533641" lon="6.9547929"><ele>5.142857142857142</ele><time>2026-04-12T10:45:36.864Z</time></trkpt><trkpt lat="43.5533002" lon="6.9548234"><ele>5.0</ele><time>2026-04-12T10:45:37.835Z</time></trkpt><trkpt lat="43.5532365" lon="6.9548531"><ele>5.0</ele><time>2026-04-12T10:45:38.847Z</time></trkpt><trkpt lat="43.5531738" lon="6.9548857"><ele>5.0</ele><time>2026-04-12T10:45:39.878Z</time></trkpt><trkpt lat="43.553058" lon="6.9549562"><ele>5.0</ele><time>2026-04-12T10:45:41.879Z</time></trkpt><trkpt lat="43.5529945" lon="6.9549857"><ele>5.0</ele><time>2026-04-12T10:45:42.852Z</time></trkpt><trkpt lat="43.5529317" lon="6.9550162"><ele>5.0</ele><time>2026-04-12T10:45:43.872Z</time></trkpt><trkpt lat="43.5528704" lon="6.955037"><ele>5.0</ele><time>2026-04-12T10:45:44.853Z</time></trkpt><trkpt lat="43.552806" lon="6.9550589"><ele>5.142857142857142</ele><time>2026-04-12T10:45:45.866Z</time></trkpt><trkpt lat="43.5527419" lon="6.9550763"><ele>5.285714285714286</ele><time>2026-04-12T10:45:46.858Z</time></trkpt><trkpt lat="43.552676" lon="6.9550981"><ele>5.428571428571429</ele><time>2026-04-12T10:45:47.862Z</time></trkpt><trkpt lat="43.5526113" lon="6.9551256"><ele>5.571428571428571</ele><time>2026-04-12T10:45:48.856Z</time></trkpt><trkpt lat="43.5525449" lon="6.9551522"><ele>5.714285714285714</ele><time>2026-04-12T10:45:49.878Z</time></trkpt><trkpt lat="43.5524767" lon="6.9551762"><ele>5.857142857142857</ele><time>2026-04-12T10:45:50.867Z</time></trkpt><trkpt lat="43.5524145" lon="6.955205"><ele>6.0</ele><time>2026-04-12T10:45:51.873Z</time></trkpt><trkpt lat="43.5523523" lon="6.9552373"><ele>5.999999999999999</ele><time>2026-04-12T10:45:52.887Z</time></trkpt><trkpt lat="43.5522851" lon="6.9552623"><ele>6.0</ele><time>2026-04-12T10:45:53.866Z</time></trkpt><trkpt lat="43.552216" lon="6.9552928"><ele>6.0</ele><time>2026-04-12T10:45:54.875Z</time></trkpt><trkpt lat="43.552147" lon="6.9553297"><ele>6.0</ele><time>2026-04-12T10:45:55.879Z</time></trkpt><trkpt lat="43.5520778" lon="6.9553577"><ele>6.0</ele><time>2026-04-12T10:45:56.88Z</time></trkpt><trkpt lat="43.5520096" lon="6.9553853"><ele>5.999999999999999</ele><time>2026-04-12T10:45:57.885Z</time></trkpt><trkpt lat="43.5519422" lon="6.9554128"><ele>6.0</ele><time>2026-04-12T10:45:58.851Z</time></trkpt><trkpt lat="43.5518786" lon="6.9554416"><ele>5.857142857142857</ele><time>2026-04-12T10:45:59.849Z</time></trkpt><trkpt lat="43.5518144" lon="6.9554746"><ele>5.714285714285714</ele><time>2026-04-12T10:46:00.892Z</time></trkpt><trkpt lat="43.5517503" lon="6.9555042"><ele>5.571428571428571</ele><time>2026-04-12T10:46:01.851Z</time></trkpt><trkpt lat="43.5516866" lon="6.955538"><ele>5.428571428571429</ele><time>2026-04-12T10:46:02.871Z</time></trkpt><trkpt lat="43.5516245" lon="6.955577"><ele>5.285714285714286</ele><time>2026-04-12T10:46:03.879Z</time></trkpt><trkpt lat="43.5515632" lon="6.9556188"><ele>5.142857142857142</ele><time>2026-04-12T10:46:04.822Z</time></trkpt><trkpt lat="43.5515012" lon="6.9556674"><ele>5.0</ele><time>2026-04-12T10:46:05.861Z</time></trkpt><trkpt lat="43.5514391" lon="6.9557174"><ele>5.0</ele><time>2026-04-12T10:46:06.858Z</time></trkpt><trkpt lat="43.5513806" lon="6.9557744"><ele>5.0</ele><time>2026-04-12T10:46:07.875Z</time></trkpt><trkpt lat="43.5513244" lon="6.9558296"><ele>5.0</ele><time>2026-04-12T10:46:08.849Z</time></trkpt><trkpt lat="43.5512724" lon="6.9558944"><ele>5.0</ele><time>2026-04-12T10:46:09.843Z</time></trkpt><trkpt lat="43.5512176" lon="6.9559545"><ele>5.0</ele><time>2026-04-12T10:46:10.868Z</time></trkpt><trkpt lat="43.5511648" lon="6.9560187"><ele>5.0</ele><time>2026-04-12T10:46:11.882Z</time></trkpt><trkpt lat="43.5511089" lon="6.9560758"><ele>5.0</ele><time>2026-04-12T10:46:12.862Z</time></trkpt><trkpt lat="43.551053" lon="6.9561343"><ele>5.142857142857142</ele><time>2026-04-12T10:46:13.891Z</time></trkpt><trkpt lat="43.5510045" lon="6.9561977"><ele>5.285714285714286</ele><time>2026-04-12T10:46:14.879Z</time></trkpt><trkpt lat="43.5509528" lon="6.9562613"><ele>5.428571428571429</ele><time>2026-04-12T10:46:15.872Z</time></trkpt><trkpt lat="43.5509023" lon="6.956334"><ele>5.571428571428571</ele><time>2026-04-12T10:46:16.84Z</time></trkpt><trkpt lat="43.5508577" lon="6.9563989"><ele>5.714285714285714</ele><time>2026-04-12T10:46:17.888Z</time></trkpt><trkpt lat="43.5508114" lon="6.9564593"><ele>5.857142857142857</ele><time>2026-04-12T10:46:18.848Z</time></trkpt><trkpt lat="43.5507671" lon="6.9565301"><ele>6.0</ele><time>2026-04-12T10:46:19.884Z</time></trkpt><trkpt lat="43.5507222" lon="6.9566026"><ele>6.0</ele><time>2026-04-12T10:46:20.851Z</time></trkpt><trkpt lat="43.550676" lon="6.9566817"><ele>6.0</ele><time>2026-04-12T10:46:21.865Z</time></trkpt><trkpt lat="43.550633" lon="6.9567616"><ele>6.0</ele><time>2026-04-12T10:46:22.836Z</time></trkpt><trkpt lat="43.5505897" lon="6.9568359"><ele>6.0</ele><time>2026-04-12T10:46:23.844Z</time></trkpt><trkpt lat="43.5505485" lon="6.9569059"><ele>6.0</ele><time>2026-04-12T10:46:24.876Z</time></trkpt><trkpt lat="43.5504668" lon="6.9570276"><ele>6.0</ele><time>2026-04-12T10:46:26.867Z</time></trkpt><trkpt lat="43.5503611" lon="6.9571025"><ele>5.666666666666667</ele><time>2026-04-12T10:46:28.869Z</time></trkpt><trkpt lat="43.5502701" lon="6.9572169"><ele>5.333333333333333</ele><time>2026-04-12T10:46:30.868Z</time></trkpt><trkpt lat="43.5502483" lon="6.9573038"><ele>5.0</ele><time>2026-04-12T10:46:31.865Z</time></trkpt><trkpt lat="43.5502495" lon="6.9573913"><ele>4.666666666666666</ele><time>2026-04-12T10:46:32.884Z</time></trkpt><trkpt lat="43.5502618" lon="6.9574888"><ele>4.333333333333333</ele><time>2026-04-12T10:46:33.865Z</time></trkpt><trkpt lat="43.5502657" lon="6.9575764"><ele>4.0</ele><time>2026-04-12T10:46:34.862Z</time></trkpt><trkpt lat="43.5502522" lon="6.957673"><ele>4.0</ele><time>2026-04-12T10:46:35.869Z</time></trkpt><trkpt lat="43.5502383" lon="6.9577695"><ele>3.9999999999999996</ele><time>2026-04-12T10:46:36.879Z</time></trkpt><trkpt lat="43.5502296" lon="6.9578653"><ele>4.0</ele><time>2026-04-12T10:46:37.861Z</time></trkpt><trkpt lat="43.55023" lon="6.9579648"><ele>4.0</ele><time>2026-04-12T10:46:38.889Z</time></trkpt><trkpt lat="43.5502297" lon="6.9580639"><ele>3.9999999999999996</ele><time>2026-04-12T10:46:39.882Z</time></trkpt><trkpt lat="43.5502293" lon="6.9581618"><ele>4.0</ele><time>2026-04-12T10:46:40.862Z</time></trkpt><trkpt lat="43.5502261" lon="6.9582565"><ele>4.0</ele><time>2026-04-12T10:46:41.878Z</time></trkpt><trkpt lat="43.5502219" lon="6.9583584"><ele>4.0</ele><time>2026-04-12T10:46:42.847Z</time></trkpt><trkpt lat="43.5502174" lon="6.9584555"><ele>3.9999999999999996</ele><time>2026-04-12T10:46:43.882Z</time></trkpt><trkpt lat="43.5502136" lon="6.9585491"><ele>4.0</ele><time>2026-04-12T10:46:44.853Z</time></trkpt><trkpt lat="43.5502101" lon="6.958645"><ele>4.0</ele><time>2026-04-12T10:46:45.838Z</time></trkpt><trkpt lat="43.5502048" lon="6.9587381"><ele>3.9999999999999996</ele><time>2026-04-12T10:46:46.842Z</time></trkpt><trkpt lat="43.5501982" lon="6.958838"><ele>4.0</ele><time>2026-04-12T10:46:47.892Z</time></trkpt><trkpt lat="43.5501942" lon="6.9589328"><ele>4.0</ele><time>2026-04-12T10:46:48.871Z</time></trkpt><trkpt lat="43.5501921" lon="6.9590261"><ele>4.0</ele><time>2026-04-12T10:46:49.851Z</time></trkpt><trkpt lat="43.5501869" lon="6.959122"><ele>3.9999999999999996</ele><time>2026-04-12T10:46:50.886Z</time></trkpt><trkpt lat="43.5501815" lon="6.9592161"><ele>4.0</ele><time>2026-04-12T10:46:51.877Z</time></trkpt><trkpt lat="43.5501741" lon="6.9593126"><ele>4.0</ele><time>2026-04-12T10:46:52.857Z</time></trkpt><trkpt lat="43.5501709" lon="6.9594061"><ele>3.9999999999999996</ele><time>2026-04-12T10:46:53.859Z</time></trkpt><trkpt lat="43.5501697" lon="6.9595001"><ele>4.0</ele><time>2026-04-12T10:46:54.88Z</time></trkpt><trkpt lat="43.5501683" lon="6.9595878"><ele>4.0</ele><time>2026-04-12T10:46:55.88Z</time></trkpt><trkpt lat="43.5501639" lon="6.9596822"><ele>4.0</ele><time>2026-04-12T10:46:56.876Z</time></trkpt><trkpt lat="43.5501587" lon="6.9597756"><ele>3.9999999999999996</ele><time>2026-04-12T10:46:57.853Z</time></trkpt><trkpt lat="43.5501618" lon="6.9598667"><ele>4.0</ele><time>2026-04-12T10:46:58.828Z</time></trkpt><trkpt lat="43.5501596" lon="6.9599648"><ele>4.0</ele><time>2026-04-12T10:46:59.887Z</time></trkpt><trkpt lat="43.5501553" lon="6.9600589"><ele>3.9999999999999996</ele><time>2026-04-12T10:47:00.85Z</time></trkpt><trkpt lat="43.5501524" lon="6.9601524"><ele>4.0</ele><time>2026-04-12T10:47:01.87Z</time></trkpt><trkpt lat="43.5501507" lon="6.9602394"><ele>4.0</ele><time>2026-04-12T10:47:02.877Z</time></trkpt><trkpt lat="43.5501485" lon="6.96033"><ele>4.0</ele><time>2026-04-12T10:47:03.848Z</time></trkpt><trkpt lat="43.5501412" lon="6.9604192"><ele>4.0</ele><time>2026-04-12T10:47:04.884Z</time></trkpt><trkpt lat="43.550141" lon="6.9605149"><ele>4.0</ele><time>2026-04-12T10:47:05.861Z</time></trkpt><trkpt lat="43.550139" lon="6.9606101"><ele>4.0</ele><time>2026-04-12T10:47:06.853Z</time></trkpt><trkpt lat="43.5501254" lon="6.9607806"><ele>4.0</ele><time>2026-04-12T10:47:08.87Z</time></trkpt><trkpt lat="43.5501129" lon="6.9609518"><ele>3.6</ele><time>2026-04-12T10:47:10.881Z</time></trkpt><trkpt lat="43.5501011" lon="6.9610429"><ele>3.2</ele><time>2026-04-12T10:47:11.86Z</time></trkpt><trkpt lat="43.5500636" lon="6.9612041"><ele>2.8000000000000003</ele><time>2026-04-12T10:47:13.875Z</time></trkpt><trkpt lat="43.5500287" lon="6.9613746"><ele>2.4000000000000004</ele><time>2026-04-12T10:47:15.839Z</time></trkpt><trkpt lat="43.5500049" lon="6.9615342"><ele>2.0</ele><time>2026-04-12T10:47:17.861Z</time></trkpt><trkpt lat="43.5499943" lon="6.9616898"><ele>2.25</ele><time>2026-04-12T10:47:19.839Z</time></trkpt><trkpt lat="43.5499774" lon="6.9618476"><ele>2.5</ele><time>2026-04-12T10:47:21.835Z</time></trkpt><trkpt lat="43.5499453" lon="6.9619953"><ele>2.75</ele><time>2026-04-12T10:47:23.867Z</time></trkpt><trkpt lat="43.5498688" lon="6.962085"><ele>3.0</ele><time>2026-04-12T10:47:25.848Z</time></trkpt><trkpt lat="43.5497439" lon="6.9621078"><ele>2.9999999999999996</ele><time>2026-04-12T10:47:27.858Z</time></trkpt><trkpt lat="43.5496763" lon="6.9621093"><ele>3.0</ele><time>2026-04-12T10:47:28.85Z</time></trkpt><trkpt lat="43.5496085" lon="6.9621086"><ele>3.0</ele><time>2026-04-12T10:47:29.883Z</time></trkpt><trkpt lat="43.5495381" lon="6.9621068"><ele>3.0</ele><time>2026-04-12T10:47:30.855Z</time></trkpt><trkpt lat="43.5494626" lon="6.9621149"><ele>3.0</ele><time>2026-04-12T10:47:31.894Z</time></trkpt><trkpt lat="43.5493824" lon="6.9621312"><ele>2.9999999999999996</ele><time>2026-04-12T10:47:32.861Z</time></trkpt><trkpt lat="43.5493112" lon="6.9621501"><ele>3.0</ele><time>2026-04-12T10:47:33.886Z</time></trkpt><trkpt lat="43.5492374" lon="6.9621676"><ele>3.0</ele><time>2026-04-12T10:47:34.846Z</time></trkpt><trkpt lat="43.5491697" lon="6.9621871"><ele>3.0</ele><time>2026-04-12T10:47:35.902Z</time></trkpt><trkpt lat="43.5491015" lon="6.9621966"><ele>3.0</ele><time>2026-04-12T10:47:36.85Z</time></trkpt><trkpt lat="43.5490363" lon="6.9622087"><ele>3.0</ele><time>2026-04-12T10:47:37.847Z</time></trkpt><trkpt lat="43.5489669" lon="6.9622198"><ele>3.0</ele><time>2026-04-12T10:47:38.886Z</time></trkpt><trkpt lat="43.5488428" lon="6.9622293"><ele>3.0</ele><time>2026-04-12T10:47:40.869Z</time></trkpt><trkpt lat="43.5487741" lon="6.962232"><ele>3.1428571428571423</ele><time>2026-04-12T10:47:41.911Z</time></trkpt><trkpt lat="43.5487057" lon="6.9622358"><ele>3.2857142857142856</ele><time>2026-04-12T10:47:42.875Z</time></trkpt><trkpt lat="43.5486354" lon="6.9622476"><ele>3.4285714285714284</ele><time>2026-04-12T10:47:43.868Z</time></trkpt><trkpt lat="43.5485703" lon="6.9622492"><ele>3.571428571428571</ele><time>2026-04-12T10:47:44.863Z</time></trkpt><trkpt lat="43.5484969" lon="6.9622487"><ele>3.714285714285714</ele><time>2026-04-12T10:47:45.857Z</time></trkpt><trkpt lat="43.5484325" lon="6.9622541"><ele>3.8571428571428568</ele><time>2026-04-12T10:47:46.886Z</time></trkpt><trkpt lat="43.5483632" lon="6.962255"><ele>4.0</ele><time>2026-04-12T10:47:47.889Z</time></trkpt><trkpt lat="43.5482998" lon="6.9622565"><ele>4.0</ele><time>2026-04-12T10:47:48.865Z</time></trkpt><trkpt lat="43.548236" lon="6.9622575"><ele>3.9999999999999996</ele><time>2026-04-12T10:47:49.89Z</time></trkpt><trkpt lat="43.5481141" lon="6.9622682"><ele>4.0</ele><time>2026-04-12T10:47:51.87Z</time></trkpt><trkpt lat="43.5480507" lon="6.9622773"><ele>4.0</ele><time>2026-04-12T10:47:52.868Z</time></trkpt><trkpt lat="43.5479872" lon="6.9622854"><ele>3.9999999999999996</ele><time>2026-04-12T10:47:53.848Z</time></trkpt><trkpt lat="43.5479228" lon="6.9622923"><ele>4.0</ele><time>2026-04-12T10:47:54.849Z</time></trkpt><trkpt lat="43.5478574" lon="6.962298"><ele>4.0</ele><time>2026-04-12T10:47:55.903Z</time></trkpt><trkpt lat="43.5477917" lon="6.9623073"><ele>4.142857142857142</ele><time>2026-04-12T10:47:56.853Z</time></trkpt><trkpt lat="43.5477278" lon="6.962315"><ele>4.285714285714286</ele><time>2026-04-12T10:47:57.891Z</time></trkpt><trkpt lat="43.5476602" lon="6.9623147"><ele>4.428571428571429</ele><time>2026-04-12T10:47:58.852Z</time></trkpt><trkpt lat="43.5475871" lon="6.9623178"><ele>4.571428571428571</ele><time>2026-04-12T10:47:59.888Z</time></trkpt><trkpt lat="43.5475178" lon="6.9623217"><ele>4.714285714285714</ele><time>2026-04-12T10:48:00.86Z</time></trkpt><trkpt lat="43.5474508" lon="6.9623228"><ele>4.857142857142857</ele><time>2026-04-12T10:48:01.852Z</time></trkpt><trkpt lat="43.5473808" lon="6.962331"><ele>5.0</ele><time>2026-04-12T10:48:02.889Z</time></trkpt><trkpt lat="43.5473129" lon="6.9623326"><ele>5.0</ele><time>2026-04-12T10:48:03.86Z</time></trkpt><trkpt lat="43.5472434" lon="6.9623381"><ele>5.0</ele><time>2026-04-12T10:48:04.886Z</time></trkpt><trkpt lat="43.5471762" lon="6.9623435"><ele>5.0</ele><time>2026-04-12T10:48:05.856Z</time></trkpt><trkpt lat="43.5471095" lon="6.9623517"><ele>5.0</ele><time>2026-04-12T10:48:06.855Z</time></trkpt><trkpt lat="43.5470446" lon="6.9623562"><ele>5.0</ele><time>2026-04-12T10:48:07.856Z</time></trkpt><trkpt lat="43.5469763" lon="6.9623599"><ele>5.0</ele><time>2026-04-12T10:48:08.881Z</time></trkpt><trkpt lat="43.5469123" lon="6.962361"><ele>5.0</ele><time>2026-04-12T10:48:09.868Z</time></trkpt><trkpt lat="43.5468486" lon="6.9623597"><ele>5.333333333333334</ele><time>2026-04-12T10:48:10.848Z</time></trkpt><trkpt lat="43.5467836" lon="6.9623591"><ele>5.666666666666667</ele><time>2026-04-12T10:48:11.876Z</time></trkpt><trkpt lat="43.5467162" lon="6.9623624"><ele>6.0</ele><time>2026-04-12T10:48:12.889Z</time></trkpt><trkpt lat="43.5466494" lon="6.9623607"><ele>6.333333333333334</ele><time>2026-04-12T10:48:13.83Z</time></trkpt><trkpt lat="43.5465859" lon="6.962354"><ele>6.666666666666667</ele><time>2026-04-12T10:48:14.818Z</time></trkpt><trkpt lat="43.5464549" lon="6.9623406"><ele>7.0</ele><time>2026-04-12T10:48:16.837Z</time></trkpt><trkpt lat="43.5463845" lon="6.9623103"><ele>7.0</ele><time>2026-04-12T10:48:17.842Z</time></trkpt><trkpt lat="43.5463161" lon="6.9622902"><ele>7.0</ele><time>2026-04-12T10:48:18.831Z</time></trkpt><trkpt lat="43.5462497" lon="6.9622508"><ele>7.0</ele><time>2026-04-12T10:48:19.846Z</time></trkpt><trkpt lat="43.5461868" lon="6.9622212"><ele>7.0</ele><time>2026-04-12T10:48:20.848Z</time></trkpt><trkpt lat="43.5461217" lon="6.9621906"><ele>7.0</ele><time>2026-04-12T10:48:21.888Z</time></trkpt><trkpt lat="43.5460556" lon="6.9621623"><ele>7.0</ele><time>2026-04-12T10:48:22.854Z</time></trkpt><trkpt lat="43.5459903" lon="6.9621348"><ele>7.0</ele><time>2026-04-12T10:48:23.878Z</time></trkpt><trkpt lat="43.5459269" lon="6.9621045"><ele>6.333333333333334</ele><time>2026-04-12T10:48:24.891Z</time></trkpt><trkpt lat="43.5458656" lon="6.9620773"><ele>5.666666666666667</ele><time>2026-04-12T10:48:25.838Z</time></trkpt><trkpt lat="43.545803" lon="6.9620426"><ele>5.0</ele><time>2026-04-12T10:48:26.876Z</time></trkpt><trkpt lat="43.5457441" lon="6.9620107"><ele>4.333333333333334</ele><time>2026-04-12T10:48:27.89Z</time></trkpt><trkpt lat="43.5456833" lon="6.9619682"><ele>3.666666666666667</ele><time>2026-04-12T10:48:28.842Z</time></trkpt><trkpt lat="43.5456245" lon="6.9619282"><ele>3.0</ele><time>2026-04-12T10:48:29.867Z</time></trkpt><trkpt lat="43.5455163" lon="6.9618452"><ele>3.0</ele><time>2026-04-12T10:48:31.863Z</time></trkpt><trkpt lat="43.5453992" lon="6.9617684"><ele>3.0</ele><time>2026-04-12T10:48:33.861Z</time></trkpt><trkpt lat="43.5453355" lon="6.9617209"><ele>3.0</ele><time>2026-04-12T10:48:34.901Z</time></trkpt><trkpt lat="43.5452758" lon="6.9616667"><ele>3.0</ele><time>2026-04-12T10:48:35.878Z</time></trkpt><trkpt lat="43.5452184" lon="6.9616113"><ele>3.0</ele><time>2026-04-12T10:48:36.866Z</time></trkpt><trkpt lat="43.5451603" lon="6.9615528"><ele>3.0</ele><time>2026-04-12T10:48:37.865Z</time></trkpt><trkpt lat="43.5451041" lon="6.961495"><ele>2.9999999999999996</ele><time>2026-04-12T10:48:38.87Z</time></trkpt><trkpt lat="43.5450466" lon="6.9614298"><ele>3.0</ele><time>2026-04-12T10:48:39.893Z</time></trkpt><trkpt lat="43.5449936" lon="6.9613699"><ele>3.0</ele><time>2026-04-12T10:48:40.861Z</time></trkpt><trkpt lat="43.5449389" lon="6.9613107"><ele>3.0</ele><time>2026-04-12T10:48:41.853Z</time></trkpt><trkpt lat="43.5448866" lon="6.9612593"><ele>3.0</ele><time>2026-04-12T10:48:42.862Z</time></trkpt><trkpt lat="43.5448324" lon="6.9612008"><ele>2.9999999999999996</ele><time>2026-04-12T10:48:43.877Z</time></trkpt><trkpt lat="43.5447771" lon="6.9611511"><ele>3.0</ele><time>2026-04-12T10:48:44.852Z</time></trkpt><trkpt lat="43.544725" lon="6.9610952"><ele>2.9999999999999996</ele><time>2026-04-12T10:48:45.846Z</time></trkpt><trkpt lat="43.5446692" lon="6.9610417"><ele>3.0</ele><time>2026-04-12T10:48:46.877Z</time></trkpt><trkpt lat="43.5446169" lon="6.9609831"><ele>3.0</ele><time>2026-04-12T10:48:47.859Z</time></trkpt><trkpt lat="43.5445651" lon="6.9609215"><ele>3.0</ele><time>2026-04-12T10:48:48.863Z</time></trkpt><trkpt lat="43.5445113" lon="6.960862"><ele>3.0</ele><time>2026-04-12T10:48:49.869Z</time></trkpt><trkpt lat="43.5444529" lon="6.9607991"><ele>2.9999999999999996</ele><time>2026-04-12T10:48:50.872Z</time></trkpt><trkpt lat="43.5443979" lon="6.9607364"><ele>3.0</ele><time>2026-04-12T10:48:51.822Z</time></trkpt><trkpt lat="43.544342" lon="6.9606786"><ele>3.2857142857142856</ele><time>2026-04-12T10:48:52.894Z</time></trkpt><trkpt lat="43.5442908" lon="6.960616"><ele>3.571428571428571</ele><time>2026-04-12T10:48:53.858Z</time></trkpt><trkpt lat="43.5442348" lon="6.9605619"><ele>3.8571428571428568</ele><time>2026-04-12T10:48:54.869Z</time></trkpt><trkpt lat="43.5441778" lon="6.9605014"><ele>4.142857142857142</ele><time>2026-04-12T10:48:55.902Z</time></trkpt><trkpt lat="43.5441214" lon="6.9604372"><ele>4.428571428571429</ele><time>2026-04-12T10:48:56.888Z</time></trkpt><trkpt lat="43.5440697" lon="6.960371"><ele>4.714285714285714</ele><time>2026-04-12T10:48:57.869Z</time></trkpt><trkpt lat="43.5440166" lon="6.9603083"><ele>5.0</ele><time>2026-04-12T10:48:58.888Z</time></trkpt><trkpt lat="43.5439678" lon="6.9602497"><ele>5.0</ele><time>2026-04-12T10:48:59.885Z</time></trkpt><trkpt lat="43.5438612" lon="6.9601461"><ele>5.0</ele><time>2026-04-12T10:49:01.842Z</time></trkpt><trkpt lat="43.5438066" lon="6.9600953"><ele>5.0</ele><time>2026-04-12T10:49:02.855Z</time></trkpt><trkpt lat="43.5437532" lon="6.9600407"><ele>5.0</ele><time>2026-04-12T10:49:03.845Z</time></trkpt><trkpt lat="43.5436972" lon="6.9599861"><ele>5.0</ele><time>2026-04-12T10:49:04.878Z</time></trkpt><trkpt lat="43.5436384" lon="6.9599322"><ele>5.0</ele><time>2026-04-12T10:49:05.855Z</time></trkpt><trkpt lat="43.5435849" lon="6.959881"><ele>5.0</ele><time>2026-04-12T10:49:06.867Z</time></trkpt><trkpt lat="43.5435287" lon="6.9598395"><ele>5.0</ele><time>2026-04-12T10:49:07.904Z</time></trkpt><trkpt lat="43.5434677" lon="6.9598057"><ele>5.0</ele><time>2026-04-12T10:49:08.87Z</time></trkpt><trkpt lat="43.5434032" lon="6.9597715"><ele>5.0</ele><time>2026-04-12T10:49:09.879Z</time></trkpt><trkpt lat="43.5433405" lon="6.9597423"><ele>5.0</ele><time>2026-04-12T10:49:10.851Z</time></trkpt><trkpt lat="43.5431991" lon="6.9597449"><ele>5.0</ele><time>2026-04-12T10:49:12.884Z</time></trkpt><trkpt lat="43.5431305" lon="6.9597655"><ele>5.0</ele><time>2026-04-12T10:49:13.857Z</time></trkpt><trkpt lat="43.5430673" lon="6.9597812"><ele>5.0</ele><time>2026-04-12T10:49:14.873Z</time></trkpt><trkpt lat="43.5430015" lon="6.9598036"><ele>5.0</ele><time>2026-04-12T10:49:15.877Z</time></trkpt><trkpt lat="43.5429326" lon="6.9598379"><ele>5.0</ele><time>2026-04-12T10:49:16.891Z</time></trkpt><trkpt lat="43.5428637" lon="6.9598869"><ele>5.0</ele><time>2026-04-12T10:49:17.846Z</time></trkpt><trkpt lat="43.5427963" lon="6.9599542"><ele>5.0</ele><time>2026-04-12T10:49:18.883Z</time></trkpt><trkpt lat="43.542729" lon="6.960014"><ele>5.0</ele><time>2026-04-12T10:49:19.852Z</time></trkpt><trkpt lat="43.5426589" lon="6.9600812"><ele>5.4</ele><time>2026-04-12T10:49:20.901Z</time></trkpt><trkpt lat="43.5425809" lon="6.960155"><ele>5.8</ele><time>2026-04-12T10:49:21.83Z</time></trkpt><trkpt lat="43.542507" lon="6.9602329"><ele>6.199999999999999</ele><time>2026-04-12T10:49:22.863Z</time></trkpt><trkpt lat="43.5424353" lon="6.9603027"><ele>6.6</ele><time>2026-04-12T10:49:23.89Z</time></trkpt><trkpt lat="43.5423584" lon="6.9603715"><ele>7.0</ele><time>2026-04-12T10:49:24.898Z</time></trkpt><trkpt lat="43.5422815" lon="6.9604509"><ele>7.000000000000001</ele><time>2026-04-12T10:49:25.876Z</time></trkpt><trkpt lat="43.5422039" lon="6.9605212"><ele>7.0</ele><time>2026-04-12T10:49:26.874Z</time></trkpt><trkpt lat="43.5421312" lon="6.9605899"><ele>7.0</ele><time>2026-04-12T10:49:27.864Z</time></trkpt><trkpt lat="43.5420681" lon="6.9606403"><ele>7.0</ele><time>2026-04-12T10:49:28.877Z</time></trkpt><trkpt lat="43.5420021" lon="6.9606973"><ele>7.000000000000001</ele><time>2026-04-12T10:49:29.87Z</time></trkpt><trkpt lat="43.5419419" lon="6.9607403"><ele>7.0</ele><time>2026-04-12T10:49:30.879Z</time></trkpt><trkpt lat="43.5418423" lon="6.9607906"><ele>6.8</ele><time>2026-04-12T10:49:32.882Z</time></trkpt><trkpt lat="43.5417581" lon="6.9608467"><ele>6.6</ele><time>2026-04-12T10:49:34.891Z</time></trkpt><trkpt lat="43.5416967" lon="6.9609001"><ele>6.3999999999999995</ele><time>2026-04-12T10:49:36.85Z</time></trkpt><trkpt lat="43.5416043" lon="6.9609612"><ele>6.199999999999999</ele><time>2026-04-12T10:49:38.875Z</time></trkpt><trkpt lat="43.5415313" lon="6.9610629"><ele>6.0</ele><time>2026-04-12T10:49:40.883Z</time></trkpt><trkpt lat="43.5415105" lon="6.9612111"><ele>6.0</ele><time>2026-04-12T10:49:42.827Z</time></trkpt><trkpt lat="43.541567" lon="6.9613289"><ele>6.0</ele><time>2026-04-12T10:49:44.861Z</time></trkpt><trkpt lat="43.5416181" lon="6.9613854"><ele>6.0</ele><time>2026-04-12T10:49:45.873Z</time></trkpt><trkpt lat="43.5416663" lon="6.9614416"><ele>6.0</ele><time>2026-04-12T10:49:46.881Z</time></trkpt><trkpt lat="43.5417558" lon="6.9615611"><ele>6.0</ele><time>2026-04-12T10:49:48.869Z</time></trkpt><trkpt lat="43.5418317" lon="6.9616787"><ele>5.2</ele><time>2026-04-12T10:49:50.875Z</time></trkpt><trkpt lat="43.541909" lon="6.9617786"><ele>4.3999999999999995</ele><time>2026-04-12T10:49:52.871Z</time></trkpt><trkpt lat="43.5419775" lon="6.9618739"><ele>3.6</ele><time>2026-04-12T10:49:54.854Z</time></trkpt><trkpt lat="43.5420432" lon="6.9620078"><ele>2.8</ele><time>2026-04-12T10:49:56.877Z</time></trkpt><trkpt lat="43.5421061" lon="6.9621494"><ele>2.0</ele><time>2026-04-12T10:49:58.871Z</time></trkpt><trkpt lat="43.5421646" lon="6.962285"><ele>3.75</ele><time>2026-04-12T10:50:00.868Z</time></trkpt><trkpt lat="43.5422229" lon="6.9624225"><ele>5.5</ele><time>2026-04-12T10:50:02.865Z</time></trkpt><trkpt lat="43.5422834" lon="6.962558"><ele>7.25</ele><time>2026-04-12T10:50:04.87Z</time></trkpt><trkpt lat="43.5423461" lon="6.9626899"><ele>9.0</ele><time>2026-04-12T10:50:06.847Z</time></trkpt><trkpt lat="43.5424117" lon="6.9628194"><ele>9.0</ele><time>2026-04-12T10:50:08.902Z</time></trkpt><trkpt lat="43.5424794" lon="6.9629534"><ele>9.0</ele><time>2026-04-12T10:50:10.872Z</time></trkpt><trkpt lat="43.5425446" lon="6.9630861"><ele>9.0</ele><time>2026-04-12T10:50:12.877Z</time></trkpt><trkpt lat="43.5426072" lon="6.9632123"><ele>9.0</ele><time>2026-04-12T10:50:14.845Z</time></trkpt><trkpt lat="43.5426692" lon="6.9633376"><ele>9.0</ele><time>2026-04-12T10:50:16.886Z</time></trkpt><trkpt lat="43.5427342" lon="6.9634702"><ele>9.0</ele><time>2026-04-12T10:50:18.847Z</time></trkpt><trkpt lat="43.5427927" lon="6.9636005"><ele>9.0</ele><time>2026-04-12T10:50:20.861Z</time></trkpt><trkpt lat="43.542853" lon="6.9637312"><ele>9.0</ele><time>2026-04-12T10:50:22.852Z</time></trkpt><trkpt lat="43.5429119" lon="6.9638484"><ele>9.0</ele><time>2026-04-12T10:50:24.889Z</time></trkpt><trkpt lat="43.5429693" lon="6.9639804"><ele>9.0</ele><time>2026-04-12T10:50:26.863Z</time></trkpt><trkpt lat="43.5430257" lon="6.9641161"><ele>9.0</ele><time>2026-04-12T10:50:28.859Z</time></trkpt><trkpt lat="43.543085" lon="6.9642538"><ele>9.0</ele><time>2026-04-12T10:50:30.857Z</time></trkpt><trkpt lat="43.5431421" lon="6.9643882"><ele>9.0</ele><time>2026-04-12T10:50:32.857Z</time></trkpt><trkpt lat="43.5431947" lon="6.9645326"><ele>9.0</ele><time>2026-04-12T10:50:34.888Z</time></trkpt><trkpt lat="43.5432474" lon="6.9646716"><ele>9.0</ele><time>2026-04-12T10:50:36.86Z</time></trkpt><trkpt lat="43.5433016" lon="6.9648188"><ele>9.0</ele><time>2026-04-12T10:50:38.858Z</time></trkpt><trkpt lat="43.5433363" lon="6.964892"><ele>9.0</ele><time>2026-04-12T10:50:39.892Z</time></trkpt><trkpt lat="43.5434049" lon="6.9650179"><ele>9.0</ele><time>2026-04-12T10:50:41.877Z</time></trkpt><trkpt lat="43.5434574" lon="6.9651528"><ele>7.5</ele><time>2026-04-12T10:50:43.872Z</time></trkpt><trkpt lat="43.5435007" lon="6.9652939"><ele>6.0</ele><time>2026-04-12T10:50:45.871Z</time></trkpt><trkpt lat="43.5435471" lon="6.9654371"><ele>4.5</ele><time>2026-04-12T10:50:47.895Z</time></trkpt><trkpt lat="43.5435927" lon="6.9655859"><ele>3.0</ele><time>2026-04-12T10:50:49.901Z</time></trkpt><trkpt lat="43.5436578" lon="6.9657163"><ele>3.2</ele><time>2026-04-12T10:50:51.85Z</time></trkpt><trkpt lat="43.5437317" lon="6.9658546"><ele>3.4</ele><time>2026-04-12T10:50:53.832Z</time></trkpt><trkpt lat="43.5437932" lon="6.9660126"><ele>3.6000000000000005</ele><time>2026-04-12T10:50:55.832Z</time></trkpt><trkpt lat="43.5438268" lon="6.9661209"><ele>3.8000000000000003</ele><time>2026-04-12T10:50:56.848Z</time></trkpt><trkpt lat="43.5438576" lon="6.966212"><ele>4.0</ele><time>2026-04-12T10:50:57.834Z</time></trkpt><trkpt lat="43.5438973" lon="6.9662976"><ele>3.9999999999999996</ele><time>2026-04-12T10:50:59.863Z</time></trkpt><trkpt lat="43.5439183" lon="6.966408"><ele>4.0</ele><time>2026-04-12T10:51:01.837Z</time></trkpt><trkpt lat="43.5439366" lon="6.9665363"><ele>4.0</ele><time>2026-04-12T10:51:03.828Z</time></trkpt><trkpt lat="43.5439655" lon="6.966644"><ele>4.0</ele><time>2026-04-12T10:51:05.827Z</time></trkpt><trkpt lat="43.5439988" lon="6.9667504"><ele>3.9999999999999996</ele><time>2026-04-12T10:51:07.857Z</time></trkpt><trkpt lat="43.5440289" lon="6.9668516"><ele>4.0</ele><time>2026-04-12T10:51:10.871Z</time></trkpt><trkpt lat="43.5440456" lon="6.9669383"><ele>3.8571428571428568</ele><time>2026-04-12T10:51:13.88Z</time></trkpt><trkpt lat="43.5440617" lon="6.9670381"><ele>3.714285714285714</ele><time>2026-04-12T10:51:16.885Z</time></trkpt><trkpt lat="43.5440785" lon="6.9671451"><ele>3.571428571428571</ele><time>2026-04-12T10:51:19.871Z</time></trkpt><trkpt lat="43.5441195" lon="6.9672225"><ele>3.4285714285714284</ele><time>2026-04-12T10:51:22.871Z</time></trkpt><trkpt lat="43.5441608" lon="6.9672907"><ele>3.2857142857142856</ele><time>2026-04-12T10:51:26.877Z</time></trkpt><trkpt lat="43.5442079" lon="6.9673619"><ele>3.1428571428571423</ele><time>2026-04-12T10:51:41.857Z</time></trkpt><trkpt lat="43.54419" lon="6.9674528"><ele>3.0</ele><time>2026-04-12T10:52:13.859Z</time></trkpt><trkpt lat="43.5441432" lon="6.967518"><ele>2.714285714285714</ele><time>2026-04-12T10:54:26.889Z</time></trkpt><trkpt lat="43.5440829" lon="6.9675517"><ele>2.4285714285714284</ele><time>2026-04-12T10:54:35.866Z</time></trkpt><trkpt lat="43.5440183" lon="6.9675666"><ele>2.142857142857143</ele><time>2026-04-12T10:57:16.868Z</time></trkpt><trkpt lat="43.5439671" lon="6.96765"><ele>1.857142857142857</ele><time>2026-04-12T10:57:35.859Z</time></trkpt><trkpt lat="43.5438956" lon="6.9676583"><ele>1.5714285714285712</ele><time>2026-04-12T10:57:44.878Z</time></trkpt><trkpt lat="43.5438902" lon="6.9677511"><ele>1.2857142857142856</ele><time>2026-04-12T10:59:36.819Z</time></trkpt><trkpt lat="43.5439481" lon="6.9676794"><ele>1.0</ele><time>2026-04-12T11:06:17.861Z</time></trkpt><trkpt lat="43.5440038" lon="6.9676221"><ele>1.0</ele><time>2026-04-12T11:06:26.856Z</time></trkpt><trkpt lat="43.5440516" lon="6.9675577"><ele>0.9999999999999999</ele><time>2026-04-12T11:06:42.842Z</time></trkpt><trkpt lat="43.5441018" lon="6.9674973"><ele>1.0</ele><time>2026-04-12T11:06:58.859Z</time></trkpt><trkpt lat="43.5441612" lon="6.9674585"><ele>1.0</ele><time>2026-04-12T11:07:05.736Z</time></trkpt><trkpt lat="43.5442174" lon="6.9674982"><ele>0.9999999999999999</ele><time>2026-04-12T11:07:10.836Z</time></trkpt><trkpt lat="43.5442456" lon="6.9675818"><ele>1.0</ele><time>2026-04-12T11:07:19.872Z</time></trkpt><trkpt lat="43.5442776" lon="6.9676584"><ele>1.0</ele><time>2026-04-12T11:07:26.847Z</time></trkpt><trkpt lat="43.5443353" lon="6.9676943"><ele>1.0</ele><time>2026-04-12T11:07:54.801Z</time></trkpt><trkpt lat="43.54436" lon="6.9677826"><ele>0.9999999999999999</ele><time>2026-04-12T11:08:06.822Z</time></trkpt><trkpt lat="43.5443985" lon="6.9678738"><ele>1.0</ele><time>2026-04-12T11:08:11.848Z</time></trkpt><trkpt lat="43.544434" lon="6.9679744"><ele>1.0</ele><time>2026-04-12T11:08:16.849Z</time></trkpt><trkpt lat="43.544471" lon="6.9680562"><ele>0.9999999999999999</ele><time>2026-04-12T11:08:23.852Z</time></trkpt><trkpt lat="43.5445017" lon="6.9681487"><ele>1.0</ele><time>2026-04-12T11:08:31.82Z</time></trkpt><trkpt lat="43.5445458" lon="6.9682288"><ele>1.0</ele><time>2026-04-12T11:08:36.856Z</time></trkpt><trkpt lat="43.5445829" lon="6.9683076"><ele>1.2857142857142856</ele><time>2026-04-12T11:08:43.873Z</time></trkpt><trkpt lat="43.5446168" lon="6.9683837"><ele>1.5714285714285712</ele><time>2026-04-12T11:08:48.873Z</time></trkpt><trkpt lat="43.5446427" lon="6.9684726"><ele>1.857142857142857</ele><time>2026-04-12T11:08:54.871Z</time></trkpt><trkpt lat="43.5446762" lon="6.9685571"><ele>2.142857142857143</ele><time>2026-04-12T11:09:00.879Z</time></trkpt><trkpt lat="43.5447075" lon="6.9686334"><ele>2.4285714285714284</ele><time>2026-04-12T11:09:05.865Z</time></trkpt><trkpt lat="43.5447351" lon="6.9687126"><ele>2.714285714285714</ele><time>2026-04-12T11:09:11.849Z</time></trkpt><trkpt lat="43.5447716" lon="6.9687908"><ele>3.0</ele><time>2026-04-12T11:09:17.851Z</time></trkpt><trkpt lat="43.5448154" lon="6.9688736"><ele>2.9999999999999996</ele><time>2026-04-12T11:09:23.873Z</time></trkpt><trkpt lat="43.5448456" lon="6.9689579"><ele>3.0</ele><time>2026-04-12T11:09:29.85Z</time></trkpt><trkpt lat="43.5448754" lon="6.9690374"><ele>3.0</ele><time>2026-04-12T11:09:35.868Z</time></trkpt><trkpt lat="43.5449006" lon="6.9691187"><ele>3.0</ele><time>2026-04-12T11:09:40.868Z</time></trkpt><trkpt lat="43.5449318" lon="6.9691956"><ele>3.0</ele><time>2026-04-12T11:09:45.855Z</time></trkpt><trkpt lat="43.5449662" lon="6.9692911"><ele>2.9999999999999996</ele><time>2026-04-12T11:09:52.864Z</time></trkpt><trkpt lat="43.5449905" lon="6.9693789"><ele>3.0</ele><time>2026-04-12T11:09:58.892Z</time></trkpt><trkpt lat="43.5450265" lon="6.9694537"><ele>2.714285714285714</ele><time>2026-04-12T11:10:03.845Z</time></trkpt><trkpt lat="43.5450519" lon="6.9695397"><ele>2.4285714285714284</ele><time>2026-04-12T11:10:09.86Z</time></trkpt><trkpt lat="43.5450788" lon="6.9696242"><ele>2.142857142857143</ele><time>2026-04-12T11:10:14.85Z</time></trkpt><trkpt lat="43.5451125" lon="6.969707"><ele>1.857142857142857</ele><time>2026-04-12T11:10:20.869Z</time></trkpt><trkpt lat="43.5451402" lon="6.9697977"><ele>1.5714285714285712</ele><time>2026-04-12T11:10:26.87Z</time></trkpt><trkpt lat="43.5451761" lon="6.969889"><ele>1.2857142857142856</ele><time>2026-04-12T11:10:32.864Z</time></trkpt><trkpt lat="43.545204" lon="6.9699752"><ele>1.0</ele><time>2026-04-12T11:10:37.853Z</time></trkpt><trkpt lat="43.545227" lon="6.9700603"><ele>0.8571428571428571</ele><time>2026-04-12T11:10:42.86Z</time></trkpt><trkpt lat="43.5452576" lon="6.9701479"><ele>0.7142857142857142</ele><time>2026-04-12T11:10:48.856Z</time></trkpt><trkpt lat="43.5452919" lon="6.9702268"><ele>0.5714285714285714</ele><time>2026-04-12T11:10:53.835Z</time></trkpt><trkpt lat="43.5453136" lon="6.970309"><ele>0.42857142857142855</ele><time>2026-04-12T11:10:58.881Z</time></trkpt><trkpt lat="43.5453419" lon="6.9704064"><ele>0.2857142857142857</ele><time>2026-04-12T11:11:04.885Z</time></trkpt><trkpt lat="43.5453743" lon="6.9705023"><ele>0.14285714285714285</ele><time>2026-04-12T11:11:10.86Z</time></trkpt><trkpt lat="43.5454015" lon="6.9705821"><ele>0.0</ele><time>2026-04-12T11:11:16.85Z</time></trkpt><trkpt lat="43.5454298" lon="6.9706719"><ele>0.2857142857142857</ele><time>2026-04-12T11:11:22.871Z</time></trkpt><trkpt lat="43.5454556" lon="6.970757"><ele>0.5714285714285714</ele><time>2026-04-12T11:11:27.863Z</time></trkpt><trkpt lat="43.5454763" lon="6.9708416"><ele>0.8571428571428571</ele><time>2026-04-12T11:11:32.887Z</time></trkpt><trkpt lat="43.5454982" lon="6.9709285"><ele>1.1428571428571428</ele><time>2026-04-12T11:11:38.863Z</time></trkpt><trkpt lat="43.5455185" lon="6.9710235"><ele>1.4285714285714284</ele><time>2026-04-12T11:11:44.858Z</time></trkpt><trkpt lat="43.5455349" lon="6.9711084"><ele>1.7142857142857142</ele><time>2026-04-12T11:11:49.868Z</time></trkpt><trkpt lat="43.5455614" lon="6.9711895"><ele>2.0</ele><time>2026-04-12T11:11:54.854Z</time></trkpt><trkpt lat="43.5455818" lon="6.9712729"><ele>2.0</ele><time>2026-04-12T11:12:00.888Z</time></trkpt><trkpt lat="43.5456048" lon="6.9713542"><ele>1.9999999999999998</ele><time>2026-04-12T11:12:05.867Z</time></trkpt><trkpt lat="43.5456266" lon="6.9714393"><ele>2.0</ele><time>2026-04-12T11:12:10.843Z</time></trkpt><trkpt lat="43.5456514" lon="6.9715237"><ele>2.0</ele><time>2026-04-12T11:12:15.879Z</time></trkpt><trkpt lat="43.5456736" lon="6.9716056"><ele>1.9999999999999998</ele><time>2026-04-12T11:12:20.876Z</time></trkpt><trkpt lat="43.5456983" lon="6.9716902"><ele>2.0</ele><time>2026-04-12T11:12:25.85Z</time></trkpt><trkpt lat="43.5457264" lon="6.9717746"><ele>2.0</ele><time>2026-04-12T11:12:30.855Z</time></trkpt><trkpt lat="43.5457509" lon="6.9718676"><ele>1.857142857142857</ele><time>2026-04-12T11:12:37.852Z</time></trkpt><trkpt lat="43.5457747" lon="6.9719536"><ele>1.714285714285714</ele><time>2026-04-12T11:12:43.855Z</time></trkpt><trkpt lat="43.5457955" lon="6.9720513"><ele>1.5714285714285714</ele><time>2026-04-12T11:12:49.866Z</time></trkpt><trkpt lat="43.545821" lon="6.9721474"><ele>1.4285714285714284</ele><time>2026-04-12T11:12:55.869Z</time></trkpt><trkpt lat="43.5458421" lon="6.9722343"><ele>1.2857142857142856</ele><time>2026-04-12T11:13:00.856Z</time></trkpt><trkpt lat="43.5458692" lon="6.9723137"><ele>1.1428571428571428</ele><time>2026-04-12T11:13:05.866Z</time></trkpt><trkpt lat="43.5458954" lon="6.9724079"><ele>1.0</ele><time>2026-04-12T11:13:11.825Z</time></trkpt><trkpt lat="43.5459216" lon="6.9725012"><ele>0.8571428571428571</ele><time>2026-04-12T11:13:17.864Z</time></trkpt><trkpt lat="43.545948" lon="6.9725949"><ele>0.7142857142857142</ele><time>2026-04-12T11:13:23.854Z</time></trkpt><trkpt lat="43.5459819" lon="6.9726855"><ele>0.5714285714285714</ele><time>2026-04-12T11:13:29.88Z</time></trkpt><trkpt lat="43.5460017" lon="6.9727809"><ele>0.42857142857142855</ele><time>2026-04-12T11:13:37.881Z</time></trkpt><trkpt lat="43.5460198" lon="6.9728747"><ele>0.2857142857142857</ele><time>2026-04-12T11:13:43.88Z</time></trkpt><trkpt lat="43.5460376" lon="6.9729595"><ele>0.14285714285714285</ele><time>2026-04-12T11:13:48.852Z</time></trkpt><trkpt lat="43.5460574" lon="6.9730534"><ele>0.0</ele><time>2026-04-12T11:13:54.883Z</time></trkpt><trkpt lat="43.5460856" lon="6.9731368"><ele>0.0</ele><time>2026-04-12T11:14:00.875Z</time></trkpt><trkpt lat="43.5461079" lon="6.9732326"><ele>0.0</ele><time>2026-04-12T11:14:06.865Z</time></trkpt><trkpt lat="43.546135" lon="6.9733279"><ele>0.0</ele><time>2026-04-12T11:14:12.867Z</time></trkpt><trkpt lat="43.5461601" lon="6.9734144"><ele>0.0</ele><time>2026-04-12T11:14:18.852Z</time></trkpt><trkpt lat="43.5461806" lon="6.9734967"><ele>0.0</ele><time>2026-04-12T11:14:24.819Z</time></trkpt><trkpt lat="43.546209" lon="6.9735901"><ele>0.0</ele><time>2026-04-12T11:14:30.865Z</time></trkpt><trkpt lat="43.5462296" lon="6.9736861"><ele>0.0</ele><time>2026-04-12T11:14:36.859Z</time></trkpt><trkpt lat="43.5462523" lon="6.9737682"><ele>0.14285714285714285</ele><time>2026-04-12T11:14:42.864Z</time></trkpt><trkpt lat="43.546274" lon="6.9738584"><ele>0.2857142857142857</ele><time>2026-04-12T11:14:47.874Z</time></trkpt><trkpt lat="43.5462963" lon="6.9739436"><ele>0.42857142857142855</ele><time>2026-04-12T11:14:53.851Z</time></trkpt><trkpt lat="43.5463154" lon="6.9740376"><ele>0.5714285714285714</ele><time>2026-04-12T11:14:59.91Z</time></trkpt><trkpt lat="43.5463459" lon="6.9741232"><ele>0.7142857142857142</ele><time>2026-04-12T11:15:04.845Z</time></trkpt><trkpt lat="43.5463698" lon="6.9742164"><ele>0.8571428571428571</ele><time>2026-04-12T11:15:10.875Z</time></trkpt><trkpt lat="43.5463941" lon="6.9743129"><ele>1.0</ele><time>2026-04-12T11:15:17.847Z</time></trkpt><trkpt lat="43.5464182" lon="6.9744033"><ele>1.0</ele><time>2026-04-12T11:15:22.875Z</time></trkpt><trkpt lat="43.546436" lon="6.9744898"><ele>0.9999999999999999</ele><time>2026-04-12T11:15:27.871Z</time></trkpt><trkpt lat="43.5464627" lon="6.9745716"><ele>1.0</ele><time>2026-04-12T11:15:32.831Z</time></trkpt><trkpt lat="43.5464919" lon="6.9746632"><ele>1.0</ele><time>2026-04-12T11:15:39.883Z</time></trkpt><trkpt lat="43.5465168" lon="6.9747436"><ele>0.9999999999999999</ele><time>2026-04-12T11:15:44.886Z</time></trkpt><trkpt lat="43.5465416" lon="6.974838"><ele>1.0</ele><time>2026-04-12T11:15:51.872Z</time></trkpt><trkpt lat="43.5465668" lon="6.9749187"><ele>1.0</ele><time>2026-04-12T11:15:57.884Z</time></trkpt><trkpt lat="43.5465953" lon="6.9750039"><ele>0.8571428571428571</ele><time>2026-04-12T11:16:03.851Z</time></trkpt><trkpt lat="43.546628" lon="6.9750938"><ele>0.7142857142857142</ele><time>2026-04-12T11:16:09.83Z</time></trkpt><trkpt lat="43.5466567" lon="6.975174"><ele>0.5714285714285714</ele><time>2026-04-12T11:16:14.856Z</time></trkpt><trkpt lat="43.5466816" lon="6.9752771"><ele>0.42857142857142855</ele><time>2026-04-12T11:16:20.895Z</time></trkpt><trkpt lat="43.5466988" lon="6.9753657"><ele>0.2857142857142857</ele><time>2026-04-12T11:16:26.869Z</time></trkpt><trkpt lat="43.5467087" lon="6.9754529"><ele>0.14285714285714285</ele><time>2026-04-12T11:16:32.848Z</time></trkpt><trkpt lat="43.5467251" lon="6.9755447"><ele>0.0</ele><time>2026-04-12T11:16:38.861Z</time></trkpt><trkpt lat="43.546749" lon="6.9756369"><ele>0.0</ele><time>2026-04-12T11:16:44.845Z</time></trkpt><trkpt lat="43.5467724" lon="6.9757237"><ele>0.0</ele><time>2026-04-12T11:16:51.856Z</time></trkpt><trkpt lat="43.5467938" lon="6.9758155"><ele>0.0</ele><time>2026-04-12T11:16:57.868Z</time></trkpt><trkpt lat="43.5468142" lon="6.9759102"><ele>0.0</ele><time>2026-04-12T11:17:03.876Z</time></trkpt><trkpt lat="43.5468333" lon="6.9759954"><ele>0.0</ele><time>2026-04-12T11:17:09.837Z</time></trkpt><trkpt lat="43.5468598" lon="6.9760879"><ele>0.0</ele><time>2026-04-12T11:17:16.865Z</time></trkpt><trkpt lat="43.5468804" lon="6.9761708"><ele>0.0</ele><time>2026-04-12T11:17:22.844Z</time></trkpt><trkpt lat="43.5468891" lon="6.9762579"><ele>0.14285714285714285</ele><time>2026-04-12T11:17:28.869Z</time></trkpt><trkpt lat="43.5469048" lon="6.9763448"><ele>0.2857142857142857</ele><time>2026-04-12T11:17:34.839Z</time></trkpt><trkpt lat="43.5469199" lon="6.9764362"><ele>0.42857142857142855</ele><time>2026-04-12T11:17:39.868Z</time></trkpt><trkpt lat="43.5469411" lon="6.9765312"><ele>0.5714285714285714</ele><time>2026-04-12T11:17:45.885Z</time></trkpt><trkpt lat="43.5469586" lon="6.9766254"><ele>0.7142857142857142</ele><time>2026-04-12T11:17:51.874Z</time></trkpt><trkpt lat="43.5469819" lon="6.9767076"><ele>0.8571428571428571</ele><time>2026-04-12T11:17:56.823Z</time></trkpt><trkpt lat="43.5470049" lon="6.9767958"><ele>1.0</ele><time>2026-04-12T11:18:01.84Z</time></trkpt><trkpt lat="43.5470207" lon="6.9768853"><ele>1.0</ele><time>2026-04-12T11:18:06.819Z</time></trkpt><trkpt lat="43.5470369" lon="6.9769773"><ele>0.9999999999999999</ele><time>2026-04-12T11:18:19.86Z</time></trkpt><trkpt lat="43.5470953" lon="6.9770103"><ele>1.0</ele><time>2026-04-12T11:18:31.861Z</time></trkpt><trkpt lat="43.5471351" lon="6.9770931"><ele>1.0</ele><time>2026-04-12T11:18:57.872Z</time></trkpt><trkpt lat="43.5471483" lon="6.9771856"><ele>0.9999999999999999</ele><time>2026-04-12T11:19:06.863Z</time></trkpt><trkpt lat="43.5472061" lon="6.9772429"><ele>1.0</ele><time>2026-04-12T11:19:14.526Z</time></trkpt><trkpt lat="43.5472784" lon="6.9772564"><ele>1.0</ele><time>2026-04-12T11:19:20.341Z</time></trkpt><trkpt lat="43.5478628" lon="6.9773139"><ele>2.1666666666666665</ele><time>2026-04-12T11:20:16.818Z</time></trkpt><trkpt lat="43.5479331" lon="6.9773449"><ele>3.333333333333333</ele><time>2026-04-12T11:20:19.826Z</time></trkpt><trkpt lat="43.5479954" lon="6.9773086"><ele>4.5</ele><time>2026-04-12T11:20:21.845Z</time></trkpt><trkpt lat="43.5479671" lon="6.9772116"><ele>5.666666666666666</ele><time>2026-04-12T11:20:27.828Z</time></trkpt><trkpt lat="43.5480635" lon="6.9772726"><ele>6.833333333333333</ele><time>2026-04-12T11:20:33.824Z</time></trkpt><trkpt lat="43.5481046" lon="6.9773463"><ele>8.0</ele><time>2026-04-12T11:20:37.806Z</time></trkpt><trkpt lat="43.5481678" lon="6.9773497"><ele>8.0</ele><time>2026-04-12T11:20:47.834Z</time></trkpt><trkpt lat="43.5482363" lon="6.9773567"><ele>7.999999999999999</ele><time>2026-04-12T11:20:53.823Z</time></trkpt><trkpt lat="43.5482979" lon="6.9773763"><ele>8.0</ele><time>2026-04-12T11:21:01.848Z</time></trkpt><trkpt lat="43.5483601" lon="6.9774236"><ele>8.0</ele><time>2026-04-12T11:21:09.811Z</time></trkpt><trkpt lat="43.5484245" lon="6.9774407"><ele>7.999999999999999</ele><time>2026-04-12T11:21:16.829Z</time></trkpt><trkpt lat="43.5484966" lon="6.9774606"><ele>8.0</ele><time>2026-04-12T11:21:22.869Z</time></trkpt><trkpt lat="43.5485227" lon="6.9775399"><ele>8.0</ele><time>2026-04-12T11:21:34.836Z</time></trkpt><trkpt lat="43.5485364" lon="6.9776315"><ele>9.142857142857142</ele><time>2026-04-12T11:21:41.846Z</time></trkpt><trkpt lat="43.5485418" lon="6.9777265"><ele>10.285714285714285</ele><time>2026-04-12T11:21:47.824Z</time></trkpt><trkpt lat="43.5485256" lon="6.9778116"><ele>11.428571428571427</ele><time>2026-04-12T11:21:58.839Z</time></trkpt><trkpt lat="43.5484832" lon="6.9778822"><ele>12.571428571428571</ele><time>2026-04-12T11:22:05.837Z</time></trkpt><trkpt lat="43.5484728" lon="6.9779746"><ele>13.714285714285712</ele><time>2026-04-12T11:22:11.81Z</time></trkpt><trkpt lat="43.5484719" lon="6.978078"><ele>14.857142857142856</ele><time>2026-04-12T11:22:16.848Z</time></trkpt><trkpt lat="43.5484696" lon="6.9781814"><ele>16.0</ele><time>2026-04-12T11:22:21.843Z</time></trkpt><trkpt lat="43.5483893" lon="6.9782263"><ele>16.0</ele><time>2026-04-12T11:22:26.822Z</time></trkpt><trkpt lat="43.5482248" lon="6.9782229"><ele>16.0</ele><time>2026-04-12T11:22:28.855Z</time></trkpt><trkpt lat="43.5480136" lon="6.9782082"><ele>16.0</ele><time>2026-04-12T11:22:29.815Z</time></trkpt><trkpt lat="43.5477994" lon="6.9781956"><ele>10.5</ele><time>2026-04-12T11:22:30.844Z</time></trkpt><trkpt lat="43.5475977" lon="6.9781756"><ele>5.0</ele><time>2026-04-12T11:22:31.819Z</time></trkpt><trkpt lat="43.5473452" lon="6.9781634"><ele>5.0</ele><time>2026-04-12T11:22:33.672Z</time></trkpt><trkpt lat="43.5471487" lon="6.9781334"><ele>5.0</ele><time>2026-04-12T11:22:34.674Z</time></trkpt><trkpt lat="43.5470236" lon="6.9781063"><ele>5.0</ele><time>2026-04-12T11:22:35.657Z</time></trkpt><trkpt lat="43.5469577" lon="6.9780895"><ele>5.0</ele><time>2026-04-12T11:22:36.628Z</time></trkpt><trkpt lat="43.5468954" lon="6.9780721"><ele>5.0</ele><time>2026-04-12T11:22:38.61Z</time></trkpt><trkpt lat="43.5477057" lon="6.9780518"><ele>8.666666666666666</ele><time>2026-04-12T11:22:59.887Z</time></trkpt><trkpt lat="43.5480005" lon="6.978071"><ele>12.333333333333332</ele><time>2026-04-12T11:23:00.928Z</time></trkpt><trkpt lat="43.548149" lon="6.9780784"><ele>16.0</ele><time>2026-04-12T11:23:01.91Z</time></trkpt><trkpt lat="43.5482251" lon="6.9780817"><ele>15.999999999999998</ele><time>2026-04-12T11:23:02.972Z</time></trkpt><trkpt lat="43.5482915" lon="6.9780581"><ele>16.0</ele><time>2026-04-12T11:23:06.195Z</time></trkpt><trkpt lat="43.5482073" lon="6.9780572"><ele>16.0</ele><time>2026-04-12T11:24:00.274Z</time></trkpt><trkpt lat="43.5481768" lon="6.9779624"><ele>16.0</ele><time>2026-04-12T11:24:11.471Z</time></trkpt><trkpt lat="43.5481458" lon="6.9778254"><ele>15.999999999999998</ele><time>2026-04-12T11:24:54.095Z</time></trkpt><trkpt lat="43.5482198" lon="6.9778353"><ele>16.0</ele><time>2026-04-12T11:25:36.826Z</time></trkpt><trkpt lat="43.5482443" lon="6.9779191"><ele>16.0</ele><time>2026-04-12T11:25:41.852Z</time></trkpt><trkpt lat="43.5481935" lon="6.9779746"><ele>16.0</ele><time>2026-04-12T11:25:53.842Z</time></trkpt><trkpt lat="43.5483126" lon="6.9781862"><ele>16.0</ele><time>2026-04-12T11:29:13.8Z</time></trkpt><trkpt lat="43.5482505" lon="6.9782288"><ele>16.0</ele><time>2026-04-12T11:29:16.8Z</time></trkpt><trkpt lat="43.5481867" lon="6.9783077"><ele>16.0</ele><time>2026-04-12T11:29:20.805Z</time></trkpt><trkpt lat="43.548118" lon="6.9784139"><ele>16.5</ele><time>2026-04-12T11:29:23.804Z</time></trkpt><trkpt lat="43.5480721" lon="6.9784757"><ele>17.0</ele><time>2026-04-12T11:29:25.796Z</time></trkpt><trkpt lat="43.5480059" lon="6.9785189"><ele>17.5</ele><time>2026-04-12T11:29:28.813Z</time></trkpt><trkpt lat="43.5479742" lon="6.9786145"><ele>18.0</ele><time>2026-04-12T11:29:32.803Z</time></trkpt><trkpt lat="43.5479817" lon="6.9787218"><ele>18.5</ele><time>2026-04-12T11:29:35.812Z</time></trkpt><trkpt lat="43.547944" lon="6.9788834"><ele>19.0</ele><time>2026-04-12T11:29:37.799Z</time></trkpt><trkpt lat="43.5479426" lon="6.9790283"><ele>16.0</ele><time>2026-04-12T11:29:39.801Z</time></trkpt><trkpt lat="43.547937" lon="6.9791864"><ele>13.0</ele><time>2026-04-12T11:29:41.812Z</time></trkpt><trkpt lat="43.5478655" lon="6.979864"><ele>13.0</ele><time>2026-04-12T11:29:53.496Z</time></trkpt><trkpt lat="43.547903" lon="6.9794211"><ele>13.0</ele><time>2026-04-12T11:29:55.802Z</time></trkpt><trkpt lat="43.5479348" lon="6.9792901"><ele>13.0</ele><time>2026-04-12T11:29:56.799Z</time></trkpt><trkpt lat="43.5479673" lon="6.9791952"><ele>14.2</ele><time>2026-04-12T11:29:57.805Z</time></trkpt><trkpt lat="43.5480016" lon="6.9791178"><ele>15.4</ele><time>2026-04-12T11:29:58.799Z</time></trkpt><trkpt lat="43.5480349" lon="6.9790229"><ele>16.599999999999998</ele><time>2026-04-12T11:29:59.81Z</time></trkpt><trkpt lat="43.548086" lon="6.9788004"><ele>17.8</ele><time>2026-04-12T11:30:01.798Z</time></trkpt><trkpt lat="43.5481039" lon="6.9786755"><ele>19.0</ele><time>2026-04-12T11:30:02.797Z</time></trkpt><trkpt lat="43.5481146" lon="6.978534"><ele>19.0</ele><time>2026-04-12T11:30:03.799Z</time></trkpt><trkpt lat="43.548125" lon="6.978383"><ele>19.0</ele><time>2026-04-12T11:30:04.797Z</time></trkpt><trkpt lat="43.5481314" lon="6.9782528"><ele>19.0</ele><time>2026-04-12T11:30:05.803Z</time></trkpt><trkpt lat="43.5481301" lon="6.9781464"><ele>19.0</ele><time>2026-04-12T11:30:06.8Z</time></trkpt><trkpt lat="43.548122" lon="6.9780498"><ele>19.0</ele><time>2026-04-12T11:30:07.803Z</time></trkpt><trkpt lat="43.548072" lon="6.9778605"><ele>18.5</ele><time>2026-04-12T11:30:10.798Z</time></trkpt><trkpt lat="43.5480212" lon="6.9777559"><ele>18.0</ele><time>2026-04-12T11:30:13.805Z</time></trkpt><trkpt lat="43.5479734" lon="6.9776614"><ele>17.5</ele><time>2026-04-12T11:30:16.804Z</time></trkpt><trkpt lat="43.548" lon="6.9775772"><ele>17.0</ele><time>2026-04-12T11:30:21.805Z</time></trkpt><trkpt lat="43.5480572" lon="6.9776555"><ele>16.5</ele><time>2026-04-12T11:30:33.812Z</time></trkpt><trkpt lat="43.5481193" lon="6.9777188"><ele>16.0</ele><time>2026-04-12T11:30:35.815Z</time></trkpt><trkpt lat="43.548178" lon="6.9776778"><ele>15.999999999999998</ele><time>2026-04-12T11:30:42.815Z</time></trkpt><trkpt lat="43.5482122" lon="6.9775627"><ele>16.0</ele><time>2026-04-12T11:30:44.821Z</time></trkpt><trkpt lat="43.5482661" lon="6.9775124"><ele>16.0</ele><time>2026-04-12T11:30:46.813Z</time></trkpt><trkpt lat="43.5483029" lon="6.9773741"><ele>16.0</ele><time>2026-04-12T11:30:51.801Z</time></trkpt><trkpt lat="43.5482875" lon="6.9772846"><ele>15.999999999999998</ele><time>2026-04-12T11:30:52.803Z</time></trkpt><trkpt lat="43.5482653" lon="6.9771786"><ele>16.0</ele><time>2026-04-12T11:30:53.803Z</time></trkpt><trkpt lat="43.5482489" lon="6.9770575"><ele>14.0</ele><time>2026-04-12T11:30:54.828Z</time></trkpt><trkpt lat="43.5482291" lon="6.9769083"><ele>12.0</ele><time>2026-04-12T11:30:55.803Z</time></trkpt><trkpt lat="43.5482379" lon="6.976749"><ele>10.0</ele><time>2026-04-12T11:30:56.797Z</time></trkpt><trkpt lat="43.5482649" lon="6.9765889"><ele>8.0</ele><time>2026-04-12T11:30:57.81Z</time></trkpt><trkpt lat="43.5483051" lon="6.9764493"><ele>7.4</ele><time>2026-04-12T11:30:58.799Z</time></trkpt><trkpt lat="43.5483517" lon="6.9763182"><ele>6.800000000000001</ele><time>2026-04-12T11:30:59.799Z</time></trkpt><trkpt lat="43.5484014" lon="6.9761925"><ele>6.2</ele><time>2026-04-12T11:31:00.805Z</time></trkpt><trkpt lat="43.5484439" lon="6.9760963"><ele>5.6</ele><time>2026-04-12T11:31:01.815Z</time></trkpt><trkpt lat="43.5484989" lon="6.9759832"><ele>5.0</ele><time>2026-04-12T11:31:03.806Z</time></trkpt><trkpt lat="43.5485627" lon="6.9758929"><ele>5.25</ele><time>2026-04-12T11:31:05.816Z</time></trkpt><trkpt lat="43.548835" lon="6.975907"><ele>5.5</ele><time>2026-04-12T11:31:25.81Z</time></trkpt><trkpt lat="43.5488445" lon="6.9760088"><ele>5.75</ele><time>2026-04-12T11:31:28.81Z</time></trkpt><trkpt lat="43.5488171" lon="6.9761127"><ele>6.0</ele><time>2026-04-12T11:31:32.812Z</time></trkpt><trkpt lat="43.548796" lon="6.9762032"><ele>5.999999999999999</ele><time>2026-04-12T11:31:37.814Z</time></trkpt><trkpt lat="43.5487907" lon="6.9762907"><ele>6.0</ele><time>2026-04-12T11:31:40.836Z</time></trkpt><trkpt lat="43.5487501" lon="6.9763756"><ele>6.0</ele><time>2026-04-12T11:31:44.799Z</time></trkpt><trkpt lat="43.5486837" lon="6.9764322"><ele>6.0</ele><time>2026-04-12T11:31:48.839Z</time></trkpt><trkpt lat="43.5486251" lon="6.9764817"><ele>6.0</ele><time>2026-04-12T11:31:52.818Z</time></trkpt><trkpt lat="43.5485705" lon="6.9765526"><ele>5.999999999999999</ele><time>2026-04-12T11:31:54.816Z</time></trkpt><trkpt lat="43.5485232" lon="6.976642"><ele>6.0</ele><time>2026-04-12T11:31:55.836Z</time></trkpt><trkpt lat="43.5484816" lon="6.976742"><ele>6.333333333333333</ele><time>2026-04-12T11:31:56.841Z</time></trkpt><trkpt lat="43.5484433" lon="6.976851"><ele>6.666666666666666</ele><time>2026-04-12T11:31:57.805Z</time></trkpt><trkpt lat="43.5483933" lon="6.9769778"><ele>7.0</ele><time>2026-04-12T11:31:58.844Z</time></trkpt><trkpt lat="43.5483572" lon="6.9770493"><ele>7.333333333333333</ele><time>2026-04-12T11:31:59.809Z</time></trkpt><trkpt lat="43.5483169" lon="6.9771248"><ele>7.666666666666666</ele><time>2026-04-12T11:32:00.811Z</time></trkpt><trkpt lat="43.5482795" lon="6.9772001"><ele>8.0</ele><time>2026-04-12T11:32:01.807Z</time></trkpt><trkpt lat="43.5482227" lon="6.9773377"><ele>8.0</ele><time>2026-04-12T11:32:03.805Z</time></trkpt><trkpt lat="43.5481938" lon="6.9774485"><ele>8.0</ele><time>2026-04-12T11:32:05.806Z</time></trkpt><trkpt lat="43.5481651" lon="6.977529"><ele>8.0</ele><time>2026-04-12T11:32:07.809Z</time></trkpt><trkpt lat="43.5480879" lon="6.9775099"><ele>8.0</ele><time>2026-04-12T11:32:13.804Z</time></trkpt><trkpt lat="43.5479854" lon="6.9774569"><ele>8.0</ele><time>2026-04-12T11:32:14.802Z</time></trkpt><trkpt lat="43.5476036" lon="6.9775045"><ele>16.0</ele><time>2026-04-12T11:32:22.44Z</time></trkpt><trkpt lat="43.5481324" lon="6.9778173"><ele>5.0</ele><time>2026-04-12T11:32:27.392Z</time></trkpt><trkpt lat="43.5472064" lon="6.9794461"><ele>5.0</ele><time>2026-04-12T11:32:33.809Z</time></trkpt><trkpt lat="43.5471586" lon="6.9796286"><ele>5.0</ele><time>2026-04-12T11:32:34.805Z</time></trkpt><trkpt lat="43.5471544" lon="6.9798191"><ele>5.0</ele><time>2026-04-12T11:32:36.803Z</time></trkpt><trkpt lat="43.5472281" lon="6.9799502"><ele>5.0</ele><time>2026-04-12T11:32:38.809Z</time></trkpt><trkpt lat="43.5473058" lon="6.9800341"><ele>5.0</ele><time>2026-04-12T11:32:40.807Z</time></trkpt><trkpt lat="43.5473725" lon="6.9801508"><ele>5.0</ele><time>2026-04-12T11:32:42.802Z</time></trkpt><trkpt lat="43.5474358" lon="6.9802515"><ele>5.0</ele><time>2026-04-12T11:32:44.801Z</time></trkpt><trkpt lat="43.5474992" lon="6.9803529"><ele>5.0</ele><time>2026-04-12T11:32:46.809Z</time></trkpt><trkpt lat="43.5475546" lon="6.9804526"><ele>5.0</ele><time>2026-04-12T11:32:48.826Z</time></trkpt><trkpt lat="43.5478663" lon="6.9807232"><ele>5.8</ele><time>2026-04-12T11:32:55.809Z</time></trkpt><trkpt lat="43.5479653" lon="6.9807688"><ele>6.6</ele><time>2026-04-12T11:32:56.818Z</time></trkpt><trkpt lat="43.548017" lon="6.9808442"><ele>7.4</ele><time>2026-04-12T11:32:57.814Z</time></trkpt><trkpt lat="43.5480541" lon="6.980931"><ele>8.2</ele><time>2026-04-12T11:32:58.815Z</time></trkpt><trkpt lat="43.5480943" lon="6.9810322"><ele>9.0</ele><time>2026-04-12T11:33:00.799Z</time></trkpt><trkpt lat="43.5480989" lon="6.9815418"><ele>11.5</ele><time>2026-04-12T11:33:12.804Z</time></trkpt><trkpt lat="43.5480081" lon="6.9815643"><ele>14.0</ele><time>2026-04-12T11:33:31.961Z</time></trkpt><trkpt lat="43.5478944" lon="6.980885"><ele>15.0</ele><time>2026-04-12T11:33:45.895Z</time></trkpt><trkpt lat="43.5478354" lon="6.9806927"><ele>16.0</ele><time>2026-04-12T11:33:54.196Z</time></trkpt><trkpt lat="43.5481266" lon="6.9777586"><ele>16.0</ele><time>2026-04-12T11:34:19.691Z</time></trkpt></trkseg></trk></gpx>